<?xml version='1.0' encoding='UTF-8'?><gpx version="1.1" creator="JPX - https://github.com/jenetics/jpx" xmlns="http://www.topografix.com/GPX/1/1"><trk><trkseg><trkpt lat="43.4718289" lon="11.3956694"><ele>418.99999999999994</ele><time>2026-04-03T07:42:07.764Z</time></trkpt><trkpt lat="43.4718872" lon="11.3955969"><ele>419.0</ele><time>2026-04-03T07:42:09.763Z</time></trkpt><trkpt lat="43.4719344" lon="11.3955238"><ele>419.0</ele><time>2026-04-03T07:42:11.763Z</time></trkpt><trkpt lat="43.4719811" lon="11.3954265"><ele>419.0</ele><time>2026-04-03T07:42:14.763Z</time></trkpt><trkpt lat="43.4719776" lon="11.3953171"><ele>418.99999999999994</ele><time>2026-04-03T07:47:03.762Z</time></trkpt><trkpt lat="43.4719504" lon="11.3952276"><ele>419.0</ele><time>2026-04-03T07:47:05.763Z</time></trkpt><trkpt lat="43.4719011" lon="11.3951445"><ele>421.2</ele><time>2026-04-03T07:47:07.763Z</time></trkpt><trkpt lat="43.4718333" lon="11.3950585"><ele>423.4</ele><time>2026-04-03T07:47:09.762Z</time></trkpt><trkpt lat="43.4717712" lon="11.3949738"><ele>425.6</ele><time>2026-04-03T07:47:12.762Z</time></trkpt><trkpt lat="43.4716964" lon="11.3948787"><ele>427.8</ele><time>2026-04-03T07:47:15.763Z</time></trkpt><trkpt lat="43.4716458" lon="11.394749"><ele>430.0</ele><time>2026-04-03T07:47:17.762Z</time></trkpt><trkpt lat="43.4716342" lon="11.3946235"><ele>431.33333333333337</ele><time>2026-04-03T07:47:19.763Z</time></trkpt><trkpt lat="43.4716405" lon="11.3945214"><ele>432.6666666666667</ele><time>2026-04-03T07:47:21.763Z</time></trkpt><trkpt lat="43.4716611" lon="11.3944277"><ele>434.0</ele><time>2026-04-03T07:47:24.763Z</time></trkpt><trkpt lat="43.4716787" lon="11.3943125"><ele>435.33333333333337</ele><time>2026-04-03T07:47:34.762Z</time></trkpt><trkpt lat="43.4717619" lon="11.3941752"><ele>436.6666666666667</ele><time>2026-04-03T07:47:36.763Z</time></trkpt><trkpt lat="43.4718186" lon="11.3941176"><ele>438.0</ele><time>2026-04-03T07:47:37.763Z</time></trkpt><trkpt lat="43.4718897" lon="11.3940746"><ele>438.0</ele><time>2026-04-03T07:47:38.763Z</time></trkpt><trkpt lat="43.4719687" lon="11.3940492"><ele>438.0</ele><time>2026-04-03T07:47:39.763Z</time></trkpt><trkpt lat="43.4720475" lon="11.3940499"><ele>438.0</ele><time>2026-04-03T07:47:40.763Z</time></trkpt><trkpt lat="43.4721339" lon="11.3940622"><ele>438.0</ele><time>2026-04-03T07:47:41.762Z</time></trkpt><trkpt lat="43.4722199" lon="11.394087"><ele>438.0</ele><time>2026-04-03T07:47:42.763Z</time></trkpt><trkpt lat="43.4722918" lon="11.3941213"><ele>438.0</ele><time>2026-04-03T07:47:43.763Z</time></trkpt><trkpt lat="43.4724052" lon="11.3941495"><ele>435.25</ele><time>2026-04-03T07:47:45.762Z</time></trkpt><trkpt lat="43.4725204" lon="11.3941521"><ele>432.5</ele><time>2026-04-03T07:47:47.763Z</time></trkpt><trkpt lat="43.4726287" lon="11.394135"><ele>429.75</ele><time>2026-04-03T07:47:49.763Z</time></trkpt><trkpt lat="43.4727341" lon="11.3940835"><ele>427.0</ele><time>2026-04-03T07:47:51.763Z</time></trkpt><trkpt lat="43.4728409" lon="11.3940083"><ele>427.0</ele><time>2026-04-03T07:47:53.763Z</time></trkpt><trkpt lat="43.472938" lon="11.3939539"><ele>427.00000000000006</ele><time>2026-04-03T07:47:55.762Z</time></trkpt><trkpt lat="43.4730495" lon="11.3939389"><ele>427.00000000000006</ele><time>2026-04-03T07:47:57.762Z</time></trkpt><trkpt lat="43.4731239" lon="11.3939609"><ele>427.0</ele><time>2026-04-03T07:47:58.762Z</time></trkpt><trkpt lat="43.4732161" lon="11.3939929"><ele>427.0</ele><time>2026-04-03T07:47:59.762Z</time></trkpt><trkpt lat="43.4732795" lon="11.3940313"><ele>424.6</ele><time>2026-04-03T07:48:00.763Z</time></trkpt><trkpt lat="43.4733474" lon="11.3940604"><ele>422.20000000000005</ele><time>2026-04-03T07:48:01.763Z</time></trkpt><trkpt lat="43.473423" lon="11.3940786"><ele>419.8</ele><time>2026-04-03T07:48:02.762Z</time></trkpt><trkpt lat="43.4734955" lon="11.3940829"><ele>417.4</ele><time>2026-04-03T07:48:03.763Z</time></trkpt><trkpt lat="43.4736172" lon="11.394082"><ele>415.0</ele><time>2026-04-03T07:48:05.763Z</time></trkpt><trkpt lat="43.473736" lon="11.3940676"><ele>416.0</ele><time>2026-04-03T07:48:07.762Z</time></trkpt><trkpt lat="43.4738357" lon="11.3940376"><ele>417.0</ele><time>2026-04-03T07:48:09.762Z</time></trkpt><trkpt lat="43.4739281" lon="11.3939842"><ele>418.0</ele><time>2026-04-03T07:48:11.763Z</time></trkpt><trkpt lat="43.4740063" lon="11.3938902"><ele>419.0</ele><time>2026-04-03T07:48:13.762Z</time></trkpt><trkpt lat="43.4740538" lon="11.3937873"><ele>420.0</ele><time>2026-04-03T07:48:15.763Z</time></trkpt><trkpt lat="43.4741097" lon="11.3936812"><ele>420.0</ele><time>2026-04-03T07:48:17.762Z</time></trkpt><trkpt lat="43.4741474" lon="11.3936112"><ele>420.0</ele><time>2026-04-03T07:48:18.762Z</time></trkpt><trkpt lat="43.4742272" lon="11.3934968"><ele>420.0</ele><time>2026-04-03T07:48:20.763Z</time></trkpt><trkpt lat="43.4743038" lon="11.3934313"><ele>420.0</ele><time>2026-04-03T07:48:22.762Z</time></trkpt><trkpt lat="43.4744008" lon="11.3933831"><ele>420.0</ele><time>2026-04-03T07:48:24.762Z</time></trkpt><trkpt lat="43.474474" lon="11.3933445"><ele>420.0</ele><time>2026-04-03T07:48:25.762Z</time></trkpt><trkpt lat="43.4745596" lon="11.3933045"><ele>420.0</ele><time>2026-04-03T07:48:26.763Z</time></trkpt><trkpt lat="43.474662" lon="11.3932535"><ele>420.0</ele><time>2026-04-03T07:48:27.763Z</time></trkpt><trkpt lat="43.4747617" lon="11.3931978"><ele>420.0</ele><time>2026-04-03T07:48:28.762Z</time></trkpt><trkpt lat="43.4748462" lon="11.3931566"><ele>420.0</ele><time>2026-04-03T07:48:29.763Z</time></trkpt><trkpt lat="43.4749296" lon="11.3931036"><ele>419.8</ele><time>2026-04-03T07:48:30.763Z</time></trkpt><trkpt lat="43.4750235" lon="11.3930617"><ele>419.6</ele><time>2026-04-03T07:48:31.763Z</time></trkpt><trkpt lat="43.475134" lon="11.3930275"><ele>419.4</ele><time>2026-04-03T07:48:32.762Z</time></trkpt><trkpt lat="43.4752485" lon="11.3929981"><ele>419.2</ele><time>2026-04-03T07:48:33.763Z</time></trkpt><trkpt lat="43.4753548" lon="11.3929775"><ele>419.0</ele><time>2026-04-03T07:48:34.763Z</time></trkpt><trkpt lat="43.4754566" lon="11.3929643"><ele>418.99999999999994</ele><time>2026-04-03T07:48:35.763Z</time></trkpt><trkpt lat="43.4755463" lon="11.3929502"><ele>419.0</ele><time>2026-04-03T07:48:36.762Z</time></trkpt><trkpt lat="43.4756264" lon="11.3929317"><ele>419.0</ele><time>2026-04-03T07:48:37.762Z</time></trkpt><trkpt lat="43.4756978" lon="11.3929019"><ele>419.0</ele><time>2026-04-03T07:48:38.763Z</time></trkpt><trkpt lat="43.4757695" lon="11.3928765"><ele>418.99999999999994</ele><time>2026-04-03T07:48:39.763Z</time></trkpt><trkpt lat="43.4758472" lon="11.3928527"><ele>419.0</ele><time>2026-04-03T07:48:40.763Z</time></trkpt><trkpt lat="43.4759263" lon="11.3928265"><ele>418.99999999999994</ele><time>2026-04-03T07:48:41.763Z</time></trkpt><trkpt lat="43.4759996" lon="11.3927999"><ele>419.0</ele><time>2026-04-03T07:48:42.763Z</time></trkpt><trkpt lat="43.4760672" lon="11.3927709"><ele>419.0</ele><time>2026-04-03T07:48:43.763Z</time></trkpt><trkpt lat="43.4761371" lon="11.3927514"><ele>419.0</ele><time>2026-04-03T07:48:44.762Z</time></trkpt><trkpt lat="43.4762008" lon="11.3927296"><ele>418.99999999999994</ele><time>2026-04-03T07:48:45.762Z</time></trkpt><trkpt lat="43.4763005" lon="11.3927232"><ele>419.0</ele><time>2026-04-03T07:48:47.763Z</time></trkpt><trkpt lat="43.4764185" lon="11.3927742"><ele>416.79999999999995</ele><time>2026-04-03T07:48:49.763Z</time></trkpt><trkpt lat="43.476479" lon="11.3928156"><ele>414.59999999999997</ele><time>2026-04-03T07:48:50.762Z</time></trkpt><trkpt lat="43.476564" lon="11.3929284"><ele>412.4</ele><time>2026-04-03T07:48:52.763Z</time></trkpt><trkpt lat="43.4765701" lon="11.3930487"><ele>410.2</ele><time>2026-04-03T07:48:54.763Z</time></trkpt><trkpt lat="43.4765135" lon="11.3931709"><ele>408.0</ele><time>2026-04-03T07:48:56.762Z</time></trkpt><trkpt lat="43.4764711" lon="11.3932593"><ele>406.8333333333333</ele><time>2026-04-03T07:48:57.762Z</time></trkpt><trkpt lat="43.4764397" lon="11.3933528"><ele>405.66666666666663</ele><time>2026-04-03T07:48:58.762Z</time></trkpt><trkpt lat="43.4764201" lon="11.3934432"><ele>404.5</ele><time>2026-04-03T07:48:59.763Z</time></trkpt><trkpt lat="43.4764015" lon="11.3935282"><ele>403.3333333333333</ele><time>2026-04-03T07:49:00.763Z</time></trkpt><trkpt lat="43.4764003" lon="11.3936815"><ele>402.16666666666663</ele><time>2026-04-03T07:49:02.763Z</time></trkpt><trkpt lat="43.4764223" lon="11.3938047"><ele>401.0</ele><time>2026-04-03T07:49:04.762Z</time></trkpt><trkpt lat="43.4764902" lon="11.3939022"><ele>400.5</ele><time>2026-04-03T07:49:07.763Z</time></trkpt><trkpt lat="43.4765983" lon="11.3939273"><ele>400.0</ele><time>2026-04-03T07:49:09.763Z</time></trkpt><trkpt lat="43.4767009" lon="11.3939512"><ele>399.5</ele><time>2026-04-03T07:49:10.763Z</time></trkpt><trkpt lat="43.4768192" lon="11.3940184"><ele>399.0</ele><time>2026-04-03T07:49:11.763Z</time></trkpt><trkpt lat="43.4769452" lon="11.3941248"><ele>399.0</ele><time>2026-04-03T07:49:12.763Z</time></trkpt><trkpt lat="43.4770655" lon="11.3942489"><ele>399.0</ele><time>2026-04-03T07:49:13.762Z</time></trkpt><trkpt lat="43.4771744" lon="11.3943634"><ele>399.0</ele><time>2026-04-03T07:49:14.762Z</time></trkpt><trkpt lat="43.4772823" lon="11.3944696"><ele>399.0</ele><time>2026-04-03T07:49:15.763Z</time></trkpt><trkpt lat="43.4773824" lon="11.3945764"><ele>399.75</ele><time>2026-04-03T07:49:16.763Z</time></trkpt><trkpt lat="43.4774763" lon="11.3946711"><ele>400.5</ele><time>2026-04-03T07:49:17.763Z</time></trkpt><trkpt lat="43.4775782" lon="11.3947573"><ele>401.25</ele><time>2026-04-03T07:49:18.763Z</time></trkpt><trkpt lat="43.4776661" lon="11.3948213"><ele>402.0</ele><time>2026-04-03T07:49:19.763Z</time></trkpt><trkpt lat="43.4778036" lon="11.3948968"><ele>404.25</ele><time>2026-04-03T07:49:20.762Z</time></trkpt><trkpt lat="43.4779441" lon="11.3949747"><ele>406.5</ele><time>2026-04-03T07:49:21.762Z</time></trkpt><trkpt lat="43.4780749" lon="11.395048"><ele>408.75</ele><time>2026-04-03T07:49:22.762Z</time></trkpt><trkpt lat="43.4782034" lon="11.3951232"><ele>411.0</ele><time>2026-04-03T07:49:23.762Z</time></trkpt><trkpt lat="43.4783285" lon="11.3951944"><ele>411.0</ele><time>2026-04-03T07:49:24.762Z</time></trkpt><trkpt lat="43.4784294" lon="11.3952544"><ele>411.0</ele><time>2026-04-03T07:49:25.763Z</time></trkpt><trkpt lat="43.4785141" lon="11.3952937"><ele>411.0</ele><time>2026-04-03T07:49:26.763Z</time></trkpt><trkpt lat="43.47859" lon="11.3953034"><ele>411.0</ele><time>2026-04-03T07:49:27.762Z</time></trkpt><trkpt lat="43.4786619" lon="11.3952734"><ele>411.0</ele><time>2026-04-03T07:49:28.763Z</time></trkpt><trkpt lat="43.478713" lon="11.395201"><ele>411.0</ele><time>2026-04-03T07:49:29.762Z</time></trkpt><trkpt lat="43.4787425" lon="11.3950974"><ele>411.0</ele><time>2026-04-03T07:49:30.762Z</time></trkpt><trkpt lat="43.4787723" lon="11.3949584"><ele>411.0</ele><time>2026-04-03T07:49:31.762Z</time></trkpt><trkpt lat="43.4787318" lon="11.3948415"><ele>411.0</ele><time>2026-04-03T07:49:32.762Z</time></trkpt><trkpt lat="43.4786625" lon="11.3947484"><ele>411.0</ele><time>2026-04-03T07:49:33.762Z</time></trkpt><trkpt lat="43.4785726" lon="11.3946858"><ele>411.0</ele><time>2026-04-03T07:49:34.762Z</time></trkpt><trkpt lat="43.4784837" lon="11.3946406"><ele>413.0</ele><time>2026-04-03T07:49:35.763Z</time></trkpt><trkpt lat="43.4784069" lon="11.394593"><ele>415.0</ele><time>2026-04-03T07:49:36.763Z</time></trkpt><trkpt lat="43.4783409" lon="11.3945577"><ele>417.0</ele><time>2026-04-03T07:49:37.762Z</time></trkpt><trkpt lat="43.478238" lon="11.3944811"><ele>419.0</ele><time>2026-04-03T07:49:39.763Z</time></trkpt><trkpt lat="43.4781373" lon="11.3943873"><ele>421.0</ele><time>2026-04-03T07:49:41.763Z</time></trkpt><trkpt lat="43.4780675" lon="11.3942496"><ele>421.0</ele><time>2026-04-03T07:49:43.763Z</time></trkpt><trkpt lat="43.4780263" lon="11.3941451"><ele>421.0</ele><time>2026-04-03T07:49:44.762Z</time></trkpt><trkpt lat="43.4779978" lon="11.3940279"><ele>421.0</ele><time>2026-04-03T07:49:45.763Z</time></trkpt><trkpt lat="43.4779938" lon="11.3938986"><ele>421.0</ele><time>2026-04-03T07:49:46.762Z</time></trkpt><trkpt lat="43.4780188" lon="11.3937697"><ele>421.0</ele><time>2026-04-03T07:49:47.763Z</time></trkpt><trkpt lat="43.478054" lon="11.3936008"><ele>423.0</ele><time>2026-04-03T07:49:48.763Z</time></trkpt><trkpt lat="43.4780791" lon="11.3934466"><ele>425.0</ele><time>2026-04-03T07:49:49.762Z</time></trkpt><trkpt lat="43.4780693" lon="11.3933021"><ele>427.0</ele><time>2026-04-03T07:49:50.762Z</time></trkpt><trkpt lat="43.4780206" lon="11.393134"><ele>429.0</ele><time>2026-04-03T07:49:51.763Z</time></trkpt><trkpt lat="43.4779601" lon="11.3929919"><ele>427.1666666666667</ele><time>2026-04-03T07:49:52.762Z</time></trkpt><trkpt lat="43.4779021" lon="11.3928814"><ele>425.33333333333337</ele><time>2026-04-03T07:49:53.763Z</time></trkpt><trkpt lat="43.47786" lon="11.3927867"><ele>423.5</ele><time>2026-04-03T07:49:54.763Z</time></trkpt><trkpt lat="43.4778258" lon="11.3926879"><ele>421.6666666666667</ele><time>2026-04-03T07:49:55.763Z</time></trkpt><trkpt lat="43.4778109" lon="11.3925754"><ele>419.83333333333337</ele><time>2026-04-03T07:49:56.763Z</time></trkpt><trkpt lat="43.477835" lon="11.3924715"><ele>418.0</ele><time>2026-04-03T07:49:57.763Z</time></trkpt><trkpt lat="43.4779025" lon="11.3923972"><ele>422.5</ele><time>2026-04-03T07:49:58.763Z</time></trkpt><trkpt lat="43.4779973" lon="11.3923913"><ele>427.0</ele><time>2026-04-03T07:49:59.763Z</time></trkpt><trkpt lat="43.4780924" lon="11.3924717"><ele>431.5</ele><time>2026-04-03T07:50:00.763Z</time></trkpt><trkpt lat="43.4781865" lon="11.3926267"><ele>436.0</ele><time>2026-04-03T07:50:01.763Z</time></trkpt><trkpt lat="43.478287" lon="11.3928014"><ele>436.0</ele><time>2026-04-03T07:50:02.762Z</time></trkpt><trkpt lat="43.4783864" lon="11.3929528"><ele>436.0</ele><time>2026-04-03T07:50:03.763Z</time></trkpt><trkpt lat="43.4784814" lon="11.3930758"><ele>436.0</ele><time>2026-04-03T07:50:04.762Z</time></trkpt><trkpt lat="43.4785691" lon="11.393179"><ele>436.0</ele><time>2026-04-03T07:50:05.762Z</time></trkpt><trkpt lat="43.4786608" lon="11.393275"><ele>436.4</ele><time>2026-04-03T07:50:06.763Z</time></trkpt><trkpt lat="43.4787468" lon="11.3933665"><ele>436.8</ele><time>2026-04-03T07:50:07.762Z</time></trkpt><trkpt lat="43.4788359" lon="11.3934455"><ele>437.19999999999993</ele><time>2026-04-03T07:50:08.762Z</time></trkpt><trkpt lat="43.4789498" lon="11.3934761"><ele>437.59999999999997</ele><time>2026-04-03T07:50:09.762Z</time></trkpt><trkpt lat="43.4790592" lon="11.3934424"><ele>438.0</ele><time>2026-04-03T07:50:10.763Z</time></trkpt><trkpt lat="43.4791676" lon="11.3933378"><ele>438.0</ele><time>2026-04-03T07:50:11.762Z</time></trkpt><trkpt lat="43.4792479" lon="11.3932058"><ele>438.0</ele><time>2026-04-03T07:50:12.762Z</time></trkpt><trkpt lat="43.4793476" lon="11.3930913"><ele>438.0</ele><time>2026-04-03T07:50:13.762Z</time></trkpt><trkpt lat="43.4794591" lon="11.3930328"><ele>438.0</ele><time>2026-04-03T07:50:14.763Z</time></trkpt><trkpt lat="43.4795706" lon="11.3930264"><ele>439.75</ele><time>2026-04-03T07:50:15.763Z</time></trkpt><trkpt lat="43.4796963" lon="11.3930674"><ele>441.5</ele><time>2026-04-03T07:50:16.762Z</time></trkpt><trkpt lat="43.4798007" lon="11.3931725"><ele>443.25</ele><time>2026-04-03T07:50:17.762Z</time></trkpt><trkpt lat="43.4798751" lon="11.3933286"><ele>445.0</ele><time>2026-04-03T07:50:18.763Z</time></trkpt><trkpt lat="43.4799671" lon="11.3934626"><ele>445.0</ele><time>2026-04-03T07:50:19.763Z</time></trkpt><trkpt lat="43.4800641" lon="11.3935486"><ele>445.0</ele><time>2026-04-03T07:50:20.763Z</time></trkpt><trkpt lat="43.4802027" lon="11.3935888"><ele>445.0</ele><time>2026-04-03T07:50:21.763Z</time></trkpt><trkpt lat="43.4803489" lon="11.3935713"><ele>445.0</ele><time>2026-04-03T07:50:22.762Z</time></trkpt><trkpt lat="43.4804852" lon="11.3935332"><ele>446.25</ele><time>2026-04-03T07:50:23.763Z</time></trkpt><trkpt lat="43.4806011" lon="11.3935331"><ele>447.5</ele><time>2026-04-03T07:50:24.762Z</time></trkpt><trkpt lat="43.480718" lon="11.3935672"><ele>448.75</ele><time>2026-04-03T07:50:25.763Z</time></trkpt><trkpt lat="43.4808152" lon="11.3936915"><ele>450.0</ele><time>2026-04-03T07:50:26.762Z</time></trkpt><trkpt lat="43.4808934" lon="11.3938592"><ele>450.0</ele><time>2026-04-03T07:50:27.763Z</time></trkpt><trkpt lat="43.4809315" lon="11.3940469"><ele>450.0</ele><time>2026-04-03T07:50:28.763Z</time></trkpt><trkpt lat="43.4809181" lon="11.3942464"><ele>450.0</ele><time>2026-04-03T07:50:29.762Z</time></trkpt><trkpt lat="43.4808772" lon="11.3944508"><ele>450.0</ele><time>2026-04-03T07:50:30.763Z</time></trkpt><trkpt lat="43.4807984" lon="11.3946536"><ele>450.75</ele><time>2026-04-03T07:50:31.763Z</time></trkpt><trkpt lat="43.4807319" lon="11.3948305"><ele>451.5</ele><time>2026-04-03T07:50:32.763Z</time></trkpt><trkpt lat="43.480692" lon="11.3950032"><ele>452.25</ele><time>2026-04-03T07:50:33.763Z</time></trkpt><trkpt lat="43.4806744" lon="11.3951715"><ele>453.0</ele><time>2026-04-03T07:50:34.763Z</time></trkpt><trkpt lat="43.4806877" lon="11.3953392"><ele>453.0</ele><time>2026-04-03T07:50:35.762Z</time></trkpt><trkpt lat="43.4807504" lon="11.3954986"><ele>453.0</ele><time>2026-04-03T07:50:36.762Z</time></trkpt><trkpt lat="43.4808453" lon="11.3956232"><ele>453.0</ele><time>2026-04-03T07:50:37.763Z</time></trkpt><trkpt lat="43.4809891" lon="11.3957149"><ele>453.0</ele><time>2026-04-03T07:50:38.762Z</time></trkpt><trkpt lat="43.4811568" lon="11.395781"><ele>454.33333333333337</ele><time>2026-04-03T07:50:39.762Z</time></trkpt><trkpt lat="43.4813274" lon="11.3958161"><ele>455.6666666666667</ele><time>2026-04-03T07:50:40.762Z</time></trkpt><trkpt lat="43.4815148" lon="11.3957732"><ele>457.0</ele><time>2026-04-03T07:50:41.763Z</time></trkpt><trkpt lat="43.4817298" lon="11.3956981"><ele>457.0</ele><time>2026-04-03T07:50:42.763Z</time></trkpt><trkpt lat="43.4819128" lon="11.3956242"><ele>457.0</ele><time>2026-04-03T07:50:43.763Z</time></trkpt><trkpt lat="43.4820821" lon="11.3956217"><ele>457.0</ele><time>2026-04-03T07:50:44.763Z</time></trkpt><trkpt lat="43.4822282" lon="11.3956911"><ele>459.0</ele><time>2026-04-03T07:50:45.762Z</time></trkpt><trkpt lat="43.4823501" lon="11.3958135"><ele>461.0</ele><time>2026-04-03T07:50:46.763Z</time></trkpt><trkpt lat="43.4824429" lon="11.3959831"><ele>463.0</ele><time>2026-04-03T07:50:47.762Z</time></trkpt><trkpt lat="43.4825265" lon="11.396134"><ele>465.0</ele><time>2026-04-03T07:50:48.763Z</time></trkpt><trkpt lat="43.4826265" lon="11.3962351"><ele>465.0</ele><time>2026-04-03T07:50:49.763Z</time></trkpt><trkpt lat="43.4827535" lon="11.3962951"><ele>465.0</ele><time>2026-04-03T07:50:50.763Z</time></trkpt><trkpt lat="43.4828894" lon="11.3962831"><ele>465.0</ele><time>2026-04-03T07:50:51.762Z</time></trkpt><trkpt lat="43.4830252" lon="11.396218"><ele>465.0</ele><time>2026-04-03T07:50:52.763Z</time></trkpt><trkpt lat="43.4831658" lon="11.3961423"><ele>466.25</ele><time>2026-04-03T07:50:53.763Z</time></trkpt><trkpt lat="43.4832968" lon="11.3960758"><ele>467.5</ele><time>2026-04-03T07:50:54.763Z</time></trkpt><trkpt lat="43.4834375" lon="11.3960316"><ele>468.75</ele><time>2026-04-03T07:50:55.763Z</time></trkpt><trkpt lat="43.483581" lon="11.3959944"><ele>470.0</ele><time>2026-04-03T07:50:56.763Z</time></trkpt><trkpt lat="43.4837297" lon="11.3959533"><ele>471.75</ele><time>2026-04-03T07:50:57.763Z</time></trkpt><trkpt lat="43.4838821" lon="11.3959252"><ele>473.5</ele><time>2026-04-03T07:50:58.763Z</time></trkpt><trkpt lat="43.4840173" lon="11.3959371"><ele>475.25</ele><time>2026-04-03T07:50:59.763Z</time></trkpt><trkpt lat="43.4841545" lon="11.395966"><ele>477.0</ele><time>2026-04-03T07:51:00.763Z</time></trkpt><trkpt lat="43.4842839" lon="11.3960407"><ele>477.0</ele><time>2026-04-03T07:51:01.762Z</time></trkpt><trkpt lat="43.4843839" lon="11.3961549"><ele>477.0</ele><time>2026-04-03T07:51:02.762Z</time></trkpt><trkpt lat="43.4844547" lon="11.3963163"><ele>477.0</ele><time>2026-04-03T07:51:03.763Z</time></trkpt><trkpt lat="43.4844779" lon="11.3965079"><ele>477.0</ele><time>2026-04-03T07:51:04.762Z</time></trkpt><trkpt lat="43.4844551" lon="11.3967029"><ele>475.5</ele><time>2026-04-03T07:51:05.761Z</time></trkpt><trkpt lat="43.4844193" lon="11.3968847"><ele>474.0</ele><time>2026-04-03T07:51:06.762Z</time></trkpt><trkpt lat="43.4844165" lon="11.3970835"><ele>472.5</ele><time>2026-04-03T07:51:07.761Z</time></trkpt><trkpt lat="43.4844904" lon="11.397292"><ele>471.0</ele><time>2026-04-03T07:51:08.761Z</time></trkpt><trkpt lat="43.4846226" lon="11.39748"><ele>476.0</ele><time>2026-04-03T07:51:09.762Z</time></trkpt><trkpt lat="43.4847684" lon="11.3976787"><ele>481.0</ele><time>2026-04-03T07:51:10.761Z</time></trkpt><trkpt lat="43.484899" lon="11.3978393"><ele>486.0</ele><time>2026-04-03T07:51:11.762Z</time></trkpt><trkpt lat="43.4850174" lon="11.3979286"><ele>486.0</ele><time>2026-04-03T07:51:12.761Z</time></trkpt><trkpt lat="43.4851632" lon="11.397962"><ele>486.0</ele><time>2026-04-03T07:51:13.761Z</time></trkpt><trkpt lat="43.4853373" lon="11.3979669"><ele>486.0</ele><time>2026-04-03T07:51:14.761Z</time></trkpt><trkpt lat="43.485504" lon="11.3979469"><ele>486.25</ele><time>2026-04-03T07:51:15.762Z</time></trkpt><trkpt lat="43.4856455" lon="11.3979705"><ele>486.5</ele><time>2026-04-03T07:51:16.762Z</time></trkpt><trkpt lat="43.4857682" lon="11.3980378"><ele>486.75</ele><time>2026-04-03T07:51:17.761Z</time></trkpt><trkpt lat="43.4858765" lon="11.3981645"><ele>487.0</ele><time>2026-04-03T07:51:18.761Z</time></trkpt><trkpt lat="43.4859449" lon="11.3983431"><ele>487.0</ele><time>2026-04-03T07:51:19.762Z</time></trkpt><trkpt lat="43.4859694" lon="11.398544"><ele>487.0</ele><time>2026-04-03T07:51:20.762Z</time></trkpt><trkpt lat="43.4859497" lon="11.3987453"><ele>487.0</ele><time>2026-04-03T07:51:21.761Z</time></trkpt><trkpt lat="43.4859373" lon="11.3989494"><ele>487.0</ele><time>2026-04-03T07:51:22.761Z</time></trkpt><trkpt lat="43.4859591" lon="11.3991265"><ele>485.33333333333337</ele><time>2026-04-03T07:51:23.762Z</time></trkpt><trkpt lat="43.4860365" lon="11.3992865"><ele>483.66666666666663</ele><time>2026-04-03T07:51:24.762Z</time></trkpt><trkpt lat="43.4861686" lon="11.3993876"><ele>482.0</ele><time>2026-04-03T07:51:25.762Z</time></trkpt><trkpt lat="43.4863453" lon="11.3994591"><ele>488.3333333333333</ele><time>2026-04-03T07:51:26.762Z</time></trkpt><trkpt lat="43.486518" lon="11.3994929"><ele>494.66666666666663</ele><time>2026-04-03T07:51:27.762Z</time></trkpt><trkpt lat="43.4866855" lon="11.3995425"><ele>501.0</ele><time>2026-04-03T07:51:28.762Z</time></trkpt><trkpt lat="43.4868535" lon="11.3995858"><ele>501.0</ele><time>2026-04-03T07:51:29.761Z</time></trkpt><trkpt lat="43.4869921" lon="11.3996308"><ele>501.0</ele><time>2026-04-03T07:51:30.762Z</time></trkpt><trkpt lat="43.4871238" lon="11.3996627"><ele>501.0</ele><time>2026-04-03T07:51:31.762Z</time></trkpt><trkpt lat="43.487241" lon="11.399687"><ele>501.0</ele><time>2026-04-03T07:51:32.762Z</time></trkpt><trkpt lat="43.4873492" lon="11.399712"><ele>501.0</ele><time>2026-04-03T07:51:33.762Z</time></trkpt><trkpt lat="43.4874412" lon="11.399731"><ele>501.0</ele><time>2026-04-03T07:51:34.762Z</time></trkpt><trkpt lat="43.4875093" lon="11.3997518"><ele>501.0</ele><time>2026-04-03T07:51:35.761Z</time></trkpt><trkpt lat="43.4875789" lon="11.3998144"><ele>501.0</ele><time>2026-04-03T07:51:37.762Z</time></trkpt><trkpt lat="43.4875811" lon="11.3999799"><ele>501.0</ele><time>2026-04-03T07:51:39.761Z</time></trkpt><trkpt lat="43.4875661" lon="11.4001242"><ele>501.0</ele><time>2026-04-03T07:51:40.761Z</time></trkpt><trkpt lat="43.4875566" lon="11.4002755"><ele>501.0</ele><time>2026-04-03T07:51:41.761Z</time></trkpt><trkpt lat="43.4875572" lon="11.4004324"><ele>501.0</ele><time>2026-04-03T07:51:42.762Z</time></trkpt><trkpt lat="43.4875578" lon="11.400583"><ele>501.0</ele><time>2026-04-03T07:51:43.761Z</time></trkpt><trkpt lat="43.4875466" lon="11.4007214"><ele>501.0</ele><time>2026-04-03T07:51:44.761Z</time></trkpt><trkpt lat="43.4875177" lon="11.4008549"><ele>501.6666666666667</ele><time>2026-04-03T07:51:45.761Z</time></trkpt><trkpt lat="43.4874927" lon="11.400981"><ele>502.33333333333337</ele><time>2026-04-03T07:51:46.761Z</time></trkpt><trkpt lat="43.4874743" lon="11.401105"><ele>503.0</ele><time>2026-04-03T07:51:47.762Z</time></trkpt><trkpt lat="43.4874954" lon="11.4012262"><ele>503.6666666666667</ele><time>2026-04-03T07:51:48.761Z</time></trkpt><trkpt lat="43.487554" lon="11.4012866"><ele>504.33333333333337</ele><time>2026-04-03T07:51:49.761Z</time></trkpt><trkpt lat="43.4876216" lon="11.4012701"><ele>505.0</ele><time>2026-04-03T07:51:50.762Z</time></trkpt><trkpt lat="43.4876989" lon="11.4011768"><ele>505.0</ele><time>2026-04-03T07:51:51.762Z</time></trkpt><trkpt lat="43.4877691" lon="11.4010278"><ele>505.0</ele><time>2026-04-03T07:51:52.762Z</time></trkpt><trkpt lat="43.4878446" lon="11.4008724"><ele>505.0</ele><time>2026-04-03T07:51:53.761Z</time></trkpt><trkpt lat="43.4879162" lon="11.4007893"><ele>505.0</ele><time>2026-04-03T07:51:54.761Z</time></trkpt><trkpt lat="43.488014" lon="11.4007477"><ele>507.0</ele><time>2026-04-03T07:51:55.761Z</time></trkpt><trkpt lat="43.4881281" lon="11.4007599"><ele>509.0</ele><time>2026-04-03T07:51:56.761Z</time></trkpt><trkpt lat="43.4882568" lon="11.4008313"><ele>511.0</ele><time>2026-04-03T07:51:57.762Z</time></trkpt><trkpt lat="43.4884052" lon="11.4009515"><ele>513.0</ele><time>2026-04-03T07:51:58.761Z</time></trkpt><trkpt lat="43.4885508" lon="11.4010585"><ele>513.0</ele><time>2026-04-03T07:51:59.762Z</time></trkpt><trkpt lat="43.488672" lon="11.401151"><ele>513.0</ele><time>2026-04-03T07:52:00.761Z</time></trkpt><trkpt lat="43.4887706" lon="11.4012576"><ele>513.0</ele><time>2026-04-03T07:52:01.762Z</time></trkpt><trkpt lat="43.4888522" lon="11.4013926"><ele>513.0</ele><time>2026-04-03T07:52:02.762Z</time></trkpt><trkpt lat="43.4888986" lon="11.4015342"><ele>513.0</ele><time>2026-04-03T07:52:03.761Z</time></trkpt><trkpt lat="43.4888998" lon="11.4016895"><ele>513.0</ele><time>2026-04-03T07:52:04.762Z</time></trkpt><trkpt lat="43.4888623" lon="11.4018634"><ele>513.0</ele><time>2026-04-03T07:52:05.762Z</time></trkpt><trkpt lat="43.4888088" lon="11.4020751"><ele>513.0</ele><time>2026-04-03T07:52:06.762Z</time></trkpt><trkpt lat="43.4887846" lon="11.4023294"><ele>513.0</ele><time>2026-04-03T07:52:07.761Z</time></trkpt><trkpt lat="43.4887735" lon="11.4026143"><ele>513.0</ele><time>2026-04-03T07:52:08.762Z</time></trkpt><trkpt lat="43.4887537" lon="11.4028821"><ele>513.0</ele><time>2026-04-03T07:52:09.762Z</time></trkpt><trkpt lat="43.4887413" lon="11.403108"><ele>521.3333333333334</ele><time>2026-04-03T07:52:10.762Z</time></trkpt><trkpt lat="43.4887496" lon="11.4033443"><ele>529.6666666666667</ele><time>2026-04-03T07:52:11.762Z</time></trkpt><trkpt lat="43.4887514" lon="11.4035695"><ele>538.0</ele><time>2026-04-03T07:52:12.762Z</time></trkpt><trkpt lat="43.4887293" lon="11.4037977"><ele>538.6666666666667</ele><time>2026-04-03T07:52:13.762Z</time></trkpt><trkpt lat="43.4886986" lon="11.4040327"><ele>539.3333333333334</ele><time>2026-04-03T07:52:14.762Z</time></trkpt><trkpt lat="43.4886834" lon="11.4042605"><ele>540.0</ele><time>2026-04-03T07:52:15.762Z</time></trkpt><trkpt lat="43.4886968" lon="11.4044796"><ele>539.6666666666666</ele><time>2026-04-03T07:52:16.762Z</time></trkpt><trkpt lat="43.4887367" lon="11.4046827"><ele>539.3333333333333</ele><time>2026-04-03T07:52:17.762Z</time></trkpt><trkpt lat="43.4888183" lon="11.404893"><ele>539.0</ele><time>2026-04-03T07:52:18.761Z</time></trkpt><trkpt lat="43.4888959" lon="11.4050956"><ele>537.75</ele><time>2026-04-03T07:52:19.761Z</time></trkpt><trkpt lat="43.4889496" lon="11.40529"><ele>536.5</ele><time>2026-04-03T07:52:20.761Z</time></trkpt><trkpt lat="43.4889848" lon="11.4054894"><ele>535.25</ele><time>2026-04-03T07:52:21.762Z</time></trkpt><trkpt lat="43.4890112" lon="11.4056864"><ele>534.0</ele><time>2026-04-03T07:52:22.761Z</time></trkpt><trkpt lat="43.4890496" lon="11.4058848"><ele>534.0</ele><time>2026-04-03T07:52:23.762Z</time></trkpt><trkpt lat="43.4890991" lon="11.4060816"><ele>534.0</ele><time>2026-04-03T07:52:24.762Z</time></trkpt><trkpt lat="43.4891657" lon="11.4062628"><ele>534.0</ele><time>2026-04-03T07:52:25.762Z</time></trkpt><trkpt lat="43.4892324" lon="11.4064317"><ele>534.0</ele><time>2026-04-03T07:52:26.762Z</time></trkpt><trkpt lat="43.4893208" lon="11.4065917"><ele>534.0</ele><time>2026-04-03T07:52:27.761Z</time></trkpt><trkpt lat="43.489421" lon="11.4067359"><ele>534.0</ele><time>2026-04-03T07:52:28.761Z</time></trkpt><trkpt lat="43.4895312" lon="11.4068811"><ele>534.0</ele><time>2026-04-03T07:52:29.762Z</time></trkpt><trkpt lat="43.4896608" lon="11.4070531"><ele>536.0</ele><time>2026-04-03T07:52:30.762Z</time></trkpt><trkpt lat="43.4897838" lon="11.4072386"><ele>538.0</ele><time>2026-04-03T07:52:31.761Z</time></trkpt><trkpt lat="43.4898514" lon="11.4074269"><ele>540.0</ele><time>2026-04-03T07:52:32.762Z</time></trkpt><trkpt lat="43.4899143" lon="11.4076288"><ele>540.0</ele><time>2026-04-03T07:52:33.762Z</time></trkpt><trkpt lat="43.4899554" lon="11.4078662"><ele>540.0</ele><time>2026-04-03T07:52:34.762Z</time></trkpt><trkpt lat="43.4899794" lon="11.4081425"><ele>540.0</ele><time>2026-04-03T07:52:35.762Z</time></trkpt><trkpt lat="43.4899973" lon="11.4084467"><ele>540.6666666666666</ele><time>2026-04-03T07:52:36.762Z</time></trkpt><trkpt lat="43.490011" lon="11.4087053"><ele>541.3333333333333</ele><time>2026-04-03T07:52:37.762Z</time></trkpt><trkpt lat="43.4900127" lon="11.4089386"><ele>542.0</ele><time>2026-04-03T07:52:38.762Z</time></trkpt><trkpt lat="43.4900099" lon="11.4091531"><ele>543.3333333333333</ele><time>2026-04-03T07:52:39.761Z</time></trkpt><trkpt lat="43.4900037" lon="11.4093681"><ele>544.6666666666666</ele><time>2026-04-03T07:52:40.762Z</time></trkpt><trkpt lat="43.4899949" lon="11.4095827"><ele>546.0</ele><time>2026-04-03T07:52:41.761Z</time></trkpt><trkpt lat="43.4899765" lon="11.4098031"><ele>546.6666666666666</ele><time>2026-04-03T07:52:42.761Z</time></trkpt><trkpt lat="43.4899424" lon="11.410022"><ele>547.3333333333333</ele><time>2026-04-03T07:52:43.762Z</time></trkpt><trkpt lat="43.4898742" lon="11.410242"><ele>548.0</ele><time>2026-04-03T07:52:44.762Z</time></trkpt><trkpt lat="43.4897696" lon="11.410453"><ele>548.3333333333333</ele><time>2026-04-03T07:52:45.762Z</time></trkpt><trkpt lat="43.4896604" lon="11.410646"><ele>548.6666666666666</ele><time>2026-04-03T07:52:46.762Z</time></trkpt><trkpt lat="43.4895543" lon="11.4108075"><ele>549.0</ele><time>2026-04-03T07:52:47.761Z</time></trkpt><trkpt lat="43.4894754" lon="11.4109633"><ele>549.0</ele><time>2026-04-03T07:52:48.762Z</time></trkpt><trkpt lat="43.4894238" lon="11.411128"><ele>549.0</ele><time>2026-04-03T07:52:49.761Z</time></trkpt><trkpt lat="43.4894099" lon="11.4113176"><ele>549.0</ele><time>2026-04-03T07:52:50.761Z</time></trkpt><trkpt lat="43.4894345" lon="11.4115161"><ele>549.0</ele><time>2026-04-03T07:52:51.761Z</time></trkpt><trkpt lat="43.4894904" lon="11.4117243"><ele>550.0</ele><time>2026-04-03T07:52:52.762Z</time></trkpt><trkpt lat="43.4895762" lon="11.4119249"><ele>551.0</ele><time>2026-04-03T07:52:53.762Z</time></trkpt><trkpt lat="43.4896852" lon="11.4120985"><ele>552.0</ele><time>2026-04-03T07:52:54.762Z</time></trkpt><trkpt lat="43.4898411" lon="11.41226"><ele>554.0</ele><time>2026-04-03T07:52:55.762Z</time></trkpt><trkpt lat="43.4899831" lon="11.4124095"><ele>556.0</ele><time>2026-04-03T07:52:56.761Z</time></trkpt><trkpt lat="43.4901088" lon="11.4125556"><ele>558.0</ele><time>2026-04-03T07:52:57.762Z</time></trkpt><trkpt lat="43.4902244" lon="11.412701"><ele>558.0</ele><time>2026-04-03T07:52:58.762Z</time></trkpt><trkpt lat="43.4903311" lon="11.4128572"><ele>558.0</ele><time>2026-04-03T07:52:59.762Z</time></trkpt><trkpt lat="43.4904296" lon="11.4130184"><ele>558.0</ele><time>2026-04-03T07:53:00.762Z</time></trkpt><trkpt lat="43.4905028" lon="11.4131692"><ele>558.0</ele><time>2026-04-03T07:53:01.762Z</time></trkpt><trkpt lat="43.4905556" lon="11.4133341"><ele>556.3333333333334</ele><time>2026-04-03T07:53:02.761Z</time></trkpt><trkpt lat="43.4905792" lon="11.4135222"><ele>554.6666666666667</ele><time>2026-04-03T07:53:03.761Z</time></trkpt><trkpt lat="43.4905648" lon="11.413737"><ele>553.0</ele><time>2026-04-03T07:53:04.762Z</time></trkpt><trkpt lat="43.4905394" lon="11.413977"><ele>553.0</ele><time>2026-04-03T07:53:05.761Z</time></trkpt><trkpt lat="43.4904974" lon="11.4142478"><ele>553.0</ele><time>2026-04-03T07:53:06.761Z</time></trkpt><trkpt lat="43.4904516" lon="11.4145733"><ele>553.0</ele><time>2026-04-03T07:53:07.762Z</time></trkpt><trkpt lat="43.4904016" lon="11.4149212"><ele>553.5</ele><time>2026-04-03T07:53:08.761Z</time></trkpt><trkpt lat="43.4903368" lon="11.4152923"><ele>554.0</ele><time>2026-04-03T07:53:09.762Z</time></trkpt><trkpt lat="43.4902639" lon="11.4156544"><ele>555.0</ele><time>2026-04-03T07:53:10.761Z</time></trkpt><trkpt lat="43.4901957" lon="11.4159642"><ele>556.0</ele><time>2026-04-03T07:53:11.762Z</time></trkpt><trkpt lat="43.4901244" lon="11.4162499"><ele>558.0</ele><time>2026-04-03T07:53:12.762Z</time></trkpt><trkpt lat="43.4900829" lon="11.4165217"><ele>560.0</ele><time>2026-04-03T07:53:13.761Z</time></trkpt><trkpt lat="43.490074" lon="11.4167717"><ele>562.0</ele><time>2026-04-03T07:53:14.761Z</time></trkpt><trkpt lat="43.4900967" lon="11.4170055"><ele>563.3333333333334</ele><time>2026-04-03T07:53:15.761Z</time></trkpt><trkpt lat="43.4901495" lon="11.4172305"><ele>564.6666666666666</ele><time>2026-04-03T07:53:16.762Z</time></trkpt><trkpt lat="43.4902146" lon="11.4174521"><ele>566.0</ele><time>2026-04-03T07:53:17.761Z</time></trkpt><trkpt lat="43.490281" lon="11.4176639"><ele>566.0</ele><time>2026-04-03T07:53:18.761Z</time></trkpt><trkpt lat="43.4903657" lon="11.4178557"><ele>566.0</ele><time>2026-04-03T07:53:19.761Z</time></trkpt><trkpt lat="43.4904853" lon="11.4179876"><ele>566.0</ele><time>2026-04-03T07:53:20.761Z</time></trkpt><trkpt lat="43.490632" lon="11.4180853"><ele>566.5</ele><time>2026-04-03T07:53:21.761Z</time></trkpt><trkpt lat="43.4907548" lon="11.4181672"><ele>567.0</ele><time>2026-04-03T07:53:22.761Z</time></trkpt><trkpt lat="43.4908597" lon="11.4182753"><ele>567.5</ele><time>2026-04-03T07:53:23.761Z</time></trkpt><trkpt lat="43.4909147" lon="11.4184154"><ele>568.0</ele><time>2026-04-03T07:53:24.762Z</time></trkpt><trkpt lat="43.4909384" lon="11.4185823"><ele>568.0</ele><time>2026-04-03T07:53:25.762Z</time></trkpt><trkpt lat="43.4909396" lon="11.4187663"><ele>568.0</ele><time>2026-04-03T07:53:26.762Z</time></trkpt><trkpt lat="43.4909499" lon="11.4189509"><ele>568.0</ele><time>2026-04-03T07:53:27.762Z</time></trkpt><trkpt lat="43.490978" lon="11.4191357"><ele>568.0</ele><time>2026-04-03T07:53:28.762Z</time></trkpt><trkpt lat="43.4910189" lon="11.4193012"><ele>566.75</ele><time>2026-04-03T07:53:29.761Z</time></trkpt><trkpt lat="43.4910627" lon="11.4194454"><ele>565.5</ele><time>2026-04-03T07:53:30.761Z</time></trkpt><trkpt lat="43.4910909" lon="11.4196014"><ele>564.25</ele><time>2026-04-03T07:53:31.762Z</time></trkpt><trkpt lat="43.4911136" lon="11.4197497"><ele>563.0</ele><time>2026-04-03T07:53:32.762Z</time></trkpt><trkpt lat="43.4911388" lon="11.419913"><ele>562.25</ele><time>2026-04-03T07:53:33.761Z</time></trkpt><trkpt lat="43.4911713" lon="11.4200818"><ele>561.5</ele><time>2026-04-03T07:53:34.761Z</time></trkpt><trkpt lat="43.4911997" lon="11.4202504"><ele>560.75</ele><time>2026-04-03T07:53:35.762Z</time></trkpt><trkpt lat="43.4912245" lon="11.42041"><ele>560.0</ele><time>2026-04-03T07:53:36.762Z</time></trkpt><trkpt lat="43.4912535" lon="11.4205469"><ele>560.0</ele><time>2026-04-03T07:53:37.762Z</time></trkpt><trkpt lat="43.4912789" lon="11.4206716"><ele>560.0</ele><time>2026-04-03T07:53:38.762Z</time></trkpt><trkpt lat="43.4912968" lon="11.4207857"><ele>560.0</ele><time>2026-04-03T07:53:39.762Z</time></trkpt><trkpt lat="43.4913077" lon="11.4208818"><ele>560.0</ele><time>2026-04-03T07:53:40.762Z</time></trkpt><trkpt lat="43.4912988" lon="11.4210347"><ele>560.0</ele><time>2026-04-03T07:53:42.762Z</time></trkpt><trkpt lat="43.4912478" lon="11.4211375"><ele>560.0</ele><time>2026-04-03T07:53:44.761Z</time></trkpt><trkpt lat="43.4911331" lon="11.4211836"><ele>560.0</ele><time>2026-04-03T07:53:46.762Z</time></trkpt><trkpt lat="43.4910064" lon="11.4212238"><ele>560.0</ele><time>2026-04-03T07:53:48.762Z</time></trkpt><trkpt lat="43.4909398" lon="11.4212434"><ele>560.0</ele><time>2026-04-03T07:53:49.761Z</time></trkpt><trkpt lat="43.4908698" lon="11.4212649"><ele>560.0</ele><time>2026-04-03T07:53:50.761Z</time></trkpt><trkpt lat="43.4907998" lon="11.4212856"><ele>560.0</ele><time>2026-04-03T07:53:51.762Z</time></trkpt><trkpt lat="43.4907182" lon="11.4213044"><ele>560.0</ele><time>2026-04-03T07:53:52.762Z</time></trkpt><trkpt lat="43.4906282" lon="11.4213331"><ele>560.0</ele><time>2026-04-03T07:53:53.761Z</time></trkpt><trkpt lat="43.4905384" lon="11.421362"><ele>560.0</ele><time>2026-04-03T07:53:54.761Z</time></trkpt><trkpt lat="43.4904442" lon="11.4213906"><ele>560.0</ele><time>2026-04-03T07:53:55.761Z</time></trkpt><trkpt lat="43.4903478" lon="11.4214158"><ele>561.6</ele><time>2026-04-03T07:53:56.762Z</time></trkpt><trkpt lat="43.4902505" lon="11.4214392"><ele>563.2</ele><time>2026-04-03T07:53:57.762Z</time></trkpt><trkpt lat="43.4901595" lon="11.421468"><ele>564.8</ele><time>2026-04-03T07:53:58.762Z</time></trkpt><trkpt lat="43.4900685" lon="11.4214913"><ele>566.4</ele><time>2026-04-03T07:53:59.761Z</time></trkpt><trkpt lat="43.4899762" lon="11.4215263"><ele>568.0</ele><time>2026-04-03T07:54:00.761Z</time></trkpt><trkpt lat="43.489871" lon="11.4215668"><ele>568.0</ele><time>2026-04-03T07:54:01.762Z</time></trkpt><trkpt lat="43.4897471" lon="11.4216287"><ele>568.0</ele><time>2026-04-03T07:54:02.762Z</time></trkpt><trkpt lat="43.489617" lon="11.4217002"><ele>568.0</ele><time>2026-04-03T07:54:03.761Z</time></trkpt><trkpt lat="43.4894907" lon="11.4217708"><ele>568.0</ele><time>2026-04-03T07:54:04.762Z</time></trkpt><trkpt lat="43.489375" lon="11.4218351"><ele>564.8</ele><time>2026-04-03T07:54:05.761Z</time></trkpt><trkpt lat="43.4892715" lon="11.4218889"><ele>561.5999999999999</ele><time>2026-04-03T07:54:06.762Z</time></trkpt><trkpt lat="43.4891666" lon="11.4219105"><ele>558.4000000000001</ele><time>2026-04-03T07:54:07.761Z</time></trkpt><trkpt lat="43.4890597" lon="11.4219122"><ele>555.2</ele><time>2026-04-03T07:54:08.762Z</time></trkpt><trkpt lat="43.4889778" lon="11.4219186"><ele>552.0</ele><time>2026-04-03T07:54:09.761Z</time></trkpt><trkpt lat="43.4888976" lon="11.421931"><ele>552.0</ele><time>2026-04-03T07:54:10.762Z</time></trkpt><trkpt lat="43.4888317" lon="11.4219425"><ele>552.0</ele><time>2026-04-03T07:54:11.761Z</time></trkpt><trkpt lat="43.4887679" lon="11.421952"><ele>552.0</ele><time>2026-04-03T07:54:12.762Z</time></trkpt><trkpt lat="43.4886509" lon="11.4220044"><ele>552.0</ele><time>2026-04-03T07:54:14.762Z</time></trkpt><trkpt lat="43.4885461" lon="11.4220669"><ele>552.0</ele><time>2026-04-03T07:54:16.761Z</time></trkpt><trkpt lat="43.4884446" lon="11.4221538"><ele>553.2</ele><time>2026-04-03T07:54:18.761Z</time></trkpt><trkpt lat="43.4883665" lon="11.4222671"><ele>554.4000000000001</ele><time>2026-04-03T07:54:20.762Z</time></trkpt><trkpt lat="43.4883159" lon="11.4223997"><ele>555.5999999999999</ele><time>2026-04-03T07:54:22.762Z</time></trkpt><trkpt lat="43.488286" lon="11.4225458"><ele>556.8</ele><time>2026-04-03T07:54:24.761Z</time></trkpt><trkpt lat="43.4882415" lon="11.4226778"><ele>558.0</ele><time>2026-04-03T07:54:26.762Z</time></trkpt><trkpt lat="43.4881602" lon="11.422781"><ele>558.0</ele><time>2026-04-03T07:54:28.762Z</time></trkpt><trkpt lat="43.4880528" lon="11.4227802"><ele>558.0</ele><time>2026-04-03T07:54:30.761Z</time></trkpt><trkpt lat="43.487981" lon="11.4227499"><ele>558.0</ele><time>2026-04-03T07:54:31.761Z</time></trkpt><trkpt lat="43.4879034" lon="11.4226932"><ele>558.0</ele><time>2026-04-03T07:54:32.761Z</time></trkpt><trkpt lat="43.4878234" lon="11.4226239"><ele>558.0</ele><time>2026-04-03T07:54:33.761Z</time></trkpt><trkpt lat="43.4877499" lon="11.4225558"><ele>557.3333333333334</ele><time>2026-04-03T07:54:34.762Z</time></trkpt><trkpt lat="43.4876745" lon="11.422488"><ele>556.6666666666666</ele><time>2026-04-03T07:54:35.761Z</time></trkpt><trkpt lat="43.4876032" lon="11.4224343"><ele>556.0</ele><time>2026-04-03T07:54:36.762Z</time></trkpt><trkpt lat="43.4875341" lon="11.4223743"><ele>555.3333333333333</ele><time>2026-04-03T07:54:37.761Z</time></trkpt><trkpt lat="43.4874674" lon="11.4223178"><ele>554.6666666666666</ele><time>2026-04-03T07:54:38.762Z</time></trkpt><trkpt lat="43.4874029" lon="11.4222655"><ele>554.0</ele><time>2026-04-03T07:54:39.761Z</time></trkpt><trkpt lat="43.4873438" lon="11.4221977"><ele>552.1666666666666</ele><time>2026-04-03T07:54:40.761Z</time></trkpt><trkpt lat="43.4872887" lon="11.4221277"><ele>550.3333333333333</ele><time>2026-04-03T07:54:41.762Z</time></trkpt><trkpt lat="43.4872291" lon="11.4220642"><ele>548.5</ele><time>2026-04-03T07:54:42.762Z</time></trkpt><trkpt lat="43.4871749" lon="11.4219959"><ele>546.6666666666666</ele><time>2026-04-03T07:54:43.762Z</time></trkpt><trkpt lat="43.4871239" lon="11.4219181"><ele>544.8333333333334</ele><time>2026-04-03T07:54:44.762Z</time></trkpt><trkpt lat="43.487069" lon="11.4218292"><ele>543.0</ele><time>2026-04-03T07:54:45.762Z</time></trkpt><trkpt lat="43.4870195" lon="11.421747"><ele>543.0</ele><time>2026-04-03T07:54:46.762Z</time></trkpt><trkpt lat="43.4869731" lon="11.4216633"><ele>543.0</ele><time>2026-04-03T07:54:47.761Z</time></trkpt><trkpt lat="43.4869283" lon="11.4215808"><ele>543.0</ele><time>2026-04-03T07:54:48.762Z</time></trkpt><trkpt lat="43.4868832" lon="11.421497"><ele>543.0</ele><time>2026-04-03T07:54:49.762Z</time></trkpt><trkpt lat="43.4868424" lon="11.4214147"><ele>543.0</ele><time>2026-04-03T07:54:50.762Z</time></trkpt><trkpt lat="43.4867995" lon="11.4213324"><ele>543.0</ele><time>2026-04-03T07:54:51.761Z</time></trkpt><trkpt lat="43.4867548" lon="11.4212494"><ele>543.0</ele><time>2026-04-03T07:54:52.761Z</time></trkpt><trkpt lat="43.4867131" lon="11.4211639"><ele>542.8571428571429</ele><time>2026-04-03T07:54:53.762Z</time></trkpt><trkpt lat="43.4866712" lon="11.4210845"><ele>542.7142857142857</ele><time>2026-04-03T07:54:54.762Z</time></trkpt><trkpt lat="43.486626" lon="11.4210001"><ele>542.5714285714286</ele><time>2026-04-03T07:54:55.762Z</time></trkpt><trkpt lat="43.4865828" lon="11.4209223"><ele>542.4285714285714</ele><time>2026-04-03T07:54:56.762Z</time></trkpt><trkpt lat="43.4865429" lon="11.4208452"><ele>542.2857142857143</ele><time>2026-04-03T07:54:57.762Z</time></trkpt><trkpt lat="43.4865022" lon="11.4207762"><ele>542.1428571428571</ele><time>2026-04-03T07:54:58.761Z</time></trkpt><trkpt lat="43.4864564" lon="11.4207058"><ele>542.0</ele><time>2026-04-03T07:54:59.761Z</time></trkpt><trkpt lat="43.4864133" lon="11.4206409"><ele>542.0</ele><time>2026-04-03T07:55:00.761Z</time></trkpt><trkpt lat="43.4863623" lon="11.4205778"><ele>542.0</ele><time>2026-04-03T07:55:01.762Z</time></trkpt><trkpt lat="43.4863048" lon="11.4205253"><ele>542.0</ele><time>2026-04-03T07:55:02.762Z</time></trkpt><trkpt lat="43.4862471" lon="11.4204699"><ele>542.0</ele><time>2026-04-03T07:55:03.762Z</time></trkpt><trkpt lat="43.4861806" lon="11.4204162"><ele>542.0</ele><time>2026-04-03T07:55:04.761Z</time></trkpt><trkpt lat="43.4861133" lon="11.4203616"><ele>542.0</ele><time>2026-04-03T07:55:05.761Z</time></trkpt><trkpt lat="43.4860486" lon="11.4203032"><ele>542.0</ele><time>2026-04-03T07:55:06.761Z</time></trkpt><trkpt lat="43.4859749" lon="11.4202585"><ele>542.8333333333333</ele><time>2026-04-03T07:55:07.761Z</time></trkpt><trkpt lat="43.4859073" lon="11.4202215"><ele>543.6666666666666</ele><time>2026-04-03T07:55:08.762Z</time></trkpt><trkpt lat="43.485846" lon="11.4201878"><ele>544.5</ele><time>2026-04-03T07:55:09.762Z</time></trkpt><trkpt lat="43.485723" lon="11.4201298"><ele>545.3333333333334</ele><time>2026-04-03T07:55:11.762Z</time></trkpt><trkpt lat="43.4856565" lon="11.4200991"><ele>546.1666666666667</ele><time>2026-04-03T07:55:12.762Z</time></trkpt><trkpt lat="43.4855859" lon="11.4200661"><ele>547.0</ele><time>2026-04-03T07:55:13.762Z</time></trkpt><trkpt lat="43.4855095" lon="11.420024"><ele>547.0</ele><time>2026-04-03T07:55:14.762Z</time></trkpt><trkpt lat="43.485433" lon="11.4199769"><ele>547.0</ele><time>2026-04-03T07:55:15.762Z</time></trkpt><trkpt lat="43.4853602" lon="11.4199363"><ele>547.0</ele><time>2026-04-03T07:55:16.761Z</time></trkpt><trkpt lat="43.4852836" lon="11.4198989"><ele>547.0</ele><time>2026-04-03T07:55:17.761Z</time></trkpt><trkpt lat="43.4852116" lon="11.4198636"><ele>547.0</ele><time>2026-04-03T07:55:18.762Z</time></trkpt><trkpt lat="43.4851453" lon="11.4198241"><ele>547.0</ele><time>2026-04-03T07:55:19.762Z</time></trkpt><trkpt lat="43.4850812" lon="11.4197837"><ele>546.8571428571429</ele><time>2026-04-03T07:55:20.762Z</time></trkpt><trkpt lat="43.485016" lon="11.4197499"><ele>546.7142857142857</ele><time>2026-04-03T07:55:21.762Z</time></trkpt><trkpt lat="43.4849482" lon="11.4197174"><ele>546.5714285714286</ele><time>2026-04-03T07:55:22.762Z</time></trkpt><trkpt lat="43.4848864" lon="11.4196801"><ele>546.4285714285714</ele><time>2026-04-03T07:55:23.762Z</time></trkpt><trkpt lat="43.4848235" lon="11.4196433"><ele>546.2857142857142</ele><time>2026-04-03T07:55:24.762Z</time></trkpt><trkpt lat="43.4847647" lon="11.419604"><ele>546.1428571428571</ele><time>2026-04-03T07:55:25.762Z</time></trkpt><trkpt lat="43.4847037" lon="11.4195676"><ele>546.0</ele><time>2026-04-03T07:55:26.761Z</time></trkpt><trkpt lat="43.4846405" lon="11.419537"><ele>546.3333333333334</ele><time>2026-04-03T07:55:27.761Z</time></trkpt><trkpt lat="43.4845821" lon="11.4195038"><ele>546.6666666666666</ele><time>2026-04-03T07:55:28.762Z</time></trkpt><trkpt lat="43.4844777" lon="11.4194655"><ele>547.0</ele><time>2026-04-03T07:55:30.761Z</time></trkpt><trkpt lat="43.4844004" lon="11.4194536"><ele>547.3333333333333</ele><time>2026-04-03T07:55:32.762Z</time></trkpt><trkpt lat="43.4843344" lon="11.4194444"><ele>547.6666666666666</ele><time>2026-04-03T07:55:34.762Z</time></trkpt><trkpt lat="43.4842676" lon="11.4194527"><ele>548.0</ele><time>2026-04-03T07:55:36.762Z</time></trkpt><trkpt lat="43.4841769" lon="11.4194828"><ele>548.0</ele><time>2026-04-03T07:55:38.762Z</time></trkpt><trkpt lat="43.4840627" lon="11.4195366"><ele>548.0</ele><time>2026-04-03T07:55:40.762Z</time></trkpt><trkpt lat="43.4840005" lon="11.4195662"><ele>548.0</ele><time>2026-04-03T07:55:41.762Z</time></trkpt><trkpt lat="43.4839338" lon="11.4196047"><ele>548.0</ele><time>2026-04-03T07:55:42.762Z</time></trkpt><trkpt lat="43.4838562" lon="11.4196527"><ele>548.0</ele><time>2026-04-03T07:55:43.762Z</time></trkpt><trkpt lat="43.483774" lon="11.4197019"><ele>548.0</ele><time>2026-04-03T07:55:44.761Z</time></trkpt><trkpt lat="43.4836918" lon="11.4197584"><ele>547.5</ele><time>2026-04-03T07:55:45.761Z</time></trkpt><trkpt lat="43.4836152" lon="11.4198065"><ele>547.0</ele><time>2026-04-03T07:55:46.762Z</time></trkpt><trkpt lat="43.4835385" lon="11.4198566"><ele>546.5</ele><time>2026-04-03T07:55:47.761Z</time></trkpt><trkpt lat="43.4834643" lon="11.4199076"><ele>546.0</ele><time>2026-04-03T07:55:48.761Z</time></trkpt><trkpt lat="43.4833963" lon="11.4199544"><ele>545.5</ele><time>2026-04-03T07:55:49.762Z</time></trkpt><trkpt lat="43.4833354" lon="11.4199908"><ele>545.0</ele><time>2026-04-03T07:55:50.762Z</time></trkpt><trkpt lat="43.4832732" lon="11.4200329"><ele>545.0</ele><time>2026-04-03T07:55:51.762Z</time></trkpt><trkpt lat="43.4832058" lon="11.4200727"><ele>545.0</ele><time>2026-04-03T07:55:52.762Z</time></trkpt><trkpt lat="43.4831344" lon="11.4201204"><ele>545.0</ele><time>2026-04-03T07:55:53.761Z</time></trkpt><trkpt lat="43.4830576" lon="11.4201658"><ele>545.0</ele><time>2026-04-03T07:55:54.761Z</time></trkpt><trkpt lat="43.4829806" lon="11.4202111"><ele>545.0</ele><time>2026-04-03T07:55:55.762Z</time></trkpt><trkpt lat="43.4829046" lon="11.4202624"><ele>545.0</ele><time>2026-04-03T07:55:56.761Z</time></trkpt><trkpt lat="43.4828257" lon="11.4203113"><ele>544.8333333333333</ele><time>2026-04-03T07:55:57.762Z</time></trkpt><trkpt lat="43.4827581" lon="11.4203623"><ele>544.6666666666666</ele><time>2026-04-03T07:55:58.761Z</time></trkpt><trkpt lat="43.4826902" lon="11.4204097"><ele>544.5</ele><time>2026-04-03T07:55:59.762Z</time></trkpt><trkpt lat="43.4826242" lon="11.4204589"><ele>544.3333333333334</ele><time>2026-04-03T07:56:00.761Z</time></trkpt><trkpt lat="43.48256" lon="11.4205081"><ele>544.1666666666667</ele><time>2026-04-03T07:56:01.762Z</time></trkpt><trkpt lat="43.4824911" lon="11.420555"><ele>544.0</ele><time>2026-04-03T07:56:02.762Z</time></trkpt><trkpt lat="43.4824165" lon="11.4206021"><ele>544.0</ele><time>2026-04-03T07:56:03.762Z</time></trkpt><trkpt lat="43.4823463" lon="11.4206554"><ele>544.0</ele><time>2026-04-03T07:56:04.761Z</time></trkpt><trkpt lat="43.4822737" lon="11.4207092"><ele>544.0</ele><time>2026-04-03T07:56:05.761Z</time></trkpt><trkpt lat="43.4821938" lon="11.4207714"><ele>544.0</ele><time>2026-04-03T07:56:06.761Z</time></trkpt><trkpt lat="43.482115" lon="11.4208337"><ele>544.0</ele><time>2026-04-03T07:56:07.762Z</time></trkpt><trkpt lat="43.482044" lon="11.4208923"><ele>544.0</ele><time>2026-04-03T07:56:08.761Z</time></trkpt><trkpt lat="43.4819793" lon="11.4209461"><ele>542.8333333333334</ele><time>2026-04-03T07:56:09.762Z</time></trkpt><trkpt lat="43.4819162" lon="11.420997"><ele>541.6666666666667</ele><time>2026-04-03T07:56:10.762Z</time></trkpt><trkpt lat="43.481842" lon="11.4210481"><ele>540.5</ele><time>2026-04-03T07:56:11.762Z</time></trkpt><trkpt lat="43.4817693" lon="11.421101"><ele>539.3333333333334</ele><time>2026-04-03T07:56:12.762Z</time></trkpt><trkpt lat="43.4816886" lon="11.421154"><ele>538.1666666666666</ele><time>2026-04-03T07:56:13.762Z</time></trkpt><trkpt lat="43.4816069" lon="11.421214"><ele>537.0</ele><time>2026-04-03T07:56:14.762Z</time></trkpt><trkpt lat="43.4815272" lon="11.4212809"><ele>537.1666666666666</ele><time>2026-04-03T07:56:15.761Z</time></trkpt><trkpt lat="43.481446" lon="11.4213518"><ele>537.3333333333334</ele><time>2026-04-03T07:56:16.762Z</time></trkpt><trkpt lat="43.4813692" lon="11.4214135"><ele>537.5</ele><time>2026-04-03T07:56:17.761Z</time></trkpt><trkpt lat="43.4813014" lon="11.4214651"><ele>537.6666666666667</ele><time>2026-04-03T07:56:18.762Z</time></trkpt><trkpt lat="43.4812337" lon="11.4215222"><ele>537.8333333333334</ele><time>2026-04-03T07:56:19.762Z</time></trkpt><trkpt lat="43.4811683" lon="11.4215823"><ele>538.0</ele><time>2026-04-03T07:56:20.762Z</time></trkpt><trkpt lat="43.4811035" lon="11.4216324"><ele>538.0</ele><time>2026-04-03T07:56:21.762Z</time></trkpt><trkpt lat="43.481029" lon="11.4216848"><ele>538.0</ele><time>2026-04-03T07:56:22.761Z</time></trkpt><trkpt lat="43.4809388" lon="11.4217399"><ele>538.0</ele><time>2026-04-03T07:56:23.762Z</time></trkpt><trkpt lat="43.4808424" lon="11.4218074"><ele>538.0</ele><time>2026-04-03T07:56:24.762Z</time></trkpt><trkpt lat="43.480748" lon="11.421884"><ele>538.0</ele><time>2026-04-03T07:56:25.762Z</time></trkpt><trkpt lat="43.4806609" lon="11.4219552"><ele>538.0</ele><time>2026-04-03T07:56:26.762Z</time></trkpt><trkpt lat="43.4805665" lon="11.4220233"><ele>538.0</ele><time>2026-04-03T07:56:27.762Z</time></trkpt><trkpt lat="43.4804695" lon="11.4220952"><ele>538.0</ele><time>2026-04-03T07:56:28.762Z</time></trkpt><trkpt lat="43.4803725" lon="11.4221661"><ele>538.0</ele><time>2026-04-03T07:56:29.762Z</time></trkpt><trkpt lat="43.480281" lon="11.4222432"><ele>538.0</ele><time>2026-04-03T07:56:30.762Z</time></trkpt><trkpt lat="43.4801902" lon="11.4223195"><ele>536.75</ele><time>2026-04-03T07:56:31.761Z</time></trkpt><trkpt lat="43.4800949" lon="11.4224044"><ele>535.5</ele><time>2026-04-03T07:56:32.762Z</time></trkpt><trkpt lat="43.4800004" lon="11.4225048"><ele>534.25</ele><time>2026-04-03T07:56:33.762Z</time></trkpt><trkpt lat="43.4799028" lon="11.4226144"><ele>533.0</ele><time>2026-04-03T07:56:34.761Z</time></trkpt><trkpt lat="43.4798162" lon="11.4227204"><ele>533.0</ele><time>2026-04-03T07:56:35.761Z</time></trkpt><trkpt lat="43.4797335" lon="11.422811"><ele>533.0</ele><time>2026-04-03T07:56:36.762Z</time></trkpt><trkpt lat="43.4796608" lon="11.4229001"><ele>533.0</ele><time>2026-04-03T07:56:37.761Z</time></trkpt><trkpt lat="43.4795842" lon="11.4229976"><ele>533.0</ele><time>2026-04-03T07:56:38.762Z</time></trkpt><trkpt lat="43.4795193" lon="11.42311"><ele>533.0</ele><time>2026-04-03T07:56:39.762Z</time></trkpt><trkpt lat="43.479459" lon="11.4232241"><ele>533.1666666666666</ele><time>2026-04-03T07:56:40.762Z</time></trkpt><trkpt lat="43.4794024" lon="11.4233402"><ele>533.3333333333333</ele><time>2026-04-03T07:56:41.762Z</time></trkpt><trkpt lat="43.4793532" lon="11.4234451"><ele>533.5</ele><time>2026-04-03T07:56:42.762Z</time></trkpt><trkpt lat="43.4793057" lon="11.4235455"><ele>533.6666666666666</ele><time>2026-04-03T07:56:43.762Z</time></trkpt><trkpt lat="43.4792612" lon="11.4236339"><ele>533.8333333333334</ele><time>2026-04-03T07:56:44.761Z</time></trkpt><trkpt lat="43.4792131" lon="11.42371"><ele>534.0</ele><time>2026-04-03T07:56:45.762Z</time></trkpt><trkpt lat="43.4791604" lon="11.4237915"><ele>533.1428571428572</ele><time>2026-04-03T07:56:46.762Z</time></trkpt><trkpt lat="43.4791055" lon="11.4238716"><ele>532.2857142857143</ele><time>2026-04-03T07:56:47.761Z</time></trkpt><trkpt lat="43.4790553" lon="11.4239458"><ele>531.4285714285714</ele><time>2026-04-03T07:56:48.762Z</time></trkpt><trkpt lat="43.4790055" lon="11.4240167"><ele>530.5714285714287</ele><time>2026-04-03T07:56:49.762Z</time></trkpt><trkpt lat="43.478951" lon="11.4240774"><ele>529.7142857142858</ele><time>2026-04-03T07:56:50.761Z</time></trkpt><trkpt lat="43.4788937" lon="11.4241305"><ele>528.8571428571429</ele><time>2026-04-03T07:56:51.762Z</time></trkpt><trkpt lat="43.4788362" lon="11.4241817"><ele>528.0</ele><time>2026-04-03T07:56:52.762Z</time></trkpt><trkpt lat="43.4787712" lon="11.4242335"><ele>527.0</ele><time>2026-04-03T07:56:53.762Z</time></trkpt><trkpt lat="43.4786964" lon="11.4242818"><ele>526.0</ele><time>2026-04-03T07:56:54.761Z</time></trkpt><trkpt lat="43.4786202" lon="11.4243319"><ele>525.0</ele><time>2026-04-03T07:56:55.762Z</time></trkpt><trkpt lat="43.4785531" lon="11.4243829"><ele>524.0</ele><time>2026-04-03T07:56:56.761Z</time></trkpt><trkpt lat="43.4784883" lon="11.4244262"><ele>523.0</ele><time>2026-04-03T07:56:57.762Z</time></trkpt><trkpt lat="43.4783823" lon="11.4245088"><ele>522.0</ele><time>2026-04-03T07:56:59.762Z</time></trkpt><trkpt lat="43.4782842" lon="11.4245918"><ele>521.2</ele><time>2026-04-03T07:57:01.762Z</time></trkpt><trkpt lat="43.4781833" lon="11.4246548"><ele>520.4000000000001</ele><time>2026-04-03T07:57:03.762Z</time></trkpt><trkpt lat="43.4780902" lon="11.4246903"><ele>519.5999999999999</ele><time>2026-04-03T07:57:05.762Z</time></trkpt><trkpt lat="43.4779999" lon="11.4246637"><ele>518.8</ele><time>2026-04-03T07:57:07.762Z</time></trkpt><trkpt lat="43.4779009" lon="11.4245707"><ele>518.0</ele><time>2026-04-03T07:57:09.762Z</time></trkpt><trkpt lat="43.4778459" lon="11.4244908"><ele>516.3333333333333</ele><time>2026-04-03T07:57:10.761Z</time></trkpt><trkpt lat="43.4777894" lon="11.4244006"><ele>514.6666666666666</ele><time>2026-04-03T07:57:11.762Z</time></trkpt><trkpt lat="43.4777364" lon="11.4243155"><ele>513.0</ele><time>2026-04-03T07:57:12.762Z</time></trkpt><trkpt lat="43.4776831" lon="11.4242339"><ele>511.33333333333337</ele><time>2026-04-03T07:57:13.762Z</time></trkpt><trkpt lat="43.4776255" lon="11.4241528"><ele>509.6666666666667</ele><time>2026-04-03T07:57:14.761Z</time></trkpt><trkpt lat="43.4775711" lon="11.4240674"><ele>508.0</ele><time>2026-04-03T07:57:15.762Z</time></trkpt><trkpt lat="43.4775095" lon="11.4239838"><ele>508.0</ele><time>2026-04-03T07:57:16.762Z</time></trkpt><trkpt lat="43.4774484" lon="11.4238999"><ele>507.99999999999994</ele><time>2026-04-03T07:57:17.762Z</time></trkpt><trkpt lat="43.4773838" lon="11.4238063"><ele>507.99999999999994</ele><time>2026-04-03T07:57:18.762Z</time></trkpt><trkpt lat="43.4773167" lon="11.4236992"><ele>508.0</ele><time>2026-04-03T07:57:19.762Z</time></trkpt><trkpt lat="43.4772483" lon="11.4235909"><ele>508.0</ele><time>2026-04-03T07:57:20.762Z</time></trkpt><trkpt lat="43.4771713" lon="11.4234808"><ele>507.59999999999997</ele><time>2026-04-03T07:57:21.762Z</time></trkpt><trkpt lat="43.477092" lon="11.4233691"><ele>507.19999999999993</ele><time>2026-04-03T07:57:22.761Z</time></trkpt><trkpt lat="43.4770161" lon="11.4232626"><ele>506.8</ele><time>2026-04-03T07:57:23.761Z</time></trkpt><trkpt lat="43.4769389" lon="11.4231636"><ele>506.4</ele><time>2026-04-03T07:57:24.76Z</time></trkpt><trkpt lat="43.476866" lon="11.4230757"><ele>506.0</ele><time>2026-04-03T07:57:25.761Z</time></trkpt><trkpt lat="43.476796" lon="11.4229962"><ele>505.6</ele><time>2026-04-03T07:57:26.76Z</time></trkpt><trkpt lat="43.4767192" lon="11.4229219"><ele>505.20000000000005</ele><time>2026-04-03T07:57:27.761Z</time></trkpt><trkpt lat="43.4766225" lon="11.4228555"><ele>504.79999999999995</ele><time>2026-04-03T07:57:28.761Z</time></trkpt><trkpt lat="43.4765085" lon="11.4227877"><ele>504.4</ele><time>2026-04-03T07:57:29.76Z</time></trkpt><trkpt lat="43.4763943" lon="11.4227231"><ele>504.0</ele><time>2026-04-03T07:57:30.761Z</time></trkpt><trkpt lat="43.4762878" lon="11.4226586"><ele>504.4</ele><time>2026-04-03T07:57:31.761Z</time></trkpt><trkpt lat="43.4761837" lon="11.4226017"><ele>504.79999999999995</ele><time>2026-04-03T07:57:32.76Z</time></trkpt><trkpt lat="43.4760825" lon="11.4225414"><ele>505.20000000000005</ele><time>2026-04-03T07:57:33.761Z</time></trkpt><trkpt lat="43.4759885" lon="11.4224863"><ele>505.6</ele><time>2026-04-03T07:57:34.761Z</time></trkpt><trkpt lat="43.4758968" lon="11.4224357"><ele>506.0</ele><time>2026-04-03T07:57:35.761Z</time></trkpt><trkpt lat="43.4758123" lon="11.4223978"><ele>506.00000000000006</ele><time>2026-04-03T07:57:36.761Z</time></trkpt><trkpt lat="43.4757388" lon="11.4223759"><ele>506.0</ele><time>2026-04-03T07:57:37.76Z</time></trkpt><trkpt lat="43.4756709" lon="11.4223616"><ele>506.00000000000006</ele><time>2026-04-03T07:57:38.761Z</time></trkpt><trkpt lat="43.4756015" lon="11.4223671"><ele>506.00000000000006</ele><time>2026-04-03T07:57:39.761Z</time></trkpt><trkpt lat="43.4755287" lon="11.422373"><ele>506.0</ele><time>2026-04-03T07:57:40.76Z</time></trkpt><trkpt lat="43.4754569" lon="11.4223932"><ele>506.00000000000006</ele><time>2026-04-03T07:57:41.761Z</time></trkpt><trkpt lat="43.4753832" lon="11.4224257"><ele>506.00000000000006</ele><time>2026-04-03T07:57:42.76Z</time></trkpt><trkpt lat="43.4753157" lon="11.4224581"><ele>507.8333333333333</ele><time>2026-04-03T07:57:43.76Z</time></trkpt><trkpt lat="43.4752384" lon="11.4225002"><ele>509.66666666666663</ele><time>2026-04-03T07:57:44.761Z</time></trkpt><trkpt lat="43.4751565" lon="11.4225483"><ele>511.5</ele><time>2026-04-03T07:57:45.761Z</time></trkpt><trkpt lat="43.4750643" lon="11.4225953"><ele>513.3333333333334</ele><time>2026-04-03T07:57:46.761Z</time></trkpt><trkpt lat="43.4749843" lon="11.4226224"><ele>515.1666666666667</ele><time>2026-04-03T07:57:47.761Z</time></trkpt><trkpt lat="43.4749055" lon="11.4226242"><ele>517.0</ele><time>2026-04-03T07:57:48.76Z</time></trkpt><trkpt lat="43.4748294" lon="11.4226257"><ele>517.0</ele><time>2026-04-03T07:57:49.761Z</time></trkpt><trkpt lat="43.4747427" lon="11.4226224"><ele>517.0</ele><time>2026-04-03T07:57:50.761Z</time></trkpt><trkpt lat="43.4746586" lon="11.4226068"><ele>517.0</ele><time>2026-04-03T07:57:51.76Z</time></trkpt><trkpt lat="43.4745603" lon="11.4225796"><ele>517.0</ele><time>2026-04-03T07:57:52.761Z</time></trkpt><trkpt lat="43.4744499" lon="11.4225444"><ele>517.0</ele><time>2026-04-03T07:57:53.76Z</time></trkpt><trkpt lat="43.474333" lon="11.4225085"><ele>517.6</ele><time>2026-04-03T07:57:54.761Z</time></trkpt><trkpt lat="43.4742282" lon="11.4224727"><ele>518.2</ele><time>2026-04-03T07:57:55.761Z</time></trkpt><trkpt lat="43.4741365" lon="11.4224503"><ele>518.8</ele><time>2026-04-03T07:57:56.76Z</time></trkpt><trkpt lat="43.4740542" lon="11.422433"><ele>519.4</ele><time>2026-04-03T07:57:57.76Z</time></trkpt><trkpt lat="43.4739755" lon="11.4224214"><ele>520.0</ele><time>2026-04-03T07:57:58.761Z</time></trkpt><trkpt lat="43.47389" lon="11.4224058"><ele>520.0</ele><time>2026-04-03T07:57:59.761Z</time></trkpt><trkpt lat="43.4737988" lon="11.4223779"><ele>520.0</ele><time>2026-04-03T07:58:00.761Z</time></trkpt><trkpt lat="43.4737064" lon="11.4223506"><ele>520.0</ele><time>2026-04-03T07:58:01.761Z</time></trkpt><trkpt lat="43.473617" lon="11.4223174"><ele>520.0</ele><time>2026-04-03T07:58:02.76Z</time></trkpt><trkpt lat="43.4735266" lon="11.4222909"><ele>520.0</ele><time>2026-04-03T07:58:03.76Z</time></trkpt><trkpt lat="43.473433" lon="11.4222621"><ele>519.6</ele><time>2026-04-03T07:58:04.761Z</time></trkpt><trkpt lat="43.4733406" lon="11.4222281"><ele>519.2</ele><time>2026-04-03T07:58:05.761Z</time></trkpt><trkpt lat="43.4732502" lon="11.4221795"><ele>518.8</ele><time>2026-04-03T07:58:06.761Z</time></trkpt><trkpt lat="43.4731613" lon="11.4221209"><ele>518.4</ele><time>2026-04-03T07:58:07.761Z</time></trkpt><trkpt lat="43.4730697" lon="11.4220459"><ele>518.0</ele><time>2026-04-03T07:58:08.761Z</time></trkpt><trkpt lat="43.4729703" lon="11.4219492"><ele>517.75</ele><time>2026-04-03T07:58:09.76Z</time></trkpt><trkpt lat="43.4728677" lon="11.4218339"><ele>517.5</ele><time>2026-04-03T07:58:10.761Z</time></trkpt><trkpt lat="43.4727709" lon="11.4217279"><ele>517.25</ele><time>2026-04-03T07:58:11.76Z</time></trkpt><trkpt lat="43.472684" lon="11.4216413"><ele>517.0</ele><time>2026-04-03T07:58:12.761Z</time></trkpt><trkpt lat="43.4726024" lon="11.421558"><ele>517.0</ele><time>2026-04-03T07:58:13.761Z</time></trkpt><trkpt lat="43.4725237" lon="11.4214828"><ele>517.0</ele><time>2026-04-03T07:58:14.761Z</time></trkpt><trkpt lat="43.4724407" lon="11.4214196"><ele>517.0</ele><time>2026-04-03T07:58:15.761Z</time></trkpt><trkpt lat="43.4723544" lon="11.4213616"><ele>517.0</ele><time>2026-04-03T07:58:16.761Z</time></trkpt><trkpt lat="43.4722549" lon="11.4212994"><ele>517.0</ele><time>2026-04-03T07:58:17.761Z</time></trkpt><trkpt lat="43.4721525" lon="11.4212368"><ele>518.0</ele><time>2026-04-03T07:58:18.761Z</time></trkpt><trkpt lat="43.4720513" lon="11.4211896"><ele>519.0</ele><time>2026-04-03T07:58:19.761Z</time></trkpt><trkpt lat="43.4719564" lon="11.4211368"><ele>520.0</ele><time>2026-04-03T07:58:20.76Z</time></trkpt><trkpt lat="43.4718698" lon="11.4210641"><ele>521.0</ele><time>2026-04-03T07:58:21.76Z</time></trkpt><trkpt lat="43.4717794" lon="11.4209648"><ele>522.0</ele><time>2026-04-03T07:58:22.761Z</time></trkpt><trkpt lat="43.4716846" lon="11.4208555"><ele>522.0</ele><time>2026-04-03T07:58:23.76Z</time></trkpt><trkpt lat="43.4716103" lon="11.4207638"><ele>522.0</ele><time>2026-04-03T07:58:24.761Z</time></trkpt><trkpt lat="43.4715447" lon="11.42067"><ele>522.0</ele><time>2026-04-03T07:58:25.76Z</time></trkpt><trkpt lat="43.4714792" lon="11.420568"><ele>522.0</ele><time>2026-04-03T07:58:26.76Z</time></trkpt><trkpt lat="43.4714122" lon="11.4204586"><ele>522.0</ele><time>2026-04-03T07:58:27.761Z</time></trkpt><trkpt lat="43.4713462" lon="11.4203401"><ele>521.2</ele><time>2026-04-03T07:58:28.761Z</time></trkpt><trkpt lat="43.4712749" lon="11.4202211"><ele>520.4000000000001</ele><time>2026-04-03T07:58:29.761Z</time></trkpt><trkpt lat="43.4712015" lon="11.4200954"><ele>519.5999999999999</ele><time>2026-04-03T07:58:30.76Z</time></trkpt><trkpt lat="43.4711323" lon="11.4199738"><ele>518.8</ele><time>2026-04-03T07:58:31.76Z</time></trkpt><trkpt lat="43.4710635" lon="11.419861"><ele>518.0</ele><time>2026-04-03T07:58:32.761Z</time></trkpt><trkpt lat="43.4709946" lon="11.4197549"><ele>515.6</ele><time>2026-04-03T07:58:33.76Z</time></trkpt><trkpt lat="43.470921" lon="11.4196481"><ele>513.1999999999999</ele><time>2026-04-03T07:58:34.761Z</time></trkpt><trkpt lat="43.4708491" lon="11.4195469"><ele>510.8</ele><time>2026-04-03T07:58:35.76Z</time></trkpt><trkpt lat="43.4707785" lon="11.4194475"><ele>508.4</ele><time>2026-04-03T07:58:36.76Z</time></trkpt><trkpt lat="43.4707089" lon="11.4193388"><ele>506.0</ele><time>2026-04-03T07:58:37.761Z</time></trkpt><trkpt lat="43.4706425" lon="11.4192262"><ele>505.99999999999994</ele><time>2026-04-03T07:58:38.761Z</time></trkpt><trkpt lat="43.4705852" lon="11.4191091"><ele>506.0</ele><time>2026-04-03T07:58:39.761Z</time></trkpt><trkpt lat="43.4705286" lon="11.4189976"><ele>506.0</ele><time>2026-04-03T07:58:40.761Z</time></trkpt><trkpt lat="43.4704789" lon="11.4188983"><ele>506.0</ele><time>2026-04-03T07:58:41.76Z</time></trkpt><trkpt lat="43.4704274" lon="11.4188139"><ele>505.99999999999994</ele><time>2026-04-03T07:58:42.761Z</time></trkpt><trkpt lat="43.4703757" lon="11.4187353"><ele>506.0</ele><time>2026-04-03T07:58:43.761Z</time></trkpt><trkpt lat="43.4703292" lon="11.4186612"><ele>505.3333333333333</ele><time>2026-04-03T07:58:44.761Z</time></trkpt><trkpt lat="43.4702509" lon="11.4185501"><ele>504.66666666666663</ele><time>2026-04-03T07:58:46.76Z</time></trkpt><trkpt lat="43.4701828" lon="11.4184493"><ele>504.0</ele><time>2026-04-03T07:58:48.76Z</time></trkpt><trkpt lat="43.4701111" lon="11.4183608"><ele>503.33333333333337</ele><time>2026-04-03T07:58:50.76Z</time></trkpt><trkpt lat="43.4700717" lon="11.4182898"><ele>502.6666666666667</ele><time>2026-04-03T07:58:52.761Z</time></trkpt><trkpt lat="43.4701334" lon="11.4183356"><ele>502.0</ele><time>2026-04-03T08:00:25.761Z</time></trkpt><trkpt lat="43.4701501" lon="11.4184312"><ele>502.0</ele><time>2026-04-03T08:00:27.761Z</time></trkpt><trkpt lat="43.4701438" lon="11.4185784"><ele>502.00000000000006</ele><time>2026-04-03T08:00:34.761Z</time></trkpt><trkpt lat="43.4701023" lon="11.4186735"><ele>502.00000000000006</ele><time>2026-04-03T08:00:35.76Z</time></trkpt><trkpt lat="43.4700368" lon="11.418783"><ele>502.0</ele><time>2026-04-03T08:00:36.761Z</time></trkpt><trkpt lat="43.4699622" lon="11.4189051"><ele>502.0</ele><time>2026-04-03T08:00:37.76Z</time></trkpt><trkpt lat="43.4698796" lon="11.4190347"><ele>501.83333333333337</ele><time>2026-04-03T08:00:38.761Z</time></trkpt><trkpt lat="43.4698073" lon="11.4191471"><ele>501.6666666666667</ele><time>2026-04-03T08:00:39.761Z</time></trkpt><trkpt lat="43.4697483" lon="11.4192401"><ele>501.5</ele><time>2026-04-03T08:00:40.76Z</time></trkpt><trkpt lat="43.4697102" lon="11.4193329"><ele>501.33333333333337</ele><time>2026-04-03T08:00:41.76Z</time></trkpt><trkpt lat="43.4696985" lon="11.4194403"><ele>501.1666666666667</ele><time>2026-04-03T08:00:42.761Z</time></trkpt><trkpt lat="43.4697072" lon="11.4195511"><ele>501.0</ele><time>2026-04-03T08:00:43.76Z</time></trkpt><trkpt lat="43.4697261" lon="11.4196617"><ele>501.0</ele><time>2026-04-03T08:00:44.761Z</time></trkpt><trkpt lat="43.4697711" lon="11.419794"><ele>501.0</ele><time>2026-04-03T08:00:45.76Z</time></trkpt><trkpt lat="43.4698382" lon="11.419964"><ele>501.0</ele><time>2026-04-03T08:00:46.76Z</time></trkpt><trkpt lat="43.4699477" lon="11.4201697"><ele>501.0</ele><time>2026-04-03T08:00:47.761Z</time></trkpt><trkpt lat="43.4700443" lon="11.4203734"><ele>498.25</ele><time>2026-04-03T08:00:48.761Z</time></trkpt><trkpt lat="43.4701225" lon="11.4205433"><ele>495.5</ele><time>2026-04-03T08:00:49.761Z</time></trkpt><trkpt lat="43.4701931" lon="11.4206869"><ele>492.75</ele><time>2026-04-03T08:00:50.76Z</time></trkpt><trkpt lat="43.4702549" lon="11.4208179"><ele>490.0</ele><time>2026-04-03T08:00:51.761Z</time></trkpt><trkpt lat="43.4703056" lon="11.4209385"><ele>490.0</ele><time>2026-04-03T08:00:52.76Z</time></trkpt><trkpt lat="43.4703405" lon="11.4210662"><ele>490.0</ele><time>2026-04-03T08:00:53.76Z</time></trkpt><trkpt lat="43.4703494" lon="11.4211819"><ele>490.0</ele><time>2026-04-03T08:00:54.761Z</time></trkpt><trkpt lat="43.4703292" lon="11.4212931"><ele>490.0</ele><time>2026-04-03T08:00:55.761Z</time></trkpt><trkpt lat="43.4702853" lon="11.4214018"><ele>490.0</ele><time>2026-04-03T08:00:56.76Z</time></trkpt><trkpt lat="43.470211" lon="11.4215015"><ele>490.75</ele><time>2026-04-03T08:00:57.761Z</time></trkpt><trkpt lat="43.4700896" lon="11.4216065"><ele>491.5</ele><time>2026-04-03T08:00:58.761Z</time></trkpt><trkpt lat="43.469966" lon="11.4217014"><ele>492.25</ele><time>2026-04-03T08:00:59.76Z</time></trkpt><trkpt lat="43.469853" lon="11.4217815"><ele>493.0</ele><time>2026-04-03T08:01:00.761Z</time></trkpt><trkpt lat="43.4697535" lon="11.4218568"><ele>493.0</ele><time>2026-04-03T08:01:01.761Z</time></trkpt><trkpt lat="43.4696594" lon="11.4219234"><ele>492.99999999999994</ele><time>2026-04-03T08:01:02.761Z</time></trkpt><trkpt lat="43.4695733" lon="11.4219859"><ele>492.99999999999994</ele><time>2026-04-03T08:01:03.761Z</time></trkpt><trkpt lat="43.4694944" lon="11.4220444"><ele>493.0</ele><time>2026-04-03T08:01:04.761Z</time></trkpt><trkpt lat="43.4694142" lon="11.4221058"><ele>493.0</ele><time>2026-04-03T08:01:05.761Z</time></trkpt><trkpt lat="43.469334" lon="11.4221678"><ele>492.4</ele><time>2026-04-03T08:01:06.76Z</time></trkpt><trkpt lat="43.4692475" lon="11.422227"><ele>491.79999999999995</ele><time>2026-04-03T08:01:07.761Z</time></trkpt><trkpt lat="43.4691536" lon="11.4222956"><ele>491.2</ele><time>2026-04-03T08:01:08.761Z</time></trkpt><trkpt lat="43.4690506" lon="11.4223681"><ele>490.6</ele><time>2026-04-03T08:01:09.76Z</time></trkpt><trkpt lat="43.4689374" lon="11.4224505"><ele>490.0</ele><time>2026-04-03T08:01:10.76Z</time></trkpt><trkpt lat="43.4688149" lon="11.4225379"><ele>486.5</ele><time>2026-04-03T08:01:11.761Z</time></trkpt><trkpt lat="43.4686819" lon="11.4226419"><ele>483.0</ele><time>2026-04-03T08:01:12.76Z</time></trkpt><trkpt lat="43.4685591" lon="11.4227348"><ele>479.5</ele><time>2026-04-03T08:01:13.761Z</time></trkpt><trkpt lat="43.4684471" lon="11.4228184"><ele>476.0</ele><time>2026-04-03T08:01:14.761Z</time></trkpt><trkpt lat="43.4683372" lon="11.4228921"><ele>476.0</ele><time>2026-04-03T08:01:15.761Z</time></trkpt><trkpt lat="43.4682165" lon="11.4229653"><ele>476.0</ele><time>2026-04-03T08:01:16.76Z</time></trkpt><trkpt lat="43.4680989" lon="11.4230298"><ele>476.0</ele><time>2026-04-03T08:01:17.76Z</time></trkpt><trkpt lat="43.4679884" lon="11.4230721"><ele>476.0</ele><time>2026-04-03T08:01:18.761Z</time></trkpt><trkpt lat="43.4678809" lon="11.4230964"><ele>476.49999999999994</ele><time>2026-04-03T08:01:19.761Z</time></trkpt><trkpt lat="43.4677918" lon="11.423104"><ele>477.0</ele><time>2026-04-03T08:01:20.761Z</time></trkpt><trkpt lat="43.4677192" lon="11.423134"><ele>477.5</ele><time>2026-04-03T08:01:21.761Z</time></trkpt><trkpt lat="43.4676698" lon="11.4232036"><ele>478.0</ele><time>2026-04-03T08:01:22.761Z</time></trkpt><trkpt lat="43.4676454" lon="11.4232986"><ele>478.49999999999994</ele><time>2026-04-03T08:01:23.761Z</time></trkpt><trkpt lat="43.4676469" lon="11.423391"><ele>479.0</ele><time>2026-04-03T08:01:24.761Z</time></trkpt><trkpt lat="43.4676659" lon="11.4234922"><ele>479.0</ele><time>2026-04-03T08:01:25.761Z</time></trkpt><trkpt lat="43.4677143" lon="11.4235819"><ele>479.0</ele><time>2026-04-03T08:01:26.761Z</time></trkpt><trkpt lat="43.4677992" lon="11.4236609"><ele>479.0</ele><time>2026-04-03T08:01:27.761Z</time></trkpt><trkpt lat="43.467901" lon="11.4237403"><ele>479.0</ele><time>2026-04-03T08:01:28.76Z</time></trkpt><trkpt lat="43.4680157" lon="11.4238397"><ele>479.0</ele><time>2026-04-03T08:01:29.76Z</time></trkpt><trkpt lat="43.4681262" lon="11.423939"><ele>476.5</ele><time>2026-04-03T08:01:30.76Z</time></trkpt><trkpt lat="43.4682258" lon="11.4240284"><ele>474.0</ele><time>2026-04-03T08:01:31.76Z</time></trkpt><trkpt lat="43.4683276" lon="11.4241194"><ele>471.5</ele><time>2026-04-03T08:01:32.761Z</time></trkpt><trkpt lat="43.4684284" lon="11.4242081"><ele>469.0</ele><time>2026-04-03T08:01:33.761Z</time></trkpt><trkpt lat="43.4685369" lon="11.4242733"><ele>469.0</ele><time>2026-04-03T08:01:34.761Z</time></trkpt><trkpt lat="43.4686659" lon="11.4243127"><ele>469.0</ele><time>2026-04-03T08:01:35.76Z</time></trkpt><trkpt lat="43.468809" lon="11.4243371"><ele>469.0</ele><time>2026-04-03T08:01:36.761Z</time></trkpt><trkpt lat="43.4689678" lon="11.424357"><ele>469.0</ele><time>2026-04-03T08:01:37.761Z</time></trkpt><trkpt lat="43.4691127" lon="11.4243775"><ele>468.5</ele><time>2026-04-03T08:01:38.76Z</time></trkpt><trkpt lat="43.4692509" lon="11.4244011"><ele>468.0</ele><time>2026-04-03T08:01:39.761Z</time></trkpt><trkpt lat="43.469382" lon="11.4244406"><ele>467.5</ele><time>2026-04-03T08:01:40.761Z</time></trkpt><trkpt lat="43.4695066" lon="11.4244978"><ele>467.0</ele><time>2026-04-03T08:01:41.761Z</time></trkpt><trkpt lat="43.4696179" lon="11.4245852"><ele>465.25</ele><time>2026-04-03T08:01:42.761Z</time></trkpt><trkpt lat="43.4697111" lon="11.424688"><ele>463.5</ele><time>2026-04-03T08:01:43.761Z</time></trkpt><trkpt lat="43.4697811" lon="11.4247992"><ele>461.75</ele><time>2026-04-03T08:01:44.761Z</time></trkpt><trkpt lat="43.4698235" lon="11.42494"><ele>460.0</ele><time>2026-04-03T08:01:45.761Z</time></trkpt><trkpt lat="43.4698348" lon="11.4251351"><ele>460.0</ele><time>2026-04-03T08:01:46.761Z</time></trkpt><trkpt lat="43.4698539" lon="11.4253619"><ele>460.0</ele><time>2026-04-03T08:01:47.761Z</time></trkpt><trkpt lat="43.4698719" lon="11.4255669"><ele>460.0</ele><time>2026-04-03T08:01:48.761Z</time></trkpt><trkpt lat="43.4698828" lon="11.4257497"><ele>460.0</ele><time>2026-04-03T08:01:49.76Z</time></trkpt><trkpt lat="43.4698896" lon="11.4259196"><ele>457.0</ele><time>2026-04-03T08:01:50.76Z</time></trkpt><trkpt lat="43.469891" lon="11.4260817"><ele>454.0</ele><time>2026-04-03T08:01:51.761Z</time></trkpt><trkpt lat="43.4698895" lon="11.4262331"><ele>451.0</ele><time>2026-04-03T08:01:52.761Z</time></trkpt><trkpt lat="43.4698817" lon="11.426393"><ele>448.0</ele><time>2026-04-03T08:01:53.761Z</time></trkpt><trkpt lat="43.4698661" lon="11.4265617"><ele>446.0</ele><time>2026-04-03T08:01:54.761Z</time></trkpt><trkpt lat="43.4698442" lon="11.4267407"><ele>444.0</ele><time>2026-04-03T08:01:55.76Z</time></trkpt><trkpt lat="43.4698181" lon="11.4269204"><ele>442.0</ele><time>2026-04-03T08:01:56.761Z</time></trkpt><trkpt lat="43.4697894" lon="11.4270919"><ele>440.0</ele><time>2026-04-03T08:01:57.761Z</time></trkpt><trkpt lat="43.4697439" lon="11.4272616"><ele>437.3333333333333</ele><time>2026-04-03T08:01:58.761Z</time></trkpt><trkpt lat="43.4696783" lon="11.4274282"><ele>434.66666666666663</ele><time>2026-04-03T08:01:59.76Z</time></trkpt><trkpt lat="43.4695891" lon="11.4276007"><ele>432.0</ele><time>2026-04-03T08:02:00.761Z</time></trkpt><trkpt lat="43.4694869" lon="11.4277834"><ele>428.33333333333337</ele><time>2026-04-03T08:02:01.761Z</time></trkpt><trkpt lat="43.4693649" lon="11.4279769"><ele>424.6666666666667</ele><time>2026-04-03T08:02:02.76Z</time></trkpt><trkpt lat="43.4692218" lon="11.4282006"><ele>421.0</ele><time>2026-04-03T08:02:03.76Z</time></trkpt><trkpt lat="43.4690786" lon="11.4284264"><ele>421.0</ele><time>2026-04-03T08:02:04.761Z</time></trkpt><trkpt lat="43.4689514" lon="11.4286324"><ele>421.0</ele><time>2026-04-03T08:02:05.761Z</time></trkpt><trkpt lat="43.4688339" lon="11.4288265"><ele>421.0</ele><time>2026-04-03T08:02:06.761Z</time></trkpt><trkpt lat="43.4687262" lon="11.4290048"><ele>417.75</ele><time>2026-04-03T08:02:07.761Z</time></trkpt><trkpt lat="43.4686293" lon="11.4291678"><ele>414.5</ele><time>2026-04-03T08:02:08.76Z</time></trkpt><trkpt lat="43.468541" lon="11.4293025"><ele>411.25</ele><time>2026-04-03T08:02:09.761Z</time></trkpt><trkpt lat="43.4684623" lon="11.429426"><ele>408.0</ele><time>2026-04-03T08:02:10.761Z</time></trkpt><trkpt lat="43.4683932" lon="11.4295265"><ele>408.0</ele><time>2026-04-03T08:02:11.761Z</time></trkpt><trkpt lat="43.4683267" lon="11.4296039"><ele>408.0</ele><time>2026-04-03T08:02:12.761Z</time></trkpt><trkpt lat="43.4682529" lon="11.4296658"><ele>408.0</ele><time>2026-04-03T08:02:13.76Z</time></trkpt><trkpt lat="43.4681667" lon="11.4297176"><ele>408.0</ele><time>2026-04-03T08:02:14.76Z</time></trkpt><trkpt lat="43.4680846" lon="11.4297813"><ele>408.0</ele><time>2026-04-03T08:02:15.761Z</time></trkpt><trkpt lat="43.4679986" lon="11.4298383"><ele>406.3333333333333</ele><time>2026-04-03T08:02:16.761Z</time></trkpt><trkpt lat="43.4679201" lon="11.4298972"><ele>404.66666666666663</ele><time>2026-04-03T08:02:17.761Z</time></trkpt><trkpt lat="43.4678457" lon="11.4299533"><ele>403.0</ele><time>2026-04-03T08:02:18.761Z</time></trkpt><trkpt lat="43.4677718" lon="11.4300108"><ele>401.3333333333333</ele><time>2026-04-03T08:02:19.76Z</time></trkpt><trkpt lat="43.4677008" lon="11.4300575"><ele>399.66666666666663</ele><time>2026-04-03T08:02:20.76Z</time></trkpt><trkpt lat="43.4676262" lon="11.4300973"><ele>398.0</ele><time>2026-04-03T08:02:21.76Z</time></trkpt><trkpt lat="43.4675463" lon="11.4301532"><ele>397.99999999999994</ele><time>2026-04-03T08:02:22.761Z</time></trkpt><trkpt lat="43.4674611" lon="11.4302072"><ele>398.0</ele><time>2026-04-03T08:02:23.761Z</time></trkpt><trkpt lat="43.4673746" lon="11.4302573"><ele>398.0</ele><time>2026-04-03T08:02:24.761Z</time></trkpt><trkpt lat="43.4672994" lon="11.430304"><ele>398.0</ele><time>2026-04-03T08:02:25.76Z</time></trkpt><trkpt lat="43.4672287" lon="11.4303469"><ele>397.99999999999994</ele><time>2026-04-03T08:02:26.76Z</time></trkpt><trkpt lat="43.4671629" lon="11.4303993"><ele>398.0</ele><time>2026-04-03T08:02:27.761Z</time></trkpt><trkpt lat="43.4670936" lon="11.4304464"><ele>396.99999999999994</ele><time>2026-04-03T08:02:28.76Z</time></trkpt><trkpt lat="43.4670174" lon="11.4304925"><ele>396.0</ele><time>2026-04-03T08:02:30.761Z</time></trkpt><trkpt lat="43.4671023" lon="11.4304758"><ele>395.0</ele><time>2026-04-03T08:02:55.761Z</time></trkpt><trkpt lat="43.4672351" lon="11.4305232"><ele>394.0</ele><time>2026-04-03T08:02:57.759Z</time></trkpt><trkpt lat="43.4672915" lon="11.4305808"><ele>392.99999999999994</ele><time>2026-04-03T08:02:58.76Z</time></trkpt><trkpt lat="43.4673458" lon="11.4306275"><ele>392.0</ele><time>2026-04-03T08:02:59.76Z</time></trkpt><trkpt lat="43.4674475" lon="11.4307081"><ele>391.99999999999994</ele><time>2026-04-03T08:03:01.759Z</time></trkpt><trkpt lat="43.4675458" lon="11.4307755"><ele>392.0</ele><time>2026-04-03T08:03:03.76Z</time></trkpt><trkpt lat="43.4676032" lon="11.4308129"><ele>392.0</ele><time>2026-04-03T08:03:04.76Z</time></trkpt><trkpt lat="43.4676727" lon="11.4308655"><ele>392.0</ele><time>2026-04-03T08:03:05.759Z</time></trkpt><trkpt lat="43.4677459" lon="11.4309226"><ele>391.99999999999994</ele><time>2026-04-03T08:03:06.76Z</time></trkpt><trkpt lat="43.4678175" lon="11.4309815"><ele>392.0</ele><time>2026-04-03T08:03:07.759Z</time></trkpt><trkpt lat="43.4678938" lon="11.431038"><ele>391.6</ele><time>2026-04-03T08:03:08.76Z</time></trkpt><trkpt lat="43.4679681" lon="11.4310941"><ele>391.20000000000005</ele><time>2026-04-03T08:03:09.759Z</time></trkpt><trkpt lat="43.4680425" lon="11.4311526"><ele>390.8</ele><time>2026-04-03T08:03:10.759Z</time></trkpt><trkpt lat="43.4681212" lon="11.4312194"><ele>390.4</ele><time>2026-04-03T08:03:11.76Z</time></trkpt><trkpt lat="43.4682077" lon="11.4312876"><ele>390.0</ele><time>2026-04-03T08:03:12.76Z</time></trkpt><trkpt lat="43.4683033" lon="11.4313515"><ele>387.0</ele><time>2026-04-03T08:03:13.759Z</time></trkpt><trkpt lat="43.4683955" lon="11.431424"><ele>384.0</ele><time>2026-04-03T08:03:14.759Z</time></trkpt><trkpt lat="43.4684829" lon="11.431497"><ele>381.0</ele><time>2026-04-03T08:03:15.76Z</time></trkpt><trkpt lat="43.4685588" lon="11.4315671"><ele>378.0</ele><time>2026-04-03T08:03:16.759Z</time></trkpt><trkpt lat="43.4686159" lon="11.4316471"><ele>375.0</ele><time>2026-04-03T08:03:17.759Z</time></trkpt><trkpt lat="43.4686546" lon="11.4317265"><ele>375.0</ele><time>2026-04-03T08:03:18.76Z</time></trkpt><trkpt lat="43.4686454" lon="11.4318688"><ele>375.0</ele><time>2026-04-03T08:03:20.759Z</time></trkpt><trkpt lat="43.4685631" lon="11.4319627"><ele>375.0</ele><time>2026-04-03T08:03:22.76Z</time></trkpt><trkpt lat="43.4684353" lon="11.4319901"><ele>375.0</ele><time>2026-04-03T08:03:24.76Z</time></trkpt><trkpt lat="43.4683663" lon="11.4320102"><ele>375.0</ele><time>2026-04-03T08:03:25.759Z</time></trkpt><trkpt lat="43.4682722" lon="11.4320699"><ele>375.0</ele><time>2026-04-03T08:03:27.76Z</time></trkpt><trkpt lat="43.4682227" lon="11.4321306"><ele>375.0</ele><time>2026-04-03T08:03:29.76Z</time></trkpt><trkpt lat="43.4681598" lon="11.4321977"><ele>375.0</ele><time>2026-04-03T08:03:32.76Z</time></trkpt><trkpt lat="43.4680521" lon="11.4322796"><ele>375.0</ele><time>2026-04-03T08:03:34.76Z</time></trkpt><trkpt lat="43.4679749" lon="11.4323292"><ele>375.0</ele><time>2026-04-03T08:03:35.759Z</time></trkpt><trkpt lat="43.467895" lon="11.4323769"><ele>375.0</ele><time>2026-04-03T08:03:36.759Z</time></trkpt><trkpt lat="43.4678082" lon="11.4324279"><ele>372.4</ele><time>2026-04-03T08:03:37.76Z</time></trkpt><trkpt lat="43.4677175" lon="11.4324908"><ele>369.8</ele><time>2026-04-03T08:03:38.759Z</time></trkpt><trkpt lat="43.4676244" lon="11.432549"><ele>367.20000000000005</ele><time>2026-04-03T08:03:39.759Z</time></trkpt><trkpt lat="43.4675312" lon="11.4326041"><ele>364.6</ele><time>2026-04-03T08:03:40.76Z</time></trkpt><trkpt lat="43.4674404" lon="11.4326615"><ele>362.0</ele><time>2026-04-03T08:03:41.76Z</time></trkpt><trkpt lat="43.4673506" lon="11.4327167"><ele>362.0</ele><time>2026-04-03T08:03:42.76Z</time></trkpt><trkpt lat="43.4672645" lon="11.4327731"><ele>362.0</ele><time>2026-04-03T08:03:43.759Z</time></trkpt><trkpt lat="43.4671805" lon="11.4328259"><ele>362.0</ele><time>2026-04-03T08:03:44.76Z</time></trkpt><trkpt lat="43.4670922" lon="11.4328867"><ele>362.0</ele><time>2026-04-03T08:03:45.76Z</time></trkpt><trkpt lat="43.4670057" lon="11.4329434"><ele>362.0</ele><time>2026-04-03T08:03:46.759Z</time></trkpt><trkpt lat="43.4669157" lon="11.4330024"><ele>360.33333333333337</ele><time>2026-04-03T08:03:47.759Z</time></trkpt><trkpt lat="43.4668282" lon="11.4330612"><ele>358.6666666666667</ele><time>2026-04-03T08:03:48.759Z</time></trkpt><trkpt lat="43.4667464" lon="11.4331123"><ele>357.0</ele><time>2026-04-03T08:03:49.76Z</time></trkpt><trkpt lat="43.4666703" lon="11.4331629"><ele>355.3333333333333</ele><time>2026-04-03T08:03:50.76Z</time></trkpt><trkpt lat="43.4665964" lon="11.4332107"><ele>353.66666666666663</ele><time>2026-04-03T08:03:51.759Z</time></trkpt><trkpt lat="43.4665244" lon="11.4332513"><ele>352.0</ele><time>2026-04-03T08:03:52.759Z</time></trkpt><trkpt lat="43.4664525" lon="11.4332919"><ele>352.0</ele><time>2026-04-03T08:03:53.76Z</time></trkpt><trkpt lat="43.4663816" lon="11.4333363"><ele>352.0</ele><time>2026-04-03T08:03:54.76Z</time></trkpt><trkpt lat="43.4663106" lon="11.4333789"><ele>352.0</ele><time>2026-04-03T08:03:55.76Z</time></trkpt><trkpt lat="43.4662345" lon="11.4334185"><ele>352.0</ele><time>2026-04-03T08:03:56.76Z</time></trkpt><trkpt lat="43.4661521" lon="11.4334312"><ele>352.0</ele><time>2026-04-03T08:03:57.76Z</time></trkpt><trkpt lat="43.4660595" lon="11.4334153"><ele>352.0</ele><time>2026-04-03T08:03:58.759Z</time></trkpt><trkpt lat="43.4659667" lon="11.4333964"><ele>351.3333333333333</ele><time>2026-04-03T08:03:59.76Z</time></trkpt><trkpt lat="43.4658777" lon="11.4333771"><ele>350.66666666666663</ele><time>2026-04-03T08:04:00.76Z</time></trkpt><trkpt lat="43.4657971" lon="11.4333604"><ele>350.0</ele><time>2026-04-03T08:04:01.76Z</time></trkpt><trkpt lat="43.4657243" lon="11.4333427"><ele>349.3333333333333</ele><time>2026-04-03T08:04:02.759Z</time></trkpt><trkpt lat="43.4656517" lon="11.4333295"><ele>348.6666666666667</ele><time>2026-04-03T08:04:03.76Z</time></trkpt><trkpt lat="43.4655835" lon="11.433309"><ele>348.0</ele><time>2026-04-03T08:04:04.759Z</time></trkpt><trkpt lat="43.4655128" lon="11.4332808"><ele>348.0</ele><time>2026-04-03T08:04:05.76Z</time></trkpt><trkpt lat="43.4654396" lon="11.4332431"><ele>348.0</ele><time>2026-04-03T08:04:06.76Z</time></trkpt><trkpt lat="43.4653702" lon="11.4331943"><ele>348.0</ele><time>2026-04-03T08:04:07.76Z</time></trkpt><trkpt lat="43.4653055" lon="11.4331484"><ele>348.0</ele><time>2026-04-03T08:04:08.76Z</time></trkpt><trkpt lat="43.4652451" lon="11.4331033"><ele>348.0</ele><time>2026-04-03T08:04:09.759Z</time></trkpt><trkpt lat="43.4651794" lon="11.4330733"><ele>348.0</ele><time>2026-04-03T08:04:10.76Z</time></trkpt><trkpt lat="43.4651128" lon="11.4330728"><ele>348.0</ele><time>2026-04-03T08:04:11.759Z</time></trkpt><trkpt lat="43.465017" lon="11.4331267"><ele>348.0</ele><time>2026-04-03T08:04:13.76Z</time></trkpt><trkpt lat="43.4649833" lon="11.4332155"><ele>348.0</ele><time>2026-04-03T08:04:16.759Z</time></trkpt><trkpt lat="43.4649893" lon="11.4333051"><ele>348.0</ele><time>2026-04-03T08:04:18.76Z</time></trkpt><trkpt lat="43.4650836" lon="11.433465"><ele>348.0</ele><time>2026-04-03T08:04:20.76Z</time></trkpt><trkpt lat="43.4651633" lon="11.4335682"><ele>348.0</ele><time>2026-04-03T08:04:21.759Z</time></trkpt><trkpt lat="43.4652396" lon="11.4336745"><ele>348.0</ele><time>2026-04-03T08:04:22.759Z</time></trkpt><trkpt lat="43.4653087" lon="11.4337777"><ele>348.0</ele><time>2026-04-03T08:04:23.759Z</time></trkpt><trkpt lat="43.4653761" lon="11.4338671"><ele>348.0</ele><time>2026-04-03T08:04:24.76Z</time></trkpt><trkpt lat="43.4654425" lon="11.4339527"><ele>348.0</ele><time>2026-04-03T08:04:25.76Z</time></trkpt><trkpt lat="43.4655114" lon="11.4340401"><ele>348.0</ele><time>2026-04-03T08:04:26.759Z</time></trkpt><trkpt lat="43.465596" lon="11.434116"><ele>348.0</ele><time>2026-04-03T08:04:27.76Z</time></trkpt><trkpt lat="43.4656915" lon="11.4341801"><ele>348.0</ele><time>2026-04-03T08:04:28.759Z</time></trkpt><trkpt lat="43.4657992" lon="11.4342249"><ele>348.0</ele><time>2026-04-03T08:04:29.76Z</time></trkpt><trkpt lat="43.4659059" lon="11.4342627"><ele>348.0</ele><time>2026-04-03T08:04:30.759Z</time></trkpt><trkpt lat="43.466001" lon="11.4343004"><ele>348.0</ele><time>2026-04-03T08:04:31.759Z</time></trkpt><trkpt lat="43.4660947" lon="11.434328"><ele>348.0</ele><time>2026-04-03T08:04:32.759Z</time></trkpt><trkpt lat="43.4661942" lon="11.4343538"><ele>348.0</ele><time>2026-04-03T08:04:33.76Z</time></trkpt><trkpt lat="43.4663069" lon="11.4343792"><ele>348.0</ele><time>2026-04-03T08:04:34.76Z</time></trkpt><trkpt lat="43.4664138" lon="11.4343898"><ele>348.0</ele><time>2026-04-03T08:04:35.76Z</time></trkpt><trkpt lat="43.4665198" lon="11.4343903"><ele>348.0</ele><time>2026-04-03T08:04:36.76Z</time></trkpt><trkpt lat="43.4666253" lon="11.434385"><ele>348.59999999999997</ele><time>2026-04-03T08:04:37.759Z</time></trkpt><trkpt lat="43.466723" lon="11.4343726"><ele>349.2</ele><time>2026-04-03T08:04:38.76Z</time></trkpt><trkpt lat="43.4668186" lon="11.434359"><ele>349.8</ele><time>2026-04-03T08:04:39.759Z</time></trkpt><trkpt lat="43.4669099" lon="11.434342"><ele>350.4</ele><time>2026-04-03T08:04:40.76Z</time></trkpt><trkpt lat="43.4669958" lon="11.4343165"><ele>351.0</ele><time>2026-04-03T08:04:41.759Z</time></trkpt><trkpt lat="43.4670759" lon="11.4342898"><ele>351.42857142857144</ele><time>2026-04-03T08:04:42.759Z</time></trkpt><trkpt lat="43.4671487" lon="11.4342683"><ele>351.8571428571429</ele><time>2026-04-03T08:04:43.759Z</time></trkpt><trkpt lat="43.4672125" lon="11.434245"><ele>352.28571428571433</ele><time>2026-04-03T08:04:44.76Z</time></trkpt><trkpt lat="43.4672784" lon="11.4342165"><ele>352.7142857142857</ele><time>2026-04-03T08:04:45.759Z</time></trkpt><trkpt lat="43.4673723" lon="11.4341937"><ele>353.1428571428571</ele><time>2026-04-03T08:04:47.76Z</time></trkpt><trkpt lat="43.4674375" lon="11.4342186"><ele>353.5714285714286</ele><time>2026-04-03T08:04:49.76Z</time></trkpt><trkpt lat="43.4674983" lon="11.4342667"><ele>354.0</ele><time>2026-04-03T08:04:52.76Z</time></trkpt><trkpt lat="43.4674928" lon="11.4341783"><ele>354.0</ele><time>2026-04-03T08:05:26.76Z</time></trkpt><trkpt lat="43.4674696" lon="11.4342623"><ele>354.0</ele><time>2026-04-03T08:05:58.76Z</time></trkpt><trkpt lat="43.4674324" lon="11.4341845"><ele>354.0</ele><time>2026-04-03T08:11:11.759Z</time></trkpt><trkpt lat="43.4673392" lon="11.4342164"><ele>354.0</ele><time>2026-04-03T08:11:13.758Z</time></trkpt><trkpt lat="43.4672715" lon="11.4342346"><ele>354.0</ele><time>2026-04-03T08:11:14.758Z</time></trkpt><trkpt lat="43.4671945" lon="11.4342565"><ele>354.0</ele><time>2026-04-03T08:11:15.759Z</time></trkpt><trkpt lat="43.4671036" lon="11.4342657"><ele>353.4</ele><time>2026-04-03T08:11:16.759Z</time></trkpt><trkpt lat="43.4669994" lon="11.4342809"><ele>352.79999999999995</ele><time>2026-04-03T08:11:17.758Z</time></trkpt><trkpt lat="43.466902" lon="11.4343025"><ele>352.20000000000005</ele><time>2026-04-03T08:11:18.759Z</time></trkpt><trkpt lat="43.4668083" lon="11.4343199"><ele>351.6</ele><time>2026-04-03T08:11:19.759Z</time></trkpt><trkpt lat="43.4667145" lon="11.4343292"><ele>351.0</ele><time>2026-04-03T08:11:20.759Z</time></trkpt><trkpt lat="43.4666287" lon="11.4343277"><ele>351.0</ele><time>2026-04-03T08:11:21.759Z</time></trkpt><trkpt lat="43.4665407" lon="11.4343239"><ele>351.0</ele><time>2026-04-03T08:11:22.758Z</time></trkpt><trkpt lat="43.4664501" lon="11.4343227"><ele>351.0</ele><time>2026-04-03T08:11:23.759Z</time></trkpt><trkpt lat="43.4663575" lon="11.4343201"><ele>351.0</ele><time>2026-04-03T08:11:24.759Z</time></trkpt><trkpt lat="43.4662635" lon="11.4343128"><ele>351.0</ele><time>2026-04-03T08:11:25.758Z</time></trkpt><trkpt lat="43.4661676" lon="11.4342906"><ele>350.4</ele><time>2026-04-03T08:11:26.759Z</time></trkpt><trkpt lat="43.4660686" lon="11.4342668"><ele>349.8</ele><time>2026-04-03T08:11:27.759Z</time></trkpt><trkpt lat="43.465969" lon="11.4342373"><ele>349.2</ele><time>2026-04-03T08:11:28.759Z</time></trkpt><trkpt lat="43.465863" lon="11.4341968"><ele>348.59999999999997</ele><time>2026-04-03T08:11:29.758Z</time></trkpt><trkpt lat="43.4657468" lon="11.4341532"><ele>348.0</ele><time>2026-04-03T08:11:30.759Z</time></trkpt><trkpt lat="43.4656253" lon="11.4340944"><ele>348.0</ele><time>2026-04-03T08:11:31.759Z</time></trkpt><trkpt lat="43.4655048" lon="11.4339932"><ele>348.0</ele><time>2026-04-03T08:11:32.759Z</time></trkpt><trkpt lat="43.4653895" lon="11.4338632"><ele>348.0</ele><time>2026-04-03T08:11:33.758Z</time></trkpt><trkpt lat="43.4652894" lon="11.4337178"><ele>348.0</ele><time>2026-04-03T08:11:34.759Z</time></trkpt><trkpt lat="43.4651927" lon="11.4335649"><ele>348.0</ele><time>2026-04-03T08:11:35.759Z</time></trkpt><trkpt lat="43.4650831" lon="11.4334152"><ele>348.0</ele><time>2026-04-03T08:11:36.759Z</time></trkpt><trkpt lat="43.4649442" lon="11.4332776"><ele>348.0</ele><time>2026-04-03T08:11:37.759Z</time></trkpt><trkpt lat="43.4647853" lon="11.4331561"><ele>348.3333333333333</ele><time>2026-04-03T08:11:38.759Z</time></trkpt><trkpt lat="43.4646121" lon="11.4330256"><ele>348.66666666666663</ele><time>2026-04-03T08:11:39.758Z</time></trkpt><trkpt lat="43.4644619" lon="11.4328716"><ele>349.0</ele><time>2026-04-03T08:11:40.759Z</time></trkpt><trkpt lat="43.4643319" lon="11.432717"><ele>349.0</ele><time>2026-04-03T08:11:41.758Z</time></trkpt><trkpt lat="43.4642149" lon="11.4325427"><ele>349.0</ele><time>2026-04-03T08:11:42.759Z</time></trkpt><trkpt lat="43.4641134" lon="11.4323349"><ele>349.0</ele><time>2026-04-03T08:11:43.759Z</time></trkpt><trkpt lat="43.4640152" lon="11.4320926"><ele>348.3333333333333</ele><time>2026-04-03T08:11:44.759Z</time></trkpt><trkpt lat="43.4639171" lon="11.4318277"><ele>347.6666666666667</ele><time>2026-04-03T08:11:45.758Z</time></trkpt><trkpt lat="43.4638085" lon="11.4315593"><ele>347.0</ele><time>2026-04-03T08:11:46.759Z</time></trkpt><trkpt lat="43.4636938" lon="11.4312762"><ele>347.0</ele><time>2026-04-03T08:11:47.758Z</time></trkpt><trkpt lat="43.4635737" lon="11.4309931"><ele>347.0</ele><time>2026-04-03T08:11:48.758Z</time></trkpt><trkpt lat="43.4634168" lon="11.4307034"><ele>350.0</ele><time>2026-04-03T08:11:49.759Z</time></trkpt><trkpt lat="43.4632282" lon="11.4304073"><ele>353.0</ele><time>2026-04-03T08:11:50.759Z</time></trkpt><trkpt lat="43.4630638" lon="11.4301361"><ele>349.5</ele><time>2026-04-03T08:11:51.759Z</time></trkpt><trkpt lat="43.4629171" lon="11.4298879"><ele>346.0</ele><time>2026-04-03T08:11:52.759Z</time></trkpt><trkpt lat="43.4627628" lon="11.4296732"><ele>346.0</ele><time>2026-04-03T08:11:53.759Z</time></trkpt><trkpt lat="43.462604" lon="11.4294602"><ele>346.0</ele><time>2026-04-03T08:11:54.759Z</time></trkpt><trkpt lat="43.4624344" lon="11.4292413"><ele>346.0</ele><time>2026-04-03T08:11:55.758Z</time></trkpt><trkpt lat="43.4622575" lon="11.4290227"><ele>346.0</ele><time>2026-04-03T08:11:56.758Z</time></trkpt><trkpt lat="43.4620745" lon="11.4287986"><ele>344.0</ele><time>2026-04-03T08:11:57.758Z</time></trkpt><trkpt lat="43.4618818" lon="11.4285709"><ele>342.0</ele><time>2026-04-03T08:11:58.759Z</time></trkpt><trkpt lat="43.4616761" lon="11.4283327"><ele>342.0</ele><time>2026-04-03T08:11:59.759Z</time></trkpt><trkpt lat="43.4614612" lon="11.4280999"><ele>342.0</ele><time>2026-04-03T08:12:00.759Z</time></trkpt><trkpt lat="43.4612614" lon="11.4278869"><ele>341.3333333333333</ele><time>2026-04-03T08:12:01.759Z</time></trkpt><trkpt lat="43.4610822" lon="11.4277041"><ele>340.66666666666663</ele><time>2026-04-03T08:12:02.759Z</time></trkpt><trkpt lat="43.4609179" lon="11.4275228"><ele>340.0</ele><time>2026-04-03T08:12:03.758Z</time></trkpt><trkpt lat="43.4607534" lon="11.4273553"><ele>340.0</ele><time>2026-04-03T08:12:04.758Z</time></trkpt><trkpt lat="43.4605788" lon="11.4272105"><ele>340.0</ele><time>2026-04-03T08:12:05.759Z</time></trkpt><trkpt lat="43.4603697" lon="11.4270909"><ele>340.0</ele><time>2026-04-03T08:12:06.759Z</time></trkpt><trkpt lat="43.4601319" lon="11.4269924"><ele>341.5</ele><time>2026-04-03T08:12:07.758Z</time></trkpt><trkpt lat="43.4598833" lon="11.4268813"><ele>343.0</ele><time>2026-04-03T08:12:08.759Z</time></trkpt><trkpt lat="43.459635" lon="11.4267701"><ele>341.0</ele><time>2026-04-03T08:12:09.759Z</time></trkpt><trkpt lat="43.4593969" lon="11.4266682"><ele>339.0</ele><time>2026-04-03T08:12:10.758Z</time></trkpt><trkpt lat="43.4591654" lon="11.4265646"><ele>339.0</ele><time>2026-04-03T08:12:11.758Z</time></trkpt><trkpt lat="43.4589382" lon="11.4264601"><ele>339.0</ele><time>2026-04-03T08:12:12.759Z</time></trkpt><trkpt lat="43.4587111" lon="11.4263573"><ele>337.5</ele><time>2026-04-03T08:12:13.758Z</time></trkpt><trkpt lat="43.45849" lon="11.4262588"><ele>336.0</ele><time>2026-04-03T08:12:14.759Z</time></trkpt><trkpt lat="43.4582743" lon="11.4261626"><ele>336.0</ele><time>2026-04-03T08:12:15.759Z</time></trkpt><trkpt lat="43.4580607" lon="11.4260687"><ele>336.0</ele><time>2026-04-03T08:12:16.759Z</time></trkpt><trkpt lat="43.4578457" lon="11.4259695"><ele>336.0</ele><time>2026-04-03T08:12:17.758Z</time></trkpt><trkpt lat="43.4576163" lon="11.4258663"><ele>336.0</ele><time>2026-04-03T08:12:18.758Z</time></trkpt><trkpt lat="43.45737" lon="11.425761"><ele>336.0</ele><time>2026-04-03T08:12:19.759Z</time></trkpt><trkpt lat="43.4571322" lon="11.4256653"><ele>336.0</ele><time>2026-04-03T08:12:20.759Z</time></trkpt><trkpt lat="43.4569068" lon="11.425599"><ele>338.0</ele><time>2026-04-03T08:12:21.758Z</time></trkpt><trkpt lat="43.4567014" lon="11.4255611"><ele>340.0</ele><time>2026-04-03T08:12:22.758Z</time></trkpt><trkpt lat="43.4565235" lon="11.4255288"><ele>342.0</ele><time>2026-04-03T08:12:23.759Z</time></trkpt><trkpt lat="43.4563657" lon="11.4255049"><ele>340.3333333333333</ele><time>2026-04-03T08:12:24.758Z</time></trkpt><trkpt lat="43.456232" lon="11.4254528"><ele>338.66666666666663</ele><time>2026-04-03T08:12:25.759Z</time></trkpt><trkpt lat="43.4560995" lon="11.4253514"><ele>337.0</ele><time>2026-04-03T08:12:26.758Z</time></trkpt><trkpt lat="43.4559392" lon="11.4252013"><ele>337.0</ele><time>2026-04-03T08:12:27.758Z</time></trkpt><trkpt lat="43.4557526" lon="11.4250269"><ele>337.0</ele><time>2026-04-03T08:12:28.759Z</time></trkpt><trkpt lat="43.4555608" lon="11.4248229"><ele>335.0</ele><time>2026-04-03T08:12:29.759Z</time></trkpt><trkpt lat="43.4553752" lon="11.4246238"><ele>333.0</ele><time>2026-04-03T08:12:30.759Z</time></trkpt><trkpt lat="43.4552008" lon="11.4244483"><ele>333.0</ele><time>2026-04-03T08:12:31.759Z</time></trkpt><trkpt lat="43.4550347" lon="11.4242837"><ele>333.0</ele><time>2026-04-03T08:12:32.758Z</time></trkpt><trkpt lat="43.4548765" lon="11.4241255"><ele>333.0</ele><time>2026-04-03T08:12:33.759Z</time></trkpt><trkpt lat="43.454732" lon="11.4239702"><ele>332.3333333333333</ele><time>2026-04-03T08:12:34.758Z</time></trkpt><trkpt lat="43.4545944" lon="11.4238344"><ele>331.66666666666663</ele><time>2026-04-03T08:12:35.759Z</time></trkpt><trkpt lat="43.4544598" lon="11.4237068"><ele>331.0</ele><time>2026-04-03T08:12:36.759Z</time></trkpt><trkpt lat="43.4543301" lon="11.4235568"><ele>331.0</ele><time>2026-04-03T08:12:37.759Z</time></trkpt><trkpt lat="43.4542015" lon="11.4233761"><ele>331.0</ele><time>2026-04-03T08:12:38.758Z</time></trkpt><trkpt lat="43.4540678" lon="11.4231498"><ele>331.0</ele><time>2026-04-03T08:12:39.758Z</time></trkpt><trkpt lat="43.453915" lon="11.4229089"><ele>329.0</ele><time>2026-04-03T08:12:40.757Z</time></trkpt><trkpt lat="43.4537708" lon="11.4226846"><ele>327.0</ele><time>2026-04-03T08:12:41.757Z</time></trkpt><trkpt lat="43.4536393" lon="11.4224805"><ele>325.0</ele><time>2026-04-03T08:12:42.758Z</time></trkpt><trkpt lat="43.453518" lon="11.4222905"><ele>327.3333333333333</ele><time>2026-04-03T08:12:43.757Z</time></trkpt><trkpt lat="43.4534044" lon="11.4221182"><ele>329.6666666666667</ele><time>2026-04-03T08:12:44.758Z</time></trkpt><trkpt lat="43.4533016" lon="11.4219528"><ele>332.0</ele><time>2026-04-03T08:12:45.758Z</time></trkpt><trkpt lat="43.453201" lon="11.4218037"><ele>332.0</ele><time>2026-04-03T08:12:46.758Z</time></trkpt><trkpt lat="43.4531067" lon="11.4216628"><ele>332.0</ele><time>2026-04-03T08:12:47.758Z</time></trkpt><trkpt lat="43.4530103" lon="11.4215538"><ele>332.0</ele><time>2026-04-03T08:12:48.758Z</time></trkpt><trkpt lat="43.4528944" lon="11.421454"><ele>332.0</ele><time>2026-04-03T08:12:49.757Z</time></trkpt><trkpt lat="43.4527661" lon="11.4213657"><ele>333.0</ele><time>2026-04-03T08:12:50.757Z</time></trkpt><trkpt lat="43.4526286" lon="11.4212543"><ele>334.0</ele><time>2026-04-03T08:12:51.758Z</time></trkpt><trkpt lat="43.4524884" lon="11.4210905"><ele>335.0</ele><time>2026-04-03T08:12:52.758Z</time></trkpt><trkpt lat="43.4523394" lon="11.4208989"><ele>335.0</ele><time>2026-04-03T08:12:53.758Z</time></trkpt><trkpt lat="43.4522019" lon="11.4206934"><ele>335.0</ele><time>2026-04-03T08:12:54.757Z</time></trkpt><trkpt lat="43.4520762" lon="11.4204855"><ele>335.0</ele><time>2026-04-03T08:12:55.758Z</time></trkpt><trkpt lat="43.4519586" lon="11.4203041"><ele>333.6666666666667</ele><time>2026-04-03T08:12:56.758Z</time></trkpt><trkpt lat="43.4518475" lon="11.420139"><ele>332.3333333333333</ele><time>2026-04-03T08:12:57.758Z</time></trkpt><trkpt lat="43.4517499" lon="11.4199767"><ele>331.0</ele><time>2026-04-03T08:12:58.758Z</time></trkpt><trkpt lat="43.4516583" lon="11.4198297"><ele>331.0</ele><time>2026-04-03T08:12:59.757Z</time></trkpt><trkpt lat="43.4515604" lon="11.4196964"><ele>331.0</ele><time>2026-04-03T08:13:00.757Z</time></trkpt><trkpt lat="43.4514483" lon="11.4195625"><ele>331.0</ele><time>2026-04-03T08:13:01.757Z</time></trkpt><trkpt lat="43.4513224" lon="11.4194484"><ele>331.0</ele><time>2026-04-03T08:13:02.758Z</time></trkpt><trkpt lat="43.4512085" lon="11.4193498"><ele>329.75</ele><time>2026-04-03T08:13:03.757Z</time></trkpt><trkpt lat="43.4511005" lon="11.4192637"><ele>328.5</ele><time>2026-04-03T08:13:04.758Z</time></trkpt><trkpt lat="43.4509904" lon="11.4192026"><ele>327.25</ele><time>2026-04-03T08:13:05.757Z</time></trkpt><trkpt lat="43.4508717" lon="11.4191538"><ele>326.0</ele><time>2026-04-03T08:13:06.758Z</time></trkpt><trkpt lat="43.4507552" lon="11.4191182"><ele>326.0</ele><time>2026-04-03T08:13:07.757Z</time></trkpt><trkpt lat="43.450643" lon="11.4190952"><ele>326.0</ele><time>2026-04-03T08:13:08.758Z</time></trkpt><trkpt lat="43.4504904" lon="11.4190595"><ele>326.0</ele><time>2026-04-03T08:13:09.757Z</time></trkpt><trkpt lat="43.4502988" lon="11.4190144"><ele>325.33333333333337</ele><time>2026-04-03T08:13:10.758Z</time></trkpt><trkpt lat="43.4500883" lon="11.4189619"><ele>324.6666666666667</ele><time>2026-04-03T08:13:11.757Z</time></trkpt><trkpt lat="43.4498943" lon="11.4188926"><ele>324.0</ele><time>2026-04-03T08:13:12.758Z</time></trkpt><trkpt lat="43.4497249" lon="11.4188158"><ele>326.3333333333333</ele><time>2026-04-03T08:13:13.757Z</time></trkpt><trkpt lat="43.4495531" lon="11.4187374"><ele>328.66666666666663</ele><time>2026-04-03T08:13:14.758Z</time></trkpt><trkpt lat="43.4493843" lon="11.418666"><ele>331.0</ele><time>2026-04-03T08:13:15.757Z</time></trkpt><trkpt lat="43.4492043" lon="11.4186108"><ele>331.0</ele><time>2026-04-03T08:13:16.758Z</time></trkpt><trkpt lat="43.4490193" lon="11.4185747"><ele>331.0</ele><time>2026-04-03T08:13:17.758Z</time></trkpt><trkpt lat="43.448829" lon="11.4185515"><ele>331.0</ele><time>2026-04-03T08:13:18.758Z</time></trkpt><trkpt lat="43.4486449" lon="11.4185278"><ele>331.0</ele><time>2026-04-03T08:13:19.758Z</time></trkpt><trkpt lat="43.4484889" lon="11.4184939"><ele>331.0</ele><time>2026-04-03T08:13:20.758Z</time></trkpt><trkpt lat="43.4483463" lon="11.4184328"><ele>331.0</ele><time>2026-04-03T08:13:21.758Z</time></trkpt><trkpt lat="43.4482128" lon="11.4183461"><ele>331.0</ele><time>2026-04-03T08:13:22.758Z</time></trkpt><trkpt lat="43.4480872" lon="11.4182413"><ele>331.0</ele><time>2026-04-03T08:13:23.757Z</time></trkpt><trkpt lat="43.4479658" lon="11.4181196"><ele>331.0</ele><time>2026-04-03T08:13:24.758Z</time></trkpt><trkpt lat="43.4478502" lon="11.4180117"><ele>331.0</ele><time>2026-04-03T08:13:25.757Z</time></trkpt><trkpt lat="43.4477313" lon="11.4179173"><ele>333.3333333333333</ele><time>2026-04-03T08:13:26.757Z</time></trkpt><trkpt lat="43.4476072" lon="11.4178331"><ele>335.6666666666667</ele><time>2026-04-03T08:13:27.757Z</time></trkpt><trkpt lat="43.4474531" lon="11.4178026"><ele>338.0</ele><time>2026-04-03T08:13:28.758Z</time></trkpt><trkpt lat="43.4472645" lon="11.4177572"><ele>338.6666666666667</ele><time>2026-04-03T08:13:29.757Z</time></trkpt><trkpt lat="43.447057" lon="11.4177065"><ele>339.3333333333333</ele><time>2026-04-03T08:13:30.758Z</time></trkpt><trkpt lat="43.4468757" lon="11.4176494"><ele>340.0</ele><time>2026-04-03T08:13:31.757Z</time></trkpt><trkpt lat="43.4467145" lon="11.4176019"><ele>340.0</ele><time>2026-04-03T08:13:32.758Z</time></trkpt><trkpt lat="43.4465707" lon="11.4175539"><ele>340.0</ele><time>2026-04-03T08:13:33.757Z</time></trkpt><trkpt lat="43.4464336" lon="11.4175143"><ele>340.0</ele><time>2026-04-03T08:13:34.757Z</time></trkpt><trkpt lat="43.4463192" lon="11.4174889"><ele>340.0</ele><time>2026-04-03T08:13:35.758Z</time></trkpt><trkpt lat="43.446224" lon="11.4174972"><ele>343.0</ele><time>2026-04-03T08:13:36.758Z</time></trkpt><trkpt lat="43.4461216" lon="11.4175388"><ele>346.0</ele><time>2026-04-03T08:13:37.758Z</time></trkpt><trkpt lat="43.4460226" lon="11.4175915"><ele>349.0</ele><time>2026-04-03T08:13:38.757Z</time></trkpt><trkpt lat="43.4459247" lon="11.417686"><ele>352.0</ele><time>2026-04-03T08:13:39.758Z</time></trkpt><trkpt lat="43.445845" lon="11.4178322"><ele>349.5</ele><time>2026-04-03T08:13:40.758Z</time></trkpt><trkpt lat="43.445794" lon="11.4180038"><ele>347.0</ele><time>2026-04-03T08:13:41.758Z</time></trkpt><trkpt lat="43.445751" lon="11.4181901"><ele>344.5</ele><time>2026-04-03T08:13:42.758Z</time></trkpt><trkpt lat="43.4457045" lon="11.4183742"><ele>342.0</ele><time>2026-04-03T08:13:43.757Z</time></trkpt><trkpt lat="43.4456721" lon="11.4185532"><ele>342.0</ele><time>2026-04-03T08:13:44.758Z</time></trkpt><trkpt lat="43.4456549" lon="11.4187331"><ele>342.0</ele><time>2026-04-03T08:13:45.757Z</time></trkpt><trkpt lat="43.4456414" lon="11.4189181"><ele>342.0</ele><time>2026-04-03T08:13:46.758Z</time></trkpt><trkpt lat="43.4456401" lon="11.4191002"><ele>342.0</ele><time>2026-04-03T08:13:47.758Z</time></trkpt><trkpt lat="43.4456427" lon="11.4192702"><ele>341.25</ele><time>2026-04-03T08:13:48.757Z</time></trkpt><trkpt lat="43.4456329" lon="11.4194251"><ele>340.5</ele><time>2026-04-03T08:13:49.757Z</time></trkpt><trkpt lat="43.4455912" lon="11.4195694"><ele>339.75</ele><time>2026-04-03T08:13:50.758Z</time></trkpt><trkpt lat="43.445514" lon="11.419692"><ele>339.0</ele><time>2026-04-03T08:13:51.758Z</time></trkpt><trkpt lat="43.4453936" lon="11.4197795"><ele>339.0</ele><time>2026-04-03T08:13:52.757Z</time></trkpt><trkpt lat="43.4452474" lon="11.4198569"><ele>339.0</ele><time>2026-04-03T08:13:53.758Z</time></trkpt><trkpt lat="43.4450946" lon="11.4199318"><ele>339.0</ele><time>2026-04-03T08:13:54.757Z</time></trkpt><trkpt lat="43.4449662" lon="11.4200056"><ele>339.0</ele><time>2026-04-03T08:13:55.758Z</time></trkpt><trkpt lat="43.4448483" lon="11.4200785"><ele>339.0</ele><time>2026-04-03T08:13:56.758Z</time></trkpt><trkpt lat="43.4447253" lon="11.4201614"><ele>339.0</ele><time>2026-04-03T08:13:57.758Z</time></trkpt><trkpt lat="43.4446036" lon="11.4202776"><ele>339.0</ele><time>2026-04-03T08:13:58.758Z</time></trkpt><trkpt lat="43.4444966" lon="11.4204234"><ele>338.5</ele><time>2026-04-03T08:13:59.757Z</time></trkpt><trkpt lat="43.4444006" lon="11.4205701"><ele>338.0</ele><time>2026-04-03T08:14:00.758Z</time></trkpt><trkpt lat="43.4443007" lon="11.4207148"><ele>337.5</ele><time>2026-04-03T08:14:01.757Z</time></trkpt><trkpt lat="43.4441951" lon="11.420849"><ele>337.0</ele><time>2026-04-03T08:14:02.758Z</time></trkpt><trkpt lat="43.44406" lon="11.4209855"><ele>337.0</ele><time>2026-04-03T08:14:03.758Z</time></trkpt><trkpt lat="43.4438719" lon="11.4211331"><ele>337.0</ele><time>2026-04-03T08:14:04.757Z</time></trkpt><trkpt lat="43.4436509" lon="11.4212782"><ele>334.0</ele><time>2026-04-03T08:14:05.758Z</time></trkpt><trkpt lat="43.44345" lon="11.4213979"><ele>331.0</ele><time>2026-04-03T08:14:06.757Z</time></trkpt><trkpt lat="43.4432689" lon="11.4214971"><ele>328.0</ele><time>2026-04-03T08:14:07.758Z</time></trkpt><trkpt lat="43.4430675" lon="11.4215608"><ele>328.0</ele><time>2026-04-03T08:14:08.757Z</time></trkpt><trkpt lat="43.4428453" lon="11.4215727"><ele>328.0</ele><time>2026-04-03T08:14:09.758Z</time></trkpt><trkpt lat="43.4426101" lon="11.4215648"><ele>328.0</ele><time>2026-04-03T08:14:10.758Z</time></trkpt><trkpt lat="43.4423534" lon="11.4215414"><ele>328.0</ele><time>2026-04-03T08:14:11.757Z</time></trkpt><trkpt lat="43.4420854" lon="11.4215051"><ele>325.5</ele><time>2026-04-03T08:14:12.758Z</time></trkpt><trkpt lat="43.4418229" lon="11.4214667"><ele>323.0</ele><time>2026-04-03T08:14:13.758Z</time></trkpt><trkpt lat="43.4415774" lon="11.421432"><ele>323.0</ele><time>2026-04-03T08:14:14.758Z</time></trkpt><trkpt lat="43.4413647" lon="11.4213926"><ele>323.0</ele><time>2026-04-03T08:14:15.757Z</time></trkpt><trkpt lat="43.4411766" lon="11.4213354"><ele>323.0</ele><time>2026-04-03T08:14:16.758Z</time></trkpt><trkpt lat="43.4410079" lon="11.4212471"><ele>325.33333333333337</ele><time>2026-04-03T08:14:17.758Z</time></trkpt><trkpt lat="43.4408399" lon="11.4211311"><ele>327.6666666666667</ele><time>2026-04-03T08:14:18.757Z</time></trkpt><trkpt lat="43.4406719" lon="11.4209964"><ele>330.0</ele><time>2026-04-03T08:14:19.758Z</time></trkpt><trkpt lat="43.4405037" lon="11.420855"><ele>329.6666666666667</ele><time>2026-04-03T08:14:20.758Z</time></trkpt><trkpt lat="43.4403362" lon="11.4207159"><ele>329.33333333333337</ele><time>2026-04-03T08:14:21.757Z</time></trkpt><trkpt lat="43.4401665" lon="11.4205747"><ele>329.0</ele><time>2026-04-03T08:14:22.758Z</time></trkpt><trkpt lat="43.4399977" lon="11.4204287"><ele>329.0</ele><time>2026-04-03T08:14:23.758Z</time></trkpt><trkpt lat="43.4398299" lon="11.4202851"><ele>329.0</ele><time>2026-04-03T08:14:24.758Z</time></trkpt><trkpt lat="43.4396627" lon="11.4201436"><ele>329.0</ele><time>2026-04-03T08:14:25.758Z</time></trkpt><trkpt lat="43.4395043" lon="11.4200133"><ele>325.33333333333337</ele><time>2026-04-03T08:14:26.758Z</time></trkpt><trkpt lat="43.4393335" lon="11.4198988"><ele>321.6666666666667</ele><time>2026-04-03T08:14:27.758Z</time></trkpt><trkpt lat="43.4391543" lon="11.4198035"><ele>318.0</ele><time>2026-04-03T08:14:28.758Z</time></trkpt><trkpt lat="43.4389562" lon="11.4197256"><ele>314.5</ele><time>2026-04-03T08:14:29.757Z</time></trkpt><trkpt lat="43.4387436" lon="11.4196769"><ele>311.0</ele><time>2026-04-03T08:14:30.758Z</time></trkpt><trkpt lat="43.4385065" lon="11.4196366"><ele>319.5</ele><time>2026-04-03T08:14:31.757Z</time></trkpt><trkpt lat="43.4382527" lon="11.4196044"><ele>328.0</ele><time>2026-04-03T08:14:32.758Z</time></trkpt><trkpt lat="43.4379958" lon="11.4195715"><ele>325.5</ele><time>2026-04-03T08:14:33.758Z</time></trkpt><trkpt lat="43.4377325" lon="11.4195291"><ele>323.0</ele><time>2026-04-03T08:14:34.758Z</time></trkpt><trkpt lat="43.4374682" lon="11.4194738"><ele>323.0</ele><time>2026-04-03T08:14:35.758Z</time></trkpt><trkpt lat="43.4372025" lon="11.4194134"><ele>323.0</ele><time>2026-04-03T08:14:36.757Z</time></trkpt><trkpt lat="43.4369317" lon="11.4193579"><ele>321.5</ele><time>2026-04-03T08:14:37.758Z</time></trkpt><trkpt lat="43.4366648" lon="11.4193064"><ele>320.0</ele><time>2026-04-03T08:14:38.758Z</time></trkpt><trkpt lat="43.4363982" lon="11.4192618"><ele>318.0</ele><time>2026-04-03T08:14:39.757Z</time></trkpt><trkpt lat="43.4361369" lon="11.4192161"><ele>316.0</ele><time>2026-04-03T08:14:40.758Z</time></trkpt><trkpt lat="43.4358986" lon="11.4191723"><ele>316.0</ele><time>2026-04-03T08:14:41.758Z</time></trkpt><trkpt lat="43.435694" lon="11.4191337"><ele>316.0</ele><time>2026-04-03T08:14:42.758Z</time></trkpt><trkpt lat="43.435511" lon="11.4191193"><ele>316.0</ele><time>2026-04-03T08:14:43.758Z</time></trkpt><trkpt lat="43.4353553" lon="11.4191155"><ele>317.0</ele><time>2026-04-03T08:14:44.758Z</time></trkpt><trkpt lat="43.4351871" lon="11.4191722"><ele>318.0</ele><time>2026-04-03T08:14:45.758Z</time></trkpt><trkpt lat="43.4350053" lon="11.4192826"><ele>319.0</ele><time>2026-04-03T08:14:46.758Z</time></trkpt><trkpt lat="43.4348067" lon="11.4194475"><ele>317.5</ele><time>2026-04-03T08:14:47.758Z</time></trkpt><trkpt lat="43.4345935" lon="11.4196569"><ele>316.0</ele><time>2026-04-03T08:14:48.758Z</time></trkpt><trkpt lat="43.4343998" lon="11.4198774"><ele>316.0</ele><time>2026-04-03T08:14:49.758Z</time></trkpt><trkpt lat="43.4342228" lon="11.4200681"><ele>316.0</ele><time>2026-04-03T08:14:50.758Z</time></trkpt><trkpt lat="43.4340499" lon="11.4202562"><ele>316.0</ele><time>2026-04-03T08:14:51.758Z</time></trkpt><trkpt lat="43.4338995" lon="11.4204352"><ele>311.66666666666663</ele><time>2026-04-03T08:14:52.757Z</time></trkpt><trkpt lat="43.4337664" lon="11.4206003"><ele>307.3333333333333</ele><time>2026-04-03T08:14:53.758Z</time></trkpt><trkpt lat="43.4336516" lon="11.4207309"><ele>303.0</ele><time>2026-04-03T08:14:54.757Z</time></trkpt><trkpt lat="43.433543" lon="11.420826"><ele>303.0</ele><time>2026-04-03T08:14:55.757Z</time></trkpt><trkpt lat="43.4334457" lon="11.4208634"><ele>303.0</ele><time>2026-04-03T08:14:56.757Z</time></trkpt><trkpt lat="43.4333452" lon="11.420846"><ele>303.0</ele><time>2026-04-03T08:14:57.758Z</time></trkpt><trkpt lat="43.4332395" lon="11.420756"><ele>303.0</ele><time>2026-04-03T08:14:58.758Z</time></trkpt><trkpt lat="43.4331254" lon="11.4206017"><ele>302.3333333333333</ele><time>2026-04-03T08:14:59.758Z</time></trkpt><trkpt lat="43.433018" lon="11.4203696"><ele>301.66666666666663</ele><time>2026-04-03T08:15:00.758Z</time></trkpt><trkpt lat="43.4329056" lon="11.4200959"><ele>301.0</ele><time>2026-04-03T08:15:01.757Z</time></trkpt><trkpt lat="43.4327724" lon="11.4198141"><ele>302.5</ele><time>2026-04-03T08:15:02.758Z</time></trkpt><trkpt lat="43.4326357" lon="11.4195569"><ele>304.0</ele><time>2026-04-03T08:15:03.757Z</time></trkpt><trkpt lat="43.4324923" lon="11.4193243"><ele>304.0</ele><time>2026-04-03T08:15:04.757Z</time></trkpt><trkpt lat="43.43235" lon="11.4191082"><ele>304.0</ele><time>2026-04-03T08:15:05.758Z</time></trkpt><trkpt lat="43.4322191" lon="11.4189187"><ele>304.0</ele><time>2026-04-03T08:15:06.758Z</time></trkpt><trkpt lat="43.4320922" lon="11.4187358"><ele>302.3333333333333</ele><time>2026-04-03T08:15:07.757Z</time></trkpt><trkpt lat="43.4319641" lon="11.4185503"><ele>300.6666666666667</ele><time>2026-04-03T08:15:08.757Z</time></trkpt><trkpt lat="43.4318289" lon="11.4183545"><ele>299.0</ele><time>2026-04-03T08:15:09.758Z</time></trkpt><trkpt lat="43.4317022" lon="11.4181542"><ele>302.6666666666667</ele><time>2026-04-03T08:15:10.757Z</time></trkpt><trkpt lat="43.4315733" lon="11.4179682"><ele>306.3333333333333</ele><time>2026-04-03T08:15:11.758Z</time></trkpt><trkpt lat="43.4314501" lon="11.4177775"><ele>310.0</ele><time>2026-04-03T08:15:12.758Z</time></trkpt><trkpt lat="43.4313305" lon="11.417599"><ele>311.66666666666663</ele><time>2026-04-03T08:15:13.758Z</time></trkpt><trkpt lat="43.4312217" lon="11.4174318"><ele>313.3333333333333</ele><time>2026-04-03T08:15:14.758Z</time></trkpt><trkpt lat="43.4311218" lon="11.4172756"><ele>315.0</ele><time>2026-04-03T08:15:15.758Z</time></trkpt><trkpt lat="43.4310095" lon="11.4171468"><ele>315.0</ele><time>2026-04-03T08:15:16.757Z</time></trkpt><trkpt lat="43.430868" lon="11.4170293"><ele>315.0</ele><time>2026-04-03T08:15:17.758Z</time></trkpt><trkpt lat="43.4306994" lon="11.4169487"><ele>315.0</ele><time>2026-04-03T08:15:18.757Z</time></trkpt><trkpt lat="43.4305264" lon="11.4168916"><ele>313.3333333333333</ele><time>2026-04-03T08:15:19.758Z</time></trkpt><trkpt lat="43.4303637" lon="11.4168538"><ele>311.66666666666663</ele><time>2026-04-03T08:15:20.757Z</time></trkpt><trkpt lat="43.4302136" lon="11.4168409"><ele>310.0</ele><time>2026-04-03T08:15:21.757Z</time></trkpt><trkpt lat="43.4300795" lon="11.416829"><ele>310.0</ele><time>2026-04-03T08:15:22.758Z</time></trkpt><trkpt lat="43.4299605" lon="11.4168"><ele>310.0</ele><time>2026-04-03T08:15:23.758Z</time></trkpt><trkpt lat="43.4298548" lon="11.416743"><ele>310.0</ele><time>2026-04-03T08:15:24.758Z</time></trkpt><trkpt lat="43.4297572" lon="11.4166358"><ele>310.0</ele><time>2026-04-03T08:15:25.758Z</time></trkpt><trkpt lat="43.4296675" lon="11.4165117"><ele>307.25</ele><time>2026-04-03T08:15:26.758Z</time></trkpt><trkpt lat="43.4295903" lon="11.4163687"><ele>304.5</ele><time>2026-04-03T08:15:27.757Z</time></trkpt><trkpt lat="43.4295388" lon="11.416228"><ele>301.75</ele><time>2026-04-03T08:15:28.758Z</time></trkpt><trkpt lat="43.4295192" lon="11.4160753"><ele>299.0</ele><time>2026-04-03T08:15:29.758Z</time></trkpt><trkpt lat="43.4295248" lon="11.415908"><ele>298.75</ele><time>2026-04-03T08:15:30.758Z</time></trkpt><trkpt lat="43.4295636" lon="11.4157535"><ele>298.5</ele><time>2026-04-03T08:15:31.757Z</time></trkpt><trkpt lat="43.4296487" lon="11.4156166"><ele>298.25</ele><time>2026-04-03T08:15:32.757Z</time></trkpt><trkpt lat="43.4297691" lon="11.4154937"><ele>298.0</ele><time>2026-04-03T08:15:33.758Z</time></trkpt><trkpt lat="43.429897" lon="11.4153661"><ele>298.75</ele><time>2026-04-03T08:15:34.757Z</time></trkpt><trkpt lat="43.4300163" lon="11.4152651"><ele>299.5</ele><time>2026-04-03T08:15:35.757Z</time></trkpt><trkpt lat="43.4301239" lon="11.4151611"><ele>300.25</ele><time>2026-04-03T08:15:36.758Z</time></trkpt><trkpt lat="43.4302288" lon="11.4150524"><ele>301.0</ele><time>2026-04-03T08:15:37.758Z</time></trkpt><trkpt lat="43.4303235" lon="11.4149285"><ele>301.0</ele><time>2026-04-03T08:15:38.758Z</time></trkpt><trkpt lat="43.4304033" lon="11.4148147"><ele>301.0</ele><time>2026-04-03T08:15:39.757Z</time></trkpt><trkpt lat="43.4304703" lon="11.4147134"><ele>301.0</ele><time>2026-04-03T08:15:40.757Z</time></trkpt><trkpt lat="43.4305309" lon="11.4146338"><ele>301.0</ele><time>2026-04-03T08:15:41.758Z</time></trkpt><trkpt lat="43.4305854" lon="11.4145599"><ele>301.0</ele><time>2026-04-03T08:15:42.758Z</time></trkpt><trkpt lat="43.4306383" lon="11.4144832"><ele>301.3333333333333</ele><time>2026-04-03T08:15:43.757Z</time></trkpt><trkpt lat="43.4306975" lon="11.4144187"><ele>301.66666666666663</ele><time>2026-04-03T08:15:44.757Z</time></trkpt><trkpt lat="43.4307615" lon="11.4143613"><ele>302.0</ele><time>2026-04-03T08:15:45.758Z</time></trkpt><trkpt lat="43.4308312" lon="11.4143168"><ele>302.3333333333333</ele><time>2026-04-03T08:15:46.758Z</time></trkpt><trkpt lat="43.4309144" lon="11.4142912"><ele>302.6666666666667</ele><time>2026-04-03T08:15:47.757Z</time></trkpt><trkpt lat="43.431005" lon="11.4142629"><ele>303.0</ele><time>2026-04-03T08:15:48.757Z</time></trkpt><trkpt lat="43.4311101" lon="11.4142175"><ele>303.0</ele><time>2026-04-03T08:15:49.757Z</time></trkpt><trkpt lat="43.431234" lon="11.4141721"><ele>303.0</ele><time>2026-04-03T08:15:50.758Z</time></trkpt><trkpt lat="43.431373" lon="11.4141214"><ele>303.0</ele><time>2026-04-03T08:15:51.757Z</time></trkpt><trkpt lat="43.4315009" lon="11.4140577"><ele>303.0</ele><time>2026-04-03T08:15:52.758Z</time></trkpt><trkpt lat="43.4316126" lon="11.4139421"><ele>302.75</ele><time>2026-04-03T08:15:53.758Z</time></trkpt><trkpt lat="43.4317008" lon="11.413786"><ele>302.5</ele><time>2026-04-03T08:15:54.758Z</time></trkpt><trkpt lat="43.4317737" lon="11.4135989"><ele>302.25</ele><time>2026-04-03T08:15:55.757Z</time></trkpt><trkpt lat="43.4318232" lon="11.4134293"><ele>302.0</ele><time>2026-04-03T08:15:56.757Z</time></trkpt><trkpt lat="43.4318565" lon="11.4132723"><ele>302.0</ele><time>2026-04-03T08:15:57.758Z</time></trkpt><trkpt lat="43.4318666" lon="11.4131408"><ele>302.0</ele><time>2026-04-03T08:15:58.758Z</time></trkpt><trkpt lat="43.4318505" lon="11.4130161"><ele>302.0</ele><time>2026-04-03T08:15:59.758Z</time></trkpt><trkpt lat="43.4318132" lon="11.4129084"><ele>302.0</ele><time>2026-04-03T08:16:00.758Z</time></trkpt><trkpt lat="43.4317579" lon="11.4128121"><ele>302.0</ele><time>2026-04-03T08:16:01.758Z</time></trkpt><trkpt lat="43.4316905" lon="11.412723"><ele>302.33333333333337</ele><time>2026-04-03T08:16:02.758Z</time></trkpt><trkpt lat="43.4316226" lon="11.4126523"><ele>302.6666666666667</ele><time>2026-04-03T08:16:03.758Z</time></trkpt><trkpt lat="43.4315622" lon="11.4126074"><ele>303.0</ele><time>2026-04-03T08:16:04.758Z</time></trkpt><trkpt lat="43.4314693" lon="11.4125654"><ele>303.3333333333333</ele><time>2026-04-03T08:16:06.758Z</time></trkpt><trkpt lat="43.4315391" lon="11.4126292"><ele>303.66666666666663</ele><time>2026-04-03T08:16:17.757Z</time></trkpt><trkpt lat="43.4316255" lon="11.4126632"><ele>304.0</ele><time>2026-04-03T08:16:18.758Z</time></trkpt><trkpt lat="43.4317042" lon="11.4127517"><ele>304.0</ele><time>2026-04-03T08:16:19.757Z</time></trkpt><trkpt lat="43.4317821" lon="11.4128817"><ele>304.0</ele><time>2026-04-03T08:16:20.757Z</time></trkpt><trkpt lat="43.4318252" lon="11.4130448"><ele>304.0</ele><time>2026-04-03T08:16:21.758Z</time></trkpt><trkpt lat="43.4318439" lon="11.4132314"><ele>304.0</ele><time>2026-04-03T08:16:22.758Z</time></trkpt><trkpt lat="43.4318075" lon="11.4134235"><ele>303.3333333333333</ele><time>2026-04-03T08:16:23.758Z</time></trkpt><trkpt lat="43.431743" lon="11.4136443"><ele>302.6666666666667</ele><time>2026-04-03T08:16:24.758Z</time></trkpt><trkpt lat="43.4316597" lon="11.4138351"><ele>302.0</ele><time>2026-04-03T08:16:25.758Z</time></trkpt><trkpt lat="43.431561" lon="11.4139804"><ele>302.33333333333337</ele><time>2026-04-03T08:16:26.758Z</time></trkpt><trkpt lat="43.4314345" lon="11.4140794"><ele>302.6666666666667</ele><time>2026-04-03T08:16:27.758Z</time></trkpt><trkpt lat="43.4312627" lon="11.4141547"><ele>303.0</ele><time>2026-04-03T08:16:28.758Z</time></trkpt><trkpt lat="43.4310772" lon="11.4142099"><ele>303.0</ele><time>2026-04-03T08:16:29.757Z</time></trkpt><trkpt lat="43.4309063" lon="11.4142773"><ele>303.0</ele><time>2026-04-03T08:16:30.757Z</time></trkpt><trkpt lat="43.4307574" lon="11.4143638"><ele>303.0</ele><time>2026-04-03T08:16:31.758Z</time></trkpt><trkpt lat="43.4306059" lon="11.4145213"><ele>302.3333333333333</ele><time>2026-04-03T08:16:32.758Z</time></trkpt><trkpt lat="43.4304534" lon="11.4147352"><ele>301.66666666666663</ele><time>2026-04-03T08:16:33.757Z</time></trkpt><trkpt lat="43.4303017" lon="11.4149653"><ele>301.0</ele><time>2026-04-03T08:16:34.757Z</time></trkpt><trkpt lat="43.4301422" lon="11.4151349"><ele>301.0</ele><time>2026-04-03T08:16:35.758Z</time></trkpt><trkpt lat="43.4299818" lon="11.4152665"><ele>301.0</ele><time>2026-04-03T08:16:36.758Z</time></trkpt><trkpt lat="43.4298364" lon="11.4153939"><ele>301.0</ele><time>2026-04-03T08:16:37.757Z</time></trkpt><trkpt lat="43.4297111" lon="11.4155198"><ele>300.25</ele><time>2026-04-03T08:16:38.758Z</time></trkpt><trkpt lat="43.4296098" lon="11.4156479"><ele>299.5</ele><time>2026-04-03T08:16:39.757Z</time></trkpt><trkpt lat="43.4295319" lon="11.4157864"><ele>298.75</ele><time>2026-04-03T08:16:40.757Z</time></trkpt><trkpt lat="43.429491" lon="11.4159617"><ele>298.0</ele><time>2026-04-03T08:16:41.757Z</time></trkpt><trkpt lat="43.429502" lon="11.4161532"><ele>298.3333333333333</ele><time>2026-04-03T08:16:42.757Z</time></trkpt><trkpt lat="43.4295502" lon="11.4163384"><ele>298.6666666666667</ele><time>2026-04-03T08:16:43.757Z</time></trkpt><trkpt lat="43.4296492" lon="11.4165163"><ele>299.0</ele><time>2026-04-03T08:16:44.757Z</time></trkpt><trkpt lat="43.4297642" lon="11.4166798"><ele>301.75</ele><time>2026-04-03T08:16:45.758Z</time></trkpt><trkpt lat="43.4298913" lon="11.4167866"><ele>304.5</ele><time>2026-04-03T08:16:46.758Z</time></trkpt><trkpt lat="43.4300382" lon="11.4168314"><ele>307.25</ele><time>2026-04-03T08:16:47.758Z</time></trkpt><trkpt lat="43.4301756" lon="11.4168429"><ele>310.0</ele><time>2026-04-03T08:16:48.758Z</time></trkpt><trkpt lat="43.4303347" lon="11.416858"><ele>311.66666666666663</ele><time>2026-04-03T08:16:49.757Z</time></trkpt><trkpt lat="43.4305154" lon="11.4168999"><ele>313.3333333333333</ele><time>2026-04-03T08:16:50.757Z</time></trkpt><trkpt lat="43.4306956" lon="11.4169684"><ele>315.0</ele><time>2026-04-03T08:16:51.757Z</time></trkpt><trkpt lat="43.430856" lon="11.4170588"><ele>311.5</ele><time>2026-04-03T08:16:52.758Z</time></trkpt><trkpt lat="43.4309907" lon="11.4171647"><ele>308.0</ele><time>2026-04-03T08:16:53.758Z</time></trkpt><trkpt lat="43.4310957" lon="11.4172852"><ele>304.5</ele><time>2026-04-03T08:16:54.758Z</time></trkpt><trkpt lat="43.4311651" lon="11.4173862"><ele>301.0</ele><time>2026-04-03T08:16:55.758Z</time></trkpt><trkpt lat="43.431204" lon="11.4174871"><ele>301.0</ele><time>2026-04-03T08:16:56.757Z</time></trkpt><trkpt lat="43.4311946" lon="11.4176283"><ele>301.0</ele><time>2026-04-03T08:16:58.758Z</time></trkpt><trkpt lat="43.4310997" lon="11.417721"><ele>301.0</ele><time>2026-04-03T08:17:00.758Z</time></trkpt><trkpt lat="43.4309983" lon="11.4177728"><ele>301.0</ele><time>2026-04-03T08:17:01.758Z</time></trkpt><trkpt lat="43.4308715" lon="11.4178459"><ele>301.0</ele><time>2026-04-03T08:17:02.758Z</time></trkpt><trkpt lat="43.4307077" lon="11.4179637"><ele>301.0</ele><time>2026-04-03T08:17:03.757Z</time></trkpt><trkpt lat="43.4305242" lon="11.4181086"><ele>301.0</ele><time>2026-04-03T08:17:04.758Z</time></trkpt><trkpt lat="43.4303321" lon="11.4182562"><ele>301.3333333333333</ele><time>2026-04-03T08:17:05.757Z</time></trkpt><trkpt lat="43.4301492" lon="11.418393"><ele>301.6666666666667</ele><time>2026-04-03T08:17:06.758Z</time></trkpt><trkpt lat="43.4299871" lon="11.4185032"><ele>302.0</ele><time>2026-04-03T08:17:07.757Z</time></trkpt><trkpt lat="43.4298345" lon="11.4186127"><ele>302.0</ele><time>2026-04-03T08:17:08.757Z</time></trkpt><trkpt lat="43.4296885" lon="11.4187186"><ele>302.0</ele><time>2026-04-03T08:17:09.757Z</time></trkpt><trkpt lat="43.4295424" lon="11.4188201"><ele>302.0</ele><time>2026-04-03T08:17:10.757Z</time></trkpt><trkpt lat="43.4293932" lon="11.418914"><ele>304.6666666666667</ele><time>2026-04-03T08:17:11.758Z</time></trkpt><trkpt lat="43.4292277" lon="11.4189969"><ele>307.3333333333333</ele><time>2026-04-03T08:17:12.758Z</time></trkpt><trkpt lat="43.4290491" lon="11.4190583"><ele>310.0</ele><time>2026-04-03T08:17:13.758Z</time></trkpt><trkpt lat="43.4288783" lon="11.4190997"><ele>310.3333333333333</ele><time>2026-04-03T08:17:14.757Z</time></trkpt><trkpt lat="43.4287076" lon="11.4191455"><ele>310.6666666666667</ele><time>2026-04-03T08:17:15.758Z</time></trkpt><trkpt lat="43.4285492" lon="11.4192017"><ele>311.0</ele><time>2026-04-03T08:17:16.757Z</time></trkpt><trkpt lat="43.4283937" lon="11.4192771"><ele>311.0</ele><time>2026-04-03T08:17:17.757Z</time></trkpt><trkpt lat="43.4282494" lon="11.4193846"><ele>311.0</ele><time>2026-04-03T08:17:18.757Z</time></trkpt><trkpt lat="43.4281109" lon="11.4195193"><ele>311.0</ele><time>2026-04-03T08:17:19.758Z</time></trkpt><trkpt lat="43.4279853" lon="11.4196678"><ele>311.5</ele><time>2026-04-03T08:17:20.758Z</time></trkpt><trkpt lat="43.4278785" lon="11.4198142"><ele>312.0</ele><time>2026-04-03T08:17:21.758Z</time></trkpt><trkpt lat="43.427787" lon="11.4199639"><ele>312.5</ele><time>2026-04-03T08:17:22.758Z</time></trkpt><trkpt lat="43.4277247" lon="11.4201155"><ele>313.0</ele><time>2026-04-03T08:17:23.757Z</time></trkpt><trkpt lat="43.427706" lon="11.420279"><ele>313.0</ele><time>2026-04-03T08:17:24.757Z</time></trkpt><trkpt lat="43.427718" lon="11.4204808"><ele>313.0</ele><time>2026-04-03T08:17:25.758Z</time></trkpt><trkpt lat="43.4277647" lon="11.4207151"><ele>313.0</ele><time>2026-04-03T08:17:26.757Z</time></trkpt><trkpt lat="43.4278042" lon="11.42098"><ele>312.3333333333333</ele><time>2026-04-03T08:17:27.758Z</time></trkpt><trkpt lat="43.4278284" lon="11.4212221"><ele>311.6666666666667</ele><time>2026-04-03T08:17:28.757Z</time></trkpt><trkpt lat="43.4278302" lon="11.4214459"><ele>311.0</ele><time>2026-04-03T08:17:29.758Z</time></trkpt><trkpt lat="43.4278105" lon="11.4216889"><ele>310.6666666666667</ele><time>2026-04-03T08:17:30.758Z</time></trkpt><trkpt lat="43.4277741" lon="11.4219367"><ele>310.3333333333333</ele><time>2026-04-03T08:17:31.758Z</time></trkpt><trkpt lat="43.4277244" lon="11.422161"><ele>310.0</ele><time>2026-04-03T08:17:32.757Z</time></trkpt><trkpt lat="43.427662" lon="11.4223732"><ele>312.0</ele><time>2026-04-03T08:17:33.758Z</time></trkpt><trkpt lat="43.4275767" lon="11.422542"><ele>314.0</ele><time>2026-04-03T08:17:34.758Z</time></trkpt><trkpt lat="43.4274781" lon="11.4226448"><ele>316.0</ele><time>2026-04-03T08:17:35.758Z</time></trkpt><trkpt lat="43.4273464" lon="11.4227113"><ele>318.0</ele><time>2026-04-03T08:17:36.758Z</time></trkpt><trkpt lat="43.4271793" lon="11.4227473"><ele>316.6666666666667</ele><time>2026-04-03T08:17:37.758Z</time></trkpt><trkpt lat="43.426981" lon="11.422787"><ele>315.33333333333337</ele><time>2026-04-03T08:17:38.757Z</time></trkpt><trkpt lat="43.4267708" lon="11.4228315"><ele>314.0</ele><time>2026-04-03T08:17:39.758Z</time></trkpt><trkpt lat="43.4265882" lon="11.4228781"><ele>314.0</ele><time>2026-04-03T08:17:40.757Z</time></trkpt><trkpt lat="43.4264325" lon="11.4229301"><ele>314.0</ele><time>2026-04-03T08:17:41.757Z</time></trkpt><trkpt lat="43.4262993" lon="11.4229941"><ele>314.0</ele><time>2026-04-03T08:17:42.757Z</time></trkpt><trkpt lat="43.4262031" lon="11.4230866"><ele>314.0</ele><time>2026-04-03T08:17:43.758Z</time></trkpt><trkpt lat="43.4261502" lon="11.4232306"><ele>314.25</ele><time>2026-04-03T08:17:44.758Z</time></trkpt><trkpt lat="43.4261455" lon="11.4234147"><ele>314.5</ele><time>2026-04-03T08:17:45.757Z</time></trkpt><trkpt lat="43.4261758" lon="11.4236253"><ele>314.75</ele><time>2026-04-03T08:17:46.758Z</time></trkpt><trkpt lat="43.4262319" lon="11.4238206"><ele>315.0</ele><time>2026-04-03T08:17:47.758Z</time></trkpt><trkpt lat="43.4262813" lon="11.4240448"><ele>319.6666666666667</ele><time>2026-04-03T08:17:48.757Z</time></trkpt><trkpt lat="43.4263259" lon="11.4242983"><ele>324.33333333333337</ele><time>2026-04-03T08:17:49.758Z</time></trkpt><trkpt lat="43.4263859" lon="11.424565"><ele>329.0</ele><time>2026-04-03T08:17:50.758Z</time></trkpt><trkpt lat="43.4264412" lon="11.4248119"><ele>329.0</ele><time>2026-04-03T08:17:51.758Z</time></trkpt><trkpt lat="43.4264921" lon="11.4250506"><ele>329.0</ele><time>2026-04-03T08:17:52.757Z</time></trkpt><trkpt lat="43.4265289" lon="11.4252746"><ele>329.0</ele><time>2026-04-03T08:17:53.757Z</time></trkpt><trkpt lat="43.4265412" lon="11.4255181"><ele>329.33333333333337</ele><time>2026-04-03T08:17:54.758Z</time></trkpt><trkpt lat="43.426534" lon="11.425775"><ele>329.6666666666667</ele><time>2026-04-03T08:17:55.758Z</time></trkpt><trkpt lat="43.4265157" lon="11.4260187"><ele>330.0</ele><time>2026-04-03T08:17:56.757Z</time></trkpt><trkpt lat="43.4264817" lon="11.4262635"><ele>330.3333333333333</ele><time>2026-04-03T08:17:57.758Z</time></trkpt><trkpt lat="43.4264361" lon="11.4264927"><ele>330.66666666666663</ele><time>2026-04-03T08:17:58.757Z</time></trkpt><trkpt lat="43.4263726" lon="11.426714"><ele>331.0</ele><time>2026-04-03T08:17:59.758Z</time></trkpt><trkpt lat="43.4262965" lon="11.4269248"><ele>331.0</ele><time>2026-04-03T08:18:00.758Z</time></trkpt><trkpt lat="43.4262021" lon="11.4270946"><ele>331.0</ele><time>2026-04-03T08:18:01.757Z</time></trkpt><trkpt lat="43.4260893" lon="11.427248"><ele>331.0</ele><time>2026-04-03T08:18:02.758Z</time></trkpt><trkpt lat="43.425989" lon="11.4274017"><ele>330.25</ele><time>2026-04-03T08:18:03.758Z</time></trkpt><trkpt lat="43.4259226" lon="11.4275592"><ele>329.5</ele><time>2026-04-03T08:18:04.758Z</time></trkpt><trkpt lat="43.4258946" lon="11.4277351"><ele>328.75</ele><time>2026-04-03T08:18:05.758Z</time></trkpt><trkpt lat="43.425901" lon="11.4279491"><ele>328.0</ele><time>2026-04-03T08:18:06.757Z</time></trkpt><trkpt lat="43.4259094" lon="11.4282046"><ele>328.0</ele><time>2026-04-03T08:18:07.757Z</time></trkpt><trkpt lat="43.4259233" lon="11.4284765"><ele>328.0</ele><time>2026-04-03T08:18:08.757Z</time></trkpt><trkpt lat="43.4259256" lon="11.4287541"><ele>328.0</ele><time>2026-04-03T08:18:09.758Z</time></trkpt><trkpt lat="43.4259247" lon="11.4290446"><ele>329.3333333333333</ele><time>2026-04-03T08:18:10.757Z</time></trkpt><trkpt lat="43.4259181" lon="11.4293301"><ele>330.6666666666667</ele><time>2026-04-03T08:18:11.757Z</time></trkpt><trkpt lat="43.4259226" lon="11.4295886"><ele>332.0</ele><time>2026-04-03T08:18:12.758Z</time></trkpt><trkpt lat="43.4259194" lon="11.4298158"><ele>332.0</ele><time>2026-04-03T08:18:13.758Z</time></trkpt><trkpt lat="43.4259127" lon="11.4300327"><ele>332.0</ele><time>2026-04-03T08:18:14.757Z</time></trkpt><trkpt lat="43.4258967" lon="11.4302534"><ele>332.0</ele><time>2026-04-03T08:18:15.757Z</time></trkpt><trkpt lat="43.4258673" lon="11.4304744"><ele>332.6666666666667</ele><time>2026-04-03T08:18:16.757Z</time></trkpt><trkpt lat="43.4258099" lon="11.4307029"><ele>333.3333333333333</ele><time>2026-04-03T08:18:17.757Z</time></trkpt><trkpt lat="43.4257314" lon="11.4309479"><ele>334.0</ele><time>2026-04-03T08:18:18.757Z</time></trkpt><trkpt lat="43.4256462" lon="11.4311785"><ele>335.5</ele><time>2026-04-03T08:18:19.756Z</time></trkpt><trkpt lat="43.4255713" lon="11.4313968"><ele>337.0</ele><time>2026-04-03T08:18:20.757Z</time></trkpt><trkpt lat="43.4255081" lon="11.4315806"><ele>338.5</ele><time>2026-04-03T08:18:21.757Z</time></trkpt><trkpt lat="43.4254534" lon="11.4317361"><ele>340.0</ele><time>2026-04-03T08:18:22.756Z</time></trkpt><trkpt lat="43.4254031" lon="11.4318799"><ele>340.0</ele><time>2026-04-03T08:18:23.757Z</time></trkpt><trkpt lat="43.4253597" lon="11.4320002"><ele>340.0</ele><time>2026-04-03T08:18:24.757Z</time></trkpt><trkpt lat="43.4253109" lon="11.4321088"><ele>340.0</ele><time>2026-04-03T08:18:25.757Z</time></trkpt><trkpt lat="43.4252425" lon="11.4321947"><ele>340.0</ele><time>2026-04-03T08:18:26.757Z</time></trkpt><trkpt lat="43.4251554" lon="11.4322325"><ele>340.0</ele><time>2026-04-03T08:18:27.757Z</time></trkpt><trkpt lat="43.4250688" lon="11.4322823"><ele>340.0</ele><time>2026-04-03T08:18:28.757Z</time></trkpt><trkpt lat="43.4249903" lon="11.4323489"><ele>340.0</ele><time>2026-04-03T08:18:29.757Z</time></trkpt><trkpt lat="43.4249347" lon="11.4324707"><ele>340.0</ele><time>2026-04-03T08:18:30.756Z</time></trkpt><trkpt lat="43.4248691" lon="11.4326422"><ele>340.0</ele><time>2026-04-03T08:18:31.757Z</time></trkpt><trkpt lat="43.4247781" lon="11.4328453"><ele>339.0</ele><time>2026-04-03T08:18:32.756Z</time></trkpt><trkpt lat="43.424691" lon="11.4330765"><ele>338.0</ele><time>2026-04-03T08:18:33.756Z</time></trkpt><trkpt lat="43.4246032" lon="11.4333189"><ele>337.0</ele><time>2026-04-03T08:18:34.757Z</time></trkpt><trkpt lat="43.4245164" lon="11.4335649"><ele>341.66666666666663</ele><time>2026-04-03T08:18:35.756Z</time></trkpt><trkpt lat="43.424442" lon="11.4337949"><ele>346.3333333333333</ele><time>2026-04-03T08:18:36.757Z</time></trkpt><trkpt lat="43.4243872" lon="11.4340139"><ele>351.0</ele><time>2026-04-03T08:18:37.757Z</time></trkpt><trkpt lat="43.4243649" lon="11.4342224"><ele>351.0</ele><time>2026-04-03T08:18:38.757Z</time></trkpt><trkpt lat="43.424354" lon="11.4344232"><ele>351.0</ele><time>2026-04-03T08:18:39.757Z</time></trkpt><trkpt lat="43.4243679" lon="11.4346038"><ele>351.0</ele><time>2026-04-03T08:18:40.756Z</time></trkpt><trkpt lat="43.4244078" lon="11.4347734"><ele>351.0</ele><time>2026-04-03T08:18:41.757Z</time></trkpt><trkpt lat="43.4244976" lon="11.4349166"><ele>350.3333333333333</ele><time>2026-04-03T08:18:42.756Z</time></trkpt><trkpt lat="43.4246223" lon="11.4350519"><ele>349.66666666666663</ele><time>2026-04-03T08:18:43.756Z</time></trkpt><trkpt lat="43.4247749" lon="11.4351593"><ele>349.0</ele><time>2026-04-03T08:18:44.757Z</time></trkpt><trkpt lat="43.4249483" lon="11.4352745"><ele>349.75</ele><time>2026-04-03T08:18:45.756Z</time></trkpt><trkpt lat="43.4250965" lon="11.4353866"><ele>350.5</ele><time>2026-04-03T08:18:46.756Z</time></trkpt><trkpt lat="43.4252084" lon="11.4354882"><ele>351.25</ele><time>2026-04-03T08:18:47.757Z</time></trkpt><trkpt lat="43.4252851" lon="11.4355974"><ele>352.0</ele><time>2026-04-03T08:18:48.757Z</time></trkpt><trkpt lat="43.4253141" lon="11.4357241"><ele>352.0</ele><time>2026-04-03T08:18:49.757Z</time></trkpt><trkpt lat="43.4253045" lon="11.4358561"><ele>352.0</ele><time>2026-04-03T08:18:50.757Z</time></trkpt><trkpt lat="43.4252426" lon="11.4360042"><ele>352.0</ele><time>2026-04-03T08:18:51.757Z</time></trkpt><trkpt lat="43.4251577" lon="11.4361431"><ele>352.0</ele><time>2026-04-03T08:18:52.757Z</time></trkpt><trkpt lat="43.4250493" lon="11.4363121"><ele>353.0</ele><time>2026-04-03T08:18:53.757Z</time></trkpt><trkpt lat="43.4249704" lon="11.4365071"><ele>354.0</ele><time>2026-04-03T08:18:54.757Z</time></trkpt><trkpt lat="43.4249312" lon="11.4367589"><ele>355.0</ele><time>2026-04-03T08:18:55.757Z</time></trkpt><trkpt lat="43.4249002" lon="11.4370408"><ele>355.0</ele><time>2026-04-03T08:18:56.757Z</time></trkpt><trkpt lat="43.424906" lon="11.4373378"><ele>355.0</ele><time>2026-04-03T08:18:57.757Z</time></trkpt><trkpt lat="43.4249272" lon="11.437608"><ele>355.0</ele><time>2026-04-03T08:18:58.756Z</time></trkpt><trkpt lat="43.4249679" lon="11.4378708"><ele>357.0</ele><time>2026-04-03T08:18:59.757Z</time></trkpt><trkpt lat="43.4250287" lon="11.4381275"><ele>359.0</ele><time>2026-04-03T08:19:00.757Z</time></trkpt><trkpt lat="43.425081" lon="11.4383746"><ele>361.0</ele><time>2026-04-03T08:19:01.757Z</time></trkpt><trkpt lat="43.425137" lon="11.4386135"><ele>362.75</ele><time>2026-04-03T08:19:02.756Z</time></trkpt><trkpt lat="43.4251946" lon="11.4388297"><ele>364.5</ele><time>2026-04-03T08:19:03.757Z</time></trkpt><trkpt lat="43.4252503" lon="11.4390227"><ele>366.25</ele><time>2026-04-03T08:19:04.757Z</time></trkpt><trkpt lat="43.4253067" lon="11.4391792"><ele>368.0</ele><time>2026-04-03T08:19:05.756Z</time></trkpt><trkpt lat="43.4253959" lon="11.439296"><ele>364.75</ele><time>2026-04-03T08:19:06.756Z</time></trkpt><trkpt lat="43.4255115" lon="11.4393554"><ele>361.5</ele><time>2026-04-03T08:19:07.757Z</time></trkpt><trkpt lat="43.4256424" lon="11.4393434"><ele>358.25</ele><time>2026-04-03T08:19:08.756Z</time></trkpt><trkpt lat="43.4257751" lon="11.4393469"><ele>355.0</ele><time>2026-04-03T08:19:09.756Z</time></trkpt><trkpt lat="43.4258947" lon="11.4394085"><ele>355.0</ele><time>2026-04-03T08:19:10.757Z</time></trkpt><trkpt lat="43.4259824" lon="11.4395077"><ele>355.0</ele><time>2026-04-03T08:19:11.757Z</time></trkpt><trkpt lat="43.4260423" lon="11.4396629"><ele>355.0</ele><time>2026-04-03T08:19:12.757Z</time></trkpt><trkpt lat="43.4260792" lon="11.4398782"><ele>355.0</ele><time>2026-04-03T08:19:13.757Z</time></trkpt><trkpt lat="43.4261066" lon="11.4401384"><ele>357.0</ele><time>2026-04-03T08:19:14.756Z</time></trkpt><trkpt lat="43.4261181" lon="11.4404157"><ele>359.0</ele><time>2026-04-03T08:19:15.756Z</time></trkpt><trkpt lat="43.4261309" lon="11.440672"><ele>361.0</ele><time>2026-04-03T08:19:16.757Z</time></trkpt><trkpt lat="43.4261484" lon="11.4409014"><ele>361.75</ele><time>2026-04-03T08:19:17.757Z</time></trkpt><trkpt lat="43.426147" lon="11.4410998"><ele>362.5</ele><time>2026-04-03T08:19:18.757Z</time></trkpt><trkpt lat="43.4261201" lon="11.4412577"><ele>363.25</ele><time>2026-04-03T08:19:19.757Z</time></trkpt><trkpt lat="43.4260615" lon="11.4413908"><ele>364.0</ele><time>2026-04-03T08:19:20.757Z</time></trkpt><trkpt lat="43.4259778" lon="11.4415072"><ele>364.0</ele><time>2026-04-03T08:19:21.756Z</time></trkpt><trkpt lat="43.4258397" lon="11.4415918"><ele>364.0</ele><time>2026-04-03T08:19:22.757Z</time></trkpt><trkpt lat="43.4256592" lon="11.4416745"><ele>364.0</ele><time>2026-04-03T08:19:23.757Z</time></trkpt><trkpt lat="43.4254822" lon="11.4417622"><ele>365.66666666666663</ele><time>2026-04-03T08:19:24.757Z</time></trkpt><trkpt lat="43.4253308" lon="11.4418717"><ele>367.3333333333333</ele><time>2026-04-03T08:19:25.757Z</time></trkpt><trkpt lat="43.4251946" lon="11.4420304"><ele>369.0</ele><time>2026-04-03T08:19:26.757Z</time></trkpt><trkpt lat="43.4250819" lon="11.442236"><ele>369.0</ele><time>2026-04-03T08:19:27.757Z</time></trkpt><trkpt lat="43.4249846" lon="11.4424846"><ele>369.0</ele><time>2026-04-03T08:19:28.757Z</time></trkpt><trkpt lat="43.42491" lon="11.442758"><ele>369.0</ele><time>2026-04-03T08:19:29.756Z</time></trkpt><trkpt lat="43.4248641" lon="11.4430377"><ele>368.6666666666667</ele><time>2026-04-03T08:19:30.757Z</time></trkpt><trkpt lat="43.4248477" lon="11.4433144"><ele>368.33333333333337</ele><time>2026-04-03T08:19:31.757Z</time></trkpt><trkpt lat="43.424833" lon="11.4435559"><ele>368.0</ele><time>2026-04-03T08:19:32.757Z</time></trkpt><trkpt lat="43.4247788" lon="11.4437893"><ele>367.33333333333337</ele><time>2026-04-03T08:19:33.757Z</time></trkpt><trkpt lat="43.424708" lon="11.443978"><ele>366.6666666666667</ele><time>2026-04-03T08:19:34.757Z</time></trkpt><trkpt lat="43.4246024" lon="11.4441258"><ele>366.0</ele><time>2026-04-03T08:19:35.757Z</time></trkpt><trkpt lat="43.4244767" lon="11.4442853"><ele>355.0</ele><time>2026-04-03T08:19:36.757Z</time></trkpt><trkpt lat="43.4249002" lon="11.4370408"><ele>355.0</ele><time>2026-04-03T08:18:56.757Z</time></trkpt><trkpt lat="43.424906" lon="11.4373378"><ele>355.0</ele><time>2026-04-03T08:18:57.757Z</time></trkpt><trkpt lat="43.4249272" lon="11.437608"><ele>355.0</ele><time>2026-04-03T08:18:58.756Z</time></trkpt><trkpt lat="43.4249679" lon="11.4378708"><ele>357.0</ele><time>2026-04-03T08:18:59.757Z</time></trkpt><trkpt lat="43.4250287" lon="11.4381275"><ele>359.0</ele><time>2026-04-03T08:19:00.757Z</time></trkpt><trkpt lat="43.425081" lon="11.4383746"><ele>361.0</ele><time>2026-04-03T08:19:01.757Z</time></trkpt><trkpt lat="43.425137" lon="11.4386135"><ele>362.75</ele><time>2026-04-03T08:19:02.756Z</time></trkpt><trkpt lat="43.4251946" lon="11.4388297"><ele>364.5</ele><time>2026-04-03T08:19:03.757Z</time></trkpt><trkpt lat="43.4252503" lon="11.4390227"><ele>366.25</ele><time>2026-04-03T08:19:04.757Z</time></trkpt><trkpt lat="43.4253067" lon="11.4391792"><ele>368.0</ele><time>2026-04-03T08:19:05.756Z</time></trkpt><trkpt lat="43.4253959" lon="11.439296"><ele>364.75</ele><time>2026-04-03T08:19:06.756Z</time></trkpt><trkpt lat="43.4255115" lon="11.4393554"><ele>361.5</ele><time>2026-04-03T08:19:07.757Z</time></trkpt><trkpt lat="43.4256424" lon="11.4393434"><ele>358.25</ele><time>2026-04-03T08:19:08.756Z</time></trkpt><trkpt lat="43.4257751" lon="11.4393469"><ele>355.0</ele><time>2026-04-03T08:19:09.756Z</time></trkpt><trkpt lat="43.4258947" lon="11.4394085"><ele>355.0</ele><time>2026-04-03T08:19:10.757Z</time></trkpt><trkpt lat="43.4259824" lon="11.4395077"><ele>355.0</ele><time>2026-04-03T08:19:11.757Z</time></trkpt><trkpt lat="43.4260423" lon="11.4396629"><ele>355.0</ele><time>2026-04-03T08:19:12.757Z</time></trkpt><trkpt lat="43.4260792" lon="11.4398782"><ele>355.0</ele><time>2026-04-03T08:19:13.757Z</time></trkpt><trkpt lat="43.4261066" lon="11.4401384"><ele>357.0</ele><time>2026-04-03T08:19:14.756Z</time></trkpt><trkpt lat="43.4261181" lon="11.4404157"><ele>359.0</ele><time>2026-04-03T08:19:15.756Z</time></trkpt><trkpt lat="43.4261309" lon="11.440672"><ele>361.0</ele><time>2026-04-03T08:19:16.757Z</time></trkpt><trkpt lat="43.4261484" lon="11.4409014"><ele>361.75</ele><time>2026-04-03T08:19:17.757Z</time></trkpt><trkpt lat="43.426147" lon="11.4410998"><ele>362.5</ele><time>2026-04-03T08:19:18.757Z</time></trkpt><trkpt lat="43.4261201" lon="11.4412577"><ele>363.25</ele><time>2026-04-03T08:19:19.757Z</time></trkpt><trkpt lat="43.4260615" lon="11.4413908"><ele>364.0</ele><time>2026-04-03T08:19:20.757Z</time></trkpt><trkpt lat="43.4259778" lon="11.4415072"><ele>364.0</ele><time>2026-04-03T08:19:21.756Z</time></trkpt><trkpt lat="43.4258397" lon="11.4415918"><ele>364.0</ele><time>2026-04-03T08:19:22.757Z</time></trkpt><trkpt lat="43.4256592" lon="11.4416745"><ele>364.0</ele><time>2026-04-03T08:19:23.757Z</time></trkpt><trkpt lat="43.4254822" lon="11.4417622"><ele>365.66666666666663</ele><time>2026-04-03T08:19:24.757Z</time></trkpt><trkpt lat="43.4253308" lon="11.4418717"><ele>367.3333333333333</ele><time>2026-04-03T08:19:25.757Z</time></trkpt><trkpt lat="43.4251946" lon="11.4420304"><ele>369.0</ele><time>2026-04-03T08:19:26.757Z</time></trkpt><trkpt lat="43.4250819" lon="11.442236"><ele>369.0</ele><time>2026-04-03T08:19:27.757Z</time></trkpt><trkpt lat="43.4249846" lon="11.4424846"><ele>369.0</ele><time>2026-04-03T08:19:28.757Z</time></trkpt><trkpt lat="43.42491" lon="11.442758"><ele>369.0</ele><time>2026-04-03T08:19:29.756Z</time></trkpt><trkpt lat="43.4248641" lon="11.4430377"><ele>368.6666666666667</ele><time>2026-04-03T08:19:30.757Z</time></trkpt><trkpt lat="43.4248477" lon="11.4433144"><ele>368.33333333333337</ele><time>2026-04-03T08:19:31.757Z</time></trkpt><trkpt lat="43.424833" lon="11.4435559"><ele>368.0</ele><time>2026-04-03T08:19:32.757Z</time></trkpt><trkpt lat="43.4247788" lon="11.4437893"><ele>367.33333333333337</ele><time>2026-04-03T08:19:33.757Z</time></trkpt><trkpt lat="43.424708" lon="11.443978"><ele>366.6666666666667</ele><time>2026-04-03T08:19:34.757Z</time></trkpt><trkpt lat="43.4246024" lon="11.4441258"><ele>366.0</ele><time>2026-04-03T08:19:35.757Z</time></trkpt><trkpt lat="43.4244767" lon="11.4442853"><ele>370.6666666666667</ele><time>2026-04-03T08:19:36.757Z</time></trkpt><trkpt lat="43.424359" lon="11.4444854"><ele>375.33333333333337</ele><time>2026-04-03T08:19:37.756Z</time></trkpt><trkpt lat="43.4242406" lon="11.4447334"><ele>380.0</ele><time>2026-04-03T08:19:38.756Z</time></trkpt><trkpt lat="43.4241242" lon="11.4450027"><ele>380.0</ele><time>2026-04-03T08:19:39.756Z</time></trkpt><trkpt lat="43.4240191" lon="11.445236"><ele>380.0</ele><time>2026-04-03T08:19:40.757Z</time></trkpt><trkpt lat="43.4239404" lon="11.4454346"><ele>380.0</ele><time>2026-04-03T08:19:41.757Z</time></trkpt><trkpt lat="43.4238887" lon="11.4455965"><ele>380.0</ele><time>2026-04-03T08:19:42.756Z</time></trkpt><trkpt lat="43.42385" lon="11.4457463"><ele>380.0</ele><time>2026-04-03T08:19:43.757Z</time></trkpt><trkpt lat="43.4238535" lon="11.4458759"><ele>380.0</ele><time>2026-04-03T08:19:44.757Z</time></trkpt><trkpt lat="43.4239043" lon="11.4460054"><ele>380.0</ele><time>2026-04-03T08:19:45.756Z</time></trkpt><trkpt lat="43.4240039" lon="11.4461054"><ele>380.0</ele><time>2026-04-03T08:19:46.757Z</time></trkpt><trkpt lat="43.4241435" lon="11.4461724"><ele>380.0</ele><time>2026-04-03T08:19:47.757Z</time></trkpt><trkpt lat="43.4242688" lon="11.4462483"><ele>380.0</ele><time>2026-04-03T08:19:48.757Z</time></trkpt><trkpt lat="43.4243633" lon="11.4463631"><ele>380.0</ele><time>2026-04-03T08:19:49.757Z</time></trkpt><trkpt lat="43.4244257" lon="11.4465013"><ele>380.0</ele><time>2026-04-03T08:19:50.757Z</time></trkpt><trkpt lat="43.4244547" lon="11.446692"><ele>383.33333333333337</ele><time>2026-04-03T08:19:51.757Z</time></trkpt><trkpt lat="43.4244472" lon="11.4469041"><ele>386.6666666666667</ele><time>2026-04-03T08:19:52.757Z</time></trkpt><trkpt lat="43.4244093" lon="11.4471281"><ele>390.0</ele><time>2026-04-03T08:19:53.757Z</time></trkpt><trkpt lat="43.4243583" lon="11.4473279"><ele>391.33333333333337</ele><time>2026-04-03T08:19:54.757Z</time></trkpt><trkpt lat="43.4242783" lon="11.4475045"><ele>392.6666666666667</ele><time>2026-04-03T08:19:55.757Z</time></trkpt><trkpt lat="43.424166" lon="11.4476692"><ele>394.0</ele><time>2026-04-03T08:19:56.756Z</time></trkpt><trkpt lat="43.4240279" lon="11.4478062"><ele>393.5</ele><time>2026-04-03T08:19:57.756Z</time></trkpt><trkpt lat="43.4239091" lon="11.4479615"><ele>393.0</ele><time>2026-04-03T08:19:58.757Z</time></trkpt><trkpt lat="43.4238387" lon="11.4481323"><ele>392.5</ele><time>2026-04-03T08:19:59.756Z</time></trkpt><trkpt lat="43.4238077" lon="11.4483118"><ele>392.0</ele><time>2026-04-03T08:20:00.756Z</time></trkpt><trkpt lat="43.423835" lon="11.4484924"><ele>392.0</ele><time>2026-04-03T08:20:01.756Z</time></trkpt><trkpt lat="43.4238986" lon="11.4487042"><ele>392.0</ele><time>2026-04-03T08:20:02.757Z</time></trkpt><trkpt lat="43.4239551" lon="11.4489205"><ele>392.0</ele><time>2026-04-03T08:20:03.757Z</time></trkpt><trkpt lat="43.4239902" lon="11.4491231"><ele>392.0</ele><time>2026-04-03T08:20:04.757Z</time></trkpt><trkpt lat="43.4239794" lon="11.4493269"><ele>392.0</ele><time>2026-04-03T08:20:05.756Z</time></trkpt><trkpt lat="43.4239449" lon="11.4495413"><ele>392.0</ele><time>2026-04-03T08:20:06.757Z</time></trkpt><trkpt lat="43.4238842" lon="11.4497548"><ele>398.66666666666663</ele><time>2026-04-03T08:20:07.757Z</time></trkpt><trkpt lat="43.4237868" lon="11.4499539"><ele>405.33333333333337</ele><time>2026-04-03T08:20:08.757Z</time></trkpt><trkpt lat="43.4236599" lon="11.4501467"><ele>412.0</ele><time>2026-04-03T08:20:09.757Z</time></trkpt><trkpt lat="43.4235185" lon="11.4503537"><ele>407.0</ele><time>2026-04-03T08:20:10.757Z</time></trkpt><trkpt lat="43.4233762" lon="11.4505507"><ele>402.0</ele><time>2026-04-03T08:20:11.757Z</time></trkpt><trkpt lat="43.4232383" lon="11.4507147"><ele>397.0</ele><time>2026-04-03T08:20:12.757Z</time></trkpt><trkpt lat="43.4230989" lon="11.4508488"><ele>402.75</ele><time>2026-04-03T08:20:13.757Z</time></trkpt><trkpt lat="43.4229613" lon="11.4509741"><ele>408.5</ele><time>2026-04-03T08:20:14.756Z</time></trkpt><trkpt lat="43.4228375" lon="11.4510798"><ele>414.25</ele><time>2026-04-03T08:20:15.756Z</time></trkpt><trkpt lat="43.422715" lon="11.4511656"><ele>420.0</ele><time>2026-04-03T08:20:16.757Z</time></trkpt><trkpt lat="43.4225932" lon="11.451236"><ele>420.0</ele><time>2026-04-03T08:20:17.757Z</time></trkpt><trkpt lat="43.4224615" lon="11.4512882"><ele>420.0</ele><time>2026-04-03T08:20:18.756Z</time></trkpt><trkpt lat="43.4223324" lon="11.4513218"><ele>420.0</ele><time>2026-04-03T08:20:19.757Z</time></trkpt><trkpt lat="43.4222148" lon="11.4513295"><ele>420.0</ele><time>2026-04-03T08:20:20.757Z</time></trkpt><trkpt lat="43.4221018" lon="11.4513346"><ele>421.6</ele><time>2026-04-03T08:20:21.757Z</time></trkpt><trkpt lat="43.4219989" lon="11.4513456"><ele>423.2</ele><time>2026-04-03T08:20:22.756Z</time></trkpt><trkpt lat="43.4219112" lon="11.4513834"><ele>424.79999999999995</ele><time>2026-04-03T08:20:23.757Z</time></trkpt><trkpt lat="43.4218367" lon="11.451476"><ele>426.4</ele><time>2026-04-03T08:20:24.757Z</time></trkpt><trkpt lat="43.4217769" lon="11.4516187"><ele>428.0</ele><time>2026-04-03T08:20:25.757Z</time></trkpt><trkpt lat="43.4217629" lon="11.4517843"><ele>428.0</ele><time>2026-04-03T08:20:26.757Z</time></trkpt><trkpt lat="43.4217715" lon="11.4519635"><ele>427.99999999999994</ele><time>2026-04-03T08:20:27.757Z</time></trkpt><trkpt lat="43.4217652" lon="11.4521265"><ele>427.99999999999994</ele><time>2026-04-03T08:20:28.756Z</time></trkpt><trkpt lat="43.4217326" lon="11.4522556"><ele>428.0</ele><time>2026-04-03T08:20:29.757Z</time></trkpt><trkpt lat="43.4216917" lon="11.45238"><ele>428.0</ele><time>2026-04-03T08:20:30.757Z</time></trkpt><trkpt lat="43.4216459" lon="11.4525106"><ele>426.2</ele><time>2026-04-03T08:20:31.757Z</time></trkpt><trkpt lat="43.4215963" lon="11.4526421"><ele>424.4</ele><time>2026-04-03T08:20:32.756Z</time></trkpt><trkpt lat="43.4215654" lon="11.4527722"><ele>422.59999999999997</ele><time>2026-04-03T08:20:33.757Z</time></trkpt><trkpt lat="43.4215549" lon="11.452893"><ele>420.79999999999995</ele><time>2026-04-03T08:20:34.756Z</time></trkpt><trkpt lat="43.4215762" lon="11.4530141"><ele>419.0</ele><time>2026-04-03T08:20:35.757Z</time></trkpt><trkpt lat="43.4216243" lon="11.4531285"><ele>418.2</ele><time>2026-04-03T08:20:36.756Z</time></trkpt><trkpt lat="43.4216897" lon="11.4532382"><ele>417.4</ele><time>2026-04-03T08:20:37.757Z</time></trkpt><trkpt lat="43.421744" lon="11.453357"><ele>416.6</ele><time>2026-04-03T08:20:38.757Z</time></trkpt><trkpt lat="43.421794" lon="11.4534829"><ele>415.8</ele><time>2026-04-03T08:20:39.757Z</time></trkpt><trkpt lat="43.4218266" lon="11.4536281"><ele>415.0</ele><time>2026-04-03T08:20:40.757Z</time></trkpt><trkpt lat="43.4218194" lon="11.4537787"><ele>414.5</ele><time>2026-04-03T08:20:41.757Z</time></trkpt><trkpt lat="43.4217754" lon="11.4539312"><ele>414.0</ele><time>2026-04-03T08:20:42.757Z</time></trkpt><trkpt lat="43.4217108" lon="11.4540731"><ele>413.5</ele><time>2026-04-03T08:20:43.757Z</time></trkpt><trkpt lat="43.4216231" lon="11.4541872"><ele>413.0</ele><time>2026-04-03T08:20:44.757Z</time></trkpt><trkpt lat="43.4215147" lon="11.4542923"><ele>413.0</ele><time>2026-04-03T08:20:45.757Z</time></trkpt><trkpt lat="43.4213919" lon="11.4543884"><ele>413.0</ele><time>2026-04-03T08:20:46.757Z</time></trkpt><trkpt lat="43.4212718" lon="11.4544721"><ele>413.0</ele><time>2026-04-03T08:20:47.757Z</time></trkpt><trkpt lat="43.4211646" lon="11.4545497"><ele>413.0</ele><time>2026-04-03T08:20:48.757Z</time></trkpt><trkpt lat="43.4210651" lon="11.45465"><ele>416.0</ele><time>2026-04-03T08:20:49.757Z</time></trkpt><trkpt lat="43.42096" lon="11.4548094"><ele>419.0</ele><time>2026-04-03T08:20:50.756Z</time></trkpt><trkpt lat="43.4208672" lon="11.4549948"><ele>422.0</ele><time>2026-04-03T08:20:51.756Z</time></trkpt><trkpt lat="43.4207575" lon="11.4552135"><ele>422.0</ele><time>2026-04-03T08:20:52.757Z</time></trkpt><trkpt lat="43.4206247" lon="11.4554089"><ele>422.0</ele><time>2026-04-03T08:20:53.757Z</time></trkpt><trkpt lat="43.4204755" lon="11.4555912"><ele>422.0</ele><time>2026-04-03T08:20:54.756Z</time></trkpt><trkpt lat="43.4203291" lon="11.4557673"><ele>422.3333333333333</ele><time>2026-04-03T08:20:55.757Z</time></trkpt><trkpt lat="43.420199" lon="11.4559558"><ele>422.66666666666663</ele><time>2026-04-03T08:20:56.756Z</time></trkpt><trkpt lat="43.4200709" lon="11.4561465"><ele>423.0</ele><time>2026-04-03T08:20:57.757Z</time></trkpt><trkpt lat="43.4199463" lon="11.4563343"><ele>423.0</ele><time>2026-04-03T08:20:58.757Z</time></trkpt><trkpt lat="43.4198289" lon="11.4565039"><ele>423.0</ele><time>2026-04-03T08:20:59.756Z</time></trkpt><trkpt lat="43.4197137" lon="11.4566441"><ele>423.0</ele><time>2026-04-03T08:21:00.757Z</time></trkpt><trkpt lat="43.4195888" lon="11.4567526"><ele>426.25</ele><time>2026-04-03T08:21:01.756Z</time></trkpt><trkpt lat="43.4194506" lon="11.4568332"><ele>429.5</ele><time>2026-04-03T08:21:02.756Z</time></trkpt><trkpt lat="43.4193125" lon="11.4568641"><ele>432.75</ele><time>2026-04-03T08:21:03.757Z</time></trkpt><trkpt lat="43.419198" lon="11.4569103"><ele>436.0</ele><time>2026-04-03T08:21:04.757Z</time></trkpt><trkpt lat="43.4191051" lon="11.4570091"><ele>435.25</ele><time>2026-04-03T08:21:05.757Z</time></trkpt><trkpt lat="43.419038" lon="11.4571434"><ele>434.5</ele><time>2026-04-03T08:21:06.757Z</time></trkpt><trkpt lat="43.4189977" lon="11.457335"><ele>433.75</ele><time>2026-04-03T08:21:07.757Z</time></trkpt><trkpt lat="43.4189659" lon="11.4575358"><ele>433.0</ele><time>2026-04-03T08:21:08.756Z</time></trkpt><trkpt lat="43.4189111" lon="11.4576731"><ele>433.0</ele><time>2026-04-03T08:21:09.757Z</time></trkpt><trkpt lat="43.4187994" lon="11.4577909"><ele>433.0</ele><time>2026-04-03T08:21:10.756Z</time></trkpt><trkpt lat="43.4186521" lon="11.4578999"><ele>433.0</ele><time>2026-04-03T08:21:11.757Z</time></trkpt><trkpt lat="43.4184757" lon="11.4580255"><ele>433.0</ele><time>2026-04-03T08:21:12.757Z</time></trkpt><trkpt lat="43.4183044" lon="11.4581729"><ele>433.0</ele><time>2026-04-03T08:21:13.756Z</time></trkpt><trkpt lat="43.4181487" lon="11.4582959"><ele>433.0</ele><time>2026-04-03T08:21:14.756Z</time></trkpt><trkpt lat="43.4180092" lon="11.4583646"><ele>435.0</ele><time>2026-04-03T08:21:15.756Z</time></trkpt><trkpt lat="43.4178688" lon="11.4583886"><ele>437.0</ele><time>2026-04-03T08:21:16.756Z</time></trkpt><trkpt lat="43.4177227" lon="11.4583639"><ele>439.0</ele><time>2026-04-03T08:21:17.757Z</time></trkpt><trkpt lat="43.4175702" lon="11.4582827"><ele>439.0</ele><time>2026-04-03T08:21:18.757Z</time></trkpt><trkpt lat="43.417409" lon="11.458164"><ele>439.0</ele><time>2026-04-03T08:21:19.756Z</time></trkpt><trkpt lat="43.4172399" lon="11.4580664"><ele>439.0</ele><time>2026-04-03T08:21:20.757Z</time></trkpt><trkpt lat="43.4170662" lon="11.4580404"><ele>439.6666666666667</ele><time>2026-04-03T08:21:21.757Z</time></trkpt><trkpt lat="43.4168945" lon="11.4580118"><ele>440.33333333333337</ele><time>2026-04-03T08:21:22.757Z</time></trkpt><trkpt lat="43.4167441" lon="11.4580004"><ele>441.0</ele><time>2026-04-03T08:21:23.756Z</time></trkpt><trkpt lat="43.4166129" lon="11.4579944"><ele>441.0</ele><time>2026-04-03T08:21:24.757Z</time></trkpt><trkpt lat="43.4164942" lon="11.4580048"><ele>441.0</ele><time>2026-04-03T08:21:25.757Z</time></trkpt><trkpt lat="43.4163801" lon="11.4580536"><ele>441.0</ele><time>2026-04-03T08:21:26.756Z</time></trkpt><trkpt lat="43.4162699" lon="11.4581397"><ele>441.0</ele><time>2026-04-03T08:21:27.756Z</time></trkpt><trkpt lat="43.4161667" lon="11.4582439"><ele>442.25</ele><time>2026-04-03T08:21:28.757Z</time></trkpt><trkpt lat="43.4160701" lon="11.4583682"><ele>443.5</ele><time>2026-04-03T08:21:29.757Z</time></trkpt><trkpt lat="43.4159888" lon="11.4584962"><ele>444.75</ele><time>2026-04-03T08:21:30.757Z</time></trkpt><trkpt lat="43.4159296" lon="11.4586249"><ele>446.0</ele><time>2026-04-03T08:21:31.757Z</time></trkpt><trkpt lat="43.4158957" lon="11.458764"><ele>446.66666666666663</ele><time>2026-04-03T08:21:32.757Z</time></trkpt><trkpt lat="43.4158684" lon="11.458896"><ele>447.3333333333333</ele><time>2026-04-03T08:21:33.757Z</time></trkpt><trkpt lat="43.415859" lon="11.4590116"><ele>448.0</ele><time>2026-04-03T08:21:34.756Z</time></trkpt><trkpt lat="43.4158505" lon="11.4591212"><ele>448.66666666666663</ele><time>2026-04-03T08:21:35.756Z</time></trkpt><trkpt lat="43.4158522" lon="11.4592133"><ele>449.3333333333333</ele><time>2026-04-03T08:21:36.756Z</time></trkpt><trkpt lat="43.4158687" lon="11.4593383"><ele>450.0</ele><time>2026-04-03T08:21:38.757Z</time></trkpt><trkpt lat="43.4158967" lon="11.4594244"><ele>450.0</ele><time>2026-04-03T08:21:41.757Z</time></trkpt><trkpt lat="43.4158061" lon="11.4594277"><ele>450.0</ele><time>2026-04-03T08:27:37.756Z</time></trkpt><trkpt lat="43.4157992" lon="11.4593161"><ele>450.0</ele><time>2026-04-03T08:27:40.756Z</time></trkpt><trkpt lat="43.4158576" lon="11.4593524"><ele>450.0</ele><time>2026-04-03T08:27:46.755Z</time></trkpt><trkpt lat="43.4158913" lon="11.4594849"><ele>450.0</ele><time>2026-04-03T08:28:17.756Z</time></trkpt><trkpt lat="43.4159045" lon="11.4595758"><ele>450.0</ele><time>2026-04-03T08:28:18.755Z</time></trkpt><trkpt lat="43.4159156" lon="11.4596833"><ele>451.4</ele><time>2026-04-03T08:28:19.756Z</time></trkpt><trkpt lat="43.4159224" lon="11.4598031"><ele>452.8</ele><time>2026-04-03T08:28:20.755Z</time></trkpt><trkpt lat="43.4159271" lon="11.4599266"><ele>454.20000000000005</ele><time>2026-04-03T08:28:21.756Z</time></trkpt><trkpt lat="43.4159293" lon="11.4600606"><ele>455.6</ele><time>2026-04-03T08:28:22.755Z</time></trkpt><trkpt lat="43.4159298" lon="11.4601948"><ele>457.0</ele><time>2026-04-03T08:28:23.756Z</time></trkpt><trkpt lat="43.4159286" lon="11.4603382"><ele>459.8</ele><time>2026-04-03T08:28:24.756Z</time></trkpt><trkpt lat="43.4159358" lon="11.4604868"><ele>462.6</ele><time>2026-04-03T08:28:25.756Z</time></trkpt><trkpt lat="43.4159498" lon="11.4606214"><ele>465.40000000000003</ele><time>2026-04-03T08:28:26.756Z</time></trkpt><trkpt lat="43.4159788" lon="11.4607348"><ele>468.20000000000005</ele><time>2026-04-03T08:28:27.755Z</time></trkpt><trkpt lat="43.4160164" lon="11.460841"><ele>471.0</ele><time>2026-04-03T08:28:28.755Z</time></trkpt><trkpt lat="43.416066" lon="11.4609334"><ele>471.0</ele><time>2026-04-03T08:28:29.756Z</time></trkpt><trkpt lat="43.4161293" lon="11.4610754"><ele>471.0</ele><time>2026-04-03T08:28:31.756Z</time></trkpt><trkpt lat="43.4161368" lon="11.4612449"><ele>471.0</ele><time>2026-04-03T08:28:33.756Z</time></trkpt><trkpt lat="43.4160433" lon="11.4613594"><ele>471.0</ele><time>2026-04-03T08:28:35.755Z</time></trkpt><trkpt lat="43.4159822" lon="11.4614022"><ele>471.0</ele><time>2026-04-03T08:28:36.756Z</time></trkpt><trkpt lat="43.4158903" lon="11.4614566"><ele>471.0</ele><time>2026-04-03T08:28:38.756Z</time></trkpt><trkpt lat="43.4158006" lon="11.4614497"><ele>471.0</ele><time>2026-04-03T08:28:40.756Z</time></trkpt><trkpt lat="43.4157086" lon="11.4613536"><ele>471.0</ele><time>2026-04-03T08:28:42.755Z</time></trkpt><trkpt lat="43.4156707" lon="11.4612706"><ele>471.0</ele><time>2026-04-03T08:28:43.756Z</time></trkpt><trkpt lat="43.4156511" lon="11.4611684"><ele>471.0</ele><time>2026-04-03T08:28:44.756Z</time></trkpt><trkpt lat="43.4156301" lon="11.4610561"><ele>471.0</ele><time>2026-04-03T08:28:45.755Z</time></trkpt><trkpt lat="43.4155994" lon="11.4609553"><ele>471.00000000000006</ele><time>2026-04-03T08:28:46.756Z</time></trkpt><trkpt lat="43.4155601" lon="11.4608693"><ele>471.0</ele><time>2026-04-03T08:28:47.756Z</time></trkpt><trkpt lat="43.4155127" lon="11.4607915"><ele>471.00000000000006</ele><time>2026-04-03T08:28:48.756Z</time></trkpt><trkpt lat="43.4154538" lon="11.4607179"><ele>471.00000000000006</ele><time>2026-04-03T08:28:49.755Z</time></trkpt><trkpt lat="43.4153889" lon="11.4606579"><ele>471.0</ele><time>2026-04-03T08:28:50.755Z</time></trkpt><trkpt lat="43.4153289" lon="11.4606225"><ele>471.00000000000006</ele><time>2026-04-03T08:28:51.756Z</time></trkpt><trkpt lat="43.4152647" lon="11.4606137"><ele>471.00000000000006</ele><time>2026-04-03T08:28:52.755Z</time></trkpt><trkpt lat="43.4152152" lon="11.4606807"><ele>472.5</ele><time>2026-04-03T08:28:54.755Z</time></trkpt><trkpt lat="43.4152692" lon="11.4607451"><ele>474.0</ele><time>2026-04-03T08:28:56.755Z</time></trkpt><trkpt lat="43.4153311" lon="11.4607986"><ele>475.5</ele><time>2026-04-03T08:28:58.755Z</time></trkpt><trkpt lat="43.4154076" lon="11.4608672"><ele>477.0</ele><time>2026-04-03T08:29:00.755Z</time></trkpt><trkpt lat="43.4154649" lon="11.460986"><ele>478.5</ele><time>2026-04-03T08:29:02.756Z</time></trkpt><trkpt lat="43.415481" lon="11.4610721"><ele>480.0</ele><time>2026-04-03T08:29:03.755Z</time></trkpt><trkpt lat="43.4154798" lon="11.4611639"><ele>481.6666666666667</ele><time>2026-04-03T08:29:04.756Z</time></trkpt><trkpt lat="43.4154637" lon="11.4613121"><ele>483.33333333333337</ele><time>2026-04-03T08:29:06.756Z</time></trkpt><trkpt lat="43.4154377" lon="11.4613926"><ele>485.0</ele><time>2026-04-03T08:29:07.755Z</time></trkpt><trkpt lat="43.4154111" lon="11.46148"><ele>486.6666666666667</ele><time>2026-04-03T08:29:08.755Z</time></trkpt><trkpt lat="43.4153966" lon="11.4615703"><ele>488.33333333333337</ele><time>2026-04-03T08:29:09.756Z</time></trkpt><trkpt lat="43.4154003" lon="11.4616993"><ele>490.0</ele><time>2026-04-03T08:29:11.756Z</time></trkpt><trkpt lat="43.4153486" lon="11.4617856"><ele>490.0</ele><time>2026-04-03T08:29:13.755Z</time></trkpt><trkpt lat="43.4152812" lon="11.4617899"><ele>490.0</ele><time>2026-04-03T08:29:15.755Z</time></trkpt><trkpt lat="43.4152453" lon="11.4616481"><ele>490.0</ele><time>2026-04-03T08:29:18.756Z</time></trkpt><trkpt lat="43.4152029" lon="11.4614911"><ele>490.0</ele><time>2026-04-03T08:29:20.756Z</time></trkpt><trkpt lat="43.4151484" lon="11.4613882"><ele>490.0</ele><time>2026-04-03T08:29:22.755Z</time></trkpt><trkpt lat="43.4150628" lon="11.4613754"><ele>490.0</ele><time>2026-04-03T08:29:24.756Z</time></trkpt><trkpt lat="43.4150032" lon="11.4614457"><ele>490.0</ele><time>2026-04-03T08:29:26.755Z</time></trkpt><trkpt lat="43.4149597" lon="11.4615884"><ele>490.0</ele><time>2026-04-03T08:29:28.755Z</time></trkpt><trkpt lat="43.4149506" lon="11.4617137"><ele>490.0</ele><time>2026-04-03T08:29:29.756Z</time></trkpt><trkpt lat="43.4149414" lon="11.4618348"><ele>490.0</ele><time>2026-04-03T08:29:30.756Z</time></trkpt><trkpt lat="43.4148991" lon="11.4619399"><ele>490.0</ele><time>2026-04-03T08:29:31.756Z</time></trkpt><trkpt lat="43.4148553" lon="11.4620228"><ele>490.0</ele><time>2026-04-03T08:29:32.756Z</time></trkpt><trkpt lat="43.4148089" lon="11.462091"><ele>490.0</ele><time>2026-04-03T08:29:33.756Z</time></trkpt><trkpt lat="43.4147326" lon="11.4622053"><ele>490.0</ele><time>2026-04-03T08:29:35.756Z</time></trkpt><trkpt lat="43.4146939" lon="11.462371"><ele>490.0</ele><time>2026-04-03T08:29:37.755Z</time></trkpt><trkpt lat="43.4146803" lon="11.4624766"><ele>493.33333333333337</ele><time>2026-04-03T08:29:38.756Z</time></trkpt><trkpt lat="43.4146521" lon="11.4625943"><ele>496.6666666666667</ele><time>2026-04-03T08:29:39.756Z</time></trkpt><trkpt lat="43.414618" lon="11.4627117"><ele>500.0</ele><time>2026-04-03T08:29:40.756Z</time></trkpt><trkpt lat="43.4145795" lon="11.4628129"><ele>503.33333333333337</ele><time>2026-04-03T08:29:41.756Z</time></trkpt><trkpt lat="43.4145643" lon="11.4629286"><ele>506.6666666666667</ele><time>2026-04-03T08:29:42.755Z</time></trkpt><trkpt lat="43.41456" lon="11.4630457"><ele>510.0</ele><time>2026-04-03T08:29:43.756Z</time></trkpt><trkpt lat="43.4145666" lon="11.4631603"><ele>512.8</ele><time>2026-04-03T08:29:44.755Z</time></trkpt><trkpt lat="43.4145818" lon="11.4633012"><ele>515.6</ele><time>2026-04-03T08:29:45.756Z</time></trkpt><trkpt lat="43.41458" lon="11.4634525"><ele>518.4</ele><time>2026-04-03T08:29:46.756Z</time></trkpt><trkpt lat="43.4145648" lon="11.4635876"><ele>521.2</ele><time>2026-04-03T08:29:47.756Z</time></trkpt><trkpt lat="43.4145462" lon="11.4637167"><ele>524.0</ele><time>2026-04-03T08:29:48.755Z</time></trkpt><trkpt lat="43.4145204" lon="11.4638425"><ele>524.0</ele><time>2026-04-03T08:29:49.756Z</time></trkpt><trkpt lat="43.4144944" lon="11.4639392"><ele>524.0</ele><time>2026-04-03T08:29:50.755Z</time></trkpt><trkpt lat="43.4143989" lon="11.4640832"><ele>524.0</ele><time>2026-04-03T08:29:52.755Z</time></trkpt><trkpt lat="43.4143413" lon="11.4641486"><ele>524.0</ele><time>2026-04-03T08:29:53.755Z</time></trkpt><trkpt lat="43.4142738" lon="11.4642167"><ele>524.0</ele><time>2026-04-03T08:29:54.756Z</time></trkpt><trkpt lat="43.4141779" lon="11.4643054"><ele>524.0</ele><time>2026-04-03T08:29:55.756Z</time></trkpt><trkpt lat="43.4140925" lon="11.4643866"><ele>524.0</ele><time>2026-04-03T08:29:56.756Z</time></trkpt><trkpt lat="43.4139998" lon="11.464464"><ele>524.0</ele><time>2026-04-03T08:29:57.756Z</time></trkpt><trkpt lat="43.4139091" lon="11.4645107"><ele>524.0</ele><time>2026-04-03T08:29:58.756Z</time></trkpt><trkpt lat="43.4138036" lon="11.4645594"><ele>524.0</ele><time>2026-04-03T08:29:59.755Z</time></trkpt><trkpt lat="43.4137194" lon="11.4646012"><ele>522.8333333333333</ele><time>2026-04-03T08:30:00.755Z</time></trkpt><trkpt lat="43.4136243" lon="11.4646316"><ele>521.6666666666666</ele><time>2026-04-03T08:30:01.756Z</time></trkpt><trkpt lat="43.4135409" lon="11.4646402"><ele>520.5</ele><time>2026-04-03T08:30:02.756Z</time></trkpt><trkpt lat="43.4134567" lon="11.4646368"><ele>519.3333333333334</ele><time>2026-04-03T08:30:03.756Z</time></trkpt><trkpt lat="43.4133762" lon="11.4646124"><ele>518.1666666666667</ele><time>2026-04-03T08:30:04.756Z</time></trkpt><trkpt lat="43.413295" lon="11.4645849"><ele>517.0</ele><time>2026-04-03T08:30:05.755Z</time></trkpt><trkpt lat="43.4132146" lon="11.4645311"><ele>516.4</ele><time>2026-04-03T08:30:06.755Z</time></trkpt><trkpt lat="43.413144" lon="11.464476"><ele>515.8000000000001</ele><time>2026-04-03T08:30:07.755Z</time></trkpt><trkpt lat="43.4130689" lon="11.4644259"><ele>515.2</ele><time>2026-04-03T08:30:08.756Z</time></trkpt><trkpt lat="43.4130071" lon="11.4643927"><ele>514.6</ele><time>2026-04-03T08:30:09.756Z</time></trkpt><trkpt lat="43.4128883" lon="11.4643917"><ele>514.0</ele><time>2026-04-03T08:30:11.756Z</time></trkpt><trkpt lat="43.4127692" lon="11.4644015"><ele>514.0</ele><time>2026-04-03T08:30:13.756Z</time></trkpt><trkpt lat="43.4127005" lon="11.4644058"><ele>514.0</ele><time>2026-04-03T08:30:14.755Z</time></trkpt><trkpt lat="43.4126035" lon="11.4643984"><ele>514.0</ele><time>2026-04-03T08:30:16.756Z</time></trkpt><trkpt lat="43.4125114" lon="11.4644068"><ele>514.0</ele><time>2026-04-03T08:30:18.756Z</time></trkpt><trkpt lat="43.41243" lon="11.4644355"><ele>514.0</ele><time>2026-04-03T08:30:20.756Z</time></trkpt><trkpt lat="43.4123253" lon="11.4644828"><ele>514.0</ele><time>2026-04-03T08:30:22.756Z</time></trkpt><trkpt lat="43.412215" lon="11.4645323"><ele>514.0</ele><time>2026-04-03T08:30:24.756Z</time></trkpt><trkpt lat="43.4121148" lon="11.464613"><ele>514.0</ele><time>2026-04-03T08:30:26.756Z</time></trkpt><trkpt lat="43.4120556" lon="11.4646491"><ele>514.0</ele><time>2026-04-03T08:30:27.756Z</time></trkpt><trkpt lat="43.4119899" lon="11.4646802"><ele>514.0</ele><time>2026-04-03T08:30:28.756Z</time></trkpt><trkpt lat="43.4118808" lon="11.464749"><ele>511.79999999999995</ele><time>2026-04-03T08:30:30.756Z</time></trkpt><trkpt lat="43.411788" lon="11.4648056"><ele>509.59999999999997</ele><time>2026-04-03T08:30:32.756Z</time></trkpt><trkpt lat="43.4116856" lon="11.4648439"><ele>507.4</ele><time>2026-04-03T08:30:34.756Z</time></trkpt><trkpt lat="43.4115943" lon="11.4648354"><ele>505.2</ele><time>2026-04-03T08:30:36.756Z</time></trkpt><trkpt lat="43.4114763" lon="11.4648013"><ele>503.0</ele><time>2026-04-03T08:30:38.755Z</time></trkpt><trkpt lat="43.4113631" lon="11.4647361"><ele>501.8333333333333</ele><time>2026-04-03T08:30:40.756Z</time></trkpt><trkpt lat="43.4112711" lon="11.4646717"><ele>500.66666666666663</ele><time>2026-04-03T08:30:42.756Z</time></trkpt><trkpt lat="43.4111804" lon="11.4646051"><ele>499.5</ele><time>2026-04-03T08:30:44.756Z</time></trkpt><trkpt lat="43.4111069" lon="11.4645489"><ele>498.33333333333337</ele><time>2026-04-03T08:30:46.756Z</time></trkpt><trkpt lat="43.4110512" lon="11.4644975"><ele>497.1666666666667</ele><time>2026-04-03T08:30:48.756Z</time></trkpt><trkpt lat="43.4109769" lon="11.4644635"><ele>496.0</ele><time>2026-04-03T08:30:51.756Z</time></trkpt><trkpt lat="43.4109035" lon="11.4644699"><ele>495.6666666666667</ele><time>2026-04-03T08:30:53.755Z</time></trkpt><trkpt lat="43.4108191" lon="11.4644833"><ele>495.33333333333337</ele><time>2026-04-03T08:30:55.756Z</time></trkpt><trkpt lat="43.4107436" lon="11.4644932"><ele>495.0</ele><time>2026-04-03T08:30:57.755Z</time></trkpt><trkpt lat="43.4106497" lon="11.4645007"><ele>494.66666666666663</ele><time>2026-04-03T08:30:59.756Z</time></trkpt><trkpt lat="43.410573" lon="11.4645022"><ele>494.3333333333333</ele><time>2026-04-03T08:31:02.756Z</time></trkpt><trkpt lat="43.4105089" lon="11.4644452"><ele>494.0</ele><time>2026-04-03T08:31:22.755Z</time></trkpt><trkpt lat="43.4103747" lon="11.464402"><ele>493.66666666666663</ele><time>2026-04-03T08:34:22.755Z</time></trkpt><trkpt lat="43.410285" lon="11.4644031"><ele>493.3333333333333</ele><time>2026-04-03T08:34:24.754Z</time></trkpt><trkpt lat="43.4102254" lon="11.4644346"><ele>493.0</ele><time>2026-04-03T08:34:26.755Z</time></trkpt><trkpt lat="43.4101514" lon="11.4644919"><ele>492.66666666666663</ele><time>2026-04-03T08:34:29.755Z</time></trkpt><trkpt lat="43.4100674" lon="11.464502"><ele>492.3333333333333</ele><time>2026-04-03T08:34:46.755Z</time></trkpt><trkpt lat="43.4099564" lon="11.4645199"><ele>492.0</ele><time>2026-04-03T08:34:48.755Z</time></trkpt><trkpt lat="43.4098482" lon="11.4645185"><ele>492.0</ele><time>2026-04-03T08:34:50.754Z</time></trkpt><trkpt lat="43.409744" lon="11.464513"><ele>492.0</ele><time>2026-04-03T08:34:52.754Z</time></trkpt><trkpt lat="43.4096765" lon="11.4645231"><ele>492.0</ele><time>2026-04-03T08:34:53.755Z</time></trkpt><trkpt lat="43.4095916" lon="11.4645302"><ele>492.0</ele><time>2026-04-03T08:34:54.755Z</time></trkpt><trkpt lat="43.4095028" lon="11.4645371"><ele>492.0</ele><time>2026-04-03T08:34:55.755Z</time></trkpt><trkpt lat="43.4094105" lon="11.4645476"><ele>492.0</ele><time>2026-04-03T08:34:56.754Z</time></trkpt><trkpt lat="43.4093197" lon="11.4645583"><ele>492.1666666666667</ele><time>2026-04-03T08:34:57.754Z</time></trkpt><trkpt lat="43.4092293" lon="11.4645626"><ele>492.33333333333337</ele><time>2026-04-03T08:34:58.754Z</time></trkpt><trkpt lat="43.4091411" lon="11.4645686"><ele>492.5</ele><time>2026-04-03T08:34:59.755Z</time></trkpt><trkpt lat="43.4090506" lon="11.4645749"><ele>492.6666666666667</ele><time>2026-04-03T08:35:00.754Z</time></trkpt><trkpt lat="43.4089666" lon="11.4645837"><ele>492.83333333333337</ele><time>2026-04-03T08:35:01.755Z</time></trkpt><trkpt lat="43.4088824" lon="11.4645885"><ele>493.0</ele><time>2026-04-03T08:35:02.755Z</time></trkpt><trkpt lat="43.4087987" lon="11.4645923"><ele>492.2</ele><time>2026-04-03T08:35:03.754Z</time></trkpt><trkpt lat="43.4087206" lon="11.4646008"><ele>491.4</ele><time>2026-04-03T08:35:04.754Z</time></trkpt><trkpt lat="43.4086529" lon="11.4645944"><ele>490.59999999999997</ele><time>2026-04-03T08:35:05.754Z</time></trkpt><trkpt lat="43.4085407" lon="11.4645794"><ele>489.79999999999995</ele><time>2026-04-03T08:35:07.755Z</time></trkpt><trkpt lat="43.408403" lon="11.4645681"><ele>489.0</ele><time>2026-04-03T08:35:09.754Z</time></trkpt><trkpt lat="43.4083123" lon="11.4645689"><ele>489.0</ele><time>2026-04-03T08:35:10.755Z</time></trkpt><trkpt lat="43.4082117" lon="11.4645712"><ele>489.0</ele><time>2026-04-03T08:35:11.755Z</time></trkpt><trkpt lat="43.4081034" lon="11.4645774"><ele>489.0</ele><time>2026-04-03T08:35:12.755Z</time></trkpt><trkpt lat="43.4079768" lon="11.4645886"><ele>489.0</ele><time>2026-04-03T08:35:13.755Z</time></trkpt><trkpt lat="43.4078433" lon="11.464597"><ele>487.4</ele><time>2026-04-03T08:35:14.754Z</time></trkpt><trkpt lat="43.4077182" lon="11.4646071"><ele>485.79999999999995</ele><time>2026-04-03T08:35:15.755Z</time></trkpt><trkpt lat="43.4075994" lon="11.4646233"><ele>484.20000000000005</ele><time>2026-04-03T08:35:16.755Z</time></trkpt><trkpt lat="43.4074923" lon="11.4646377"><ele>482.6</ele><time>2026-04-03T08:35:17.754Z</time></trkpt><trkpt lat="43.4073988" lon="11.4646566"><ele>481.0</ele><time>2026-04-03T08:35:18.754Z</time></trkpt><trkpt lat="43.4073162" lon="11.4646653"><ele>481.00000000000006</ele><time>2026-04-03T08:35:19.755Z</time></trkpt><trkpt lat="43.4072383" lon="11.4646769"><ele>481.0</ele><time>2026-04-03T08:35:20.755Z</time></trkpt><trkpt lat="43.4071602" lon="11.4646817"><ele>481.0</ele><time>2026-04-03T08:35:21.754Z</time></trkpt><trkpt lat="43.4070807" lon="11.4646812"><ele>481.0</ele><time>2026-04-03T08:35:22.754Z</time></trkpt><trkpt lat="43.4069979" lon="11.4646781"><ele>481.00000000000006</ele><time>2026-04-03T08:35:23.755Z</time></trkpt><trkpt lat="43.4069192" lon="11.4646562"><ele>481.0</ele><time>2026-04-03T08:35:24.755Z</time></trkpt><trkpt lat="43.4068416" lon="11.4646325"><ele>480.5714285714285</ele><time>2026-04-03T08:35:25.755Z</time></trkpt><trkpt lat="43.4067638" lon="11.4646148"><ele>480.1428571428571</ele><time>2026-04-03T08:35:26.755Z</time></trkpt><trkpt lat="43.4066903" lon="11.4645868"><ele>479.7142857142857</ele><time>2026-04-03T08:35:27.754Z</time></trkpt><trkpt lat="43.4066227" lon="11.4645644"><ele>479.2857142857143</ele><time>2026-04-03T08:35:28.755Z</time></trkpt><trkpt lat="43.4065535" lon="11.4645403"><ele>478.8571428571429</ele><time>2026-04-03T08:35:29.755Z</time></trkpt><trkpt lat="43.4064865" lon="11.464514"><ele>478.4285714285715</ele><time>2026-04-03T08:35:30.754Z</time></trkpt><trkpt lat="43.4064185" lon="11.4644922"><ele>478.00000000000006</ele><time>2026-04-03T08:35:31.755Z</time></trkpt><trkpt lat="43.4063526" lon="11.4644708"><ele>476.33333333333337</ele><time>2026-04-03T08:35:32.754Z</time></trkpt><trkpt lat="43.4062367" lon="11.4644286"><ele>474.6666666666667</ele><time>2026-04-03T08:35:34.755Z</time></trkpt><trkpt lat="43.4061741" lon="11.4644026"><ele>473.0</ele><time>2026-04-03T08:35:35.754Z</time></trkpt><trkpt lat="43.406108" lon="11.4643763"><ele>471.33333333333337</ele><time>2026-04-03T08:35:36.755Z</time></trkpt><trkpt lat="43.4060456" lon="11.4643403"><ele>469.6666666666667</ele><time>2026-04-03T08:35:37.755Z</time></trkpt><trkpt lat="43.4059791" lon="11.4642949"><ele>468.0</ele><time>2026-04-03T08:35:38.754Z</time></trkpt><trkpt lat="43.4059092" lon="11.4642447"><ele>468.0</ele><time>2026-04-03T08:35:39.754Z</time></trkpt><trkpt lat="43.4058368" lon="11.4641979"><ele>468.0</ele><time>2026-04-03T08:35:40.754Z</time></trkpt><trkpt lat="43.4057687" lon="11.4641456"><ele>468.0</ele><time>2026-04-03T08:35:41.754Z</time></trkpt><trkpt lat="43.4057028" lon="11.4640846"><ele>468.0</ele><time>2026-04-03T08:35:42.755Z</time></trkpt><trkpt lat="43.4056376" lon="11.4640287"><ele>468.0</ele><time>2026-04-03T08:35:43.754Z</time></trkpt><trkpt lat="43.4055782" lon="11.4639809"><ele>468.0</ele><time>2026-04-03T08:35:44.755Z</time></trkpt><trkpt lat="43.4055153" lon="11.4639291"><ele>465.8571428571429</ele><time>2026-04-03T08:35:45.755Z</time></trkpt><trkpt lat="43.4054549" lon="11.4638731"><ele>463.7142857142858</ele><time>2026-04-03T08:35:46.755Z</time></trkpt><trkpt lat="43.4053915" lon="11.4638165"><ele>461.57142857142856</ele><time>2026-04-03T08:35:47.755Z</time></trkpt><trkpt lat="43.4053365" lon="11.4637523"><ele>459.42857142857144</ele><time>2026-04-03T08:35:48.755Z</time></trkpt><trkpt lat="43.4052833" lon="11.4636817"><ele>457.2857142857143</ele><time>2026-04-03T08:35:49.755Z</time></trkpt><trkpt lat="43.405234" lon="11.4636157"><ele>455.1428571428571</ele><time>2026-04-03T08:35:50.755Z</time></trkpt><trkpt lat="43.405187" lon="11.4635531"><ele>452.99999999999994</ele><time>2026-04-03T08:35:51.754Z</time></trkpt><trkpt lat="43.4051029" lon="11.4634529"><ele>453.0</ele><time>2026-04-03T08:35:53.755Z</time></trkpt><trkpt lat="43.4050378" lon="11.4633602"><ele>453.0</ele><time>2026-04-03T08:35:55.755Z</time></trkpt><trkpt lat="43.4049766" lon="11.463266"><ele>453.0</ele><time>2026-04-03T08:35:57.755Z</time></trkpt><trkpt lat="43.4049103" lon="11.4631609"><ele>453.0</ele><time>2026-04-03T08:35:59.754Z</time></trkpt><trkpt lat="43.4048678" lon="11.463089"><ele>453.0</ele><time>2026-04-03T08:36:00.755Z</time></trkpt><trkpt lat="43.4048224" lon="11.4630112"><ele>453.0</ele><time>2026-04-03T08:36:01.755Z</time></trkpt><trkpt lat="43.4047812" lon="11.4629265"><ele>452.59999999999997</ele><time>2026-04-03T08:36:02.755Z</time></trkpt><trkpt lat="43.4047394" lon="11.4628391"><ele>452.19999999999993</ele><time>2026-04-03T08:36:03.754Z</time></trkpt><trkpt lat="43.4047074" lon="11.462752"><ele>451.8</ele><time>2026-04-03T08:36:04.755Z</time></trkpt><trkpt lat="43.404675" lon="11.4625983"><ele>451.4</ele><time>2026-04-03T08:36:06.754Z</time></trkpt><trkpt lat="43.4046576" lon="11.4624499"><ele>451.0</ele><time>2026-04-03T08:36:08.754Z</time></trkpt><trkpt lat="43.4046391" lon="11.4622974"><ele>451.0</ele><time>2026-04-03T08:36:10.754Z</time></trkpt><trkpt lat="43.4046293" lon="11.4621413"><ele>451.0</ele><time>2026-04-03T08:36:12.754Z</time></trkpt><trkpt lat="43.4046154" lon="11.4620497"><ele>451.0</ele><time>2026-04-03T08:36:14.753Z</time></trkpt><trkpt lat="43.4046065" lon="11.4619508"><ele>451.0</ele><time>2026-04-03T08:36:26.754Z</time></trkpt><trkpt lat="43.4045897" lon="11.461844"><ele>451.0</ele><time>2026-04-03T08:36:28.753Z</time></trkpt><trkpt lat="43.4045505" lon="11.4616768"><ele>452.0</ele><time>2026-04-03T08:36:30.754Z</time></trkpt><trkpt lat="43.404509" lon="11.461548"><ele>453.0</ele><time>2026-04-03T08:36:31.753Z</time></trkpt><trkpt lat="43.404452" lon="11.4614126"><ele>454.0</ele><time>2026-04-03T08:36:32.754Z</time></trkpt><trkpt lat="43.4043897" lon="11.4612793"><ele>455.0</ele><time>2026-04-03T08:36:33.753Z</time></trkpt><trkpt lat="43.4043281" lon="11.4611557"><ele>456.0</ele><time>2026-04-03T08:36:34.753Z</time></trkpt><trkpt lat="43.4042656" lon="11.4610365"><ele>456.0</ele><time>2026-04-03T08:36:35.754Z</time></trkpt><trkpt lat="43.4042126" lon="11.4609201"><ele>456.0</ele><time>2026-04-03T08:36:36.754Z</time></trkpt><trkpt lat="43.4041604" lon="11.4607971"><ele>456.0</ele><time>2026-04-03T08:36:37.753Z</time></trkpt><trkpt lat="43.404119" lon="11.4606724"><ele>456.0</ele><time>2026-04-03T08:36:38.753Z</time></trkpt><trkpt lat="43.4040913" lon="11.4605485"><ele>456.0</ele><time>2026-04-03T08:36:39.754Z</time></trkpt><trkpt lat="43.4040835" lon="11.4604204"><ele>456.0</ele><time>2026-04-03T08:36:40.754Z</time></trkpt><trkpt lat="43.4040934" lon="11.4602882"><ele>456.0</ele><time>2026-04-03T08:36:41.754Z</time></trkpt><trkpt lat="43.4041121" lon="11.460144"><ele>456.0</ele><time>2026-04-03T08:36:42.754Z</time></trkpt><trkpt lat="43.4041304" lon="11.4600038"><ele>456.0</ele><time>2026-04-03T08:36:43.754Z</time></trkpt><trkpt lat="43.4041487" lon="11.4598849"><ele>456.0</ele><time>2026-04-03T08:36:44.753Z</time></trkpt><trkpt lat="43.4041745" lon="11.4597584"><ele>456.0</ele><time>2026-04-03T08:36:45.753Z</time></trkpt><trkpt lat="43.4042154" lon="11.4596267"><ele>456.0</ele><time>2026-04-03T08:36:46.754Z</time></trkpt><trkpt lat="43.4042614" lon="11.4594929"><ele>456.0</ele><time>2026-04-03T08:36:47.754Z</time></trkpt><trkpt lat="43.4043149" lon="11.4593716"><ele>456.0</ele><time>2026-04-03T08:36:48.754Z</time></trkpt><trkpt lat="43.4043723" lon="11.4592588"><ele>456.0</ele><time>2026-04-03T08:36:49.753Z</time></trkpt><trkpt lat="43.4044337" lon="11.4591551"><ele>455.85714285714283</ele><time>2026-04-03T08:36:50.753Z</time></trkpt><trkpt lat="43.4044865" lon="11.4590734"><ele>455.71428571428567</ele><time>2026-04-03T08:36:51.753Z</time></trkpt><trkpt lat="43.404537" lon="11.4590064"><ele>455.57142857142856</ele><time>2026-04-03T08:36:52.754Z</time></trkpt><trkpt lat="43.4045876" lon="11.4589325"><ele>455.42857142857144</ele><time>2026-04-03T08:36:53.754Z</time></trkpt><trkpt lat="43.4046383" lon="11.4588593"><ele>455.2857142857143</ele><time>2026-04-03T08:36:54.754Z</time></trkpt><trkpt lat="43.404686" lon="11.4587827"><ele>455.1428571428571</ele><time>2026-04-03T08:36:55.753Z</time></trkpt><trkpt lat="43.4047235" lon="11.4587057"><ele>455.0</ele><time>2026-04-03T08:36:56.753Z</time></trkpt><trkpt lat="43.4047545" lon="11.4586226"><ele>454.2</ele><time>2026-04-03T08:36:57.754Z</time></trkpt><trkpt lat="43.4047749" lon="11.4585309"><ele>453.4</ele><time>2026-04-03T08:36:58.754Z</time></trkpt><trkpt lat="43.4047924" lon="11.4584413"><ele>452.6</ele><time>2026-04-03T08:36:59.754Z</time></trkpt><trkpt lat="43.404835" lon="11.4582937"><ele>451.8</ele><time>2026-04-03T08:37:01.754Z</time></trkpt><trkpt lat="43.4048967" lon="11.458172"><ele>451.0</ele><time>2026-04-03T08:37:03.753Z</time></trkpt><trkpt lat="43.4049633" lon="11.4580576"><ele>449.6666666666667</ele><time>2026-04-03T08:37:05.754Z</time></trkpt><trkpt lat="43.4050045" lon="11.4579119"><ele>448.33333333333337</ele><time>2026-04-03T08:37:07.753Z</time></trkpt><trkpt lat="43.4050117" lon="11.4578199"><ele>447.0</ele><time>2026-04-03T08:37:08.754Z</time></trkpt><trkpt lat="43.4050039" lon="11.4577058"><ele>445.66666666666663</ele><time>2026-04-03T08:37:09.754Z</time></trkpt><trkpt lat="43.4049938" lon="11.4575829"><ele>444.3333333333333</ele><time>2026-04-03T08:37:10.753Z</time></trkpt><trkpt lat="43.4049841" lon="11.4574681"><ele>443.0</ele><time>2026-04-03T08:37:11.754Z</time></trkpt><trkpt lat="43.4049707" lon="11.4573526"><ele>442.99999999999994</ele><time>2026-04-03T08:37:12.754Z</time></trkpt><trkpt lat="43.4049574" lon="11.4572382"><ele>443.0</ele><time>2026-04-03T08:37:13.754Z</time></trkpt><trkpt lat="43.4049452" lon="11.4571331"><ele>443.0</ele><time>2026-04-03T08:37:14.753Z</time></trkpt><trkpt lat="43.4049242" lon="11.4570326"><ele>443.0</ele><time>2026-04-03T08:37:15.754Z</time></trkpt><trkpt lat="43.4048979" lon="11.4569344"><ele>442.99999999999994</ele><time>2026-04-03T08:37:16.754Z</time></trkpt><trkpt lat="43.4048684" lon="11.4568451"><ele>443.0</ele><time>2026-04-03T08:37:17.754Z</time></trkpt><trkpt lat="43.4048147" lon="11.4567012"><ele>441.59999999999997</ele><time>2026-04-03T08:37:19.753Z</time></trkpt><trkpt lat="43.4047895" lon="11.4565698"><ele>440.19999999999993</ele><time>2026-04-03T08:37:21.754Z</time></trkpt><trkpt lat="43.4048203" lon="11.4564328"><ele>438.8</ele><time>2026-04-03T08:37:23.753Z</time></trkpt><trkpt lat="43.4049131" lon="11.4563692"><ele>437.4</ele><time>2026-04-03T08:37:25.754Z</time></trkpt><trkpt lat="43.4050329" lon="11.4563753"><ele>436.0</ele><time>2026-04-03T08:37:27.753Z</time></trkpt><trkpt lat="43.4051096" lon="11.456391"><ele>436.00000000000006</ele><time>2026-04-03T08:37:28.753Z</time></trkpt><trkpt lat="43.4051832" lon="11.4563956"><ele>436.0</ele><time>2026-04-03T08:37:29.754Z</time></trkpt><trkpt lat="43.4052485" lon="11.4564051"><ele>436.0</ele><time>2026-04-03T08:37:30.753Z</time></trkpt><trkpt lat="43.4053689" lon="11.4564202"><ele>436.0</ele><time>2026-04-03T08:37:32.754Z</time></trkpt><trkpt lat="43.4054348" lon="11.4564303"><ele>436.00000000000006</ele><time>2026-04-03T08:37:33.753Z</time></trkpt><trkpt lat="43.4054984" lon="11.4564365"><ele>436.0</ele><time>2026-04-03T08:37:34.754Z</time></trkpt><trkpt lat="43.4056203" lon="11.4564033"><ele>434.50000000000006</ele><time>2026-04-03T08:37:36.754Z</time></trkpt><trkpt lat="43.4056761" lon="11.4563625"><ele>433.0</ele><time>2026-04-03T08:37:37.754Z</time></trkpt><trkpt lat="43.4057307" lon="11.4563122"><ele>431.5</ele><time>2026-04-03T08:37:38.754Z</time></trkpt><trkpt lat="43.405781" lon="11.4562465"><ele>430.0</ele><time>2026-04-03T08:37:39.753Z</time></trkpt><trkpt lat="43.405845" lon="11.4561518"><ele>428.50000000000006</ele><time>2026-04-03T08:37:40.754Z</time></trkpt><trkpt lat="43.4059048" lon="11.4560492"><ele>427.0</ele><time>2026-04-03T08:37:41.754Z</time></trkpt><trkpt lat="43.4059544" lon="11.4559376"><ele>426.8</ele><time>2026-04-03T08:37:42.754Z</time></trkpt><trkpt lat="43.405994" lon="11.4558153"><ele>426.6</ele><time>2026-04-03T08:37:43.753Z</time></trkpt><trkpt lat="43.4060205" lon="11.4556871"><ele>426.40000000000003</ele><time>2026-04-03T08:37:44.753Z</time></trkpt><trkpt lat="43.4060436" lon="11.4555563"><ele>426.20000000000005</ele><time>2026-04-03T08:37:45.754Z</time></trkpt><trkpt lat="43.4060668" lon="11.4554147"><ele>426.0</ele><time>2026-04-03T08:37:46.754Z</time></trkpt><trkpt lat="43.406096" lon="11.4552862"><ele>425.20000000000005</ele><time>2026-04-03T08:37:47.754Z</time></trkpt><trkpt lat="43.4061246" lon="11.4551679"><ele>424.40000000000003</ele><time>2026-04-03T08:37:48.754Z</time></trkpt><trkpt lat="43.4061504" lon="11.4550537"><ele>423.6</ele><time>2026-04-03T08:37:49.753Z</time></trkpt><trkpt lat="43.4061804" lon="11.4549432"><ele>422.8</ele><time>2026-04-03T08:37:50.754Z</time></trkpt><trkpt lat="43.4062141" lon="11.4548277"><ele>422.0</ele><time>2026-04-03T08:37:51.754Z</time></trkpt><trkpt lat="43.4062653" lon="11.4547142"><ele>419.5</ele><time>2026-04-03T08:37:52.754Z</time></trkpt><trkpt lat="43.4063313" lon="11.4545874"><ele>417.0</ele><time>2026-04-03T08:37:53.753Z</time></trkpt><trkpt lat="43.4063996" lon="11.4544611"><ele>414.5</ele><time>2026-04-03T08:37:54.754Z</time></trkpt><trkpt lat="43.4064555" lon="11.4543283"><ele>412.0</ele><time>2026-04-03T08:37:55.754Z</time></trkpt><trkpt lat="43.406499" lon="11.4541765"><ele>412.0</ele><time>2026-04-03T08:37:56.754Z</time></trkpt><trkpt lat="43.4065358" lon="11.4540304"><ele>412.0</ele><time>2026-04-03T08:37:57.753Z</time></trkpt><trkpt lat="43.4065549" lon="11.4539076"><ele>412.0</ele><time>2026-04-03T08:37:58.753Z</time></trkpt><trkpt lat="43.4065556" lon="11.4537923"><ele>412.0</ele><time>2026-04-03T08:37:59.753Z</time></trkpt><trkpt lat="43.4065417" lon="11.4536778"><ele>412.0</ele><time>2026-04-03T08:38:00.754Z</time></trkpt><trkpt lat="43.406512" lon="11.4535526"><ele>412.0</ele><time>2026-04-03T08:38:01.753Z</time></trkpt><trkpt lat="43.40647" lon="11.4534178"><ele>412.0</ele><time>2026-04-03T08:38:02.754Z</time></trkpt><trkpt lat="43.406447" lon="11.4532775"><ele>412.0</ele><time>2026-04-03T08:38:03.753Z</time></trkpt><trkpt lat="43.4064386" lon="11.4531385"><ele>412.0</ele><time>2026-04-03T08:38:04.753Z</time></trkpt><trkpt lat="43.4064445" lon="11.4530087"><ele>412.0</ele><time>2026-04-03T08:38:05.753Z</time></trkpt><trkpt lat="43.4064663" lon="11.4528789"><ele>411.40000000000003</ele><time>2026-04-03T08:38:06.753Z</time></trkpt><trkpt lat="43.4064842" lon="11.4527426"><ele>410.8</ele><time>2026-04-03T08:38:07.753Z</time></trkpt><trkpt lat="43.4064991" lon="11.4525994"><ele>410.2</ele><time>2026-04-03T08:38:08.754Z</time></trkpt><trkpt lat="43.4065093" lon="11.4524551"><ele>409.6</ele><time>2026-04-03T08:38:09.754Z</time></trkpt><trkpt lat="43.406513" lon="11.4523097"><ele>409.0</ele><time>2026-04-03T08:38:10.753Z</time></trkpt><trkpt lat="43.4065066" lon="11.4521749"><ele>409.4</ele><time>2026-04-03T08:38:11.754Z</time></trkpt><trkpt lat="43.4064902" lon="11.4520509"><ele>409.79999999999995</ele><time>2026-04-03T08:38:12.754Z</time></trkpt><trkpt lat="43.4064636" lon="11.451936"><ele>410.20000000000005</ele><time>2026-04-03T08:38:13.754Z</time></trkpt><trkpt lat="43.406422" lon="11.4518139"><ele>410.6</ele><time>2026-04-03T08:38:14.754Z</time></trkpt><trkpt lat="43.4063627" lon="11.4516775"><ele>411.0</ele><time>2026-04-03T08:38:15.753Z</time></trkpt><trkpt lat="43.4062962" lon="11.4515413"><ele>411.0</ele><time>2026-04-03T08:38:16.754Z</time></trkpt><trkpt lat="43.4062222" lon="11.4514095"><ele>411.0</ele><time>2026-04-03T08:38:17.754Z</time></trkpt><trkpt lat="43.406147" lon="11.4512892"><ele>411.0</ele><time>2026-04-03T08:38:18.754Z</time></trkpt><trkpt lat="43.4060809" lon="11.4511684"><ele>411.0</ele><time>2026-04-03T08:38:19.754Z</time></trkpt><trkpt lat="43.4060271" lon="11.451052"><ele>411.0</ele><time>2026-04-03T08:38:20.754Z</time></trkpt><trkpt lat="43.4059725" lon="11.4509143"><ele>411.0</ele><time>2026-04-03T08:38:21.754Z</time></trkpt><trkpt lat="43.4059239" lon="11.4507581"><ele>411.0</ele><time>2026-04-03T08:38:22.754Z</time></trkpt><trkpt lat="43.405883" lon="11.4506015"><ele>411.0</ele><time>2026-04-03T08:38:23.754Z</time></trkpt><trkpt lat="43.4058434" lon="11.4504519"><ele>411.0</ele><time>2026-04-03T08:38:24.754Z</time></trkpt><trkpt lat="43.4057961" lon="11.4503033"><ele>410.4</ele><time>2026-04-03T08:38:25.753Z</time></trkpt><trkpt lat="43.4057407" lon="11.4501581"><ele>409.8</ele><time>2026-04-03T08:38:26.754Z</time></trkpt><trkpt lat="43.4056821" lon="11.4500223"><ele>409.2</ele><time>2026-04-03T08:38:27.753Z</time></trkpt><trkpt lat="43.4056266" lon="11.4499001"><ele>408.59999999999997</ele><time>2026-04-03T08:38:28.754Z</time></trkpt><trkpt lat="43.4055679" lon="11.449787"><ele>408.0</ele><time>2026-04-03T08:38:29.753Z</time></trkpt><trkpt lat="43.4055066" lon="11.449673"><ele>406.59999999999997</ele><time>2026-04-03T08:38:30.754Z</time></trkpt><trkpt lat="43.4054397" lon="11.4495568"><ele>405.2</ele><time>2026-04-03T08:38:31.753Z</time></trkpt><trkpt lat="43.405364" lon="11.4494484"><ele>403.8</ele><time>2026-04-03T08:38:32.753Z</time></trkpt><trkpt lat="43.4052967" lon="11.4493416"><ele>402.4</ele><time>2026-04-03T08:38:33.753Z</time></trkpt><trkpt lat="43.4052405" lon="11.4492417"><ele>401.0</ele><time>2026-04-03T08:38:34.754Z</time></trkpt><trkpt lat="43.4051942" lon="11.4491567"><ele>400.99999999999994</ele><time>2026-04-03T08:38:35.754Z</time></trkpt><trkpt lat="43.4051492" lon="11.4490803"><ele>401.0</ele><time>2026-04-03T08:38:36.753Z</time></trkpt><trkpt lat="43.4051082" lon="11.4490034"><ele>401.0</ele><time>2026-04-03T08:38:37.754Z</time></trkpt><trkpt lat="43.405071" lon="11.448927"><ele>401.0</ele><time>2026-04-03T08:38:38.753Z</time></trkpt><trkpt lat="43.4050364" lon="11.4488539"><ele>400.99999999999994</ele><time>2026-04-03T08:38:39.754Z</time></trkpt><trkpt lat="43.4049699" lon="11.4487249"><ele>401.0</ele><time>2026-04-03T08:38:41.754Z</time></trkpt><trkpt lat="43.4049312" lon="11.4486551"><ele>400.5</ele><time>2026-04-03T08:38:42.753Z</time></trkpt><trkpt lat="43.4048682" lon="11.4485692"><ele>400.0</ele><time>2026-04-03T08:38:43.754Z</time></trkpt><trkpt lat="43.4047615" lon="11.4484804"><ele>399.5</ele><time>2026-04-03T08:38:44.754Z</time></trkpt><trkpt lat="43.4046154" lon="11.4483543"><ele>399.0</ele><time>2026-04-03T08:38:45.754Z</time></trkpt><trkpt lat="43.4044595" lon="11.4482406"><ele>398.66666666666663</ele><time>2026-04-03T08:38:46.754Z</time></trkpt><trkpt lat="43.4043171" lon="11.4481361"><ele>398.3333333333333</ele><time>2026-04-03T08:38:47.753Z</time></trkpt><trkpt lat="43.4041742" lon="11.4480331"><ele>398.0</ele><time>2026-04-03T08:38:48.753Z</time></trkpt><trkpt lat="43.4040219" lon="11.4479369"><ele>398.3333333333333</ele><time>2026-04-03T08:38:49.754Z</time></trkpt><trkpt lat="43.4038592" lon="11.4478568"><ele>398.66666666666663</ele><time>2026-04-03T08:38:50.753Z</time></trkpt><trkpt lat="43.403697" lon="11.4477858"><ele>399.0</ele><time>2026-04-03T08:38:51.754Z</time></trkpt><trkpt lat="43.4035394" lon="11.4477133"><ele>399.0</ele><time>2026-04-03T08:38:52.754Z</time></trkpt><trkpt lat="43.4033858" lon="11.4476343"><ele>399.0</ele><time>2026-04-03T08:38:53.754Z</time></trkpt><trkpt lat="43.4032338" lon="11.4475547"><ele>399.0</ele><time>2026-04-03T08:38:54.754Z</time></trkpt><trkpt lat="43.4030897" lon="11.447472"><ele>396.33333333333337</ele><time>2026-04-03T08:38:55.754Z</time></trkpt><trkpt lat="43.4029372" lon="11.4473811"><ele>393.6666666666667</ele><time>2026-04-03T08:38:56.754Z</time></trkpt><trkpt lat="43.4027721" lon="11.4472844"><ele>391.0</ele><time>2026-04-03T08:38:57.754Z</time></trkpt><trkpt lat="43.4025928" lon="11.4471797"><ele>390.0</ele><time>2026-04-03T08:38:58.754Z</time></trkpt><trkpt lat="43.4024058" lon="11.4470734"><ele>389.0</ele><time>2026-04-03T08:38:59.753Z</time></trkpt><trkpt lat="43.4022372" lon="11.4469623"><ele>388.0</ele><time>2026-04-03T08:39:00.754Z</time></trkpt><trkpt lat="43.4020833" lon="11.4468443"><ele>388.0</ele><time>2026-04-03T08:39:01.754Z</time></trkpt><trkpt lat="43.4019328" lon="11.4467156"><ele>388.0</ele><time>2026-04-03T08:39:02.754Z</time></trkpt><trkpt lat="43.401782" lon="11.4465546"><ele>388.0</ele><time>2026-04-03T08:39:03.754Z</time></trkpt><trkpt lat="43.4016219" lon="11.4463664"><ele>388.6666666666667</ele><time>2026-04-03T08:39:04.753Z</time></trkpt><trkpt lat="43.4014672" lon="11.4461855"><ele>389.33333333333337</ele><time>2026-04-03T08:39:05.754Z</time></trkpt><trkpt lat="43.4013442" lon="11.4460098"><ele>390.0</ele><time>2026-04-03T08:39:06.753Z</time></trkpt><trkpt lat="43.4012331" lon="11.4458438"><ele>387.6666666666667</ele><time>2026-04-03T08:39:07.754Z</time></trkpt><trkpt lat="43.4011315" lon="11.4456761"><ele>385.33333333333337</ele><time>2026-04-03T08:39:08.754Z</time></trkpt><trkpt lat="43.4010327" lon="11.4455171"><ele>383.0</ele><time>2026-04-03T08:39:09.754Z</time></trkpt><trkpt lat="43.4009358" lon="11.4453695"><ele>382.75</ele><time>2026-04-03T08:39:10.753Z</time></trkpt><trkpt lat="43.4008383" lon="11.4452269"><ele>382.5</ele><time>2026-04-03T08:39:11.754Z</time></trkpt><trkpt lat="43.4007357" lon="11.4450833"><ele>382.25</ele><time>2026-04-03T08:39:12.753Z</time></trkpt><trkpt lat="43.4006281" lon="11.4449367"><ele>382.0</ele><time>2026-04-03T08:39:13.754Z</time></trkpt><trkpt lat="43.4005077" lon="11.4447848"><ele>380.3333333333333</ele><time>2026-04-03T08:39:14.754Z</time></trkpt><trkpt lat="43.4003842" lon="11.4446276"><ele>378.6666666666667</ele><time>2026-04-03T08:39:15.754Z</time></trkpt><trkpt lat="43.4002567" lon="11.4444604"><ele>377.0</ele><time>2026-04-03T08:39:16.754Z</time></trkpt><trkpt lat="43.4001377" lon="11.4443026"><ele>377.0</ele><time>2026-04-03T08:39:17.754Z</time></trkpt><trkpt lat="43.4000269" lon="11.4441556"><ele>377.0</ele><time>2026-04-03T08:39:18.753Z</time></trkpt><trkpt lat="43.399914" lon="11.4440105"><ele>377.0</ele><time>2026-04-03T08:39:19.753Z</time></trkpt><trkpt lat="43.3997986" lon="11.4438702"><ele>376.6666666666667</ele><time>2026-04-03T08:39:20.753Z</time></trkpt><trkpt lat="43.399669" lon="11.4437658"><ele>376.3333333333333</ele><time>2026-04-03T08:39:21.754Z</time></trkpt><trkpt lat="43.3995009" lon="11.4436837"><ele>376.0</ele><time>2026-04-03T08:39:22.753Z</time></trkpt><trkpt lat="43.3993317" lon="11.4435998"><ele>376.0</ele><time>2026-04-03T08:39:23.754Z</time></trkpt><trkpt lat="43.3991719" lon="11.4435291"><ele>376.0</ele><time>2026-04-03T08:39:24.754Z</time></trkpt><trkpt lat="43.3990174" lon="11.4435059"><ele>376.0</ele><time>2026-04-03T08:39:25.754Z</time></trkpt><trkpt lat="43.3988449" lon="11.4435082"><ele>376.0</ele><time>2026-04-03T08:39:26.754Z</time></trkpt><trkpt lat="43.3986565" lon="11.4435307"><ele>376.0</ele><time>2026-04-03T08:39:27.754Z</time></trkpt><trkpt lat="43.3984667" lon="11.4435718"><ele>376.0</ele><time>2026-04-03T08:39:28.754Z</time></trkpt><trkpt lat="43.3982942" lon="11.4436125"><ele>376.0</ele><time>2026-04-03T08:39:29.754Z</time></trkpt><trkpt lat="43.3981402" lon="11.443634"><ele>376.0</ele><time>2026-04-03T08:39:30.753Z</time></trkpt><trkpt lat="43.3980031" lon="11.4436611"><ele>376.0</ele><time>2026-04-03T08:39:31.753Z</time></trkpt><trkpt lat="43.3978703" lon="11.4436655"><ele>376.0</ele><time>2026-04-03T08:39:32.754Z</time></trkpt><trkpt lat="43.3977185" lon="11.4436218"><ele>375.0</ele><time>2026-04-03T08:39:33.753Z</time></trkpt><trkpt lat="43.3975626" lon="11.4435528"><ele>374.0</ele><time>2026-04-03T08:39:34.753Z</time></trkpt><trkpt lat="43.397407" lon="11.4434905"><ele>373.0</ele><time>2026-04-03T08:39:35.753Z</time></trkpt><trkpt lat="43.3972581" lon="11.4434305"><ele>372.3333333333333</ele><time>2026-04-03T08:39:36.754Z</time></trkpt><trkpt lat="43.3971012" lon="11.4433713"><ele>371.6666666666667</ele><time>2026-04-03T08:39:37.754Z</time></trkpt><trkpt lat="43.3969385" lon="11.4433154"><ele>371.0</ele><time>2026-04-03T08:39:38.753Z</time></trkpt><trkpt lat="43.3967718" lon="11.4432537"><ele>371.0</ele><time>2026-04-03T08:39:39.754Z</time></trkpt><trkpt lat="43.3965999" lon="11.4431892"><ele>371.0</ele><time>2026-04-03T08:39:40.753Z</time></trkpt><trkpt lat="43.3964317" lon="11.4431216"><ele>371.0</ele><time>2026-04-03T08:39:41.754Z</time></trkpt><trkpt lat="43.3962646" lon="11.4430547"><ele>369.6666666666667</ele><time>2026-04-03T08:39:42.753Z</time></trkpt><trkpt lat="43.3960917" lon="11.4429829"><ele>368.3333333333333</ele><time>2026-04-03T08:39:43.753Z</time></trkpt><trkpt lat="43.3959138" lon="11.4429118"><ele>367.0</ele><time>2026-04-03T08:39:44.754Z</time></trkpt><trkpt lat="43.395738" lon="11.4428518"><ele>367.0</ele><time>2026-04-03T08:39:45.753Z</time></trkpt><trkpt lat="43.3955597" lon="11.442787"><ele>367.0</ele><time>2026-04-03T08:39:46.754Z</time></trkpt><trkpt lat="43.3953826" lon="11.4427343"><ele>367.0</ele><time>2026-04-03T08:39:47.753Z</time></trkpt><trkpt lat="43.3952072" lon="11.4427231"><ele>367.3333333333333</ele><time>2026-04-03T08:39:48.754Z</time></trkpt><trkpt lat="43.3950501" lon="11.4427299"><ele>367.6666666666667</ele><time>2026-04-03T08:39:49.754Z</time></trkpt><trkpt lat="43.3948878" lon="11.4427408"><ele>368.0</ele><time>2026-04-03T08:39:50.754Z</time></trkpt><trkpt lat="43.3947299" lon="11.4427406"><ele>368.0</ele><time>2026-04-03T08:39:51.754Z</time></trkpt><trkpt lat="43.3945656" lon="11.4427331"><ele>368.0</ele><time>2026-04-03T08:39:52.754Z</time></trkpt><trkpt lat="43.3944001" lon="11.4427097"><ele>368.0</ele><time>2026-04-03T08:39:53.754Z</time></trkpt><trkpt lat="43.3942081" lon="11.4426831"><ele>368.0</ele><time>2026-04-03T08:39:54.753Z</time></trkpt><trkpt lat="43.3940084" lon="11.4426606"><ele>368.0</ele><time>2026-04-03T08:39:55.753Z</time></trkpt><trkpt lat="43.3938264" lon="11.4426299"><ele>368.0</ele><time>2026-04-03T08:39:56.753Z</time></trkpt><trkpt lat="43.3936483" lon="11.4425878"><ele>368.0</ele><time>2026-04-03T08:39:57.754Z</time></trkpt><trkpt lat="43.3934705" lon="11.4425157"><ele>368.0</ele><time>2026-04-03T08:39:58.754Z</time></trkpt><trkpt lat="43.393292" lon="11.4424363"><ele>368.0</ele><time>2026-04-03T08:39:59.754Z</time></trkpt><trkpt lat="43.3931135" lon="11.4423687"><ele>368.33333333333337</ele><time>2026-04-03T08:40:00.754Z</time></trkpt><trkpt lat="43.3929295" lon="11.4423337"><ele>368.6666666666667</ele><time>2026-04-03T08:40:01.754Z</time></trkpt><trkpt lat="43.3927389" lon="11.4423428"><ele>369.0</ele><time>2026-04-03T08:40:02.753Z</time></trkpt><trkpt lat="43.3925486" lon="11.442386"><ele>369.0</ele><time>2026-04-03T08:40:03.753Z</time></trkpt><trkpt lat="43.3923686" lon="11.4424622"><ele>369.0</ele><time>2026-04-03T08:40:04.754Z</time></trkpt><trkpt lat="43.3921943" lon="11.4425565"><ele>369.0</ele><time>2026-04-03T08:40:05.754Z</time></trkpt><trkpt lat="43.392032" lon="11.4426602"><ele>368.0</ele><time>2026-04-03T08:40:06.754Z</time></trkpt><trkpt lat="43.3918739" lon="11.4427533"><ele>367.0</ele><time>2026-04-03T08:40:07.754Z</time></trkpt><trkpt lat="43.3917118" lon="11.4428302"><ele>366.0</ele><time>2026-04-03T08:40:08.754Z</time></trkpt><trkpt lat="43.3915306" lon="11.4428607"><ele>366.0</ele><time>2026-04-03T08:40:09.753Z</time></trkpt><trkpt lat="43.3913494" lon="11.4428741"><ele>366.0</ele><time>2026-04-03T08:40:10.754Z</time></trkpt><trkpt lat="43.3911729" lon="11.4428927"><ele>366.0</ele><time>2026-04-03T08:40:11.754Z</time></trkpt><trkpt lat="43.3909836" lon="11.4429311"><ele>366.6666666666667</ele><time>2026-04-03T08:40:12.754Z</time></trkpt><trkpt lat="43.3907971" lon="11.4429715"><ele>367.33333333333337</ele><time>2026-04-03T08:40:13.754Z</time></trkpt><trkpt lat="43.3906263" lon="11.4429812"><ele>368.0</ele><time>2026-04-03T08:40:14.754Z</time></trkpt><trkpt lat="43.390457" lon="11.4429727"><ele>367.0</ele><time>2026-04-03T08:40:15.754Z</time></trkpt><trkpt lat="43.3902884" lon="11.4429533"><ele>366.0</ele><time>2026-04-03T08:40:16.754Z</time></trkpt><trkpt lat="43.3901373" lon="11.4429379"><ele>365.0</ele><time>2026-04-03T08:40:17.753Z</time></trkpt><trkpt lat="43.39" lon="11.4429017"><ele>365.0</ele><time>2026-04-03T08:40:18.754Z</time></trkpt><trkpt lat="43.3898778" lon="11.4428229"><ele>365.0</ele><time>2026-04-03T08:40:19.754Z</time></trkpt><trkpt lat="43.3897745" lon="11.4427093"><ele>365.0</ele><time>2026-04-03T08:40:20.754Z</time></trkpt><trkpt lat="43.389699" lon="11.4425418"><ele>365.0</ele><time>2026-04-03T08:40:21.753Z</time></trkpt><trkpt lat="43.3896228" lon="11.4423479"><ele>362.33333333333337</ele><time>2026-04-03T08:40:22.753Z</time></trkpt><trkpt lat="43.3895308" lon="11.4421742"><ele>359.6666666666667</ele><time>2026-04-03T08:40:23.754Z</time></trkpt><trkpt lat="43.3894268" lon="11.4420183"><ele>357.0</ele><time>2026-04-03T08:40:24.753Z</time></trkpt><trkpt lat="43.3893216" lon="11.4418578"><ele>357.0</ele><time>2026-04-03T08:40:25.754Z</time></trkpt><trkpt lat="43.3892175" lon="11.4416964"><ele>357.0</ele><time>2026-04-03T08:40:26.754Z</time></trkpt><trkpt lat="43.3891171" lon="11.4415364"><ele>357.0</ele><time>2026-04-03T08:40:27.754Z</time></trkpt><trkpt lat="43.3890169" lon="11.4413958"><ele>356.25</ele><time>2026-04-03T08:40:28.754Z</time></trkpt><trkpt lat="43.3889228" lon="11.4412567"><ele>355.5</ele><time>2026-04-03T08:40:29.754Z</time></trkpt><trkpt lat="43.3888206" lon="11.4411189"><ele>354.75</ele><time>2026-04-03T08:40:30.754Z</time></trkpt><trkpt lat="43.3887206" lon="11.4409919"><ele>354.0</ele><time>2026-04-03T08:40:31.754Z</time></trkpt><trkpt lat="43.3886118" lon="11.4408714"><ele>354.0</ele><time>2026-04-03T08:40:32.753Z</time></trkpt><trkpt lat="43.3885056" lon="11.4407619"><ele>354.0</ele><time>2026-04-03T08:40:33.753Z</time></trkpt><trkpt lat="43.3884006" lon="11.4406429"><ele>354.0</ele><time>2026-04-03T08:40:34.754Z</time></trkpt><trkpt lat="43.3883072" lon="11.4405122"><ele>354.0</ele><time>2026-04-03T08:40:35.753Z</time></trkpt><trkpt lat="43.3882217" lon="11.4403979"><ele>352.0</ele><time>2026-04-03T08:40:36.753Z</time></trkpt><trkpt lat="43.3881468" lon="11.4402778"><ele>350.0</ele><time>2026-04-03T08:40:37.754Z</time></trkpt><trkpt lat="43.3880627" lon="11.440158"><ele>348.0</ele><time>2026-04-03T08:40:38.753Z</time></trkpt><trkpt lat="43.3879765" lon="11.4400268"><ele>346.0</ele><time>2026-04-03T08:40:39.753Z</time></trkpt><trkpt lat="43.3878905" lon="11.4398807"><ele>346.0</ele><time>2026-04-03T08:40:40.754Z</time></trkpt><trkpt lat="43.3878051" lon="11.4397191"><ele>346.0</ele><time>2026-04-03T08:40:41.753Z</time></trkpt><trkpt lat="43.3877215" lon="11.4395453"><ele>346.0</ele><time>2026-04-03T08:40:42.754Z</time></trkpt><trkpt lat="43.3876245" lon="11.4393812"><ele>345.0</ele><time>2026-04-03T08:40:43.754Z</time></trkpt><trkpt lat="43.3875275" lon="11.4392165"><ele>344.0</ele><time>2026-04-03T08:40:44.754Z</time></trkpt><trkpt lat="43.3874286" lon="11.439062"><ele>343.0</ele><time>2026-04-03T08:40:45.754Z</time></trkpt><trkpt lat="43.3873408" lon="11.4389176"><ele>342.0</ele><time>2026-04-03T08:40:46.753Z</time></trkpt><trkpt lat="43.3872634" lon="11.438778"><ele>342.25</ele><time>2026-04-03T08:40:47.754Z</time></trkpt><trkpt lat="43.3871959" lon="11.4386317"><ele>342.5</ele><time>2026-04-03T08:40:48.754Z</time></trkpt><trkpt lat="43.3871321" lon="11.4384751"><ele>342.75</ele><time>2026-04-03T08:40:49.754Z</time></trkpt><trkpt lat="43.3870777" lon="11.4383054"><ele>343.0</ele><time>2026-04-03T08:40:50.754Z</time></trkpt><trkpt lat="43.3870236" lon="11.4381052"><ele>343.3333333333333</ele><time>2026-04-03T08:40:51.753Z</time></trkpt><trkpt lat="43.3869695" lon="11.4378887"><ele>343.6666666666667</ele><time>2026-04-03T08:40:52.753Z</time></trkpt><trkpt lat="43.3869195" lon="11.4376966"><ele>344.0</ele><time>2026-04-03T08:40:53.754Z</time></trkpt><trkpt lat="43.3868672" lon="11.4375157"><ele>344.0</ele><time>2026-04-03T08:40:54.753Z</time></trkpt><trkpt lat="43.3868183" lon="11.4373387"><ele>344.0</ele><time>2026-04-03T08:40:55.753Z</time></trkpt><trkpt lat="43.3867605" lon="11.4371583"><ele>344.0</ele><time>2026-04-03T08:40:56.754Z</time></trkpt><trkpt lat="43.3866727" lon="11.4370008"><ele>344.0</ele><time>2026-04-03T08:40:57.754Z</time></trkpt><trkpt lat="43.3865578" lon="11.4368608"><ele>342.33333333333337</ele><time>2026-04-03T08:40:58.754Z</time></trkpt><trkpt lat="43.3864361" lon="11.4367181"><ele>340.6666666666667</ele><time>2026-04-03T08:40:59.754Z</time></trkpt><trkpt lat="43.3863135" lon="11.4365725"><ele>339.0</ele><time>2026-04-03T08:41:00.754Z</time></trkpt><trkpt lat="43.3861955" lon="11.436441"><ele>339.0</ele><time>2026-04-03T08:41:01.753Z</time></trkpt><trkpt lat="43.3860865" lon="11.4363148"><ele>339.0</ele><time>2026-04-03T08:41:02.753Z</time></trkpt><trkpt lat="43.3859899" lon="11.4361876"><ele>339.0</ele><time>2026-04-03T08:41:03.753Z</time></trkpt><trkpt lat="43.3858999" lon="11.436066"><ele>339.0</ele><time>2026-04-03T08:41:04.754Z</time></trkpt><trkpt lat="43.3858053" lon="11.4359605"><ele>338.25</ele><time>2026-04-03T08:41:05.753Z</time></trkpt><trkpt lat="43.385709" lon="11.435868"><ele>337.5</ele><time>2026-04-03T08:41:06.753Z</time></trkpt><trkpt lat="43.3856069" lon="11.4357866"><ele>336.75</ele><time>2026-04-03T08:41:07.754Z</time></trkpt><trkpt lat="43.3855113" lon="11.4357149"><ele>336.0</ele><time>2026-04-03T08:41:08.753Z</time></trkpt><trkpt lat="43.38541" lon="11.4356437"><ele>334.75</ele><time>2026-04-03T08:41:09.753Z</time></trkpt><trkpt lat="43.3853152" lon="11.4355615"><ele>333.5</ele><time>2026-04-03T08:41:10.753Z</time></trkpt><trkpt lat="43.3852166" lon="11.4354711"><ele>332.25</ele><time>2026-04-03T08:41:11.753Z</time></trkpt><trkpt lat="43.3851031" lon="11.4353868"><ele>331.0</ele><time>2026-04-03T08:41:12.752Z</time></trkpt><trkpt lat="43.3849738" lon="11.4353193"><ele>330.5</ele><time>2026-04-03T08:41:13.753Z</time></trkpt><trkpt lat="43.3848467" lon="11.4352659"><ele>330.0</ele><time>2026-04-03T08:41:14.752Z</time></trkpt><trkpt lat="43.3847246" lon="11.4352252"><ele>329.5</ele><time>2026-04-03T08:41:15.752Z</time></trkpt><trkpt lat="43.3846092" lon="11.435195"><ele>329.0</ele><time>2026-04-03T08:41:16.753Z</time></trkpt><trkpt lat="43.384501" lon="11.4351679"><ele>328.0</ele><time>2026-04-03T08:41:17.753Z</time></trkpt><trkpt lat="43.3843891" lon="11.4351376"><ele>327.0</ele><time>2026-04-03T08:41:18.753Z</time></trkpt><trkpt lat="43.3842555" lon="11.4351034"><ele>326.0</ele><time>2026-04-03T08:41:19.752Z</time></trkpt><trkpt lat="43.3841175" lon="11.4350697"><ele>325.0</ele><time>2026-04-03T08:41:20.753Z</time></trkpt><trkpt lat="43.3839869" lon="11.4350375"><ele>325.0</ele><time>2026-04-03T08:41:21.753Z</time></trkpt><trkpt lat="43.3838492" lon="11.4349952"><ele>325.0</ele><time>2026-04-03T08:41:22.752Z</time></trkpt><trkpt lat="43.3836914" lon="11.4349434"><ele>325.0</ele><time>2026-04-03T08:41:23.753Z</time></trkpt><trkpt lat="43.3835195" lon="11.4348568"><ele>324.66666666666663</ele><time>2026-04-03T08:41:24.753Z</time></trkpt><trkpt lat="43.3833573" lon="11.4347413"><ele>324.3333333333333</ele><time>2026-04-03T08:41:25.752Z</time></trkpt><trkpt lat="43.3832184" lon="11.4346326"><ele>324.0</ele><time>2026-04-03T08:41:26.752Z</time></trkpt><trkpt lat="43.3830912" lon="11.4345198"><ele>324.75</ele><time>2026-04-03T08:41:27.753Z</time></trkpt><trkpt lat="43.3829698" lon="11.4344093"><ele>325.5</ele><time>2026-04-03T08:41:28.753Z</time></trkpt><trkpt lat="43.382856" lon="11.4343065"><ele>326.25</ele><time>2026-04-03T08:41:29.753Z</time></trkpt><trkpt lat="43.3827355" lon="11.434222"><ele>327.0</ele><time>2026-04-03T08:41:30.753Z</time></trkpt><trkpt lat="43.3826047" lon="11.4341604"><ele>327.0</ele><time>2026-04-03T08:41:31.753Z</time></trkpt><trkpt lat="43.3824648" lon="11.434121"><ele>327.0</ele><time>2026-04-03T08:41:32.753Z</time></trkpt><trkpt lat="43.3823239" lon="11.4340894"><ele>327.0</ele><time>2026-04-03T08:41:33.753Z</time></trkpt><trkpt lat="43.3821751" lon="11.4340631"><ele>327.0</ele><time>2026-04-03T08:41:34.753Z</time></trkpt><trkpt lat="43.3820373" lon="11.4340459"><ele>326.5</ele><time>2026-04-03T08:41:35.753Z</time></trkpt><trkpt lat="43.381916" lon="11.4340309"><ele>326.0</ele><time>2026-04-03T08:41:36.752Z</time></trkpt><trkpt lat="43.3818056" lon="11.4340048"><ele>325.5</ele><time>2026-04-03T08:41:37.753Z</time></trkpt><trkpt lat="43.3816966" lon="11.4339653"><ele>325.0</ele><time>2026-04-03T08:41:38.753Z</time></trkpt><trkpt lat="43.3815826" lon="11.4339062"><ele>325.0</ele><time>2026-04-03T08:41:39.752Z</time></trkpt><trkpt lat="43.3814674" lon="11.433833"><ele>325.0</ele><time>2026-04-03T08:41:40.753Z</time></trkpt><trkpt lat="43.3813548" lon="11.4337596"><ele>325.0</ele><time>2026-04-03T08:41:41.752Z</time></trkpt><trkpt lat="43.3812512" lon="11.4336901"><ele>325.0</ele><time>2026-04-03T08:41:42.753Z</time></trkpt><trkpt lat="43.3811489" lon="11.433625"><ele>323.0</ele><time>2026-04-03T08:41:43.753Z</time></trkpt><trkpt lat="43.3810554" lon="11.433538"><ele>321.0</ele><time>2026-04-03T08:41:44.753Z</time></trkpt><trkpt lat="43.380963" lon="11.4334397"><ele>319.0</ele><time>2026-04-03T08:41:45.752Z</time></trkpt><trkpt lat="43.3808658" lon="11.4333202"><ele>317.0</ele><time>2026-04-03T08:41:46.753Z</time></trkpt><trkpt lat="43.3807759" lon="11.433171"><ele>317.0</ele><time>2026-04-03T08:41:47.752Z</time></trkpt><trkpt lat="43.380701" lon="11.4330054"><ele>317.0</ele><time>2026-04-03T08:41:48.752Z</time></trkpt><trkpt lat="43.3806272" lon="11.4328808"><ele>317.0</ele><time>2026-04-03T08:41:49.753Z</time></trkpt><trkpt lat="43.3805457" lon="11.4328101"><ele>317.0</ele><time>2026-04-03T08:41:50.753Z</time></trkpt><trkpt lat="43.3804501" lon="11.4327592"><ele>317.8</ele><time>2026-04-03T08:41:51.753Z</time></trkpt><trkpt lat="43.3803552" lon="11.4327258"><ele>318.6</ele><time>2026-04-03T08:41:52.753Z</time></trkpt><trkpt lat="43.3802726" lon="11.4326962"><ele>319.40000000000003</ele><time>2026-04-03T08:41:53.753Z</time></trkpt><trkpt lat="43.3801963" lon="11.4326692"><ele>320.2</ele><time>2026-04-03T08:41:54.752Z</time></trkpt><trkpt lat="43.3800741" lon="11.4326431"><ele>321.0</ele><time>2026-04-03T08:41:56.753Z</time></trkpt><trkpt lat="43.3799959" lon="11.4326382"><ele>321.0</ele><time>2026-04-03T08:41:57.753Z</time></trkpt><trkpt lat="43.3798981" lon="11.4326231"><ele>321.0</ele><time>2026-04-03T08:41:58.753Z</time></trkpt><trkpt lat="43.3797836" lon="11.4326039"><ele>321.0</ele><time>2026-04-03T08:41:59.753Z</time></trkpt><trkpt lat="43.3796557" lon="11.4325703"><ele>321.0</ele><time>2026-04-03T08:42:00.753Z</time></trkpt><trkpt lat="43.3795204" lon="11.4325162"><ele>320.25</ele><time>2026-04-03T08:42:01.753Z</time></trkpt><trkpt lat="43.3793778" lon="11.4324592"><ele>319.5</ele><time>2026-04-03T08:42:02.752Z</time></trkpt><trkpt lat="43.3792355" lon="11.4323947"><ele>318.75</ele><time>2026-04-03T08:42:03.753Z</time></trkpt><trkpt lat="43.3790923" lon="11.4323375"><ele>318.0</ele><time>2026-04-03T08:42:04.752Z</time></trkpt><trkpt lat="43.378946" lon="11.4322767"><ele>317.75</ele><time>2026-04-03T08:42:05.752Z</time></trkpt><trkpt lat="43.3788111" lon="11.4322141"><ele>317.5</ele><time>2026-04-03T08:42:06.752Z</time></trkpt><trkpt lat="43.3786782" lon="11.432147"><ele>317.25</ele><time>2026-04-03T08:42:07.752Z</time></trkpt><trkpt lat="43.3785424" lon="11.4320677"><ele>317.0</ele><time>2026-04-03T08:42:08.752Z</time></trkpt><trkpt lat="43.3783999" lon="11.4319894"><ele>317.0</ele><time>2026-04-03T08:42:09.752Z</time></trkpt><trkpt lat="43.3782533" lon="11.4319091"><ele>317.0</ele><time>2026-04-03T08:42:10.753Z</time></trkpt><trkpt lat="43.3781028" lon="11.4318337"><ele>317.0</ele><time>2026-04-03T08:42:11.753Z</time></trkpt><trkpt lat="43.3779507" lon="11.4317459"><ele>317.6666666666667</ele><time>2026-04-03T08:42:12.753Z</time></trkpt><trkpt lat="43.3777879" lon="11.4316679"><ele>318.3333333333333</ele><time>2026-04-03T08:42:13.752Z</time></trkpt><trkpt lat="43.3776306" lon="11.4315834"><ele>319.0</ele><time>2026-04-03T08:42:14.753Z</time></trkpt><trkpt lat="43.3774793" lon="11.4315177"><ele>319.0</ele><time>2026-04-03T08:42:15.753Z</time></trkpt><trkpt lat="43.3773306" lon="11.4314623"><ele>319.0</ele><time>2026-04-03T08:42:16.752Z</time></trkpt><trkpt lat="43.3771718" lon="11.4314276"><ele>319.0</ele><time>2026-04-03T08:42:17.753Z</time></trkpt><trkpt lat="43.3770109" lon="11.4313948"><ele>318.0</ele><time>2026-04-03T08:42:18.752Z</time></trkpt><trkpt lat="43.3768491" lon="11.4313719"><ele>317.0</ele><time>2026-04-03T08:42:19.753Z</time></trkpt><trkpt lat="43.3766871" lon="11.4313514"><ele>316.0</ele><time>2026-04-03T08:42:20.752Z</time></trkpt><trkpt lat="43.3765226" lon="11.4313265"><ele>315.0</ele><time>2026-04-03T08:42:21.753Z</time></trkpt><trkpt lat="43.3763578" lon="11.4312949"><ele>314.0</ele><time>2026-04-03T08:42:22.752Z</time></trkpt><trkpt lat="43.3761959" lon="11.4312576"><ele>313.0</ele><time>2026-04-03T08:42:23.752Z</time></trkpt><trkpt lat="43.3760292" lon="11.4312198"><ele>313.0</ele><time>2026-04-03T08:42:24.752Z</time></trkpt><trkpt lat="43.3758725" lon="11.4311672"><ele>313.0</ele><time>2026-04-03T08:42:25.752Z</time></trkpt><trkpt lat="43.3757167" lon="11.4310898"><ele>313.0</ele><time>2026-04-03T08:42:26.753Z</time></trkpt><trkpt lat="43.3755489" lon="11.4309732"><ele>310.0</ele><time>2026-04-03T08:42:27.752Z</time></trkpt><trkpt lat="43.3753764" lon="11.4308443"><ele>307.0</ele><time>2026-04-03T08:42:28.753Z</time></trkpt><trkpt lat="43.3752014" lon="11.4307293"><ele>304.0</ele><time>2026-04-03T08:42:29.753Z</time></trkpt><trkpt lat="43.3750293" lon="11.4306324"><ele>304.0</ele><time>2026-04-03T08:42:30.753Z</time></trkpt><trkpt lat="43.3748527" lon="11.4305539"><ele>304.0</ele><time>2026-04-03T08:42:31.753Z</time></trkpt><trkpt lat="43.3746641" lon="11.4304782"><ele>304.0</ele><time>2026-04-03T08:42:32.753Z</time></trkpt><trkpt lat="43.3744689" lon="11.4304074"><ele>304.3333333333333</ele><time>2026-04-03T08:42:33.752Z</time></trkpt><trkpt lat="43.3742675" lon="11.4303427"><ele>304.6666666666667</ele><time>2026-04-03T08:42:34.753Z</time></trkpt><trkpt lat="43.3740612" lon="11.4302744"><ele>305.0</ele><time>2026-04-03T08:42:35.753Z</time></trkpt><trkpt lat="43.3738614" lon="11.4301982"><ele>304.6666666666667</ele><time>2026-04-03T08:42:36.752Z</time></trkpt><trkpt lat="43.3736697" lon="11.4301105"><ele>304.3333333333333</ele><time>2026-04-03T08:42:37.753Z</time></trkpt><trkpt lat="43.3734802" lon="11.4300144"><ele>304.0</ele><time>2026-04-03T08:42:38.753Z</time></trkpt><trkpt lat="43.3732953" lon="11.4299108"><ele>304.0</ele><time>2026-04-03T08:42:39.753Z</time></trkpt><trkpt lat="43.3731049" lon="11.4297984"><ele>304.0</ele><time>2026-04-03T08:42:40.753Z</time></trkpt><trkpt lat="43.3729192" lon="11.4296928"><ele>304.0</ele><time>2026-04-03T08:42:41.752Z</time></trkpt><trkpt lat="43.3727309" lon="11.4295866"><ele>301.66666666666663</ele><time>2026-04-03T08:42:42.753Z</time></trkpt><trkpt lat="43.372542" lon="11.4294804"><ele>299.3333333333333</ele><time>2026-04-03T08:42:43.752Z</time></trkpt><trkpt lat="43.3723545" lon="11.4293745"><ele>297.0</ele><time>2026-04-03T08:42:44.753Z</time></trkpt><trkpt lat="43.3721674" lon="11.4292665"><ele>295.6666666666667</ele><time>2026-04-03T08:42:45.752Z</time></trkpt><trkpt lat="43.3719788" lon="11.4291643"><ele>294.33333333333337</ele><time>2026-04-03T08:42:46.752Z</time></trkpt><trkpt lat="43.3717983" lon="11.4290674"><ele>293.0</ele><time>2026-04-03T08:42:47.752Z</time></trkpt><trkpt lat="43.3716259" lon="11.4289705"><ele>293.0</ele><time>2026-04-03T08:42:48.753Z</time></trkpt><trkpt lat="43.3714516" lon="11.4288845"><ele>293.0</ele><time>2026-04-03T08:42:49.753Z</time></trkpt><trkpt lat="43.3712713" lon="11.4288152"><ele>293.0</ele><time>2026-04-03T08:42:50.753Z</time></trkpt><trkpt lat="43.3710805" lon="11.4287619"><ele>293.33333333333337</ele><time>2026-04-03T08:42:51.752Z</time></trkpt><trkpt lat="43.3708805" lon="11.4287202"><ele>293.6666666666667</ele><time>2026-04-03T08:42:52.753Z</time></trkpt><trkpt lat="43.3706727" lon="11.4286873"><ele>294.0</ele><time>2026-04-03T08:42:53.753Z</time></trkpt><trkpt lat="43.3704591" lon="11.4286547"><ele>291.6666666666667</ele><time>2026-04-03T08:42:54.753Z</time></trkpt><trkpt lat="43.3702409" lon="11.4286251"><ele>289.33333333333337</ele><time>2026-04-03T08:42:55.753Z</time></trkpt><trkpt lat="43.3700222" lon="11.4286003"><ele>287.0</ele><time>2026-04-03T08:42:56.752Z</time></trkpt><trkpt lat="43.3698088" lon="11.4285759"><ele>285.33333333333337</ele><time>2026-04-03T08:42:57.753Z</time></trkpt><trkpt lat="43.3695964" lon="11.428555"><ele>283.6666666666667</ele><time>2026-04-03T08:42:58.753Z</time></trkpt><trkpt lat="43.3693885" lon="11.4285338"><ele>282.0</ele><time>2026-04-03T08:42:59.752Z</time></trkpt><trkpt lat="43.3691865" lon="11.4285205"><ele>282.0</ele><time>2026-04-03T08:43:00.752Z</time></trkpt><trkpt lat="43.3690016" lon="11.428512"><ele>282.0</ele><time>2026-04-03T08:43:01.753Z</time></trkpt><trkpt lat="43.3688359" lon="11.4284848"><ele>282.0</ele><time>2026-04-03T08:43:02.752Z</time></trkpt><trkpt lat="43.368679" lon="11.4284174"><ele>282.6666666666667</ele><time>2026-04-03T08:43:03.753Z</time></trkpt><trkpt lat="43.3685188" lon="11.4283242"><ele>283.33333333333337</ele><time>2026-04-03T08:43:04.753Z</time></trkpt><trkpt lat="43.3683688" lon="11.4281931"><ele>284.0</ele><time>2026-04-03T08:43:05.752Z</time></trkpt><trkpt lat="43.3682375" lon="11.4280285"><ele>283.6666666666667</ele><time>2026-04-03T08:43:06.753Z</time></trkpt><trkpt lat="43.3681336" lon="11.4278296"><ele>283.3333333333333</ele><time>2026-04-03T08:43:07.753Z</time></trkpt><trkpt lat="43.3680592" lon="11.4275967"><ele>283.0</ele><time>2026-04-03T08:43:08.752Z</time></trkpt><trkpt lat="43.3679952" lon="11.4273648"><ele>283.0</ele><time>2026-04-03T08:43:09.753Z</time></trkpt><trkpt lat="43.367926" lon="11.427169"><ele>283.0</ele><time>2026-04-03T08:43:10.752Z</time></trkpt><trkpt lat="43.3678431" lon="11.4270115"><ele>283.0</ele><time>2026-04-03T08:43:11.753Z</time></trkpt><trkpt lat="43.3677369" lon="11.4268983"><ele>283.0</ele><time>2026-04-03T08:43:12.753Z</time></trkpt><trkpt lat="43.3676087" lon="11.4268126"><ele>283.3333333333333</ele><time>2026-04-03T08:43:13.753Z</time></trkpt><trkpt lat="43.3674524" lon="11.4267454"><ele>283.6666666666667</ele><time>2026-04-03T08:43:14.752Z</time></trkpt><trkpt lat="43.3672782" lon="11.4266694"><ele>284.0</ele><time>2026-04-03T08:43:15.753Z</time></trkpt><trkpt lat="43.3670919" lon="11.4265876"><ele>285.6666666666667</ele><time>2026-04-03T08:43:16.753Z</time></trkpt><trkpt lat="43.3669034" lon="11.4264984"><ele>287.3333333333333</ele><time>2026-04-03T08:43:17.753Z</time></trkpt><trkpt lat="43.3667174" lon="11.4264189"><ele>289.0</ele><time>2026-04-03T08:43:18.753Z</time></trkpt><trkpt lat="43.3665329" lon="11.4263832"><ele>288.3333333333333</ele><time>2026-04-03T08:43:19.753Z</time></trkpt><trkpt lat="43.3663527" lon="11.4263857"><ele>287.6666666666667</ele><time>2026-04-03T08:43:20.752Z</time></trkpt><trkpt lat="43.3661797" lon="11.4263978"><ele>287.0</ele><time>2026-04-03T08:43:21.752Z</time></trkpt><trkpt lat="43.3660378" lon="11.426396"><ele>287.0</ele><time>2026-04-03T08:43:22.753Z</time></trkpt><trkpt lat="43.3659207" lon="11.4263691"><ele>287.0</ele><time>2026-04-03T08:43:23.753Z</time></trkpt><trkpt lat="43.3658268" lon="11.4263051"><ele>287.0</ele><time>2026-04-03T08:43:24.752Z</time></trkpt><trkpt lat="43.3657413" lon="11.4261962"><ele>287.0</ele><time>2026-04-03T08:43:25.752Z</time></trkpt><trkpt lat="43.3656574" lon="11.4260512"><ele>288.0</ele><time>2026-04-03T08:43:26.753Z</time></trkpt><trkpt lat="43.3655552" lon="11.4258941"><ele>289.0</ele><time>2026-04-03T08:43:27.753Z</time></trkpt><trkpt lat="43.3654439" lon="11.4257171"><ele>290.0</ele><time>2026-04-03T08:43:28.752Z</time></trkpt><trkpt lat="43.3653148" lon="11.4255108"><ele>287.0</ele><time>2026-04-03T08:43:29.753Z</time></trkpt><trkpt lat="43.365164" lon="11.4252992"><ele>284.0</ele><time>2026-04-03T08:43:30.753Z</time></trkpt><trkpt lat="43.3650263" lon="11.4250767"><ele>281.0</ele><time>2026-04-03T08:43:31.753Z</time></trkpt><trkpt lat="43.3649007" lon="11.4248654"><ele>281.0</ele><time>2026-04-03T08:43:32.752Z</time></trkpt><trkpt lat="43.3647981" lon="11.4246934"><ele>281.0</ele><time>2026-04-03T08:43:33.753Z</time></trkpt><trkpt lat="43.3647254" lon="11.4245194"><ele>281.0</ele><time>2026-04-03T08:43:34.752Z</time></trkpt><trkpt lat="43.3646634" lon="11.4243348"><ele>280.0</ele><time>2026-04-03T08:43:35.752Z</time></trkpt><trkpt lat="43.3646067" lon="11.4241334"><ele>279.0</ele><time>2026-04-03T08:43:36.753Z</time></trkpt><trkpt lat="43.3645597" lon="11.4239014"><ele>278.0</ele><time>2026-04-03T08:43:37.753Z</time></trkpt><trkpt lat="43.3645354" lon="11.4236261"><ele>275.6666666666667</ele><time>2026-04-03T08:43:38.753Z</time></trkpt><trkpt lat="43.3645127" lon="11.4233357"><ele>273.3333333333333</ele><time>2026-04-03T08:43:39.753Z</time></trkpt><trkpt lat="43.364497" lon="11.4230247"><ele>271.0</ele><time>2026-04-03T08:43:40.752Z</time></trkpt><trkpt lat="43.3644777" lon="11.4227017"><ele>268.66666666666663</ele><time>2026-04-03T08:43:41.753Z</time></trkpt><trkpt lat="43.3644609" lon="11.4223849"><ele>266.3333333333333</ele><time>2026-04-03T08:43:42.753Z</time></trkpt><trkpt lat="43.3644518" lon="11.4220942"><ele>264.0</ele><time>2026-04-03T08:43:43.752Z</time></trkpt><trkpt lat="43.3644423" lon="11.4218338"><ele>261.6666666666667</ele><time>2026-04-03T08:43:44.752Z</time></trkpt><trkpt lat="43.3644255" lon="11.4215894"><ele>259.33333333333337</ele><time>2026-04-03T08:43:45.752Z</time></trkpt><trkpt lat="43.3643848" lon="11.4213549"><ele>257.0</ele><time>2026-04-03T08:43:46.753Z</time></trkpt><trkpt lat="43.3643189" lon="11.4211259"><ele>256.6666666666667</ele><time>2026-04-03T08:43:47.753Z</time></trkpt><trkpt lat="43.3642391" lon="11.4208913"><ele>256.3333333333333</ele><time>2026-04-03T08:43:48.753Z</time></trkpt><trkpt lat="43.3641778" lon="11.4206777"><ele>256.0</ele><time>2026-04-03T08:43:49.752Z</time></trkpt><trkpt lat="43.3641345" lon="11.4204727"><ele>255.5</ele><time>2026-04-03T08:43:50.753Z</time></trkpt><trkpt lat="43.3641041" lon="11.4202727"><ele>255.0</ele><time>2026-04-03T08:43:51.752Z</time></trkpt><trkpt lat="43.3640826" lon="11.4200792"><ele>254.5</ele><time>2026-04-03T08:43:52.753Z</time></trkpt><trkpt lat="43.3640671" lon="11.4198913"><ele>254.0</ele><time>2026-04-03T08:43:53.753Z</time></trkpt><trkpt lat="43.3640527" lon="11.4196967"><ele>253.0</ele><time>2026-04-03T08:43:54.752Z</time></trkpt><trkpt lat="43.3640369" lon="11.4194998"><ele>252.0</ele><time>2026-04-03T08:43:55.752Z</time></trkpt><trkpt lat="43.3640283" lon="11.4193035"><ele>251.0</ele><time>2026-04-03T08:43:56.752Z</time></trkpt><trkpt lat="43.3640254" lon="11.4191298"><ele>250.0</ele><time>2026-04-03T08:43:57.752Z</time></trkpt><trkpt lat="43.3640268" lon="11.4189795"><ele>249.99999999999997</ele><time>2026-04-03T08:43:58.753Z</time></trkpt><trkpt lat="43.3640229" lon="11.4188623"><ele>250.0</ele><time>2026-04-03T08:43:59.753Z</time></trkpt><trkpt lat="43.3639998" lon="11.4187644"><ele>250.0</ele><time>2026-04-03T08:44:00.752Z</time></trkpt><trkpt lat="43.3639573" lon="11.4186943"><ele>250.0</ele><time>2026-04-03T08:44:01.753Z</time></trkpt><trkpt lat="43.3638994" lon="11.4186426"><ele>249.99999999999997</ele><time>2026-04-03T08:44:02.752Z</time></trkpt><trkpt lat="43.363803" lon="11.4186094"><ele>250.0</ele><time>2026-04-03T08:44:04.752Z</time></trkpt><trkpt lat="43.363735" lon="11.41854"><ele>248.0</ele><time>2026-04-03T08:44:07.753Z</time></trkpt><trkpt lat="43.3636641" lon="11.4184859"><ele>246.0</ele><time>2026-04-03T08:44:18.752Z</time></trkpt><trkpt lat="43.363589" lon="11.418485"><ele>244.0</ele><time>2026-04-03T08:44:19.753Z</time></trkpt><trkpt lat="43.3634966" lon="11.4184939"><ele>242.0</ele><time>2026-04-03T08:44:20.752Z</time></trkpt><trkpt lat="43.3633704" lon="11.4184852"><ele>240.0</ele><time>2026-04-03T08:44:21.753Z</time></trkpt><trkpt lat="43.3632241" lon="11.4184709"><ele>240.0</ele><time>2026-04-03T08:44:22.753Z</time></trkpt><trkpt lat="43.3630599" lon="11.4184479"><ele>240.0</ele><time>2026-04-03T08:44:23.753Z</time></trkpt><trkpt lat="43.3628771" lon="11.4184007"><ele>240.0</ele><time>2026-04-03T08:44:24.753Z</time></trkpt><trkpt lat="43.3626948" lon="11.4183353"><ele>239.0</ele><time>2026-04-03T08:44:25.753Z</time></trkpt><trkpt lat="43.3625302" lon="11.4182773"><ele>238.0</ele><time>2026-04-03T08:44:26.752Z</time></trkpt><trkpt lat="43.3623741" lon="11.4182559"><ele>237.0</ele><time>2026-04-03T08:44:27.753Z</time></trkpt><trkpt lat="43.3622417" lon="11.4182938"><ele>235.0</ele><time>2026-04-03T08:44:28.753Z</time></trkpt><trkpt lat="43.362114" lon="11.4184008"><ele>233.0</ele><time>2026-04-03T08:44:29.752Z</time></trkpt><trkpt lat="43.3619842" lon="11.418568"><ele>231.0</ele><time>2026-04-03T08:44:30.753Z</time></trkpt><trkpt lat="43.3618504" lon="11.4187711"><ele>233.33333333333331</ele><time>2026-04-03T08:44:31.752Z</time></trkpt><trkpt lat="43.3617332" lon="11.4189312"><ele>235.66666666666666</ele><time>2026-04-03T08:44:32.753Z</time></trkpt><trkpt lat="43.3616069" lon="11.4190621"><ele>238.0</ele><time>2026-04-03T08:44:33.752Z</time></trkpt><trkpt lat="43.3614537" lon="11.4191695"><ele>236.0</ele><time>2026-04-03T08:44:34.753Z</time></trkpt><trkpt lat="43.3612694" lon="11.419243"><ele>234.0</ele><time>2026-04-03T08:44:35.753Z</time></trkpt><trkpt lat="43.3610433" lon="11.4193192"><ele>232.0</ele><time>2026-04-03T08:44:36.752Z</time></trkpt><trkpt lat="43.3607848" lon="11.4194171"><ele>231.0</ele><time>2026-04-03T08:44:37.753Z</time></trkpt><trkpt lat="43.3605041" lon="11.4195262"><ele>230.0</ele><time>2026-04-03T08:44:38.753Z</time></trkpt><trkpt lat="43.3602463" lon="11.4196194"><ele>231.0</ele><time>2026-04-03T08:44:39.753Z</time></trkpt><trkpt lat="43.3600059" lon="11.419714"><ele>232.0</ele><time>2026-04-03T08:44:40.753Z</time></trkpt><trkpt lat="43.3597802" lon="11.4198006"><ele>230.66666666666666</ele><time>2026-04-03T08:44:41.752Z</time></trkpt><trkpt lat="43.3595656" lon="11.4198739"><ele>229.33333333333331</ele><time>2026-04-03T08:44:42.753Z</time></trkpt><trkpt lat="43.3593797" lon="11.4199306"><ele>228.0</ele><time>2026-04-03T08:44:43.753Z</time></trkpt><trkpt lat="43.3592264" lon="11.4199542"><ele>228.0</ele><time>2026-04-03T08:44:44.753Z</time></trkpt><trkpt lat="43.3590779" lon="11.4199392"><ele>228.0</ele><time>2026-04-03T08:44:45.753Z</time></trkpt><trkpt lat="43.3589629" lon="11.4198512"><ele>228.0</ele><time>2026-04-03T08:44:46.752Z</time></trkpt><trkpt lat="43.3588412" lon="11.4196796"><ele>226.0</ele><time>2026-04-03T08:44:47.753Z</time></trkpt><trkpt lat="43.3587131" lon="11.4194813"><ele>224.0</ele><time>2026-04-03T08:44:48.752Z</time></trkpt><trkpt lat="43.3585782" lon="11.4192831"><ele>222.0</ele><time>2026-04-03T08:44:49.752Z</time></trkpt><trkpt lat="43.3584581" lon="11.4191004"><ele>222.0</ele><time>2026-04-03T08:44:50.753Z</time></trkpt><trkpt lat="43.3583394" lon="11.4189224"><ele>222.0</ele><time>2026-04-03T08:44:51.752Z</time></trkpt><trkpt lat="43.358214" lon="11.4187434"><ele>222.0</ele><time>2026-04-03T08:44:52.753Z</time></trkpt><trkpt lat="43.3580979" lon="11.4185597"><ele>221.0</ele><time>2026-04-03T08:44:53.752Z</time></trkpt><trkpt lat="43.3579833" lon="11.4183915"><ele>220.0</ele><time>2026-04-03T08:44:54.752Z</time></trkpt><trkpt lat="43.3578756" lon="11.4182371"><ele>219.0</ele><time>2026-04-03T08:44:55.753Z</time></trkpt><trkpt lat="43.3577729" lon="11.4180768"><ele>219.33333333333331</ele><time>2026-04-03T08:44:56.753Z</time></trkpt><trkpt lat="43.3576713" lon="11.4179179"><ele>219.66666666666666</ele><time>2026-04-03T08:44:57.752Z</time></trkpt><trkpt lat="43.3575691" lon="11.4177652"><ele>220.0</ele><time>2026-04-03T08:44:58.753Z</time></trkpt><trkpt lat="43.3574684" lon="11.4176118"><ele>220.0</ele><time>2026-04-03T08:44:59.753Z</time></trkpt><trkpt lat="43.3573713" lon="11.4174679"><ele>220.0</ele><time>2026-04-03T08:45:00.753Z</time></trkpt><trkpt lat="43.3572847" lon="11.4173355"><ele>220.0</ele><time>2026-04-03T08:45:01.753Z</time></trkpt><trkpt lat="43.357207" lon="11.4172125"><ele>220.0</ele><time>2026-04-03T08:45:02.753Z</time></trkpt><trkpt lat="43.3571347" lon="11.4170972"><ele>219.8</ele><time>2026-04-03T08:45:03.752Z</time></trkpt><trkpt lat="43.3570684" lon="11.4169875"><ele>219.6</ele><time>2026-04-03T08:45:04.752Z</time></trkpt><trkpt lat="43.3570113" lon="11.4169031"><ele>219.39999999999998</ele><time>2026-04-03T08:45:05.753Z</time></trkpt><trkpt lat="43.3569615" lon="11.416824"><ele>219.2</ele><time>2026-04-03T08:45:06.753Z</time></trkpt><trkpt lat="43.3568933" lon="11.4167131"><ele>219.0</ele><time>2026-04-03T08:45:07.753Z</time></trkpt><trkpt lat="43.3568027" lon="11.4165777"><ele>219.0</ele><time>2026-04-03T08:45:08.753Z</time></trkpt><trkpt lat="43.3567044" lon="11.4164135"><ele>219.0</ele><time>2026-04-03T08:45:09.752Z</time></trkpt><trkpt lat="43.3566083" lon="11.4162469"><ele>219.0</ele><time>2026-04-03T08:45:10.753Z</time></trkpt><trkpt lat="43.3565184" lon="11.4161056"><ele>219.0</ele><time>2026-04-03T08:45:11.753Z</time></trkpt><trkpt lat="43.3564343" lon="11.4159815"><ele>219.75</ele><time>2026-04-03T08:45:12.752Z</time></trkpt><trkpt lat="43.3563467" lon="11.4158981"><ele>220.5</ele><time>2026-04-03T08:45:13.752Z</time></trkpt><trkpt lat="43.3562343" lon="11.4158725"><ele>221.25</ele><time>2026-04-03T08:45:14.752Z</time></trkpt><trkpt lat="43.356106" lon="11.4158906"><ele>222.0</ele><time>2026-04-03T08:45:15.752Z</time></trkpt><trkpt lat="43.3559715" lon="11.4159372"><ele>222.0</ele><time>2026-04-03T08:45:16.752Z</time></trkpt><trkpt lat="43.3558366" lon="11.4160138"><ele>222.0</ele><time>2026-04-03T08:45:17.752Z</time></trkpt><trkpt lat="43.3557071" lon="11.4161044"><ele>222.0</ele><time>2026-04-03T08:45:18.753Z</time></trkpt><trkpt lat="43.3555817" lon="11.4161781"><ele>222.0</ele><time>2026-04-03T08:45:19.753Z</time></trkpt><trkpt lat="43.3554576" lon="11.4162303"><ele>223.25</ele><time>2026-04-03T08:45:20.752Z</time></trkpt><trkpt lat="43.3553211" lon="11.4162519"><ele>224.5</ele><time>2026-04-03T08:45:21.753Z</time></trkpt><trkpt lat="43.3551878" lon="11.4162381"><ele>225.75</ele><time>2026-04-03T08:45:22.752Z</time></trkpt><trkpt lat="43.355035" lon="11.4162086"><ele>227.0</ele><time>2026-04-03T08:45:23.752Z</time></trkpt><trkpt lat="43.3548762" lon="11.4161956"><ele>227.0</ele><time>2026-04-03T08:45:24.753Z</time></trkpt><trkpt lat="43.3547129" lon="11.416182"><ele>227.0</ele><time>2026-04-03T08:45:25.753Z</time></trkpt><trkpt lat="43.3545509" lon="11.4161628"><ele>227.0</ele><time>2026-04-03T08:45:26.753Z</time></trkpt><trkpt lat="43.35439" lon="11.4161457"><ele>226.33333333333334</ele><time>2026-04-03T08:45:27.752Z</time></trkpt><trkpt lat="43.3542291" lon="11.4161246"><ele>225.66666666666669</ele><time>2026-04-03T08:45:28.752Z</time></trkpt><trkpt lat="43.3540711" lon="11.4161111"><ele>225.0</ele><time>2026-04-03T08:45:29.753Z</time></trkpt><trkpt lat="43.3539148" lon="11.4160956"><ele>224.33333333333331</ele><time>2026-04-03T08:45:30.753Z</time></trkpt><trkpt lat="43.3537595" lon="11.4160684"><ele>223.66666666666666</ele><time>2026-04-03T08:45:31.753Z</time></trkpt><trkpt lat="43.3536056" lon="11.4160327"><ele>223.0</ele><time>2026-04-03T08:45:32.753Z</time></trkpt><trkpt lat="43.3534489" lon="11.4159866"><ele>223.0</ele><time>2026-04-03T08:45:33.753Z</time></trkpt><trkpt lat="43.3532933" lon="11.4159406"><ele>223.0</ele><time>2026-04-03T08:45:34.753Z</time></trkpt><trkpt lat="43.3531346" lon="11.415898"><ele>223.0</ele><time>2026-04-03T08:45:35.753Z</time></trkpt><trkpt lat="43.3529775" lon="11.4158552"><ele>223.0</ele><time>2026-04-03T08:45:36.753Z</time></trkpt><trkpt lat="43.3528247" lon="11.415819"><ele>223.0</ele><time>2026-04-03T08:45:37.753Z</time></trkpt><trkpt lat="43.3526849" lon="11.4157755"><ele>223.0</ele><time>2026-04-03T08:45:38.753Z</time></trkpt><trkpt lat="43.3525545" lon="11.4157424"><ele>223.0</ele><time>2026-04-03T08:45:39.753Z</time></trkpt><trkpt lat="43.3524311" lon="11.415708"><ele>223.0</ele><time>2026-04-03T08:45:40.753Z</time></trkpt><trkpt lat="43.3523207" lon="11.4156811"><ele>223.0</ele><time>2026-04-03T08:45:41.752Z</time></trkpt><trkpt lat="43.3522155" lon="11.4156524"><ele>223.0</ele><time>2026-04-03T08:45:42.753Z</time></trkpt><trkpt lat="43.3521171" lon="11.4156243"><ele>223.0</ele><time>2026-04-03T08:45:43.753Z</time></trkpt><trkpt lat="43.3520123" lon="11.415602"><ele>223.0</ele><time>2026-04-03T08:45:44.753Z</time></trkpt><trkpt lat="43.3519023" lon="11.4155639"><ele>222.5</ele><time>2026-04-03T08:45:45.752Z</time></trkpt><trkpt lat="43.3517821" lon="11.4155231"><ele>222.0</ele><time>2026-04-03T08:45:46.753Z</time></trkpt><trkpt lat="43.351653" lon="11.4154822"><ele>221.5</ele><time>2026-04-03T08:45:47.753Z</time></trkpt><trkpt lat="43.3515132" lon="11.4154401"><ele>221.0</ele><time>2026-04-03T08:45:48.753Z</time></trkpt><trkpt lat="43.3513628" lon="11.4153958"><ele>220.66666666666669</ele><time>2026-04-03T08:45:49.752Z</time></trkpt><trkpt lat="43.3511975" lon="11.4153492"><ele>220.33333333333331</ele><time>2026-04-03T08:45:50.753Z</time></trkpt><trkpt lat="43.3510258" lon="11.4153019"><ele>220.0</ele><time>2026-04-03T08:45:51.753Z</time></trkpt><trkpt lat="43.3508489" lon="11.4152492"><ele>220.0</ele><time>2026-04-03T08:45:52.752Z</time></trkpt><trkpt lat="43.3506703" lon="11.4152023"><ele>220.0</ele><time>2026-04-03T08:45:53.753Z</time></trkpt><trkpt lat="43.350504" lon="11.4151696"><ele>220.0</ele><time>2026-04-03T08:45:54.753Z</time></trkpt><trkpt lat="43.3503558" lon="11.4151173"><ele>220.5</ele><time>2026-04-03T08:45:55.752Z</time></trkpt><trkpt lat="43.3502278" lon="11.4150468"><ele>221.0</ele><time>2026-04-03T08:45:56.753Z</time></trkpt><trkpt lat="43.3501076" lon="11.4149381"><ele>221.5</ele><time>2026-04-03T08:45:57.752Z</time></trkpt><trkpt lat="43.350002" lon="11.4148018"><ele>222.0</ele><time>2026-04-03T08:45:58.752Z</time></trkpt><trkpt lat="43.3498987" lon="11.4146292"><ele>222.0</ele><time>2026-04-03T08:45:59.753Z</time></trkpt><trkpt lat="43.3497897" lon="11.4144451"><ele>222.0</ele><time>2026-04-03T08:46:00.752Z</time></trkpt><trkpt lat="43.3496771" lon="11.4142411"><ele>222.0</ele><time>2026-04-03T08:46:01.752Z</time></trkpt><trkpt lat="43.3495669" lon="11.414011"><ele>223.66666666666669</ele><time>2026-04-03T08:46:02.753Z</time></trkpt><trkpt lat="43.3494745" lon="11.4137548"><ele>225.33333333333334</ele><time>2026-04-03T08:46:03.753Z</time></trkpt><trkpt lat="43.3493898" lon="11.4134833"><ele>227.0</ele><time>2026-04-03T08:46:04.753Z</time></trkpt><trkpt lat="43.349278" lon="11.4132553"><ele>227.0</ele><time>2026-04-03T08:46:05.753Z</time></trkpt><trkpt lat="43.3491417" lon="11.4130464"><ele>227.0</ele><time>2026-04-03T08:46:06.753Z</time></trkpt><trkpt lat="43.3489908" lon="11.412844"><ele>227.0</ele><time>2026-04-03T08:46:07.753Z</time></trkpt><trkpt lat="43.3488562" lon="11.4126223"><ele>228.66666666666669</ele><time>2026-04-03T08:46:08.753Z</time></trkpt><trkpt lat="43.3487536" lon="11.4124111"><ele>230.33333333333331</ele><time>2026-04-03T08:46:09.753Z</time></trkpt><trkpt lat="43.3486767" lon="11.4122041"><ele>232.0</ele><time>2026-04-03T08:46:10.753Z</time></trkpt><trkpt lat="43.348609" lon="11.4119871"><ele>232.0</ele><time>2026-04-03T08:46:11.753Z</time></trkpt><trkpt lat="43.3485622" lon="11.4117468"><ele>232.0</ele><time>2026-04-03T08:46:12.753Z</time></trkpt><trkpt lat="43.3485392" lon="11.4114655"><ele>232.0</ele><time>2026-04-03T08:46:13.753Z</time></trkpt><trkpt lat="43.3485103" lon="11.4111556"><ele>235.0</ele><time>2026-04-03T08:46:14.753Z</time></trkpt><trkpt lat="43.3484646" lon="11.4108254"><ele>238.0</ele><time>2026-04-03T08:46:15.752Z</time></trkpt><trkpt lat="43.348395" lon="11.4104766"><ele>239.0</ele><time>2026-04-03T08:46:16.753Z</time></trkpt><trkpt lat="43.3483117" lon="11.4101252"><ele>240.0</ele><time>2026-04-03T08:46:17.753Z</time></trkpt><trkpt lat="43.3482218" lon="11.409761"><ele>240.0</ele><time>2026-04-03T08:46:18.753Z</time></trkpt><trkpt lat="43.3481431" lon="11.4094218"><ele>240.0</ele><time>2026-04-03T08:46:19.753Z</time></trkpt><trkpt lat="43.3480791" lon="11.4091059"><ele>252.0</ele><time>2026-04-03T08:46:20.753Z</time></trkpt><trkpt lat="43.3480418" lon="11.408785"><ele>264.0</ele><time>2026-04-03T08:46:21.753Z</time></trkpt><trkpt lat="43.3480307" lon="11.4084362"><ele>264.0</ele><time>2026-04-03T08:46:22.753Z</time></trkpt><trkpt lat="43.3480231" lon="11.4080689"><ele>264.0</ele><time>2026-04-03T08:46:23.752Z</time></trkpt><trkpt lat="43.3480285" lon="11.4076922"><ele>256.5</ele><time>2026-04-03T08:46:24.753Z</time></trkpt><trkpt lat="43.3480458" lon="11.4073298"><ele>249.0</ele><time>2026-04-03T08:46:25.753Z</time></trkpt><trkpt lat="43.3480736" lon="11.4070002"><ele>249.0</ele><time>2026-04-03T08:46:26.752Z</time></trkpt><trkpt lat="43.3480974" lon="11.4067031"><ele>249.0</ele><time>2026-04-03T08:46:27.752Z</time></trkpt><trkpt lat="43.3481464" lon="11.4064187"><ele>249.0</ele><time>2026-04-03T08:46:28.753Z</time></trkpt><trkpt lat="43.3482164" lon="11.4061498"><ele>251.33333333333331</ele><time>2026-04-03T08:46:29.752Z</time></trkpt><trkpt lat="43.348291" lon="11.4058876"><ele>253.66666666666666</ele><time>2026-04-03T08:46:30.752Z</time></trkpt><trkpt lat="43.3483544" lon="11.4056495"><ele>256.0</ele><time>2026-04-03T08:46:31.752Z</time></trkpt><trkpt lat="43.3483931" lon="11.4054233"><ele>258.75</ele><time>2026-04-03T08:46:32.753Z</time></trkpt><trkpt lat="43.3484173" lon="11.4052129"><ele>261.5</ele><time>2026-04-03T08:46:33.753Z</time></trkpt><trkpt lat="43.348439" lon="11.4050322"><ele>264.25</ele><time>2026-04-03T08:46:34.752Z</time></trkpt><trkpt lat="43.3484616" lon="11.4048655"><ele>267.0</ele><time>2026-04-03T08:46:35.753Z</time></trkpt><trkpt lat="43.3484842" lon="11.4047073"><ele>267.5</ele><time>2026-04-03T08:46:36.752Z</time></trkpt><trkpt lat="43.3485231" lon="11.4045466"><ele>268.0</ele><time>2026-04-03T08:46:37.753Z</time></trkpt><trkpt lat="43.3485764" lon="11.4044028"><ele>268.5</ele><time>2026-04-03T08:46:38.752Z</time></trkpt><trkpt lat="43.3486406" lon="11.4042566"><ele>269.0</ele><time>2026-04-03T08:46:39.753Z</time></trkpt><trkpt lat="43.3487137" lon="11.404129"><ele>269.0</ele><time>2026-04-03T08:46:40.752Z</time></trkpt><trkpt lat="43.3487911" lon="11.4040173"><ele>269.0</ele><time>2026-04-03T08:46:41.752Z</time></trkpt><trkpt lat="43.348865" lon="11.403909"><ele>269.0</ele><time>2026-04-03T08:46:42.753Z</time></trkpt><trkpt lat="43.3489368" lon="11.4037842"><ele>269.0</ele><time>2026-04-03T08:46:43.753Z</time></trkpt><trkpt lat="43.3490025" lon="11.4036591"><ele>269.0</ele><time>2026-04-03T08:46:44.752Z</time></trkpt><trkpt lat="43.3490519" lon="11.4035418"><ele>269.75</ele><time>2026-04-03T08:46:45.753Z</time></trkpt><trkpt lat="43.349083" lon="11.4034153"><ele>270.5</ele><time>2026-04-03T08:46:46.753Z</time></trkpt><trkpt lat="43.3491037" lon="11.4032471"><ele>271.25</ele><time>2026-04-03T08:46:47.753Z</time></trkpt><trkpt lat="43.3491177" lon="11.4029971"><ele>272.0</ele><time>2026-04-03T08:46:48.753Z</time></trkpt><trkpt lat="43.3491426" lon="11.4027362"><ele>273.75</ele><time>2026-04-03T08:46:49.752Z</time></trkpt><trkpt lat="43.3491665" lon="11.4025186"><ele>275.5</ele><time>2026-04-03T08:46:50.752Z</time></trkpt><trkpt lat="43.3491876" lon="11.4023379"><ele>277.25</ele><time>2026-04-03T08:46:51.753Z</time></trkpt><trkpt lat="43.349204" lon="11.4021829"><ele>279.0</ele><time>2026-04-03T08:46:52.753Z</time></trkpt><trkpt lat="43.3492266" lon="11.4020367"><ele>280.59999999999997</ele><time>2026-04-03T08:46:53.753Z</time></trkpt><trkpt lat="43.3492612" lon="11.4018943"><ele>282.2</ele><time>2026-04-03T08:46:54.753Z</time></trkpt><trkpt lat="43.3493107" lon="11.4017779"><ele>283.79999999999995</ele><time>2026-04-03T08:46:55.752Z</time></trkpt><trkpt lat="43.3493704" lon="11.4016783"><ele>285.4</ele><time>2026-04-03T08:46:56.752Z</time></trkpt><trkpt lat="43.3494433" lon="11.4015955"><ele>287.0</ele><time>2026-04-03T08:46:57.753Z</time></trkpt><trkpt lat="43.3495411" lon="11.4015565"><ele>287.0</ele><time>2026-04-03T08:46:58.753Z</time></trkpt><trkpt lat="43.349651" lon="11.4015462"><ele>287.0</ele><time>2026-04-03T08:46:59.752Z</time></trkpt><trkpt lat="43.3497561" lon="11.4015667"><ele>287.0</ele><time>2026-04-03T08:47:00.752Z</time></trkpt><trkpt lat="43.3498489" lon="11.4016114"><ele>287.0</ele><time>2026-04-03T08:47:01.752Z</time></trkpt><trkpt lat="43.349935" lon="11.4016471"><ele>287.0</ele><time>2026-04-03T08:47:02.752Z</time></trkpt><trkpt lat="43.3500197" lon="11.4016715"><ele>286.1666666666667</ele><time>2026-04-03T08:47:03.751Z</time></trkpt><trkpt lat="43.3500919" lon="11.4016567"><ele>285.33333333333337</ele><time>2026-04-03T08:47:04.751Z</time></trkpt><trkpt lat="43.3501479" lon="11.4016107"><ele>284.5</ele><time>2026-04-03T08:47:05.752Z</time></trkpt><trkpt lat="43.3501989" lon="11.4015209"><ele>283.6666666666667</ele><time>2026-04-03T08:47:06.752Z</time></trkpt><trkpt lat="43.3502325" lon="11.4014169"><ele>282.8333333333333</ele><time>2026-04-03T08:47:07.751Z</time></trkpt><trkpt lat="43.3502284" lon="11.401306"><ele>282.0</ele><time>2026-04-03T08:47:08.752Z</time></trkpt><trkpt lat="43.3501959" lon="11.4012065"><ele>284.0</ele><time>2026-04-03T08:47:09.752Z</time></trkpt><trkpt lat="43.3501302" lon="11.4010974"><ele>286.0</ele><time>2026-04-03T08:47:10.751Z</time></trkpt><trkpt lat="43.3500657" lon="11.4010109"><ele>288.0</ele><time>2026-04-03T08:47:11.752Z</time></trkpt><trkpt lat="43.3500038" lon="11.4009276"><ele>290.0</ele><time>2026-04-03T08:47:12.751Z</time></trkpt><trkpt lat="43.3499394" lon="11.4008515"><ele>292.0</ele><time>2026-04-03T08:47:13.752Z</time></trkpt><trkpt lat="43.3498737" lon="11.4007774"><ele>292.0</ele><time>2026-04-03T08:47:14.752Z</time></trkpt><trkpt lat="43.3498032" lon="11.4007139"><ele>292.0</ele><time>2026-04-03T08:47:15.752Z</time></trkpt><trkpt lat="43.3497162" lon="11.4006685"><ele>292.0</ele><time>2026-04-03T08:47:16.751Z</time></trkpt><trkpt lat="43.3496264" lon="11.4006562"><ele>292.0</ele><time>2026-04-03T08:47:17.751Z</time></trkpt><trkpt lat="43.3495168" lon="11.4006773"><ele>292.0</ele><time>2026-04-03T08:47:18.752Z</time></trkpt><trkpt lat="43.3493815" lon="11.4007366"><ele>292.5</ele><time>2026-04-03T08:47:19.751Z</time></trkpt><trkpt lat="43.3492412" lon="11.4008059"><ele>293.0</ele><time>2026-04-03T08:47:20.752Z</time></trkpt><trkpt lat="43.349123" lon="11.4008617"><ele>293.5</ele><time>2026-04-03T08:47:21.751Z</time></trkpt><trkpt lat="43.3490305" lon="11.400914"><ele>294.0</ele><time>2026-04-03T08:47:22.751Z</time></trkpt><trkpt lat="43.3489468" lon="11.4009589"><ele>295.0</ele><time>2026-04-03T08:47:23.752Z</time></trkpt><trkpt lat="43.3488664" lon="11.401013"><ele>296.0</ele><time>2026-04-03T08:47:24.751Z</time></trkpt><trkpt lat="43.3487903" lon="11.4010534"><ele>297.0</ele><time>2026-04-03T08:47:25.751Z</time></trkpt><trkpt lat="43.3487136" lon="11.4010669"><ele>298.0</ele><time>2026-04-03T08:47:26.752Z</time></trkpt><trkpt lat="43.3486341" lon="11.4010437"><ele>299.0</ele><time>2026-04-03T08:47:27.752Z</time></trkpt><trkpt lat="43.3485612" lon="11.4010066"><ele>300.0</ele><time>2026-04-03T08:47:28.752Z</time></trkpt><trkpt lat="43.3484921" lon="11.4009587"><ele>300.0</ele><time>2026-04-03T08:47:29.752Z</time></trkpt><trkpt lat="43.348425" lon="11.4008847"><ele>300.0</ele><time>2026-04-03T08:47:30.752Z</time></trkpt><trkpt lat="43.3483518" lon="11.4008013"><ele>300.0</ele><time>2026-04-03T08:47:31.751Z</time></trkpt><trkpt lat="43.3482682" lon="11.400705"><ele>300.0</ele><time>2026-04-03T08:47:32.752Z</time></trkpt><trkpt lat="43.3481738" lon="11.4005987"><ele>300.0</ele><time>2026-04-03T08:47:33.751Z</time></trkpt><trkpt lat="43.348068" lon="11.4005012"><ele>301.4</ele><time>2026-04-03T08:47:34.752Z</time></trkpt><trkpt lat="43.3479628" lon="11.4004153"><ele>302.8</ele><time>2026-04-03T08:47:35.752Z</time></trkpt><trkpt lat="43.347858" lon="11.4003381"><ele>304.2</ele><time>2026-04-03T08:47:36.752Z</time></trkpt><trkpt lat="43.347761" lon="11.400279"><ele>305.6</ele><time>2026-04-03T08:47:37.752Z</time></trkpt><trkpt lat="43.3476706" lon="11.4002259"><ele>307.0</ele><time>2026-04-03T08:47:38.752Z</time></trkpt><trkpt lat="43.3475844" lon="11.4001613"><ele>307.0</ele><time>2026-04-03T08:47:39.752Z</time></trkpt><trkpt lat="43.3475066" lon="11.4000804"><ele>307.0</ele><time>2026-04-03T08:47:40.752Z</time></trkpt><trkpt lat="43.3474445" lon="11.3999719"><ele>307.0</ele><time>2026-04-03T08:47:41.752Z</time></trkpt><trkpt lat="43.3474166" lon="11.3998471"><ele>307.0</ele><time>2026-04-03T08:47:42.752Z</time></trkpt><trkpt lat="43.3474109" lon="11.3997303"><ele>307.0</ele><time>2026-04-03T08:47:43.752Z</time></trkpt><trkpt lat="43.3474359" lon="11.3996207"><ele>307.2</ele><time>2026-04-03T08:47:44.752Z</time></trkpt><trkpt lat="43.3474835" lon="11.3995196"><ele>307.4</ele><time>2026-04-03T08:47:45.751Z</time></trkpt><trkpt lat="43.3475484" lon="11.3994238"><ele>307.6</ele><time>2026-04-03T08:47:46.751Z</time></trkpt><trkpt lat="43.3476213" lon="11.3993466"><ele>307.8</ele><time>2026-04-03T08:47:47.751Z</time></trkpt><trkpt lat="43.3477008" lon="11.3992842"><ele>308.0</ele><time>2026-04-03T08:47:48.751Z</time></trkpt><trkpt lat="43.3477827" lon="11.3992263"><ele>308.0</ele><time>2026-04-03T08:47:49.752Z</time></trkpt><trkpt lat="43.3478592" lon="11.399173"><ele>308.0</ele><time>2026-04-03T08:47:50.752Z</time></trkpt><trkpt lat="43.3479364" lon="11.3991279"><ele>308.0</ele><time>2026-04-03T08:47:51.752Z</time></trkpt><trkpt lat="43.3480221" lon="11.3990952"><ele>308.0</ele><time>2026-04-03T08:47:52.752Z</time></trkpt><trkpt lat="43.3481139" lon="11.399062"><ele>308.0</ele><time>2026-04-03T08:47:53.752Z</time></trkpt><trkpt lat="43.3482117" lon="11.3990282"><ele>308.33333333333337</ele><time>2026-04-03T08:47:54.752Z</time></trkpt><trkpt lat="43.3483081" lon="11.3990043"><ele>308.6666666666667</ele><time>2026-04-03T08:47:55.751Z</time></trkpt><trkpt lat="43.3483862" lon="11.3989845"><ele>309.0</ele><time>2026-04-03T08:47:56.751Z</time></trkpt><trkpt lat="43.3484166" lon="11.3988812"><ele>309.3333333333333</ele><time>2026-04-03T08:47:59.752Z</time></trkpt><trkpt lat="43.3483792" lon="11.3988048"><ele>309.66666666666663</ele><time>2026-04-03T08:48:07.751Z</time></trkpt><trkpt lat="43.3483436" lon="11.3987252"><ele>310.0</ele><time>2026-04-03T08:48:08.752Z</time></trkpt><trkpt lat="43.3482982" lon="11.3986379"><ele>309.16666666666663</ele><time>2026-04-03T08:48:09.751Z</time></trkpt><trkpt lat="43.3482395" lon="11.3985528"><ele>308.3333333333333</ele><time>2026-04-03T08:48:10.751Z</time></trkpt><trkpt lat="43.3481707" lon="11.3985007"><ele>307.5</ele><time>2026-04-03T08:48:11.751Z</time></trkpt><trkpt lat="43.3480971" lon="11.3984852"><ele>306.6666666666667</ele><time>2026-04-03T08:48:12.752Z</time></trkpt><trkpt lat="43.3480156" lon="11.3985163"><ele>305.83333333333337</ele><time>2026-04-03T08:48:13.752Z</time></trkpt><trkpt lat="43.3479102" lon="11.3985784"><ele>305.0</ele><time>2026-04-03T08:48:14.751Z</time></trkpt><trkpt lat="43.3477763" lon="11.398639"><ele>303.0</ele><time>2026-04-03T08:48:15.752Z</time></trkpt><trkpt lat="43.3476236" lon="11.398666"><ele>301.0</ele><time>2026-04-03T08:48:16.751Z</time></trkpt><trkpt lat="43.3474688" lon="11.3986972"><ele>299.0</ele><time>2026-04-03T08:48:17.751Z</time></trkpt><trkpt lat="43.3473214" lon="11.3987199"><ele>299.75</ele><time>2026-04-03T08:48:18.752Z</time></trkpt><trkpt lat="43.3471918" lon="11.3987476"><ele>300.5</ele><time>2026-04-03T08:48:19.751Z</time></trkpt><trkpt lat="43.347077" lon="11.3987713"><ele>301.25</ele><time>2026-04-03T08:48:20.751Z</time></trkpt><trkpt lat="43.3469698" lon="11.3988111"><ele>302.0</ele><time>2026-04-03T08:48:21.752Z</time></trkpt><trkpt lat="43.3468656" lon="11.3988804"><ele>302.0</ele><time>2026-04-03T08:48:22.752Z</time></trkpt><trkpt lat="43.3467637" lon="11.3989991"><ele>302.0</ele><time>2026-04-03T08:48:23.751Z</time></trkpt><trkpt lat="43.3466608" lon="11.3991386"><ele>302.0</ele><time>2026-04-03T08:48:24.751Z</time></trkpt><trkpt lat="43.3465554" lon="11.3992958"><ele>302.0</ele><time>2026-04-03T08:48:25.751Z</time></trkpt><trkpt lat="43.3464593" lon="11.3994516"><ele>301.25</ele><time>2026-04-03T08:48:26.752Z</time></trkpt><trkpt lat="43.3463694" lon="11.3995898"><ele>300.5</ele><time>2026-04-03T08:48:27.751Z</time></trkpt><trkpt lat="43.3462839" lon="11.3997186"><ele>299.75</ele><time>2026-04-03T08:48:28.752Z</time></trkpt><trkpt lat="43.3462028" lon="11.3998402"><ele>299.0</ele><time>2026-04-03T08:48:29.752Z</time></trkpt><trkpt lat="43.3461176" lon="11.3999682"><ele>299.0</ele><time>2026-04-03T08:48:30.752Z</time></trkpt><trkpt lat="43.3460215" lon="11.400114"><ele>299.0</ele><time>2026-04-03T08:48:31.751Z</time></trkpt><trkpt lat="43.3459229" lon="11.4002612"><ele>299.0</ele><time>2026-04-03T08:48:32.751Z</time></trkpt><trkpt lat="43.3458379" lon="11.4003975"><ele>299.0</ele><time>2026-04-03T08:48:33.752Z</time></trkpt><trkpt lat="43.3457602" lon="11.4005159"><ele>299.0</ele><time>2026-04-03T08:48:34.751Z</time></trkpt><trkpt lat="43.3456785" lon="11.4006344"><ele>299.0</ele><time>2026-04-03T08:48:35.752Z</time></trkpt><trkpt lat="43.3456084" lon="11.4007467"><ele>299.0</ele><time>2026-04-03T08:48:36.752Z</time></trkpt><trkpt lat="43.3455409" lon="11.4008388"><ele>299.0</ele><time>2026-04-03T08:48:37.751Z</time></trkpt><trkpt lat="43.3454826" lon="11.4009221"><ele>299.0</ele><time>2026-04-03T08:48:38.752Z</time></trkpt><trkpt lat="43.3454255" lon="11.4009963"><ele>299.0</ele><time>2026-04-03T08:48:39.752Z</time></trkpt><trkpt lat="43.3453661" lon="11.4010572"><ele>299.0</ele><time>2026-04-03T08:48:40.752Z</time></trkpt><trkpt lat="43.3453008" lon="11.4011136"><ele>299.0</ele><time>2026-04-03T08:48:41.752Z</time></trkpt><trkpt lat="43.3452183" lon="11.4011525"><ele>299.0</ele><time>2026-04-03T08:48:42.752Z</time></trkpt><trkpt lat="43.3451283" lon="11.401193"><ele>299.0</ele><time>2026-04-03T08:48:43.752Z</time></trkpt><trkpt lat="43.3450321" lon="11.4012302"><ele>299.0</ele><time>2026-04-03T08:48:44.752Z</time></trkpt><trkpt lat="43.3449287" lon="11.4012701"><ele>299.0</ele><time>2026-04-03T08:48:45.751Z</time></trkpt><trkpt lat="43.3448233" lon="11.4013058"><ele>299.0</ele><time>2026-04-03T08:48:46.752Z</time></trkpt><trkpt lat="43.3447107" lon="11.4013321"><ele>299.0</ele><time>2026-04-03T08:48:47.751Z</time></trkpt><trkpt lat="43.3445905" lon="11.4013358"><ele>299.0</ele><time>2026-04-03T08:48:48.752Z</time></trkpt><trkpt lat="43.3444642" lon="11.401341"><ele>297.5</ele><time>2026-04-03T08:48:49.751Z</time></trkpt><trkpt lat="43.3443396" lon="11.4013486"><ele>296.0</ele><time>2026-04-03T08:48:50.751Z</time></trkpt><trkpt lat="43.3442187" lon="11.4013635"><ele>294.5</ele><time>2026-04-03T08:48:51.752Z</time></trkpt><trkpt lat="43.344099" lon="11.4013965"><ele>293.0</ele><time>2026-04-03T08:48:52.751Z</time></trkpt><trkpt lat="43.3439684" lon="11.4014445"><ele>292.75</ele><time>2026-04-03T08:48:53.752Z</time></trkpt><trkpt lat="43.3438427" lon="11.4015098"><ele>292.5</ele><time>2026-04-03T08:48:54.752Z</time></trkpt><trkpt lat="43.3437307" lon="11.4015773"><ele>292.25</ele><time>2026-04-03T08:48:55.752Z</time></trkpt><trkpt lat="43.3436244" lon="11.4016467"><ele>292.0</ele><time>2026-04-03T08:48:56.752Z</time></trkpt><trkpt lat="43.343529" lon="11.4017041"><ele>292.0</ele><time>2026-04-03T08:48:57.752Z</time></trkpt><trkpt lat="43.3434407" lon="11.4017703"><ele>292.0</ele><time>2026-04-03T08:48:58.751Z</time></trkpt><trkpt lat="43.3433595" lon="11.401847"><ele>292.0</ele><time>2026-04-03T08:48:59.751Z</time></trkpt><trkpt lat="43.3432821" lon="11.4019445"><ele>292.0</ele><time>2026-04-03T08:49:00.752Z</time></trkpt><trkpt lat="43.3432185" lon="11.4020515"><ele>292.0</ele><time>2026-04-03T08:49:01.752Z</time></trkpt><trkpt lat="43.3431662" lon="11.4021757"><ele>291.25</ele><time>2026-04-03T08:49:02.752Z</time></trkpt><trkpt lat="43.3431249" lon="11.4023232"><ele>290.5</ele><time>2026-04-03T08:49:03.752Z</time></trkpt><trkpt lat="43.3430964" lon="11.4024763"><ele>289.75</ele><time>2026-04-03T08:49:04.751Z</time></trkpt><trkpt lat="43.343081" lon="11.4026346"><ele>289.0</ele><time>2026-04-03T08:49:05.751Z</time></trkpt><trkpt lat="43.343072" lon="11.4027878"><ele>289.0</ele><time>2026-04-03T08:49:06.752Z</time></trkpt><trkpt lat="43.3430515" lon="11.4029311"><ele>289.0</ele><time>2026-04-03T08:49:07.752Z</time></trkpt><trkpt lat="43.343013" lon="11.4030616"><ele>289.0</ele><time>2026-04-03T08:49:08.752Z</time></trkpt><trkpt lat="43.3429493" lon="11.403175"><ele>289.0</ele><time>2026-04-03T08:49:09.752Z</time></trkpt><trkpt lat="43.3428705" lon="11.4032632"><ele>289.0</ele><time>2026-04-03T08:49:10.752Z</time></trkpt><trkpt lat="43.3427652" lon="11.4033193"><ele>289.0</ele><time>2026-04-03T08:49:11.751Z</time></trkpt><trkpt lat="43.3426395" lon="11.4033473"><ele>289.0</ele><time>2026-04-03T08:49:12.752Z</time></trkpt><trkpt lat="43.3425281" lon="11.4033667"><ele>289.0</ele><time>2026-04-03T08:49:13.752Z</time></trkpt><trkpt lat="43.3424393" lon="11.4033967"><ele>289.0</ele><time>2026-04-03T08:49:14.752Z</time></trkpt><trkpt lat="43.3423595" lon="11.4034543"><ele>289.0</ele><time>2026-04-03T08:49:15.752Z</time></trkpt><trkpt lat="43.3422669" lon="11.4035437"><ele>287.75</ele><time>2026-04-03T08:49:16.752Z</time></trkpt><trkpt lat="43.3421561" lon="11.4036459"><ele>286.5</ele><time>2026-04-03T08:49:17.751Z</time></trkpt><trkpt lat="43.3420387" lon="11.4037592"><ele>285.25</ele><time>2026-04-03T08:49:18.752Z</time></trkpt><trkpt lat="43.3419248" lon="11.4038825"><ele>284.0</ele><time>2026-04-03T08:49:19.752Z</time></trkpt><trkpt lat="43.3418198" lon="11.4040023"><ele>284.0</ele><time>2026-04-03T08:49:20.752Z</time></trkpt><trkpt lat="43.3417241" lon="11.4041138"><ele>284.0</ele><time>2026-04-03T08:49:21.752Z</time></trkpt><trkpt lat="43.3416342" lon="11.4042175"><ele>284.0</ele><time>2026-04-03T08:49:22.752Z</time></trkpt><trkpt lat="43.341546" lon="11.4043231"><ele>284.0</ele><time>2026-04-03T08:49:23.751Z</time></trkpt><trkpt lat="43.3414559" lon="11.4044278"><ele>285.5</ele><time>2026-04-03T08:49:24.752Z</time></trkpt><trkpt lat="43.3413764" lon="11.404536"><ele>287.0</ele><time>2026-04-03T08:49:25.751Z</time></trkpt><trkpt lat="43.3413057" lon="11.4046451"><ele>288.5</ele><time>2026-04-03T08:49:26.752Z</time></trkpt><trkpt lat="43.3412364" lon="11.404762"><ele>290.0</ele><time>2026-04-03T08:49:27.751Z</time></trkpt><trkpt lat="43.3411588" lon="11.4048965"><ele>290.0</ele><time>2026-04-03T08:49:28.752Z</time></trkpt><trkpt lat="43.3410749" lon="11.4050296"><ele>290.0</ele><time>2026-04-03T08:49:29.751Z</time></trkpt><trkpt lat="43.340993" lon="11.4051453"><ele>290.0</ele><time>2026-04-03T08:49:30.752Z</time></trkpt><trkpt lat="43.3409025" lon="11.4052437"><ele>290.0</ele><time>2026-04-03T08:49:31.751Z</time></trkpt><trkpt lat="43.3408091" lon="11.4053231"><ele>290.0</ele><time>2026-04-03T08:49:32.752Z</time></trkpt><trkpt lat="43.340701" lon="11.4054006"><ele>290.0</ele><time>2026-04-03T08:49:33.752Z</time></trkpt><trkpt lat="43.3405764" lon="11.405487"><ele>290.0</ele><time>2026-04-03T08:49:34.752Z</time></trkpt><trkpt lat="43.3404359" lon="11.4055737"><ele>290.0</ele><time>2026-04-03T08:49:35.752Z</time></trkpt><trkpt lat="43.3402934" lon="11.4056616"><ele>290.0</ele><time>2026-04-03T08:49:36.751Z</time></trkpt><trkpt lat="43.340152" lon="11.4057497"><ele>290.0</ele><time>2026-04-03T08:49:37.751Z</time></trkpt><trkpt lat="43.3400175" lon="11.4058331"><ele>290.0</ele><time>2026-04-03T08:49:38.752Z</time></trkpt><trkpt lat="43.3398995" lon="11.4059051"><ele>290.0</ele><time>2026-04-03T08:49:39.752Z</time></trkpt><trkpt lat="43.3397964" lon="11.4059678"><ele>290.0</ele><time>2026-04-03T08:49:40.751Z</time></trkpt><trkpt lat="43.3397216" lon="11.4060223"><ele>290.0</ele><time>2026-04-03T08:49:41.752Z</time></trkpt><trkpt lat="43.3396524" lon="11.4060865"><ele>290.0</ele><time>2026-04-03T08:49:42.752Z</time></trkpt><trkpt lat="43.3395886" lon="11.4061818"><ele>290.0</ele><time>2026-04-03T08:49:43.751Z</time></trkpt><trkpt lat="43.3395416" lon="11.4062812"><ele>290.0</ele><time>2026-04-03T08:49:44.752Z</time></trkpt><trkpt lat="43.3394879" lon="11.4064097"><ele>289.25</ele><time>2026-04-03T08:49:45.752Z</time></trkpt><trkpt lat="43.3394179" lon="11.4065598"><ele>288.5</ele><time>2026-04-03T08:49:46.752Z</time></trkpt><trkpt lat="43.3393208" lon="11.4067071"><ele>287.75</ele><time>2026-04-03T08:49:47.751Z</time></trkpt><trkpt lat="43.3392071" lon="11.4068572"><ele>287.0</ele><time>2026-04-03T08:49:48.752Z</time></trkpt><trkpt lat="43.3390744" lon="11.4070081"><ele>287.0</ele><time>2026-04-03T08:49:49.752Z</time></trkpt><trkpt lat="43.3389491" lon="11.4071535"><ele>287.0</ele><time>2026-04-03T08:49:50.752Z</time></trkpt><trkpt lat="43.3388408" lon="11.4072867"><ele>287.0</ele><time>2026-04-03T08:49:51.751Z</time></trkpt><trkpt lat="43.3387373" lon="11.4074014"><ele>287.0</ele><time>2026-04-03T08:49:52.752Z</time></trkpt><trkpt lat="43.3386354" lon="11.4075072"><ele>287.5</ele><time>2026-04-03T08:49:53.751Z</time></trkpt><trkpt lat="43.3385317" lon="11.4076009"><ele>288.0</ele><time>2026-04-03T08:49:54.752Z</time></trkpt><trkpt lat="43.3384255" lon="11.4076807"><ele>288.5</ele><time>2026-04-03T08:49:55.752Z</time></trkpt><trkpt lat="43.3383295" lon="11.4077474"><ele>289.0</ele><time>2026-04-03T08:49:56.752Z</time></trkpt><trkpt lat="43.3382389" lon="11.4077985"><ele>289.0</ele><time>2026-04-03T08:49:57.752Z</time></trkpt><trkpt lat="43.33816" lon="11.407813"><ele>289.0</ele><time>2026-04-03T08:49:58.751Z</time></trkpt><trkpt lat="43.3380838" lon="11.4077985"><ele>289.0</ele><time>2026-04-03T08:49:59.751Z</time></trkpt><trkpt lat="43.3380032" lon="11.4077519"><ele>289.0</ele><time>2026-04-03T08:50:00.752Z</time></trkpt><trkpt lat="43.3379139" lon="11.407687"><ele>289.0</ele><time>2026-04-03T08:50:01.752Z</time></trkpt><trkpt lat="43.3378036" lon="11.4076027"><ele>289.5</ele><time>2026-04-03T08:50:02.751Z</time></trkpt><trkpt lat="43.3376847" lon="11.4074976"><ele>290.0</ele><time>2026-04-03T08:50:03.752Z</time></trkpt><trkpt lat="43.3375588" lon="11.4073754"><ele>290.5</ele><time>2026-04-03T08:50:04.752Z</time></trkpt><trkpt lat="43.3374403" lon="11.4072677"><ele>291.0</ele><time>2026-04-03T08:50:05.752Z</time></trkpt><trkpt lat="43.3373377" lon="11.4071789"><ele>290.75</ele><time>2026-04-03T08:50:06.752Z</time></trkpt><trkpt lat="43.3372355" lon="11.4070942"><ele>290.5</ele><time>2026-04-03T08:50:07.752Z</time></trkpt><trkpt lat="43.3371223" lon="11.407033"><ele>290.25</ele><time>2026-04-03T08:50:08.752Z</time></trkpt><trkpt lat="43.3369908" lon="11.4069684"><ele>290.0</ele><time>2026-04-03T08:50:09.752Z</time></trkpt><trkpt lat="43.3368396" lon="11.4068964"><ele>290.5</ele><time>2026-04-03T08:50:10.751Z</time></trkpt><trkpt lat="43.3366896" lon="11.406832"><ele>291.0</ele><time>2026-04-03T08:50:11.751Z</time></trkpt><trkpt lat="43.3365538" lon="11.4067813"><ele>291.5</ele><time>2026-04-03T08:50:12.751Z</time></trkpt><trkpt lat="43.3364346" lon="11.4067389"><ele>292.0</ele><time>2026-04-03T08:50:13.752Z</time></trkpt><trkpt lat="43.3363284" lon="11.4067076"><ele>293.4</ele><time>2026-04-03T08:50:14.752Z</time></trkpt><trkpt lat="43.3362268" lon="11.406699"><ele>294.79999999999995</ele><time>2026-04-03T08:50:15.751Z</time></trkpt><trkpt lat="43.3361296" lon="11.4067229"><ele>296.2</ele><time>2026-04-03T08:50:16.752Z</time></trkpt><trkpt lat="43.336035" lon="11.4067664"><ele>297.59999999999997</ele><time>2026-04-03T08:50:17.752Z</time></trkpt><trkpt lat="43.3359206" lon="11.4068536"><ele>299.0</ele><time>2026-04-03T08:50:18.751Z</time></trkpt><trkpt lat="43.3358045" lon="11.4069765"><ele>299.0</ele><time>2026-04-03T08:50:19.751Z</time></trkpt><trkpt lat="43.335679" lon="11.4071186"><ele>299.0</ele><time>2026-04-03T08:50:20.751Z</time></trkpt><trkpt lat="43.3355719" lon="11.407222"><ele>299.0</ele><time>2026-04-03T08:50:21.752Z</time></trkpt><trkpt lat="43.3354803" lon="11.4072987"><ele>299.0</ele><time>2026-04-03T08:50:22.752Z</time></trkpt><trkpt lat="43.3353863" lon="11.407351"><ele>298.5</ele><time>2026-04-03T08:50:23.751Z</time></trkpt><trkpt lat="43.3352807" lon="11.4073736"><ele>298.0</ele><time>2026-04-03T08:50:24.751Z</time></trkpt><trkpt lat="43.3351635" lon="11.4073895"><ele>297.5</ele><time>2026-04-03T08:50:25.752Z</time></trkpt><trkpt lat="43.335031" lon="11.4074287"><ele>297.0</ele><time>2026-04-03T08:50:26.752Z</time></trkpt><trkpt lat="43.3349053" lon="11.4074618"><ele>297.0</ele><time>2026-04-03T08:50:27.751Z</time></trkpt><trkpt lat="43.3347863" lon="11.4074815"><ele>297.0</ele><time>2026-04-03T08:50:28.751Z</time></trkpt><trkpt lat="43.3346768" lon="11.4074953"><ele>297.0</ele><time>2026-04-03T08:50:29.752Z</time></trkpt><trkpt lat="43.334582" lon="11.4075032"><ele>297.0</ele><time>2026-04-03T08:50:30.752Z</time></trkpt><trkpt lat="43.3345002" lon="11.4075048"><ele>297.0</ele><time>2026-04-03T08:50:31.751Z</time></trkpt><trkpt lat="43.3343937" lon="11.4075022"><ele>295.6</ele><time>2026-04-03T08:50:33.751Z</time></trkpt><trkpt lat="43.3343141" lon="11.4074352"><ele>294.2</ele><time>2026-04-03T08:50:35.752Z</time></trkpt><trkpt lat="43.3342552" lon="11.4072875"><ele>292.8</ele><time>2026-04-03T08:50:37.751Z</time></trkpt><trkpt lat="43.3342304" lon="11.4071552"><ele>291.4</ele><time>2026-04-03T08:50:38.752Z</time></trkpt><trkpt lat="43.3342061" lon="11.4069778"><ele>290.0</ele><time>2026-04-03T08:50:39.752Z</time></trkpt><trkpt lat="43.3341824" lon="11.4067817"><ele>289.75</ele><time>2026-04-03T08:50:40.752Z</time></trkpt><trkpt lat="43.3341635" lon="11.4065962"><ele>289.5</ele><time>2026-04-03T08:50:41.752Z</time></trkpt><trkpt lat="43.3341426" lon="11.4064325"><ele>289.25</ele><time>2026-04-03T08:50:42.751Z</time></trkpt><trkpt lat="43.3341221" lon="11.4062771"><ele>289.0</ele><time>2026-04-03T08:50:43.751Z</time></trkpt><trkpt lat="43.3341043" lon="11.4061323"><ele>288.4</ele><time>2026-04-03T08:50:44.752Z</time></trkpt><trkpt lat="43.3340932" lon="11.4059969"><ele>287.79999999999995</ele><time>2026-04-03T08:50:45.752Z</time></trkpt><trkpt lat="43.3340879" lon="11.4058617"><ele>287.20000000000005</ele><time>2026-04-03T08:50:46.751Z</time></trkpt><trkpt lat="43.3340983" lon="11.4057053"><ele>286.6</ele><time>2026-04-03T08:50:47.751Z</time></trkpt><trkpt lat="43.3341107" lon="11.405524"><ele>286.0</ele><time>2026-04-03T08:50:48.751Z</time></trkpt><trkpt lat="43.3341318" lon="11.4053251"><ele>285.0</ele><time>2026-04-03T08:50:49.751Z</time></trkpt><trkpt lat="43.3341504" lon="11.4051107"><ele>284.0</ele><time>2026-04-03T08:50:50.752Z</time></trkpt><trkpt lat="43.3341663" lon="11.4049022"><ele>283.0</ele><time>2026-04-03T08:50:51.752Z</time></trkpt><trkpt lat="43.3341802" lon="11.4047355"><ele>282.0</ele><time>2026-04-03T08:50:52.751Z</time></trkpt><trkpt lat="43.3341918" lon="11.4046155"><ele>282.0</ele><time>2026-04-03T08:50:53.752Z</time></trkpt><trkpt lat="43.3342034" lon="11.4045093"><ele>282.0</ele><time>2026-04-03T08:50:54.752Z</time></trkpt><trkpt lat="43.3342116" lon="11.4044014"><ele>282.0</ele><time>2026-04-03T08:50:55.752Z</time></trkpt><trkpt lat="43.3342217" lon="11.4042494"><ele>282.0</ele><time>2026-04-03T08:50:57.752Z</time></trkpt><trkpt lat="43.3341943" lon="11.4041261"><ele>282.0</ele><time>2026-04-03T08:50:59.752Z</time></trkpt><trkpt lat="43.3341058" lon="11.4040575"><ele>282.0</ele><time>2026-04-03T08:51:01.751Z</time></trkpt><trkpt lat="43.3340387" lon="11.4040553"><ele>282.0</ele><time>2026-04-03T08:51:02.752Z</time></trkpt><trkpt lat="43.3339742" lon="11.4040803"><ele>282.0</ele><time>2026-04-03T08:51:03.751Z</time></trkpt><trkpt lat="43.3339035" lon="11.4041176"><ele>282.0</ele><time>2026-04-03T08:51:04.751Z</time></trkpt><trkpt lat="43.3338207" lon="11.4041547"><ele>282.0</ele><time>2026-04-03T08:51:05.752Z</time></trkpt><trkpt lat="43.3337289" lon="11.4042022"><ele>282.0</ele><time>2026-04-03T08:51:06.751Z</time></trkpt><trkpt lat="43.3336329" lon="11.4042463"><ele>281.6</ele><time>2026-04-03T08:51:07.752Z</time></trkpt><trkpt lat="43.333533" lon="11.4042936"><ele>281.2</ele><time>2026-04-03T08:51:08.751Z</time></trkpt><trkpt lat="43.3334333" lon="11.4043393"><ele>280.8</ele><time>2026-04-03T08:51:09.751Z</time></trkpt><trkpt lat="43.3333326" lon="11.4043857"><ele>280.4</ele><time>2026-04-03T08:51:10.751Z</time></trkpt><trkpt lat="43.333235" lon="11.4044387"><ele>280.0</ele><time>2026-04-03T08:51:11.752Z</time></trkpt><trkpt lat="43.3331396" lon="11.4044893"><ele>280.2</ele><time>2026-04-03T08:51:12.751Z</time></trkpt><trkpt lat="43.3330529" lon="11.4045329"><ele>280.4</ele><time>2026-04-03T08:51:13.752Z</time></trkpt><trkpt lat="43.3329682" lon="11.4045723"><ele>280.6</ele><time>2026-04-03T08:51:14.752Z</time></trkpt><trkpt lat="43.3328844" lon="11.4046183"><ele>280.8</ele><time>2026-04-03T08:51:15.751Z</time></trkpt><trkpt lat="43.3327959" lon="11.4046646"><ele>281.0</ele><time>2026-04-03T08:51:16.751Z</time></trkpt><trkpt lat="43.3327033" lon="11.4047122"><ele>280.0</ele><time>2026-04-03T08:51:17.752Z</time></trkpt><trkpt lat="43.3326084" lon="11.4047656"><ele>279.0</ele><time>2026-04-03T08:51:18.752Z</time></trkpt><trkpt lat="43.3325034" lon="11.4048207"><ele>278.0</ele><time>2026-04-03T08:51:19.751Z</time></trkpt><trkpt lat="43.3323891" lon="11.4048884"><ele>277.0</ele><time>2026-04-03T08:51:20.752Z</time></trkpt><trkpt lat="43.3322687" lon="11.404956"><ele>277.25</ele><time>2026-04-03T08:51:21.751Z</time></trkpt><trkpt lat="43.3321413" lon="11.4050276"><ele>277.5</ele><time>2026-04-03T08:51:22.752Z</time></trkpt><trkpt lat="43.3320165" lon="11.405094"><ele>277.75</ele><time>2026-04-03T08:51:23.751Z</time></trkpt><trkpt lat="43.3319026" lon="11.4051571"><ele>278.0</ele><time>2026-04-03T08:51:24.752Z</time></trkpt><trkpt lat="43.3317812" lon="11.4052014"><ele>278.0</ele><time>2026-04-03T08:51:25.751Z</time></trkpt><trkpt lat="43.3316455" lon="11.4052382"><ele>278.0</ele><time>2026-04-03T08:51:26.752Z</time></trkpt><trkpt lat="43.3315067" lon="11.4052698"><ele>278.0</ele><time>2026-04-03T08:51:27.752Z</time></trkpt><trkpt lat="43.3313544" lon="11.4053052"><ele>278.0</ele><time>2026-04-03T08:51:28.752Z</time></trkpt><trkpt lat="43.3311818" lon="11.4053538"><ele>276.0</ele><time>2026-04-03T08:51:29.752Z</time></trkpt><trkpt lat="43.3310052" lon="11.4054072"><ele>274.0</ele><time>2026-04-03T08:51:30.752Z</time></trkpt><trkpt lat="43.3308482" lon="11.4054523"><ele>272.0</ele><time>2026-04-03T08:51:31.752Z</time></trkpt><trkpt lat="43.3307182" lon="11.405496"><ele>271.25</ele><time>2026-04-03T08:51:32.751Z</time></trkpt><trkpt lat="43.3305926" lon="11.4055428"><ele>270.5</ele><time>2026-04-03T08:51:33.751Z</time></trkpt><trkpt lat="43.3304636" lon="11.405584"><ele>269.75</ele><time>2026-04-03T08:51:34.752Z</time></trkpt><trkpt lat="43.330326" lon="11.4056454"><ele>269.0</ele><time>2026-04-03T08:51:35.752Z</time></trkpt><trkpt lat="43.3301849" lon="11.4057161"><ele>267.75</ele><time>2026-04-03T08:51:36.752Z</time></trkpt><trkpt lat="43.3300506" lon="11.4057965"><ele>266.5</ele><time>2026-04-03T08:51:37.751Z</time></trkpt><trkpt lat="43.3299167" lon="11.4058807"><ele>265.25</ele><time>2026-04-03T08:51:38.752Z</time></trkpt><trkpt lat="43.3297896" lon="11.4059722"><ele>264.0</ele><time>2026-04-03T08:51:39.752Z</time></trkpt><trkpt lat="43.3296699" lon="11.4060756"><ele>262.3333333333333</ele><time>2026-04-03T08:51:40.751Z</time></trkpt><trkpt lat="43.3295452" lon="11.4061875"><ele>260.66666666666663</ele><time>2026-04-03T08:51:41.752Z</time></trkpt><trkpt lat="43.32941" lon="11.4063341"><ele>259.0</ele><time>2026-04-03T08:51:42.751Z</time></trkpt><trkpt lat="43.3292724" lon="11.4065004"><ele>258.66666666666663</ele><time>2026-04-03T08:51:43.752Z</time></trkpt><trkpt lat="43.3291138" lon="11.4066868"><ele>258.3333333333333</ele><time>2026-04-03T08:51:44.75Z</time></trkpt><trkpt lat="43.3289416" lon="11.4068915"><ele>258.0</ele><time>2026-04-03T08:51:45.751Z</time></trkpt><trkpt lat="43.3287713" lon="11.4070902"><ele>256.3333333333333</ele><time>2026-04-03T08:51:46.751Z</time></trkpt><trkpt lat="43.3286135" lon="11.4072755"><ele>254.66666666666666</ele><time>2026-04-03T08:51:47.751Z</time></trkpt><trkpt lat="43.3284722" lon="11.4074497"><ele>253.0</ele><time>2026-04-03T08:51:48.751Z</time></trkpt><trkpt lat="43.3283337" lon="11.4076104"><ele>253.0</ele><time>2026-04-03T08:51:49.75Z</time></trkpt><trkpt lat="43.3282074" lon="11.4077645"><ele>253.0</ele><time>2026-04-03T08:51:50.75Z</time></trkpt><trkpt lat="43.3280875" lon="11.4079073"><ele>253.0</ele><time>2026-04-03T08:51:51.751Z</time></trkpt><trkpt lat="43.327965" lon="11.4080566"><ele>253.0</ele><time>2026-04-03T08:51:52.75Z</time></trkpt><trkpt lat="43.3278411" lon="11.4082018"><ele>253.0</ele><time>2026-04-03T08:51:53.75Z</time></trkpt><trkpt lat="43.3277202" lon="11.4083412"><ele>253.0</ele><time>2026-04-03T08:51:54.751Z</time></trkpt><trkpt lat="43.3275982" lon="11.4084786"><ele>253.0</ele><time>2026-04-03T08:51:55.751Z</time></trkpt><trkpt lat="43.3274833" lon="11.4086081"><ele>253.0</ele><time>2026-04-03T08:51:56.75Z</time></trkpt><trkpt lat="43.3273795" lon="11.4087202"><ele>253.0</ele><time>2026-04-03T08:51:57.751Z</time></trkpt><trkpt lat="43.3272869" lon="11.4088241"><ele>253.0</ele><time>2026-04-03T08:51:58.75Z</time></trkpt><trkpt lat="43.3271998" lon="11.4089278"><ele>251.25</ele><time>2026-04-03T08:51:59.751Z</time></trkpt><trkpt lat="43.3271153" lon="11.4090347"><ele>249.5</ele><time>2026-04-03T08:52:00.751Z</time></trkpt><trkpt lat="43.3270276" lon="11.4091523"><ele>247.75</ele><time>2026-04-03T08:52:01.75Z</time></trkpt><trkpt lat="43.3269455" lon="11.4092815"><ele>246.0</ele><time>2026-04-03T08:52:02.75Z</time></trkpt><trkpt lat="43.3268601" lon="11.4094318"><ele>246.0</ele><time>2026-04-03T08:52:03.751Z</time></trkpt><trkpt lat="43.3267625" lon="11.4095822"><ele>246.0</ele><time>2026-04-03T08:52:04.751Z</time></trkpt><trkpt lat="43.3266508" lon="11.4097287"><ele>246.0</ele><time>2026-04-03T08:52:05.751Z</time></trkpt><trkpt lat="43.3265383" lon="11.4098497"><ele>246.0</ele><time>2026-04-03T08:52:06.75Z</time></trkpt><trkpt lat="43.326448" lon="11.4099465"><ele>245.4</ele><time>2026-04-03T08:52:07.75Z</time></trkpt><trkpt lat="43.3263733" lon="11.4100321"><ele>244.8</ele><time>2026-04-03T08:52:08.751Z</time></trkpt><trkpt lat="43.326311" lon="11.410108"><ele>244.20000000000002</ele><time>2026-04-03T08:52:09.751Z</time></trkpt><trkpt lat="43.3262542" lon="11.4101772"><ele>243.60000000000002</ele><time>2026-04-03T08:52:10.751Z</time></trkpt><trkpt lat="43.3261645" lon="11.410285"><ele>243.0</ele><time>2026-04-03T08:52:12.751Z</time></trkpt><trkpt lat="43.3260862" lon="11.4103493"><ele>243.0</ele><time>2026-04-03T08:52:14.751Z</time></trkpt><trkpt lat="43.326019" lon="11.4103326"><ele>243.0</ele><time>2026-04-03T08:52:17.75Z</time></trkpt><trkpt lat="43.3259217" lon="11.4102503"><ele>243.0</ele><time>2026-04-03T08:52:33.751Z</time></trkpt><trkpt lat="43.3258714" lon="11.4101619"><ele>243.0</ele><time>2026-04-03T08:52:34.751Z</time></trkpt><trkpt lat="43.3258361" lon="11.4100369"><ele>243.0</ele><time>2026-04-03T08:52:35.751Z</time></trkpt><trkpt lat="43.3258163" lon="11.4098524"><ele>240.33333333333331</ele><time>2026-04-03T08:52:36.751Z</time></trkpt><trkpt lat="43.3258208" lon="11.4096292"><ele>237.66666666666666</ele><time>2026-04-03T08:52:37.751Z</time></trkpt><trkpt lat="43.3258316" lon="11.4093419"><ele>235.0</ele><time>2026-04-03T08:52:38.751Z</time></trkpt><trkpt lat="43.325829" lon="11.4090375"><ele>233.0</ele><time>2026-04-03T08:52:39.751Z</time></trkpt><trkpt lat="43.3257918" lon="11.4086742"><ele>231.0</ele><time>2026-04-03T08:52:40.75Z</time></trkpt><trkpt lat="43.3257426" lon="11.4082759"><ele>229.0</ele><time>2026-04-03T08:52:41.75Z</time></trkpt><trkpt lat="43.325702" lon="11.4079089"><ele>227.0</ele><time>2026-04-03T08:52:42.751Z</time></trkpt><trkpt lat="43.3256702" lon="11.407579"><ele>227.0</ele><time>2026-04-03T08:52:43.751Z</time></trkpt><trkpt lat="43.3256397" lon="11.4072865"><ele>227.0</ele><time>2026-04-03T08:52:44.75Z</time></trkpt><trkpt lat="43.3256029" lon="11.4070136"><ele>227.0</ele><time>2026-04-03T08:52:45.751Z</time></trkpt><trkpt lat="43.3255376" lon="11.4067542"><ele>225.0</ele><time>2026-04-03T08:52:46.75Z</time></trkpt><trkpt lat="43.3254312" lon="11.4064833"><ele>223.0</ele><time>2026-04-03T08:52:47.751Z</time></trkpt><trkpt lat="43.3253056" lon="11.4062113"><ele>221.0</ele><time>2026-04-03T08:52:48.75Z</time></trkpt><trkpt lat="43.325202" lon="11.4059694"><ele>219.0</ele><time>2026-04-03T08:52:49.75Z</time></trkpt><trkpt lat="43.3251234" lon="11.4057421"><ele>217.0</ele><time>2026-04-03T08:52:50.751Z</time></trkpt><trkpt lat="43.3250634" lon="11.4055089"><ele>216.33333333333331</ele><time>2026-04-03T08:52:51.751Z</time></trkpt><trkpt lat="43.3250188" lon="11.4052756"><ele>215.66666666666669</ele><time>2026-04-03T08:52:52.751Z</time></trkpt><trkpt lat="43.3249839" lon="11.4050528"><ele>215.0</ele><time>2026-04-03T08:52:53.751Z</time></trkpt><trkpt lat="43.3249636" lon="11.4048386"><ele>214.75</ele><time>2026-04-03T08:52:54.75Z</time></trkpt><trkpt lat="43.3249546" lon="11.4046371"><ele>214.5</ele><time>2026-04-03T08:52:55.751Z</time></trkpt><trkpt lat="43.3249487" lon="11.4044475"><ele>214.25</ele><time>2026-04-03T08:52:56.751Z</time></trkpt><trkpt lat="43.3249454" lon="11.4042722"><ele>214.0</ele><time>2026-04-03T08:52:57.751Z</time></trkpt><trkpt lat="43.3249464" lon="11.4040956"><ele>214.0</ele><time>2026-04-03T08:52:58.751Z</time></trkpt><trkpt lat="43.3249455" lon="11.4039126"><ele>214.0</ele><time>2026-04-03T08:52:59.751Z</time></trkpt><trkpt lat="43.3249518" lon="11.4037117"><ele>214.0</ele><time>2026-04-03T08:53:00.751Z</time></trkpt><trkpt lat="43.3249654" lon="11.4034872"><ele>214.0</ele><time>2026-04-03T08:53:01.751Z</time></trkpt><trkpt lat="43.3249875" lon="11.4032238"><ele>215.0</ele><time>2026-04-03T08:53:02.75Z</time></trkpt><trkpt lat="43.325013" lon="11.4029219"><ele>216.0</ele><time>2026-04-03T08:53:03.75Z</time></trkpt><trkpt lat="43.3250468" lon="11.4025848"><ele>216.0</ele><time>2026-04-03T08:53:04.75Z</time></trkpt><trkpt lat="43.325073" lon="11.4022866"><ele>216.0</ele><time>2026-04-03T08:53:05.75Z</time></trkpt><trkpt lat="43.3250918" lon="11.4020183"><ele>216.0</ele><time>2026-04-03T08:53:06.751Z</time></trkpt><trkpt lat="43.3250989" lon="11.4017756"><ele>218.5</ele><time>2026-04-03T08:53:07.751Z</time></trkpt><trkpt lat="43.3250981" lon="11.40154"><ele>221.0</ele><time>2026-04-03T08:53:08.75Z</time></trkpt><trkpt lat="43.325085" lon="11.4013357"><ele>223.5</ele><time>2026-04-03T08:53:09.75Z</time></trkpt><trkpt lat="43.3250743" lon="11.401163"><ele>226.0</ele><time>2026-04-03T08:53:10.75Z</time></trkpt><trkpt lat="43.3250714" lon="11.4010096"><ele>227.0</ele><time>2026-04-03T08:53:11.751Z</time></trkpt><trkpt lat="43.3250734" lon="11.4008647"><ele>228.00000000000003</ele><time>2026-04-03T08:53:12.75Z</time></trkpt><trkpt lat="43.325085" lon="11.4007206"><ele>229.00000000000003</ele><time>2026-04-03T08:53:13.751Z</time></trkpt><trkpt lat="43.3251058" lon="11.4005775"><ele>230.0</ele><time>2026-04-03T08:53:14.751Z</time></trkpt><trkpt lat="43.3251277" lon="11.4004345"><ele>231.0</ele><time>2026-04-03T08:53:15.751Z</time></trkpt><trkpt lat="43.3251507" lon="11.4002837"><ele>232.25</ele><time>2026-04-03T08:53:16.751Z</time></trkpt><trkpt lat="43.3251675" lon="11.4001242"><ele>233.5</ele><time>2026-04-03T08:53:17.751Z</time></trkpt><trkpt lat="43.325173" lon="11.3999599"><ele>234.75</ele><time>2026-04-03T08:53:18.75Z</time></trkpt><trkpt lat="43.325166" lon="11.3997876"><ele>236.0</ele><time>2026-04-03T08:53:19.75Z</time></trkpt><trkpt lat="43.325151" lon="11.3996208"><ele>237.25</ele><time>2026-04-03T08:53:20.751Z</time></trkpt><trkpt lat="43.3251359" lon="11.3994597"><ele>238.5</ele><time>2026-04-03T08:53:21.751Z</time></trkpt><trkpt lat="43.3251275" lon="11.3992979"><ele>239.75</ele><time>2026-04-03T08:53:22.751Z</time></trkpt><trkpt lat="43.3251206" lon="11.3991445"><ele>241.0</ele><time>2026-04-03T08:53:23.75Z</time></trkpt><trkpt lat="43.3251111" lon="11.3989949"><ele>241.0</ele><time>2026-04-03T08:53:24.751Z</time></trkpt><trkpt lat="43.3251043" lon="11.3988411"><ele>241.0</ele><time>2026-04-03T08:53:25.751Z</time></trkpt><trkpt lat="43.3250923" lon="11.3986857"><ele>241.0</ele><time>2026-04-03T08:53:26.751Z</time></trkpt><trkpt lat="43.3250845" lon="11.3985201"><ele>241.0</ele><time>2026-04-03T08:53:27.751Z</time></trkpt><trkpt lat="43.3250779" lon="11.3983531"><ele>242.5</ele><time>2026-04-03T08:53:28.751Z</time></trkpt><trkpt lat="43.325076" lon="11.3981759"><ele>244.0</ele><time>2026-04-03T08:53:29.751Z</time></trkpt><trkpt lat="43.3250767" lon="11.398003"><ele>245.5</ele><time>2026-04-03T08:53:30.75Z</time></trkpt><trkpt lat="43.3250937" lon="11.3978403"><ele>247.0</ele><time>2026-04-03T08:53:31.75Z</time></trkpt><trkpt lat="43.3251325" lon="11.3976801"><ele>247.0</ele><time>2026-04-03T08:53:32.751Z</time></trkpt><trkpt lat="43.325187" lon="11.3975152"><ele>247.0</ele><time>2026-04-03T08:53:33.751Z</time></trkpt><trkpt lat="43.3252516" lon="11.3973265"><ele>247.0</ele><time>2026-04-03T08:53:34.751Z</time></trkpt><trkpt lat="43.325317" lon="11.3971275"><ele>247.0</ele><time>2026-04-03T08:53:35.751Z</time></trkpt><trkpt lat="43.3253783" lon="11.3969337"><ele>247.0</ele><time>2026-04-03T08:53:36.751Z</time></trkpt><trkpt lat="43.3254376" lon="11.3967522"><ele>247.0</ele><time>2026-04-03T08:53:37.751Z</time></trkpt><trkpt lat="43.3254939" lon="11.3965733"><ele>247.0</ele><time>2026-04-03T08:53:38.751Z</time></trkpt><trkpt lat="43.325547" lon="11.3963974"><ele>247.0</ele><time>2026-04-03T08:53:39.751Z</time></trkpt><trkpt lat="43.3255979" lon="11.3962183"><ele>247.75</ele><time>2026-04-03T08:53:40.751Z</time></trkpt><trkpt lat="43.3256446" lon="11.3960434"><ele>248.5</ele><time>2026-04-03T08:53:41.75Z</time></trkpt><trkpt lat="43.3256772" lon="11.3958556"><ele>249.25</ele><time>2026-04-03T08:53:42.751Z</time></trkpt><trkpt lat="43.3256915" lon="11.3956693"><ele>250.0</ele><time>2026-04-03T08:53:43.75Z</time></trkpt><trkpt lat="43.3256934" lon="11.3954771"><ele>250.5</ele><time>2026-04-03T08:53:44.751Z</time></trkpt><trkpt lat="43.325693" lon="11.3952761"><ele>251.0</ele><time>2026-04-03T08:53:45.751Z</time></trkpt><trkpt lat="43.3256917" lon="11.3950788"><ele>251.5</ele><time>2026-04-03T08:53:46.751Z</time></trkpt><trkpt lat="43.3256905" lon="11.3948878"><ele>252.0</ele><time>2026-04-03T08:53:47.75Z</time></trkpt><trkpt lat="43.3256762" lon="11.3946972"><ele>252.75</ele><time>2026-04-03T08:53:48.75Z</time></trkpt><trkpt lat="43.3256482" lon="11.3944969"><ele>253.5</ele><time>2026-04-03T08:53:49.751Z</time></trkpt><trkpt lat="43.3256089" lon="11.3942988"><ele>254.25</ele><time>2026-04-03T08:53:50.751Z</time></trkpt><trkpt lat="43.3255553" lon="11.394106"><ele>255.0</ele><time>2026-04-03T08:53:51.751Z</time></trkpt><trkpt lat="43.3254968" lon="11.3939056"><ele>256.6666666666667</ele><time>2026-04-03T08:53:52.751Z</time></trkpt><trkpt lat="43.3254379" lon="11.3937009"><ele>258.33333333333337</ele><time>2026-04-03T08:53:53.75Z</time></trkpt><trkpt lat="43.3253725" lon="11.3935006"><ele>260.0</ele><time>2026-04-03T08:53:54.751Z</time></trkpt><trkpt lat="43.3253096" lon="11.3932978"><ele>260.0</ele><time>2026-04-03T08:53:55.75Z</time></trkpt><trkpt lat="43.325251" lon="11.3931141"><ele>260.0</ele><time>2026-04-03T08:53:56.75Z</time></trkpt><trkpt lat="43.3251994" lon="11.3929511"><ele>260.0</ele><time>2026-04-03T08:53:57.751Z</time></trkpt><trkpt lat="43.3251534" lon="11.3928112"><ele>260.0</ele><time>2026-04-03T08:53:58.751Z</time></trkpt><trkpt lat="43.3251074" lon="11.3926919"><ele>260.8</ele><time>2026-04-03T08:53:59.751Z</time></trkpt><trkpt lat="43.3250523" lon="11.3926021"><ele>261.6</ele><time>2026-04-03T08:54:00.751Z</time></trkpt><trkpt lat="43.3249729" lon="11.3925484"><ele>262.4</ele><time>2026-04-03T08:54:01.751Z</time></trkpt><trkpt lat="43.3248785" lon="11.3925428"><ele>263.2</ele><time>2026-04-03T08:54:02.751Z</time></trkpt><trkpt lat="43.3247808" lon="11.3925552"><ele>264.0</ele><time>2026-04-03T08:54:03.75Z</time></trkpt><trkpt lat="43.3246772" lon="11.3925725"><ele>264.25</ele><time>2026-04-03T08:54:04.751Z</time></trkpt><trkpt lat="43.3245691" lon="11.3925726"><ele>264.5</ele><time>2026-04-03T08:54:05.751Z</time></trkpt><trkpt lat="43.3244567" lon="11.3925418"><ele>264.75</ele><time>2026-04-03T08:54:06.751Z</time></trkpt><trkpt lat="43.324347" lon="11.3924895"><ele>265.0</ele><time>2026-04-03T08:54:07.751Z</time></trkpt><trkpt lat="43.3242288" lon="11.392439"><ele>265.0</ele><time>2026-04-03T08:54:08.751Z</time></trkpt><trkpt lat="43.3240998" lon="11.3923981"><ele>265.0</ele><time>2026-04-03T08:54:09.751Z</time></trkpt><trkpt lat="43.3239693" lon="11.392368"><ele>265.0</ele><time>2026-04-03T08:54:10.751Z</time></trkpt><trkpt lat="43.323858" lon="11.392349"><ele>265.0</ele><time>2026-04-03T08:54:11.751Z</time></trkpt><trkpt lat="43.3237527" lon="11.3923186"><ele>264.75</ele><time>2026-04-03T08:54:12.751Z</time></trkpt><trkpt lat="43.3236401" lon="11.3922914"><ele>264.5</ele><time>2026-04-03T08:54:13.75Z</time></trkpt><trkpt lat="43.3235252" lon="11.3922529"><ele>264.25</ele><time>2026-04-03T08:54:14.75Z</time></trkpt><trkpt lat="43.3233998" lon="11.3922186"><ele>264.0</ele><time>2026-04-03T08:54:15.751Z</time></trkpt><trkpt lat="43.3232767" lon="11.392197"><ele>262.25</ele><time>2026-04-03T08:54:16.751Z</time></trkpt><trkpt lat="43.3231504" lon="11.3921664"><ele>260.5</ele><time>2026-04-03T08:54:17.751Z</time></trkpt><trkpt lat="43.3230223" lon="11.3921352"><ele>258.75</ele><time>2026-04-03T08:54:18.751Z</time></trkpt><trkpt lat="43.3228947" lon="11.392092"><ele>257.0</ele><time>2026-04-03T08:54:19.75Z</time></trkpt><trkpt lat="43.3227627" lon="11.3920537"><ele>257.0</ele><time>2026-04-03T08:54:20.751Z</time></trkpt><trkpt lat="43.3226252" lon="11.3920153"><ele>257.0</ele><time>2026-04-03T08:54:21.751Z</time></trkpt><trkpt lat="43.32248" lon="11.3919751"><ele>257.0</ele><time>2026-04-03T08:54:22.751Z</time></trkpt><trkpt lat="43.322331" lon="11.391932"><ele>257.0</ele><time>2026-04-03T08:54:23.751Z</time></trkpt><trkpt lat="43.3221759" lon="11.3918941"><ele>255.66666666666669</ele><time>2026-04-03T08:54:24.751Z</time></trkpt><trkpt lat="43.3220223" lon="11.3918507"><ele>254.33333333333331</ele><time>2026-04-03T08:54:25.751Z</time></trkpt><trkpt lat="43.3218642" lon="11.3917979"><ele>253.0</ele><time>2026-04-03T08:54:26.75Z</time></trkpt><trkpt lat="43.3217048" lon="11.3917377"><ele>253.0</ele><time>2026-04-03T08:54:27.75Z</time></trkpt><trkpt lat="43.3215348" lon="11.3916646"><ele>253.0</ele><time>2026-04-03T08:54:28.751Z</time></trkpt><trkpt lat="43.3213479" lon="11.3915475"><ele>253.0</ele><time>2026-04-03T08:54:29.75Z</time></trkpt><trkpt lat="43.3211508" lon="11.3914105"><ele>251.0</ele><time>2026-04-03T08:54:30.751Z</time></trkpt><trkpt lat="43.320964" lon="11.3912799"><ele>249.0</ele><time>2026-04-03T08:54:31.751Z</time></trkpt><trkpt lat="43.320795" lon="11.39118"><ele>247.0</ele><time>2026-04-03T08:54:32.751Z</time></trkpt><trkpt lat="43.3206398" lon="11.3910874"><ele>247.5</ele><time>2026-04-03T08:54:33.75Z</time></trkpt><trkpt lat="43.320499" lon="11.3910186"><ele>248.0</ele><time>2026-04-03T08:54:34.751Z</time></trkpt><trkpt lat="43.3203627" lon="11.3909777"><ele>248.5</ele><time>2026-04-03T08:54:35.751Z</time></trkpt><trkpt lat="43.320255" lon="11.3909407"><ele>249.0</ele><time>2026-04-03T08:54:36.751Z</time></trkpt><trkpt lat="43.320176" lon="11.3908756"><ele>249.0</ele><time>2026-04-03T08:54:37.751Z</time></trkpt><trkpt lat="43.320112" lon="11.3907829"><ele>249.0</ele><time>2026-04-03T08:54:38.75Z</time></trkpt><trkpt lat="43.3200845" lon="11.3906535"><ele>249.0</ele><time>2026-04-03T08:54:39.75Z</time></trkpt><trkpt lat="43.3200594" lon="11.3904617"><ele>249.0</ele><time>2026-04-03T08:54:40.751Z</time></trkpt><trkpt lat="43.3200194" lon="11.3902309"><ele>248.33333333333331</ele><time>2026-04-03T08:54:41.75Z</time></trkpt><trkpt lat="43.3199672" lon="11.3899677"><ele>247.66666666666666</ele><time>2026-04-03T08:54:42.75Z</time></trkpt><trkpt lat="43.3199009" lon="11.3896946"><ele>247.0</ele><time>2026-04-03T08:54:43.751Z</time></trkpt><trkpt lat="43.3198157" lon="11.389392"><ele>245.0</ele><time>2026-04-03T08:54:44.751Z</time></trkpt><trkpt lat="43.3197342" lon="11.3890802"><ele>243.0</ele><time>2026-04-03T08:54:45.751Z</time></trkpt><trkpt lat="43.3196682" lon="11.3887922"><ele>238.33333333333331</ele><time>2026-04-03T08:54:46.75Z</time></trkpt><trkpt lat="43.3196123" lon="11.3885203"><ele>233.66666666666666</ele><time>2026-04-03T08:54:47.751Z</time></trkpt><trkpt lat="43.3195647" lon="11.3882789"><ele>229.0</ele><time>2026-04-03T08:54:48.751Z</time></trkpt><trkpt lat="43.3195286" lon="11.3880677"><ele>229.0</ele><time>2026-04-03T08:54:49.751Z</time></trkpt><trkpt lat="43.3194968" lon="11.3878857"><ele>229.0</ele><time>2026-04-03T08:54:50.751Z</time></trkpt><trkpt lat="43.3194603" lon="11.3877268"><ele>229.0</ele><time>2026-04-03T08:54:51.751Z</time></trkpt><trkpt lat="43.3194119" lon="11.3875874"><ele>229.0</ele><time>2026-04-03T08:54:52.751Z</time></trkpt><trkpt lat="43.3193281" lon="11.3874898"><ele>229.0</ele><time>2026-04-03T08:54:53.751Z</time></trkpt><trkpt lat="43.3192187" lon="11.3874216"><ele>228.99999999999997</ele><time>2026-04-03T08:54:54.751Z</time></trkpt><trkpt lat="43.3191263" lon="11.3873547"><ele>228.99999999999997</ele><time>2026-04-03T08:54:55.751Z</time></trkpt><trkpt lat="43.3190575" lon="11.3872562"><ele>229.0</ele><time>2026-04-03T08:54:56.751Z</time></trkpt><trkpt lat="43.3190313" lon="11.387139"><ele>229.0</ele><time>2026-04-03T08:54:57.751Z</time></trkpt><trkpt lat="43.3190415" lon="11.3869953"><ele>228.6</ele><time>2026-04-03T08:54:58.75Z</time></trkpt><trkpt lat="43.3190809" lon="11.3868539"><ele>228.2</ele><time>2026-04-03T08:54:59.751Z</time></trkpt><trkpt lat="43.31912" lon="11.3867209"><ele>227.79999999999998</ele><time>2026-04-03T08:55:00.75Z</time></trkpt><trkpt lat="43.31918" lon="11.3866117"><ele>227.39999999999998</ele><time>2026-04-03T08:55:01.751Z</time></trkpt><trkpt lat="43.3192589" lon="11.3865175"><ele>227.0</ele><time>2026-04-03T08:55:02.75Z</time></trkpt><trkpt lat="43.3193679" lon="11.3864282"><ele>227.0</ele><time>2026-04-03T08:55:03.75Z</time></trkpt><trkpt lat="43.3194968" lon="11.3863457"><ele>227.0</ele><time>2026-04-03T08:55:04.751Z</time></trkpt><trkpt lat="43.3196194" lon="11.3862729"><ele>227.0</ele><time>2026-04-03T08:55:05.75Z</time></trkpt><trkpt lat="43.3197377" lon="11.3862125"><ele>227.0</ele><time>2026-04-03T08:55:06.75Z</time></trkpt><trkpt lat="43.3198428" lon="11.3861452"><ele>226.0</ele><time>2026-04-03T08:55:07.75Z</time></trkpt><trkpt lat="43.3199361" lon="11.3860763"><ele>225.0</ele><time>2026-04-03T08:55:08.75Z</time></trkpt><trkpt lat="43.3200104" lon="11.3859905"><ele>224.0</ele><time>2026-04-03T08:55:09.751Z</time></trkpt><trkpt lat="43.3200621" lon="11.3858795"><ele>223.0</ele><time>2026-04-03T08:55:10.751Z</time></trkpt><trkpt lat="43.3200951" lon="11.3857636"><ele>222.0</ele><time>2026-04-03T08:55:11.751Z</time></trkpt><trkpt lat="43.3201118" lon="11.3856306"><ele>220.75</ele><time>2026-04-03T08:55:12.751Z</time></trkpt><trkpt lat="43.3201133" lon="11.3854863"><ele>219.5</ele><time>2026-04-03T08:55:13.75Z</time></trkpt><trkpt lat="43.3201097" lon="11.3853216"><ele>218.25</ele><time>2026-04-03T08:55:14.751Z</time></trkpt><trkpt lat="43.3201096" lon="11.3851604"><ele>217.0</ele><time>2026-04-03T08:55:15.751Z</time></trkpt><trkpt lat="43.3201524" lon="11.3850127"><ele>217.0</ele><time>2026-04-03T08:55:16.75Z</time></trkpt><trkpt lat="43.3202158" lon="11.3848664"><ele>217.0</ele><time>2026-04-03T08:55:17.75Z</time></trkpt><trkpt lat="43.3203026" lon="11.3847256"><ele>217.0</ele><time>2026-04-03T08:55:18.75Z</time></trkpt><trkpt lat="43.3203976" lon="11.3845888"><ele>217.0</ele><time>2026-04-03T08:55:19.75Z</time></trkpt><trkpt lat="43.320505" lon="11.3844523"><ele>215.6</ele><time>2026-04-03T08:55:20.751Z</time></trkpt><trkpt lat="43.3206041" lon="11.3843228"><ele>214.2</ele><time>2026-04-03T08:55:21.75Z</time></trkpt><trkpt lat="43.3206796" lon="11.3842085"><ele>212.8</ele><time>2026-04-03T08:55:22.751Z</time></trkpt><trkpt lat="43.3207326" lon="11.3841052"><ele>211.4</ele><time>2026-04-03T08:55:23.751Z</time></trkpt><trkpt lat="43.3207551" lon="11.3839966"><ele>210.0</ele><time>2026-04-03T08:55:24.751Z</time></trkpt><trkpt lat="43.3207631" lon="11.38389"><ele>208.4</ele><time>2026-04-03T08:55:25.751Z</time></trkpt><trkpt lat="43.3207468" lon="11.3837758"><ele>206.8</ele><time>2026-04-03T08:55:26.751Z</time></trkpt><trkpt lat="43.3207204" lon="11.3836555"><ele>205.2</ele><time>2026-04-03T08:55:27.75Z</time></trkpt><trkpt lat="43.320687" lon="11.383535"><ele>203.6</ele><time>2026-04-03T08:55:28.751Z</time></trkpt><trkpt lat="43.3206611" lon="11.3834038"><ele>202.0</ele><time>2026-04-03T08:55:29.751Z</time></trkpt><trkpt lat="43.3206386" lon="11.3832707"><ele>202.0</ele><time>2026-04-03T08:55:30.75Z</time></trkpt><trkpt lat="43.3206171" lon="11.3831253"><ele>202.0</ele><time>2026-04-03T08:55:31.751Z</time></trkpt><trkpt lat="43.3206044" lon="11.3829702"><ele>202.0</ele><time>2026-04-03T08:55:32.75Z</time></trkpt><trkpt lat="43.3205909" lon="11.382811"><ele>202.0</ele><time>2026-04-03T08:55:33.751Z</time></trkpt><trkpt lat="43.3205747" lon="11.3826592"><ele>201.49999999999997</ele><time>2026-04-03T08:55:34.75Z</time></trkpt><trkpt lat="43.3205583" lon="11.3825256"><ele>201.0</ele><time>2026-04-03T08:55:35.751Z</time></trkpt><trkpt lat="43.3205395" lon="11.3824049"><ele>200.5</ele><time>2026-04-03T08:55:36.751Z</time></trkpt><trkpt lat="43.3205235" lon="11.3823107"><ele>200.0</ele><time>2026-04-03T08:55:37.751Z</time></trkpt><trkpt lat="43.3205068" lon="11.3821833"><ele>199.49999999999997</ele><time>2026-04-03T08:55:39.75Z</time></trkpt><trkpt lat="43.3204808" lon="11.3820973"><ele>199.0</ele><time>2026-04-03T08:56:41.75Z</time></trkpt><trkpt lat="43.3204223" lon="11.3821473"><ele>198.79999999999998</ele><time>2026-04-03T08:56:47.751Z</time></trkpt><trkpt lat="43.3204916" lon="11.3820817"><ele>198.6</ele><time>2026-04-03T09:16:06.748Z</time></trkpt><trkpt lat="43.3204668" lon="11.3819348"><ele>198.4</ele><time>2026-04-03T09:16:08.747Z</time></trkpt><trkpt lat="43.320431" lon="11.3818135"><ele>198.2</ele><time>2026-04-03T09:16:09.748Z</time></trkpt><trkpt lat="43.3204008" lon="11.3816838"><ele>198.0</ele><time>2026-04-03T09:16:10.748Z</time></trkpt><trkpt lat="43.3203831" lon="11.381567"><ele>198.0</ele><time>2026-04-03T09:16:11.748Z</time></trkpt><trkpt lat="43.3203644" lon="11.381445"><ele>198.0</ele><time>2026-04-03T09:16:12.748Z</time></trkpt><trkpt lat="43.3203392" lon="11.3813143"><ele>198.0</ele><time>2026-04-03T09:16:13.748Z</time></trkpt><trkpt lat="43.3203213" lon="11.3811743"><ele>198.0</ele><time>2026-04-03T09:16:14.747Z</time></trkpt><trkpt lat="43.3203174" lon="11.3810072"><ele>198.0</ele><time>2026-04-03T09:16:15.748Z</time></trkpt><trkpt lat="43.3203282" lon="11.380816"><ele>197.75</ele><time>2026-04-03T09:16:16.747Z</time></trkpt><trkpt lat="43.3203499" lon="11.3806292"><ele>197.5</ele><time>2026-04-03T09:16:17.748Z</time></trkpt><trkpt lat="43.3203704" lon="11.3804486"><ele>197.25</ele><time>2026-04-03T09:16:18.748Z</time></trkpt><trkpt lat="43.3203938" lon="11.3802818"><ele>197.0</ele><time>2026-04-03T09:16:19.748Z</time></trkpt><trkpt lat="43.3204155" lon="11.3801173"><ele>197.0</ele><time>2026-04-03T09:16:20.747Z</time></trkpt><trkpt lat="43.3204332" lon="11.379962"><ele>197.0</ele><time>2026-04-03T09:16:21.747Z</time></trkpt><trkpt lat="43.3204552" lon="11.3798027"><ele>197.0</ele><time>2026-04-03T09:16:22.748Z</time></trkpt><trkpt lat="43.3204754" lon="11.3796323"><ele>197.0</ele><time>2026-04-03T09:16:23.747Z</time></trkpt><trkpt lat="43.3204959" lon="11.3794644"><ele>197.75</ele><time>2026-04-03T09:16:24.748Z</time></trkpt><trkpt lat="43.3205212" lon="11.3792939"><ele>198.5</ele><time>2026-04-03T09:16:25.747Z</time></trkpt><trkpt lat="43.3205432" lon="11.3791192"><ele>199.25</ele><time>2026-04-03T09:16:26.748Z</time></trkpt><trkpt lat="43.3205619" lon="11.3789548"><ele>200.0</ele><time>2026-04-03T09:16:27.748Z</time></trkpt><trkpt lat="43.3205777" lon="11.3787784"><ele>200.33333333333334</ele><time>2026-04-03T09:16:28.748Z</time></trkpt><trkpt lat="43.3205847" lon="11.3785826"><ele>200.66666666666669</ele><time>2026-04-03T09:16:29.748Z</time></trkpt><trkpt lat="43.3205779" lon="11.3783718"><ele>201.0</ele><time>2026-04-03T09:16:30.748Z</time></trkpt><trkpt lat="43.3205608" lon="11.3781487"><ele>205.33333333333331</ele><time>2026-04-03T09:16:31.747Z</time></trkpt><trkpt lat="43.3205338" lon="11.3779115"><ele>209.66666666666666</ele><time>2026-04-03T09:16:32.747Z</time></trkpt><trkpt lat="43.3205022" lon="11.3776662"><ele>214.0</ele><time>2026-04-03T09:16:33.748Z</time></trkpt><trkpt lat="43.3204724" lon="11.3774169"><ele>217.33333333333331</ele><time>2026-04-03T09:16:34.748Z</time></trkpt><trkpt lat="43.3204466" lon="11.377166"><ele>220.66666666666669</ele><time>2026-04-03T09:16:35.747Z</time></trkpt><trkpt lat="43.3204374" lon="11.3769216"><ele>224.0</ele><time>2026-04-03T09:16:36.747Z</time></trkpt><trkpt lat="43.3204444" lon="11.3766637"><ele>224.0</ele><time>2026-04-03T09:16:37.747Z</time></trkpt><trkpt lat="43.3204624" lon="11.3763903"><ele>224.0</ele><time>2026-04-03T09:16:38.748Z</time></trkpt><trkpt lat="43.3204836" lon="11.3761413"><ele>224.0</ele><time>2026-04-03T09:16:39.748Z</time></trkpt><trkpt lat="43.32049" lon="11.3759213"><ele>223.25</ele><time>2026-04-03T09:16:40.748Z</time></trkpt><trkpt lat="43.3204949" lon="11.3757437"><ele>222.5</ele><time>2026-04-03T09:16:41.748Z</time></trkpt><trkpt lat="43.3204715" lon="11.3755906"><ele>221.75</ele><time>2026-04-03T09:16:42.747Z</time></trkpt><trkpt lat="43.3204182" lon="11.3754576"><ele>221.0</ele><time>2026-04-03T09:16:43.748Z</time></trkpt><trkpt lat="43.3203462" lon="11.3753317"><ele>220.60000000000002</ele><time>2026-04-03T09:16:44.747Z</time></trkpt><trkpt lat="43.3202809" lon="11.3752137"><ele>220.20000000000002</ele><time>2026-04-03T09:16:45.747Z</time></trkpt><trkpt lat="43.3202451" lon="11.3750996"><ele>219.79999999999998</ele><time>2026-04-03T09:16:46.748Z</time></trkpt><trkpt lat="43.320228" lon="11.3749701"><ele>219.39999999999998</ele><time>2026-04-03T09:16:47.748Z</time></trkpt><trkpt lat="43.3202515" lon="11.374836"><ele>219.0</ele><time>2026-04-03T09:16:48.747Z</time></trkpt><trkpt lat="43.3202796" lon="11.3746889"><ele>219.5</ele><time>2026-04-03T09:16:49.747Z</time></trkpt><trkpt lat="43.3203138" lon="11.3745178"><ele>220.0</ele><time>2026-04-03T09:16:50.748Z</time></trkpt><trkpt lat="43.3203521" lon="11.3743152"><ele>220.5</ele><time>2026-04-03T09:16:51.748Z</time></trkpt><trkpt lat="43.3204084" lon="11.3740995"><ele>221.0</ele><time>2026-04-03T09:16:52.748Z</time></trkpt><trkpt lat="43.3204746" lon="11.3738922"><ele>223.0</ele><time>2026-04-03T09:16:53.748Z</time></trkpt><trkpt lat="43.3205556" lon="11.373675"><ele>225.0</ele><time>2026-04-03T09:16:54.748Z</time></trkpt><trkpt lat="43.3206582" lon="11.3734339"><ele>227.0</ele><time>2026-04-03T09:16:55.748Z</time></trkpt><trkpt lat="43.3207625" lon="11.3732128"><ele>227.66666666666669</ele><time>2026-04-03T09:16:56.747Z</time></trkpt><trkpt lat="43.3208579" lon="11.3730305"><ele>228.33333333333331</ele><time>2026-04-03T09:16:57.748Z</time></trkpt><trkpt lat="43.3209434" lon="11.372851"><ele>229.0</ele><time>2026-04-03T09:16:58.748Z</time></trkpt><trkpt lat="43.3210053" lon="11.372636"><ele>232.0</ele><time>2026-04-03T09:16:59.748Z</time></trkpt><trkpt lat="43.3210568" lon="11.3723807"><ele>235.0</ele><time>2026-04-03T09:17:00.748Z</time></trkpt><trkpt lat="43.3211058" lon="11.3720827"><ele>238.0</ele><time>2026-04-03T09:17:01.748Z</time></trkpt><trkpt lat="43.3211486" lon="11.3717668"><ele>241.0</ele><time>2026-04-03T09:17:02.748Z</time></trkpt><trkpt lat="43.3211849" lon="11.3714695"><ele>244.0</ele><time>2026-04-03T09:17:03.747Z</time></trkpt><trkpt lat="43.3212225" lon="11.3712095"><ele>247.0</ele><time>2026-04-03T09:17:04.748Z</time></trkpt><trkpt lat="43.3212799" lon="11.3709596"><ele>248.66666666666666</ele><time>2026-04-03T09:17:05.748Z</time></trkpt><trkpt lat="43.321363" lon="11.3707252"><ele>250.33333333333331</ele><time>2026-04-03T09:17:06.748Z</time></trkpt><trkpt lat="43.3214648" lon="11.3704876"><ele>252.0</ele><time>2026-04-03T09:17:07.747Z</time></trkpt><trkpt lat="43.3215813" lon="11.3702387"><ele>252.0</ele><time>2026-04-03T09:17:08.748Z</time></trkpt><trkpt lat="43.3217004" lon="11.3699953"><ele>252.0</ele><time>2026-04-03T09:17:09.748Z</time></trkpt><trkpt lat="43.3218018" lon="11.3697933"><ele>252.0</ele><time>2026-04-03T09:17:10.747Z</time></trkpt><trkpt lat="43.3218878" lon="11.3696262"><ele>253.8</ele><time>2026-04-03T09:17:11.748Z</time></trkpt><trkpt lat="43.3219509" lon="11.3694872"><ele>255.6</ele><time>2026-04-03T09:17:12.748Z</time></trkpt><trkpt lat="43.321999" lon="11.3693764"><ele>257.40000000000003</ele><time>2026-04-03T09:17:13.748Z</time></trkpt><trkpt lat="43.3220083" lon="11.369269"><ele>259.2</ele><time>2026-04-03T09:17:14.748Z</time></trkpt><trkpt lat="43.3219083" lon="11.3691721"><ele>261.0</ele><time>2026-04-03T09:17:16.748Z</time></trkpt><trkpt lat="43.3218201" lon="11.3691963"><ele>261.0</ele><time>2026-04-03T09:17:17.748Z</time></trkpt><trkpt lat="43.3217277" lon="11.3692958"><ele>261.0</ele><time>2026-04-03T09:17:18.748Z</time></trkpt><trkpt lat="43.32163" lon="11.3693918"><ele>261.0</ele><time>2026-04-03T09:17:19.747Z</time></trkpt><trkpt lat="43.3215359" lon="11.3694201"><ele>261.0</ele><time>2026-04-03T09:17:20.747Z</time></trkpt><trkpt lat="43.3214368" lon="11.3693995"><ele>261.0</ele><time>2026-04-03T09:17:21.748Z</time></trkpt><trkpt lat="43.321338" lon="11.3693126"><ele>261.5</ele><time>2026-04-03T09:17:22.747Z</time></trkpt><trkpt lat="43.3212257" lon="11.3692011"><ele>262.0</ele><time>2026-04-03T09:17:23.747Z</time></trkpt><trkpt lat="43.3211149" lon="11.3690918"><ele>262.5</ele><time>2026-04-03T09:17:24.748Z</time></trkpt><trkpt lat="43.3210286" lon="11.3690043"><ele>263.0</ele><time>2026-04-03T09:17:25.748Z</time></trkpt><trkpt lat="43.3209685" lon="11.3689261"><ele>263.0</ele><time>2026-04-03T09:17:26.747Z</time></trkpt><trkpt lat="43.3209421" lon="11.3688395"><ele>263.0</ele><time>2026-04-03T09:17:27.747Z</time></trkpt><trkpt lat="43.3209356" lon="11.3687254"><ele>263.0</ele><time>2026-04-03T09:17:28.747Z</time></trkpt><trkpt lat="43.3209671" lon="11.3685945"><ele>263.0</ele><time>2026-04-03T09:17:29.748Z</time></trkpt><trkpt lat="43.3210015" lon="11.368466"><ele>263.0</ele><time>2026-04-03T09:17:30.747Z</time></trkpt><trkpt lat="43.3210328" lon="11.3683292"><ele>263.0</ele><time>2026-04-03T09:17:31.747Z</time></trkpt><trkpt lat="43.3210511" lon="11.3681949"><ele>263.0</ele><time>2026-04-03T09:17:32.748Z</time></trkpt><trkpt lat="43.3210611" lon="11.3680671"><ele>263.0</ele><time>2026-04-03T09:17:33.748Z</time></trkpt><trkpt lat="43.3210696" lon="11.3679176"><ele>263.0</ele><time>2026-04-03T09:17:34.748Z</time></trkpt><trkpt lat="43.3210786" lon="11.3677376"><ele>263.0</ele><time>2026-04-03T09:17:35.748Z</time></trkpt><trkpt lat="43.3210986" lon="11.367515"><ele>264.33333333333337</ele><time>2026-04-03T09:17:36.747Z</time></trkpt><trkpt lat="43.321112" lon="11.3672822"><ele>265.6666666666667</ele><time>2026-04-03T09:17:37.748Z</time></trkpt><trkpt lat="43.3211154" lon="11.3670609"><ele>267.0</ele><time>2026-04-03T09:17:38.748Z</time></trkpt><trkpt lat="43.3211102" lon="11.3668462"><ele>268.0</ele><time>2026-04-03T09:17:39.747Z</time></trkpt><trkpt lat="43.3210955" lon="11.366649"><ele>269.0</ele><time>2026-04-03T09:17:40.747Z</time></trkpt><trkpt lat="43.3210752" lon="11.3664551"><ele>270.0</ele><time>2026-04-03T09:17:41.748Z</time></trkpt><trkpt lat="43.3210473" lon="11.3662665"><ele>271.0</ele><time>2026-04-03T09:17:42.748Z</time></trkpt><trkpt lat="43.321016" lon="11.3660953"><ele>271.0</ele><time>2026-04-03T09:17:43.748Z</time></trkpt><trkpt lat="43.3209758" lon="11.3659178"><ele>271.0</ele><time>2026-04-03T09:17:44.748Z</time></trkpt><trkpt lat="43.3209273" lon="11.3657237"><ele>271.0</ele><time>2026-04-03T09:17:45.748Z</time></trkpt><trkpt lat="43.3208674" lon="11.3655241"><ele>271.0</ele><time>2026-04-03T09:17:46.748Z</time></trkpt><trkpt lat="43.3208007" lon="11.365322"><ele>271.3333333333333</ele><time>2026-04-03T09:17:47.748Z</time></trkpt><trkpt lat="43.3207154" lon="11.3651217"><ele>271.6666666666667</ele><time>2026-04-03T09:17:48.748Z</time></trkpt><trkpt lat="43.320629" lon="11.3649337"><ele>272.0</ele><time>2026-04-03T09:17:49.747Z</time></trkpt><trkpt lat="43.3205435" lon="11.3647643"><ele>272.5</ele><time>2026-04-03T09:17:50.747Z</time></trkpt><trkpt lat="43.3204561" lon="11.3646043"><ele>273.0</ele><time>2026-04-03T09:17:51.748Z</time></trkpt><trkpt lat="43.3203686" lon="11.3644444"><ele>273.5</ele><time>2026-04-03T09:17:52.748Z</time></trkpt><trkpt lat="43.320277" lon="11.3642898"><ele>274.0</ele><time>2026-04-03T09:17:53.748Z</time></trkpt><trkpt lat="43.3201811" lon="11.3641294"><ele>274.0</ele><time>2026-04-03T09:17:54.748Z</time></trkpt><trkpt lat="43.3200812" lon="11.3639646"><ele>274.0</ele><time>2026-04-03T09:17:55.748Z</time></trkpt><trkpt lat="43.3199779" lon="11.3637966"><ele>274.0</ele><time>2026-04-03T09:17:56.748Z</time></trkpt><trkpt lat="43.3198661" lon="11.3636402"><ele>274.75</ele><time>2026-04-03T09:17:57.747Z</time></trkpt><trkpt lat="43.3197566" lon="11.3635013"><ele>275.5</ele><time>2026-04-03T09:17:58.747Z</time></trkpt><trkpt lat="43.3196607" lon="11.363375"><ele>276.25</ele><time>2026-04-03T09:17:59.747Z</time></trkpt><trkpt lat="43.3195855" lon="11.363248"><ele>277.0</ele><time>2026-04-03T09:18:00.747Z</time></trkpt><trkpt lat="43.319522" lon="11.3631077"><ele>275.25</ele><time>2026-04-03T09:18:01.748Z</time></trkpt><trkpt lat="43.3194659" lon="11.3629526"><ele>273.5</ele><time>2026-04-03T09:18:02.748Z</time></trkpt><trkpt lat="43.3194265" lon="11.3627918"><ele>271.75</ele><time>2026-04-03T09:18:03.748Z</time></trkpt><trkpt lat="43.319372" lon="11.3626369"><ele>270.0</ele><time>2026-04-03T09:18:04.747Z</time></trkpt><trkpt lat="43.3192866" lon="11.3624963"><ele>270.0</ele><time>2026-04-03T09:18:05.747Z</time></trkpt><trkpt lat="43.3191828" lon="11.3623557"><ele>270.0</ele><time>2026-04-03T09:18:06.747Z</time></trkpt><trkpt lat="43.3190751" lon="11.362207"><ele>270.0</ele><time>2026-04-03T09:18:07.748Z</time></trkpt><trkpt lat="43.3189713" lon="11.3620488"><ele>268.6666666666667</ele><time>2026-04-03T09:18:08.747Z</time></trkpt><trkpt lat="43.3188696" lon="11.3618964"><ele>267.33333333333337</ele><time>2026-04-03T09:18:09.747Z</time></trkpt><trkpt lat="43.3187781" lon="11.3617375"><ele>266.0</ele><time>2026-04-03T09:18:10.747Z</time></trkpt><trkpt lat="43.3186997" lon="11.3615578"><ele>263.33333333333337</ele><time>2026-04-03T09:18:11.747Z</time></trkpt><trkpt lat="43.3186266" lon="11.3613555"><ele>260.6666666666667</ele><time>2026-04-03T09:18:12.748Z</time></trkpt><trkpt lat="43.3185595" lon="11.3611424"><ele>258.0</ele><time>2026-04-03T09:18:13.747Z</time></trkpt><trkpt lat="43.3184863" lon="11.3609385"><ele>258.0</ele><time>2026-04-03T09:18:14.747Z</time></trkpt><trkpt lat="43.3184051" lon="11.3607522"><ele>258.0</ele><time>2026-04-03T09:18:15.747Z</time></trkpt><trkpt lat="43.3183293" lon="11.3605772"><ele>258.0</ele><time>2026-04-03T09:18:16.748Z</time></trkpt><trkpt lat="43.3182611" lon="11.3604089"><ele>258.0</ele><time>2026-04-03T09:18:17.748Z</time></trkpt><trkpt lat="43.3181904" lon="11.3602572"><ele>256.25</ele><time>2026-04-03T09:18:18.747Z</time></trkpt><trkpt lat="43.3181141" lon="11.3601169"><ele>254.5</ele><time>2026-04-03T09:18:19.748Z</time></trkpt><trkpt lat="43.3180383" lon="11.3599922"><ele>252.75</ele><time>2026-04-03T09:18:20.748Z</time></trkpt><trkpt lat="43.3179674" lon="11.3598717"><ele>251.0</ele><time>2026-04-03T09:18:21.748Z</time></trkpt><trkpt lat="43.3179018" lon="11.359729"><ele>248.5</ele><time>2026-04-03T09:18:22.747Z</time></trkpt><trkpt lat="43.3178384" lon="11.3595631"><ele>246.0</ele><time>2026-04-03T09:18:23.748Z</time></trkpt><trkpt lat="43.3177913" lon="11.359386"><ele>243.5</ele><time>2026-04-03T09:18:24.748Z</time></trkpt><trkpt lat="43.3177539" lon="11.3592141"><ele>241.0</ele><time>2026-04-03T09:18:25.748Z</time></trkpt><trkpt lat="43.3177221" lon="11.3590412"><ele>241.0</ele><time>2026-04-03T09:18:26.748Z</time></trkpt><trkpt lat="43.3176852" lon="11.3588782"><ele>241.0</ele><time>2026-04-03T09:18:27.747Z</time></trkpt><trkpt lat="43.3176294" lon="11.3587206"><ele>241.0</ele><time>2026-04-03T09:18:28.747Z</time></trkpt><trkpt lat="43.3175521" lon="11.3585886"><ele>241.0</ele><time>2026-04-03T09:18:29.747Z</time></trkpt><trkpt lat="43.3174611" lon="11.3584795"><ele>240.0</ele><time>2026-04-03T09:18:30.748Z</time></trkpt><trkpt lat="43.3173496" lon="11.358403"><ele>239.0</ele><time>2026-04-03T09:18:31.748Z</time></trkpt><trkpt lat="43.3172267" lon="11.3583573"><ele>238.0</ele><time>2026-04-03T09:18:32.748Z</time></trkpt><trkpt lat="43.3170949" lon="11.3583405"><ele>237.0</ele><time>2026-04-03T09:18:33.747Z</time></trkpt><trkpt lat="43.3169595" lon="11.3583281"><ele>235.75</ele><time>2026-04-03T09:18:34.748Z</time></trkpt><trkpt lat="43.3168342" lon="11.3583002"><ele>234.5</ele><time>2026-04-03T09:18:35.747Z</time></trkpt><trkpt lat="43.3167247" lon="11.3582277"><ele>233.25</ele><time>2026-04-03T09:18:36.748Z</time></trkpt><trkpt lat="43.3166278" lon="11.3581158"><ele>232.0</ele><time>2026-04-03T09:18:37.748Z</time></trkpt><trkpt lat="43.3165343" lon="11.3579686"><ele>232.0</ele><time>2026-04-03T09:18:38.748Z</time></trkpt><trkpt lat="43.3164394" lon="11.3578115"><ele>232.0</ele><time>2026-04-03T09:18:39.747Z</time></trkpt><trkpt lat="43.3163508" lon="11.3576652"><ele>232.0</ele><time>2026-04-03T09:18:40.748Z</time></trkpt><trkpt lat="43.3162598" lon="11.35753"><ele>232.0</ele><time>2026-04-03T09:18:41.747Z</time></trkpt><trkpt lat="43.3161812" lon="11.3574101"><ele>231.0</ele><time>2026-04-03T09:18:42.747Z</time></trkpt><trkpt lat="43.3161326" lon="11.3572708"><ele>230.0</ele><time>2026-04-03T09:18:43.748Z</time></trkpt><trkpt lat="43.3161021" lon="11.3571331"><ele>229.0</ele><time>2026-04-03T09:18:44.747Z</time></trkpt><trkpt lat="43.3160799" lon="11.3570152"><ele>228.0</ele><time>2026-04-03T09:18:45.748Z</time></trkpt><trkpt lat="43.3160712" lon="11.3569084"><ele>227.0</ele><time>2026-04-03T09:18:46.747Z</time></trkpt><trkpt lat="43.3160674" lon="11.3568087"><ele>226.83333333333334</ele><time>2026-04-03T09:18:47.748Z</time></trkpt><trkpt lat="43.3160583" lon="11.3566667"><ele>226.66666666666669</ele><time>2026-04-03T09:18:49.747Z</time></trkpt><trkpt lat="43.3160486" lon="11.3565778"><ele>226.5</ele><time>2026-04-03T09:18:52.748Z</time></trkpt><trkpt lat="43.3160362" lon="11.3564772"><ele>226.33333333333331</ele><time>2026-04-03T09:18:55.747Z</time></trkpt><trkpt lat="43.3160335" lon="11.3563774"><ele>226.16666666666666</ele><time>2026-04-03T09:18:59.748Z</time></trkpt><trkpt lat="43.3160094" lon="11.3562909"><ele>226.0</ele><time>2026-04-03T09:19:09.748Z</time></trkpt><trkpt lat="43.3160059" lon="11.3561817"><ele>225.83333333333331</ele><time>2026-04-03T09:19:12.748Z</time></trkpt><trkpt lat="43.3160588" lon="11.3560671"><ele>225.66666666666666</ele><time>2026-04-03T09:19:14.747Z</time></trkpt><trkpt lat="43.316099" lon="11.355998"><ele>225.5</ele><time>2026-04-03T09:19:15.747Z</time></trkpt><trkpt lat="43.3161393" lon="11.3559243"><ele>225.33333333333331</ele><time>2026-04-03T09:19:16.748Z</time></trkpt><trkpt lat="43.3161939" lon="11.3558364"><ele>225.16666666666666</ele><time>2026-04-03T09:19:17.747Z</time></trkpt><trkpt lat="43.3162517" lon="11.3557505"><ele>225.0</ele><time>2026-04-03T09:19:18.748Z</time></trkpt><trkpt lat="43.3162974" lon="11.3556711"><ele>225.0</ele><time>2026-04-03T09:19:19.747Z</time></trkpt><trkpt lat="43.3163433" lon="11.3555912"><ele>225.0</ele><time>2026-04-03T09:19:20.748Z</time></trkpt><trkpt lat="43.3163716" lon="11.3555022"><ele>225.0</ele><time>2026-04-03T09:19:21.747Z</time></trkpt><trkpt lat="43.3163883" lon="11.3554101"><ele>225.0</ele><time>2026-04-03T09:19:22.748Z</time></trkpt><trkpt lat="43.3163604" lon="11.3553278"><ele>225.0</ele><time>2026-04-03T09:19:23.747Z</time></trkpt><trkpt lat="43.3163071" lon="11.3552805"><ele>225.0</ele><time>2026-04-03T09:19:24.748Z</time></trkpt><trkpt lat="43.3161812" lon="11.3552822"><ele>225.0</ele><time>2026-04-03T09:19:26.748Z</time></trkpt><trkpt lat="43.3161231" lon="11.3553301"><ele>225.0</ele><time>2026-04-03T09:19:27.748Z</time></trkpt><trkpt lat="43.3160902" lon="11.3554057"><ele>225.0</ele><time>2026-04-03T09:19:28.747Z</time></trkpt><trkpt lat="43.3160731" lon="11.3555775"><ele>225.0</ele><time>2026-04-03T09:19:30.748Z</time></trkpt><trkpt lat="43.3160554" lon="11.3557204"><ele>225.0</ele><time>2026-04-03T09:19:32.748Z</time></trkpt><trkpt lat="43.3159825" lon="11.3558633"><ele>225.0</ele><time>2026-04-03T09:19:34.748Z</time></trkpt><trkpt lat="43.3159348" lon="11.3559405"><ele>225.0</ele><time>2026-04-03T09:19:35.748Z</time></trkpt><trkpt lat="43.3158879" lon="11.3560084"><ele>225.0</ele><time>2026-04-03T09:19:36.747Z</time></trkpt><trkpt lat="43.3158099" lon="11.3560015"><ele>225.0</ele><time>2026-04-03T09:19:38.747Z</time></trkpt><trkpt lat="43.3157472" lon="11.355963"><ele>225.0</ele><time>2026-04-03T09:19:39.747Z</time></trkpt><trkpt lat="43.3156726" lon="11.355904"><ele>225.0</ele><time>2026-04-03T09:19:40.748Z</time></trkpt><trkpt lat="43.3155838" lon="11.3558627"><ele>225.8</ele><time>2026-04-03T09:19:41.748Z</time></trkpt><trkpt lat="43.3154812" lon="11.3558372"><ele>226.6</ele><time>2026-04-03T09:19:42.747Z</time></trkpt><trkpt lat="43.3153727" lon="11.3558283"><ele>227.39999999999998</ele><time>2026-04-03T09:19:43.747Z</time></trkpt><trkpt lat="43.3152657" lon="11.3558384"><ele>228.2</ele><time>2026-04-03T09:19:44.748Z</time></trkpt><trkpt lat="43.3151467" lon="11.3558827"><ele>229.0</ele><time>2026-04-03T09:19:45.748Z</time></trkpt><trkpt lat="43.3150187" lon="11.3559816"><ele>229.0</ele><time>2026-04-03T09:19:46.748Z</time></trkpt><trkpt lat="43.3148827" lon="11.3561053"><ele>229.0</ele><time>2026-04-03T09:19:47.748Z</time></trkpt><trkpt lat="43.3147643" lon="11.3562155"><ele>229.0</ele><time>2026-04-03T09:19:48.747Z</time></trkpt><trkpt lat="43.3146663" lon="11.3563152"><ele>229.0</ele><time>2026-04-03T09:19:49.748Z</time></trkpt><trkpt lat="43.3145829" lon="11.3563749"><ele>229.79999999999998</ele><time>2026-04-03T09:19:50.748Z</time></trkpt><trkpt lat="43.3145099" lon="11.3563884"><ele>230.59999999999997</ele><time>2026-04-03T09:19:51.748Z</time></trkpt><trkpt lat="43.3144253" lon="11.3562871"><ele>231.4</ele><time>2026-04-03T09:19:53.747Z</time></trkpt><trkpt lat="43.3144505" lon="11.3561864"><ele>232.2</ele><time>2026-04-03T09:19:54.748Z</time></trkpt><trkpt lat="43.3144858" lon="11.3560478"><ele>233.0</ele><time>2026-04-03T09:19:55.748Z</time></trkpt><trkpt lat="43.3145377" lon="11.3558716"><ele>236.33333333333334</ele><time>2026-04-03T09:19:56.748Z</time></trkpt><trkpt lat="43.3145911" lon="11.3556749"><ele>239.66666666666669</ele><time>2026-04-03T09:19:57.747Z</time></trkpt><trkpt lat="43.3146324" lon="11.3554478"><ele>243.0</ele><time>2026-04-03T09:19:58.747Z</time></trkpt><trkpt lat="43.314651" lon="11.3552061"><ele>245.75</ele><time>2026-04-03T09:19:59.748Z</time></trkpt><trkpt lat="43.3146549" lon="11.3550014"><ele>248.5</ele><time>2026-04-03T09:20:00.748Z</time></trkpt><trkpt lat="43.3146423" lon="11.354812"><ele>251.25</ele><time>2026-04-03T09:20:01.748Z</time></trkpt><trkpt lat="43.3146201" lon="11.3546566"><ele>254.0</ele><time>2026-04-03T09:20:02.748Z</time></trkpt><trkpt lat="43.314581" lon="11.3545192"><ele>255.25</ele><time>2026-04-03T09:20:03.747Z</time></trkpt><trkpt lat="43.314525" lon="11.3543815"><ele>256.5</ele><time>2026-04-03T09:20:04.748Z</time></trkpt><trkpt lat="43.3144411" lon="11.3542634"><ele>257.75</ele><time>2026-04-03T09:20:05.748Z</time></trkpt><trkpt lat="43.3143484" lon="11.3541211"><ele>259.0</ele><time>2026-04-03T09:20:06.748Z</time></trkpt><trkpt lat="43.314275" lon="11.3539628"><ele>258.0</ele><time>2026-04-03T09:20:07.747Z</time></trkpt><trkpt lat="43.3142116" lon="11.3538121"><ele>257.0</ele><time>2026-04-03T09:20:08.748Z</time></trkpt><trkpt lat="43.3141297" lon="11.3536608"><ele>256.0</ele><time>2026-04-03T09:20:09.748Z</time></trkpt><trkpt lat="43.3140085" lon="11.3535163"><ele>255.0</ele><time>2026-04-03T09:20:10.747Z</time></trkpt><trkpt lat="43.3138659" lon="11.3533551"><ele>259.6666666666667</ele><time>2026-04-03T09:20:11.748Z</time></trkpt><trkpt lat="43.313738" lon="11.3531982"><ele>264.33333333333337</ele><time>2026-04-03T09:20:12.748Z</time></trkpt><trkpt lat="43.313623" lon="11.3530485"><ele>269.0</ele><time>2026-04-03T09:20:13.747Z</time></trkpt><trkpt lat="43.3135128" lon="11.3528943"><ele>269.0</ele><time>2026-04-03T09:20:14.748Z</time></trkpt><trkpt lat="43.3134039" lon="11.3527269"><ele>269.0</ele><time>2026-04-03T09:20:15.747Z</time></trkpt><trkpt lat="43.313314" lon="11.3525722"><ele>269.0</ele><time>2026-04-03T09:20:16.747Z</time></trkpt><trkpt lat="43.3132403" lon="11.3524405"><ele>269.0</ele><time>2026-04-03T09:20:17.748Z</time></trkpt><trkpt lat="43.3131677" lon="11.3523141"><ele>267.5</ele><time>2026-04-03T09:20:18.747Z</time></trkpt><trkpt lat="43.3131022" lon="11.3521953"><ele>266.0</ele><time>2026-04-03T09:20:19.748Z</time></trkpt><trkpt lat="43.3130476" lon="11.3520743"><ele>264.5</ele><time>2026-04-03T09:20:20.748Z</time></trkpt><trkpt lat="43.3129865" lon="11.3519211"><ele>263.0</ele><time>2026-04-03T09:20:21.747Z</time></trkpt><trkpt lat="43.312928" lon="11.3517438"><ele>266.25</ele><time>2026-04-03T09:20:22.748Z</time></trkpt><trkpt lat="43.3128786" lon="11.3515552"><ele>269.5</ele><time>2026-04-03T09:20:23.748Z</time></trkpt><trkpt lat="43.312842" lon="11.3513691"><ele>272.75</ele><time>2026-04-03T09:20:24.748Z</time></trkpt><trkpt lat="43.312806" lon="11.3511887"><ele>276.0</ele><time>2026-04-03T09:20:25.748Z</time></trkpt><trkpt lat="43.3127671" lon="11.3510083"><ele>276.75</ele><time>2026-04-03T09:20:26.748Z</time></trkpt><trkpt lat="43.3127253" lon="11.350833"><ele>277.5</ele><time>2026-04-03T09:20:27.747Z</time></trkpt><trkpt lat="43.3126785" lon="11.3506594"><ele>278.25</ele><time>2026-04-03T09:20:28.747Z</time></trkpt><trkpt lat="43.3126224" lon="11.3504845"><ele>279.0</ele><time>2026-04-03T09:20:29.748Z</time></trkpt><trkpt lat="43.3125684" lon="11.3503251"><ele>279.0</ele><time>2026-04-03T09:20:30.747Z</time></trkpt><trkpt lat="43.3125229" lon="11.3501855"><ele>279.0</ele><time>2026-04-03T09:20:31.747Z</time></trkpt><trkpt lat="43.3124905" lon="11.350072"><ele>279.0</ele><time>2026-04-03T09:20:32.748Z</time></trkpt><trkpt lat="43.3124787" lon="11.3499533"><ele>279.0</ele><time>2026-04-03T09:20:33.748Z</time></trkpt><trkpt lat="43.3124834" lon="11.3498459"><ele>279.0</ele><time>2026-04-03T09:20:34.748Z</time></trkpt><trkpt lat="43.3125094" lon="11.3497309"><ele>278.0</ele><time>2026-04-03T09:20:35.747Z</time></trkpt><trkpt lat="43.3125516" lon="11.3496241"><ele>277.0</ele><time>2026-04-03T09:20:36.748Z</time></trkpt><trkpt lat="43.3126078" lon="11.3495148"><ele>276.0</ele><time>2026-04-03T09:20:37.748Z</time></trkpt><trkpt lat="43.3126588" lon="11.3493994"><ele>275.0</ele><time>2026-04-03T09:20:38.748Z</time></trkpt><trkpt lat="43.3126946" lon="11.3492857"><ele>274.0</ele><time>2026-04-03T09:20:39.748Z</time></trkpt><trkpt lat="43.3127224" lon="11.3491743"><ele>274.0</ele><time>2026-04-03T09:20:40.748Z</time></trkpt><trkpt lat="43.3127353" lon="11.3490722"><ele>274.0</ele><time>2026-04-03T09:20:41.747Z</time></trkpt><trkpt lat="43.3127222" lon="11.3489569"><ele>274.0</ele><time>2026-04-03T09:20:42.747Z</time></trkpt><trkpt lat="43.3126959" lon="11.3488324"><ele>274.0</ele><time>2026-04-03T09:20:43.748Z</time></trkpt><trkpt lat="43.3126602" lon="11.3486937"><ele>274.0</ele><time>2026-04-03T09:20:44.748Z</time></trkpt><trkpt lat="43.3126187" lon="11.3485546"><ele>273.3333333333333</ele><time>2026-04-03T09:20:45.748Z</time></trkpt><trkpt lat="43.3125719" lon="11.3484237"><ele>272.66666666666663</ele><time>2026-04-03T09:20:46.747Z</time></trkpt><trkpt lat="43.3125208" lon="11.3483204"><ele>272.0</ele><time>2026-04-03T09:20:47.747Z</time></trkpt><trkpt lat="43.3124679" lon="11.3482365"><ele>271.3333333333333</ele><time>2026-04-03T09:20:48.748Z</time></trkpt><trkpt lat="43.3124154" lon="11.3481649"><ele>270.6666666666667</ele><time>2026-04-03T09:20:49.748Z</time></trkpt><trkpt lat="43.3123705" lon="11.3481009"><ele>270.0</ele><time>2026-04-03T09:20:50.748Z</time></trkpt><trkpt lat="43.3123037" lon="11.3480313"><ele>270.0</ele><time>2026-04-03T09:20:52.748Z</time></trkpt><trkpt lat="43.3122465" lon="11.3480702"><ele>270.0</ele><time>2026-04-03T09:20:54.747Z</time></trkpt><trkpt lat="43.3121835" lon="11.3482136"><ele>270.0</ele><time>2026-04-03T09:20:56.748Z</time></trkpt><trkpt lat="43.3121377" lon="11.3483138"><ele>270.0</ele><time>2026-04-03T09:20:57.747Z</time></trkpt><trkpt lat="43.3120844" lon="11.3484408"><ele>270.0</ele><time>2026-04-03T09:20:58.748Z</time></trkpt><trkpt lat="43.3120321" lon="11.3485863"><ele>268.75</ele><time>2026-04-03T09:20:59.748Z</time></trkpt><trkpt lat="43.3119925" lon="11.348744"><ele>267.5</ele><time>2026-04-03T09:21:00.748Z</time></trkpt><trkpt lat="43.3119589" lon="11.3488983"><ele>266.25</ele><time>2026-04-03T09:21:01.748Z</time></trkpt><trkpt lat="43.3119305" lon="11.3490453"><ele>265.0</ele><time>2026-04-03T09:21:02.747Z</time></trkpt><trkpt lat="43.3118934" lon="11.3491864"><ele>264.25</ele><time>2026-04-03T09:21:03.747Z</time></trkpt><trkpt lat="43.311848" lon="11.3493291"><ele>263.5</ele><time>2026-04-03T09:21:04.748Z</time></trkpt><trkpt lat="43.3117865" lon="11.3494575"><ele>262.75</ele><time>2026-04-03T09:21:05.747Z</time></trkpt><trkpt lat="43.3117011" lon="11.3495766"><ele>262.0</ele><time>2026-04-03T09:21:06.748Z</time></trkpt><trkpt lat="43.3115984" lon="11.3496903"><ele>262.0</ele><time>2026-04-03T09:21:07.747Z</time></trkpt><trkpt lat="43.3114907" lon="11.3497766"><ele>262.0</ele><time>2026-04-03T09:21:08.747Z</time></trkpt><trkpt lat="43.3113742" lon="11.3498399"><ele>262.0</ele><time>2026-04-03T09:21:09.747Z</time></trkpt><trkpt lat="43.3112542" lon="11.3498876"><ele>262.0</ele><time>2026-04-03T09:21:10.747Z</time></trkpt><trkpt lat="43.3111494" lon="11.349932"><ele>262.0</ele><time>2026-04-03T09:21:11.747Z</time></trkpt><trkpt lat="43.3110587" lon="11.3499601"><ele>262.0</ele><time>2026-04-03T09:21:12.747Z</time></trkpt><trkpt lat="43.3109696" lon="11.349989"><ele>262.0</ele><time>2026-04-03T09:21:13.747Z</time></trkpt><trkpt lat="43.3108864" lon="11.3500166"><ele>262.0</ele><time>2026-04-03T09:21:14.747Z</time></trkpt><trkpt lat="43.310807" lon="11.3500453"><ele>262.0</ele><time>2026-04-03T09:21:15.747Z</time></trkpt><trkpt lat="43.31073" lon="11.3500655"><ele>262.0</ele><time>2026-04-03T09:21:16.747Z</time></trkpt><trkpt lat="43.3106511" lon="11.3500947"><ele>262.0</ele><time>2026-04-03T09:21:17.748Z</time></trkpt><trkpt lat="43.3105761" lon="11.3501366"><ele>262.0</ele><time>2026-04-03T09:21:18.747Z</time></trkpt><trkpt lat="43.3105071" lon="11.350188"><ele>262.0</ele><time>2026-04-03T09:21:19.747Z</time></trkpt><trkpt lat="43.3104497" lon="11.3502399"><ele>262.0</ele><time>2026-04-03T09:21:20.747Z</time></trkpt><trkpt lat="43.3103926" lon="11.3502943"><ele>262.0</ele><time>2026-04-03T09:21:21.746Z</time></trkpt><trkpt lat="43.3103392" lon="11.3503551"><ele>262.0</ele><time>2026-04-03T09:21:22.747Z</time></trkpt><trkpt lat="43.3102848" lon="11.3504086"><ele>262.0</ele><time>2026-04-03T09:21:23.746Z</time></trkpt><trkpt lat="43.3102229" lon="11.3504903"><ele>261.8</ele><time>2026-04-03T09:21:24.746Z</time></trkpt><trkpt lat="43.3101451" lon="11.3505714"><ele>261.6</ele><time>2026-04-03T09:21:25.747Z</time></trkpt><trkpt lat="43.3100692" lon="11.3506494"><ele>261.40000000000003</ele><time>2026-04-03T09:21:26.747Z</time></trkpt><trkpt lat="43.3099998" lon="11.3507444"><ele>261.2</ele><time>2026-04-03T09:21:27.746Z</time></trkpt><trkpt lat="43.3099323" lon="11.3508459"><ele>261.0</ele><time>2026-04-03T09:21:28.747Z</time></trkpt><trkpt lat="43.3098739" lon="11.3509486"><ele>261.0</ele><time>2026-04-03T09:21:29.746Z</time></trkpt><trkpt lat="43.3098162" lon="11.3510578"><ele>261.0</ele><time>2026-04-03T09:21:30.746Z</time></trkpt><trkpt lat="43.3097608" lon="11.3511699"><ele>261.0</ele><time>2026-04-03T09:21:31.747Z</time></trkpt><trkpt lat="43.3097053" lon="11.3513161"><ele>261.0</ele><time>2026-04-03T09:21:32.747Z</time></trkpt><trkpt lat="43.3096534" lon="11.3514738"><ele>261.0</ele><time>2026-04-03T09:21:33.746Z</time></trkpt><trkpt lat="43.3096059" lon="11.351651"><ele>261.75</ele><time>2026-04-03T09:21:34.746Z</time></trkpt><trkpt lat="43.3095631" lon="11.3518407"><ele>262.5</ele><time>2026-04-03T09:21:35.747Z</time></trkpt><trkpt lat="43.3095249" lon="11.3520337"><ele>263.25</ele><time>2026-04-03T09:21:36.747Z</time></trkpt><trkpt lat="43.3094956" lon="11.3522195"><ele>264.0</ele><time>2026-04-03T09:21:37.747Z</time></trkpt><trkpt lat="43.3094661" lon="11.3523902"><ele>264.0</ele><time>2026-04-03T09:21:38.747Z</time></trkpt><trkpt lat="43.3094341" lon="11.352558"><ele>264.0</ele><time>2026-04-03T09:21:39.747Z</time></trkpt><trkpt lat="43.3094088" lon="11.3527134"><ele>264.0</ele><time>2026-04-03T09:21:40.747Z</time></trkpt><trkpt lat="43.3093863" lon="11.3528681"><ele>264.0</ele><time>2026-04-03T09:21:41.746Z</time></trkpt><trkpt lat="43.3093609" lon="11.3530182"><ele>264.2</ele><time>2026-04-03T09:21:42.747Z</time></trkpt><trkpt lat="43.3093368" lon="11.3531614"><ele>264.4</ele><time>2026-04-03T09:21:43.747Z</time></trkpt><trkpt lat="43.3093126" lon="11.3533012"><ele>264.6</ele><time>2026-04-03T09:21:44.747Z</time></trkpt><trkpt lat="43.3092902" lon="11.3534321"><ele>264.8</ele><time>2026-04-03T09:21:45.747Z</time></trkpt><trkpt lat="43.3092712" lon="11.3535682"><ele>265.0</ele><time>2026-04-03T09:21:46.746Z</time></trkpt><trkpt lat="43.3092607" lon="11.3537"><ele>265.0</ele><time>2026-04-03T09:21:47.747Z</time></trkpt><trkpt lat="43.309252" lon="11.353851"><ele>265.0</ele><time>2026-04-03T09:21:48.746Z</time></trkpt><trkpt lat="43.3092462" lon="11.3540133"><ele>265.0</ele><time>2026-04-03T09:21:49.746Z</time></trkpt><trkpt lat="43.3092453" lon="11.3541898"><ele>265.0</ele><time>2026-04-03T09:21:50.747Z</time></trkpt><trkpt lat="43.3092399" lon="11.3543748"><ele>264.5</ele><time>2026-04-03T09:21:51.747Z</time></trkpt><trkpt lat="43.3092359" lon="11.3545565"><ele>264.0</ele><time>2026-04-03T09:21:52.747Z</time></trkpt><trkpt lat="43.3092424" lon="11.3547396"><ele>263.5</ele><time>2026-04-03T09:21:53.746Z</time></trkpt><trkpt lat="43.3092567" lon="11.3549123"><ele>263.0</ele><time>2026-04-03T09:21:54.746Z</time></trkpt><trkpt lat="43.309276" lon="11.3550745"><ele>263.0</ele><time>2026-04-03T09:21:55.747Z</time></trkpt><trkpt lat="43.3093013" lon="11.3552376"><ele>263.0</ele><time>2026-04-03T09:21:56.746Z</time></trkpt><trkpt lat="43.3093381" lon="11.3554042"><ele>263.0</ele><time>2026-04-03T09:21:57.747Z</time></trkpt><trkpt lat="43.3093759" lon="11.3555746"><ele>263.0</ele><time>2026-04-03T09:21:58.747Z</time></trkpt><trkpt lat="43.3094223" lon="11.3557565"><ele>262.5</ele><time>2026-04-03T09:21:59.747Z</time></trkpt><trkpt lat="43.3094664" lon="11.3559347"><ele>262.0</ele><time>2026-04-03T09:22:00.747Z</time></trkpt><trkpt lat="43.3095016" lon="11.3560951"><ele>261.5</ele><time>2026-04-03T09:22:01.746Z</time></trkpt><trkpt lat="43.3095293" lon="11.3562457"><ele>261.0</ele><time>2026-04-03T09:22:02.746Z</time></trkpt><trkpt lat="43.3095415" lon="11.3563989"><ele>259.5</ele><time>2026-04-03T09:22:03.747Z</time></trkpt><trkpt lat="43.3095369" lon="11.3565575"><ele>258.0</ele><time>2026-04-03T09:22:04.747Z</time></trkpt><trkpt lat="43.3095048" lon="11.3567238"><ele>256.5</ele><time>2026-04-03T09:22:05.746Z</time></trkpt><trkpt lat="43.3094642" lon="11.3568887"><ele>255.0</ele><time>2026-04-03T09:22:06.747Z</time></trkpt><trkpt lat="43.3094179" lon="11.3570405"><ele>255.0</ele><time>2026-04-03T09:22:07.747Z</time></trkpt><trkpt lat="43.3093591" lon="11.357174"><ele>255.0</ele><time>2026-04-03T09:22:08.746Z</time></trkpt><trkpt lat="43.3092866" lon="11.357306"><ele>255.0</ele><time>2026-04-03T09:22:09.746Z</time></trkpt><trkpt lat="43.3091935" lon="11.3574291"><ele>255.0</ele><time>2026-04-03T09:22:10.747Z</time></trkpt><trkpt lat="43.3090853" lon="11.3575412"><ele>254.5</ele><time>2026-04-03T09:22:11.747Z</time></trkpt><trkpt lat="43.3089708" lon="11.3576548"><ele>254.0</ele><time>2026-04-03T09:22:12.746Z</time></trkpt><trkpt lat="43.3088536" lon="11.3577772"><ele>253.5</ele><time>2026-04-03T09:22:13.746Z</time></trkpt><trkpt lat="43.3087334" lon="11.3578972"><ele>253.0</ele><time>2026-04-03T09:22:14.746Z</time></trkpt><trkpt lat="43.3086167" lon="11.358015"><ele>251.5</ele><time>2026-04-03T09:22:15.746Z</time></trkpt><trkpt lat="43.3084992" lon="11.3581157"><ele>250.0</ele><time>2026-04-03T09:22:16.747Z</time></trkpt><trkpt lat="43.3083873" lon="11.3581959"><ele>248.5</ele><time>2026-04-03T09:22:17.746Z</time></trkpt><trkpt lat="43.3082898" lon="11.3582724"><ele>247.0</ele><time>2026-04-03T09:22:18.747Z</time></trkpt><trkpt lat="43.3082018" lon="11.3583483"><ele>247.0</ele><time>2026-04-03T09:22:19.747Z</time></trkpt><trkpt lat="43.3081201" lon="11.3584209"><ele>247.0</ele><time>2026-04-03T09:22:20.746Z</time></trkpt><trkpt lat="43.308046" lon="11.3584892"><ele>247.0</ele><time>2026-04-03T09:22:21.747Z</time></trkpt><trkpt lat="43.3079706" lon="11.3585682"><ele>247.0</ele><time>2026-04-03T09:22:22.747Z</time></trkpt><trkpt lat="43.3078932" lon="11.358654"><ele>247.0</ele><time>2026-04-03T09:22:23.747Z</time></trkpt><trkpt lat="43.3078143" lon="11.3587399"><ele>244.75</ele><time>2026-04-03T09:22:24.746Z</time></trkpt><trkpt lat="43.3077384" lon="11.3588262"><ele>242.5</ele><time>2026-04-03T09:22:25.747Z</time></trkpt><trkpt lat="43.3076578" lon="11.3589214"><ele>240.25</ele><time>2026-04-03T09:22:26.746Z</time></trkpt><trkpt lat="43.3075681" lon="11.3590283"><ele>238.0</ele><time>2026-04-03T09:22:27.746Z</time></trkpt><trkpt lat="43.3074695" lon="11.3591377"><ele>238.0</ele><time>2026-04-03T09:22:28.746Z</time></trkpt><trkpt lat="43.3073665" lon="11.3592549"><ele>238.0</ele><time>2026-04-03T09:22:29.747Z</time></trkpt><trkpt lat="43.3072589" lon="11.3593848"><ele>238.0</ele><time>2026-04-03T09:22:30.747Z</time></trkpt><trkpt lat="43.3071466" lon="11.3595184"><ele>238.0</ele><time>2026-04-03T09:22:31.746Z</time></trkpt><trkpt lat="43.3070284" lon="11.3596588"><ele>238.75</ele><time>2026-04-03T09:22:32.747Z</time></trkpt><trkpt lat="43.3069137" lon="11.3598051"><ele>239.5</ele><time>2026-04-03T09:22:33.747Z</time></trkpt><trkpt lat="43.30681" lon="11.3599457"><ele>240.25</ele><time>2026-04-03T09:22:34.747Z</time></trkpt><trkpt lat="43.3067209" lon="11.3600749"><ele>241.0</ele><time>2026-04-03T09:22:35.747Z</time></trkpt><trkpt lat="43.3066406" lon="11.360204"><ele>241.0</ele><time>2026-04-03T09:22:36.747Z</time></trkpt><trkpt lat="43.3065615" lon="11.3603302"><ele>241.0</ele><time>2026-04-03T09:22:37.746Z</time></trkpt><trkpt lat="43.3064807" lon="11.3604628"><ele>241.0</ele><time>2026-04-03T09:22:38.746Z</time></trkpt><trkpt lat="43.3063914" lon="11.3605942"><ele>241.0</ele><time>2026-04-03T09:22:39.747Z</time></trkpt><trkpt lat="43.3062973" lon="11.3607228"><ele>243.20000000000002</ele><time>2026-04-03T09:22:40.747Z</time></trkpt><trkpt lat="43.3062133" lon="11.3608602"><ele>245.40000000000003</ele><time>2026-04-03T09:22:41.747Z</time></trkpt><trkpt lat="43.3061491" lon="11.3609903"><ele>247.6</ele><time>2026-04-03T09:22:42.746Z</time></trkpt><trkpt lat="43.3060939" lon="11.3611106"><ele>249.8</ele><time>2026-04-03T09:22:43.746Z</time></trkpt><trkpt lat="43.306041" lon="11.3612268"><ele>252.0</ele><time>2026-04-03T09:22:44.747Z</time></trkpt><trkpt lat="43.305983" lon="11.3613415"><ele>251.0</ele><time>2026-04-03T09:22:45.746Z</time></trkpt><trkpt lat="43.3059186" lon="11.3614461"><ele>250.0</ele><time>2026-04-03T09:22:46.747Z</time></trkpt><trkpt lat="43.3058368" lon="11.3615414"><ele>249.0</ele><time>2026-04-03T09:22:47.746Z</time></trkpt><trkpt lat="43.3057454" lon="11.3616163"><ele>248.0</ele><time>2026-04-03T09:22:48.747Z</time></trkpt><trkpt lat="43.3056396" lon="11.3616684"><ele>247.0</ele><time>2026-04-03T09:22:49.746Z</time></trkpt><trkpt lat="43.3055247" lon="11.3616984"><ele>247.0</ele><time>2026-04-03T09:22:50.747Z</time></trkpt><trkpt lat="43.3053969" lon="11.3617224"><ele>247.0</ele><time>2026-04-03T09:22:51.747Z</time></trkpt><trkpt lat="43.3052591" lon="11.3617485"><ele>247.0</ele><time>2026-04-03T09:22:52.746Z</time></trkpt><trkpt lat="43.3051307" lon="11.3617731"><ele>247.0</ele><time>2026-04-03T09:22:53.747Z</time></trkpt><trkpt lat="43.3050121" lon="11.3618012"><ele>247.0</ele><time>2026-04-03T09:22:54.746Z</time></trkpt><trkpt lat="43.3049038" lon="11.3618203"><ele>247.0</ele><time>2026-04-03T09:22:55.747Z</time></trkpt><trkpt lat="43.3048118" lon="11.3618343"><ele>247.0</ele><time>2026-04-03T09:22:56.746Z</time></trkpt><trkpt lat="43.3047255" lon="11.3618334"><ele>247.0</ele><time>2026-04-03T09:22:57.746Z</time></trkpt><trkpt lat="43.304634" lon="11.3618351"><ele>247.0</ele><time>2026-04-03T09:22:58.747Z</time></trkpt><trkpt lat="43.3045368" lon="11.3618512"><ele>244.5</ele><time>2026-04-03T09:22:59.746Z</time></trkpt><trkpt lat="43.3044372" lon="11.3618851"><ele>242.0</ele><time>2026-04-03T09:23:00.746Z</time></trkpt><trkpt lat="43.3043271" lon="11.3619454"><ele>239.5</ele><time>2026-04-03T09:23:01.747Z</time></trkpt><trkpt lat="43.3042146" lon="11.3620225"><ele>237.0</ele><time>2026-04-03T09:23:02.747Z</time></trkpt><trkpt lat="43.3040951" lon="11.3621062"><ele>237.0</ele><time>2026-04-03T09:23:03.746Z</time></trkpt><trkpt lat="43.3039826" lon="11.3621947"><ele>237.0</ele><time>2026-04-03T09:23:04.747Z</time></trkpt><trkpt lat="43.3038695" lon="11.3622898"><ele>237.0</ele><time>2026-04-03T09:23:05.746Z</time></trkpt><trkpt lat="43.3037578" lon="11.3623904"><ele>237.0</ele><time>2026-04-03T09:23:06.747Z</time></trkpt><trkpt lat="43.3036446" lon="11.3625162"><ele>239.25</ele><time>2026-04-03T09:23:07.746Z</time></trkpt><trkpt lat="43.3035514" lon="11.3626353"><ele>241.5</ele><time>2026-04-03T09:23:08.746Z</time></trkpt><trkpt lat="43.303484" lon="11.3627534"><ele>243.75</ele><time>2026-04-03T09:23:09.747Z</time></trkpt><trkpt lat="43.3034466" lon="11.3628941"><ele>246.0</ele><time>2026-04-03T09:23:10.747Z</time></trkpt><trkpt lat="43.3034165" lon="11.3630492"><ele>247.25</ele><time>2026-04-03T09:23:11.747Z</time></trkpt><trkpt lat="43.3033983" lon="11.3632176"><ele>248.5</ele><time>2026-04-03T09:23:12.747Z</time></trkpt><trkpt lat="43.3033731" lon="11.363381"><ele>249.75</ele><time>2026-04-03T09:23:13.747Z</time></trkpt><trkpt lat="43.3033401" lon="11.3635348"><ele>251.0</ele><time>2026-04-03T09:23:14.747Z</time></trkpt><trkpt lat="43.3032964" lon="11.3636745"><ele>251.0</ele><time>2026-04-03T09:23:15.747Z</time></trkpt><trkpt lat="43.3032351" lon="11.3638013"><ele>251.00000000000003</ele><time>2026-04-03T09:23:16.747Z</time></trkpt><trkpt lat="43.3031582" lon="11.3638907"><ele>251.00000000000003</ele><time>2026-04-03T09:23:17.747Z</time></trkpt><trkpt lat="43.303067" lon="11.3639443"><ele>251.0</ele><time>2026-04-03T09:23:18.746Z</time></trkpt><trkpt lat="43.3029492" lon="11.3639565"><ele>251.0</ele><time>2026-04-03T09:23:19.747Z</time></trkpt><trkpt lat="43.3028307" lon="11.3639588"><ele>251.5</ele><time>2026-04-03T09:23:20.747Z</time></trkpt><trkpt lat="43.302719" lon="11.3639728"><ele>252.0</ele><time>2026-04-03T09:23:21.747Z</time></trkpt><trkpt lat="43.3025981" lon="11.3640023"><ele>252.5</ele><time>2026-04-03T09:23:22.747Z</time></trkpt><trkpt lat="43.3024732" lon="11.364053"><ele>253.0</ele><time>2026-04-03T09:23:23.747Z</time></trkpt><trkpt lat="43.3023442" lon="11.3641143"><ele>249.75</ele><time>2026-04-03T09:23:24.747Z</time></trkpt><trkpt lat="43.3022214" lon="11.3641834"><ele>246.5</ele><time>2026-04-03T09:23:25.747Z</time></trkpt><trkpt lat="43.3021158" lon="11.3642668"><ele>243.25</ele><time>2026-04-03T09:23:26.747Z</time></trkpt><trkpt lat="43.302023" lon="11.3643619"><ele>240.0</ele><time>2026-04-03T09:23:27.747Z</time></trkpt><trkpt lat="43.3019379" lon="11.3644691"><ele>240.0</ele><time>2026-04-03T09:23:28.747Z</time></trkpt><trkpt lat="43.3018666" lon="11.3646146"><ele>240.0</ele><time>2026-04-03T09:23:29.747Z</time></trkpt><trkpt lat="43.301807" lon="11.364787"><ele>240.0</ele><time>2026-04-03T09:23:30.747Z</time></trkpt><trkpt lat="43.3017524" lon="11.3649533"><ele>240.0</ele><time>2026-04-03T09:23:31.747Z</time></trkpt><trkpt lat="43.3016888" lon="11.365096"><ele>240.75</ele><time>2026-04-03T09:23:32.747Z</time></trkpt><trkpt lat="43.3016041" lon="11.365216"><ele>241.5</ele><time>2026-04-03T09:23:33.746Z</time></trkpt><trkpt lat="43.3015053" lon="11.3653208"><ele>242.25</ele><time>2026-04-03T09:23:34.747Z</time></trkpt><trkpt lat="43.3013821" lon="11.3654067"><ele>243.0</ele><time>2026-04-03T09:23:35.747Z</time></trkpt><trkpt lat="43.3012355" lon="11.3654921"><ele>242.5</ele><time>2026-04-03T09:23:36.747Z</time></trkpt><trkpt lat="43.3010863" lon="11.3655815"><ele>242.0</ele><time>2026-04-03T09:23:37.746Z</time></trkpt><trkpt lat="43.3009596" lon="11.3656501"><ele>241.5</ele><time>2026-04-03T09:23:38.747Z</time></trkpt><trkpt lat="43.300847" lon="11.3657095"><ele>241.0</ele><time>2026-04-03T09:23:39.747Z</time></trkpt><trkpt lat="43.3007363" lon="11.3657392"><ele>241.0</ele><time>2026-04-03T09:23:40.747Z</time></trkpt><trkpt lat="43.300611" lon="11.3657441"><ele>241.0</ele><time>2026-04-03T09:23:41.747Z</time></trkpt><trkpt lat="43.3004797" lon="11.3657489"><ele>241.0</ele><time>2026-04-03T09:23:42.747Z</time></trkpt><trkpt lat="43.3003607" lon="11.3657483"><ele>241.0</ele><time>2026-04-03T09:23:43.746Z</time></trkpt><trkpt lat="43.3002505" lon="11.3657714"><ele>241.75</ele><time>2026-04-03T09:23:44.747Z</time></trkpt><trkpt lat="43.3001474" lon="11.3658111"><ele>242.5</ele><time>2026-04-03T09:23:45.747Z</time></trkpt><trkpt lat="43.3000412" lon="11.3658715"><ele>243.25</ele><time>2026-04-03T09:23:46.747Z</time></trkpt><trkpt lat="43.2999326" lon="11.3659599"><ele>244.0</ele><time>2026-04-03T09:23:47.746Z</time></trkpt><trkpt lat="43.2998268" lon="11.3660697"><ele>242.25</ele><time>2026-04-03T09:23:48.746Z</time></trkpt><trkpt lat="43.2997174" lon="11.3661925"><ele>240.5</ele><time>2026-04-03T09:23:49.747Z</time></trkpt><trkpt lat="43.2996141" lon="11.3663227"><ele>238.75</ele><time>2026-04-03T09:23:50.746Z</time></trkpt><trkpt lat="43.2995105" lon="11.3664539"><ele>237.0</ele><time>2026-04-03T09:23:51.747Z</time></trkpt><trkpt lat="43.2994209" lon="11.3665756"><ele>237.0</ele><time>2026-04-03T09:23:52.747Z</time></trkpt><trkpt lat="43.2993298" lon="11.3666886"><ele>237.0</ele><time>2026-04-03T09:23:53.747Z</time></trkpt><trkpt lat="43.2992452" lon="11.366799"><ele>237.0</ele><time>2026-04-03T09:23:54.747Z</time></trkpt><trkpt lat="43.2991709" lon="11.3668989"><ele>237.0</ele><time>2026-04-03T09:23:55.746Z</time></trkpt><trkpt lat="43.2991046" lon="11.3670082"><ele>237.0</ele><time>2026-04-03T09:23:56.747Z</time></trkpt><trkpt lat="43.2990419" lon="11.3671329"><ele>237.5</ele><time>2026-04-03T09:23:57.747Z</time></trkpt><trkpt lat="43.2989951" lon="11.367279"><ele>238.0</ele><time>2026-04-03T09:23:58.746Z</time></trkpt><trkpt lat="43.2989337" lon="11.3674332"><ele>238.5</ele><time>2026-04-03T09:23:59.746Z</time></trkpt><trkpt lat="43.2988641" lon="11.3676001"><ele>239.0</ele><time>2026-04-03T09:24:00.747Z</time></trkpt><trkpt lat="43.2987935" lon="11.3677728"><ele>238.0</ele><time>2026-04-03T09:24:01.747Z</time></trkpt><trkpt lat="43.2987229" lon="11.3679337"><ele>237.0</ele><time>2026-04-03T09:24:02.746Z</time></trkpt><trkpt lat="43.298655" lon="11.3680791"><ele>236.0</ele><time>2026-04-03T09:24:03.746Z</time></trkpt><trkpt lat="43.2985837" lon="11.3682081"><ele>235.0</ele><time>2026-04-03T09:24:04.747Z</time></trkpt><trkpt lat="43.2985087" lon="11.3683172"><ele>235.0</ele><time>2026-04-03T09:24:05.747Z</time></trkpt><trkpt lat="43.2984398" lon="11.3683898"><ele>235.0</ele><time>2026-04-03T09:24:06.747Z</time></trkpt><trkpt lat="43.298354" lon="11.3684443"><ele>235.0</ele><time>2026-04-03T09:24:07.746Z</time></trkpt><trkpt lat="43.2982633" lon="11.3684966"><ele>235.0</ele><time>2026-04-03T09:24:08.747Z</time></trkpt><trkpt lat="43.2981647" lon="11.3685279"><ele>235.0</ele><time>2026-04-03T09:24:09.747Z</time></trkpt><trkpt lat="43.2980564" lon="11.3685485"><ele>235.6</ele><time>2026-04-03T09:24:10.747Z</time></trkpt><trkpt lat="43.2979521" lon="11.3685491"><ele>236.2</ele><time>2026-04-03T09:24:11.746Z</time></trkpt><trkpt lat="43.2978515" lon="11.3685272"><ele>236.8</ele><time>2026-04-03T09:24:12.746Z</time></trkpt><trkpt lat="43.297753" lon="11.3684858"><ele>237.4</ele><time>2026-04-03T09:24:13.747Z</time></trkpt><trkpt lat="43.2976602" lon="11.368443"><ele>238.0</ele><time>2026-04-03T09:24:14.747Z</time></trkpt><trkpt lat="43.2975624" lon="11.3684002"><ele>238.0</ele><time>2026-04-03T09:24:15.747Z</time></trkpt><trkpt lat="43.2974631" lon="11.3683454"><ele>238.0</ele><time>2026-04-03T09:24:16.747Z</time></trkpt><trkpt lat="43.2973614" lon="11.3682855"><ele>238.0</ele><time>2026-04-03T09:24:17.746Z</time></trkpt><trkpt lat="43.297251" lon="11.3682292"><ele>238.0</ele><time>2026-04-03T09:24:18.747Z</time></trkpt><trkpt lat="43.2971381" lon="11.368181"><ele>237.25</ele><time>2026-04-03T09:24:19.747Z</time></trkpt><trkpt lat="43.2970176" lon="11.3681364"><ele>236.5</ele><time>2026-04-03T09:24:20.746Z</time></trkpt><trkpt lat="43.2968917" lon="11.3680988"><ele>235.75</ele><time>2026-04-03T09:24:21.747Z</time></trkpt><trkpt lat="43.2967673" lon="11.3680722"><ele>235.0</ele><time>2026-04-03T09:24:22.747Z</time></trkpt><trkpt lat="43.2966407" lon="11.3680626"><ele>235.0</ele><time>2026-04-03T09:24:23.747Z</time></trkpt><trkpt lat="43.2965222" lon="11.3680691"><ele>235.0</ele><time>2026-04-03T09:24:24.746Z</time></trkpt><trkpt lat="43.2964036" lon="11.368078"><ele>235.0</ele><time>2026-04-03T09:24:25.747Z</time></trkpt><trkpt lat="43.29629" lon="11.3680967"><ele>235.0</ele><time>2026-04-03T09:24:26.747Z</time></trkpt><trkpt lat="43.2961825" lon="11.3681283"><ele>237.0</ele><time>2026-04-03T09:24:27.747Z</time></trkpt><trkpt lat="43.2960786" lon="11.3681754"><ele>239.0</ele><time>2026-04-03T09:24:28.746Z</time></trkpt><trkpt lat="43.2959712" lon="11.3682272"><ele>241.0</ele><time>2026-04-03T09:24:29.747Z</time></trkpt><trkpt lat="43.2958613" lon="11.3682839"><ele>243.0</ele><time>2026-04-03T09:24:30.746Z</time></trkpt><trkpt lat="43.2957582" lon="11.3683262"><ele>245.0</ele><time>2026-04-03T09:24:31.746Z</time></trkpt><trkpt lat="43.2956756" lon="11.3683369"><ele>245.0</ele><time>2026-04-03T09:24:32.747Z</time></trkpt><trkpt lat="43.2955924" lon="11.3683283"><ele>245.0</ele><time>2026-04-03T09:24:33.747Z</time></trkpt><trkpt lat="43.2954935" lon="11.3683256"><ele>245.0</ele><time>2026-04-03T09:24:34.746Z</time></trkpt><trkpt lat="43.295389" lon="11.3683513"><ele>245.0</ele><time>2026-04-03T09:24:35.747Z</time></trkpt><trkpt lat="43.2952882" lon="11.3684065"><ele>245.0</ele><time>2026-04-03T09:24:36.746Z</time></trkpt><trkpt lat="43.2951949" lon="11.3684618"><ele>244.0</ele><time>2026-04-03T09:24:37.747Z</time></trkpt><trkpt lat="43.2951049" lon="11.3685318"><ele>243.0</ele><time>2026-04-03T09:24:38.747Z</time></trkpt><trkpt lat="43.2950162" lon="11.3686325"><ele>242.0</ele><time>2026-04-03T09:24:39.746Z</time></trkpt><trkpt lat="43.2949305" lon="11.3687666"><ele>241.0</ele><time>2026-04-03T09:24:40.746Z</time></trkpt><trkpt lat="43.2948497" lon="11.3689178"><ele>241.0</ele><time>2026-04-03T09:24:41.747Z</time></trkpt><trkpt lat="43.2947631" lon="11.3690516"><ele>241.0</ele><time>2026-04-03T09:24:42.747Z</time></trkpt><trkpt lat="43.2946594" lon="11.3691691"><ele>241.0</ele><time>2026-04-03T09:24:43.747Z</time></trkpt><trkpt lat="43.2945339" lon="11.3692675"><ele>241.0</ele><time>2026-04-03T09:24:44.747Z</time></trkpt><trkpt lat="43.2943967" lon="11.3693698"><ele>237.33333333333331</ele><time>2026-04-03T09:24:45.747Z</time></trkpt><trkpt lat="43.2942497" lon="11.3694708"><ele>233.66666666666669</ele><time>2026-04-03T09:24:46.746Z</time></trkpt><trkpt lat="43.2940974" lon="11.3695702"><ele>230.0</ele><time>2026-04-03T09:24:47.747Z</time></trkpt><trkpt lat="43.2939634" lon="11.3696585"><ele>228.75</ele><time>2026-04-03T09:24:48.747Z</time></trkpt><trkpt lat="43.2938447" lon="11.3697352"><ele>227.5</ele><time>2026-04-03T09:24:49.747Z</time></trkpt><trkpt lat="43.2937367" lon="11.3698039"><ele>226.25</ele><time>2026-04-03T09:24:50.747Z</time></trkpt><trkpt lat="43.2936311" lon="11.3698631"><ele>225.0</ele><time>2026-04-03T09:24:51.747Z</time></trkpt><trkpt lat="43.2935211" lon="11.3699144"><ele>225.0</ele><time>2026-04-03T09:24:52.747Z</time></trkpt><trkpt lat="43.2934046" lon="11.3699639"><ele>225.0</ele><time>2026-04-03T09:24:53.747Z</time></trkpt><trkpt lat="43.2932825" lon="11.3700092"><ele>225.0</ele><time>2026-04-03T09:24:54.747Z</time></trkpt><trkpt lat="43.2931574" lon="11.3700528"><ele>225.0</ele><time>2026-04-03T09:24:55.747Z</time></trkpt><trkpt lat="43.2930286" lon="11.3700879"><ele>224.25</ele><time>2026-04-03T09:24:56.747Z</time></trkpt><trkpt lat="43.2928991" lon="11.3701016"><ele>223.5</ele><time>2026-04-03T09:24:57.746Z</time></trkpt><trkpt lat="43.2927748" lon="11.3701036"><ele>222.75</ele><time>2026-04-03T09:24:58.747Z</time></trkpt><trkpt lat="43.2926551" lon="11.3700975"><ele>222.0</ele><time>2026-04-03T09:24:59.746Z</time></trkpt><trkpt lat="43.292532" lon="11.3700891"><ele>222.0</ele><time>2026-04-03T09:25:00.747Z</time></trkpt><trkpt lat="43.2923973" lon="11.3700857"><ele>222.0</ele><time>2026-04-03T09:25:01.747Z</time></trkpt><trkpt lat="43.2922594" lon="11.3700836"><ele>222.0</ele><time>2026-04-03T09:25:02.746Z</time></trkpt><trkpt lat="43.2921182" lon="11.3700836"><ele>222.0</ele><time>2026-04-03T09:25:03.747Z</time></trkpt><trkpt lat="43.2919768" lon="11.3700981"><ele>222.25</ele><time>2026-04-03T09:25:04.747Z</time></trkpt><trkpt lat="43.2918358" lon="11.3701265"><ele>222.5</ele><time>2026-04-03T09:25:05.747Z</time></trkpt><trkpt lat="43.2916967" lon="11.3701685"><ele>222.75</ele><time>2026-04-03T09:25:06.747Z</time></trkpt><trkpt lat="43.2915681" lon="11.3702203"><ele>223.0</ele><time>2026-04-03T09:25:07.747Z</time></trkpt><trkpt lat="43.2914523" lon="11.3702939"><ele>223.5</ele><time>2026-04-03T09:25:08.747Z</time></trkpt><trkpt lat="43.2913386" lon="11.3703783"><ele>224.0</ele><time>2026-04-03T09:25:09.746Z</time></trkpt><trkpt lat="43.2912286" lon="11.3704617"><ele>224.5</ele><time>2026-04-03T09:25:10.747Z</time></trkpt><trkpt lat="43.2911201" lon="11.3705255"><ele>225.0</ele><time>2026-04-03T09:25:11.747Z</time></trkpt><trkpt lat="43.2910147" lon="11.3705845"><ele>225.0</ele><time>2026-04-03T09:25:12.747Z</time></trkpt><trkpt lat="43.2909094" lon="11.3706183"><ele>225.0</ele><time>2026-04-03T09:25:13.746Z</time></trkpt><trkpt lat="43.2908041" lon="11.3706553"><ele>225.0</ele><time>2026-04-03T09:25:14.747Z</time></trkpt><trkpt lat="43.29071" lon="11.3706983"><ele>225.0</ele><time>2026-04-03T09:25:15.747Z</time></trkpt><trkpt lat="43.2906266" lon="11.3707585"><ele>225.0</ele><time>2026-04-03T09:25:16.747Z</time></trkpt><trkpt lat="43.2905611" lon="11.3708111"><ele>225.0</ele><time>2026-04-03T09:25:17.747Z</time></trkpt><trkpt lat="43.2904847" lon="11.3709159"><ele>225.0</ele><time>2026-04-03T09:25:19.747Z</time></trkpt><trkpt lat="43.2904246" lon="11.3710286"><ele>225.0</ele><time>2026-04-03T09:25:21.747Z</time></trkpt><trkpt lat="43.2903747" lon="11.371154"><ele>225.0</ele><time>2026-04-03T09:25:23.746Z</time></trkpt><trkpt lat="43.290315" lon="11.3712627"><ele>225.0</ele><time>2026-04-03T09:25:25.747Z</time></trkpt><trkpt lat="43.2902454" lon="11.3713742"><ele>225.0</ele><time>2026-04-03T09:25:27.747Z</time></trkpt><trkpt lat="43.2901852" lon="11.3714273"><ele>225.0</ele><time>2026-04-03T09:25:28.747Z</time></trkpt><trkpt lat="43.2901106" lon="11.371484"><ele>225.0</ele><time>2026-04-03T09:25:29.746Z</time></trkpt><trkpt lat="43.2900312" lon="11.3715342"><ele>225.0</ele><time>2026-04-03T09:25:30.747Z</time></trkpt><trkpt lat="43.2899707" lon="11.3715912"><ele>225.0</ele><time>2026-04-03T09:25:31.747Z</time></trkpt><trkpt lat="43.289939" lon="11.3716694"><ele>225.0</ele><time>2026-04-03T09:25:32.746Z</time></trkpt><trkpt lat="43.2899254" lon="11.3718406"><ele>225.0</ele><time>2026-04-03T09:25:34.746Z</time></trkpt><trkpt lat="43.2899123" lon="11.3719737"><ele>225.0</ele><time>2026-04-03T09:25:36.746Z</time></trkpt><trkpt lat="43.2898403" lon="11.3720819"><ele>225.0</ele><time>2026-04-03T09:25:38.747Z</time></trkpt><trkpt lat="43.2897679" lon="11.3721545"><ele>225.0</ele><time>2026-04-03T09:25:40.747Z</time></trkpt><trkpt lat="43.2896614" lon="11.3722314"><ele>225.0</ele><time>2026-04-03T09:25:42.747Z</time></trkpt><trkpt lat="43.2895857" lon="11.3722688"><ele>223.4</ele><time>2026-04-03T09:25:43.747Z</time></trkpt><trkpt lat="43.2895195" lon="11.3723034"><ele>221.8</ele><time>2026-04-03T09:25:44.747Z</time></trkpt><trkpt lat="43.2894087" lon="11.3723748"><ele>220.2</ele><time>2026-04-03T09:25:46.747Z</time></trkpt><trkpt lat="43.28935" lon="11.3724071"><ele>218.6</ele><time>2026-04-03T09:25:47.746Z</time></trkpt><trkpt lat="43.2892538" lon="11.3724538"><ele>217.0</ele><time>2026-04-03T09:25:49.747Z</time></trkpt><trkpt lat="43.2891778" lon="11.3725242"><ele>216.99999999999997</ele><time>2026-04-03T09:25:51.746Z</time></trkpt><trkpt lat="43.2891225" lon="11.3726576"><ele>217.0</ele><time>2026-04-03T09:25:53.746Z</time></trkpt><trkpt lat="43.2891154" lon="11.3727436"><ele>217.0</ele><time>2026-04-03T09:25:54.746Z</time></trkpt><trkpt lat="43.2891107" lon="11.3728453"><ele>217.0</ele><time>2026-04-03T09:25:55.747Z</time></trkpt><trkpt lat="43.2891083" lon="11.3729564"><ele>216.99999999999997</ele><time>2026-04-03T09:25:56.746Z</time></trkpt><trkpt lat="43.2891091" lon="11.3730706"><ele>217.0</ele><time>2026-04-03T09:25:57.747Z</time></trkpt><trkpt lat="43.2891081" lon="11.3731835"><ele>215.83333333333331</ele><time>2026-04-03T09:25:58.746Z</time></trkpt><trkpt lat="43.2891017" lon="11.3732887"><ele>214.66666666666666</ele><time>2026-04-03T09:25:59.747Z</time></trkpt><trkpt lat="43.2890923" lon="11.3733897"><ele>213.5</ele><time>2026-04-03T09:26:00.746Z</time></trkpt><trkpt lat="43.2890875" lon="11.3734949"><ele>212.33333333333331</ele><time>2026-04-03T09:26:01.746Z</time></trkpt><trkpt lat="43.2890842" lon="11.3736089"><ele>211.16666666666666</ele><time>2026-04-03T09:26:02.746Z</time></trkpt><trkpt lat="43.2890792" lon="11.3737237"><ele>210.0</ele><time>2026-04-03T09:26:03.746Z</time></trkpt><trkpt lat="43.289078" lon="11.3738303"><ele>208.85714285714286</ele><time>2026-04-03T09:26:04.747Z</time></trkpt><trkpt lat="43.2890802" lon="11.3739201"><ele>207.71428571428572</ele><time>2026-04-03T09:26:05.747Z</time></trkpt><trkpt lat="43.2890858" lon="11.3740134"><ele>206.57142857142856</ele><time>2026-04-03T09:26:06.746Z</time></trkpt><trkpt lat="43.2890925" lon="11.374117"><ele>205.42857142857144</ele><time>2026-04-03T09:26:07.747Z</time></trkpt><trkpt lat="43.289099" lon="11.374222"><ele>204.28571428571428</ele><time>2026-04-03T09:26:08.747Z</time></trkpt><trkpt lat="43.2891042" lon="11.3743323"><ele>203.14285714285714</ele><time>2026-04-03T09:26:09.747Z</time></trkpt><trkpt lat="43.2891104" lon="11.3744439"><ele>202.0</ele><time>2026-04-03T09:26:10.747Z</time></trkpt><trkpt lat="43.2891151" lon="11.3745736"><ele>200.39999999999998</ele><time>2026-04-03T09:26:11.747Z</time></trkpt><trkpt lat="43.2891243" lon="11.3747109"><ele>198.79999999999998</ele><time>2026-04-03T09:26:12.747Z</time></trkpt><trkpt lat="43.2891343" lon="11.3748626"><ele>197.2</ele><time>2026-04-03T09:26:13.747Z</time></trkpt><trkpt lat="43.2891381" lon="11.3750227"><ele>195.6</ele><time>2026-04-03T09:26:14.746Z</time></trkpt><trkpt lat="43.2891442" lon="11.3751894"><ele>194.0</ele><time>2026-04-03T09:26:15.747Z</time></trkpt><trkpt lat="43.2891523" lon="11.375362"><ele>192.0</ele><time>2026-04-03T09:26:16.747Z</time></trkpt><trkpt lat="43.2891588" lon="11.375537"><ele>190.0</ele><time>2026-04-03T09:26:17.747Z</time></trkpt><trkpt lat="43.2891586" lon="11.3757079"><ele>188.0</ele><time>2026-04-03T09:26:18.746Z</time></trkpt><trkpt lat="43.2891591" lon="11.375869"><ele>186.0</ele><time>2026-04-03T09:26:19.746Z</time></trkpt><trkpt lat="43.2891641" lon="11.3760365"><ele>186.0</ele><time>2026-04-03T09:26:20.747Z</time></trkpt><trkpt lat="43.2891711" lon="11.3762306"><ele>186.0</ele><time>2026-04-03T09:26:21.746Z</time></trkpt><trkpt lat="43.2891816" lon="11.3764548"><ele>186.0</ele><time>2026-04-03T09:26:22.747Z</time></trkpt><trkpt lat="43.2891964" lon="11.37669"><ele>185.75</ele><time>2026-04-03T09:26:23.746Z</time></trkpt><trkpt lat="43.2892127" lon="11.3769"><ele>185.5</ele><time>2026-04-03T09:26:24.747Z</time></trkpt><trkpt lat="43.2892287" lon="11.3770872"><ele>185.25</ele><time>2026-04-03T09:26:25.746Z</time></trkpt><trkpt lat="43.2892415" lon="11.37726"><ele>185.0</ele><time>2026-04-03T09:26:26.745Z</time></trkpt><trkpt lat="43.2892432" lon="11.3774335"><ele>185.0</ele><time>2026-04-03T09:26:27.746Z</time></trkpt><trkpt lat="43.289241" lon="11.3775854"><ele>185.0</ele><time>2026-04-03T09:26:28.746Z</time></trkpt><trkpt lat="43.2892304" lon="11.3776984"><ele>185.0</ele><time>2026-04-03T09:26:29.746Z</time></trkpt><trkpt lat="43.2891601" lon="11.3778414"><ele>185.0</ele><time>2026-04-03T09:26:31.746Z</time></trkpt><trkpt lat="43.2891052" lon="11.3778948"><ele>185.0</ele><time>2026-04-03T09:26:32.746Z</time></trkpt><trkpt lat="43.2890299" lon="11.377956"><ele>185.0</ele><time>2026-04-03T09:26:33.746Z</time></trkpt><trkpt lat="43.2889426" lon="11.3780109"><ele>185.0</ele><time>2026-04-03T09:26:34.745Z</time></trkpt><trkpt lat="43.2888388" lon="11.3780627"><ele>185.0</ele><time>2026-04-03T09:26:35.746Z</time></trkpt><trkpt lat="43.2887281" lon="11.3781202"><ele>185.0</ele><time>2026-04-03T09:26:36.746Z</time></trkpt><trkpt lat="43.2886077" lon="11.3781905"><ele>187.6</ele><time>2026-04-03T09:26:37.746Z</time></trkpt><trkpt lat="43.2884931" lon="11.3782761"><ele>190.2</ele><time>2026-04-03T09:26:38.746Z</time></trkpt><trkpt lat="43.2883961" lon="11.3783445"><ele>192.8</ele><time>2026-04-03T09:26:39.746Z</time></trkpt><trkpt lat="43.2883184" lon="11.3784249"><ele>195.4</ele><time>2026-04-03T09:26:40.746Z</time></trkpt><trkpt lat="43.2882445" lon="11.3785144"><ele>198.0</ele><time>2026-04-03T09:26:41.746Z</time></trkpt><trkpt lat="43.2881706" lon="11.378615"><ele>198.0</ele><time>2026-04-03T09:26:42.745Z</time></trkpt><trkpt lat="43.2881005" lon="11.3787195"><ele>198.0</ele><time>2026-04-03T09:26:43.745Z</time></trkpt><trkpt lat="43.2880474" lon="11.378809"><ele>198.0</ele><time>2026-04-03T09:26:44.745Z</time></trkpt><trkpt lat="43.2880117" lon="11.3789009"><ele>198.0</ele><time>2026-04-03T09:26:45.746Z</time></trkpt><trkpt lat="43.2880004" lon="11.3790179"><ele>198.0</ele><time>2026-04-03T09:26:46.746Z</time></trkpt><trkpt lat="43.2880044" lon="11.3791502"><ele>198.0</ele><time>2026-04-03T09:26:47.745Z</time></trkpt><trkpt lat="43.2880052" lon="11.3792836"><ele>198.5</ele><time>2026-04-03T09:26:48.746Z</time></trkpt><trkpt lat="43.2880068" lon="11.3793867"><ele>199.0</ele><time>2026-04-03T09:26:49.746Z</time></trkpt><trkpt lat="43.2879688" lon="11.3795114"><ele>199.5</ele><time>2026-04-03T09:26:51.746Z</time></trkpt><trkpt lat="43.2878286" lon="11.3796203"><ele>200.0</ele><time>2026-04-03T09:26:53.745Z</time></trkpt><trkpt lat="43.287703" lon="11.3796794"><ele>199.33333333333334</ele><time>2026-04-03T09:26:54.746Z</time></trkpt><trkpt lat="43.2875398" lon="11.379758"><ele>198.66666666666669</ele><time>2026-04-03T09:26:55.746Z</time></trkpt><trkpt lat="43.2873739" lon="11.3798329"><ele>198.0</ele><time>2026-04-03T09:26:56.745Z</time></trkpt><trkpt lat="43.2872203" lon="11.3798731"><ele>197.0</ele><time>2026-04-03T09:26:57.746Z</time></trkpt><trkpt lat="43.2870612" lon="11.3798793"><ele>196.0</ele><time>2026-04-03T09:26:58.746Z</time></trkpt><trkpt lat="43.286884" lon="11.3798645"><ele>195.0</ele><time>2026-04-03T09:26:59.746Z</time></trkpt><trkpt lat="43.286694" lon="11.3798203"><ele>195.0</ele><time>2026-04-03T09:27:00.746Z</time></trkpt><trkpt lat="43.2864972" lon="11.3797454"><ele>195.0</ele><time>2026-04-03T09:27:01.746Z</time></trkpt><trkpt lat="43.2863103" lon="11.3796553"><ele>195.0</ele><time>2026-04-03T09:27:02.745Z</time></trkpt><trkpt lat="43.286143" lon="11.3795509"><ele>195.66666666666669</ele><time>2026-04-03T09:27:03.746Z</time></trkpt><trkpt lat="43.2859871" lon="11.3794446"><ele>196.33333333333334</ele><time>2026-04-03T09:27:04.746Z</time></trkpt><trkpt lat="43.2858277" lon="11.3793333"><ele>197.0</ele><time>2026-04-03T09:27:05.746Z</time></trkpt><trkpt lat="43.28567" lon="11.3792168"><ele>196.0</ele><time>2026-04-03T09:27:06.746Z</time></trkpt><trkpt lat="43.2855068" lon="11.3791165"><ele>195.0</ele><time>2026-04-03T09:27:07.745Z</time></trkpt><trkpt lat="43.2853383" lon="11.3790616"><ele>194.0</ele><time>2026-04-03T09:27:08.746Z</time></trkpt><trkpt lat="43.2851624" lon="11.3790267"><ele>194.0</ele><time>2026-04-03T09:27:09.745Z</time></trkpt><trkpt lat="43.2849593" lon="11.379006"><ele>194.0</ele><time>2026-04-03T09:27:10.745Z</time></trkpt><trkpt lat="43.2847526" lon="11.3789867"><ele>194.0</ele><time>2026-04-03T09:27:11.746Z</time></trkpt><trkpt lat="43.2845693" lon="11.3789656"><ele>193.66666666666669</ele><time>2026-04-03T09:27:12.746Z</time></trkpt><trkpt lat="43.2844145" lon="11.3789298"><ele>193.33333333333331</ele><time>2026-04-03T09:27:13.746Z</time></trkpt><trkpt lat="43.2842709" lon="11.3788622"><ele>193.0</ele><time>2026-04-03T09:27:14.746Z</time></trkpt><trkpt lat="43.2841414" lon="11.378775"><ele>191.0</ele><time>2026-04-03T09:27:15.746Z</time></trkpt><trkpt lat="43.2840283" lon="11.3786211"><ele>189.0</ele><time>2026-04-03T09:27:16.745Z</time></trkpt><trkpt lat="43.2839429" lon="11.3784359"><ele>187.0</ele><time>2026-04-03T09:27:17.745Z</time></trkpt><trkpt lat="43.2838683" lon="11.3782489"><ele>185.5</ele><time>2026-04-03T09:27:18.746Z</time></trkpt><trkpt lat="43.2837814" lon="11.3780962"><ele>184.0</ele><time>2026-04-03T09:27:19.746Z</time></trkpt><trkpt lat="43.2836783" lon="11.3779857"><ele>182.5</ele><time>2026-04-03T09:27:20.745Z</time></trkpt><trkpt lat="43.2835846" lon="11.3779073"><ele>181.0</ele><time>2026-04-03T09:27:21.746Z</time></trkpt><trkpt lat="43.2835023" lon="11.3778529"><ele>180.60000000000002</ele><time>2026-04-03T09:27:22.745Z</time></trkpt><trkpt lat="43.2834403" lon="11.3778151"><ele>180.2</ele><time>2026-04-03T09:27:23.745Z</time></trkpt><trkpt lat="43.2833473" lon="11.3777614"><ele>179.8</ele><time>2026-04-03T09:27:41.745Z</time></trkpt><trkpt lat="43.2832738" lon="11.3777275"><ele>179.39999999999998</ele><time>2026-04-03T09:27:44.745Z</time></trkpt><trkpt lat="43.283245" lon="11.3778189"><ele>179.0</ele><time>2026-04-03T09:28:53.746Z</time></trkpt><trkpt lat="43.2833735" lon="11.3778663"><ele>179.0</ele><time>2026-04-03T09:28:55.746Z</time></trkpt><trkpt lat="43.2834781" lon="11.3779032"><ele>179.0</ele><time>2026-04-03T09:28:56.745Z</time></trkpt><trkpt lat="43.2835873" lon="11.3779655"><ele>179.0</ele><time>2026-04-03T09:28:57.745Z</time></trkpt><trkpt lat="43.2836857" lon="11.3780586"><ele>179.0</ele><time>2026-04-03T09:28:58.746Z</time></trkpt><trkpt lat="43.2837667" lon="11.3781616"><ele>179.39999999999998</ele><time>2026-04-03T09:28:59.746Z</time></trkpt><trkpt lat="43.2838288" lon="11.3782851"><ele>179.8</ele><time>2026-04-03T09:29:00.746Z</time></trkpt><trkpt lat="43.2838776" lon="11.3784086"><ele>180.2</ele><time>2026-04-03T09:29:01.745Z</time></trkpt><trkpt lat="43.2839208" lon="11.3785313"><ele>180.60000000000002</ele><time>2026-04-03T09:29:02.746Z</time></trkpt><trkpt lat="43.2839545" lon="11.3786322"><ele>181.0</ele><time>2026-04-03T09:29:03.746Z</time></trkpt><trkpt lat="43.2839795" lon="11.3787153"><ele>181.0</ele><time>2026-04-03T09:29:04.746Z</time></trkpt><trkpt lat="43.2840401" lon="11.3788096"><ele>181.0</ele><time>2026-04-03T09:29:06.746Z</time></trkpt><trkpt lat="43.2840862" lon="11.3787454"><ele>181.0</ele><time>2026-04-03T09:29:09.745Z</time></trkpt><trkpt lat="43.2840437" lon="11.3786534"><ele>181.0</ele><time>2026-04-03T09:29:11.746Z</time></trkpt><trkpt lat="43.2839601" lon="11.3785113"><ele>181.0</ele><time>2026-04-03T09:29:13.746Z</time></trkpt><trkpt lat="43.2839273" lon="11.3784211"><ele>181.0</ele><time>2026-04-03T09:29:14.746Z</time></trkpt><trkpt lat="43.283899" lon="11.3783273"><ele>181.0</ele><time>2026-04-03T09:29:15.745Z</time></trkpt><trkpt lat="43.2838689" lon="11.3782452"><ele>181.0</ele><time>2026-04-03T09:29:16.746Z</time></trkpt><trkpt lat="43.2838314" lon="11.3781675"><ele>181.0</ele><time>2026-04-03T09:29:17.746Z</time></trkpt><trkpt lat="43.2837894" lon="11.3781026"><ele>181.0</ele><time>2026-04-03T09:29:18.746Z</time></trkpt><trkpt lat="43.2837322" lon="11.3780362"><ele>181.0</ele><time>2026-04-03T09:29:19.746Z</time></trkpt><trkpt lat="43.2836535" lon="11.3779621"><ele>181.0</ele><time>2026-04-03T09:29:20.746Z</time></trkpt><trkpt lat="43.2835439" lon="11.3778909"><ele>180.33333333333334</ele><time>2026-04-03T09:29:21.746Z</time></trkpt><trkpt lat="43.2834127" lon="11.3778275"><ele>179.66666666666666</ele><time>2026-04-03T09:29:22.745Z</time></trkpt><trkpt lat="43.2832551" lon="11.3777922"><ele>179.0</ele><time>2026-04-03T09:29:23.745Z</time></trkpt><trkpt lat="43.2830873" lon="11.3777907"><ele>178.66666666666666</ele><time>2026-04-03T09:29:24.746Z</time></trkpt><trkpt lat="43.2829059" lon="11.3778472"><ele>178.33333333333334</ele><time>2026-04-03T09:29:25.746Z</time></trkpt><trkpt lat="43.2827243" lon="11.3779152"><ele>178.0</ele><time>2026-04-03T09:29:26.746Z</time></trkpt><trkpt lat="43.2825784" lon="11.3779341"><ele>178.0</ele><time>2026-04-03T09:29:27.746Z</time></trkpt><trkpt lat="43.282458" lon="11.3779345"><ele>178.0</ele><time>2026-04-03T09:29:28.746Z</time></trkpt><trkpt lat="43.2823486" lon="11.377904"><ele>178.0</ele><time>2026-04-03T09:29:29.746Z</time></trkpt><trkpt lat="43.2822494" lon="11.3778437"><ele>178.0</ele><time>2026-04-03T09:29:30.745Z</time></trkpt><trkpt lat="43.282174" lon="11.3777603"><ele>178.0</ele><time>2026-04-03T09:29:31.745Z</time></trkpt><trkpt lat="43.2821072" lon="11.3776665"><ele>177.8</ele><time>2026-04-03T09:29:32.745Z</time></trkpt><trkpt lat="43.2820558" lon="11.377559"><ele>177.60000000000002</ele><time>2026-04-03T09:29:33.746Z</time></trkpt><trkpt lat="43.2820051" lon="11.3774323"><ele>177.39999999999998</ele><time>2026-04-03T09:29:34.745Z</time></trkpt><trkpt lat="43.2819628" lon="11.3772921"><ele>177.2</ele><time>2026-04-03T09:29:35.745Z</time></trkpt><trkpt lat="43.281924" lon="11.3771503"><ele>177.0</ele><time>2026-04-03T09:29:36.746Z</time></trkpt><trkpt lat="43.2818905" lon="11.3770211"><ele>177.0</ele><time>2026-04-03T09:29:37.745Z</time></trkpt><trkpt lat="43.2818687" lon="11.3769092"><ele>177.0</ele><time>2026-04-03T09:29:38.746Z</time></trkpt><trkpt lat="43.2818627" lon="11.3768135"><ele>177.0</ele><time>2026-04-03T09:29:39.746Z</time></trkpt><trkpt lat="43.2818741" lon="11.3767177"><ele>177.0</ele><time>2026-04-03T09:29:40.745Z</time></trkpt><trkpt lat="43.2818951" lon="11.3766262"><ele>177.0</ele><time>2026-04-03T09:29:41.745Z</time></trkpt><trkpt lat="43.2819266" lon="11.3765313"><ele>177.0</ele><time>2026-04-03T09:29:42.745Z</time></trkpt><trkpt lat="43.2819539" lon="11.3764304"><ele>177.0</ele><time>2026-04-03T09:29:43.746Z</time></trkpt><trkpt lat="43.2819668" lon="11.3763319"><ele>177.0</ele><time>2026-04-03T09:29:44.746Z</time></trkpt><trkpt lat="43.2819569" lon="11.3762465"><ele>177.0</ele><time>2026-04-03T09:29:45.746Z</time></trkpt><trkpt lat="43.2818967" lon="11.3761214"><ele>177.0</ele><time>2026-04-03T09:29:47.746Z</time></trkpt><trkpt lat="43.2818491" lon="11.3760633"><ele>177.0</ele><time>2026-04-03T09:29:48.746Z</time></trkpt><trkpt lat="43.2817866" lon="11.3760064"><ele>177.0</ele><time>2026-04-03T09:29:49.746Z</time></trkpt><trkpt lat="43.2817166" lon="11.3759453"><ele>177.0</ele><time>2026-04-03T09:29:50.746Z</time></trkpt><trkpt lat="43.2816498" lon="11.3758684"><ele>177.0</ele><time>2026-04-03T09:29:51.745Z</time></trkpt><trkpt lat="43.2816051" lon="11.3757559"><ele>177.0</ele><time>2026-04-03T09:29:52.745Z</time></trkpt><trkpt lat="43.2815807" lon="11.3756327"><ele>177.0</ele><time>2026-04-03T09:29:53.745Z</time></trkpt><trkpt lat="43.2815672" lon="11.3755212"><ele>177.0</ele><time>2026-04-03T09:29:54.746Z</time></trkpt><trkpt lat="43.2815513" lon="11.3753945"><ele>177.0</ele><time>2026-04-03T09:30:33.746Z</time></trkpt><trkpt lat="43.2815342" lon="11.3753052"><ele>177.0</ele><time>2026-04-03T09:30:34.746Z</time></trkpt><trkpt lat="43.2815341" lon="11.3751666"><ele>178.25</ele><time>2026-04-03T09:30:35.745Z</time></trkpt><trkpt lat="43.2815488" lon="11.3750043"><ele>179.5</ele><time>2026-04-03T09:30:36.746Z</time></trkpt><trkpt lat="43.2815785" lon="11.3748238"><ele>180.75</ele><time>2026-04-03T09:30:37.745Z</time></trkpt><trkpt lat="43.2816184" lon="11.3746548"><ele>182.0</ele><time>2026-04-03T09:30:38.745Z</time></trkpt><trkpt lat="43.2816682" lon="11.3744867"><ele>184.33333333333331</ele><time>2026-04-03T09:30:39.745Z</time></trkpt><trkpt lat="43.2817288" lon="11.3743138"><ele>186.66666666666666</ele><time>2026-04-03T09:30:40.746Z</time></trkpt><trkpt lat="43.2818099" lon="11.3741331"><ele>189.0</ele><time>2026-04-03T09:30:41.745Z</time></trkpt><trkpt lat="43.2819076" lon="11.3739441"><ele>190.33333333333331</ele><time>2026-04-03T09:30:42.746Z</time></trkpt><trkpt lat="43.2820044" lon="11.3737525"><ele>191.66666666666666</ele><time>2026-04-03T09:30:43.745Z</time></trkpt><trkpt lat="43.2821026" lon="11.3735419"><ele>193.0</ele><time>2026-04-03T09:30:44.746Z</time></trkpt><trkpt lat="43.2821785" lon="11.3732945"><ele>194.0</ele><time>2026-04-03T09:30:45.746Z</time></trkpt><trkpt lat="43.2822312" lon="11.3730036"><ele>195.0</ele><time>2026-04-03T09:30:46.746Z</time></trkpt><trkpt lat="43.2822741" lon="11.3726663"><ele>195.0</ele><time>2026-04-03T09:30:47.745Z</time></trkpt><trkpt lat="43.2822973" lon="11.3723271"><ele>195.0</ele><time>2026-04-03T09:30:48.746Z</time></trkpt><trkpt lat="43.2823272" lon="11.3719994"><ele>197.0</ele><time>2026-04-03T09:30:49.746Z</time></trkpt><trkpt lat="43.2823527" lon="11.3716812"><ele>199.0</ele><time>2026-04-03T09:30:50.746Z</time></trkpt><trkpt lat="43.282381" lon="11.3713738"><ele>200.0</ele><time>2026-04-03T09:30:51.746Z</time></trkpt><trkpt lat="43.2824116" lon="11.3710705"><ele>201.0</ele><time>2026-04-03T09:30:52.745Z</time></trkpt><trkpt lat="43.2824487" lon="11.3707605"><ele>203.0</ele><time>2026-04-03T09:30:53.746Z</time></trkpt><trkpt lat="43.282505" lon="11.3704663"><ele>205.0</ele><time>2026-04-03T09:30:54.746Z</time></trkpt><trkpt lat="43.2825941" lon="11.3701687"><ele>205.0</ele><time>2026-04-03T09:30:55.746Z</time></trkpt><trkpt lat="43.2827051" lon="11.3698817"><ele>205.0</ele><time>2026-04-03T09:30:56.746Z</time></trkpt><trkpt lat="43.2828168" lon="11.369621"><ele>204.66666666666666</ele><time>2026-04-03T09:30:57.746Z</time></trkpt><trkpt lat="43.2829404" lon="11.369368"><ele>204.33333333333331</ele><time>2026-04-03T09:30:58.746Z</time></trkpt><trkpt lat="43.2830641" lon="11.3691212"><ele>204.0</ele><time>2026-04-03T09:30:59.745Z</time></trkpt><trkpt lat="43.2831825" lon="11.3688717"><ele>205.33333333333331</ele><time>2026-04-03T09:31:00.745Z</time></trkpt><trkpt lat="43.2832817" lon="11.3686394"><ele>206.66666666666666</ele><time>2026-04-03T09:31:01.746Z</time></trkpt><trkpt lat="43.2833566" lon="11.3684158"><ele>208.0</ele><time>2026-04-03T09:31:02.745Z</time></trkpt><trkpt lat="43.2834119" lon="11.3681862"><ele>208.0</ele><time>2026-04-03T09:31:03.746Z</time></trkpt><trkpt lat="43.2834572" lon="11.3679557"><ele>208.0</ele><time>2026-04-03T09:31:04.745Z</time></trkpt><trkpt lat="43.2834804" lon="11.3677227"><ele>208.0</ele><time>2026-04-03T09:31:05.746Z</time></trkpt><trkpt lat="43.2834791" lon="11.3675022"><ele>208.0</ele><time>2026-04-03T09:31:06.746Z</time></trkpt><trkpt lat="43.2834599" lon="11.3672994"><ele>208.0</ele><time>2026-04-03T09:31:07.746Z</time></trkpt><trkpt lat="43.2834273" lon="11.3671"><ele>208.0</ele><time>2026-04-03T09:31:08.746Z</time></trkpt><trkpt lat="43.2833761" lon="11.3669163"><ele>208.0</ele><time>2026-04-03T09:31:09.745Z</time></trkpt><trkpt lat="43.2833157" lon="11.3667544"><ele>208.75</ele><time>2026-04-03T09:31:10.746Z</time></trkpt><trkpt lat="43.2832557" lon="11.3666149"><ele>209.5</ele><time>2026-04-03T09:31:11.745Z</time></trkpt><trkpt lat="43.2831936" lon="11.3664795"><ele>210.25</ele><time>2026-04-03T09:31:12.746Z</time></trkpt><trkpt lat="43.2831198" lon="11.366348"><ele>211.0</ele><time>2026-04-03T09:31:13.746Z</time></trkpt><trkpt lat="43.2830242" lon="11.3662201"><ele>212.33333333333331</ele><time>2026-04-03T09:31:14.746Z</time></trkpt><trkpt lat="43.2828984" lon="11.3660812"><ele>213.66666666666669</ele><time>2026-04-03T09:31:15.745Z</time></trkpt><trkpt lat="43.2827476" lon="11.3659314"><ele>215.0</ele><time>2026-04-03T09:31:16.746Z</time></trkpt><trkpt lat="43.2826003" lon="11.3657713"><ele>215.0</ele><time>2026-04-03T09:31:17.745Z</time></trkpt><trkpt lat="43.2824769" lon="11.3656304"><ele>215.0</ele><time>2026-04-03T09:31:18.745Z</time></trkpt><trkpt lat="43.2823809" lon="11.3655131"><ele>215.0</ele><time>2026-04-03T09:31:19.744Z</time></trkpt><trkpt lat="43.2823007" lon="11.3654014"><ele>215.0</ele><time>2026-04-03T09:31:20.744Z</time></trkpt><trkpt lat="43.2822427" lon="11.3652714"><ele>215.0</ele><time>2026-04-03T09:31:21.745Z</time></trkpt><trkpt lat="43.2822006" lon="11.3651265"><ele>215.0</ele><time>2026-04-03T09:31:22.745Z</time></trkpt><trkpt lat="43.2821761" lon="11.3649767"><ele>215.0</ele><time>2026-04-03T09:31:23.745Z</time></trkpt><trkpt lat="43.2821584" lon="11.36483"><ele>215.0</ele><time>2026-04-03T09:31:24.745Z</time></trkpt><trkpt lat="43.2821533" lon="11.3646695"><ele>214.0</ele><time>2026-04-03T09:31:25.745Z</time></trkpt><trkpt lat="43.2821667" lon="11.3645092"><ele>213.0</ele><time>2026-04-03T09:31:26.744Z</time></trkpt><trkpt lat="43.2821848" lon="11.3643472"><ele>212.0</ele><time>2026-04-03T09:31:27.745Z</time></trkpt><trkpt lat="43.2822115" lon="11.3641883"><ele>211.0</ele><time>2026-04-03T09:31:28.744Z</time></trkpt><trkpt lat="43.2822442" lon="11.3640262"><ele>214.0</ele><time>2026-04-03T09:31:29.745Z</time></trkpt><trkpt lat="43.282287" lon="11.3638635"><ele>217.0</ele><time>2026-04-03T09:31:30.745Z</time></trkpt><trkpt lat="43.2823506" lon="11.3636726"><ele>220.0</ele><time>2026-04-03T09:31:31.745Z</time></trkpt><trkpt lat="43.2824298" lon="11.3634542"><ele>220.0</ele><time>2026-04-03T09:31:32.744Z</time></trkpt><trkpt lat="43.2825447" lon="11.363209"><ele>220.0</ele><time>2026-04-03T09:31:33.745Z</time></trkpt><trkpt lat="43.2826774" lon="11.3629706"><ele>220.0</ele><time>2026-04-03T09:31:34.744Z</time></trkpt><trkpt lat="43.2828131" lon="11.3627276"><ele>222.0</ele><time>2026-04-03T09:31:35.745Z</time></trkpt><trkpt lat="43.2829386" lon="11.3624752"><ele>224.0</ele><time>2026-04-03T09:31:36.744Z</time></trkpt><trkpt lat="43.2830526" lon="11.3622106"><ele>226.0</ele><time>2026-04-03T09:31:37.745Z</time></trkpt><trkpt lat="43.2831554" lon="11.361908"><ele>226.0</ele><time>2026-04-03T09:31:38.745Z</time></trkpt><trkpt lat="43.2832503" lon="11.3615756"><ele>226.0</ele><time>2026-04-03T09:31:39.744Z</time></trkpt><trkpt lat="43.2833268" lon="11.3612176"><ele>224.5</ele><time>2026-04-03T09:31:40.744Z</time></trkpt><trkpt lat="43.2834002" lon="11.3608436"><ele>223.0</ele><time>2026-04-03T09:31:41.745Z</time></trkpt><trkpt lat="43.2834872" lon="11.3604603"><ele>220.0</ele><time>2026-04-03T09:31:42.744Z</time></trkpt><trkpt lat="43.2835978" lon="11.3600753"><ele>217.0</ele><time>2026-04-03T09:31:43.745Z</time></trkpt><trkpt lat="43.2837201" lon="11.3596696"><ele>216.0</ele><time>2026-04-03T09:31:44.744Z</time></trkpt><trkpt lat="43.2838407" lon="11.3592424"><ele>215.0</ele><time>2026-04-03T09:31:45.745Z</time></trkpt><trkpt lat="43.2839566" lon="11.3588148"><ele>221.5</ele><time>2026-04-03T09:31:46.745Z</time></trkpt><trkpt lat="43.284066" lon="11.3583896"><ele>228.0</ele><time>2026-04-03T09:31:47.744Z</time></trkpt><trkpt lat="43.2841691" lon="11.3579631"><ele>228.0</ele><time>2026-04-03T09:31:48.745Z</time></trkpt><trkpt lat="43.2842649" lon="11.3575517"><ele>228.0</ele><time>2026-04-03T09:31:49.744Z</time></trkpt><trkpt lat="43.2843591" lon="11.3571685"><ele>227.5</ele><time>2026-04-03T09:31:50.744Z</time></trkpt><trkpt lat="43.2844537" lon="11.3568145"><ele>227.0</ele><time>2026-04-03T09:31:51.744Z</time></trkpt><trkpt lat="43.284557" lon="11.3564803"><ele>226.5</ele><time>2026-04-03T09:31:52.745Z</time></trkpt><trkpt lat="43.2846644" lon="11.3561615"><ele>226.0</ele><time>2026-04-03T09:31:53.745Z</time></trkpt><trkpt lat="43.2847657" lon="11.3558774"><ele>229.33333333333331</ele><time>2026-04-03T09:31:54.745Z</time></trkpt><trkpt lat="43.2848574" lon="11.3556147"><ele>232.66666666666669</ele><time>2026-04-03T09:31:55.744Z</time></trkpt><trkpt lat="43.2849432" lon="11.3553723"><ele>236.0</ele><time>2026-04-03T09:31:56.744Z</time></trkpt><trkpt lat="43.2850184" lon="11.3551488"><ele>236.0</ele><time>2026-04-03T09:31:57.745Z</time></trkpt><trkpt lat="43.2850663" lon="11.3549389"><ele>236.0</ele><time>2026-04-03T09:31:58.744Z</time></trkpt><trkpt lat="43.2850824" lon="11.3547517"><ele>236.0</ele><time>2026-04-03T09:31:59.744Z</time></trkpt><trkpt lat="43.2850568" lon="11.3545657"><ele>236.0</ele><time>2026-04-03T09:32:00.744Z</time></trkpt><trkpt lat="43.2849977" lon="11.3543766"><ele>236.0</ele><time>2026-04-03T09:32:01.745Z</time></trkpt><trkpt lat="43.2849048" lon="11.3541903"><ele>236.0</ele><time>2026-04-03T09:32:02.744Z</time></trkpt><trkpt lat="43.2847921" lon="11.3539972"><ele>236.0</ele><time>2026-04-03T09:32:03.745Z</time></trkpt><trkpt lat="43.2846833" lon="11.3538283"><ele>236.0</ele><time>2026-04-03T09:32:04.745Z</time></trkpt><trkpt lat="43.2845848" lon="11.3536789"><ele>236.00000000000003</ele><time>2026-04-03T09:32:05.745Z</time></trkpt><trkpt lat="43.2845124" lon="11.3535546"><ele>236.00000000000003</ele><time>2026-04-03T09:32:06.745Z</time></trkpt><trkpt lat="43.2844667" lon="11.3534645"><ele>236.0</ele><time>2026-04-03T09:32:07.745Z</time></trkpt><trkpt lat="43.2844097" lon="11.3533928"><ele>236.0</ele><time>2026-04-03T09:32:09.745Z</time></trkpt><trkpt lat="43.2843106" lon="11.3533608"><ele>236.0</ele><time>2026-04-03T09:32:37.745Z</time></trkpt><trkpt lat="43.2842437" lon="11.353415"><ele>236.0</ele><time>2026-04-03T09:32:38.745Z</time></trkpt><trkpt lat="43.2841389" lon="11.3534856"><ele>236.0</ele><time>2026-04-03T09:32:39.744Z</time></trkpt><trkpt lat="43.2840139" lon="11.3535565"><ele>236.0</ele><time>2026-04-03T09:32:40.744Z</time></trkpt><trkpt lat="43.2838855" lon="11.3536182"><ele>236.4</ele><time>2026-04-03T09:32:41.744Z</time></trkpt><trkpt lat="43.2837643" lon="11.3536653"><ele>236.8</ele><time>2026-04-03T09:32:42.745Z</time></trkpt><trkpt lat="43.2836599" lon="11.3536867"><ele>237.20000000000002</ele><time>2026-04-03T09:32:43.745Z</time></trkpt><trkpt lat="43.2835682" lon="11.353699"><ele>237.60000000000002</ele><time>2026-04-03T09:32:44.745Z</time></trkpt><trkpt lat="43.2834833" lon="11.353708"><ele>238.0</ele><time>2026-04-03T09:32:45.745Z</time></trkpt><trkpt lat="43.2833938" lon="11.3537104"><ele>238.0</ele><time>2026-04-03T09:32:46.744Z</time></trkpt><trkpt lat="43.283286" lon="11.353706"><ele>238.0</ele><time>2026-04-03T09:32:47.745Z</time></trkpt><trkpt lat="43.2831453" lon="11.3536905"><ele>238.0</ele><time>2026-04-03T09:32:48.745Z</time></trkpt><trkpt lat="43.2829914" lon="11.3536641"><ele>238.0</ele><time>2026-04-03T09:32:49.745Z</time></trkpt><trkpt lat="43.2828354" lon="11.3536305"><ele>238.0</ele><time>2026-04-03T09:32:50.745Z</time></trkpt><trkpt lat="43.282677" lon="11.3535986"><ele>238.0</ele><time>2026-04-03T09:32:51.744Z</time></trkpt><trkpt lat="43.2825272" lon="11.3535659"><ele>238.0</ele><time>2026-04-03T09:32:52.745Z</time></trkpt><trkpt lat="43.2823897" lon="11.3535294"><ele>238.0</ele><time>2026-04-03T09:32:53.745Z</time></trkpt><trkpt lat="43.2822767" lon="11.3535085"><ele>238.0</ele><time>2026-04-03T09:32:54.745Z</time></trkpt><trkpt lat="43.2821538" lon="11.3534785"><ele>238.0</ele><time>2026-04-03T09:32:55.745Z</time></trkpt><trkpt lat="43.2820047" lon="11.3534526"><ele>238.0</ele><time>2026-04-03T09:32:56.745Z</time></trkpt><trkpt lat="43.2818394" lon="11.3534121"><ele>238.0</ele><time>2026-04-03T09:32:57.744Z</time></trkpt><trkpt lat="43.2816552" lon="11.3533704"><ele>238.0</ele><time>2026-04-03T09:32:58.745Z</time></trkpt><trkpt lat="43.2814757" lon="11.3533137"><ele>238.0</ele><time>2026-04-03T09:32:59.744Z</time></trkpt><trkpt lat="43.281312" lon="11.3532616"><ele>238.0</ele><time>2026-04-03T09:33:00.745Z</time></trkpt><trkpt lat="43.2811534" lon="11.353214"><ele>238.0</ele><time>2026-04-03T09:33:01.745Z</time></trkpt><trkpt lat="43.2810002" lon="11.3531635"><ele>238.0</ele><time>2026-04-03T09:33:02.744Z</time></trkpt><trkpt lat="43.2808462" lon="11.3531101"><ele>238.0</ele><time>2026-04-03T09:33:03.745Z</time></trkpt><trkpt lat="43.280693" lon="11.3530592"><ele>238.0</ele><time>2026-04-03T09:33:04.745Z</time></trkpt><trkpt lat="43.280551" lon="11.3530134"><ele>238.0</ele><time>2026-04-03T09:33:05.744Z</time></trkpt><trkpt lat="43.2804155" lon="11.3529699"><ele>238.0</ele><time>2026-04-03T09:33:06.745Z</time></trkpt><trkpt lat="43.280285" lon="11.3529226"><ele>236.0</ele><time>2026-04-03T09:33:07.744Z</time></trkpt><trkpt lat="43.2801608" lon="11.3528776"><ele>234.0</ele><time>2026-04-03T09:33:08.744Z</time></trkpt><trkpt lat="43.2800333" lon="11.3528331"><ele>232.0</ele><time>2026-04-03T09:33:09.744Z</time></trkpt><trkpt lat="43.2798945" lon="11.3527981"><ele>230.0</ele><time>2026-04-03T09:33:10.745Z</time></trkpt><trkpt lat="43.2797479" lon="11.3527574"><ele>229.25</ele><time>2026-04-03T09:33:11.745Z</time></trkpt><trkpt lat="43.2795999" lon="11.3527255"><ele>228.5</ele><time>2026-04-03T09:33:12.745Z</time></trkpt><trkpt lat="43.2794561" lon="11.3526994"><ele>227.75</ele><time>2026-04-03T09:33:13.744Z</time></trkpt><trkpt lat="43.279312" lon="11.3526757"><ele>227.0</ele><time>2026-04-03T09:33:14.744Z</time></trkpt><trkpt lat="43.2791678" lon="11.352663"><ele>227.0</ele><time>2026-04-03T09:33:15.744Z</time></trkpt><trkpt lat="43.2790237" lon="11.3526564"><ele>227.0</ele><time>2026-04-03T09:33:16.744Z</time></trkpt><trkpt lat="43.2788859" lon="11.352665"><ele>227.0</ele><time>2026-04-03T09:33:17.745Z</time></trkpt><trkpt lat="43.2787556" lon="11.3526878"><ele>227.0</ele><time>2026-04-03T09:33:18.745Z</time></trkpt><trkpt lat="43.2786281" lon="11.3527435"><ele>227.0</ele><time>2026-04-03T09:33:19.744Z</time></trkpt><trkpt lat="43.2785088" lon="11.3528108"><ele>227.0</ele><time>2026-04-03T09:33:20.745Z</time></trkpt><trkpt lat="43.2784031" lon="11.3528739"><ele>227.0</ele><time>2026-04-03T09:33:21.745Z</time></trkpt><trkpt lat="43.2782954" lon="11.3529477"><ele>227.0</ele><time>2026-04-03T09:33:22.745Z</time></trkpt><trkpt lat="43.2781837" lon="11.3530151"><ele>228.0</ele><time>2026-04-03T09:33:23.745Z</time></trkpt><trkpt lat="43.2780638" lon="11.3530884"><ele>229.0</ele><time>2026-04-03T09:33:24.744Z</time></trkpt><trkpt lat="43.2779434" lon="11.3531676"><ele>230.0</ele><time>2026-04-03T09:33:25.744Z</time></trkpt><trkpt lat="43.2778222" lon="11.3532409"><ele>231.0</ele><time>2026-04-03T09:33:26.744Z</time></trkpt><trkpt lat="43.277698" lon="11.3533172"><ele>231.0</ele><time>2026-04-03T09:33:27.745Z</time></trkpt><trkpt lat="43.2775715" lon="11.3533951"><ele>231.0</ele><time>2026-04-03T09:33:28.744Z</time></trkpt><trkpt lat="43.2774422" lon="11.3534752"><ele>231.0</ele><time>2026-04-03T09:33:29.744Z</time></trkpt><trkpt lat="43.2773055" lon="11.3535437"><ele>231.0</ele><time>2026-04-03T09:33:30.745Z</time></trkpt><trkpt lat="43.277165" lon="11.3536114"><ele>231.33333333333331</ele><time>2026-04-03T09:33:31.745Z</time></trkpt><trkpt lat="43.2770206" lon="11.353667"><ele>231.66666666666666</ele><time>2026-04-03T09:33:32.745Z</time></trkpt><trkpt lat="43.2768578" lon="11.3537044"><ele>232.0</ele><time>2026-04-03T09:33:33.745Z</time></trkpt><trkpt lat="43.2766877" lon="11.3537457"><ele>232.0</ele><time>2026-04-03T09:33:34.744Z</time></trkpt><trkpt lat="43.2765053" lon="11.353782"><ele>232.0</ele><time>2026-04-03T09:33:35.745Z</time></trkpt><trkpt lat="43.2763103" lon="11.3538212"><ele>232.0</ele><time>2026-04-03T09:33:36.744Z</time></trkpt><trkpt lat="43.2761011" lon="11.3538648"><ele>227.5</ele><time>2026-04-03T09:33:37.744Z</time></trkpt><trkpt lat="43.2758817" lon="11.3539068"><ele>223.0</ele><time>2026-04-03T09:33:38.745Z</time></trkpt><trkpt lat="43.2756481" lon="11.353959"><ele>222.5</ele><time>2026-04-03T09:33:39.744Z</time></trkpt><trkpt lat="43.275408" lon="11.3540068"><ele>222.0</ele><time>2026-04-03T09:33:40.745Z</time></trkpt><trkpt lat="43.2751901" lon="11.3540406"><ele>222.0</ele><time>2026-04-03T09:33:41.745Z</time></trkpt><trkpt lat="43.2749993" lon="11.3540767"><ele>222.0</ele><time>2026-04-03T09:33:42.745Z</time></trkpt><trkpt lat="43.2748307" lon="11.3541324"><ele>222.0</ele><time>2026-04-03T09:33:43.745Z</time></trkpt><trkpt lat="43.2746788" lon="11.3542076"><ele>223.0</ele><time>2026-04-03T09:33:44.745Z</time></trkpt><trkpt lat="43.2745454" lon="11.3543098"><ele>224.0</ele><time>2026-04-03T09:33:45.745Z</time></trkpt><trkpt lat="43.274425" lon="11.3544451"><ele>225.0</ele><time>2026-04-03T09:33:46.744Z</time></trkpt><trkpt lat="43.2743067" lon="11.354606"><ele>224.25</ele><time>2026-04-03T09:33:47.745Z</time></trkpt><trkpt lat="43.2741978" lon="11.3547638"><ele>223.5</ele><time>2026-04-03T09:33:48.744Z</time></trkpt><trkpt lat="43.2740985" lon="11.3549181"><ele>222.75</ele><time>2026-04-03T09:33:49.745Z</time></trkpt><trkpt lat="43.2740037" lon="11.3550471"><ele>222.0</ele><time>2026-04-03T09:33:50.744Z</time></trkpt><trkpt lat="43.2739056" lon="11.3551678"><ele>222.25</ele><time>2026-04-03T09:33:51.744Z</time></trkpt><trkpt lat="43.2738087" lon="11.3552776"><ele>222.5</ele><time>2026-04-03T09:33:52.745Z</time></trkpt><trkpt lat="43.2737143" lon="11.3553827"><ele>222.75</ele><time>2026-04-03T09:33:53.745Z</time></trkpt><trkpt lat="43.2736128" lon="11.355494"><ele>223.0</ele><time>2026-04-03T09:33:54.745Z</time></trkpt><trkpt lat="43.2735064" lon="11.3556101"><ele>223.0</ele><time>2026-04-03T09:33:55.744Z</time></trkpt><trkpt lat="43.2734018" lon="11.3557338"><ele>223.0</ele><time>2026-04-03T09:33:56.745Z</time></trkpt><trkpt lat="43.2732966" lon="11.3558476"><ele>223.0</ele><time>2026-04-03T09:33:57.744Z</time></trkpt><trkpt lat="43.2731928" lon="11.3559586"><ele>223.0</ele><time>2026-04-03T09:33:58.745Z</time></trkpt><trkpt lat="43.27308" lon="11.3560747"><ele>224.0</ele><time>2026-04-03T09:33:59.745Z</time></trkpt><trkpt lat="43.2729668" lon="11.3561966"><ele>225.0</ele><time>2026-04-03T09:34:00.745Z</time></trkpt><trkpt lat="43.2728553" lon="11.3563177"><ele>226.0</ele><time>2026-04-03T09:34:01.745Z</time></trkpt><trkpt lat="43.2727413" lon="11.3564332"><ele>227.0</ele><time>2026-04-03T09:34:02.745Z</time></trkpt><trkpt lat="43.272631" lon="11.3565576"><ele>227.0</ele><time>2026-04-03T09:34:03.745Z</time></trkpt><trkpt lat="43.2725271" lon="11.3566834"><ele>227.0</ele><time>2026-04-03T09:34:04.745Z</time></trkpt><trkpt lat="43.272423" lon="11.3568031"><ele>227.0</ele><time>2026-04-03T09:34:05.745Z</time></trkpt><trkpt lat="43.2723203" lon="11.3569193"><ele>227.0</ele><time>2026-04-03T09:34:06.745Z</time></trkpt><trkpt lat="43.2722161" lon="11.3570346"><ele>226.2</ele><time>2026-04-03T09:34:07.744Z</time></trkpt><trkpt lat="43.2721246" lon="11.3571382"><ele>225.39999999999998</ele><time>2026-04-03T09:34:08.744Z</time></trkpt><trkpt lat="43.2720449" lon="11.3572231"><ele>224.60000000000002</ele><time>2026-04-03T09:34:09.744Z</time></trkpt><trkpt lat="43.2719785" lon="11.3572982"><ele>223.8</ele><time>2026-04-03T09:34:10.745Z</time></trkpt><trkpt lat="43.2719182" lon="11.357355"><ele>223.0</ele><time>2026-04-03T09:34:11.744Z</time></trkpt><trkpt lat="43.2718493" lon="11.3573831"><ele>223.0</ele><time>2026-04-03T09:34:12.745Z</time></trkpt><trkpt lat="43.2717657" lon="11.3573701"><ele>223.0</ele><time>2026-04-03T09:34:13.744Z</time></trkpt><trkpt lat="43.2716729" lon="11.3573052"><ele>223.0</ele><time>2026-04-03T09:34:14.745Z</time></trkpt><trkpt lat="43.2715835" lon="11.3572127"><ele>223.0</ele><time>2026-04-03T09:34:15.745Z</time></trkpt><trkpt lat="43.2714973" lon="11.3571148"><ele>223.0</ele><time>2026-04-03T09:34:16.744Z</time></trkpt><trkpt lat="43.2714154" lon="11.3570315"><ele>222.8</ele><time>2026-04-03T09:34:17.744Z</time></trkpt><trkpt lat="43.271339" lon="11.3569498"><ele>222.60000000000002</ele><time>2026-04-03T09:34:18.745Z</time></trkpt><trkpt lat="43.2712689" lon="11.3568771"><ele>222.39999999999998</ele><time>2026-04-03T09:34:19.745Z</time></trkpt><trkpt lat="43.2711962" lon="11.3568037"><ele>222.2</ele><time>2026-04-03T09:34:20.745Z</time></trkpt><trkpt lat="43.2711296" lon="11.3567243"><ele>222.0</ele><time>2026-04-03T09:34:21.745Z</time></trkpt><trkpt lat="43.2710607" lon="11.3566486"><ele>222.0</ele><time>2026-04-03T09:34:22.744Z</time></trkpt><trkpt lat="43.2709857" lon="11.3565696"><ele>222.0</ele><time>2026-04-03T09:34:23.745Z</time></trkpt><trkpt lat="43.2709078" lon="11.3564878"><ele>222.0</ele><time>2026-04-03T09:34:24.745Z</time></trkpt><trkpt lat="43.2708312" lon="11.3564124"><ele>222.0</ele><time>2026-04-03T09:34:25.745Z</time></trkpt><trkpt lat="43.2707596" lon="11.3563425"><ele>222.0</ele><time>2026-04-03T09:34:26.744Z</time></trkpt><trkpt lat="43.270691" lon="11.3562744"><ele>220.57142857142856</ele><time>2026-04-03T09:34:27.745Z</time></trkpt><trkpt lat="43.2706261" lon="11.3562104"><ele>219.14285714285717</ele><time>2026-04-03T09:34:28.745Z</time></trkpt><trkpt lat="43.2705639" lon="11.3561452"><ele>217.71428571428572</ele><time>2026-04-03T09:34:29.745Z</time></trkpt><trkpt lat="43.2705045" lon="11.356082"><ele>216.28571428571428</ele><time>2026-04-03T09:34:30.744Z</time></trkpt><trkpt lat="43.2704429" lon="11.3560281"><ele>214.85714285714283</ele><time>2026-04-03T09:34:31.745Z</time></trkpt><trkpt lat="43.2703785" lon="11.3559885"><ele>213.42857142857144</ele><time>2026-04-03T09:34:32.745Z</time></trkpt><trkpt lat="43.2703106" lon="11.3559582"><ele>212.0</ele><time>2026-04-03T09:34:33.745Z</time></trkpt><trkpt lat="43.27023" lon="11.3559358"><ele>211.6</ele><time>2026-04-03T09:34:34.745Z</time></trkpt><trkpt lat="43.2701394" lon="11.355925"><ele>211.2</ele><time>2026-04-03T09:34:35.744Z</time></trkpt><trkpt lat="43.2700466" lon="11.3559255"><ele>210.8</ele><time>2026-04-03T09:34:36.744Z</time></trkpt><trkpt lat="43.2699558" lon="11.3559309"><ele>210.4</ele><time>2026-04-03T09:34:37.745Z</time></trkpt><trkpt lat="43.2698612" lon="11.3559505"><ele>210.0</ele><time>2026-04-03T09:34:38.744Z</time></trkpt><trkpt lat="43.2697679" lon="11.3559797"><ele>207.6</ele><time>2026-04-03T09:34:39.744Z</time></trkpt><trkpt lat="43.2696789" lon="11.356019"><ele>205.2</ele><time>2026-04-03T09:34:40.744Z</time></trkpt><trkpt lat="43.2695888" lon="11.3560716"><ele>202.8</ele><time>2026-04-03T09:34:41.744Z</time></trkpt><trkpt lat="43.2695005" lon="11.3561413"><ele>200.4</ele><time>2026-04-03T09:34:42.745Z</time></trkpt><trkpt lat="43.2694143" lon="11.356225"><ele>198.0</ele><time>2026-04-03T09:34:43.744Z</time></trkpt><trkpt lat="43.2693302" lon="11.3563171"><ele>198.8</ele><time>2026-04-03T09:34:44.745Z</time></trkpt><trkpt lat="43.2692536" lon="11.356415"><ele>199.60000000000002</ele><time>2026-04-03T09:34:45.744Z</time></trkpt><trkpt lat="43.2691842" lon="11.3565264"><ele>200.39999999999998</ele><time>2026-04-03T09:34:46.745Z</time></trkpt><trkpt lat="43.2691184" lon="11.3566537"><ele>201.2</ele><time>2026-04-03T09:34:47.745Z</time></trkpt><trkpt lat="43.2690619" lon="11.3567861"><ele>202.0</ele><time>2026-04-03T09:34:48.745Z</time></trkpt><trkpt lat="43.2690152" lon="11.3569113"><ele>202.0</ele><time>2026-04-03T09:34:49.745Z</time></trkpt><trkpt lat="43.2689858" lon="11.357037"><ele>202.0</ele><time>2026-04-03T09:34:50.744Z</time></trkpt><trkpt lat="43.2689673" lon="11.3571739"><ele>202.0</ele><time>2026-04-03T09:34:51.744Z</time></trkpt><trkpt lat="43.2689577" lon="11.3573307"><ele>202.0</ele><time>2026-04-03T09:34:52.745Z</time></trkpt><trkpt lat="43.2689539" lon="11.3575044"><ele>202.0</ele><time>2026-04-03T09:34:53.745Z</time></trkpt><trkpt lat="43.2689516" lon="11.3576822"><ele>202.39999999999998</ele><time>2026-04-03T09:34:54.745Z</time></trkpt><trkpt lat="43.2689446" lon="11.3578442"><ele>202.79999999999998</ele><time>2026-04-03T09:34:55.745Z</time></trkpt><trkpt lat="43.2689366" lon="11.358"><ele>203.2</ele><time>2026-04-03T09:34:56.744Z</time></trkpt><trkpt lat="43.268928" lon="11.3581475"><ele>203.6</ele><time>2026-04-03T09:34:57.745Z</time></trkpt><trkpt lat="43.2689155" lon="11.3582973"><ele>204.0</ele><time>2026-04-03T09:34:58.745Z</time></trkpt><trkpt lat="43.2688929" lon="11.3584469"><ele>201.2</ele><time>2026-04-03T09:34:59.745Z</time></trkpt><trkpt lat="43.2688585" lon="11.3585917"><ele>198.39999999999998</ele><time>2026-04-03T09:35:00.744Z</time></trkpt><trkpt lat="43.2688141" lon="11.3587218"><ele>195.6</ele><time>2026-04-03T09:35:01.745Z</time></trkpt><trkpt lat="43.2687613" lon="11.3588387"><ele>192.8</ele><time>2026-04-03T09:35:02.745Z</time></trkpt><trkpt lat="43.2686967" lon="11.3589547"><ele>190.0</ele><time>2026-04-03T09:35:03.745Z</time></trkpt><trkpt lat="43.2686225" lon="11.3590686"><ele>190.0</ele><time>2026-04-03T09:35:04.744Z</time></trkpt><trkpt lat="43.268536" lon="11.359166"><ele>190.0</ele><time>2026-04-03T09:35:05.745Z</time></trkpt><trkpt lat="43.2684304" lon="11.3592501"><ele>190.0</ele><time>2026-04-03T09:35:06.745Z</time></trkpt><trkpt lat="43.2683095" lon="11.3593256"><ele>190.0</ele><time>2026-04-03T09:35:07.745Z</time></trkpt><trkpt lat="43.2681835" lon="11.3593776"><ele>189.0</ele><time>2026-04-03T09:35:08.745Z</time></trkpt><trkpt lat="43.2680532" lon="11.3594047"><ele>188.0</ele><time>2026-04-03T09:35:09.744Z</time></trkpt><trkpt lat="43.267918" lon="11.3594046"><ele>187.0</ele><time>2026-04-03T09:35:10.745Z</time></trkpt><trkpt lat="43.2677746" lon="11.3593721"><ele>186.0</ele><time>2026-04-03T09:35:11.744Z</time></trkpt><trkpt lat="43.2676116" lon="11.3593117"><ele>186.0</ele><time>2026-04-03T09:35:12.745Z</time></trkpt><trkpt lat="43.2674161" lon="11.3592426"><ele>186.0</ele><time>2026-04-03T09:35:13.745Z</time></trkpt><trkpt lat="43.2672034" lon="11.3591566"><ele>186.0</ele><time>2026-04-03T09:35:14.744Z</time></trkpt><trkpt lat="43.2670056" lon="11.359072"><ele>185.66666666666666</ele><time>2026-04-03T09:35:15.744Z</time></trkpt><trkpt lat="43.2668247" lon="11.3589942"><ele>185.33333333333331</ele><time>2026-04-03T09:35:16.744Z</time></trkpt><trkpt lat="43.2666595" lon="11.3589264"><ele>185.0</ele><time>2026-04-03T09:35:17.745Z</time></trkpt><trkpt lat="43.2665061" lon="11.3588621"><ele>185.0</ele><time>2026-04-03T09:35:18.745Z</time></trkpt><trkpt lat="43.2663543" lon="11.3587982"><ele>185.0</ele><time>2026-04-03T09:35:19.744Z</time></trkpt><trkpt lat="43.2661975" lon="11.358731"><ele>185.0</ele><time>2026-04-03T09:35:20.745Z</time></trkpt><trkpt lat="43.2660192" lon="11.3586539"><ele>185.0</ele><time>2026-04-03T09:35:21.745Z</time></trkpt><trkpt lat="43.2658322" lon="11.3585729"><ele>185.0</ele><time>2026-04-03T09:35:22.744Z</time></trkpt><trkpt lat="43.265661" lon="11.3584979"><ele>185.0</ele><time>2026-04-03T09:35:23.745Z</time></trkpt><trkpt lat="43.2655018" lon="11.3584306"><ele>184.75</ele><time>2026-04-03T09:35:24.745Z</time></trkpt><trkpt lat="43.2653578" lon="11.3583643"><ele>184.5</ele><time>2026-04-03T09:35:25.745Z</time></trkpt><trkpt lat="43.265226" lon="11.3583057"><ele>184.25</ele><time>2026-04-03T09:35:26.745Z</time></trkpt><trkpt lat="43.2651148" lon="11.358258"><ele>184.0</ele><time>2026-04-03T09:35:27.745Z</time></trkpt><trkpt lat="43.2650259" lon="11.3582267"><ele>184.0</ele><time>2026-04-03T09:35:28.745Z</time></trkpt><trkpt lat="43.2649618" lon="11.3582179"><ele>184.0</ele><time>2026-04-03T09:35:29.744Z</time></trkpt><trkpt lat="43.2648662" lon="11.35821"><ele>184.0</ele><time>2026-04-03T09:35:31.745Z</time></trkpt><trkpt lat="43.2647421" lon="11.3582478"><ele>184.0</ele><time>2026-04-03T09:35:40.745Z</time></trkpt><trkpt lat="43.2646385" lon="11.3583528"><ele>184.0</ele><time>2026-04-03T09:35:42.744Z</time></trkpt><trkpt lat="43.2645764" lon="11.3584319"><ele>184.0</ele><time>2026-04-03T09:35:43.744Z</time></trkpt><trkpt lat="43.2645144" lon="11.3585353"><ele>184.0</ele><time>2026-04-03T09:35:44.745Z</time></trkpt><trkpt lat="43.2644402" lon="11.3586751"><ele>184.0</ele><time>2026-04-03T09:35:45.745Z</time></trkpt><trkpt lat="43.2643495" lon="11.3588419"><ele>184.0</ele><time>2026-04-03T09:35:46.744Z</time></trkpt><trkpt lat="43.2642551" lon="11.3589883"><ele>184.0</ele><time>2026-04-03T09:35:47.744Z</time></trkpt><trkpt lat="43.2641609" lon="11.3591091"><ele>184.0</ele><time>2026-04-03T09:35:48.744Z</time></trkpt><trkpt lat="43.2640536" lon="11.359218"><ele>184.0</ele><time>2026-04-03T09:35:49.745Z</time></trkpt><trkpt lat="43.2639269" lon="11.3593183"><ele>184.0</ele><time>2026-04-03T09:35:50.745Z</time></trkpt><trkpt lat="43.2637849" lon="11.3594124"><ele>183.75</ele><time>2026-04-03T09:35:51.744Z</time></trkpt><trkpt lat="43.263651" lon="11.3595058"><ele>183.5</ele><time>2026-04-03T09:35:52.744Z</time></trkpt><trkpt lat="43.2635246" lon="11.3596008"><ele>183.25</ele><time>2026-04-03T09:35:53.745Z</time></trkpt><trkpt lat="43.2634091" lon="11.3596959"><ele>183.0</ele><time>2026-04-03T09:35:54.744Z</time></trkpt><trkpt lat="43.2632992" lon="11.3598052"><ele>182.66666666666666</ele><time>2026-04-03T09:35:55.745Z</time></trkpt><trkpt lat="43.2631909" lon="11.359923"><ele>182.33333333333331</ele><time>2026-04-03T09:35:56.744Z</time></trkpt><trkpt lat="43.2630715" lon="11.3600644"><ele>182.0</ele><time>2026-04-03T09:35:57.745Z</time></trkpt><trkpt lat="43.2629292" lon="11.3602338"><ele>182.33333333333331</ele><time>2026-04-03T09:35:58.745Z</time></trkpt><trkpt lat="43.2627729" lon="11.3604115"><ele>182.66666666666666</ele><time>2026-04-03T09:35:59.744Z</time></trkpt><trkpt lat="43.2626219" lon="11.360588"><ele>183.0</ele><time>2026-04-03T09:36:00.745Z</time></trkpt><trkpt lat="43.262487" lon="11.3607494"><ele>183.0</ele><time>2026-04-03T09:36:01.744Z</time></trkpt><trkpt lat="43.262368" lon="11.3609015"><ele>183.0</ele><time>2026-04-03T09:36:02.744Z</time></trkpt><trkpt lat="43.2622565" lon="11.3610467"><ele>183.0</ele><time>2026-04-03T09:36:03.745Z</time></trkpt><trkpt lat="43.2621381" lon="11.3611874"><ele>182.66666666666666</ele><time>2026-04-03T09:36:04.745Z</time></trkpt><trkpt lat="43.2620017" lon="11.3613264"><ele>182.33333333333331</ele><time>2026-04-03T09:36:05.745Z</time></trkpt><trkpt lat="43.2618496" lon="11.36146"><ele>182.0</ele><time>2026-04-03T09:36:06.744Z</time></trkpt><trkpt lat="43.2616883" lon="11.3615858"><ele>182.0</ele><time>2026-04-03T09:36:07.744Z</time></trkpt><trkpt lat="43.2615201" lon="11.361701"><ele>182.0</ele><time>2026-04-03T09:36:08.744Z</time></trkpt><trkpt lat="43.2613567" lon="11.3617951"><ele>182.0</ele><time>2026-04-03T09:36:09.744Z</time></trkpt><trkpt lat="43.2612068" lon="11.3618663"><ele>182.0</ele><time>2026-04-03T09:36:10.744Z</time></trkpt><trkpt lat="43.2610619" lon="11.3619211"><ele>182.0</ele><time>2026-04-03T09:36:11.745Z</time></trkpt><trkpt lat="43.2609179" lon="11.3619538"><ele>182.0</ele><time>2026-04-03T09:36:12.745Z</time></trkpt><trkpt lat="43.2607681" lon="11.361973"><ele>182.0</ele><time>2026-04-03T09:36:13.745Z</time></trkpt><trkpt lat="43.2606075" lon="11.3619631"><ele>183.0</ele><time>2026-04-03T09:36:14.745Z</time></trkpt><trkpt lat="43.260433" lon="11.3619352"><ele>184.0</ele><time>2026-04-03T09:36:15.745Z</time></trkpt><trkpt lat="43.2602631" lon="11.3618917"><ele>185.0</ele><time>2026-04-03T09:36:16.745Z</time></trkpt><trkpt lat="43.2601081" lon="11.3618536"><ele>185.0</ele><time>2026-04-03T09:36:17.745Z</time></trkpt><trkpt lat="43.2599643" lon="11.361809"><ele>185.0</ele><time>2026-04-03T09:36:18.744Z</time></trkpt><trkpt lat="43.259829" lon="11.36176"><ele>185.0</ele><time>2026-04-03T09:36:19.744Z</time></trkpt><trkpt lat="43.2596983" lon="11.3617163"><ele>185.0</ele><time>2026-04-03T09:36:20.744Z</time></trkpt><trkpt lat="43.2595795" lon="11.3616708"><ele>186.6</ele><time>2026-04-03T09:36:21.744Z</time></trkpt><trkpt lat="43.2594753" lon="11.3616169"><ele>188.2</ele><time>2026-04-03T09:36:22.744Z</time></trkpt><trkpt lat="43.2593798" lon="11.3615765"><ele>189.8</ele><time>2026-04-03T09:36:23.745Z</time></trkpt><trkpt lat="43.2592948" lon="11.3615292"><ele>191.4</ele><time>2026-04-03T09:36:24.745Z</time></trkpt><trkpt lat="43.2592087" lon="11.3614848"><ele>193.0</ele><time>2026-04-03T09:36:25.745Z</time></trkpt><trkpt lat="43.2591231" lon="11.361443"><ele>193.0</ele><time>2026-04-03T09:36:26.745Z</time></trkpt><trkpt lat="43.2590369" lon="11.3614025"><ele>193.0</ele><time>2026-04-03T09:36:27.745Z</time></trkpt><trkpt lat="43.2589506" lon="11.3613457"><ele>193.0</ele><time>2026-04-03T09:36:28.744Z</time></trkpt><trkpt lat="43.2588611" lon="11.3612786"><ele>193.0</ele><time>2026-04-03T09:36:29.745Z</time></trkpt><trkpt lat="43.2587701" lon="11.3612004"><ele>193.0</ele><time>2026-04-03T09:36:30.744Z</time></trkpt><trkpt lat="43.2586755" lon="11.361113"><ele>193.5</ele><time>2026-04-03T09:36:31.745Z</time></trkpt><trkpt lat="43.258576" lon="11.3610237"><ele>194.0</ele><time>2026-04-03T09:36:32.745Z</time></trkpt><trkpt lat="43.2584639" lon="11.360922"><ele>194.5</ele><time>2026-04-03T09:36:33.745Z</time></trkpt><trkpt lat="43.2583398" lon="11.3608018"><ele>195.0</ele><time>2026-04-03T09:36:34.744Z</time></trkpt><trkpt lat="43.2582121" lon="11.3606773"><ele>195.0</ele><time>2026-04-03T09:36:35.744Z</time></trkpt><trkpt lat="43.2580963" lon="11.3605667"><ele>195.0</ele><time>2026-04-03T09:36:36.745Z</time></trkpt><trkpt lat="43.2579858" lon="11.3604773"><ele>195.0</ele><time>2026-04-03T09:36:37.745Z</time></trkpt><trkpt lat="43.25787" lon="11.3604091"><ele>195.0</ele><time>2026-04-03T09:36:38.744Z</time></trkpt><trkpt lat="43.2577436" lon="11.3603442"><ele>195.0</ele><time>2026-04-03T09:36:39.745Z</time></trkpt><trkpt lat="43.2575979" lon="11.360276"><ele>195.0</ele><time>2026-04-03T09:36:40.744Z</time></trkpt><trkpt lat="43.2574512" lon="11.3602144"><ele>195.0</ele><time>2026-04-03T09:36:41.745Z</time></trkpt><trkpt lat="43.2573199" lon="11.3601635"><ele>195.0</ele><time>2026-04-03T09:36:42.745Z</time></trkpt><trkpt lat="43.2571969" lon="11.3601238"><ele>196.0</ele><time>2026-04-03T09:36:43.744Z</time></trkpt><trkpt lat="43.2570702" lon="11.3601047"><ele>197.0</ele><time>2026-04-03T09:36:44.744Z</time></trkpt><trkpt lat="43.2569324" lon="11.3601023"><ele>198.0</ele><time>2026-04-03T09:36:45.745Z</time></trkpt><trkpt lat="43.2567727" lon="11.3601043"><ele>199.0</ele><time>2026-04-03T09:36:46.745Z</time></trkpt><trkpt lat="43.2566015" lon="11.3601238"><ele>200.0</ele><time>2026-04-03T09:36:47.745Z</time></trkpt><trkpt lat="43.2564454" lon="11.3601594"><ele>201.0</ele><time>2026-04-03T09:36:48.744Z</time></trkpt><trkpt lat="43.256311" lon="11.3601927"><ele>202.0</ele><time>2026-04-03T09:36:49.745Z</time></trkpt><trkpt lat="43.2561887" lon="11.3602334"><ele>203.0</ele><time>2026-04-03T09:36:50.745Z</time></trkpt><trkpt lat="43.2560582" lon="11.3603003"><ele>203.0</ele><time>2026-04-03T09:36:51.744Z</time></trkpt><trkpt lat="43.25591" lon="11.360402"><ele>203.0</ele><time>2026-04-03T09:36:52.745Z</time></trkpt><trkpt lat="43.2557521" lon="11.3605104"><ele>203.0</ele><time>2026-04-03T09:36:53.745Z</time></trkpt><trkpt lat="43.2555997" lon="11.3606202"><ele>206.66666666666669</ele><time>2026-04-03T09:36:54.744Z</time></trkpt><trkpt lat="43.2554566" lon="11.360724"><ele>210.33333333333331</ele><time>2026-04-03T09:36:55.745Z</time></trkpt><trkpt lat="43.2553233" lon="11.3608424"><ele>214.0</ele><time>2026-04-03T09:36:56.745Z</time></trkpt><trkpt lat="43.2551973" lon="11.3609973"><ele>214.0</ele><time>2026-04-03T09:36:57.744Z</time></trkpt><trkpt lat="43.255077" lon="11.3611808"><ele>214.0</ele><time>2026-04-03T09:36:58.745Z</time></trkpt><trkpt lat="43.2549548" lon="11.3614019"><ele>214.0</ele><time>2026-04-03T09:36:59.745Z</time></trkpt><trkpt lat="43.2548329" lon="11.361621"><ele>216.75</ele><time>2026-04-03T09:37:00.745Z</time></trkpt><trkpt lat="43.2547239" lon="11.3617978"><ele>219.5</ele><time>2026-04-03T09:37:01.745Z</time></trkpt><trkpt lat="43.2546298" lon="11.3619453"><ele>222.25</ele><time>2026-04-03T09:37:02.745Z</time></trkpt><trkpt lat="43.2545328" lon="11.3620678"><ele>225.0</ele><time>2026-04-03T09:37:03.745Z</time></trkpt><trkpt lat="43.254427" lon="11.3621653"><ele>225.0</ele><time>2026-04-03T09:37:04.745Z</time></trkpt><trkpt lat="43.2543101" lon="11.3622431"><ele>225.0</ele><time>2026-04-03T09:37:05.745Z</time></trkpt><trkpt lat="43.2541771" lon="11.3623108"><ele>225.0</ele><time>2026-04-03T09:37:06.744Z</time></trkpt><trkpt lat="43.2540211" lon="11.3623623"><ele>225.0</ele><time>2026-04-03T09:37:07.745Z</time></trkpt><trkpt lat="43.2538548" lon="11.3623986"><ele>225.0</ele><time>2026-04-03T09:37:08.744Z</time></trkpt><trkpt lat="43.2536781" lon="11.3624271"><ele>225.0</ele><time>2026-04-03T09:37:09.745Z</time></trkpt><trkpt lat="43.2534966" lon="11.3624627"><ele>225.0</ele><time>2026-04-03T09:37:10.744Z</time></trkpt><trkpt lat="43.2533106" lon="11.3625222"><ele>226.0</ele><time>2026-04-03T09:37:11.745Z</time></trkpt><trkpt lat="43.2531133" lon="11.3626031"><ele>227.0</ele><time>2026-04-03T09:37:12.745Z</time></trkpt><trkpt lat="43.2529243" lon="11.3626914"><ele>228.0</ele><time>2026-04-03T09:37:13.745Z</time></trkpt><trkpt lat="43.2527629" lon="11.3627813"><ele>228.0</ele><time>2026-04-03T09:37:14.745Z</time></trkpt><trkpt lat="43.2526338" lon="11.3628684"><ele>228.0</ele><time>2026-04-03T09:37:15.744Z</time></trkpt><trkpt lat="43.2525211" lon="11.3629553"><ele>228.0</ele><time>2026-04-03T09:37:16.745Z</time></trkpt><trkpt lat="43.252416" lon="11.3630528"><ele>228.0</ele><time>2026-04-03T09:37:17.744Z</time></trkpt><trkpt lat="43.2523082" lon="11.3631647"><ele>229.0</ele><time>2026-04-03T09:37:18.744Z</time></trkpt><trkpt lat="43.252203" lon="11.3632794"><ele>230.0</ele><time>2026-04-03T09:37:19.744Z</time></trkpt><trkpt lat="43.2521103" lon="11.3633713"><ele>231.0</ele><time>2026-04-03T09:37:20.744Z</time></trkpt><trkpt lat="43.252029" lon="11.3634492"><ele>232.0</ele><time>2026-04-03T09:37:21.744Z</time></trkpt><trkpt lat="43.2519502" lon="11.3635106"><ele>233.0</ele><time>2026-04-03T09:37:22.744Z</time></trkpt><trkpt lat="43.2518634" lon="11.3635604"><ele>233.0</ele><time>2026-04-03T09:37:23.745Z</time></trkpt><trkpt lat="43.2517559" lon="11.3635979"><ele>233.0</ele><time>2026-04-03T09:37:24.744Z</time></trkpt><trkpt lat="43.2516453" lon="11.3636164"><ele>233.0</ele><time>2026-04-03T09:37:25.744Z</time></trkpt><trkpt lat="43.2515414" lon="11.3636194"><ele>233.0</ele><time>2026-04-03T09:37:26.745Z</time></trkpt><trkpt lat="43.2514423" lon="11.3636064"><ele>233.0</ele><time>2026-04-03T09:37:27.745Z</time></trkpt><trkpt lat="43.251348" lon="11.3635891"><ele>231.0</ele><time>2026-04-03T09:37:28.745Z</time></trkpt><trkpt lat="43.2512422" lon="11.3635576"><ele>229.0</ele><time>2026-04-03T09:37:29.745Z</time></trkpt><trkpt lat="43.2511182" lon="11.3635133"><ele>227.0</ele><time>2026-04-03T09:37:30.744Z</time></trkpt><trkpt lat="43.2509725" lon="11.363446"><ele>225.0</ele><time>2026-04-03T09:37:31.745Z</time></trkpt><trkpt lat="43.2508012" lon="11.3633808"><ele>224.33333333333331</ele><time>2026-04-03T09:37:32.744Z</time></trkpt><trkpt lat="43.2506068" lon="11.3633222"><ele>223.66666666666666</ele><time>2026-04-03T09:37:33.745Z</time></trkpt><trkpt lat="43.2503995" lon="11.3632716"><ele>223.0</ele><time>2026-04-03T09:37:34.745Z</time></trkpt><trkpt lat="43.2502102" lon="11.3632187"><ele>223.0</ele><time>2026-04-03T09:37:35.745Z</time></trkpt><trkpt lat="43.2500467" lon="11.3631647"><ele>223.0</ele><time>2026-04-03T09:37:36.745Z</time></trkpt><trkpt lat="43.2498986" lon="11.3631223"><ele>223.0</ele><time>2026-04-03T09:37:37.745Z</time></trkpt><trkpt lat="43.24976" lon="11.3630941"><ele>224.25</ele><time>2026-04-03T09:37:38.745Z</time></trkpt><trkpt lat="43.2496261" lon="11.3630919"><ele>225.5</ele><time>2026-04-03T09:37:39.745Z</time></trkpt><trkpt lat="43.2494875" lon="11.3631116"><ele>226.75</ele><time>2026-04-03T09:37:40.745Z</time></trkpt><trkpt lat="43.2493559" lon="11.3631647"><ele>228.0</ele><time>2026-04-03T09:37:41.745Z</time></trkpt><trkpt lat="43.2492191" lon="11.3632466"><ele>228.0</ele><time>2026-04-03T09:37:42.743Z</time></trkpt><trkpt lat="43.2490852" lon="11.3633606"><ele>228.0</ele><time>2026-04-03T09:37:43.744Z</time></trkpt><trkpt lat="43.2489651" lon="11.3634983"><ele>228.0</ele><time>2026-04-03T09:37:44.743Z</time></trkpt><trkpt lat="43.2488412" lon="11.3636629"><ele>228.0</ele><time>2026-04-03T09:37:45.743Z</time></trkpt><trkpt lat="43.2487041" lon="11.3638604"><ele>228.0</ele><time>2026-04-03T09:37:46.744Z</time></trkpt><trkpt lat="43.2485812" lon="11.3640334"><ele>228.0</ele><time>2026-04-03T09:37:47.744Z</time></trkpt><trkpt lat="43.2484899" lon="11.3641677"><ele>227.8</ele><time>2026-04-03T09:37:48.744Z</time></trkpt><trkpt lat="43.2484158" lon="11.36428"><ele>227.60000000000002</ele><time>2026-04-03T09:37:49.744Z</time></trkpt><trkpt lat="43.248358" lon="11.3643891"><ele>227.39999999999998</ele><time>2026-04-03T09:37:50.744Z</time></trkpt><trkpt lat="43.2483205" lon="11.3645182"><ele>227.2</ele><time>2026-04-03T09:37:51.743Z</time></trkpt><trkpt lat="43.248289" lon="11.3646701"><ele>227.0</ele><time>2026-04-03T09:37:52.744Z</time></trkpt><trkpt lat="43.2482719" lon="11.364861"><ele>226.5</ele><time>2026-04-03T09:37:53.743Z</time></trkpt><trkpt lat="43.2482732" lon="11.3650677"><ele>226.0</ele><time>2026-04-03T09:37:54.744Z</time></trkpt><trkpt lat="43.2482648" lon="11.3652258"><ele>225.5</ele><time>2026-04-03T09:37:55.744Z</time></trkpt><trkpt lat="43.2482288" lon="11.3653536"><ele>225.0</ele><time>2026-04-03T09:37:56.744Z</time></trkpt><trkpt lat="43.2481778" lon="11.3654758"><ele>224.5</ele><time>2026-04-03T09:37:57.744Z</time></trkpt><trkpt lat="43.2480882" lon="11.3656153"><ele>224.0</ele><time>2026-04-03T09:37:58.744Z</time></trkpt><trkpt lat="43.2479958" lon="11.3657463"><ele>223.5</ele><time>2026-04-03T09:37:59.744Z</time></trkpt><trkpt lat="43.247916" lon="11.3658511"><ele>223.0</ele><time>2026-04-03T09:38:00.744Z</time></trkpt><trkpt lat="43.2478459" lon="11.365919"><ele>223.0</ele><time>2026-04-03T09:38:01.744Z</time></trkpt><trkpt lat="43.2477669" lon="11.365987"><ele>223.0</ele><time>2026-04-03T09:38:02.743Z</time></trkpt><trkpt lat="43.2476603" lon="11.3660357"><ele>223.0</ele><time>2026-04-03T09:38:03.743Z</time></trkpt><trkpt lat="43.2475171" lon="11.3660718"><ele>223.0</ele><time>2026-04-03T09:38:04.744Z</time></trkpt><trkpt lat="43.247347" lon="11.3661145"><ele>222.33333333333331</ele><time>2026-04-03T09:38:05.744Z</time></trkpt><trkpt lat="43.247156" lon="11.3661636"><ele>221.66666666666669</ele><time>2026-04-03T09:38:06.744Z</time></trkpt><trkpt lat="43.2469638" lon="11.3662258"><ele>221.0</ele><time>2026-04-03T09:38:07.744Z</time></trkpt><trkpt lat="43.2467836" lon="11.3662961"><ele>221.5</ele><time>2026-04-03T09:38:08.744Z</time></trkpt><trkpt lat="43.2466272" lon="11.3663702"><ele>222.0</ele><time>2026-04-03T09:38:09.743Z</time></trkpt><trkpt lat="43.246488" lon="11.3664525"><ele>222.5</ele><time>2026-04-03T09:38:10.744Z</time></trkpt><trkpt lat="43.2463678" lon="11.3665254"><ele>223.0</ele><time>2026-04-03T09:38:11.743Z</time></trkpt><trkpt lat="43.2462771" lon="11.3665912"><ele>223.16666666666666</ele><time>2026-04-03T09:38:12.744Z</time></trkpt><trkpt lat="43.2462083" lon="11.3666399"><ele>223.33333333333331</ele><time>2026-04-03T09:38:13.743Z</time></trkpt><trkpt lat="43.246128" lon="11.3667076"><ele>223.5</ele><time>2026-04-03T09:38:15.743Z</time></trkpt><trkpt lat="43.2461834" lon="11.3666426"><ele>223.66666666666669</ele><time>2026-04-03T09:39:19.744Z</time></trkpt><trkpt lat="43.2462384" lon="11.3665918"><ele>223.83333333333334</ele><time>2026-04-03T09:39:20.743Z</time></trkpt><trkpt lat="43.2463038" lon="11.3665428"><ele>224.0</ele><time>2026-04-03T09:39:21.744Z</time></trkpt><trkpt lat="43.2463948" lon="11.3664774"><ele>223.75</ele><time>2026-04-03T09:39:22.744Z</time></trkpt><trkpt lat="43.2465058" lon="11.3664102"><ele>223.5</ele><time>2026-04-03T09:39:23.744Z</time></trkpt><trkpt lat="43.2466364" lon="11.3663416"><ele>223.25</ele><time>2026-04-03T09:39:24.744Z</time></trkpt><trkpt lat="43.2467798" lon="11.3662793"><ele>223.0</ele><time>2026-04-03T09:39:25.743Z</time></trkpt><trkpt lat="43.2469338" lon="11.3662267"><ele>223.0</ele><time>2026-04-03T09:39:26.743Z</time></trkpt><trkpt lat="43.2471064" lon="11.3661726"><ele>223.0</ele><time>2026-04-03T09:39:27.744Z</time></trkpt><trkpt lat="43.2472823" lon="11.3661296"><ele>223.0</ele><time>2026-04-03T09:39:28.744Z</time></trkpt><trkpt lat="43.2474339" lon="11.3660967"><ele>223.0</ele><time>2026-04-03T09:39:29.744Z</time></trkpt><trkpt lat="43.2475703" lon="11.3660571"><ele>223.0</ele><time>2026-04-03T09:39:30.744Z</time></trkpt><trkpt lat="43.247685" lon="11.3660113"><ele>223.0</ele><time>2026-04-03T09:39:31.743Z</time></trkpt><trkpt lat="43.2477903" lon="11.3659502"><ele>223.0</ele><time>2026-04-03T09:39:32.744Z</time></trkpt><trkpt lat="43.2478886" lon="11.3658751"><ele>223.0</ele><time>2026-04-03T09:39:33.743Z</time></trkpt><trkpt lat="43.247988" lon="11.3657609"><ele>223.0</ele><time>2026-04-03T09:39:34.743Z</time></trkpt><trkpt lat="43.24808" lon="11.3656273"><ele>223.0</ele><time>2026-04-03T09:39:35.744Z</time></trkpt><trkpt lat="43.2481506" lon="11.3655072"><ele>223.0</ele><time>2026-04-03T09:39:36.744Z</time></trkpt><trkpt lat="43.2481958" lon="11.3653816"><ele>223.4</ele><time>2026-04-03T09:39:37.744Z</time></trkpt><trkpt lat="43.2482361" lon="11.3652497"><ele>223.8</ele><time>2026-04-03T09:39:38.743Z</time></trkpt><trkpt lat="43.2482588" lon="11.3651187"><ele>224.2</ele><time>2026-04-03T09:39:39.743Z</time></trkpt><trkpt lat="43.2482634" lon="11.3649812"><ele>224.6</ele><time>2026-04-03T09:39:40.744Z</time></trkpt><trkpt lat="43.2482632" lon="11.3648446"><ele>225.0</ele><time>2026-04-03T09:39:41.744Z</time></trkpt><trkpt lat="43.248267" lon="11.3647224"><ele>225.33333333333334</ele><time>2026-04-03T09:39:42.744Z</time></trkpt><trkpt lat="43.2482824" lon="11.3646195"><ele>225.66666666666669</ele><time>2026-04-03T09:39:43.744Z</time></trkpt><trkpt lat="43.248307" lon="11.3645324"><ele>226.0</ele><time>2026-04-03T09:39:44.744Z</time></trkpt><trkpt lat="43.2483356" lon="11.3644513"><ele>226.33333333333334</ele><time>2026-04-03T09:39:45.744Z</time></trkpt><trkpt lat="43.24838" lon="11.3643663"><ele>226.66666666666669</ele><time>2026-04-03T09:39:47.744Z</time></trkpt><trkpt lat="43.2483089" lon="11.3644862"><ele>227.0</ele><time>2026-04-03T09:40:01.744Z</time></trkpt><trkpt lat="43.2482834" lon="11.3645849"><ele>226.5</ele><time>2026-04-03T09:40:02.744Z</time></trkpt><trkpt lat="43.2482645" lon="11.3647242"><ele>226.0</ele><time>2026-04-03T09:40:03.743Z</time></trkpt><trkpt lat="43.2482578" lon="11.3649089"><ele>225.5</ele><time>2026-04-03T09:40:04.744Z</time></trkpt><trkpt lat="43.2482572" lon="11.3650915"><ele>225.0</ele><time>2026-04-03T09:40:05.744Z</time></trkpt><trkpt lat="43.2482425" lon="11.3652539"><ele>225.0</ele><time>2026-04-03T09:40:06.743Z</time></trkpt><trkpt lat="43.2481942" lon="11.365406"><ele>225.0</ele><time>2026-04-03T09:40:07.744Z</time></trkpt><trkpt lat="43.2481258" lon="11.3655564"><ele>225.0</ele><time>2026-04-03T09:40:08.743Z</time></trkpt><trkpt lat="43.2480412" lon="11.3657034"><ele>225.0</ele><time>2026-04-03T09:40:09.743Z</time></trkpt><trkpt lat="43.2479351" lon="11.3658331"><ele>224.33333333333331</ele><time>2026-04-03T09:40:10.744Z</time></trkpt><trkpt lat="43.2478106" lon="11.3659506"><ele>223.66666666666666</ele><time>2026-04-03T09:40:11.743Z</time></trkpt><trkpt lat="43.2476701" lon="11.366026"><ele>223.0</ele><time>2026-04-03T09:40:12.744Z</time></trkpt><trkpt lat="43.247509" lon="11.3660951"><ele>223.0</ele><time>2026-04-03T09:40:13.744Z</time></trkpt><trkpt lat="43.2473181" lon="11.3661503"><ele>223.0</ele><time>2026-04-03T09:40:14.743Z</time></trkpt><trkpt lat="43.2471132" lon="11.3662091"><ele>223.0</ele><time>2026-04-03T09:40:15.743Z</time></trkpt><trkpt lat="43.2469066" lon="11.3662679"><ele>223.0</ele><time>2026-04-03T09:40:16.744Z</time></trkpt><trkpt lat="43.2467054" lon="11.3663428"><ele>223.0</ele><time>2026-04-03T09:40:17.744Z</time></trkpt><trkpt lat="43.2465257" lon="11.3664265"><ele>223.0</ele><time>2026-04-03T09:40:18.743Z</time></trkpt><trkpt lat="43.2463718" lon="11.3665235"><ele>223.33333333333331</ele><time>2026-04-03T09:40:19.743Z</time></trkpt><trkpt lat="43.2462306" lon="11.3666346"><ele>223.66666666666669</ele><time>2026-04-03T09:40:20.744Z</time></trkpt><trkpt lat="43.2460864" lon="11.3667751"><ele>224.0</ele><time>2026-04-03T09:40:21.743Z</time></trkpt><trkpt lat="43.2459237" lon="11.3669419"><ele>224.0</ele><time>2026-04-03T09:40:22.743Z</time></trkpt><trkpt lat="43.2457622" lon="11.367104"><ele>224.0</ele><time>2026-04-03T09:40:23.743Z</time></trkpt><trkpt lat="43.2455965" lon="11.3672489"><ele>224.0</ele><time>2026-04-03T09:40:24.744Z</time></trkpt><trkpt lat="43.2454295" lon="11.3673552"><ele>222.66666666666669</ele><time>2026-04-03T09:40:25.743Z</time></trkpt><trkpt lat="43.2452733" lon="11.3674396"><ele>221.33333333333331</ele><time>2026-04-03T09:40:26.744Z</time></trkpt><trkpt lat="43.2451055" lon="11.3675027"><ele>220.0</ele><time>2026-04-03T09:40:27.744Z</time></trkpt><trkpt lat="43.2449088" lon="11.3675618"><ele>221.0</ele><time>2026-04-03T09:40:28.743Z</time></trkpt><trkpt lat="43.2447231" lon="11.3676189"><ele>222.0</ele><time>2026-04-03T09:40:29.743Z</time></trkpt><trkpt lat="43.2445588" lon="11.367661"><ele>223.0</ele><time>2026-04-03T09:40:30.744Z</time></trkpt><trkpt lat="43.2444012" lon="11.3677091"><ele>223.0</ele><time>2026-04-03T09:40:31.743Z</time></trkpt><trkpt lat="43.2442644" lon="11.3677491"><ele>223.0</ele><time>2026-04-03T09:40:32.744Z</time></trkpt><trkpt lat="43.2441448" lon="11.3677922"><ele>223.0</ele><time>2026-04-03T09:40:33.743Z</time></trkpt><trkpt lat="43.2440391" lon="11.3678294"><ele>223.0</ele><time>2026-04-03T09:40:34.743Z</time></trkpt><trkpt lat="43.2439586" lon="11.367844"><ele>223.0</ele><time>2026-04-03T09:40:35.744Z</time></trkpt><trkpt lat="43.2438957" lon="11.3678609"><ele>223.0</ele><time>2026-04-03T09:40:36.743Z</time></trkpt><trkpt lat="43.2437988" lon="11.3678869"><ele>223.0</ele><time>2026-04-03T09:40:38.743Z</time></trkpt><trkpt lat="43.2439207" lon="11.3678618"><ele>223.0</ele><time>2026-04-03T09:40:48.744Z</time></trkpt><trkpt lat="43.2440404" lon="11.3678143"><ele>223.0</ele><time>2026-04-03T09:40:49.744Z</time></trkpt><trkpt lat="43.2441802" lon="11.3677605"><ele>223.0</ele><time>2026-04-03T09:40:50.744Z</time></trkpt><trkpt lat="43.2443709" lon="11.3677029"><ele>223.0</ele><time>2026-04-03T09:40:51.744Z</time></trkpt><trkpt lat="43.2445749" lon="11.3676353"><ele>223.0</ele><time>2026-04-03T09:40:52.744Z</time></trkpt><trkpt lat="43.2447654" lon="11.3675719"><ele>222.0</ele><time>2026-04-03T09:40:53.744Z</time></trkpt><trkpt lat="43.2449441" lon="11.3675146"><ele>221.0</ele><time>2026-04-03T09:40:54.743Z</time></trkpt><trkpt lat="43.2451025" lon="11.3674655"><ele>220.0</ele><time>2026-04-03T09:40:55.744Z</time></trkpt><trkpt lat="43.2452523" lon="11.3674079"><ele>220.0</ele><time>2026-04-03T09:40:56.743Z</time></trkpt><trkpt lat="43.2454004" lon="11.3673406"><ele>220.0</ele><time>2026-04-03T09:40:57.744Z</time></trkpt><trkpt lat="43.2455441" lon="11.3672538"><ele>220.0</ele><time>2026-04-03T09:40:58.743Z</time></trkpt><trkpt lat="43.2456742" lon="11.3671558"><ele>220.8</ele><time>2026-04-03T09:40:59.743Z</time></trkpt><trkpt lat="43.2457814" lon="11.3670606"><ele>221.6</ele><time>2026-04-03T09:41:00.743Z</time></trkpt><trkpt lat="43.2458749" lon="11.3669728"><ele>222.39999999999998</ele><time>2026-04-03T09:41:01.744Z</time></trkpt><trkpt lat="43.2459526" lon="11.3668951"><ele>223.2</ele><time>2026-04-03T09:41:02.743Z</time></trkpt><trkpt lat="43.2460118" lon="11.3668268"><ele>224.0</ele><time>2026-04-03T09:41:03.744Z</time></trkpt><trkpt lat="43.2460751" lon="11.3667647"><ele>224.00000000000003</ele><time>2026-04-03T09:41:04.744Z</time></trkpt><trkpt lat="43.2461381" lon="11.3666999"><ele>224.0</ele><time>2026-04-03T09:41:05.744Z</time></trkpt><trkpt lat="43.2461969" lon="11.3666493"><ele>224.0</ele><time>2026-04-03T09:41:06.744Z</time></trkpt><trkpt lat="43.2462647" lon="11.366592"><ele>224.0</ele><time>2026-04-03T09:41:08.744Z</time></trkpt><trkpt lat="43.2461893" lon="11.3666165"><ele>224.00000000000003</ele><time>2026-04-03T09:42:58.743Z</time></trkpt><trkpt lat="43.2461379" lon="11.3666884"><ele>224.0</ele><time>2026-04-03T09:43:01.743Z</time></trkpt><trkpt lat="43.2460596" lon="11.3667899"><ele>224.0</ele><time>2026-04-03T09:43:13.744Z</time></trkpt><trkpt lat="43.2460011" lon="11.3668547"><ele>223.99999999999997</ele><time>2026-04-03T09:43:14.743Z</time></trkpt><trkpt lat="43.2459325" lon="11.3669372"><ele>223.99999999999997</ele><time>2026-04-03T09:43:15.743Z</time></trkpt><trkpt lat="43.2458406" lon="11.3670307"><ele>224.0</ele><time>2026-04-03T09:43:16.742Z</time></trkpt><trkpt lat="43.2457284" lon="11.3671332"><ele>224.0</ele><time>2026-04-03T09:43:17.742Z</time></trkpt><trkpt lat="43.2455976" lon="11.3672423"><ele>222.66666666666669</ele><time>2026-04-03T09:43:18.743Z</time></trkpt><trkpt lat="43.2454416" lon="11.3673378"><ele>221.33333333333331</ele><time>2026-04-03T09:43:19.743Z</time></trkpt><trkpt lat="43.2452595" lon="11.3674182"><ele>220.0</ele><time>2026-04-03T09:43:20.743Z</time></trkpt><trkpt lat="43.2450557" lon="11.3674814"><ele>220.0</ele><time>2026-04-03T09:43:21.743Z</time></trkpt><trkpt lat="43.244849" lon="11.3675445"><ele>220.0</ele><time>2026-04-03T09:43:22.742Z</time></trkpt><trkpt lat="43.2446597" lon="11.3676108"><ele>220.0</ele><time>2026-04-03T09:43:23.742Z</time></trkpt><trkpt lat="43.2444813" lon="11.3676745"><ele>221.0</ele><time>2026-04-03T09:43:24.743Z</time></trkpt><trkpt lat="43.2443081" lon="11.3677372"><ele>222.0</ele><time>2026-04-03T09:43:25.743Z</time></trkpt><trkpt lat="43.2441401" lon="11.3677914"><ele>223.0</ele><time>2026-04-03T09:43:26.742Z</time></trkpt><trkpt lat="43.2439812" lon="11.3678414"><ele>223.75</ele><time>2026-04-03T09:43:27.743Z</time></trkpt><trkpt lat="43.2438487" lon="11.3678879"><ele>224.5</ele><time>2026-04-03T09:43:28.743Z</time></trkpt><trkpt lat="43.2437267" lon="11.3679267"><ele>225.25</ele><time>2026-04-03T09:43:29.743Z</time></trkpt><trkpt lat="43.2436173" lon="11.3679548"><ele>226.0</ele><time>2026-04-03T09:43:30.743Z</time></trkpt><trkpt lat="43.2434996" lon="11.3679735"><ele>226.0</ele><time>2026-04-03T09:43:31.743Z</time></trkpt><trkpt lat="43.2433843" lon="11.3679931"><ele>226.00000000000003</ele><time>2026-04-03T09:43:32.743Z</time></trkpt><trkpt lat="43.2432749" lon="11.3680167"><ele>226.00000000000003</ele><time>2026-04-03T09:43:33.743Z</time></trkpt><trkpt lat="43.2431752" lon="11.3680428"><ele>226.0</ele><time>2026-04-03T09:43:34.743Z</time></trkpt><trkpt lat="43.2430795" lon="11.368079"><ele>226.0</ele><time>2026-04-03T09:43:35.743Z</time></trkpt><trkpt lat="43.2429814" lon="11.3681193"><ele>225.0</ele><time>2026-04-03T09:43:36.742Z</time></trkpt><trkpt lat="43.2428707" lon="11.3681754"><ele>224.0</ele><time>2026-04-03T09:43:37.743Z</time></trkpt><trkpt lat="43.2427589" lon="11.36825"><ele>223.0</ele><time>2026-04-03T09:43:38.743Z</time></trkpt><trkpt lat="43.2426393" lon="11.3683474"><ele>222.0</ele><time>2026-04-03T09:43:39.743Z</time></trkpt><trkpt lat="43.2425092" lon="11.3684807"><ele>222.0</ele><time>2026-04-03T09:43:40.742Z</time></trkpt><trkpt lat="43.2423542" lon="11.3686675"><ele>222.0</ele><time>2026-04-03T09:43:41.742Z</time></trkpt><trkpt lat="43.2421914" lon="11.3688742"><ele>222.0</ele><time>2026-04-03T09:43:42.742Z</time></trkpt><trkpt lat="43.2420511" lon="11.3690685"><ele>221.33333333333331</ele><time>2026-04-03T09:43:43.742Z</time></trkpt><trkpt lat="43.2419223" lon="11.3692392"><ele>220.66666666666666</ele><time>2026-04-03T09:43:44.743Z</time></trkpt><trkpt lat="43.2417987" lon="11.3693909"><ele>220.0</ele><time>2026-04-03T09:43:45.742Z</time></trkpt><trkpt lat="43.241671" lon="11.3695419"><ele>219.0</ele><time>2026-04-03T09:43:46.742Z</time></trkpt><trkpt lat="43.2415339" lon="11.3696959"><ele>218.0</ele><time>2026-04-03T09:43:47.743Z</time></trkpt><trkpt lat="43.2413882" lon="11.3698622"><ele>217.0</ele><time>2026-04-03T09:43:48.743Z</time></trkpt><trkpt lat="43.2412324" lon="11.3700201"><ele>216.33333333333331</ele><time>2026-04-03T09:43:49.742Z</time></trkpt><trkpt lat="43.2410813" lon="11.3701649"><ele>215.66666666666669</ele><time>2026-04-03T09:43:50.742Z</time></trkpt><trkpt lat="43.2409377" lon="11.3702931"><ele>215.0</ele><time>2026-04-03T09:43:51.743Z</time></trkpt><trkpt lat="43.2408122" lon="11.3704034"><ele>215.0</ele><time>2026-04-03T09:43:52.743Z</time></trkpt><trkpt lat="43.240713" lon="11.3705088"><ele>215.0</ele><time>2026-04-03T09:43:53.742Z</time></trkpt><trkpt lat="43.2406246" lon="11.3705998"><ele>215.0</ele><time>2026-04-03T09:43:54.743Z</time></trkpt><trkpt lat="43.2405622" lon="11.3706831"><ele>215.0</ele><time>2026-04-03T09:43:55.742Z</time></trkpt><trkpt lat="43.2405048" lon="11.3707449"><ele>215.0</ele><time>2026-04-03T09:43:57.742Z</time></trkpt><trkpt lat="43.2404552" lon="11.370822"><ele>215.4</ele><time>2026-04-03T09:44:02.742Z</time></trkpt><trkpt lat="43.2403931" lon="11.3709047"><ele>215.8</ele><time>2026-04-03T09:44:05.742Z</time></trkpt><trkpt lat="43.2403421" lon="11.371003"><ele>216.2</ele><time>2026-04-03T09:44:07.742Z</time></trkpt><trkpt lat="43.2402659" lon="11.3711442"><ele>216.6</ele><time>2026-04-03T09:44:09.742Z</time></trkpt><trkpt lat="43.240217" lon="11.3712209"><ele>217.0</ele><time>2026-04-03T09:44:10.743Z</time></trkpt><trkpt lat="43.2401637" lon="11.371312"><ele>216.39999999999998</ele><time>2026-04-03T09:44:11.743Z</time></trkpt><trkpt lat="43.2401075" lon="11.3714176"><ele>215.79999999999998</ele><time>2026-04-03T09:44:12.743Z</time></trkpt><trkpt lat="43.2400427" lon="11.3715316"><ele>215.2</ele><time>2026-04-03T09:44:13.743Z</time></trkpt><trkpt lat="43.2399786" lon="11.3716469"><ele>214.6</ele><time>2026-04-03T09:44:14.742Z</time></trkpt><trkpt lat="43.2399202" lon="11.3717567"><ele>214.0</ele><time>2026-04-03T09:44:15.742Z</time></trkpt><trkpt lat="43.2398675" lon="11.3718645"><ele>213.99999999999997</ele><time>2026-04-03T09:44:16.743Z</time></trkpt><trkpt lat="43.2398184" lon="11.3719623"><ele>214.0</ele><time>2026-04-03T09:44:17.742Z</time></trkpt><trkpt lat="43.2397738" lon="11.3720517"><ele>214.0</ele><time>2026-04-03T09:44:18.743Z</time></trkpt><trkpt lat="43.2397327" lon="11.3721366"><ele>214.0</ele><time>2026-04-03T09:44:19.742Z</time></trkpt><trkpt lat="43.2396942" lon="11.3722192"><ele>213.99999999999997</ele><time>2026-04-03T09:44:20.743Z</time></trkpt><trkpt lat="43.2396573" lon="11.3723154"><ele>214.0</ele><time>2026-04-03T09:44:21.742Z</time></trkpt><trkpt lat="43.2396183" lon="11.3723947"><ele>213.83333333333331</ele><time>2026-04-03T09:44:22.743Z</time></trkpt><trkpt lat="43.2395793" lon="11.3724776"><ele>213.66666666666666</ele><time>2026-04-03T09:44:23.742Z</time></trkpt><trkpt lat="43.2395358" lon="11.3725528"><ele>213.5</ele><time>2026-04-03T09:44:24.742Z</time></trkpt><trkpt lat="43.2394805" lon="11.3726118"><ele>213.33333333333331</ele><time>2026-04-03T09:44:25.743Z</time></trkpt><trkpt lat="43.2394112" lon="11.3726518"><ele>213.16666666666666</ele><time>2026-04-03T09:44:26.742Z</time></trkpt><trkpt lat="43.2393322" lon="11.3726752"><ele>213.0</ele><time>2026-04-03T09:44:27.742Z</time></trkpt><trkpt lat="43.2392457" lon="11.3726868"><ele>213.0</ele><time>2026-04-03T09:44:28.742Z</time></trkpt><trkpt lat="43.2391582" lon="11.3726904"><ele>213.0</ele><time>2026-04-03T09:44:29.743Z</time></trkpt><trkpt lat="43.2390673" lon="11.3726847"><ele>213.0</ele><time>2026-04-03T09:44:30.742Z</time></trkpt><trkpt lat="43.2389759" lon="11.3726814"><ele>213.0</ele><time>2026-04-03T09:44:31.743Z</time></trkpt><trkpt lat="43.2388792" lon="11.3726856"><ele>213.0</ele><time>2026-04-03T09:44:32.743Z</time></trkpt><trkpt lat="43.2387731" lon="11.3727087"><ele>213.0</ele><time>2026-04-03T09:44:33.743Z</time></trkpt><trkpt lat="43.2386626" lon="11.3727578"><ele>213.0</ele><time>2026-04-03T09:44:34.743Z</time></trkpt><trkpt lat="43.2385637" lon="11.3728029"><ele>213.0</ele><time>2026-04-03T09:44:35.743Z</time></trkpt><trkpt lat="43.2384723" lon="11.3728651"><ele>213.0</ele><time>2026-04-03T09:44:36.743Z</time></trkpt><trkpt lat="43.2383943" lon="11.3729297"><ele>213.0</ele><time>2026-04-03T09:44:37.742Z</time></trkpt><trkpt lat="43.2383309" lon="11.3729932"><ele>211.4</ele><time>2026-04-03T09:44:38.743Z</time></trkpt><trkpt lat="43.2382831" lon="11.3730713"><ele>209.8</ele><time>2026-04-03T09:44:39.742Z</time></trkpt><trkpt lat="43.2382413" lon="11.3732234"><ele>208.2</ele><time>2026-04-03T09:44:41.743Z</time></trkpt><trkpt lat="43.238241" lon="11.3734006"><ele>206.6</ele><time>2026-04-03T09:44:43.742Z</time></trkpt><trkpt lat="43.2382429" lon="11.3734955"><ele>205.0</ele><time>2026-04-03T09:44:44.743Z</time></trkpt><trkpt lat="43.2382472" lon="11.3735978"><ele>204.99999999999997</ele><time>2026-04-03T09:44:45.742Z</time></trkpt><trkpt lat="43.2382566" lon="11.3737041"><ele>205.0</ele><time>2026-04-03T09:44:46.743Z</time></trkpt><trkpt lat="43.2382614" lon="11.3738123"><ele>205.0</ele><time>2026-04-03T09:44:47.742Z</time></trkpt><trkpt lat="43.2382684" lon="11.373923"><ele>205.0</ele><time>2026-04-03T09:44:48.742Z</time></trkpt><trkpt lat="43.238276" lon="11.3740394"><ele>204.99999999999997</ele><time>2026-04-03T09:44:49.743Z</time></trkpt><trkpt lat="43.2382846" lon="11.3741545"><ele>205.0</ele><time>2026-04-03T09:44:50.743Z</time></trkpt><trkpt lat="43.2382939" lon="11.3742706"><ele>204.83333333333331</ele><time>2026-04-03T09:44:51.743Z</time></trkpt><trkpt lat="43.2383031" lon="11.3743892"><ele>204.66666666666666</ele><time>2026-04-03T09:44:52.742Z</time></trkpt><trkpt lat="43.2383073" lon="11.3745071"><ele>204.5</ele><time>2026-04-03T09:44:53.742Z</time></trkpt><trkpt lat="43.238307" lon="11.3746278"><ele>204.33333333333331</ele><time>2026-04-03T09:44:54.742Z</time></trkpt><trkpt lat="43.2383046" lon="11.3747559"><ele>204.16666666666666</ele><time>2026-04-03T09:44:55.743Z</time></trkpt><trkpt lat="43.2382946" lon="11.374876"><ele>204.0</ele><time>2026-04-03T09:44:56.743Z</time></trkpt><trkpt lat="43.2382671" lon="11.3749756"><ele>204.0</ele><time>2026-04-03T09:44:57.743Z</time></trkpt><trkpt lat="43.2382208" lon="11.3750567"><ele>204.0</ele><time>2026-04-03T09:44:58.743Z</time></trkpt><trkpt lat="43.2381623" lon="11.3751305"><ele>204.0</ele><time>2026-04-03T09:44:59.743Z</time></trkpt><trkpt lat="43.2380815" lon="11.3752121"><ele>204.0</ele><time>2026-04-03T09:45:00.743Z</time></trkpt><trkpt lat="43.2379867" lon="11.3752946"><ele>204.0</ele><time>2026-04-03T09:45:01.743Z</time></trkpt><trkpt lat="43.2378856" lon="11.3753859"><ele>204.0</ele><time>2026-04-03T09:45:02.742Z</time></trkpt><trkpt lat="43.2377761" lon="11.3754763"><ele>204.0</ele><time>2026-04-03T09:45:03.742Z</time></trkpt><trkpt lat="43.2376624" lon="11.3755738"><ele>204.0</ele><time>2026-04-03T09:45:04.742Z</time></trkpt><trkpt lat="43.237557" lon="11.3756749"><ele>204.0</ele><time>2026-04-03T09:45:05.743Z</time></trkpt><trkpt lat="43.2374547" lon="11.3757788"><ele>202.75</ele><time>2026-04-03T09:45:06.742Z</time></trkpt><trkpt lat="43.2373552" lon="11.3758925"><ele>201.5</ele><time>2026-04-03T09:45:07.742Z</time></trkpt><trkpt lat="43.2372594" lon="11.3759849"><ele>200.25</ele><time>2026-04-03T09:45:08.743Z</time></trkpt><trkpt lat="43.2371635" lon="11.3760875"><ele>199.0</ele><time>2026-04-03T09:45:09.743Z</time></trkpt><trkpt lat="43.237069" lon="11.3761879"><ele>198.39999999999998</ele><time>2026-04-03T09:45:10.743Z</time></trkpt><trkpt lat="43.2369768" lon="11.3762808"><ele>197.8</ele><time>2026-04-03T09:45:11.742Z</time></trkpt><trkpt lat="43.2368892" lon="11.3763514"><ele>197.2</ele><time>2026-04-03T09:45:12.742Z</time></trkpt><trkpt lat="43.2368074" lon="11.3764042"><ele>196.60000000000002</ele><time>2026-04-03T09:45:13.743Z</time></trkpt><trkpt lat="43.2367256" lon="11.3764377"><ele>196.0</ele><time>2026-04-03T09:45:14.743Z</time></trkpt><trkpt lat="43.2366516" lon="11.3764421"><ele>194.99999999999997</ele><time>2026-04-03T09:45:15.743Z</time></trkpt><trkpt lat="43.2365798" lon="11.3764166"><ele>194.0</ele><time>2026-04-03T09:45:16.743Z</time></trkpt><trkpt lat="43.2364996" lon="11.3763859"><ele>193.0</ele><time>2026-04-03T09:45:17.743Z</time></trkpt><trkpt lat="43.2364301" lon="11.3763418"><ele>192.0</ele><time>2026-04-03T09:45:18.743Z</time></trkpt><trkpt lat="43.2363681" lon="11.3762845"><ele>191.0</ele><time>2026-04-03T09:45:19.743Z</time></trkpt><trkpt lat="43.2363127" lon="11.3762122"><ele>190.0</ele><time>2026-04-03T09:45:20.742Z</time></trkpt><trkpt lat="43.2362604" lon="11.3761262"><ele>189.33333333333334</ele><time>2026-04-03T09:45:21.742Z</time></trkpt><trkpt lat="43.2362123" lon="11.3760268"><ele>188.66666666666669</ele><time>2026-04-03T09:45:22.742Z</time></trkpt><trkpt lat="43.2361808" lon="11.3759148"><ele>188.0</ele><time>2026-04-03T09:45:23.742Z</time></trkpt><trkpt lat="43.2361616" lon="11.3757965"><ele>187.33333333333334</ele><time>2026-04-03T09:45:24.742Z</time></trkpt><trkpt lat="43.2361541" lon="11.3756809"><ele>186.66666666666666</ele><time>2026-04-03T09:45:25.743Z</time></trkpt><trkpt lat="43.2361571" lon="11.3755683"><ele>186.0</ele><time>2026-04-03T09:45:26.743Z</time></trkpt><trkpt lat="43.2361658" lon="11.3754539"><ele>185.33333333333334</ele><time>2026-04-03T09:45:27.743Z</time></trkpt><trkpt lat="43.2361824" lon="11.3753421"><ele>184.66666666666666</ele><time>2026-04-03T09:45:28.743Z</time></trkpt><trkpt lat="43.2362085" lon="11.3752413"><ele>184.0</ele><time>2026-04-03T09:45:29.743Z</time></trkpt><trkpt lat="43.2362459" lon="11.3751564"><ele>183.33333333333331</ele><time>2026-04-03T09:45:30.743Z</time></trkpt><trkpt lat="43.2362932" lon="11.3750672"><ele>182.66666666666666</ele><time>2026-04-03T09:45:31.742Z</time></trkpt><trkpt lat="43.2363436" lon="11.3749725"><ele>182.0</ele><time>2026-04-03T09:45:32.742Z</time></trkpt><trkpt lat="43.2363895" lon="11.3748695"><ele>182.0</ele><time>2026-04-03T09:45:33.743Z</time></trkpt><trkpt lat="43.2364272" lon="11.3747645"><ele>182.0</ele><time>2026-04-03T09:45:34.743Z</time></trkpt><trkpt lat="43.2364601" lon="11.3746447"><ele>182.0</ele><time>2026-04-03T09:45:35.742Z</time></trkpt><trkpt lat="43.2364874" lon="11.3745205"><ele>182.0</ele><time>2026-04-03T09:45:36.742Z</time></trkpt><trkpt lat="43.2365119" lon="11.3743946"><ele>182.0</ele><time>2026-04-03T09:45:37.743Z</time></trkpt><trkpt lat="43.2365393" lon="11.3742708"><ele>182.0</ele><time>2026-04-03T09:45:38.742Z</time></trkpt><trkpt lat="43.2365593" lon="11.3741496"><ele>182.0</ele><time>2026-04-03T09:45:39.742Z</time></trkpt><trkpt lat="43.2365657" lon="11.3740316"><ele>182.0</ele><time>2026-04-03T09:45:40.742Z</time></trkpt><trkpt lat="43.2365598" lon="11.3739223"><ele>182.0</ele><time>2026-04-03T09:45:41.742Z</time></trkpt><trkpt lat="43.236535" lon="11.373814"><ele>182.0</ele><time>2026-04-03T09:45:42.743Z</time></trkpt><trkpt lat="43.2364969" lon="11.3737029"><ele>182.0</ele><time>2026-04-03T09:45:43.742Z</time></trkpt><trkpt lat="43.2364404" lon="11.3735961"><ele>182.0</ele><time>2026-04-03T09:45:44.743Z</time></trkpt><trkpt lat="43.2363702" lon="11.3735132"><ele>182.0</ele><time>2026-04-03T09:45:45.742Z</time></trkpt><trkpt lat="43.2362844" lon="11.3734612"><ele>182.0</ele><time>2026-04-03T09:45:46.742Z</time></trkpt><trkpt lat="43.2361781" lon="11.3734319"><ele>182.0</ele><time>2026-04-03T09:45:47.743Z</time></trkpt><trkpt lat="43.2360474" lon="11.3734339"><ele>182.0</ele><time>2026-04-03T09:45:48.742Z</time></trkpt><trkpt lat="43.2358607" lon="11.3734455"><ele>179.5</ele><time>2026-04-03T09:45:49.742Z</time></trkpt><trkpt lat="43.2356306" lon="11.3734624"><ele>177.0</ele><time>2026-04-03T09:45:50.743Z</time></trkpt><trkpt lat="43.2353674" lon="11.3734899"><ele>177.0</ele><time>2026-04-03T09:45:51.743Z</time></trkpt><trkpt lat="43.23507" lon="11.3735276"><ele>177.0</ele><time>2026-04-03T09:45:52.743Z</time></trkpt><trkpt lat="43.2347836" lon="11.3735503"><ele>177.33333333333334</ele><time>2026-04-03T09:45:53.743Z</time></trkpt><trkpt lat="43.2345502" lon="11.3735719"><ele>177.66666666666669</ele><time>2026-04-03T09:45:54.743Z</time></trkpt><trkpt lat="43.234352" lon="11.3735811"><ele>178.0</ele><time>2026-04-03T09:45:55.743Z</time></trkpt><trkpt lat="43.234186" lon="11.3735992"><ele>178.0</ele><time>2026-04-03T09:45:56.743Z</time></trkpt><trkpt lat="43.2340434" lon="11.3736054"><ele>178.0</ele><time>2026-04-03T09:45:57.743Z</time></trkpt><trkpt lat="43.2339196" lon="11.3736136"><ele>178.0</ele><time>2026-04-03T09:45:58.743Z</time></trkpt><trkpt lat="43.2338087" lon="11.3736397"><ele>178.0</ele><time>2026-04-03T09:45:59.742Z</time></trkpt><trkpt lat="43.2337056" lon="11.373685"><ele>178.2</ele><time>2026-04-03T09:46:00.743Z</time></trkpt><trkpt lat="43.2336026" lon="11.373742"><ele>178.4</ele><time>2026-04-03T09:46:01.743Z</time></trkpt><trkpt lat="43.2334989" lon="11.3738075"><ele>178.6</ele><time>2026-04-03T09:46:02.743Z</time></trkpt><trkpt lat="43.2334052" lon="11.3738678"><ele>178.79999999999998</ele><time>2026-04-03T09:46:03.742Z</time></trkpt><trkpt lat="43.2333243" lon="11.3739183"><ele>179.0</ele><time>2026-04-03T09:46:04.743Z</time></trkpt><trkpt lat="43.2332545" lon="11.3739598"><ele>179.0</ele><time>2026-04-03T09:46:05.743Z</time></trkpt><trkpt lat="43.233194" lon="11.3739994"><ele>179.0</ele><time>2026-04-03T09:46:06.743Z</time></trkpt><trkpt lat="43.233074" lon="11.3740814"><ele>179.0</ele><time>2026-04-03T09:46:08.742Z</time></trkpt><trkpt lat="43.2329989" lon="11.3741435"><ele>179.0</ele><time>2026-04-03T09:46:09.743Z</time></trkpt><trkpt lat="43.2329093" lon="11.3742049"><ele>179.0</ele><time>2026-04-03T09:46:10.743Z</time></trkpt><trkpt lat="43.2327962" lon="11.3742857"><ele>179.0</ele><time>2026-04-03T09:46:11.743Z</time></trkpt><trkpt lat="43.2326591" lon="11.3743842"><ele>179.0</ele><time>2026-04-03T09:46:12.742Z</time></trkpt><trkpt lat="43.2324649" lon="11.3745045"><ele>179.0</ele><time>2026-04-03T09:46:13.743Z</time></trkpt><trkpt lat="43.2322489" lon="11.3746618"><ele>179.0</ele><time>2026-04-03T09:46:14.742Z</time></trkpt><trkpt lat="43.2320176" lon="11.3748248"><ele>179.0</ele><time>2026-04-03T09:46:15.743Z</time></trkpt><trkpt lat="43.2317941" lon="11.3749932"><ele>179.0</ele><time>2026-04-03T09:46:16.743Z</time></trkpt><trkpt lat="43.2315898" lon="11.3751376"><ele>179.0</ele><time>2026-04-03T09:46:17.742Z</time></trkpt><trkpt lat="43.231396" lon="11.3752711"><ele>179.0</ele><time>2026-04-03T09:46:18.743Z</time></trkpt><trkpt lat="43.2312178" lon="11.3753988"><ele>179.0</ele><time>2026-04-03T09:46:19.742Z</time></trkpt><trkpt lat="43.2310547" lon="11.3755114"><ele>179.0</ele><time>2026-04-03T09:46:20.742Z</time></trkpt><trkpt lat="43.2308969" lon="11.3756182"><ele>179.0</ele><time>2026-04-03T09:46:21.743Z</time></trkpt><trkpt lat="43.2307496" lon="11.3757244"><ele>180.66666666666666</ele><time>2026-04-03T09:46:22.743Z</time></trkpt><trkpt lat="43.2306139" lon="11.3758216"><ele>182.33333333333334</ele><time>2026-04-03T09:46:23.743Z</time></trkpt><trkpt lat="43.2304837" lon="11.3759135"><ele>184.0</ele><time>2026-04-03T09:46:24.743Z</time></trkpt><trkpt lat="43.2303485" lon="11.3760129"><ele>184.0</ele><time>2026-04-03T09:46:25.743Z</time></trkpt><trkpt lat="43.2302062" lon="11.3761228"><ele>184.0</ele><time>2026-04-03T09:46:26.742Z</time></trkpt><trkpt lat="43.2300581" lon="11.3762388"><ele>184.0</ele><time>2026-04-03T09:46:27.742Z</time></trkpt><trkpt lat="43.2299056" lon="11.3763594"><ele>184.66666666666669</ele><time>2026-04-03T09:46:28.743Z</time></trkpt><trkpt lat="43.2297546" lon="11.3764805"><ele>185.33333333333334</ele><time>2026-04-03T09:46:29.743Z</time></trkpt><trkpt lat="43.2296041" lon="11.3765976"><ele>186.0</ele><time>2026-04-03T09:46:30.743Z</time></trkpt><trkpt lat="43.2294491" lon="11.3767222"><ele>186.0</ele><time>2026-04-03T09:46:31.742Z</time></trkpt><trkpt lat="43.2292963" lon="11.376843"><ele>186.0</ele><time>2026-04-03T09:46:32.743Z</time></trkpt><trkpt lat="43.2291504" lon="11.3769603"><ele>186.0</ele><time>2026-04-03T09:46:33.743Z</time></trkpt><trkpt lat="43.2290095" lon="11.3770564"><ele>187.33333333333334</ele><time>2026-04-03T09:46:34.742Z</time></trkpt><trkpt lat="43.2288704" lon="11.3771313"><ele>188.66666666666669</ele><time>2026-04-03T09:46:35.743Z</time></trkpt><trkpt lat="43.2287225" lon="11.3771945"><ele>190.0</ele><time>2026-04-03T09:46:36.743Z</time></trkpt><trkpt lat="43.2285651" lon="11.377241"><ele>186.0</ele><time>2026-04-03T09:46:37.743Z</time></trkpt><trkpt lat="43.2283782" lon="11.3772753"><ele>182.0</ele><time>2026-04-03T09:46:38.743Z</time></trkpt><trkpt lat="43.2281767" lon="11.3772909"><ele>178.0</ele><time>2026-04-03T09:46:39.743Z</time></trkpt><trkpt lat="43.2279844" lon="11.3772969"><ele>178.0</ele><time>2026-04-03T09:46:40.743Z</time></trkpt><trkpt lat="43.227804" lon="11.3772935"><ele>178.0</ele><time>2026-04-03T09:46:41.743Z</time></trkpt><trkpt lat="43.2276392" lon="11.3772837"><ele>178.0</ele><time>2026-04-03T09:46:42.742Z</time></trkpt><trkpt lat="43.227493" lon="11.377266"><ele>178.0</ele><time>2026-04-03T09:46:43.743Z</time></trkpt><trkpt lat="43.227362" lon="11.3772603"><ele>178.0</ele><time>2026-04-03T09:46:44.743Z</time></trkpt><trkpt lat="43.2272223" lon="11.3772203"><ele>178.0</ele><time>2026-04-03T09:46:45.743Z</time></trkpt><trkpt lat="43.2270832" lon="11.3771646"><ele>178.0</ele><time>2026-04-03T09:46:46.743Z</time></trkpt><trkpt lat="43.2269269" lon="11.3770956"><ele>179.0</ele><time>2026-04-03T09:46:47.742Z</time></trkpt><trkpt lat="43.226795" lon="11.3769989"><ele>180.0</ele><time>2026-04-03T09:46:48.742Z</time></trkpt><trkpt lat="43.2266592" lon="11.3768816"><ele>181.0</ele><time>2026-04-03T09:46:49.742Z</time></trkpt><trkpt lat="43.2265325" lon="11.3767555"><ele>180.33333333333334</ele><time>2026-04-03T09:46:50.743Z</time></trkpt><trkpt lat="43.2264171" lon="11.3766073"><ele>179.66666666666666</ele><time>2026-04-03T09:46:51.742Z</time></trkpt><trkpt lat="43.2263183" lon="11.3764527"><ele>179.0</ele><time>2026-04-03T09:46:52.743Z</time></trkpt><trkpt lat="43.2262319" lon="11.3762905"><ele>179.0</ele><time>2026-04-03T09:46:53.743Z</time></trkpt><trkpt lat="43.2261573" lon="11.3761186"><ele>179.0</ele><time>2026-04-03T09:46:54.743Z</time></trkpt><trkpt lat="43.226102" lon="11.3759404"><ele>179.0</ele><time>2026-04-03T09:46:55.742Z</time></trkpt><trkpt lat="43.2260618" lon="11.3757762"><ele>179.0</ele><time>2026-04-03T09:46:56.743Z</time></trkpt><trkpt lat="43.226037" lon="11.3756219"><ele>178.75</ele><time>2026-04-03T09:46:57.743Z</time></trkpt><trkpt lat="43.2260243" lon="11.375478"><ele>178.5</ele><time>2026-04-03T09:46:58.742Z</time></trkpt><trkpt lat="43.2260229" lon="11.375339"><ele>178.25</ele><time>2026-04-03T09:46:59.743Z</time></trkpt><trkpt lat="43.2260329" lon="11.3751896"><ele>178.0</ele><time>2026-04-03T09:47:00.743Z</time></trkpt><trkpt lat="43.2260486" lon="11.3750059"><ele>178.0</ele><time>2026-04-03T09:47:01.743Z</time></trkpt><trkpt lat="43.2260663" lon="11.374815"><ele>178.0</ele><time>2026-04-03T09:47:02.743Z</time></trkpt><trkpt lat="43.2260827" lon="11.3746149"><ele>178.0</ele><time>2026-04-03T09:47:03.743Z</time></trkpt><trkpt lat="43.2260973" lon="11.3744284"><ele>178.0</ele><time>2026-04-03T09:47:04.742Z</time></trkpt><trkpt lat="43.2261101" lon="11.3742559"><ele>178.0</ele><time>2026-04-03T09:47:05.743Z</time></trkpt><trkpt lat="43.2261187" lon="11.3740828"><ele>178.0</ele><time>2026-04-03T09:47:06.742Z</time></trkpt><trkpt lat="43.22612" lon="11.3739161"><ele>178.0</ele><time>2026-04-03T09:47:07.743Z</time></trkpt><trkpt lat="43.2261104" lon="11.373755"><ele>178.0</ele><time>2026-04-03T09:47:08.743Z</time></trkpt><trkpt lat="43.2260874" lon="11.3736009"><ele>178.0</ele><time>2026-04-03T09:47:09.743Z</time></trkpt><trkpt lat="43.2260473" lon="11.3734459"><ele>178.0</ele><time>2026-04-03T09:47:10.743Z</time></trkpt><trkpt lat="43.226" lon="11.3732816"><ele>178.0</ele><time>2026-04-03T09:47:11.743Z</time></trkpt><trkpt lat="43.2259522" lon="11.3731064"><ele>178.0</ele><time>2026-04-03T09:47:12.743Z</time></trkpt><trkpt lat="43.2259021" lon="11.3729429"><ele>178.8</ele><time>2026-04-03T09:47:13.743Z</time></trkpt><trkpt lat="43.2258544" lon="11.372795"><ele>179.60000000000002</ele><time>2026-04-03T09:47:14.742Z</time></trkpt><trkpt lat="43.2258163" lon="11.3726585"><ele>180.39999999999998</ele><time>2026-04-03T09:47:15.742Z</time></trkpt><trkpt lat="43.225775" lon="11.3725344"><ele>181.2</ele><time>2026-04-03T09:47:16.743Z</time></trkpt><trkpt lat="43.2257327" lon="11.3724166"><ele>182.0</ele><time>2026-04-03T09:47:17.743Z</time></trkpt><trkpt lat="43.2256907" lon="11.3723163"><ele>181.83333333333331</ele><time>2026-04-03T09:47:18.743Z</time></trkpt><trkpt lat="43.2256434" lon="11.372246"><ele>181.66666666666666</ele><time>2026-04-03T09:47:19.743Z</time></trkpt><trkpt lat="43.2255874" lon="11.3721959"><ele>181.5</ele><time>2026-04-03T09:47:20.743Z</time></trkpt><trkpt lat="43.2255236" lon="11.3721772"><ele>181.33333333333334</ele><time>2026-04-03T09:47:21.742Z</time></trkpt><trkpt lat="43.2254044" lon="11.3722165"><ele>181.16666666666669</ele><time>2026-04-03T09:47:23.743Z</time></trkpt><trkpt lat="43.2253472" lon="11.372291"><ele>181.0</ele><time>2026-04-03T09:47:24.743Z</time></trkpt><trkpt lat="43.2252969" lon="11.3723895"><ele>180.8</ele><time>2026-04-03T09:47:25.742Z</time></trkpt><trkpt lat="43.2252451" lon="11.3725223"><ele>180.60000000000002</ele><time>2026-04-03T09:47:26.743Z</time></trkpt><trkpt lat="43.2251955" lon="11.3726549"><ele>180.4</ele><time>2026-04-03T09:47:27.743Z</time></trkpt><trkpt lat="43.2251509" lon="11.372783"><ele>180.2</ele><time>2026-04-03T09:47:28.743Z</time></trkpt><trkpt lat="43.2251025" lon="11.3729042"><ele>180.0</ele><time>2026-04-03T09:47:29.742Z</time></trkpt><trkpt lat="43.2250509" lon="11.3730201"><ele>180.0</ele><time>2026-04-03T09:47:30.743Z</time></trkpt><trkpt lat="43.2249896" lon="11.3730898"><ele>180.0</ele><time>2026-04-03T09:47:31.743Z</time></trkpt><trkpt lat="43.2249294" lon="11.3731638"><ele>180.0</ele><time>2026-04-03T09:47:32.743Z</time></trkpt><trkpt lat="43.2248508" lon="11.3732347"><ele>180.0</ele><time>2026-04-03T09:47:33.743Z</time></trkpt><trkpt lat="43.2247538" lon="11.3733385"><ele>180.0</ele><time>2026-04-03T09:47:34.743Z</time></trkpt><trkpt lat="43.2246474" lon="11.3734358"><ele>182.0</ele><time>2026-04-03T09:47:35.742Z</time></trkpt><trkpt lat="43.2245295" lon="11.3734806"><ele>184.0</ele><time>2026-04-03T09:47:36.743Z</time></trkpt><trkpt lat="43.2244162" lon="11.3735011"><ele>186.0</ele><time>2026-04-03T09:47:37.743Z</time></trkpt><trkpt lat="43.2243129" lon="11.373502"><ele>188.0</ele><time>2026-04-03T09:47:38.743Z</time></trkpt><trkpt lat="43.224204" lon="11.3734845"><ele>188.0</ele><time>2026-04-03T09:47:39.742Z</time></trkpt><trkpt lat="43.2240856" lon="11.3734438"><ele>188.0</ele><time>2026-04-03T09:47:40.743Z</time></trkpt><trkpt lat="43.223966" lon="11.3733712"><ele>188.0</ele><time>2026-04-03T09:47:41.743Z</time></trkpt><trkpt lat="43.2238585" lon="11.3732799"><ele>188.0</ele><time>2026-04-03T09:47:42.742Z</time></trkpt><trkpt lat="43.2237763" lon="11.3731796"><ele>191.60000000000002</ele><time>2026-04-03T09:47:43.742Z</time></trkpt><trkpt lat="43.2237128" lon="11.3730725"><ele>195.20000000000002</ele><time>2026-04-03T09:47:44.743Z</time></trkpt><trkpt lat="43.223667" lon="11.37298"><ele>198.8</ele><time>2026-04-03T09:47:45.743Z</time></trkpt><trkpt lat="43.2236241" lon="11.3728542"><ele>202.4</ele><time>2026-04-03T09:47:46.743Z</time></trkpt><trkpt lat="43.223598" lon="11.3727179"><ele>206.0</ele><time>2026-04-03T09:47:47.742Z</time></trkpt><trkpt lat="43.2235868" lon="11.3725804"><ele>206.0</ele><time>2026-04-03T09:47:48.743Z</time></trkpt><trkpt lat="43.2235981" lon="11.372433"><ele>206.0</ele><time>2026-04-03T09:47:49.743Z</time></trkpt><trkpt lat="43.2236177" lon="11.3722755"><ele>206.0</ele><time>2026-04-03T09:47:50.742Z</time></trkpt><trkpt lat="43.2236368" lon="11.3721088"><ele>206.0</ele><time>2026-04-03T09:47:51.743Z</time></trkpt><trkpt lat="43.2236468" lon="11.3719685"><ele>206.0</ele><time>2026-04-03T09:47:52.742Z</time></trkpt><trkpt lat="43.2236414" lon="11.3718248"><ele>206.0</ele><time>2026-04-03T09:47:53.742Z</time></trkpt><trkpt lat="43.2236155" lon="11.3716874"><ele>206.0</ele><time>2026-04-03T09:47:54.743Z</time></trkpt><trkpt lat="43.2235638" lon="11.3715544"><ele>206.0</ele><time>2026-04-03T09:47:55.742Z</time></trkpt><trkpt lat="43.2234876" lon="11.3714256"><ele>206.0</ele><time>2026-04-03T09:47:56.743Z</time></trkpt><trkpt lat="43.2234079" lon="11.3713168"><ele>205.33333333333334</ele><time>2026-04-03T09:47:57.742Z</time></trkpt><trkpt lat="43.223326" lon="11.3712432"><ele>204.66666666666669</ele><time>2026-04-03T09:47:58.741Z</time></trkpt><trkpt lat="43.223248" lon="11.3711908"><ele>204.0</ele><time>2026-04-03T09:47:59.741Z</time></trkpt><trkpt lat="43.223172" lon="11.3711721"><ele>203.33333333333331</ele><time>2026-04-03T09:48:00.741Z</time></trkpt><trkpt lat="43.2230965" lon="11.3711892"><ele>202.66666666666666</ele><time>2026-04-03T09:48:01.742Z</time></trkpt><trkpt lat="43.2230096" lon="11.3712408"><ele>202.0</ele><time>2026-04-03T09:48:02.742Z</time></trkpt><trkpt lat="43.2229277" lon="11.3713207"><ele>203.5</ele><time>2026-04-03T09:48:03.742Z</time></trkpt><trkpt lat="43.2228491" lon="11.3714344"><ele>205.0</ele><time>2026-04-03T09:48:04.741Z</time></trkpt><trkpt lat="43.2227491" lon="11.371576"><ele>206.5</ele><time>2026-04-03T09:48:05.741Z</time></trkpt><trkpt lat="43.2226525" lon="11.3717651"><ele>208.0</ele><time>2026-04-03T09:48:06.742Z</time></trkpt><trkpt lat="43.222552" lon="11.3719548"><ele>208.0</ele><time>2026-04-03T09:48:07.742Z</time></trkpt><trkpt lat="43.2224413" lon="11.3721211"><ele>208.0</ele><time>2026-04-03T09:48:08.742Z</time></trkpt><trkpt lat="43.2223216" lon="11.3722586"><ele>208.0</ele><time>2026-04-03T09:48:09.742Z</time></trkpt><trkpt lat="43.2222019" lon="11.3723825"><ele>211.25</ele><time>2026-04-03T09:48:10.742Z</time></trkpt><trkpt lat="43.2220808" lon="11.3724911"><ele>214.5</ele><time>2026-04-03T09:48:11.741Z</time></trkpt><trkpt lat="43.221951" lon="11.3725737"><ele>217.75</ele><time>2026-04-03T09:48:12.741Z</time></trkpt><trkpt lat="43.2218156" lon="11.37263"><ele>221.0</ele><time>2026-04-03T09:48:13.742Z</time></trkpt><trkpt lat="43.2216738" lon="11.3726766"><ele>221.0</ele><time>2026-04-03T09:48:14.742Z</time></trkpt><trkpt lat="43.2215223" lon="11.3727168"><ele>221.0</ele><time>2026-04-03T09:48:15.741Z</time></trkpt><trkpt lat="43.2213674" lon="11.3727542"><ele>221.0</ele><time>2026-04-03T09:48:16.741Z</time></trkpt><trkpt lat="43.221213" lon="11.3727891"><ele>223.0</ele><time>2026-04-03T09:48:17.742Z</time></trkpt><trkpt lat="43.2210582" lon="11.3728282"><ele>225.0</ele><time>2026-04-03T09:48:18.742Z</time></trkpt><trkpt lat="43.2208987" lon="11.3728672"><ele>227.0</ele><time>2026-04-03T09:48:19.741Z</time></trkpt><trkpt lat="43.2207373" lon="11.3728999"><ele>229.66666666666669</ele><time>2026-04-03T09:48:20.742Z</time></trkpt><trkpt lat="43.2205822" lon="11.3729311"><ele>232.33333333333331</ele><time>2026-04-03T09:48:21.742Z</time></trkpt><trkpt lat="43.2204321" lon="11.3729624"><ele>235.0</ele><time>2026-04-03T09:48:22.741Z</time></trkpt><trkpt lat="43.2202906" lon="11.3729941"><ele>234.0</ele><time>2026-04-03T09:48:23.742Z</time></trkpt><trkpt lat="43.2201502" lon="11.3730225"><ele>233.0</ele><time>2026-04-03T09:48:24.741Z</time></trkpt><trkpt lat="43.2200152" lon="11.3730554"><ele>232.0</ele><time>2026-04-03T09:48:25.742Z</time></trkpt><trkpt lat="43.219891" lon="11.3730837"><ele>231.0</ele><time>2026-04-03T09:48:26.742Z</time></trkpt><trkpt lat="43.2197667" lon="11.3731021"><ele>234.25</ele><time>2026-04-03T09:48:27.741Z</time></trkpt><trkpt lat="43.2196491" lon="11.3731117"><ele>237.5</ele><time>2026-04-03T09:48:28.741Z</time></trkpt><trkpt lat="43.2195243" lon="11.3731095"><ele>240.75</ele><time>2026-04-03T09:48:29.742Z</time></trkpt><trkpt lat="43.2193872" lon="11.373097"><ele>244.0</ele><time>2026-04-03T09:48:30.742Z</time></trkpt><trkpt lat="43.2192453" lon="11.373075"><ele>244.0</ele><time>2026-04-03T09:48:31.741Z</time></trkpt><trkpt lat="43.2191108" lon="11.3730561"><ele>244.0</ele><time>2026-04-03T09:48:32.742Z</time></trkpt><trkpt lat="43.2189882" lon="11.3730271"><ele>244.0</ele><time>2026-04-03T09:48:33.742Z</time></trkpt><trkpt lat="43.2188882" lon="11.3729966"><ele>244.0</ele><time>2026-04-03T09:48:34.741Z</time></trkpt><trkpt lat="43.2188001" lon="11.3729592"><ele>246.0</ele><time>2026-04-03T09:48:35.742Z</time></trkpt><trkpt lat="43.2186982" lon="11.3729147"><ele>248.0</ele><time>2026-04-03T09:48:36.742Z</time></trkpt><trkpt lat="43.2185878" lon="11.3728625"><ele>250.0</ele><time>2026-04-03T09:48:37.742Z</time></trkpt><trkpt lat="43.2184745" lon="11.372808"><ele>252.0</ele><time>2026-04-03T09:48:38.742Z</time></trkpt><trkpt lat="43.2183735" lon="11.3727594"><ele>252.0</ele><time>2026-04-03T09:48:39.742Z</time></trkpt><trkpt lat="43.2182917" lon="11.3727163"><ele>252.0</ele><time>2026-04-03T09:48:40.742Z</time></trkpt><trkpt lat="43.2181396" lon="11.3726819"><ele>252.0</ele><time>2026-04-03T09:48:41.741Z</time></trkpt><trkpt lat="43.2180456" lon="11.372649"><ele>252.0</ele><time>2026-04-03T09:48:42.742Z</time></trkpt><trkpt lat="43.217907" lon="11.3725803"><ele>250.0</ele><time>2026-04-03T09:48:44.742Z</time></trkpt><trkpt lat="43.2178335" lon="11.3725384"><ele>248.0</ele><time>2026-04-03T09:48:45.741Z</time></trkpt><trkpt lat="43.2177214" lon="11.3724727"><ele>246.0</ele><time>2026-04-03T09:48:47.742Z</time></trkpt><trkpt lat="43.2176054" lon="11.3724085"><ele>244.0</ele><time>2026-04-03T09:48:49.742Z</time></trkpt><trkpt lat="43.2175507" lon="11.3723638"><ele>242.0</ele><time>2026-04-03T09:48:50.741Z</time></trkpt><trkpt lat="43.2174898" lon="11.3723164"><ele>242.00000000000003</ele><time>2026-04-03T09:48:51.742Z</time></trkpt><trkpt lat="43.2174285" lon="11.3722729"><ele>242.0</ele><time>2026-04-03T09:48:52.742Z</time></trkpt><trkpt lat="43.2173609" lon="11.3722405"><ele>242.0</ele><time>2026-04-03T09:48:53.742Z</time></trkpt><trkpt lat="43.2172989" lon="11.3722005"><ele>242.0</ele><time>2026-04-03T09:48:54.741Z</time></trkpt><trkpt lat="43.2172366" lon="11.3721482"><ele>242.00000000000003</ele><time>2026-04-03T09:48:55.742Z</time></trkpt><trkpt lat="43.2171445" lon="11.3720835"><ele>242.0</ele><time>2026-04-03T09:48:56.742Z</time></trkpt><trkpt lat="43.2170395" lon="11.3720009"><ele>242.5</ele><time>2026-04-03T09:48:57.741Z</time></trkpt><trkpt lat="43.216903" lon="11.3719245"><ele>243.0</ele><time>2026-04-03T09:48:58.742Z</time></trkpt><trkpt lat="43.2167623" lon="11.3718606"><ele>243.5</ele><time>2026-04-03T09:48:59.742Z</time></trkpt><trkpt lat="43.2166183" lon="11.3717938"><ele>244.0</ele><time>2026-04-03T09:49:00.741Z</time></trkpt><trkpt lat="43.2164763" lon="11.3717419"><ele>244.0</ele><time>2026-04-03T09:49:01.741Z</time></trkpt><trkpt lat="43.2163222" lon="11.3716795"><ele>244.0</ele><time>2026-04-03T09:49:02.742Z</time></trkpt><trkpt lat="43.2161644" lon="11.3716445"><ele>244.0</ele><time>2026-04-03T09:49:03.742Z</time></trkpt><trkpt lat="43.215999" lon="11.3716157"><ele>244.0</ele><time>2026-04-03T09:49:04.742Z</time></trkpt><trkpt lat="43.2158416" lon="11.3715994"><ele>244.0</ele><time>2026-04-03T09:49:05.742Z</time></trkpt><trkpt lat="43.2156884" lon="11.371586"><ele>244.0</ele><time>2026-04-03T09:49:06.742Z</time></trkpt><trkpt lat="43.2155578" lon="11.371559"><ele>244.0</ele><time>2026-04-03T09:49:07.742Z</time></trkpt><trkpt lat="43.2154421" lon="11.3715295"><ele>243.0</ele><time>2026-04-03T09:49:08.741Z</time></trkpt><trkpt lat="43.2153659" lon="11.3714636"><ele>242.0</ele><time>2026-04-03T09:49:09.742Z</time></trkpt><trkpt lat="43.2152666" lon="11.3713765"><ele>241.0</ele><time>2026-04-03T09:49:10.742Z</time></trkpt><trkpt lat="43.2151315" lon="11.3713151"><ele>240.0</ele><time>2026-04-03T09:49:11.741Z</time></trkpt><trkpt lat="43.2152513" lon="11.3708621"><ele>240.0</ele><time>2026-04-03T09:49:12.742Z</time></trkpt><trkpt lat="43.2151258" lon="11.3707922"><ele>240.0</ele><time>2026-04-03T09:49:13.741Z</time></trkpt><trkpt lat="43.2150066" lon="11.3707349"><ele>240.0</ele><time>2026-04-03T09:49:14.741Z</time></trkpt><trkpt lat="43.2148974" lon="11.370713"><ele>240.0</ele><time>2026-04-03T09:49:15.742Z</time></trkpt><trkpt lat="43.2147827" lon="11.3707139"><ele>237.0</ele><time>2026-04-03T09:49:16.741Z</time></trkpt><trkpt lat="43.214673" lon="11.370746"><ele>234.0</ele><time>2026-04-03T09:49:17.742Z</time></trkpt><trkpt lat="43.2145601" lon="11.370805"><ele>231.0</ele><time>2026-04-03T09:49:18.742Z</time></trkpt><trkpt lat="43.2144293" lon="11.3708816"><ele>228.0</ele><time>2026-04-03T09:49:19.741Z</time></trkpt><trkpt lat="43.2142947" lon="11.3709717"><ele>228.0</ele><time>2026-04-03T09:49:20.742Z</time></trkpt><trkpt lat="43.2141599" lon="11.3710507"><ele>228.0</ele><time>2026-04-03T09:49:21.742Z</time></trkpt><trkpt lat="43.2140321" lon="11.3711335"><ele>228.0</ele><time>2026-04-03T09:49:22.741Z</time></trkpt><trkpt lat="43.2138986" lon="11.371217"><ele>228.0</ele><time>2026-04-03T09:49:23.742Z</time></trkpt><trkpt lat="43.2137605" lon="11.3712971"><ele>226.5</ele><time>2026-04-03T09:49:24.742Z</time></trkpt><trkpt lat="43.2136272" lon="11.3713578"><ele>225.0</ele><time>2026-04-03T09:49:25.741Z</time></trkpt><trkpt lat="43.2135055" lon="11.3713917"><ele>223.5</ele><time>2026-04-03T09:49:26.741Z</time></trkpt><trkpt lat="43.2133987" lon="11.371371"><ele>222.0</ele><time>2026-04-03T09:49:27.742Z</time></trkpt><trkpt lat="43.2132923" lon="11.371296"><ele>222.0</ele><time>2026-04-03T09:49:28.742Z</time></trkpt><trkpt lat="43.2131993" lon="11.3711697"><ele>222.0</ele><time>2026-04-03T09:49:29.742Z</time></trkpt><trkpt lat="43.2130994" lon="11.3710038"><ele>222.0</ele><time>2026-04-03T09:49:30.741Z</time></trkpt><trkpt lat="43.2130072" lon="11.3708236"><ele>222.0</ele><time>2026-04-03T09:49:31.742Z</time></trkpt><trkpt lat="43.2129226" lon="11.3706408"><ele>223.66666666666669</ele><time>2026-04-03T09:49:32.741Z</time></trkpt><trkpt lat="43.2128367" lon="11.3704515"><ele>225.33333333333334</ele><time>2026-04-03T09:49:33.742Z</time></trkpt><trkpt lat="43.2127472" lon="11.3702675"><ele>227.0</ele><time>2026-04-03T09:49:34.742Z</time></trkpt><trkpt lat="43.2126542" lon="11.3700901"><ele>227.0</ele><time>2026-04-03T09:49:35.742Z</time></trkpt><trkpt lat="43.2125573" lon="11.369919"><ele>227.0</ele><time>2026-04-03T09:49:36.742Z</time></trkpt><trkpt lat="43.2124537" lon="11.3697425"><ele>227.0</ele><time>2026-04-03T09:49:37.741Z</time></trkpt><trkpt lat="43.2123465" lon="11.3695735"><ele>228.75</ele><time>2026-04-03T09:49:38.741Z</time></trkpt><trkpt lat="43.2122522" lon="11.3694305"><ele>230.5</ele><time>2026-04-03T09:49:39.742Z</time></trkpt><trkpt lat="43.2121626" lon="11.3693062"><ele>232.25</ele><time>2026-04-03T09:49:40.741Z</time></trkpt><trkpt lat="43.2120666" lon="11.3691966"><ele>234.0</ele><time>2026-04-03T09:49:41.742Z</time></trkpt><trkpt lat="43.2119574" lon="11.3690923"><ele>234.0</ele><time>2026-04-03T09:49:42.741Z</time></trkpt><trkpt lat="43.2118307" lon="11.3689921"><ele>234.0</ele><time>2026-04-03T09:49:43.742Z</time></trkpt><trkpt lat="43.211689" lon="11.3689012"><ele>234.0</ele><time>2026-04-03T09:49:44.742Z</time></trkpt><trkpt lat="43.2115348" lon="11.3688192"><ele>233.66666666666669</ele><time>2026-04-03T09:49:45.742Z</time></trkpt><trkpt lat="43.2113609" lon="11.3687411"><ele>233.33333333333334</ele><time>2026-04-03T09:49:46.741Z</time></trkpt><trkpt lat="43.2111723" lon="11.3686789"><ele>233.0</ele><time>2026-04-03T09:49:47.741Z</time></trkpt><trkpt lat="43.2109836" lon="11.3686136"><ele>233.0</ele><time>2026-04-03T09:49:48.742Z</time></trkpt><trkpt lat="43.2107948" lon="11.3685469"><ele>233.0</ele><time>2026-04-03T09:49:49.742Z</time></trkpt><trkpt lat="43.2106047" lon="11.368482"><ele>233.0</ele><time>2026-04-03T09:49:50.742Z</time></trkpt><trkpt lat="43.2104264" lon="11.3684204"><ele>232.5</ele><time>2026-04-03T09:49:51.742Z</time></trkpt><trkpt lat="43.2102675" lon="11.3683645"><ele>232.0</ele><time>2026-04-03T09:49:52.741Z</time></trkpt><trkpt lat="43.2101296" lon="11.3683157"><ele>231.5</ele><time>2026-04-03T09:49:53.742Z</time></trkpt><trkpt lat="43.210014" lon="11.3682702"><ele>231.0</ele><time>2026-04-03T09:49:54.742Z</time></trkpt><trkpt lat="43.209922" lon="11.3682359"><ele>231.0</ele><time>2026-04-03T09:49:55.741Z</time></trkpt><trkpt lat="43.2098394" lon="11.3682238"><ele>231.0</ele><time>2026-04-03T09:49:56.742Z</time></trkpt><trkpt lat="43.2097659" lon="11.3682312"><ele>231.0</ele><time>2026-04-03T09:49:57.742Z</time></trkpt><trkpt lat="43.209693" lon="11.3682519"><ele>231.0</ele><time>2026-04-03T09:49:58.742Z</time></trkpt><trkpt lat="43.2096288" lon="11.3682909"><ele>231.0</ele><time>2026-04-03T09:49:59.742Z</time></trkpt><trkpt lat="43.2095659" lon="11.3683606"><ele>231.0</ele><time>2026-04-03T09:50:00.742Z</time></trkpt><trkpt lat="43.2094999" lon="11.3684628"><ele>233.0</ele><time>2026-04-03T09:50:01.741Z</time></trkpt><trkpt lat="43.209424" lon="11.3685903"><ele>235.0</ele><time>2026-04-03T09:50:02.742Z</time></trkpt><trkpt lat="43.209334" lon="11.3687302"><ele>237.0</ele><time>2026-04-03T09:50:03.742Z</time></trkpt><trkpt lat="43.209232" lon="11.3688836"><ele>239.0</ele><time>2026-04-03T09:50:04.742Z</time></trkpt><trkpt lat="43.2091183" lon="11.3690559"><ele>247.33333333333334</ele><time>2026-04-03T09:50:05.742Z</time></trkpt><trkpt lat="43.2089797" lon="11.3692463"><ele>255.66666666666669</ele><time>2026-04-03T09:50:06.742Z</time></trkpt><trkpt lat="43.2088311" lon="11.3694558"><ele>264.0</ele><time>2026-04-03T09:50:07.742Z</time></trkpt><trkpt lat="43.208681" lon="11.3696631"><ele>260.3333333333333</ele><time>2026-04-03T09:50:08.741Z</time></trkpt><trkpt lat="43.2085419" lon="11.3698627"><ele>256.66666666666663</ele><time>2026-04-03T09:50:09.741Z</time></trkpt><trkpt lat="43.20841" lon="11.3700503"><ele>253.0</ele><time>2026-04-03T09:50:10.742Z</time></trkpt><trkpt lat="43.2082796" lon="11.3702248"><ele>258.66666666666663</ele><time>2026-04-03T09:50:11.741Z</time></trkpt><trkpt lat="43.2081531" lon="11.3703967"><ele>264.3333333333333</ele><time>2026-04-03T09:50:12.741Z</time></trkpt><trkpt lat="43.2080316" lon="11.3705654"><ele>270.0</ele><time>2026-04-03T09:50:13.741Z</time></trkpt><trkpt lat="43.2079124" lon="11.3707309"><ele>270.0</ele><time>2026-04-03T09:50:14.742Z</time></trkpt><trkpt lat="43.2077956" lon="11.3708963"><ele>270.0</ele><time>2026-04-03T09:50:15.742Z</time></trkpt><trkpt lat="43.2076769" lon="11.3710595"><ele>270.0</ele><time>2026-04-03T09:50:16.741Z</time></trkpt><trkpt lat="43.2075622" lon="11.3712122"><ele>270.0</ele><time>2026-04-03T09:50:17.742Z</time></trkpt><trkpt lat="43.207457" lon="11.3713499"><ele>270.0</ele><time>2026-04-03T09:50:18.742Z</time></trkpt><trkpt lat="43.2073593" lon="11.3714803"><ele>270.0</ele><time>2026-04-03T09:50:19.742Z</time></trkpt><trkpt lat="43.207269" lon="11.3716035"><ele>270.0</ele><time>2026-04-03T09:50:20.742Z</time></trkpt><trkpt lat="43.2071825" lon="11.371737"><ele>270.25</ele><time>2026-04-03T09:50:21.741Z</time></trkpt><trkpt lat="43.2071032" lon="11.3718817"><ele>270.5</ele><time>2026-04-03T09:50:22.741Z</time></trkpt><trkpt lat="43.2070275" lon="11.3720307"><ele>270.75</ele><time>2026-04-03T09:50:23.742Z</time></trkpt><trkpt lat="43.2069589" lon="11.3721709"><ele>271.0</ele><time>2026-04-03T09:50:24.741Z</time></trkpt><trkpt lat="43.2068929" lon="11.3723003"><ele>271.0</ele><time>2026-04-03T09:50:25.742Z</time></trkpt><trkpt lat="43.2068251" lon="11.3724129"><ele>271.0</ele><time>2026-04-03T09:50:26.742Z</time></trkpt><trkpt lat="43.2067541" lon="11.3725211"><ele>271.0</ele><time>2026-04-03T09:50:27.742Z</time></trkpt><trkpt lat="43.206676" lon="11.3726339"><ele>271.0</ele><time>2026-04-03T09:50:28.741Z</time></trkpt><trkpt lat="43.2065815" lon="11.3727431"><ele>269.66666666666663</ele><time>2026-04-03T09:50:29.741Z</time></trkpt><trkpt lat="43.2064644" lon="11.3728463"><ele>268.3333333333333</ele><time>2026-04-03T09:50:30.742Z</time></trkpt><trkpt lat="43.2063334" lon="11.3729456"><ele>267.0</ele><time>2026-04-03T09:50:31.742Z</time></trkpt><trkpt lat="43.2061851" lon="11.3730464"><ele>267.0</ele><time>2026-04-03T09:50:32.741Z</time></trkpt><trkpt lat="43.2060436" lon="11.3731416"><ele>267.0</ele><time>2026-04-03T09:50:33.742Z</time></trkpt><trkpt lat="43.2059151" lon="11.3732357"><ele>267.0</ele><time>2026-04-03T09:50:34.741Z</time></trkpt><trkpt lat="43.2058014" lon="11.3733288"><ele>267.0</ele><time>2026-04-03T09:50:35.742Z</time></trkpt><trkpt lat="43.2057014" lon="11.3734278"><ele>267.2</ele><time>2026-04-03T09:50:36.742Z</time></trkpt><trkpt lat="43.2056116" lon="11.373521"><ele>267.4</ele><time>2026-04-03T09:50:37.742Z</time></trkpt><trkpt lat="43.2055348" lon="11.3735997"><ele>267.6</ele><time>2026-04-03T09:50:38.741Z</time></trkpt><trkpt lat="43.2054618" lon="11.3736627"><ele>267.8</ele><time>2026-04-03T09:50:39.742Z</time></trkpt><trkpt lat="43.2053784" lon="11.3737147"><ele>268.0</ele><time>2026-04-03T09:50:40.742Z</time></trkpt><trkpt lat="43.2052843" lon="11.3737547"><ele>268.0</ele><time>2026-04-03T09:50:41.742Z</time></trkpt><trkpt lat="43.205174" lon="11.3737681"><ele>268.0</ele><time>2026-04-03T09:50:42.742Z</time></trkpt><trkpt lat="43.2050512" lon="11.373767"><ele>268.0</ele><time>2026-04-03T09:50:43.741Z</time></trkpt><trkpt lat="43.2049273" lon="11.3737572"><ele>268.0</ele><time>2026-04-03T09:50:44.742Z</time></trkpt><trkpt lat="43.2048096" lon="11.3737637"><ele>267.75</ele><time>2026-04-03T09:50:45.742Z</time></trkpt><trkpt lat="43.2046832" lon="11.3737895"><ele>267.5</ele><time>2026-04-03T09:50:46.742Z</time></trkpt><trkpt lat="43.2045452" lon="11.3738312"><ele>267.25</ele><time>2026-04-03T09:50:47.742Z</time></trkpt><trkpt lat="43.2043968" lon="11.3738761"><ele>267.0</ele><time>2026-04-03T09:50:48.742Z</time></trkpt><trkpt lat="43.2042607" lon="11.3739181"><ele>264.75</ele><time>2026-04-03T09:50:49.741Z</time></trkpt><trkpt lat="43.2041333" lon="11.3739621"><ele>262.5</ele><time>2026-04-03T09:50:50.742Z</time></trkpt><trkpt lat="43.2040123" lon="11.374001"><ele>260.25</ele><time>2026-04-03T09:50:51.741Z</time></trkpt><trkpt lat="43.2038902" lon="11.374046"><ele>258.0</ele><time>2026-04-03T09:50:52.742Z</time></trkpt><trkpt lat="43.2037661" lon="11.374113"><ele>258.0</ele><time>2026-04-03T09:50:53.742Z</time></trkpt><trkpt lat="43.2036445" lon="11.374197"><ele>258.0</ele><time>2026-04-03T09:50:54.742Z</time></trkpt><trkpt lat="43.2035284" lon="11.3742942"><ele>258.0</ele><time>2026-04-03T09:50:55.741Z</time></trkpt><trkpt lat="43.2034228" lon="11.374382"><ele>258.0</ele><time>2026-04-03T09:50:56.741Z</time></trkpt><trkpt lat="43.203316" lon="11.3744532"><ele>258.0</ele><time>2026-04-03T09:50:57.742Z</time></trkpt><trkpt lat="43.2031956" lon="11.3745019"><ele>258.0</ele><time>2026-04-03T09:50:58.742Z</time></trkpt><trkpt lat="43.2030534" lon="11.3745506"><ele>258.0</ele><time>2026-04-03T09:50:59.742Z</time></trkpt><trkpt lat="43.20289" lon="11.3745865"><ele>258.0</ele><time>2026-04-03T09:51:00.742Z</time></trkpt><trkpt lat="43.2027083" lon="11.3746357"><ele>256.0</ele><time>2026-04-03T09:51:01.742Z</time></trkpt><trkpt lat="43.2025028" lon="11.3746913"><ele>254.0</ele><time>2026-04-03T09:51:02.741Z</time></trkpt><trkpt lat="43.2023047" lon="11.3747485"><ele>252.0</ele><time>2026-04-03T09:51:03.742Z</time></trkpt><trkpt lat="43.2021339" lon="11.3747984"><ele>255.5</ele><time>2026-04-03T09:51:04.742Z</time></trkpt><trkpt lat="43.2019897" lon="11.3748443"><ele>259.0</ele><time>2026-04-03T09:51:05.742Z</time></trkpt><trkpt lat="43.2018578" lon="11.3748992"><ele>262.5</ele><time>2026-04-03T09:51:06.741Z</time></trkpt><trkpt lat="43.2017202" lon="11.3749774"><ele>266.0</ele><time>2026-04-03T09:51:07.742Z</time></trkpt><trkpt lat="43.2015755" lon="11.3750774"><ele>267.25</ele><time>2026-04-03T09:51:08.742Z</time></trkpt><trkpt lat="43.2014289" lon="11.3751805"><ele>268.5</ele><time>2026-04-03T09:51:09.742Z</time></trkpt><trkpt lat="43.2012948" lon="11.3752694"><ele>269.75</ele><time>2026-04-03T09:51:10.742Z</time></trkpt><trkpt lat="43.2011859" lon="11.3753426"><ele>271.0</ele><time>2026-04-03T09:51:11.742Z</time></trkpt><trkpt lat="43.2011049" lon="11.3753869"><ele>271.0</ele><time>2026-04-03T09:51:12.741Z</time></trkpt><trkpt lat="43.2010376" lon="11.3754047"><ele>271.0</ele><time>2026-04-03T09:51:13.741Z</time></trkpt><trkpt lat="43.2009329" lon="11.375383"><ele>271.0</ele><time>2026-04-03T09:51:15.741Z</time></trkpt><trkpt lat="43.2008726" lon="11.3753553"><ele>271.0</ele><time>2026-04-03T09:51:16.742Z</time></trkpt><trkpt lat="43.2007945" lon="11.3753182"><ele>271.0</ele><time>2026-04-03T09:51:17.742Z</time></trkpt><trkpt lat="43.2007176" lon="11.3752766"><ele>271.0</ele><time>2026-04-03T09:51:18.742Z</time></trkpt><trkpt lat="43.2006393" lon="11.375233"><ele>268.0</ele><time>2026-04-03T09:51:19.742Z</time></trkpt><trkpt lat="43.2005628" lon="11.3751877"><ele>265.0</ele><time>2026-04-03T09:51:20.742Z</time></trkpt><trkpt lat="43.2004894" lon="11.3751456"><ele>262.0</ele><time>2026-04-03T09:51:21.742Z</time></trkpt><trkpt lat="43.2004201" lon="11.3751051"><ele>259.0</ele><time>2026-04-03T09:51:22.741Z</time></trkpt><trkpt lat="43.2003098" lon="11.3750352"><ele>256.0</ele><time>2026-04-03T09:51:24.741Z</time></trkpt><trkpt lat="43.2002205" lon="11.3749903"><ele>256.0</ele><time>2026-04-03T09:51:26.741Z</time></trkpt><trkpt lat="43.2000977" lon="11.3750102"><ele>256.0</ele><time>2026-04-03T09:51:28.742Z</time></trkpt><trkpt lat="43.2000396" lon="11.3750463"><ele>256.0</ele><time>2026-04-03T09:51:29.742Z</time></trkpt><trkpt lat="43.1999889" lon="11.3751167"><ele>256.0</ele><time>2026-04-03T09:51:30.742Z</time></trkpt><trkpt lat="43.199939" lon="11.375222"><ele>256.0</ele><time>2026-04-03T09:51:31.741Z</time></trkpt><trkpt lat="43.1998885" lon="11.3753613"><ele>253.0</ele><time>2026-04-03T09:51:32.742Z</time></trkpt><trkpt lat="43.1998308" lon="11.3754941"><ele>250.0</ele><time>2026-04-03T09:51:33.741Z</time></trkpt><trkpt lat="43.1997532" lon="11.3756239"><ele>247.0</ele><time>2026-04-03T09:51:34.742Z</time></trkpt><trkpt lat="43.1996611" lon="11.3757403"><ele>244.0</ele><time>2026-04-03T09:51:35.741Z</time></trkpt><trkpt lat="43.1995645" lon="11.3758444"><ele>244.0</ele><time>2026-04-03T09:51:36.741Z</time></trkpt><trkpt lat="43.1994737" lon="11.3759492"><ele>244.0</ele><time>2026-04-03T09:51:37.741Z</time></trkpt><trkpt lat="43.1993801" lon="11.3760524"><ele>244.0</ele><time>2026-04-03T09:51:38.742Z</time></trkpt><trkpt lat="43.1992756" lon="11.3761387"><ele>244.0</ele><time>2026-04-03T09:51:39.742Z</time></trkpt><trkpt lat="43.1991505" lon="11.3762054"><ele>244.0</ele><time>2026-04-03T09:51:40.742Z</time></trkpt><trkpt lat="43.1990122" lon="11.3762502"><ele>244.0</ele><time>2026-04-03T09:51:41.742Z</time></trkpt><trkpt lat="43.1988559" lon="11.3762833"><ele>244.0</ele><time>2026-04-03T09:51:42.741Z</time></trkpt><trkpt lat="43.1986983" lon="11.3763206"><ele>243.0</ele><time>2026-04-03T09:51:43.742Z</time></trkpt><trkpt lat="43.1985646" lon="11.3763651"><ele>242.0</ele><time>2026-04-03T09:51:44.741Z</time></trkpt><trkpt lat="43.1984351" lon="11.3764242"><ele>241.0</ele><time>2026-04-03T09:51:45.741Z</time></trkpt><trkpt lat="43.1983216" lon="11.3765062"><ele>240.0</ele><time>2026-04-03T09:51:46.741Z</time></trkpt><trkpt lat="43.1981912" lon="11.3766143"><ele>238.66666666666669</ele><time>2026-04-03T09:51:47.742Z</time></trkpt><trkpt lat="43.1980614" lon="11.3767522"><ele>237.33333333333334</ele><time>2026-04-03T09:51:48.742Z</time></trkpt><trkpt lat="43.19793" lon="11.3768915"><ele>236.0</ele><time>2026-04-03T09:51:49.741Z</time></trkpt><trkpt lat="43.197798" lon="11.3770159"><ele>236.0</ele><time>2026-04-03T09:51:50.741Z</time></trkpt><trkpt lat="43.1976689" lon="11.3771199"><ele>236.0</ele><time>2026-04-03T09:51:51.741Z</time></trkpt><trkpt lat="43.1975472" lon="11.3772063"><ele>236.0</ele><time>2026-04-03T09:51:52.741Z</time></trkpt><trkpt lat="43.1974281" lon="11.377281"><ele>236.0</ele><time>2026-04-03T09:51:53.742Z</time></trkpt><trkpt lat="43.197319" lon="11.3773476"><ele>235.0</ele><time>2026-04-03T09:51:54.742Z</time></trkpt><trkpt lat="43.1972105" lon="11.3774209"><ele>234.0</ele><time>2026-04-03T09:51:55.742Z</time></trkpt><trkpt lat="43.1971077" lon="11.3774946"><ele>233.0</ele><time>2026-04-03T09:51:56.741Z</time></trkpt><trkpt lat="43.1970054" lon="11.3775665"><ele>232.0</ele><time>2026-04-03T09:51:57.742Z</time></trkpt><trkpt lat="43.1969051" lon="11.377636"><ele>232.0</ele><time>2026-04-03T09:51:58.742Z</time></trkpt><trkpt lat="43.1968036" lon="11.3777053"><ele>232.0</ele><time>2026-04-03T09:51:59.741Z</time></trkpt><trkpt lat="43.1967019" lon="11.3777812"><ele>232.0</ele><time>2026-04-03T09:52:00.741Z</time></trkpt><trkpt lat="43.1966042" lon="11.3778496"><ele>232.0</ele><time>2026-04-03T09:52:01.741Z</time></trkpt><trkpt lat="43.1965083" lon="11.3779132"><ele>232.0</ele><time>2026-04-03T09:52:02.741Z</time></trkpt><trkpt lat="43.1964155" lon="11.3779803"><ele>232.39999999999998</ele><time>2026-04-03T09:52:03.742Z</time></trkpt><trkpt lat="43.1963209" lon="11.3780479"><ele>232.79999999999998</ele><time>2026-04-03T09:52:04.742Z</time></trkpt><trkpt lat="43.1962207" lon="11.3781125"><ele>233.2</ele><time>2026-04-03T09:52:05.742Z</time></trkpt><trkpt lat="43.196121" lon="11.3781817"><ele>233.6</ele><time>2026-04-03T09:52:06.742Z</time></trkpt><trkpt lat="43.1960245" lon="11.3782401"><ele>234.0</ele><time>2026-04-03T09:52:07.742Z</time></trkpt><trkpt lat="43.1959233" lon="11.3782967"><ele>234.0</ele><time>2026-04-03T09:52:08.742Z</time></trkpt><trkpt lat="43.1958243" lon="11.3783538"><ele>233.99999999999997</ele><time>2026-04-03T09:52:09.742Z</time></trkpt><trkpt lat="43.1957261" lon="11.3784008"><ele>233.99999999999997</ele><time>2026-04-03T09:52:10.741Z</time></trkpt><trkpt lat="43.1956313" lon="11.3784446"><ele>234.0</ele><time>2026-04-03T09:52:11.741Z</time></trkpt><trkpt lat="43.1955349" lon="11.3784834"><ele>234.0</ele><time>2026-04-03T09:52:12.741Z</time></trkpt><trkpt lat="43.1954502" lon="11.3785257"><ele>233.83333333333334</ele><time>2026-04-03T09:52:13.742Z</time></trkpt><trkpt lat="43.1953706" lon="11.3785657"><ele>233.66666666666669</ele><time>2026-04-03T09:52:14.742Z</time></trkpt><trkpt lat="43.1952953" lon="11.3786169"><ele>233.5</ele><time>2026-04-03T09:52:15.742Z</time></trkpt><trkpt lat="43.1952238" lon="11.3786789"><ele>233.33333333333334</ele><time>2026-04-03T09:52:16.742Z</time></trkpt><trkpt lat="43.1951523" lon="11.3787495"><ele>233.16666666666669</ele><time>2026-04-03T09:52:17.742Z</time></trkpt><trkpt lat="43.1950824" lon="11.378827"><ele>233.0</ele><time>2026-04-03T09:52:18.741Z</time></trkpt><trkpt lat="43.1950129" lon="11.3789152"><ele>233.0</ele><time>2026-04-03T09:52:19.742Z</time></trkpt><trkpt lat="43.1949436" lon="11.3790132"><ele>233.0</ele><time>2026-04-03T09:52:20.742Z</time></trkpt><trkpt lat="43.194876" lon="11.3791154"><ele>233.0</ele><time>2026-04-03T09:52:21.742Z</time></trkpt><trkpt lat="43.1948137" lon="11.3792272"><ele>233.0</ele><time>2026-04-03T09:52:22.741Z</time></trkpt><trkpt lat="43.1947533" lon="11.3793459"><ele>233.0</ele><time>2026-04-03T09:52:23.742Z</time></trkpt><trkpt lat="43.1947043" lon="11.3794742"><ele>231.5</ele><time>2026-04-03T09:52:24.742Z</time></trkpt><trkpt lat="43.1946581" lon="11.379611"><ele>230.0</ele><time>2026-04-03T09:52:25.741Z</time></trkpt><trkpt lat="43.1946179" lon="11.3797588"><ele>228.5</ele><time>2026-04-03T09:52:26.742Z</time></trkpt><trkpt lat="43.1945894" lon="11.3799192"><ele>227.0</ele><time>2026-04-03T09:52:27.742Z</time></trkpt><trkpt lat="43.1945665" lon="11.3800774"><ele>227.0</ele><time>2026-04-03T09:52:28.742Z</time></trkpt><trkpt lat="43.194546" lon="11.3802403"><ele>227.0</ele><time>2026-04-03T09:52:29.742Z</time></trkpt><trkpt lat="43.1945329" lon="11.3804062"><ele>227.0</ele><time>2026-04-03T09:52:30.742Z</time></trkpt><trkpt lat="43.1945241" lon="11.3805741"><ele>227.0</ele><time>2026-04-03T09:52:31.741Z</time></trkpt><trkpt lat="43.194506" lon="11.3807436"><ele>227.25</ele><time>2026-04-03T09:52:32.742Z</time></trkpt><trkpt lat="43.194467" lon="11.3808784"><ele>227.5</ele><time>2026-04-03T09:52:33.742Z</time></trkpt><trkpt lat="43.1944306" lon="11.3810394"><ele>227.75</ele><time>2026-04-03T09:52:34.741Z</time></trkpt><trkpt lat="43.1943798" lon="11.3812093"><ele>228.0</ele><time>2026-04-03T09:52:35.741Z</time></trkpt><trkpt lat="43.1943264" lon="11.3813896"><ele>228.0</ele><time>2026-04-03T09:52:36.741Z</time></trkpt><trkpt lat="43.1942618" lon="11.3815769"><ele>228.0</ele><time>2026-04-03T09:52:37.741Z</time></trkpt><trkpt lat="43.1941838" lon="11.3817624"><ele>228.0</ele><time>2026-04-03T09:52:38.741Z</time></trkpt><trkpt lat="43.1941158" lon="11.38195"><ele>228.0</ele><time>2026-04-03T09:52:39.742Z</time></trkpt><trkpt lat="43.1940365" lon="11.382129"><ele>228.0</ele><time>2026-04-03T09:52:40.741Z</time></trkpt><trkpt lat="43.1939643" lon="11.3823113"><ele>228.0</ele><time>2026-04-03T09:52:41.742Z</time></trkpt><trkpt lat="43.1938837" lon="11.3825147"><ele>227.33333333333331</ele><time>2026-04-03T09:52:42.742Z</time></trkpt><trkpt lat="43.1938052" lon="11.3827155"><ele>226.66666666666666</ele><time>2026-04-03T09:52:43.742Z</time></trkpt><trkpt lat="43.1937271" lon="11.3828966"><ele>226.0</ele><time>2026-04-03T09:52:44.742Z</time></trkpt><trkpt lat="43.1936482" lon="11.3830729"><ele>226.0</ele><time>2026-04-03T09:52:45.741Z</time></trkpt><trkpt lat="43.1935627" lon="11.3831884"><ele>226.0</ele><time>2026-04-03T09:52:46.742Z</time></trkpt><trkpt lat="43.1934624" lon="11.383278"><ele>226.0</ele><time>2026-04-03T09:52:47.741Z</time></trkpt><trkpt lat="43.1934179" lon="11.3834231"><ele>226.0</ele><time>2026-04-03T09:52:48.741Z</time></trkpt><trkpt lat="43.1932899" lon="11.3835044"><ele>224.33333333333331</ele><time>2026-04-03T09:52:49.742Z</time></trkpt><trkpt lat="43.1931358" lon="11.3835739"><ele>222.66666666666669</ele><time>2026-04-03T09:52:50.742Z</time></trkpt><trkpt lat="43.1929706" lon="11.3836455"><ele>221.0</ele><time>2026-04-03T09:52:51.74Z</time></trkpt><trkpt lat="43.1928049" lon="11.3837079"><ele>221.0</ele><time>2026-04-03T09:52:52.741Z</time></trkpt><trkpt lat="43.1926505" lon="11.3837928"><ele>221.0</ele><time>2026-04-03T09:52:53.741Z</time></trkpt><trkpt lat="43.1925369" lon="11.3839089"><ele>221.0</ele><time>2026-04-03T09:52:54.74Z</time></trkpt><trkpt lat="43.1923837" lon="11.3839498"><ele>222.0</ele><time>2026-04-03T09:52:55.741Z</time></trkpt><trkpt lat="43.1922354" lon="11.3839706"><ele>223.0</ele><time>2026-04-03T09:52:56.741Z</time></trkpt><trkpt lat="43.192103" lon="11.3839655"><ele>224.0</ele><time>2026-04-03T09:52:57.741Z</time></trkpt><trkpt lat="43.1919929" lon="11.3839652"><ele>225.0</ele><time>2026-04-03T09:52:58.741Z</time></trkpt><trkpt lat="43.1918921" lon="11.3839786"><ele>225.0</ele><time>2026-04-03T09:52:59.74Z</time></trkpt><trkpt lat="43.1917905" lon="11.3840349"><ele>225.0</ele><time>2026-04-03T09:53:00.741Z</time></trkpt><trkpt lat="43.1916865" lon="11.3841192"><ele>225.0</ele><time>2026-04-03T09:53:01.74Z</time></trkpt><trkpt lat="43.1915765" lon="11.3842343"><ele>225.0</ele><time>2026-04-03T09:53:02.741Z</time></trkpt><trkpt lat="43.1914717" lon="11.3843825"><ele>226.0</ele><time>2026-04-03T09:53:03.741Z</time></trkpt><trkpt lat="43.1913621" lon="11.3845432"><ele>227.0</ele><time>2026-04-03T09:53:04.741Z</time></trkpt><trkpt lat="43.1912533" lon="11.3847005"><ele>228.0</ele><time>2026-04-03T09:53:05.741Z</time></trkpt><trkpt lat="43.1911437" lon="11.3848503"><ele>228.0</ele><time>2026-04-03T09:53:06.741Z</time></trkpt><trkpt lat="43.1910344" lon="11.3849874"><ele>228.0</ele><time>2026-04-03T09:53:07.741Z</time></trkpt><trkpt lat="43.1909169" lon="11.3851046"><ele>228.0</ele><time>2026-04-03T09:53:08.74Z</time></trkpt><trkpt lat="43.1907914" lon="11.3852149"><ele>228.0</ele><time>2026-04-03T09:53:09.741Z</time></trkpt><trkpt lat="43.1906528" lon="11.3853053"><ele>229.33333333333331</ele><time>2026-04-03T09:53:10.741Z</time></trkpt><trkpt lat="43.1905103" lon="11.3853949"><ele>230.66666666666666</ele><time>2026-04-03T09:53:11.74Z</time></trkpt><trkpt lat="43.1903685" lon="11.3854821"><ele>232.0</ele><time>2026-04-03T09:53:12.74Z</time></trkpt><trkpt lat="43.1902278" lon="11.3855557"><ele>228.66666666666666</ele><time>2026-04-03T09:53:13.74Z</time></trkpt><trkpt lat="43.1900722" lon="11.3856078"><ele>225.33333333333331</ele><time>2026-04-03T09:53:14.74Z</time></trkpt><trkpt lat="43.1899045" lon="11.3856486"><ele>222.0</ele><time>2026-04-03T09:53:15.741Z</time></trkpt><trkpt lat="43.1897128" lon="11.3856925"><ele>221.0</ele><time>2026-04-03T09:53:16.741Z</time></trkpt><trkpt lat="43.1895075" lon="11.3857431"><ele>220.0</ele><time>2026-04-03T09:53:17.741Z</time></trkpt><trkpt lat="43.1893129" lon="11.3857972"><ele>219.0</ele><time>2026-04-03T09:53:18.741Z</time></trkpt><trkpt lat="43.1891421" lon="11.385852"><ele>220.75</ele><time>2026-04-03T09:53:19.74Z</time></trkpt><trkpt lat="43.1889979" lon="11.3858979"><ele>222.5</ele><time>2026-04-03T09:53:20.74Z</time></trkpt><trkpt lat="43.1888699" lon="11.3859302"><ele>224.25</ele><time>2026-04-03T09:53:21.74Z</time></trkpt><trkpt lat="43.1887566" lon="11.3859556"><ele>226.0</ele><time>2026-04-03T09:53:22.741Z</time></trkpt><trkpt lat="43.1886504" lon="11.3859551"><ele>226.0</ele><time>2026-04-03T09:53:23.74Z</time></trkpt><trkpt lat="43.1885488" lon="11.3859366"><ele>226.00000000000003</ele><time>2026-04-03T09:53:24.74Z</time></trkpt><trkpt lat="43.1884532" lon="11.3859039"><ele>226.00000000000003</ele><time>2026-04-03T09:53:25.74Z</time></trkpt><trkpt lat="43.1883645" lon="11.3858385"><ele>226.0</ele><time>2026-04-03T09:53:26.74Z</time></trkpt><trkpt lat="43.1882716" lon="11.3857571"><ele>226.0</ele><time>2026-04-03T09:53:27.741Z</time></trkpt><trkpt lat="43.1881688" lon="11.3856621"><ele>229.5</ele><time>2026-04-03T09:53:28.74Z</time></trkpt><trkpt lat="43.188059" lon="11.3855699"><ele>233.0</ele><time>2026-04-03T09:53:29.74Z</time></trkpt><trkpt lat="43.187943" lon="11.3854935"><ele>236.5</ele><time>2026-04-03T09:53:30.741Z</time></trkpt><trkpt lat="43.1878181" lon="11.3854255"><ele>240.0</ele><time>2026-04-03T09:53:31.741Z</time></trkpt><trkpt lat="43.1876948" lon="11.3853659"><ele>240.0</ele><time>2026-04-03T09:53:32.741Z</time></trkpt><trkpt lat="43.1875748" lon="11.3853175"><ele>240.0</ele><time>2026-04-03T09:53:33.741Z</time></trkpt><trkpt lat="43.1874613" lon="11.3852799"><ele>240.0</ele><time>2026-04-03T09:53:34.74Z</time></trkpt><trkpt lat="43.1873491" lon="11.385268"><ele>240.0</ele><time>2026-04-03T09:53:35.741Z</time></trkpt><trkpt lat="43.1872311" lon="11.3852691"><ele>242.0</ele><time>2026-04-03T09:53:36.74Z</time></trkpt><trkpt lat="43.1870974" lon="11.3852848"><ele>244.0</ele><time>2026-04-03T09:53:37.741Z</time></trkpt><trkpt lat="43.1869471" lon="11.3853116"><ele>246.0</ele><time>2026-04-03T09:53:38.741Z</time></trkpt><trkpt lat="43.1867852" lon="11.3853447"><ele>248.0</ele><time>2026-04-03T09:53:39.741Z</time></trkpt><trkpt lat="43.1866151" lon="11.3853829"><ele>250.66666666666669</ele><time>2026-04-03T09:53:40.74Z</time></trkpt><trkpt lat="43.1864368" lon="11.3854156"><ele>253.33333333333331</ele><time>2026-04-03T09:53:41.741Z</time></trkpt><trkpt lat="43.186254" lon="11.3854311"><ele>256.0</ele><time>2026-04-03T09:53:42.74Z</time></trkpt><trkpt lat="43.1860702" lon="11.3854321"><ele>256.0</ele><time>2026-04-03T09:53:43.741Z</time></trkpt><trkpt lat="43.1859068" lon="11.3854317"><ele>256.0</ele><time>2026-04-03T09:53:44.741Z</time></trkpt><trkpt lat="43.185769" lon="11.3854316"><ele>256.0</ele><time>2026-04-03T09:53:45.741Z</time></trkpt><trkpt lat="43.1856478" lon="11.3854288"><ele>256.0</ele><time>2026-04-03T09:53:46.741Z</time></trkpt><trkpt lat="43.1855469" lon="11.3854169"><ele>258.2</ele><time>2026-04-03T09:53:47.741Z</time></trkpt><trkpt lat="43.1854577" lon="11.3853856"><ele>260.40000000000003</ele><time>2026-04-03T09:53:48.74Z</time></trkpt><trkpt lat="43.1853791" lon="11.3853462"><ele>262.6</ele><time>2026-04-03T09:53:49.741Z</time></trkpt><trkpt lat="43.1853071" lon="11.3852889"><ele>264.8</ele><time>2026-04-03T09:53:50.741Z</time></trkpt><trkpt lat="43.1852386" lon="11.3852077"><ele>267.0</ele><time>2026-04-03T09:53:51.741Z</time></trkpt><trkpt lat="43.1851623" lon="11.3851129"><ele>267.0</ele><time>2026-04-03T09:53:52.741Z</time></trkpt><trkpt lat="43.185089" lon="11.3850031"><ele>267.0</ele><time>2026-04-03T09:53:53.741Z</time></trkpt><trkpt lat="43.1850151" lon="11.3848827"><ele>267.0</ele><time>2026-04-03T09:53:54.741Z</time></trkpt><trkpt lat="43.1849383" lon="11.384755"><ele>267.0</ele><time>2026-04-03T09:53:55.741Z</time></trkpt><trkpt lat="43.1848552" lon="11.3846283"><ele>269.0</ele><time>2026-04-03T09:53:56.741Z</time></trkpt><trkpt lat="43.1847621" lon="11.3845104"><ele>271.0</ele><time>2026-04-03T09:53:57.741Z</time></trkpt><trkpt lat="43.1846643" lon="11.3843972"><ele>273.0</ele><time>2026-04-03T09:53:58.741Z</time></trkpt><trkpt lat="43.1845494" lon="11.3842881"><ele>275.0</ele><time>2026-04-03T09:53:59.741Z</time></trkpt><trkpt lat="43.1844455" lon="11.3841845"><ele>275.0</ele><time>2026-04-03T09:54:00.741Z</time></trkpt><trkpt lat="43.1843398" lon="11.3840911"><ele>275.0</ele><time>2026-04-03T09:54:01.741Z</time></trkpt><trkpt lat="43.1842354" lon="11.384015"><ele>275.0</ele><time>2026-04-03T09:54:02.74Z</time></trkpt><trkpt lat="43.1841398" lon="11.3839571"><ele>275.0</ele><time>2026-04-03T09:54:03.741Z</time></trkpt><trkpt lat="43.1840523" lon="11.383914"><ele>275.0</ele><time>2026-04-03T09:54:04.74Z</time></trkpt><trkpt lat="43.1839704" lon="11.3838789"><ele>274.83333333333337</ele><time>2026-04-03T09:54:05.741Z</time></trkpt><trkpt lat="43.1838912" lon="11.3838509"><ele>274.6666666666667</ele><time>2026-04-03T09:54:06.74Z</time></trkpt><trkpt lat="43.1838176" lon="11.3838251"><ele>274.5</ele><time>2026-04-03T09:54:07.741Z</time></trkpt><trkpt lat="43.1837493" lon="11.3838037"><ele>274.3333333333333</ele><time>2026-04-03T09:54:08.741Z</time></trkpt><trkpt lat="43.1836876" lon="11.3837841"><ele>274.16666666666663</ele><time>2026-04-03T09:54:09.741Z</time></trkpt><trkpt lat="43.1835824" lon="11.3837416"><ele>274.0</ele><time>2026-04-03T09:54:11.741Z</time></trkpt><trkpt lat="43.1834895" lon="11.3837105"><ele>274.0</ele><time>2026-04-03T09:54:13.741Z</time></trkpt><trkpt lat="43.1834006" lon="11.3836883"><ele>274.0</ele><time>2026-04-03T09:54:15.74Z</time></trkpt><trkpt lat="43.1833114" lon="11.3836507"><ele>274.0</ele><time>2026-04-03T09:54:17.741Z</time></trkpt><trkpt lat="43.1832066" lon="11.3836014"><ele>274.0</ele><time>2026-04-03T09:54:19.741Z</time></trkpt><trkpt lat="43.1831465" lon="11.3835748"><ele>274.0</ele><time>2026-04-03T09:54:20.741Z</time></trkpt><trkpt lat="43.183083" lon="11.3835459"><ele>274.0</ele><time>2026-04-03T09:54:21.741Z</time></trkpt><trkpt lat="43.1830144" lon="11.3835128"><ele>273.5</ele><time>2026-04-03T09:54:22.74Z</time></trkpt><trkpt lat="43.1829442" lon="11.3834814"><ele>273.0</ele><time>2026-04-03T09:54:23.741Z</time></trkpt><trkpt lat="43.1828744" lon="11.3834417"><ele>272.5</ele><time>2026-04-03T09:54:24.741Z</time></trkpt><trkpt lat="43.1828031" lon="11.3834041"><ele>272.0</ele><time>2026-04-03T09:54:25.74Z</time></trkpt><trkpt lat="43.1827331" lon="11.3833635"><ele>271.5</ele><time>2026-04-03T09:54:26.74Z</time></trkpt><trkpt lat="43.1826593" lon="11.3833257"><ele>271.0</ele><time>2026-04-03T09:54:27.741Z</time></trkpt><trkpt lat="43.1825781" lon="11.3832865"><ele>271.0</ele><time>2026-04-03T09:54:28.741Z</time></trkpt><trkpt lat="43.1824932" lon="11.3832496"><ele>271.0</ele><time>2026-04-03T09:54:29.741Z</time></trkpt><trkpt lat="43.1824023" lon="11.3832164"><ele>271.0</ele><time>2026-04-03T09:54:30.741Z</time></trkpt><trkpt lat="43.1823106" lon="11.3831843"><ele>271.0</ele><time>2026-04-03T09:54:31.741Z</time></trkpt><trkpt lat="43.1822143" lon="11.3831568"><ele>271.0</ele><time>2026-04-03T09:54:32.741Z</time></trkpt><trkpt lat="43.1821198" lon="11.383132"><ele>270.6</ele><time>2026-04-03T09:54:33.741Z</time></trkpt><trkpt lat="43.1820241" lon="11.3831151"><ele>270.20000000000005</ele><time>2026-04-03T09:54:34.741Z</time></trkpt><trkpt lat="43.1819302" lon="11.3830914"><ele>269.79999999999995</ele><time>2026-04-03T09:54:35.74Z</time></trkpt><trkpt lat="43.1818347" lon="11.383066"><ele>269.4</ele><time>2026-04-03T09:54:36.741Z</time></trkpt><trkpt lat="43.1817357" lon="11.3830434"><ele>269.0</ele><time>2026-04-03T09:54:37.741Z</time></trkpt><trkpt lat="43.1816319" lon="11.3830184"><ele>268.4</ele><time>2026-04-03T09:54:38.741Z</time></trkpt><trkpt lat="43.1815299" lon="11.3829902"><ele>267.79999999999995</ele><time>2026-04-03T09:54:39.741Z</time></trkpt><trkpt lat="43.1814336" lon="11.3829662"><ele>267.20000000000005</ele><time>2026-04-03T09:54:40.741Z</time></trkpt><trkpt lat="43.1813442" lon="11.3829439"><ele>266.6</ele><time>2026-04-03T09:54:41.741Z</time></trkpt><trkpt lat="43.1812613" lon="11.3829152"><ele>266.0</ele><time>2026-04-03T09:54:42.74Z</time></trkpt><trkpt lat="43.1811852" lon="11.3828823"><ele>266.0</ele><time>2026-04-03T09:54:43.74Z</time></trkpt><trkpt lat="43.1811166" lon="11.3828466"><ele>266.0</ele><time>2026-04-03T09:54:44.741Z</time></trkpt><trkpt lat="43.181056" lon="11.3828179"><ele>266.0</ele><time>2026-04-03T09:54:45.741Z</time></trkpt><trkpt lat="43.1809677" lon="11.3827619"><ele>266.0</ele><time>2026-04-03T09:54:47.74Z</time></trkpt><trkpt lat="43.1809117" lon="11.382717"><ele>266.0</ele><time>2026-04-03T09:54:49.741Z</time></trkpt><trkpt lat="43.1808245" lon="11.3826864"><ele>266.0</ele><time>2026-04-03T09:54:58.741Z</time></trkpt><trkpt lat="43.1807408" lon="11.3827572"><ele>266.0</ele><time>2026-04-03T09:55:00.741Z</time></trkpt><trkpt lat="43.1806779" lon="11.3828251"><ele>266.0</ele><time>2026-04-03T09:55:01.741Z</time></trkpt><trkpt lat="43.1805964" lon="11.3829094"><ele>266.0</ele><time>2026-04-03T09:55:02.741Z</time></trkpt><trkpt lat="43.1805038" lon="11.3830055"><ele>266.0</ele><time>2026-04-03T09:55:03.741Z</time></trkpt><trkpt lat="43.1803975" lon="11.3831141"><ele>266.0</ele><time>2026-04-03T09:55:04.74Z</time></trkpt><trkpt lat="43.1802757" lon="11.3832194"><ele>266.0</ele><time>2026-04-03T09:55:05.741Z</time></trkpt><trkpt lat="43.1801353" lon="11.3833264"><ele>266.0</ele><time>2026-04-03T09:55:06.74Z</time></trkpt><trkpt lat="43.179969" lon="11.3834438"><ele>266.0</ele><time>2026-04-03T09:55:07.74Z</time></trkpt><trkpt lat="43.1797781" lon="11.3835626"><ele>265.0</ele><time>2026-04-03T09:55:08.741Z</time></trkpt><trkpt lat="43.179572" lon="11.383678"><ele>264.0</ele><time>2026-04-03T09:55:09.74Z</time></trkpt><trkpt lat="43.1793606" lon="11.3837804"><ele>263.0</ele><time>2026-04-03T09:55:10.741Z</time></trkpt><trkpt lat="43.1791471" lon="11.3838836"><ele>266.0</ele><time>2026-04-03T09:55:11.741Z</time></trkpt><trkpt lat="43.1789379" lon="11.3840094"><ele>269.0</ele><time>2026-04-03T09:55:12.741Z</time></trkpt><trkpt lat="43.1787408" lon="11.3841681"><ele>269.0</ele><time>2026-04-03T09:55:13.741Z</time></trkpt><trkpt lat="43.1785389" lon="11.3843725"><ele>269.0</ele><time>2026-04-03T09:55:14.741Z</time></trkpt><trkpt lat="43.1783683" lon="11.3846086"><ele>269.0</ele><time>2026-04-03T09:55:15.74Z</time></trkpt><trkpt lat="43.1781731" lon="11.3848262"><ele>269.0</ele><time>2026-04-03T09:55:16.741Z</time></trkpt><trkpt lat="43.1779638" lon="11.3850217"><ele>269.0</ele><time>2026-04-03T09:55:17.74Z</time></trkpt><trkpt lat="43.1777621" lon="11.3851807"><ele>269.0</ele><time>2026-04-03T09:55:18.741Z</time></trkpt><trkpt lat="43.1775867" lon="11.3853482"><ele>269.0</ele><time>2026-04-03T09:55:19.74Z</time></trkpt><trkpt lat="43.1774315" lon="11.3855134"><ele>270.6666666666667</ele><time>2026-04-03T09:55:20.74Z</time></trkpt><trkpt lat="43.1772984" lon="11.3857191"><ele>272.3333333333333</ele><time>2026-04-03T09:55:21.74Z</time></trkpt><trkpt lat="43.1771857" lon="11.3859634"><ele>274.0</ele><time>2026-04-03T09:55:22.741Z</time></trkpt><trkpt lat="43.1770719" lon="11.3862419"><ele>273.0</ele><time>2026-04-03T09:55:23.741Z</time></trkpt><trkpt lat="43.176952" lon="11.386535"><ele>272.0</ele><time>2026-04-03T09:55:24.741Z</time></trkpt><trkpt lat="43.1768284" lon="11.3868475"><ele>272.0</ele><time>2026-04-03T09:55:25.741Z</time></trkpt><trkpt lat="43.1767039" lon="11.3871304"><ele>272.0</ele><time>2026-04-03T09:55:26.741Z</time></trkpt><trkpt lat="43.1765947" lon="11.3873743"><ele>274.0</ele><time>2026-04-03T09:55:27.74Z</time></trkpt><trkpt lat="43.1764863" lon="11.3876018"><ele>276.0</ele><time>2026-04-03T09:55:28.74Z</time></trkpt><trkpt lat="43.1763698" lon="11.387812"><ele>278.0</ele><time>2026-04-03T09:55:29.741Z</time></trkpt><trkpt lat="43.1762243" lon="11.3879988"><ele>276.6666666666667</ele><time>2026-04-03T09:55:30.74Z</time></trkpt><trkpt lat="43.1760708" lon="11.3881556"><ele>275.3333333333333</ele><time>2026-04-03T09:55:31.74Z</time></trkpt><trkpt lat="43.1759073" lon="11.3882862"><ele>274.0</ele><time>2026-04-03T09:55:32.741Z</time></trkpt><trkpt lat="43.1757102" lon="11.3884066"><ele>273.5</ele><time>2026-04-03T09:55:33.74Z</time></trkpt><trkpt lat="43.1754878" lon="11.3885109"><ele>273.0</ele><time>2026-04-03T09:55:34.74Z</time></trkpt><trkpt lat="43.1752466" lon="11.3886213"><ele>273.0</ele><time>2026-04-03T09:55:35.741Z</time></trkpt><trkpt lat="43.1749839" lon="11.3887357"><ele>273.0</ele><time>2026-04-03T09:55:36.741Z</time></trkpt><trkpt lat="43.1747193" lon="11.3888544"><ele>276.0</ele><time>2026-04-03T09:55:37.74Z</time></trkpt><trkpt lat="43.1744822" lon="11.3889576"><ele>279.0</ele><time>2026-04-03T09:55:38.74Z</time></trkpt><trkpt lat="43.1742675" lon="11.3890518"><ele>279.0</ele><time>2026-04-03T09:55:39.74Z</time></trkpt><trkpt lat="43.1740695" lon="11.3891798"><ele>279.0</ele><time>2026-04-03T09:55:40.74Z</time></trkpt><trkpt lat="43.173899" lon="11.3893294"><ele>279.0</ele><time>2026-04-03T09:55:41.741Z</time></trkpt><trkpt lat="43.1737656" lon="11.389486"><ele>280.4</ele><time>2026-04-03T09:55:42.741Z</time></trkpt><trkpt lat="43.173675" lon="11.3896304"><ele>281.79999999999995</ele><time>2026-04-03T09:55:43.741Z</time></trkpt><trkpt lat="43.1736019" lon="11.3897492"><ele>283.20000000000005</ele><time>2026-04-03T09:55:44.741Z</time></trkpt><trkpt lat="43.1735392" lon="11.389849"><ele>284.6</ele><time>2026-04-03T09:55:45.741Z</time></trkpt><trkpt lat="43.1734801" lon="11.3899396"><ele>286.0</ele><time>2026-04-03T09:55:46.741Z</time></trkpt><trkpt lat="43.1734076" lon="11.3900648"><ele>286.0</ele><time>2026-04-03T09:55:47.741Z</time></trkpt><trkpt lat="43.173324" lon="11.3902019"><ele>286.0</ele><time>2026-04-03T09:55:48.741Z</time></trkpt><trkpt lat="43.173233" lon="11.3903388"><ele>286.0</ele><time>2026-04-03T09:55:49.741Z</time></trkpt><trkpt lat="43.1731377" lon="11.3904754"><ele>286.0</ele><time>2026-04-03T09:55:50.741Z</time></trkpt><trkpt lat="43.173035" lon="11.3905895"><ele>289.0</ele><time>2026-04-03T09:55:51.741Z</time></trkpt><trkpt lat="43.1729365" lon="11.3906778"><ele>292.0</ele><time>2026-04-03T09:55:52.741Z</time></trkpt><trkpt lat="43.1728286" lon="11.3907397"><ele>295.0</ele><time>2026-04-03T09:55:53.741Z</time></trkpt><trkpt lat="43.1727076" lon="11.3907995"><ele>298.0</ele><time>2026-04-03T09:55:54.741Z</time></trkpt><trkpt lat="43.1725836" lon="11.3908671"><ele>298.0</ele><time>2026-04-03T09:55:55.741Z</time></trkpt><trkpt lat="43.1724579" lon="11.3909351"><ele>298.0</ele><time>2026-04-03T09:55:56.741Z</time></trkpt><trkpt lat="43.1723358" lon="11.3909969"><ele>298.0</ele><time>2026-04-03T09:55:57.741Z</time></trkpt><trkpt lat="43.172234" lon="11.3910528"><ele>298.0</ele><time>2026-04-03T09:55:58.74Z</time></trkpt><trkpt lat="43.1721418" lon="11.3910987"><ele>299.16666666666663</ele><time>2026-04-03T09:55:59.741Z</time></trkpt><trkpt lat="43.172052" lon="11.391141"><ele>300.3333333333333</ele><time>2026-04-03T09:56:00.74Z</time></trkpt><trkpt lat="43.1719637" lon="11.3911822"><ele>301.5</ele><time>2026-04-03T09:56:01.74Z</time></trkpt><trkpt lat="43.1718786" lon="11.3912193"><ele>302.6666666666667</ele><time>2026-04-03T09:56:02.741Z</time></trkpt><trkpt lat="43.1717976" lon="11.3912489"><ele>303.83333333333337</ele><time>2026-04-03T09:56:03.741Z</time></trkpt><trkpt lat="43.1717208" lon="11.3912703"><ele>305.0</ele><time>2026-04-03T09:56:04.741Z</time></trkpt><trkpt lat="43.1716552" lon="11.3912914"><ele>305.0</ele><time>2026-04-03T09:56:05.741Z</time></trkpt><trkpt lat="43.1715872" lon="11.391311"><ele>305.0</ele><time>2026-04-03T09:56:06.741Z</time></trkpt><trkpt lat="43.171519" lon="11.3913211"><ele>305.0</ele><time>2026-04-03T09:56:07.741Z</time></trkpt><trkpt lat="43.1714468" lon="11.3913269"><ele>305.0</ele><time>2026-04-03T09:56:08.74Z</time></trkpt><trkpt lat="43.1713681" lon="11.3913281"><ele>305.0</ele><time>2026-04-03T09:56:09.741Z</time></trkpt><trkpt lat="43.1712751" lon="11.3913179"><ele>305.0</ele><time>2026-04-03T09:56:10.741Z</time></trkpt><trkpt lat="43.1711706" lon="11.3912911"><ele>304.25</ele><time>2026-04-03T09:56:11.741Z</time></trkpt><trkpt lat="43.1710665" lon="11.391246"><ele>303.5</ele><time>2026-04-03T09:56:12.74Z</time></trkpt><trkpt lat="43.1709553" lon="11.3911855"><ele>302.75</ele><time>2026-04-03T09:56:13.741Z</time></trkpt><trkpt lat="43.1708434" lon="11.3911217"><ele>302.0</ele><time>2026-04-03T09:56:14.741Z</time></trkpt><trkpt lat="43.1707402" lon="11.3910642"><ele>302.0</ele><time>2026-04-03T09:56:15.741Z</time></trkpt><trkpt lat="43.1706402" lon="11.3910103"><ele>302.0</ele><time>2026-04-03T09:56:16.74Z</time></trkpt><trkpt lat="43.1705482" lon="11.3909617"><ele>302.0</ele><time>2026-04-03T09:56:17.741Z</time></trkpt><trkpt lat="43.1704571" lon="11.3909109"><ele>302.0</ele><time>2026-04-03T09:56:18.741Z</time></trkpt><trkpt lat="43.1703623" lon="11.3908465"><ele>302.0</ele><time>2026-04-03T09:56:19.741Z</time></trkpt><trkpt lat="43.1702619" lon="11.3907708"><ele>302.0</ele><time>2026-04-03T09:56:20.74Z</time></trkpt><trkpt lat="43.1701537" lon="11.3906799"><ele>302.0</ele><time>2026-04-03T09:56:21.741Z</time></trkpt><trkpt lat="43.1700302" lon="11.3905663"><ele>302.0</ele><time>2026-04-03T09:56:22.74Z</time></trkpt><trkpt lat="43.1698826" lon="11.3904302"><ele>298.0</ele><time>2026-04-03T09:56:23.74Z</time></trkpt><trkpt lat="43.1697123" lon="11.3903061"><ele>294.0</ele><time>2026-04-03T09:56:24.741Z</time></trkpt><trkpt lat="43.1695313" lon="11.390189"><ele>290.0</ele><time>2026-04-03T09:56:25.741Z</time></trkpt><trkpt lat="43.1693326" lon="11.3900974"><ele>290.0</ele><time>2026-04-03T09:56:26.74Z</time></trkpt><trkpt lat="43.1691494" lon="11.3900507"><ele>290.0</ele><time>2026-04-03T09:56:27.741Z</time></trkpt><trkpt lat="43.1689897" lon="11.390026"><ele>290.0</ele><time>2026-04-03T09:56:28.741Z</time></trkpt><trkpt lat="43.1688378" lon="11.3900022"><ele>286.33333333333337</ele><time>2026-04-03T09:56:29.741Z</time></trkpt><trkpt lat="43.1686654" lon="11.3899837"><ele>282.6666666666667</ele><time>2026-04-03T09:56:30.741Z</time></trkpt><trkpt lat="43.1684746" lon="11.3899657"><ele>279.0</ele><time>2026-04-03T09:56:31.74Z</time></trkpt><trkpt lat="43.1682647" lon="11.3899439"><ele>276.0</ele><time>2026-04-03T09:56:32.741Z</time></trkpt><trkpt lat="43.1680351" lon="11.389922"><ele>273.0</ele><time>2026-04-03T09:56:33.741Z</time></trkpt><trkpt lat="43.167798" lon="11.3898983"><ele>273.0</ele><time>2026-04-03T09:56:34.74Z</time></trkpt><trkpt lat="43.1675698" lon="11.3898816"><ele>273.0</ele><time>2026-04-03T09:56:35.74Z</time></trkpt><trkpt lat="43.1673537" lon="11.3898625"><ele>273.0</ele><time>2026-04-03T09:56:36.741Z</time></trkpt><trkpt lat="43.1671511" lon="11.3898572"><ele>273.3333333333333</ele><time>2026-04-03T09:56:37.741Z</time></trkpt><trkpt lat="43.1669668" lon="11.3898903"><ele>273.66666666666663</ele><time>2026-04-03T09:56:38.741Z</time></trkpt><trkpt lat="43.1667931" lon="11.389966"><ele>274.0</ele><time>2026-04-03T09:56:39.74Z</time></trkpt><trkpt lat="43.1666418" lon="11.3900635"><ele>274.75</ele><time>2026-04-03T09:56:40.74Z</time></trkpt><trkpt lat="43.1665197" lon="11.3901835"><ele>275.5</ele><time>2026-04-03T09:56:41.74Z</time></trkpt><trkpt lat="43.1664251" lon="11.3903115"><ele>276.25</ele><time>2026-04-03T09:56:42.741Z</time></trkpt><trkpt lat="43.166351" lon="11.3904256"><ele>277.0</ele><time>2026-04-03T09:56:43.74Z</time></trkpt><trkpt lat="43.1662895" lon="11.3905079"><ele>275.8</ele><time>2026-04-03T09:56:44.741Z</time></trkpt><trkpt lat="43.1662244" lon="11.3905649"><ele>274.6</ele><time>2026-04-03T09:56:45.74Z</time></trkpt><trkpt lat="43.1661527" lon="11.390614"><ele>273.40000000000003</ele><time>2026-04-03T09:56:46.741Z</time></trkpt><trkpt lat="43.1660711" lon="11.3906751"><ele>272.2</ele><time>2026-04-03T09:56:47.74Z</time></trkpt><trkpt lat="43.1659578" lon="11.3907456"><ele>271.0</ele><time>2026-04-03T09:56:48.741Z</time></trkpt><trkpt lat="43.1658212" lon="11.3908037"><ele>272.0</ele><time>2026-04-03T09:56:49.741Z</time></trkpt><trkpt lat="43.1656463" lon="11.3908656"><ele>273.0</ele><time>2026-04-03T09:56:50.741Z</time></trkpt><trkpt lat="43.1654411" lon="11.3909311"><ele>274.0</ele><time>2026-04-03T09:56:51.741Z</time></trkpt><trkpt lat="43.1652138" lon="11.3909891"><ele>274.0</ele><time>2026-04-03T09:56:52.741Z</time></trkpt><trkpt lat="43.1649822" lon="11.3910529"><ele>274.0</ele><time>2026-04-03T09:56:53.74Z</time></trkpt><trkpt lat="43.1647525" lon="11.3911091"><ele>274.5</ele><time>2026-04-03T09:56:54.741Z</time></trkpt><trkpt lat="43.1645165" lon="11.3911652"><ele>275.0</ele><time>2026-04-03T09:56:55.741Z</time></trkpt><trkpt lat="43.1642793" lon="11.3912235"><ele>275.0</ele><time>2026-04-03T09:56:56.741Z</time></trkpt><trkpt lat="43.1640359" lon="11.3912907"><ele>275.0</ele><time>2026-04-03T09:56:57.741Z</time></trkpt><trkpt lat="43.1637884" lon="11.3913507"><ele>276.0</ele><time>2026-04-03T09:56:58.74Z</time></trkpt><trkpt lat="43.1635437" lon="11.3914084"><ele>277.0</ele><time>2026-04-03T09:56:59.741Z</time></trkpt><trkpt lat="43.1633157" lon="11.3914659"><ele>278.66666666666663</ele><time>2026-04-03T09:57:00.741Z</time></trkpt><trkpt lat="43.1631053" lon="11.3915198"><ele>280.3333333333333</ele><time>2026-04-03T09:57:01.741Z</time></trkpt><trkpt lat="43.1629169" lon="11.391563"><ele>282.0</ele><time>2026-04-03T09:57:02.74Z</time></trkpt><trkpt lat="43.1627397" lon="11.3916025"><ele>282.0</ele><time>2026-04-03T09:57:03.74Z</time></trkpt><trkpt lat="43.1625623" lon="11.3916312"><ele>282.0</ele><time>2026-04-03T09:57:04.74Z</time></trkpt><trkpt lat="43.1623971" lon="11.3916515"><ele>282.0</ele><time>2026-04-03T09:57:05.74Z</time></trkpt><trkpt lat="43.162249" lon="11.3916696"><ele>283.0</ele><time>2026-04-03T09:57:06.74Z</time></trkpt><trkpt lat="43.1621178" lon="11.3916917"><ele>284.0</ele><time>2026-04-03T09:57:07.74Z</time></trkpt><trkpt lat="43.1620002" lon="11.3917309"><ele>285.0</ele><time>2026-04-03T09:57:08.74Z</time></trkpt><trkpt lat="43.1619032" lon="11.3917993"><ele>286.0</ele><time>2026-04-03T09:57:09.74Z</time></trkpt><trkpt lat="43.161822" lon="11.3918828"><ele>286.0</ele><time>2026-04-03T09:57:10.74Z</time></trkpt><trkpt lat="43.1617381" lon="11.3920244"><ele>286.0</ele><time>2026-04-03T09:57:11.74Z</time></trkpt><trkpt lat="43.1616777" lon="11.3921941"><ele>286.0</ele><time>2026-04-03T09:57:12.74Z</time></trkpt><trkpt lat="43.1616183" lon="11.3923955"><ele>286.0</ele><time>2026-04-03T09:57:13.74Z</time></trkpt><trkpt lat="43.1615604" lon="11.3925864"><ele>283.66666666666663</ele><time>2026-04-03T09:57:14.74Z</time></trkpt><trkpt lat="43.1614893" lon="11.3927539"><ele>281.3333333333333</ele><time>2026-04-03T09:57:15.739Z</time></trkpt><trkpt lat="43.1613806" lon="11.3928881"><ele>279.0</ele><time>2026-04-03T09:57:16.74Z</time></trkpt><trkpt lat="43.1612384" lon="11.3930085"><ele>279.0</ele><time>2026-04-03T09:57:17.74Z</time></trkpt><trkpt lat="43.1610744" lon="11.3931182"><ele>279.0</ele><time>2026-04-03T09:57:18.739Z</time></trkpt><trkpt lat="43.160882" lon="11.3932106"><ele>279.0</ele><time>2026-04-03T09:57:19.74Z</time></trkpt><trkpt lat="43.1606701" lon="11.3933004"><ele>278.0</ele><time>2026-04-03T09:57:20.74Z</time></trkpt><trkpt lat="43.1604499" lon="11.3933925"><ele>277.0</ele><time>2026-04-03T09:57:21.74Z</time></trkpt><trkpt lat="43.1602218" lon="11.3934968"><ele>277.0</ele><time>2026-04-03T09:57:22.739Z</time></trkpt><trkpt lat="43.1599982" lon="11.3936087"><ele>277.0</ele><time>2026-04-03T09:57:23.739Z</time></trkpt><trkpt lat="43.1597885" lon="11.3937335"><ele>276.66666666666663</ele><time>2026-04-03T09:57:24.74Z</time></trkpt><trkpt lat="43.1595937" lon="11.3938729"><ele>276.3333333333333</ele><time>2026-04-03T09:57:25.74Z</time></trkpt><trkpt lat="43.1594096" lon="11.3940386"><ele>276.0</ele><time>2026-04-03T09:57:26.739Z</time></trkpt><trkpt lat="43.1592427" lon="11.3942121"><ele>276.0</ele><time>2026-04-03T09:57:27.739Z</time></trkpt><trkpt lat="43.1590846" lon="11.3944282"><ele>276.0</ele><time>2026-04-03T09:57:28.74Z</time></trkpt><trkpt lat="43.15894" lon="11.3946617"><ele>276.0</ele><time>2026-04-03T09:57:29.739Z</time></trkpt><trkpt lat="43.1588185" lon="11.3949464"><ele>277.5</ele><time>2026-04-03T09:57:30.74Z</time></trkpt><trkpt lat="43.1587439" lon="11.3952376"><ele>279.0</ele><time>2026-04-03T09:57:31.74Z</time></trkpt><trkpt lat="43.1587006" lon="11.3955533"><ele>279.0</ele><time>2026-04-03T09:57:32.74Z</time></trkpt><trkpt lat="43.1586923" lon="11.3959046"><ele>279.0</ele><time>2026-04-03T09:57:33.739Z</time></trkpt><trkpt lat="43.1586914" lon="11.3962821"><ele>279.5</ele><time>2026-04-03T09:57:34.739Z</time></trkpt><trkpt lat="43.1586888" lon="11.3966711"><ele>280.0</ele><time>2026-04-03T09:57:35.74Z</time></trkpt><trkpt lat="43.158682" lon="11.3970541"><ele>280.0</ele><time>2026-04-03T09:57:36.74Z</time></trkpt><trkpt lat="43.1586792" lon="11.3974098"><ele>280.0</ele><time>2026-04-03T09:57:37.74Z</time></trkpt><trkpt lat="43.1586987" lon="11.3977493"><ele>281.0</ele><time>2026-04-03T09:57:38.739Z</time></trkpt><trkpt lat="43.1587435" lon="11.3980776"><ele>282.0</ele><time>2026-04-03T09:57:39.74Z</time></trkpt><trkpt lat="43.1588133" lon="11.3983859"><ele>282.0</ele><time>2026-04-03T09:57:40.74Z</time></trkpt><trkpt lat="43.1588765" lon="11.3986643"><ele>282.0</ele><time>2026-04-03T09:57:41.74Z</time></trkpt><trkpt lat="43.1589215" lon="11.398918"><ele>282.0</ele><time>2026-04-03T09:57:42.74Z</time></trkpt><trkpt lat="43.1589316" lon="11.399145"><ele>282.5</ele><time>2026-04-03T09:57:43.74Z</time></trkpt><trkpt lat="43.1589095" lon="11.3993363"><ele>283.0</ele><time>2026-04-03T09:57:44.74Z</time></trkpt><trkpt lat="43.1588602" lon="11.3994772"><ele>283.5</ele><time>2026-04-03T09:57:45.74Z</time></trkpt><trkpt lat="43.1587825" lon="11.3995641"><ele>284.0</ele><time>2026-04-03T09:57:46.74Z</time></trkpt><trkpt lat="43.1586702" lon="11.3996122"><ele>284.0</ele><time>2026-04-03T09:57:47.739Z</time></trkpt><trkpt lat="43.15853" lon="11.3996166"><ele>284.0</ele><time>2026-04-03T09:57:48.74Z</time></trkpt><trkpt lat="43.158348" lon="11.3996243"><ele>284.0</ele><time>2026-04-03T09:57:49.74Z</time></trkpt><trkpt lat="43.1581777" lon="11.3996378"><ele>286.0</ele><time>2026-04-03T09:57:50.74Z</time></trkpt><trkpt lat="43.1580021" lon="11.3996885"><ele>288.0</ele><time>2026-04-03T09:57:51.739Z</time></trkpt><trkpt lat="43.157838" lon="11.399797"><ele>290.0</ele><time>2026-04-03T09:57:52.74Z</time></trkpt><trkpt lat="43.1576688" lon="11.3999486"><ele>290.0</ele><time>2026-04-03T09:57:53.74Z</time></trkpt><trkpt lat="43.1574957" lon="11.4000867"><ele>290.0</ele><time>2026-04-03T09:57:54.74Z</time></trkpt><trkpt lat="43.157335" lon="11.4001577"><ele>290.0</ele><time>2026-04-03T09:57:55.74Z</time></trkpt><trkpt lat="43.1571544" lon="11.400179"><ele>291.33333333333337</ele><time>2026-04-03T09:57:56.74Z</time></trkpt><trkpt lat="43.1569691" lon="11.4001238"><ele>292.6666666666667</ele><time>2026-04-03T09:57:57.739Z</time></trkpt><trkpt lat="43.1567915" lon="11.4000548"><ele>294.0</ele><time>2026-04-03T09:57:58.739Z</time></trkpt><trkpt lat="43.1566351" lon="11.4000101"><ele>297.25</ele><time>2026-04-03T09:57:59.74Z</time></trkpt><trkpt lat="43.1565126" lon="11.4000003"><ele>300.5</ele><time>2026-04-03T09:58:00.74Z</time></trkpt><trkpt lat="43.1564074" lon="11.4000362"><ele>303.75</ele><time>2026-04-03T09:58:01.739Z</time></trkpt><trkpt lat="43.1563355" lon="11.4001449"><ele>307.0</ele><time>2026-04-03T09:58:02.74Z</time></trkpt><trkpt lat="43.1563016" lon="11.4002998"><ele>307.0</ele><time>2026-04-03T09:58:03.739Z</time></trkpt><trkpt lat="43.156317" lon="11.4004838"><ele>307.0</ele><time>2026-04-03T09:58:04.739Z</time></trkpt><trkpt lat="43.1563846" lon="11.4006587"><ele>307.0</ele><time>2026-04-03T09:58:05.74Z</time></trkpt><trkpt lat="43.1564861" lon="11.4008973"><ele>300.3333333333333</ele><time>2026-04-03T09:58:06.739Z</time></trkpt><trkpt lat="43.156596" lon="11.4011366"><ele>293.6666666666667</ele><time>2026-04-03T09:58:07.74Z</time></trkpt><trkpt lat="43.1566584" lon="11.4013343"><ele>287.0</ele><time>2026-04-03T09:58:08.739Z</time></trkpt><trkpt lat="43.1566976" lon="11.401526"><ele>286.33333333333337</ele><time>2026-04-03T09:58:09.74Z</time></trkpt><trkpt lat="43.1567044" lon="11.4017423"><ele>285.6666666666667</ele><time>2026-04-03T09:58:10.74Z</time></trkpt><trkpt lat="43.1566621" lon="11.4020139"><ele>285.0</ele><time>2026-04-03T09:58:11.739Z</time></trkpt><trkpt lat="43.1566057" lon="11.4023207"><ele>284.0</ele><time>2026-04-03T09:58:12.74Z</time></trkpt><trkpt lat="43.1565555" lon="11.4026522"><ele>283.0</ele><time>2026-04-03T09:58:13.74Z</time></trkpt><trkpt lat="43.1565052" lon="11.4029976"><ele>286.0</ele><time>2026-04-03T09:58:14.74Z</time></trkpt><trkpt lat="43.1564701" lon="11.4033125"><ele>289.0</ele><time>2026-04-03T09:58:15.739Z</time></trkpt><trkpt lat="43.1564432" lon="11.4035918"><ele>292.0</ele><time>2026-04-03T09:58:16.74Z</time></trkpt><trkpt lat="43.1564163" lon="11.4038403"><ele>292.0</ele><time>2026-04-03T09:58:17.74Z</time></trkpt><trkpt lat="43.1563887" lon="11.404058"><ele>292.0</ele><time>2026-04-03T09:58:18.74Z</time></trkpt><trkpt lat="43.1563383" lon="11.4042533"><ele>292.0</ele><time>2026-04-03T09:58:19.74Z</time></trkpt><trkpt lat="43.1562559" lon="11.4044346"><ele>292.0</ele><time>2026-04-03T09:58:20.74Z</time></trkpt><trkpt lat="43.1561184" lon="11.4045878"><ele>292.0</ele><time>2026-04-03T09:58:21.74Z</time></trkpt><trkpt lat="43.1559627" lon="11.404715"><ele>292.0</ele><time>2026-04-03T09:58:22.739Z</time></trkpt><trkpt lat="43.1557931" lon="11.4048093"><ele>288.5</ele><time>2026-04-03T09:58:23.74Z</time></trkpt><trkpt lat="43.1555799" lon="11.4048627"><ele>285.0</ele><time>2026-04-03T09:58:24.74Z</time></trkpt><trkpt lat="43.1553487" lon="11.4049075"><ele>285.0</ele><time>2026-04-03T09:58:25.739Z</time></trkpt><trkpt lat="43.1550854" lon="11.4049951"><ele>285.0</ele><time>2026-04-03T09:58:26.74Z</time></trkpt><trkpt lat="43.154821" lon="11.4051152"><ele>288.0</ele><time>2026-04-03T09:58:27.74Z</time></trkpt><trkpt lat="43.1545973" lon="11.4052325"><ele>291.0</ele><time>2026-04-03T09:58:28.74Z</time></trkpt><trkpt lat="43.1544072" lon="11.4053501"><ele>294.0</ele><time>2026-04-03T09:58:29.74Z</time></trkpt><trkpt lat="43.1542353" lon="11.4054704"><ele>291.3333333333333</ele><time>2026-04-03T09:58:30.74Z</time></trkpt><trkpt lat="43.1540715" lon="11.4055812"><ele>288.66666666666663</ele><time>2026-04-03T09:58:31.74Z</time></trkpt><trkpt lat="43.1538892" lon="11.4056519"><ele>286.0</ele><time>2026-04-03T09:58:32.739Z</time></trkpt><trkpt lat="43.153689" lon="11.4056838"><ele>286.0</ele><time>2026-04-03T09:58:33.739Z</time></trkpt><trkpt lat="43.1535016" lon="11.4057097"><ele>286.0</ele><time>2026-04-03T09:58:34.74Z</time></trkpt><trkpt lat="43.1533352" lon="11.4057825"><ele>286.0</ele><time>2026-04-03T09:58:35.739Z</time></trkpt><trkpt lat="43.1531687" lon="11.4059182"><ele>285.0</ele><time>2026-04-03T09:58:36.739Z</time></trkpt><trkpt lat="43.1529986" lon="11.4060793"><ele>284.0</ele><time>2026-04-03T09:58:37.739Z</time></trkpt><trkpt lat="43.1528093" lon="11.4062494"><ele>283.0</ele><time>2026-04-03T09:58:38.74Z</time></trkpt><trkpt lat="43.1526126" lon="11.4063871"><ele>283.0</ele><time>2026-04-03T09:58:39.739Z</time></trkpt><trkpt lat="43.1524148" lon="11.4064913"><ele>283.0</ele><time>2026-04-03T09:58:40.739Z</time></trkpt><trkpt lat="43.1522132" lon="11.4065608"><ele>283.0</ele><time>2026-04-03T09:58:41.74Z</time></trkpt><trkpt lat="43.151974" lon="11.4065942"><ele>283.0</ele><time>2026-04-03T09:58:42.74Z</time></trkpt><trkpt lat="43.1517028" lon="11.406625"><ele>283.0</ele><time>2026-04-03T09:58:43.74Z</time></trkpt><trkpt lat="43.1514228" lon="11.4066799"><ele>284.5</ele><time>2026-04-03T09:58:44.739Z</time></trkpt><trkpt lat="43.1511762" lon="11.4067497"><ele>286.0</ele><time>2026-04-03T09:58:45.739Z</time></trkpt><trkpt lat="43.15096" lon="11.406805"><ele>286.0</ele><time>2026-04-03T09:58:46.739Z</time></trkpt><trkpt lat="43.1507442" lon="11.4068124"><ele>286.0</ele><time>2026-04-03T09:58:47.739Z</time></trkpt><trkpt lat="43.1505372" lon="11.4067743"><ele>286.0</ele><time>2026-04-03T09:58:48.739Z</time></trkpt><trkpt lat="43.1503564" lon="11.4067136"><ele>284.3333333333333</ele><time>2026-04-03T09:58:49.74Z</time></trkpt><trkpt lat="43.1502069" lon="11.4066293"><ele>282.6666666666667</ele><time>2026-04-03T09:58:50.739Z</time></trkpt><trkpt lat="43.1500793" lon="11.4064968"><ele>281.0</ele><time>2026-04-03T09:58:51.74Z</time></trkpt><trkpt lat="43.1499724" lon="11.4063509"><ele>282.0</ele><time>2026-04-03T09:58:52.74Z</time></trkpt><trkpt lat="43.1498729" lon="11.4062465"><ele>283.0</ele><time>2026-04-03T09:58:53.739Z</time></trkpt><trkpt lat="43.1497339" lon="11.4062121"><ele>284.0</ele><time>2026-04-03T09:58:54.74Z</time></trkpt><trkpt lat="43.1495903" lon="11.4062319"><ele>285.0</ele><time>2026-04-03T09:58:55.739Z</time></trkpt><trkpt lat="43.1494526" lon="11.4063353"><ele>285.0</ele><time>2026-04-03T09:58:56.74Z</time></trkpt><trkpt lat="43.1493317" lon="11.4064859"><ele>285.0</ele><time>2026-04-03T09:58:57.739Z</time></trkpt><trkpt lat="43.1492288" lon="11.4066289"><ele>285.0</ele><time>2026-04-03T09:58:58.74Z</time></trkpt><trkpt lat="43.1491024" lon="11.4066992"><ele>285.0</ele><time>2026-04-03T09:58:59.739Z</time></trkpt><trkpt lat="43.1489286" lon="11.4067338"><ele>286.3333333333333</ele><time>2026-04-03T09:59:00.74Z</time></trkpt><trkpt lat="43.1487613" lon="11.4067703"><ele>287.66666666666663</ele><time>2026-04-03T09:59:01.739Z</time></trkpt><trkpt lat="43.1486033" lon="11.4068309"><ele>289.0</ele><time>2026-04-03T09:59:02.74Z</time></trkpt><trkpt lat="43.148459" lon="11.4069669"><ele>289.0</ele><time>2026-04-03T09:59:03.739Z</time></trkpt><trkpt lat="43.1483355" lon="11.4071598"><ele>289.0</ele><time>2026-04-03T09:59:04.74Z</time></trkpt><trkpt lat="43.1482249" lon="11.4074067"><ele>289.0</ele><time>2026-04-03T09:59:05.74Z</time></trkpt><trkpt lat="43.148115" lon="11.4076482"><ele>290.0</ele><time>2026-04-03T09:59:06.74Z</time></trkpt><trkpt lat="43.1480164" lon="11.4078841"><ele>291.0</ele><time>2026-04-03T09:59:07.739Z</time></trkpt><trkpt lat="43.1479425" lon="11.4081588"><ele>292.0</ele><time>2026-04-03T09:59:08.739Z</time></trkpt><trkpt lat="43.1479022" lon="11.4084896"><ele>286.0</ele><time>2026-04-03T09:59:09.74Z</time></trkpt><trkpt lat="43.1478706" lon="11.4088423"><ele>280.0</ele><time>2026-04-03T09:59:10.74Z</time></trkpt><trkpt lat="43.1478194" lon="11.4091562"><ele>280.0</ele><time>2026-04-03T09:59:11.74Z</time></trkpt><trkpt lat="43.1477735" lon="11.4094389"><ele>280.0</ele><time>2026-04-03T09:59:12.739Z</time></trkpt><trkpt lat="43.1477276" lon="11.4096992"><ele>280.0</ele><time>2026-04-03T09:59:13.74Z</time></trkpt><trkpt lat="43.1476794" lon="11.4099426"><ele>277.66666666666663</ele><time>2026-04-03T09:59:14.739Z</time></trkpt><trkpt lat="43.1476138" lon="11.4101541"><ele>275.3333333333333</ele><time>2026-04-03T09:59:15.74Z</time></trkpt><trkpt lat="43.1475137" lon="11.4103451"><ele>273.0</ele><time>2026-04-03T09:59:16.739Z</time></trkpt><trkpt lat="43.1473785" lon="11.4105134"><ele>270.6666666666667</ele><time>2026-04-03T09:59:17.74Z</time></trkpt><trkpt lat="43.1472003" lon="11.4106419"><ele>268.33333333333337</ele><time>2026-04-03T09:59:18.74Z</time></trkpt><trkpt lat="43.1470016" lon="11.4107711"><ele>266.0</ele><time>2026-04-03T09:59:19.739Z</time></trkpt><trkpt lat="43.1468149" lon="11.410932"><ele>266.0</ele><time>2026-04-03T09:59:20.739Z</time></trkpt><trkpt lat="43.1466502" lon="11.4111338"><ele>266.0</ele><time>2026-04-03T09:59:21.74Z</time></trkpt><trkpt lat="43.1464925" lon="11.4113866"><ele>264.33333333333337</ele><time>2026-04-03T09:59:22.74Z</time></trkpt><trkpt lat="43.1463445" lon="11.411632"><ele>262.6666666666667</ele><time>2026-04-03T09:59:23.74Z</time></trkpt><trkpt lat="43.1462095" lon="11.4118614"><ele>261.0</ele><time>2026-04-03T09:59:24.74Z</time></trkpt><trkpt lat="43.1460898" lon="11.4121006"><ele>258.3333333333333</ele><time>2026-04-03T09:59:25.739Z</time></trkpt><trkpt lat="43.1459946" lon="11.4123702"><ele>255.66666666666666</ele><time>2026-04-03T09:59:26.74Z</time></trkpt><trkpt lat="43.1459221" lon="11.4126401"><ele>253.0</ele><time>2026-04-03T09:59:27.739Z</time></trkpt><trkpt lat="43.1458663" lon="11.4128994"><ele>252.66666666666666</ele><time>2026-04-03T09:59:28.739Z</time></trkpt><trkpt lat="43.1457941" lon="11.4131431"><ele>252.33333333333331</ele><time>2026-04-03T09:59:29.74Z</time></trkpt><trkpt lat="43.1456875" lon="11.4133794"><ele>252.0</ele><time>2026-04-03T09:59:30.74Z</time></trkpt><trkpt lat="43.1455575" lon="11.4136023"><ele>250.0</ele><time>2026-04-03T09:59:31.74Z</time></trkpt><trkpt lat="43.145429" lon="11.4137954"><ele>248.0</ele><time>2026-04-03T09:59:32.739Z</time></trkpt><trkpt lat="43.1453259" lon="11.4139736"><ele>246.0</ele><time>2026-04-03T09:59:33.74Z</time></trkpt><trkpt lat="43.1452634" lon="11.4141524"><ele>244.66666666666669</ele><time>2026-04-03T09:59:34.739Z</time></trkpt><trkpt lat="43.1452278" lon="11.4143463"><ele>243.33333333333334</ele><time>2026-04-03T09:59:35.74Z</time></trkpt><trkpt lat="43.1452458" lon="11.4145567"><ele>242.0</ele><time>2026-04-03T09:59:36.74Z</time></trkpt><trkpt lat="43.1453108" lon="11.4147622"><ele>240.0</ele><time>2026-04-03T09:59:37.74Z</time></trkpt><trkpt lat="43.1454118" lon="11.4149486"><ele>238.0</ele><time>2026-04-03T09:59:38.739Z</time></trkpt><trkpt lat="43.1455416" lon="11.4151352"><ele>236.0</ele><time>2026-04-03T09:59:39.739Z</time></trkpt><trkpt lat="43.1456459" lon="11.4153311"><ele>237.0</ele><time>2026-04-03T09:59:40.739Z</time></trkpt><trkpt lat="43.1457205" lon="11.4155341"><ele>238.0</ele><time>2026-04-03T09:59:41.74Z</time></trkpt><trkpt lat="43.1457646" lon="11.4157508"><ele>239.0</ele><time>2026-04-03T09:59:42.74Z</time></trkpt><trkpt lat="43.1457798" lon="11.4160054"><ele>239.0</ele><time>2026-04-03T09:59:43.74Z</time></trkpt><trkpt lat="43.1457541" lon="11.4162895"><ele>239.0</ele><time>2026-04-03T09:59:44.74Z</time></trkpt><trkpt lat="43.1457256" lon="11.4165921"><ele>239.0</ele><time>2026-04-03T09:59:45.739Z</time></trkpt><trkpt lat="43.1456927" lon="11.4168799"><ele>233.33333333333334</ele><time>2026-04-03T09:59:46.74Z</time></trkpt><trkpt lat="43.1456449" lon="11.4171512"><ele>227.66666666666669</ele><time>2026-04-03T09:59:47.74Z</time></trkpt><trkpt lat="43.1455742" lon="11.417419"><ele>222.0</ele><time>2026-04-03T09:59:48.74Z</time></trkpt><trkpt lat="43.1454973" lon="11.4176795"><ele>220.33333333333331</ele><time>2026-04-03T09:59:49.74Z</time></trkpt><trkpt lat="43.1454316" lon="11.4179236"><ele>218.66666666666666</ele><time>2026-04-03T09:59:50.739Z</time></trkpt><trkpt lat="43.1453859" lon="11.4181867"><ele>217.0</ele><time>2026-04-03T09:59:51.739Z</time></trkpt><trkpt lat="43.1453636" lon="11.4184872"><ele>216.0</ele><time>2026-04-03T09:59:52.739Z</time></trkpt><trkpt lat="43.1453517" lon="11.4187907"><ele>215.0</ele><time>2026-04-03T09:59:53.739Z</time></trkpt><trkpt lat="43.1453282" lon="11.419094"><ele>214.0</ele><time>2026-04-03T09:59:54.74Z</time></trkpt><trkpt lat="43.1452875" lon="11.4193872"><ele>212.66666666666666</ele><time>2026-04-03T09:59:55.74Z</time></trkpt><trkpt lat="43.1452303" lon="11.4196652"><ele>211.33333333333331</ele><time>2026-04-03T09:59:56.74Z</time></trkpt><trkpt lat="43.1451821" lon="11.4199089"><ele>210.0</ele><time>2026-04-03T09:59:57.739Z</time></trkpt><trkpt lat="43.1451548" lon="11.4201323"><ele>210.0</ele><time>2026-04-03T09:59:58.74Z</time></trkpt><trkpt lat="43.1451473" lon="11.4203446"><ele>210.0</ele><time>2026-04-03T09:59:59.739Z</time></trkpt><trkpt lat="43.1451486" lon="11.4205369"><ele>210.0</ele><time>2026-04-03T10:00:00.74Z</time></trkpt><trkpt lat="43.1451508" lon="11.4206993"><ele>210.0</ele><time>2026-04-03T10:00:01.74Z</time></trkpt><trkpt lat="43.1451511" lon="11.420843"><ele>209.4</ele><time>2026-04-03T10:00:02.74Z</time></trkpt><trkpt lat="43.145146" lon="11.420986"><ele>208.8</ele><time>2026-04-03T10:00:03.74Z</time></trkpt><trkpt lat="43.1451586" lon="11.421128"><ele>208.2</ele><time>2026-04-03T10:00:04.74Z</time></trkpt><trkpt lat="43.1451945" lon="11.4212701"><ele>207.6</ele><time>2026-04-03T10:00:05.74Z</time></trkpt><trkpt lat="43.1452401" lon="11.4214153"><ele>207.0</ele><time>2026-04-03T10:00:06.739Z</time></trkpt><trkpt lat="43.1452929" lon="11.4215752"><ele>206.75</ele><time>2026-04-03T10:00:07.739Z</time></trkpt><trkpt lat="43.145349" lon="11.4217503"><ele>206.5</ele><time>2026-04-03T10:00:08.74Z</time></trkpt><trkpt lat="43.1454095" lon="11.4219332"><ele>206.25</ele><time>2026-04-03T10:00:09.74Z</time></trkpt><trkpt lat="43.145472" lon="11.4221305"><ele>206.0</ele><time>2026-04-03T10:00:10.74Z</time></trkpt><trkpt lat="43.1455342" lon="11.4223189"><ele>206.75</ele><time>2026-04-03T10:00:11.74Z</time></trkpt><trkpt lat="43.1455917" lon="11.4224986"><ele>207.5</ele><time>2026-04-03T10:00:12.74Z</time></trkpt><trkpt lat="43.1456501" lon="11.4226577"><ele>208.25</ele><time>2026-04-03T10:00:13.74Z</time></trkpt><trkpt lat="43.1457086" lon="11.4228078"><ele>209.0</ele><time>2026-04-03T10:00:14.74Z</time></trkpt><trkpt lat="43.1457659" lon="11.4229613"><ele>208.5</ele><time>2026-04-03T10:00:15.739Z</time></trkpt><trkpt lat="43.1458229" lon="11.4231284"><ele>208.0</ele><time>2026-04-03T10:00:16.74Z</time></trkpt><trkpt lat="43.1458754" lon="11.4232917"><ele>207.5</ele><time>2026-04-03T10:00:17.74Z</time></trkpt><trkpt lat="43.1459184" lon="11.4234497"><ele>207.0</ele><time>2026-04-03T10:00:18.739Z</time></trkpt><trkpt lat="43.1459459" lon="11.4235985"><ele>207.0</ele><time>2026-04-03T10:00:19.74Z</time></trkpt><trkpt lat="43.1459606" lon="11.4237434"><ele>207.0</ele><time>2026-04-03T10:00:20.74Z</time></trkpt><trkpt lat="43.1459647" lon="11.423881"><ele>207.0</ele><time>2026-04-03T10:00:21.739Z</time></trkpt><trkpt lat="43.1459491" lon="11.4240208"><ele>207.0</ele><time>2026-04-03T10:00:22.74Z</time></trkpt><trkpt lat="43.1459117" lon="11.4241561"><ele>207.0</ele><time>2026-04-03T10:00:23.74Z</time></trkpt><trkpt lat="43.1458635" lon="11.4242945"><ele>206.8</ele><time>2026-04-03T10:00:24.74Z</time></trkpt><trkpt lat="43.1458051" lon="11.4244337"><ele>206.6</ele><time>2026-04-03T10:00:25.739Z</time></trkpt><trkpt lat="43.1457454" lon="11.4245649"><ele>206.4</ele><time>2026-04-03T10:00:26.74Z</time></trkpt><trkpt lat="43.1456847" lon="11.424673"><ele>206.20000000000002</ele><time>2026-04-03T10:00:27.74Z</time></trkpt><trkpt lat="43.145631" lon="11.4247735"><ele>206.0</ele><time>2026-04-03T10:00:28.74Z</time></trkpt><trkpt lat="43.1455913" lon="11.4248693"><ele>206.00000000000003</ele><time>2026-04-03T10:00:29.739Z</time></trkpt><trkpt lat="43.1455685" lon="11.4249638"><ele>206.0</ele><time>2026-04-03T10:00:30.74Z</time></trkpt><trkpt lat="43.1455698" lon="11.4250667"><ele>206.0</ele><time>2026-04-03T10:00:31.74Z</time></trkpt><trkpt lat="43.1456023" lon="11.4251633"><ele>206.0</ele><time>2026-04-03T10:00:32.74Z</time></trkpt><trkpt lat="43.1456574" lon="11.425251"><ele>206.00000000000003</ele><time>2026-04-03T10:00:33.74Z</time></trkpt><trkpt lat="43.1457242" lon="11.4253221"><ele>206.0</ele><time>2026-04-03T10:00:34.739Z</time></trkpt><trkpt lat="43.145809" lon="11.4253767"><ele>206.0</ele><time>2026-04-03T10:00:35.739Z</time></trkpt><trkpt lat="43.1459096" lon="11.425431"><ele>206.0</ele><time>2026-04-03T10:00:36.74Z</time></trkpt><trkpt lat="43.1460083" lon="11.4255002"><ele>206.0</ele><time>2026-04-03T10:00:37.74Z</time></trkpt><trkpt lat="43.1461115" lon="11.425597"><ele>206.0</ele><time>2026-04-03T10:00:38.74Z</time></trkpt><trkpt lat="43.1462135" lon="11.4257104"><ele>204.33333333333334</ele><time>2026-04-03T10:00:39.74Z</time></trkpt><trkpt lat="43.1463311" lon="11.4258452"><ele>202.66666666666669</ele><time>2026-04-03T10:00:40.74Z</time></trkpt><trkpt lat="43.1464614" lon="11.4259817"><ele>201.0</ele><time>2026-04-03T10:00:41.739Z</time></trkpt><trkpt lat="43.1466021" lon="11.4261163"><ele>201.0</ele><time>2026-04-03T10:00:42.739Z</time></trkpt><trkpt lat="43.1467378" lon="11.4262361"><ele>201.0</ele><time>2026-04-03T10:00:43.74Z</time></trkpt><trkpt lat="43.1468712" lon="11.4263462"><ele>201.0</ele><time>2026-04-03T10:00:44.74Z</time></trkpt><trkpt lat="43.1469981" lon="11.4264438"><ele>201.0</ele><time>2026-04-03T10:00:45.74Z</time></trkpt><trkpt lat="43.1471178" lon="11.4265515"><ele>201.0</ele><time>2026-04-03T10:00:46.739Z</time></trkpt><trkpt lat="43.1472303" lon="11.4266727"><ele>201.0</ele><time>2026-04-03T10:00:47.74Z</time></trkpt><trkpt lat="43.1473344" lon="11.4268049"><ele>201.0</ele><time>2026-04-03T10:00:48.74Z</time></trkpt><trkpt lat="43.1474331" lon="11.4269267"><ele>201.0</ele><time>2026-04-03T10:00:49.74Z</time></trkpt><trkpt lat="43.1475225" lon="11.4270214"><ele>201.0</ele><time>2026-04-03T10:00:50.739Z</time></trkpt><trkpt lat="43.1476188" lon="11.4270971"><ele>201.0</ele><time>2026-04-03T10:00:51.74Z</time></trkpt><trkpt lat="43.147726" lon="11.4271576"><ele>201.0</ele><time>2026-04-03T10:00:52.74Z</time></trkpt><trkpt lat="43.1478414" lon="11.4272002"><ele>202.0</ele><time>2026-04-03T10:00:53.74Z</time></trkpt><trkpt lat="43.1479705" lon="11.4272387"><ele>203.0</ele><time>2026-04-03T10:00:54.74Z</time></trkpt><trkpt lat="43.1481068" lon="11.4272758"><ele>204.0</ele><time>2026-04-03T10:00:55.74Z</time></trkpt><trkpt lat="43.1482397" lon="11.4273299"><ele>205.0</ele><time>2026-04-03T10:00:56.739Z</time></trkpt><trkpt lat="43.1483769" lon="11.4274003"><ele>205.0</ele><time>2026-04-03T10:00:57.74Z</time></trkpt><trkpt lat="43.1485208" lon="11.4274766"><ele>205.0</ele><time>2026-04-03T10:00:58.74Z</time></trkpt><trkpt lat="43.1486569" lon="11.4275477"><ele>205.0</ele><time>2026-04-03T10:00:59.74Z</time></trkpt><trkpt lat="43.1487952" lon="11.4276219"><ele>205.0</ele><time>2026-04-03T10:01:00.74Z</time></trkpt><trkpt lat="43.1489244" lon="11.4276904"><ele>204.75</ele><time>2026-04-03T10:01:01.739Z</time></trkpt><trkpt lat="43.149047" lon="11.4277601"><ele>204.5</ele><time>2026-04-03T10:01:02.74Z</time></trkpt><trkpt lat="43.1491642" lon="11.4278372"><ele>204.25</ele><time>2026-04-03T10:01:03.74Z</time></trkpt><trkpt lat="43.1492846" lon="11.4279332"><ele>204.0</ele><time>2026-04-03T10:01:04.739Z</time></trkpt><trkpt lat="43.149407" lon="11.4280585"><ele>200.66666666666669</ele><time>2026-04-03T10:01:05.74Z</time></trkpt><trkpt lat="43.1495291" lon="11.428192"><ele>197.33333333333334</ele><time>2026-04-03T10:01:06.74Z</time></trkpt><trkpt lat="43.1496499" lon="11.4283247"><ele>194.0</ele><time>2026-04-03T10:01:07.739Z</time></trkpt><trkpt lat="43.1497644" lon="11.4284391"><ele>194.0</ele><time>2026-04-03T10:01:08.74Z</time></trkpt><trkpt lat="43.1498678" lon="11.4285448"><ele>194.0</ele><time>2026-04-03T10:01:09.74Z</time></trkpt><trkpt lat="43.1499613" lon="11.4286541"><ele>194.0</ele><time>2026-04-03T10:01:10.74Z</time></trkpt><trkpt lat="43.1500492" lon="11.4287783"><ele>194.0</ele><time>2026-04-03T10:01:11.739Z</time></trkpt><trkpt lat="43.15013" lon="11.4289157"><ele>192.75</ele><time>2026-04-03T10:01:12.74Z</time></trkpt><trkpt lat="43.1502006" lon="11.4290528"><ele>191.5</ele><time>2026-04-03T10:01:13.74Z</time></trkpt><trkpt lat="43.1502758" lon="11.4291825"><ele>190.25</ele><time>2026-04-03T10:01:14.74Z</time></trkpt><trkpt lat="43.1503606" lon="11.4293083"><ele>189.0</ele><time>2026-04-03T10:01:15.74Z</time></trkpt><trkpt lat="43.1504579" lon="11.4294373"><ele>189.0</ele><time>2026-04-03T10:01:16.74Z</time></trkpt><trkpt lat="43.1505482" lon="11.4295601"><ele>189.0</ele><time>2026-04-03T10:01:17.74Z</time></trkpt><trkpt lat="43.1506461" lon="11.4296781"><ele>189.0</ele><time>2026-04-03T10:01:18.74Z</time></trkpt><trkpt lat="43.1507502" lon="11.4297786"><ele>189.0</ele><time>2026-04-03T10:01:19.74Z</time></trkpt><trkpt lat="43.150859" lon="11.4298762"><ele>189.25</ele><time>2026-04-03T10:01:20.74Z</time></trkpt><trkpt lat="43.1509571" lon="11.4299816"><ele>189.5</ele><time>2026-04-03T10:01:21.74Z</time></trkpt><trkpt lat="43.1510328" lon="11.4300946"><ele>189.75</ele><time>2026-04-03T10:01:22.74Z</time></trkpt><trkpt lat="43.1510892" lon="11.4302216"><ele>190.0</ele><time>2026-04-03T10:01:23.739Z</time></trkpt><trkpt lat="43.1511185" lon="11.4303612"><ele>188.25</ele><time>2026-04-03T10:01:24.74Z</time></trkpt><trkpt lat="43.1511309" lon="11.4305118"><ele>186.5</ele><time>2026-04-03T10:01:25.74Z</time></trkpt><trkpt lat="43.1511285" lon="11.4306864"><ele>184.75</ele><time>2026-04-03T10:01:26.74Z</time></trkpt><trkpt lat="43.1511127" lon="11.4308945"><ele>183.0</ele><time>2026-04-03T10:01:27.74Z</time></trkpt><trkpt lat="43.1510971" lon="11.4311012"><ele>183.0</ele><time>2026-04-03T10:01:28.74Z</time></trkpt><trkpt lat="43.1510877" lon="11.4312897"><ele>183.0</ele><time>2026-04-03T10:01:29.739Z</time></trkpt><trkpt lat="43.1510895" lon="11.4314726"><ele>183.0</ele><time>2026-04-03T10:01:30.74Z</time></trkpt><trkpt lat="43.1511034" lon="11.4316519"><ele>183.0</ele><time>2026-04-03T10:01:31.74Z</time></trkpt><trkpt lat="43.1511232" lon="11.4318181"><ele>181.8</ele><time>2026-04-03T10:01:32.739Z</time></trkpt><trkpt lat="43.1511358" lon="11.4319738"><ele>180.60000000000002</ele><time>2026-04-03T10:01:33.74Z</time></trkpt><trkpt lat="43.1511358" lon="11.4321218"><ele>179.39999999999998</ele><time>2026-04-03T10:01:34.74Z</time></trkpt><trkpt lat="43.1511255" lon="11.4322686"><ele>178.2</ele><time>2026-04-03T10:01:35.74Z</time></trkpt><trkpt lat="43.1511111" lon="11.4324098"><ele>177.0</ele><time>2026-04-03T10:01:36.739Z</time></trkpt><trkpt lat="43.1511097" lon="11.4325399"><ele>176.39999999999998</ele><time>2026-04-03T10:01:37.74Z</time></trkpt><trkpt lat="43.151125" lon="11.4326621"><ele>175.79999999999998</ele><time>2026-04-03T10:01:38.74Z</time></trkpt><trkpt lat="43.1511571" lon="11.432777"><ele>175.2</ele><time>2026-04-03T10:01:39.74Z</time></trkpt><trkpt lat="43.151213" lon="11.4328909"><ele>174.6</ele><time>2026-04-03T10:01:40.739Z</time></trkpt><trkpt lat="43.1512856" lon="11.4330148"><ele>174.0</ele><time>2026-04-03T10:01:41.739Z</time></trkpt><trkpt lat="43.1513764" lon="11.4331334"><ele>173.2</ele><time>2026-04-03T10:01:42.739Z</time></trkpt><trkpt lat="43.1514754" lon="11.4332435"><ele>172.39999999999998</ele><time>2026-04-03T10:01:43.74Z</time></trkpt><trkpt lat="43.1515686" lon="11.4333395"><ele>171.6</ele><time>2026-04-03T10:01:44.739Z</time></trkpt><trkpt lat="43.1516508" lon="11.4334111"><ele>170.8</ele><time>2026-04-03T10:01:45.74Z</time></trkpt><trkpt lat="43.1517329" lon="11.4334719"><ele>170.0</ele><time>2026-04-03T10:01:46.74Z</time></trkpt><trkpt lat="43.1518187" lon="11.433513"><ele>171.33333333333331</ele><time>2026-04-03T10:01:47.739Z</time></trkpt><trkpt lat="43.1519006" lon="11.4335326"><ele>172.66666666666666</ele><time>2026-04-03T10:01:48.739Z</time></trkpt><trkpt lat="43.1519795" lon="11.4335302"><ele>174.0</ele><time>2026-04-03T10:01:49.74Z</time></trkpt><trkpt lat="43.1520553" lon="11.433501"><ele>175.33333333333334</ele><time>2026-04-03T10:01:50.739Z</time></trkpt><trkpt lat="43.1521384" lon="11.4334312"><ele>176.66666666666669</ele><time>2026-04-03T10:01:51.74Z</time></trkpt><trkpt lat="43.1522238" lon="11.4333438"><ele>178.0</ele><time>2026-04-03T10:01:52.74Z</time></trkpt><trkpt lat="43.1523094" lon="11.433237"><ele>178.33333333333334</ele><time>2026-04-03T10:01:53.74Z</time></trkpt><trkpt lat="43.1523905" lon="11.4331414"><ele>178.66666666666669</ele><time>2026-04-03T10:01:54.739Z</time></trkpt><trkpt lat="43.1524488" lon="11.43307"><ele>179.0</ele><time>2026-04-03T10:01:55.739Z</time></trkpt><trkpt lat="43.1525021" lon="11.4330114"><ele>179.33333333333334</ele><time>2026-04-03T10:01:56.739Z</time></trkpt><trkpt lat="43.1525548" lon="11.4329625"><ele>179.66666666666666</ele><time>2026-04-03T10:01:57.739Z</time></trkpt><trkpt lat="43.1526202" lon="11.4329604"><ele>180.0</ele><time>2026-04-03T10:01:58.74Z</time></trkpt><trkpt lat="43.1526849" lon="11.4329924"><ele>178.2</ele><time>2026-04-03T10:01:59.739Z</time></trkpt><trkpt lat="43.1527404" lon="11.4330547"><ele>176.4</ele><time>2026-04-03T10:02:00.739Z</time></trkpt><trkpt lat="43.152778" lon="11.4331396"><ele>174.60000000000002</ele><time>2026-04-03T10:02:01.74Z</time></trkpt><trkpt lat="43.1527559" lon="11.4333179"><ele>172.8</ele><time>2026-04-03T10:02:03.739Z</time></trkpt><trkpt lat="43.1526982" lon="11.4334214"><ele>171.0</ele><time>2026-04-03T10:02:04.74Z</time></trkpt><trkpt lat="43.1526171" lon="11.4335221"><ele>171.0</ele><time>2026-04-03T10:02:05.738Z</time></trkpt><trkpt lat="43.1525149" lon="11.4336379"><ele>171.0</ele><time>2026-04-03T10:02:06.739Z</time></trkpt><trkpt lat="43.1523968" lon="11.4337746"><ele>171.0</ele><time>2026-04-03T10:02:07.739Z</time></trkpt><trkpt lat="43.1522633" lon="11.4339265"><ele>170.0</ele><time>2026-04-03T10:02:08.738Z</time></trkpt><trkpt lat="43.1521303" lon="11.4340882"><ele>169.0</ele><time>2026-04-03T10:02:09.739Z</time></trkpt><trkpt lat="43.1520047" lon="11.434235"><ele>168.0</ele><time>2026-04-03T10:02:10.738Z</time></trkpt><trkpt lat="43.1518917" lon="11.43437"><ele>168.0</ele><time>2026-04-03T10:02:11.739Z</time></trkpt><trkpt lat="43.1517968" lon="11.4344865"><ele>168.0</ele><time>2026-04-03T10:02:12.738Z</time></trkpt><trkpt lat="43.1517181" lon="11.4345877"><ele>168.0</ele><time>2026-04-03T10:02:13.739Z</time></trkpt><trkpt lat="43.1516536" lon="11.4346877"><ele>168.0</ele><time>2026-04-03T10:02:14.739Z</time></trkpt><trkpt lat="43.1516046" lon="11.4347964"><ele>168.0</ele><time>2026-04-03T10:02:15.739Z</time></trkpt><trkpt lat="43.1515719" lon="11.43492"><ele>165.75</ele><time>2026-04-03T10:02:16.739Z</time></trkpt><trkpt lat="43.1515563" lon="11.4350685"><ele>163.5</ele><time>2026-04-03T10:02:17.739Z</time></trkpt><trkpt lat="43.1515669" lon="11.4352409"><ele>161.25</ele><time>2026-04-03T10:02:18.738Z</time></trkpt><trkpt lat="43.1515888" lon="11.435451"><ele>159.0</ele><time>2026-04-03T10:02:19.739Z</time></trkpt><trkpt lat="43.1516266" lon="11.4357085"><ele>158.33333333333334</ele><time>2026-04-03T10:02:20.739Z</time></trkpt><trkpt lat="43.1516696" lon="11.4359807"><ele>157.66666666666669</ele><time>2026-04-03T10:02:21.738Z</time></trkpt><trkpt lat="43.1517163" lon="11.4362647"><ele>157.0</ele><time>2026-04-03T10:02:22.739Z</time></trkpt><trkpt lat="43.1517629" lon="11.4365747"><ele>156.5</ele><time>2026-04-03T10:02:23.739Z</time></trkpt><trkpt lat="43.1518137" lon="11.4368928"><ele>156.0</ele><time>2026-04-03T10:02:24.739Z</time></trkpt><trkpt lat="43.1518606" lon="11.4371848"><ele>156.0</ele><time>2026-04-03T10:02:25.739Z</time></trkpt><trkpt lat="43.1519015" lon="11.4374515"><ele>156.0</ele><time>2026-04-03T10:02:26.739Z</time></trkpt><trkpt lat="43.1519411" lon="11.4377068"><ele>156.0</ele><time>2026-04-03T10:02:27.739Z</time></trkpt><trkpt lat="43.1519797" lon="11.4379347"><ele>157.25</ele><time>2026-04-03T10:02:28.739Z</time></trkpt><trkpt lat="43.1520088" lon="11.4381172"><ele>158.5</ele><time>2026-04-03T10:02:29.739Z</time></trkpt><trkpt lat="43.1520199" lon="11.4382646"><ele>159.75</ele><time>2026-04-03T10:02:30.739Z</time></trkpt><trkpt lat="43.1520175" lon="11.4383984"><ele>161.0</ele><time>2026-04-03T10:02:31.738Z</time></trkpt><trkpt lat="43.1519942" lon="11.4385433"><ele>161.0</ele><time>2026-04-03T10:02:32.739Z</time></trkpt><trkpt lat="43.1519509" lon="11.4386939"><ele>161.0</ele><time>2026-04-03T10:02:33.739Z</time></trkpt><trkpt lat="43.1518693" lon="11.4388489"><ele>161.0</ele><time>2026-04-03T10:02:34.739Z</time></trkpt><trkpt lat="43.1517733" lon="11.4390082"><ele>161.0</ele><time>2026-04-03T10:02:35.739Z</time></trkpt><trkpt lat="43.1516733" lon="11.4391677"><ele>161.25</ele><time>2026-04-03T10:02:36.739Z</time></trkpt><trkpt lat="43.1515815" lon="11.4393175"><ele>161.5</ele><time>2026-04-03T10:02:37.738Z</time></trkpt><trkpt lat="43.1514904" lon="11.4394766"><ele>161.75</ele><time>2026-04-03T10:02:38.738Z</time></trkpt><trkpt lat="43.151399" lon="11.4396422"><ele>162.0</ele><time>2026-04-03T10:02:39.739Z</time></trkpt><trkpt lat="43.1513131" lon="11.4398166"><ele>162.0</ele><time>2026-04-03T10:02:40.739Z</time></trkpt><trkpt lat="43.1512241" lon="11.4400177"><ele>162.0</ele><time>2026-04-03T10:02:41.738Z</time></trkpt><trkpt lat="43.1511375" lon="11.4402233"><ele>162.0</ele><time>2026-04-03T10:02:42.739Z</time></trkpt><trkpt lat="43.1510641" lon="11.4404062"><ele>162.25</ele><time>2026-04-03T10:02:43.738Z</time></trkpt><trkpt lat="43.1509889" lon="11.4405519"><ele>162.5</ele><time>2026-04-03T10:02:44.738Z</time></trkpt><trkpt lat="43.1509039" lon="11.4406823"><ele>162.75</ele><time>2026-04-03T10:02:45.738Z</time></trkpt><trkpt lat="43.150794" lon="11.4408071"><ele>163.0</ele><time>2026-04-03T10:02:46.739Z</time></trkpt><trkpt lat="43.1506574" lon="11.4409381"><ele>163.0</ele><time>2026-04-03T10:02:47.739Z</time></trkpt><trkpt lat="43.150493" lon="11.4410719"><ele>163.0</ele><time>2026-04-03T10:02:48.739Z</time></trkpt><trkpt lat="43.1502998" lon="11.4412228"><ele>163.0</ele><time>2026-04-03T10:02:49.738Z</time></trkpt><trkpt lat="43.1500947" lon="11.441386"><ele>163.0</ele><time>2026-04-03T10:02:50.738Z</time></trkpt><trkpt lat="43.1498947" lon="11.44155"><ele>163.0</ele><time>2026-04-03T10:02:51.739Z</time></trkpt><trkpt lat="43.149712" lon="11.4416999"><ele>163.0</ele><time>2026-04-03T10:02:52.739Z</time></trkpt><trkpt lat="43.1495459" lon="11.4418351"><ele>163.0</ele><time>2026-04-03T10:02:53.739Z</time></trkpt><trkpt lat="43.1493964" lon="11.4419514"><ele>163.0</ele><time>2026-04-03T10:02:54.739Z</time></trkpt><trkpt lat="43.1492552" lon="11.4420618"><ele>163.0</ele><time>2026-04-03T10:02:55.739Z</time></trkpt><trkpt lat="43.1491265" lon="11.4421715"><ele>163.25</ele><time>2026-04-03T10:02:56.739Z</time></trkpt><trkpt lat="43.1490078" lon="11.442268"><ele>163.5</ele><time>2026-04-03T10:02:57.739Z</time></trkpt><trkpt lat="43.1489039" lon="11.4423593"><ele>163.75</ele><time>2026-04-03T10:02:58.739Z</time></trkpt><trkpt lat="43.1487972" lon="11.4424605"><ele>164.0</ele><time>2026-04-03T10:02:59.739Z</time></trkpt><trkpt lat="43.1487008" lon="11.4425877"><ele>164.0</ele><time>2026-04-03T10:03:00.738Z</time></trkpt><trkpt lat="43.1486065" lon="11.4427371"><ele>164.0</ele><time>2026-04-03T10:03:01.739Z</time></trkpt><trkpt lat="43.1484948" lon="11.4429023"><ele>164.0</ele><time>2026-04-03T10:03:02.739Z</time></trkpt><trkpt lat="43.1483858" lon="11.4430602"><ele>163.75</ele><time>2026-04-03T10:03:03.739Z</time></trkpt><trkpt lat="43.1482867" lon="11.4432076"><ele>163.5</ele><time>2026-04-03T10:03:04.738Z</time></trkpt><trkpt lat="43.1482075" lon="11.4433278"><ele>163.25</ele><time>2026-04-03T10:03:05.739Z</time></trkpt><trkpt lat="43.1481444" lon="11.4434402"><ele>163.0</ele><time>2026-04-03T10:03:06.739Z</time></trkpt><trkpt lat="43.1480958" lon="11.4435518"><ele>163.0</ele><time>2026-04-03T10:03:07.738Z</time></trkpt><trkpt lat="43.1480674" lon="11.4436605"><ele>163.0</ele><time>2026-04-03T10:03:08.739Z</time></trkpt><trkpt lat="43.1480629" lon="11.4437817"><ele>163.0</ele><time>2026-04-03T10:03:09.738Z</time></trkpt><trkpt lat="43.1480828" lon="11.4439033"><ele>163.0</ele><time>2026-04-03T10:03:10.739Z</time></trkpt><trkpt lat="43.1481269" lon="11.4440386"><ele>163.0</ele><time>2026-04-03T10:03:11.739Z</time></trkpt><trkpt lat="43.1481785" lon="11.4441764"><ele>163.2</ele><time>2026-04-03T10:03:12.738Z</time></trkpt><trkpt lat="43.1482128" lon="11.4443144"><ele>163.4</ele><time>2026-04-03T10:03:13.739Z</time></trkpt><trkpt lat="43.1482206" lon="11.4444457"><ele>163.6</ele><time>2026-04-03T10:03:14.739Z</time></trkpt><trkpt lat="43.1482059" lon="11.4445748"><ele>163.79999999999998</ele><time>2026-04-03T10:03:15.738Z</time></trkpt><trkpt lat="43.1481696" lon="11.4446781"><ele>164.0</ele><time>2026-04-03T10:03:16.738Z</time></trkpt><trkpt lat="43.1481179" lon="11.4447606"><ele>165.39999999999998</ele><time>2026-04-03T10:03:17.738Z</time></trkpt><trkpt lat="43.1480332" lon="11.4448078"><ele>166.8</ele><time>2026-04-03T10:03:18.739Z</time></trkpt><trkpt lat="43.1479381" lon="11.4448198"><ele>168.2</ele><time>2026-04-03T10:03:19.738Z</time></trkpt><trkpt lat="43.1478287" lon="11.4448024"><ele>169.60000000000002</ele><time>2026-04-03T10:03:20.739Z</time></trkpt><trkpt lat="43.1476856" lon="11.4447508"><ele>171.0</ele><time>2026-04-03T10:03:21.738Z</time></trkpt><trkpt lat="43.1475381" lon="11.4446726"><ele>168.66666666666666</ele><time>2026-04-03T10:03:22.738Z</time></trkpt><trkpt lat="43.1473902" lon="11.4446167"><ele>166.33333333333331</ele><time>2026-04-03T10:03:23.739Z</time></trkpt><trkpt lat="43.1472443" lon="11.444562"><ele>164.0</ele><time>2026-04-03T10:03:24.738Z</time></trkpt><trkpt lat="43.1470866" lon="11.4445429"><ele>163.5</ele><time>2026-04-03T10:03:25.739Z</time></trkpt><trkpt lat="43.14693" lon="11.4445411"><ele>163.0</ele><time>2026-04-03T10:03:26.739Z</time></trkpt><trkpt lat="43.1467841" lon="11.4445439"><ele>162.5</ele><time>2026-04-03T10:03:27.739Z</time></trkpt><trkpt lat="43.1466564" lon="11.4445561"><ele>162.0</ele><time>2026-04-03T10:03:28.738Z</time></trkpt><trkpt lat="43.1465452" lon="11.4445836"><ele>162.0</ele><time>2026-04-03T10:03:29.738Z</time></trkpt><trkpt lat="43.1464466" lon="11.4446236"><ele>162.0</ele><time>2026-04-03T10:03:30.739Z</time></trkpt><trkpt lat="43.1463563" lon="11.4446747"><ele>162.0</ele><time>2026-04-03T10:03:31.739Z</time></trkpt><trkpt lat="43.1462819" lon="11.4447585"><ele>162.0</ele><time>2026-04-03T10:03:32.738Z</time></trkpt><trkpt lat="43.146222" lon="11.4448701"><ele>162.0</ele><time>2026-04-03T10:03:33.738Z</time></trkpt><trkpt lat="43.1461702" lon="11.4450073"><ele>162.0</ele><time>2026-04-03T10:03:34.738Z</time></trkpt><trkpt lat="43.1461347" lon="11.4451394"><ele>162.0</ele><time>2026-04-03T10:03:35.739Z</time></trkpt><trkpt lat="43.1461185" lon="11.4452745"><ele>162.0</ele><time>2026-04-03T10:03:36.739Z</time></trkpt><trkpt lat="43.1461316" lon="11.4454088"><ele>162.0</ele><time>2026-04-03T10:03:37.738Z</time></trkpt><trkpt lat="43.1461638" lon="11.4455547"><ele>162.0</ele><time>2026-04-03T10:03:38.738Z</time></trkpt><trkpt lat="43.1462139" lon="11.4457459"><ele>161.66666666666666</ele><time>2026-04-03T10:03:39.738Z</time></trkpt><trkpt lat="43.1462645" lon="11.4459717"><ele>161.33333333333331</ele><time>2026-04-03T10:03:40.738Z</time></trkpt><trkpt lat="43.1463223" lon="11.4461771"><ele>161.0</ele><time>2026-04-03T10:03:41.739Z</time></trkpt><trkpt lat="43.1463646" lon="11.4463381"><ele>161.83333333333331</ele><time>2026-04-03T10:03:42.739Z</time></trkpt><trkpt lat="43.1463961" lon="11.4464745"><ele>162.66666666666666</ele><time>2026-04-03T10:03:43.739Z</time></trkpt><trkpt lat="43.1464192" lon="11.4465871"><ele>163.5</ele><time>2026-04-03T10:03:44.739Z</time></trkpt><trkpt lat="43.1464215" lon="11.4466972"><ele>164.33333333333334</ele><time>2026-04-03T10:03:45.738Z</time></trkpt><trkpt lat="43.1464099" lon="11.4468007"><ele>165.16666666666669</ele><time>2026-04-03T10:03:46.739Z</time></trkpt><trkpt lat="43.1463715" lon="11.4468752"><ele>166.0</ele><time>2026-04-03T10:03:47.739Z</time></trkpt><trkpt lat="43.1463022" lon="11.4469062"><ele>166.0</ele><time>2026-04-03T10:03:48.739Z</time></trkpt><trkpt lat="43.1462193" lon="11.4469161"><ele>166.0</ele><time>2026-04-03T10:03:49.738Z</time></trkpt><trkpt lat="43.1461057" lon="11.4468982"><ele>166.0</ele><time>2026-04-03T10:03:50.738Z</time></trkpt><trkpt lat="43.1459772" lon="11.4468823"><ele>166.0</ele><time>2026-04-03T10:03:51.739Z</time></trkpt><trkpt lat="43.1458439" lon="11.4468746"><ele>166.0</ele><time>2026-04-03T10:03:52.738Z</time></trkpt><trkpt lat="43.1457173" lon="11.4468739"><ele>166.0</ele><time>2026-04-03T10:03:53.739Z</time></trkpt><trkpt lat="43.1455978" lon="11.4469024"><ele>166.0</ele><time>2026-04-03T10:03:54.739Z</time></trkpt><trkpt lat="43.1454815" lon="11.4469485"><ele>166.0</ele><time>2026-04-03T10:03:55.739Z</time></trkpt><trkpt lat="43.1453654" lon="11.4470302"><ele>166.5</ele><time>2026-04-03T10:03:56.739Z</time></trkpt><trkpt lat="43.1452504" lon="11.4471617"><ele>167.0</ele><time>2026-04-03T10:03:57.738Z</time></trkpt><trkpt lat="43.1451397" lon="11.4472859"><ele>167.5</ele><time>2026-04-03T10:03:58.739Z</time></trkpt><trkpt lat="43.1450623" lon="11.4473769"><ele>168.0</ele><time>2026-04-03T10:03:59.739Z</time></trkpt><trkpt lat="43.1449993" lon="11.4474503"><ele>168.0</ele><time>2026-04-03T10:04:00.739Z</time></trkpt><trkpt lat="43.1449535" lon="11.4475309"><ele>168.0</ele><time>2026-04-03T10:04:01.739Z</time></trkpt><trkpt lat="43.1449246" lon="11.44762"><ele>168.0</ele><time>2026-04-03T10:04:02.739Z</time></trkpt><trkpt lat="43.1449118" lon="11.4477072"><ele>168.0</ele><time>2026-04-03T10:04:03.739Z</time></trkpt><trkpt lat="43.1449261" lon="11.4478173"><ele>168.0</ele><time>2026-04-03T10:04:05.738Z</time></trkpt><trkpt lat="43.1449168" lon="11.4479825"><ele>168.0</ele><time>2026-04-03T10:04:45.738Z</time></trkpt><trkpt lat="43.1449137" lon="11.4480961"><ele>167.8</ele><time>2026-04-03T10:04:46.739Z</time></trkpt><trkpt lat="43.1448923" lon="11.4482266"><ele>167.60000000000002</ele><time>2026-04-03T10:04:47.738Z</time></trkpt><trkpt lat="43.1448721" lon="11.44832"><ele>167.39999999999998</ele><time>2026-04-03T10:04:48.739Z</time></trkpt><trkpt lat="43.1448392" lon="11.4484131"><ele>167.2</ele><time>2026-04-03T10:04:50.739Z</time></trkpt><trkpt lat="43.1447737" lon="11.4485087"><ele>167.0</ele><time>2026-04-03T10:05:05.739Z</time></trkpt><trkpt lat="43.1446627" lon="11.4486117"><ele>167.0</ele><time>2026-04-03T10:05:07.738Z</time></trkpt><trkpt lat="43.144587" lon="11.4486354"><ele>167.0</ele><time>2026-04-03T10:05:08.738Z</time></trkpt><trkpt lat="43.1445019" lon="11.4486243"><ele>167.0</ele><time>2026-04-03T10:05:09.738Z</time></trkpt><trkpt lat="43.1443976" lon="11.448619"><ele>167.0</ele><time>2026-04-03T10:05:10.739Z</time></trkpt><trkpt lat="43.1442644" lon="11.4485933"><ele>167.0</ele><time>2026-04-03T10:05:11.739Z</time></trkpt><trkpt lat="43.144123" lon="11.4485743"><ele>168.25</ele><time>2026-04-03T10:05:12.738Z</time></trkpt><trkpt lat="43.1439878" lon="11.4485368"><ele>169.5</ele><time>2026-04-03T10:05:13.739Z</time></trkpt><trkpt lat="43.1438616" lon="11.4485034"><ele>170.75</ele><time>2026-04-03T10:05:14.739Z</time></trkpt><trkpt lat="43.1437625" lon="11.4484255"><ele>172.0</ele><time>2026-04-03T10:05:15.739Z</time></trkpt><trkpt lat="43.1436742" lon="11.4483625"><ele>172.0</ele><time>2026-04-03T10:05:16.739Z</time></trkpt><trkpt lat="43.1435835" lon="11.4483085"><ele>172.0</ele><time>2026-04-03T10:05:17.739Z</time></trkpt><trkpt lat="43.1434753" lon="11.4482402"><ele>172.0</ele><time>2026-04-03T10:05:18.739Z</time></trkpt><trkpt lat="43.1433601" lon="11.4481916"><ele>172.0</ele><time>2026-04-03T10:05:19.739Z</time></trkpt><trkpt lat="43.1432599" lon="11.4480795"><ele>172.75</ele><time>2026-04-03T10:05:20.738Z</time></trkpt><trkpt lat="43.1431513" lon="11.4480155"><ele>173.5</ele><time>2026-04-03T10:05:21.739Z</time></trkpt><trkpt lat="43.1430475" lon="11.4479319"><ele>174.25</ele><time>2026-04-03T10:05:22.739Z</time></trkpt><trkpt lat="43.1429358" lon="11.4479028"><ele>175.0</ele><time>2026-04-03T10:05:23.739Z</time></trkpt><trkpt lat="43.1428161" lon="11.447834"><ele>172.0</ele><time>2026-04-03T10:05:24.738Z</time></trkpt><trkpt lat="43.1426861" lon="11.4478282"><ele>169.0</ele><time>2026-04-03T10:05:25.739Z</time></trkpt><trkpt lat="43.1425527" lon="11.447838"><ele>166.0</ele><time>2026-04-03T10:05:26.739Z</time></trkpt><trkpt lat="43.1424094" lon="11.4478634"><ele>163.0</ele><time>2026-04-03T10:05:27.738Z</time></trkpt><trkpt lat="43.1422415" lon="11.4479142"><ele>165.66666666666669</ele><time>2026-04-03T10:05:28.738Z</time></trkpt><trkpt lat="43.1420813" lon="11.4480181"><ele>168.33333333333334</ele><time>2026-04-03T10:05:29.739Z</time></trkpt><trkpt lat="43.1418707" lon="11.4480618"><ele>171.0</ele><time>2026-04-03T10:05:30.738Z</time></trkpt><trkpt lat="43.1416515" lon="11.4481117"><ele>171.0</ele><time>2026-04-03T10:05:31.738Z</time></trkpt><trkpt lat="43.1414408" lon="11.448159"><ele>171.0</ele><time>2026-04-03T10:05:32.739Z</time></trkpt><trkpt lat="43.1412676" lon="11.4482398"><ele>171.0</ele><time>2026-04-03T10:05:33.739Z</time></trkpt><trkpt lat="43.1410986" lon="11.448235"><ele>171.0</ele><time>2026-04-03T10:05:34.739Z</time></trkpt><trkpt lat="43.1409491" lon="11.4482642"><ele>171.0</ele><time>2026-04-03T10:05:35.739Z</time></trkpt><trkpt lat="43.1408213" lon="11.4482803"><ele>171.0</ele><time>2026-04-03T10:05:36.738Z</time></trkpt><trkpt lat="43.140699" lon="11.4482888"><ele>171.0</ele><time>2026-04-03T10:05:37.738Z</time></trkpt><trkpt lat="43.1405794" lon="11.4482823"><ele>170.25</ele><time>2026-04-03T10:05:38.738Z</time></trkpt><trkpt lat="43.14045" lon="11.4482478"><ele>169.5</ele><time>2026-04-03T10:05:39.739Z</time></trkpt><trkpt lat="43.1403226" lon="11.4482153"><ele>168.75</ele><time>2026-04-03T10:05:40.739Z</time></trkpt><trkpt lat="43.140207" lon="11.4481764"><ele>168.0</ele><time>2026-04-03T10:05:41.739Z</time></trkpt><trkpt lat="43.1401022" lon="11.4481303"><ele>168.0</ele><time>2026-04-03T10:05:42.739Z</time></trkpt><trkpt lat="43.1400183" lon="11.44809"><ele>168.0</ele><time>2026-04-03T10:05:43.739Z</time></trkpt><trkpt lat="43.1399443" lon="11.4480498"><ele>168.0</ele><time>2026-04-03T10:05:44.739Z</time></trkpt><trkpt lat="43.1398802" lon="11.4480062"><ele>168.0</ele><time>2026-04-03T10:05:45.738Z</time></trkpt><trkpt lat="43.1398147" lon="11.4479635"><ele>168.0</ele><time>2026-04-03T10:05:46.739Z</time></trkpt><trkpt lat="43.139756" lon="11.4479282"><ele>168.0</ele><time>2026-04-03T10:05:47.739Z</time></trkpt><trkpt lat="43.1396911" lon="11.4479005"><ele>168.0</ele><time>2026-04-03T10:05:48.738Z</time></trkpt><trkpt lat="43.1396156" lon="11.4479037"><ele>166.66666666666666</ele><time>2026-04-03T10:05:49.739Z</time></trkpt><trkpt lat="43.1395462" lon="11.4479282"><ele>165.33333333333334</ele><time>2026-04-03T10:05:50.739Z</time></trkpt><trkpt lat="43.1394739" lon="11.4479832"><ele>164.0</ele><time>2026-04-03T10:05:51.739Z</time></trkpt><trkpt lat="43.1394148" lon="11.4480574"><ele>162.66666666666669</ele><time>2026-04-03T10:05:52.739Z</time></trkpt><trkpt lat="43.1393817" lon="11.4481412"><ele>161.33333333333334</ele><time>2026-04-03T10:05:53.739Z</time></trkpt><trkpt lat="43.1393573" lon="11.4482506"><ele>160.0</ele><time>2026-04-03T10:05:54.739Z</time></trkpt><trkpt lat="43.1393377" lon="11.4484108"><ele>160.0</ele><time>2026-04-03T10:05:55.739Z</time></trkpt><trkpt lat="43.1393325" lon="11.448598"><ele>160.0</ele><time>2026-04-03T10:05:56.739Z</time></trkpt><trkpt lat="43.1393389" lon="11.4488158"><ele>160.0</ele><time>2026-04-03T10:05:57.739Z</time></trkpt><trkpt lat="43.1393369" lon="11.4490684"><ele>160.0</ele><time>2026-04-03T10:05:58.738Z</time></trkpt><trkpt lat="43.1393493" lon="11.449346"><ele>160.0</ele><time>2026-04-03T10:05:59.738Z</time></trkpt><trkpt lat="43.1393489" lon="11.4496321"><ele>160.0</ele><time>2026-04-03T10:06:00.738Z</time></trkpt><trkpt lat="43.1393585" lon="11.4498834"><ele>160.0</ele><time>2026-04-03T10:06:01.738Z</time></trkpt><trkpt lat="43.1393633" lon="11.4501061"><ele>160.0</ele><time>2026-04-03T10:06:02.738Z</time></trkpt><trkpt lat="43.1393615" lon="11.45032"><ele>160.0</ele><time>2026-04-03T10:06:03.739Z</time></trkpt><trkpt lat="43.1393577" lon="11.4505154"><ele>160.5</ele><time>2026-04-03T10:06:04.739Z</time></trkpt><trkpt lat="43.1393147" lon="11.4506874"><ele>161.0</ele><time>2026-04-03T10:06:05.738Z</time></trkpt><trkpt lat="43.1392624" lon="11.4508463"><ele>161.5</ele><time>2026-04-03T10:06:06.738Z</time></trkpt><trkpt lat="43.1391968" lon="11.4510115"><ele>162.0</ele><time>2026-04-03T10:06:07.739Z</time></trkpt><trkpt lat="43.1391078" lon="11.451196"><ele>159.66666666666666</ele><time>2026-04-03T10:06:08.739Z</time></trkpt><trkpt lat="43.1390063" lon="11.4514033"><ele>157.33333333333331</ele><time>2026-04-03T10:06:09.739Z</time></trkpt><trkpt lat="43.1388992" lon="11.4516055"><ele>155.0</ele><time>2026-04-03T10:06:10.739Z</time></trkpt><trkpt lat="43.1387966" lon="11.4517998"><ele>155.0</ele><time>2026-04-03T10:06:11.739Z</time></trkpt><trkpt lat="43.1386938" lon="11.4519828"><ele>155.0</ele><time>2026-04-03T10:06:12.738Z</time></trkpt><trkpt lat="43.1385908" lon="11.4521437"><ele>155.0</ele><time>2026-04-03T10:06:13.739Z</time></trkpt><trkpt lat="43.1384812" lon="11.4522924"><ele>154.33333333333331</ele><time>2026-04-03T10:06:14.738Z</time></trkpt><trkpt lat="43.138367" lon="11.4524261"><ele>153.66666666666666</ele><time>2026-04-03T10:06:15.738Z</time></trkpt><trkpt lat="43.1382483" lon="11.4525471"><ele>153.0</ele><time>2026-04-03T10:06:16.738Z</time></trkpt><trkpt lat="43.1381148" lon="11.4526615"><ele>153.0</ele><time>2026-04-03T10:06:17.739Z</time></trkpt><trkpt lat="43.1379664" lon="11.4527702"><ele>153.0</ele><time>2026-04-03T10:06:18.738Z</time></trkpt><trkpt lat="43.1378114" lon="11.4528633"><ele>153.0</ele><time>2026-04-03T10:06:19.738Z</time></trkpt><trkpt lat="43.1376612" lon="11.4529529"><ele>153.0</ele><time>2026-04-03T10:06:20.739Z</time></trkpt><trkpt lat="43.1375122" lon="11.4530479"><ele>153.0</ele><time>2026-04-03T10:06:21.739Z</time></trkpt><trkpt lat="43.1373645" lon="11.453171"><ele>153.0</ele><time>2026-04-03T10:06:22.738Z</time></trkpt><trkpt lat="43.1372187" lon="11.4533106"><ele>153.0</ele><time>2026-04-03T10:06:23.738Z</time></trkpt><trkpt lat="43.1370778" lon="11.4534528"><ele>153.0</ele><time>2026-04-03T10:06:24.738Z</time></trkpt><trkpt lat="43.136944" lon="11.4535683"><ele>153.0</ele><time>2026-04-03T10:06:25.739Z</time></trkpt><trkpt lat="43.136831" lon="11.4536905"><ele>152.33333333333334</ele><time>2026-04-03T10:06:26.739Z</time></trkpt><trkpt lat="43.1367163" lon="11.4538275"><ele>151.66666666666669</ele><time>2026-04-03T10:06:27.739Z</time></trkpt><trkpt lat="43.1365982" lon="11.4539687"><ele>151.0</ele><time>2026-04-03T10:06:28.738Z</time></trkpt><trkpt lat="43.1364979" lon="11.4541097"><ele>151.0</ele><time>2026-04-03T10:06:29.739Z</time></trkpt><trkpt lat="43.1363923" lon="11.4542676"><ele>151.0</ele><time>2026-04-03T10:06:30.739Z</time></trkpt><trkpt lat="43.1362889" lon="11.4544522"><ele>151.0</ele><time>2026-04-03T10:06:31.738Z</time></trkpt><trkpt lat="43.136191" lon="11.4546618"><ele>152.66666666666669</ele><time>2026-04-03T10:06:32.739Z</time></trkpt><trkpt lat="43.136083" lon="11.4548909"><ele>154.33333333333334</ele><time>2026-04-03T10:06:33.739Z</time></trkpt><trkpt lat="43.1359765" lon="11.4551118"><ele>156.0</ele><time>2026-04-03T10:06:34.738Z</time></trkpt><trkpt lat="43.1358734" lon="11.4553192"><ele>154.66666666666666</ele><time>2026-04-03T10:06:35.739Z</time></trkpt><trkpt lat="43.1357735" lon="11.4554925"><ele>153.33333333333331</ele><time>2026-04-03T10:06:36.739Z</time></trkpt><trkpt lat="43.1356488" lon="11.4556572"><ele>152.0</ele><time>2026-04-03T10:06:37.738Z</time></trkpt><trkpt lat="43.1355039" lon="11.4558159"><ele>152.0</ele><time>2026-04-03T10:06:38.739Z</time></trkpt><trkpt lat="43.1353353" lon="11.4559773"><ele>152.0</ele><time>2026-04-03T10:06:39.738Z</time></trkpt><trkpt lat="43.1351738" lon="11.4561419"><ele>152.0</ele><time>2026-04-03T10:06:40.739Z</time></trkpt><trkpt lat="43.13502" lon="11.4563006"><ele>152.0</ele><time>2026-04-03T10:06:41.739Z</time></trkpt><trkpt lat="43.1348785" lon="11.4564454"><ele>152.0</ele><time>2026-04-03T10:06:42.738Z</time></trkpt><trkpt lat="43.1347473" lon="11.456587"><ele>152.0</ele><time>2026-04-03T10:06:43.739Z</time></trkpt><trkpt lat="43.1346046" lon="11.4567265"><ele>152.0</ele><time>2026-04-03T10:06:44.738Z</time></trkpt><trkpt lat="43.1344719" lon="11.456856"><ele>152.0</ele><time>2026-04-03T10:06:45.739Z</time></trkpt><trkpt lat="43.1343425" lon="11.4569836"><ele>152.0</ele><time>2026-04-03T10:06:46.739Z</time></trkpt><trkpt lat="43.1342106" lon="11.4571183"><ele>151.33333333333331</ele><time>2026-04-03T10:06:47.739Z</time></trkpt><trkpt lat="43.1340708" lon="11.4572598"><ele>150.66666666666666</ele><time>2026-04-03T10:06:48.739Z</time></trkpt><trkpt lat="43.1339182" lon="11.4574112"><ele>150.0</ele><time>2026-04-03T10:06:49.739Z</time></trkpt><trkpt lat="43.13376" lon="11.4575626"><ele>150.0</ele><time>2026-04-03T10:06:50.739Z</time></trkpt><trkpt lat="43.1336191" lon="11.4576958"><ele>150.0</ele><time>2026-04-03T10:06:51.739Z</time></trkpt><trkpt lat="43.1334921" lon="11.4578065"><ele>150.0</ele><time>2026-04-03T10:06:52.739Z</time></trkpt><trkpt lat="43.1333752" lon="11.4579176"><ele>149.4</ele><time>2026-04-03T10:06:53.739Z</time></trkpt><trkpt lat="43.1332795" lon="11.4580078"><ele>148.8</ele><time>2026-04-03T10:06:54.738Z</time></trkpt><trkpt lat="43.133196" lon="11.4580849"><ele>148.2</ele><time>2026-04-03T10:06:55.738Z</time></trkpt><trkpt lat="43.1331283" lon="11.4581625"><ele>147.6</ele><time>2026-04-03T10:06:56.739Z</time></trkpt><trkpt lat="43.1330671" lon="11.4582387"><ele>147.0</ele><time>2026-04-03T10:06:57.738Z</time></trkpt><trkpt lat="43.1329987" lon="11.4583289"><ele>147.0</ele><time>2026-04-03T10:06:58.739Z</time></trkpt><trkpt lat="43.1329159" lon="11.4584261"><ele>147.0</ele><time>2026-04-03T10:06:59.739Z</time></trkpt><trkpt lat="43.1328289" lon="11.4585273"><ele>147.0</ele><time>2026-04-03T10:07:00.737Z</time></trkpt><trkpt lat="43.1327408" lon="11.4586422"><ele>147.0</ele><time>2026-04-03T10:07:01.738Z</time></trkpt><trkpt lat="43.1326616" lon="11.4587733"><ele>148.66666666666666</ele><time>2026-04-03T10:07:02.738Z</time></trkpt><trkpt lat="43.1325999" lon="11.4589275"><ele>150.33333333333331</ele><time>2026-04-03T10:07:03.738Z</time></trkpt><trkpt lat="43.1325372" lon="11.4591181"><ele>152.0</ele><time>2026-04-03T10:07:04.738Z</time></trkpt><trkpt lat="43.1324684" lon="11.4593518"><ele>152.0</ele><time>2026-04-03T10:07:05.737Z</time></trkpt><trkpt lat="43.1324001" lon="11.4596099"><ele>152.0</ele><time>2026-04-03T10:07:06.738Z</time></trkpt><trkpt lat="43.1323388" lon="11.4598657"><ele>152.0</ele><time>2026-04-03T10:07:07.738Z</time></trkpt><trkpt lat="43.1322853" lon="11.4601028"><ele>150.5</ele><time>2026-04-03T10:07:08.738Z</time></trkpt><trkpt lat="43.1322346" lon="11.4603134"><ele>149.0</ele><time>2026-04-03T10:07:09.738Z</time></trkpt><trkpt lat="43.1321876" lon="11.4605004"><ele>147.5</ele><time>2026-04-03T10:07:10.738Z</time></trkpt><trkpt lat="43.1321461" lon="11.4606594"><ele>146.0</ele><time>2026-04-03T10:07:11.738Z</time></trkpt><trkpt lat="43.1321185" lon="11.4607958"><ele>146.0</ele><time>2026-04-03T10:07:12.738Z</time></trkpt><trkpt lat="43.1321114" lon="11.4609426"><ele>146.0</ele><time>2026-04-03T10:07:13.737Z</time></trkpt><trkpt lat="43.1321233" lon="11.4611151"><ele>146.0</ele><time>2026-04-03T10:07:14.738Z</time></trkpt><trkpt lat="43.1321352" lon="11.4612913"><ele>146.0</ele><time>2026-04-03T10:07:15.737Z</time></trkpt><trkpt lat="43.1321582" lon="11.4614572"><ele>146.0</ele><time>2026-04-03T10:07:16.738Z</time></trkpt><trkpt lat="43.1321715" lon="11.4616073"><ele>146.0</ele><time>2026-04-03T10:07:17.738Z</time></trkpt><trkpt lat="43.132171" lon="11.4617208"><ele>146.0</ele><time>2026-04-03T10:07:18.737Z</time></trkpt><trkpt lat="43.1321584" lon="11.4618604"><ele>146.0</ele><time>2026-04-03T10:07:20.737Z</time></trkpt><trkpt lat="43.1321229" lon="11.4619393"><ele>146.0</ele><time>2026-04-03T10:07:23.738Z</time></trkpt><trkpt lat="43.1320381" lon="11.4618677"><ele>146.0</ele><time>2026-04-03T10:07:26.738Z</time></trkpt><trkpt lat="43.1319857" lon="11.4617718"><ele>146.0</ele><time>2026-04-03T10:07:27.738Z</time></trkpt><trkpt lat="43.1319294" lon="11.4616824"><ele>146.0</ele><time>2026-04-03T10:07:28.738Z</time></trkpt><trkpt lat="43.1318639" lon="11.4616349"><ele>146.0</ele><time>2026-04-03T10:07:29.737Z</time></trkpt><trkpt lat="43.1317949" lon="11.4616197"><ele>146.0</ele><time>2026-04-03T10:07:30.737Z</time></trkpt><trkpt lat="43.1317286" lon="11.4616115"><ele>146.0</ele><time>2026-04-03T10:07:31.737Z</time></trkpt><trkpt lat="43.131654" lon="11.4616066"><ele>146.0</ele><time>2026-04-03T10:07:32.737Z</time></trkpt><trkpt lat="43.1315828" lon="11.4615964"><ele>146.0</ele><time>2026-04-03T10:07:33.737Z</time></trkpt><trkpt lat="43.1315175" lon="11.4615803"><ele>146.0</ele><time>2026-04-03T10:07:34.738Z</time></trkpt><trkpt lat="43.1314426" lon="11.4615491"><ele>146.0</ele><time>2026-04-03T10:07:36.738Z</time></trkpt><trkpt lat="43.1313699" lon="11.4614905"><ele>146.0</ele><time>2026-04-03T10:07:41.737Z</time></trkpt><trkpt lat="43.1313028" lon="11.4614317"><ele>146.0</ele><time>2026-04-03T10:07:42.738Z</time></trkpt><trkpt lat="43.1312349" lon="11.4613432"><ele>145.4</ele><time>2026-04-03T10:07:43.737Z</time></trkpt><trkpt lat="43.1311704" lon="11.4612219"><ele>144.8</ele><time>2026-04-03T10:07:44.737Z</time></trkpt><trkpt lat="43.1311084" lon="11.461099"><ele>144.20000000000002</ele><time>2026-04-03T10:07:45.737Z</time></trkpt><trkpt lat="43.1310513" lon="11.460996"><ele>143.6</ele><time>2026-04-03T10:07:46.738Z</time></trkpt><trkpt lat="43.130992" lon="11.4609186"><ele>143.0</ele><time>2026-04-03T10:07:47.738Z</time></trkpt><trkpt lat="43.1309249" lon="11.4608733"><ele>142.99999999999997</ele><time>2026-04-03T10:07:48.737Z</time></trkpt><trkpt lat="43.1308482" lon="11.4608515"><ele>143.0</ele><time>2026-04-03T10:07:49.737Z</time></trkpt><trkpt lat="43.1307642" lon="11.4608304"><ele>143.0</ele><time>2026-04-03T10:07:50.738Z</time></trkpt><trkpt lat="43.1306927" lon="11.4608088"><ele>143.0</ele><time>2026-04-03T10:07:51.738Z</time></trkpt><trkpt lat="43.130629" lon="11.4607791"><ele>143.0</ele><time>2026-04-03T10:07:52.737Z</time></trkpt><trkpt lat="43.1305737" lon="11.4607326"><ele>142.99999999999997</ele><time>2026-04-03T10:07:53.738Z</time></trkpt><trkpt lat="43.1305237" lon="11.4606751"><ele>143.0</ele><time>2026-04-03T10:07:54.737Z</time></trkpt><trkpt lat="43.1304776" lon="11.4605949"><ele>142.75</ele><time>2026-04-03T10:07:55.737Z</time></trkpt><trkpt lat="43.1304381" lon="11.4604879"><ele>142.5</ele><time>2026-04-03T10:07:56.737Z</time></trkpt><trkpt lat="43.1304004" lon="11.4603475"><ele>142.25</ele><time>2026-04-03T10:07:57.737Z</time></trkpt><trkpt lat="43.1303664" lon="11.4601659"><ele>142.0</ele><time>2026-04-03T10:07:58.738Z</time></trkpt><trkpt lat="43.1303256" lon="11.4599547"><ele>142.66666666666669</ele><time>2026-04-03T10:07:59.737Z</time></trkpt><trkpt lat="43.1302771" lon="11.4597201"><ele>143.33333333333334</ele><time>2026-04-03T10:08:00.738Z</time></trkpt><trkpt lat="43.1302215" lon="11.4594664"><ele>144.0</ele><time>2026-04-03T10:08:01.737Z</time></trkpt><trkpt lat="43.1301662" lon="11.4592141"><ele>144.33333333333334</ele><time>2026-04-03T10:08:02.737Z</time></trkpt><trkpt lat="43.1301156" lon="11.4589871"><ele>144.66666666666669</ele><time>2026-04-03T10:08:03.738Z</time></trkpt><trkpt lat="43.1300703" lon="11.4587918"><ele>145.0</ele><time>2026-04-03T10:08:04.738Z</time></trkpt><trkpt lat="43.1300304" lon="11.4586241"><ele>146.2</ele><time>2026-04-03T10:08:05.738Z</time></trkpt><trkpt lat="43.1300067" lon="11.4584879"><ele>147.4</ele><time>2026-04-03T10:08:06.737Z</time></trkpt><trkpt lat="43.1299996" lon="11.4583849"><ele>148.6</ele><time>2026-04-03T10:08:07.737Z</time></trkpt><trkpt lat="43.1299911" lon="11.4582404"><ele>149.8</ele><time>2026-04-03T10:08:09.737Z</time></trkpt><trkpt lat="43.1299576" lon="11.4581455"><ele>151.0</ele><time>2026-04-03T10:08:10.738Z</time></trkpt><trkpt lat="43.1298926" lon="11.4580236"><ele>154.33333333333334</ele><time>2026-04-03T10:08:11.738Z</time></trkpt><trkpt lat="43.1298053" lon="11.4578737"><ele>157.66666666666666</ele><time>2026-04-03T10:08:12.738Z</time></trkpt><trkpt lat="43.1297063" lon="11.4577089"><ele>161.0</ele><time>2026-04-03T10:08:13.738Z</time></trkpt><trkpt lat="43.1296002" lon="11.4575368"><ele>161.0</ele><time>2026-04-03T10:08:14.737Z</time></trkpt><trkpt lat="43.1295096" lon="11.4573783"><ele>161.0</ele><time>2026-04-03T10:08:15.737Z</time></trkpt><trkpt lat="43.1294381" lon="11.4572453"><ele>161.0</ele><time>2026-04-03T10:08:16.738Z</time></trkpt><trkpt lat="43.1293765" lon="11.4571343"><ele>161.0</ele><time>2026-04-03T10:08:17.737Z</time></trkpt><trkpt lat="43.1293292" lon="11.4570405"><ele>161.4</ele><time>2026-04-03T10:08:18.738Z</time></trkpt><trkpt lat="43.1292896" lon="11.4569585"><ele>161.8</ele><time>2026-04-03T10:08:19.738Z</time></trkpt><trkpt lat="43.129238" lon="11.4568583"><ele>162.20000000000002</ele><time>2026-04-03T10:08:21.737Z</time></trkpt><trkpt lat="43.1291422" lon="11.456699"><ele>162.60000000000002</ele><time>2026-04-03T10:08:23.737Z</time></trkpt><trkpt lat="43.1290544" lon="11.4565548"><ele>163.0</ele><time>2026-04-03T10:08:24.738Z</time></trkpt><trkpt lat="43.1289478" lon="11.4563603"><ele>167.0</ele><time>2026-04-03T10:08:25.737Z</time></trkpt><trkpt lat="43.1288214" lon="11.4561454"><ele>171.0</ele><time>2026-04-03T10:08:26.737Z</time></trkpt><trkpt lat="43.1287079" lon="11.4559307"><ele>175.0</ele><time>2026-04-03T10:08:27.737Z</time></trkpt><trkpt lat="43.1286046" lon="11.4557481"><ele>175.0</ele><time>2026-04-03T10:08:28.738Z</time></trkpt><trkpt lat="43.1284886" lon="11.4556038"><ele>175.0</ele><time>2026-04-03T10:08:29.738Z</time></trkpt><trkpt lat="43.1283403" lon="11.4554839"><ele>175.0</ele><time>2026-04-03T10:08:30.738Z</time></trkpt><trkpt lat="43.1281695" lon="11.455401"><ele>181.0</ele><time>2026-04-03T10:08:31.737Z</time></trkpt><trkpt lat="43.1279824" lon="11.4553211"><ele>187.0</ele><time>2026-04-03T10:08:32.738Z</time></trkpt><trkpt lat="43.1277776" lon="11.4552284"><ele>193.0</ele><time>2026-04-03T10:08:33.737Z</time></trkpt><trkpt lat="43.1275962" lon="11.4551405"><ele>193.0</ele><time>2026-04-03T10:08:34.737Z</time></trkpt><trkpt lat="43.1274411" lon="11.4550657"><ele>193.0</ele><time>2026-04-03T10:08:35.738Z</time></trkpt><trkpt lat="43.1273153" lon="11.4549866"><ele>193.0</ele><time>2026-04-03T10:08:36.738Z</time></trkpt><trkpt lat="43.1272136" lon="11.4548981"><ele>193.0</ele><time>2026-04-03T10:08:37.738Z</time></trkpt><trkpt lat="43.1271289" lon="11.454804"><ele>195.75</ele><time>2026-04-03T10:08:38.737Z</time></trkpt><trkpt lat="43.1270408" lon="11.4546838"><ele>198.5</ele><time>2026-04-03T10:08:39.737Z</time></trkpt><trkpt lat="43.1269691" lon="11.454536"><ele>201.25</ele><time>2026-04-03T10:08:40.738Z</time></trkpt><trkpt lat="43.1268997" lon="11.4543617"><ele>204.0</ele><time>2026-04-03T10:08:41.737Z</time></trkpt><trkpt lat="43.1268404" lon="11.454178"><ele>207.0</ele><time>2026-04-03T10:08:42.737Z</time></trkpt><trkpt lat="43.1268109" lon="11.4539627"><ele>210.0</ele><time>2026-04-03T10:08:43.738Z</time></trkpt><trkpt lat="43.1267979" lon="11.4537042"><ele>213.0</ele><time>2026-04-03T10:08:44.737Z</time></trkpt><trkpt lat="43.1267829" lon="11.4533994"><ele>215.0</ele><time>2026-04-03T10:08:45.738Z</time></trkpt><trkpt lat="43.1267763" lon="11.4531026"><ele>217.0</ele><time>2026-04-03T10:08:46.738Z</time></trkpt><trkpt lat="43.1267727" lon="11.4528477"><ele>219.0</ele><time>2026-04-03T10:08:47.737Z</time></trkpt><trkpt lat="43.1267783" lon="11.4526235"><ele>220.0</ele><time>2026-04-03T10:08:48.738Z</time></trkpt><trkpt lat="43.1267711" lon="11.4524018"><ele>221.0</ele><time>2026-04-03T10:08:49.738Z</time></trkpt><trkpt lat="43.1267564" lon="11.4521728"><ele>222.0</ele><time>2026-04-03T10:08:50.737Z</time></trkpt><trkpt lat="43.1267352" lon="11.451927"><ele>223.0</ele><time>2026-04-03T10:08:51.738Z</time></trkpt><trkpt lat="43.1267092" lon="11.4516717"><ele>224.0</ele><time>2026-04-03T10:08:52.738Z</time></trkpt><trkpt lat="43.1266781" lon="11.4514089"><ele>225.0</ele><time>2026-04-03T10:08:53.738Z</time></trkpt><trkpt lat="43.1266309" lon="11.4511493"><ele>225.0</ele><time>2026-04-03T10:08:54.738Z</time></trkpt><trkpt lat="43.1265533" lon="11.4508964"><ele>225.0</ele><time>2026-04-03T10:08:55.738Z</time></trkpt><trkpt lat="43.1264676" lon="11.4506385"><ele>225.0</ele><time>2026-04-03T10:08:56.738Z</time></trkpt><trkpt lat="43.1263803" lon="11.4503617"><ele>227.0</ele><time>2026-04-03T10:08:57.738Z</time></trkpt><trkpt lat="43.1262958" lon="11.4500907"><ele>229.0</ele><time>2026-04-03T10:08:58.738Z</time></trkpt><trkpt lat="43.1262253" lon="11.4498615"><ele>231.0</ele><time>2026-04-03T10:08:59.738Z</time></trkpt><trkpt lat="43.1261562" lon="11.4496653"><ele>233.0</ele><time>2026-04-03T10:09:00.738Z</time></trkpt><trkpt lat="43.126082" lon="11.4494972"><ele>235.0</ele><time>2026-04-03T10:09:01.738Z</time></trkpt><trkpt lat="43.1259832" lon="11.4493549"><ele>237.0</ele><time>2026-04-03T10:09:02.737Z</time></trkpt><trkpt lat="43.1258566" lon="11.4492528"><ele>239.0</ele><time>2026-04-03T10:09:03.738Z</time></trkpt><trkpt lat="43.1256977" lon="11.4491755"><ele>239.0</ele><time>2026-04-03T10:09:04.738Z</time></trkpt><trkpt lat="43.1255089" lon="11.4491034"><ele>239.0</ele><time>2026-04-03T10:09:05.738Z</time></trkpt><trkpt lat="43.1253231" lon="11.4490374"><ele>239.0</ele><time>2026-04-03T10:09:06.738Z</time></trkpt><trkpt lat="43.1251575" lon="11.4489725"><ele>239.0</ele><time>2026-04-03T10:09:07.738Z</time></trkpt><trkpt lat="43.1250225" lon="11.4489047"><ele>239.0</ele><time>2026-04-03T10:09:08.738Z</time></trkpt><trkpt lat="43.1249088" lon="11.4488476"><ele>239.0</ele><time>2026-04-03T10:09:09.738Z</time></trkpt><trkpt lat="43.1248067" lon="11.4487969"><ele>239.0</ele><time>2026-04-03T10:09:10.738Z</time></trkpt><trkpt lat="43.1247141" lon="11.4487951"><ele>238.6</ele><time>2026-04-03T10:09:11.738Z</time></trkpt><trkpt lat="43.1246287" lon="11.4488294"><ele>238.2</ele><time>2026-04-03T10:09:12.738Z</time></trkpt><trkpt lat="43.1245511" lon="11.4489012"><ele>237.79999999999998</ele><time>2026-04-03T10:09:13.738Z</time></trkpt><trkpt lat="43.1244712" lon="11.4489989"><ele>237.39999999999998</ele><time>2026-04-03T10:09:14.737Z</time></trkpt><trkpt lat="43.1243901" lon="11.449111"><ele>237.0</ele><time>2026-04-03T10:09:15.738Z</time></trkpt><trkpt lat="43.1242892" lon="11.4492007"><ele>237.0</ele><time>2026-04-03T10:09:16.738Z</time></trkpt><trkpt lat="43.1241714" lon="11.4492431"><ele>237.0</ele><time>2026-04-03T10:09:17.737Z</time></trkpt><trkpt lat="43.1240417" lon="11.4492424"><ele>237.0</ele><time>2026-04-03T10:09:18.737Z</time></trkpt><trkpt lat="43.1238887" lon="11.4492057"><ele>237.0</ele><time>2026-04-03T10:09:19.737Z</time></trkpt><trkpt lat="43.1237113" lon="11.4491473"><ele>236.0</ele><time>2026-04-03T10:09:20.737Z</time></trkpt><trkpt lat="43.1235016" lon="11.4490826"><ele>235.0</ele><time>2026-04-03T10:09:21.737Z</time></trkpt><trkpt lat="43.1232813" lon="11.4490057"><ele>234.0</ele><time>2026-04-03T10:09:22.738Z</time></trkpt><trkpt lat="43.1230742" lon="11.4489376"><ele>233.0</ele><time>2026-04-03T10:09:23.738Z</time></trkpt><trkpt lat="43.1228898" lon="11.4488768"><ele>232.0</ele><time>2026-04-03T10:09:24.738Z</time></trkpt><trkpt lat="43.1227199" lon="11.4488158"><ele>231.0</ele><time>2026-04-03T10:09:25.737Z</time></trkpt><trkpt lat="43.1225544" lon="11.4487581"><ele>228.66666666666669</ele><time>2026-04-03T10:09:26.738Z</time></trkpt><trkpt lat="43.1223886" lon="11.4486972"><ele>226.33333333333334</ele><time>2026-04-03T10:09:27.738Z</time></trkpt><trkpt lat="43.1222159" lon="11.4486344"><ele>224.0</ele><time>2026-04-03T10:09:28.738Z</time></trkpt><trkpt lat="43.1220335" lon="11.448567"><ele>224.0</ele><time>2026-04-03T10:09:29.737Z</time></trkpt><trkpt lat="43.1218509" lon="11.4485012"><ele>224.0</ele><time>2026-04-03T10:09:30.737Z</time></trkpt><trkpt lat="43.1216894" lon="11.4484462"><ele>224.0</ele><time>2026-04-03T10:09:31.737Z</time></trkpt><trkpt lat="43.1215516" lon="11.4483654"><ele>221.66666666666669</ele><time>2026-04-03T10:09:32.738Z</time></trkpt><trkpt lat="43.1214429" lon="11.4482435"><ele>219.33333333333331</ele><time>2026-04-03T10:09:33.738Z</time></trkpt><trkpt lat="43.1213357" lon="11.4480762"><ele>217.0</ele><time>2026-04-03T10:09:34.738Z</time></trkpt><trkpt lat="43.1212438" lon="11.4478659"><ele>217.0</ele><time>2026-04-03T10:09:35.738Z</time></trkpt><trkpt lat="43.1211702" lon="11.4476371"><ele>217.0</ele><time>2026-04-03T10:09:36.738Z</time></trkpt><trkpt lat="43.1210845" lon="11.4473662"><ele>217.0</ele><time>2026-04-03T10:09:37.737Z</time></trkpt><trkpt lat="43.1210001" lon="11.4470926"><ele>215.66666666666666</ele><time>2026-04-03T10:09:38.738Z</time></trkpt><trkpt lat="43.1209207" lon="11.4468415"><ele>214.33333333333331</ele><time>2026-04-03T10:09:39.738Z</time></trkpt><trkpt lat="43.1208512" lon="11.4466182"><ele>213.0</ele><time>2026-04-03T10:09:40.737Z</time></trkpt><trkpt lat="43.1207854" lon="11.4464212"><ele>212.5</ele><time>2026-04-03T10:09:41.737Z</time></trkpt><trkpt lat="43.1207333" lon="11.4462477"><ele>212.0</ele><time>2026-04-03T10:09:42.738Z</time></trkpt><trkpt lat="43.1207042" lon="11.4460724"><ele>211.5</ele><time>2026-04-03T10:09:43.738Z</time></trkpt><trkpt lat="43.1207045" lon="11.4458939"><ele>211.0</ele><time>2026-04-03T10:09:44.737Z</time></trkpt><trkpt lat="43.1207467" lon="11.4457007"><ele>211.0</ele><time>2026-04-03T10:09:45.738Z</time></trkpt><trkpt lat="43.1208077" lon="11.4454938"><ele>211.0</ele><time>2026-04-03T10:09:46.737Z</time></trkpt><trkpt lat="43.1208577" lon="11.44529"><ele>211.0</ele><time>2026-04-03T10:09:47.737Z</time></trkpt><trkpt lat="43.1208861" lon="11.4451068"><ele>211.0</ele><time>2026-04-03T10:09:48.738Z</time></trkpt><trkpt lat="43.1208872" lon="11.4449417"><ele>211.0</ele><time>2026-04-03T10:09:49.738Z</time></trkpt><trkpt lat="43.1208496" lon="11.4447886"><ele>211.0</ele><time>2026-04-03T10:09:50.738Z</time></trkpt><trkpt lat="43.1207706" lon="11.4446491"><ele>211.0</ele><time>2026-04-03T10:09:51.738Z</time></trkpt><trkpt lat="43.1206443" lon="11.444515"><ele>208.66666666666666</ele><time>2026-04-03T10:09:52.738Z</time></trkpt><trkpt lat="43.1204835" lon="11.4443983"><ele>206.33333333333331</ele><time>2026-04-03T10:09:53.738Z</time></trkpt><trkpt lat="43.1203027" lon="11.4443138"><ele>204.0</ele><time>2026-04-03T10:09:54.737Z</time></trkpt><trkpt lat="43.1201052" lon="11.4441764"><ele>200.0</ele><time>2026-04-03T10:09:55.737Z</time></trkpt><trkpt lat="43.1198852" lon="11.444039"><ele>196.0</ele><time>2026-04-03T10:09:56.738Z</time></trkpt><trkpt lat="43.119663" lon="11.4438908"><ele>194.33333333333331</ele><time>2026-04-03T10:09:57.738Z</time></trkpt><trkpt lat="43.1194581" lon="11.4437431"><ele>192.66666666666666</ele><time>2026-04-03T10:09:58.738Z</time></trkpt><trkpt lat="43.1192713" lon="11.4435974"><ele>191.0</ele><time>2026-04-03T10:09:59.737Z</time></trkpt><trkpt lat="43.1190995" lon="11.4434604"><ele>189.66666666666666</ele><time>2026-04-03T10:10:00.737Z</time></trkpt><trkpt lat="43.1189458" lon="11.4433172"><ele>188.33333333333334</ele><time>2026-04-03T10:10:01.737Z</time></trkpt><trkpt lat="43.1188109" lon="11.4431438"><ele>187.0</ele><time>2026-04-03T10:10:02.737Z</time></trkpt><trkpt lat="43.118698" lon="11.4429924"><ele>184.25</ele><time>2026-04-03T10:10:03.738Z</time></trkpt><trkpt lat="43.1185976" lon="11.4428813"><ele>181.5</ele><time>2026-04-03T10:10:04.738Z</time></trkpt><trkpt lat="43.1184999" lon="11.442778"><ele>178.75</ele><time>2026-04-03T10:10:05.737Z</time></trkpt><trkpt lat="43.1183914" lon="11.4426818"><ele>176.0</ele><time>2026-04-03T10:10:06.738Z</time></trkpt><trkpt lat="43.1182853" lon="11.4426145"><ele>176.0</ele><time>2026-04-03T10:10:07.738Z</time></trkpt><trkpt lat="43.1181868" lon="11.4425172"><ele>176.0</ele><time>2026-04-03T10:10:08.737Z</time></trkpt><trkpt lat="43.1180844" lon="11.4424236"><ele>176.0</ele><time>2026-04-03T10:10:09.738Z</time></trkpt><trkpt lat="43.1179845" lon="11.4423366"><ele>176.0</ele><time>2026-04-03T10:10:10.737Z</time></trkpt><trkpt lat="43.1178988" lon="11.4422615"><ele>176.0</ele><time>2026-04-03T10:10:11.738Z</time></trkpt><trkpt lat="43.1178166" lon="11.4421897"><ele>176.0</ele><time>2026-04-03T10:10:12.737Z</time></trkpt><trkpt lat="43.1177332" lon="11.4421156"><ele>176.0</ele><time>2026-04-03T10:10:13.738Z</time></trkpt><trkpt lat="43.1176543" lon="11.442063"><ele>176.0</ele><time>2026-04-03T10:10:14.738Z</time></trkpt><trkpt lat="43.1175772" lon="11.4420278"><ele>176.0</ele><time>2026-04-03T10:10:15.738Z</time></trkpt><trkpt lat="43.1174989" lon="11.441994"><ele>176.0</ele><time>2026-04-03T10:10:16.738Z</time></trkpt><trkpt lat="43.117419" lon="11.4419826"><ele>174.4</ele><time>2026-04-03T10:10:17.738Z</time></trkpt><trkpt lat="43.117337" lon="11.4419955"><ele>172.8</ele><time>2026-04-03T10:10:18.738Z</time></trkpt><trkpt lat="43.1172534" lon="11.4420289"><ele>171.20000000000002</ele><time>2026-04-03T10:10:19.738Z</time></trkpt><trkpt lat="43.1171675" lon="11.4420784"><ele>169.60000000000002</ele><time>2026-04-03T10:10:20.737Z</time></trkpt><trkpt lat="43.1170707" lon="11.4421464"><ele>168.0</ele><time>2026-04-03T10:10:21.738Z</time></trkpt><trkpt lat="43.116974" lon="11.4422067"><ele>168.0</ele><time>2026-04-03T10:10:22.738Z</time></trkpt><trkpt lat="43.1168781" lon="11.4422566"><ele>168.0</ele><time>2026-04-03T10:10:23.737Z</time></trkpt><trkpt lat="43.1167879" lon="11.4422871"><ele>168.0</ele><time>2026-04-03T10:10:24.738Z</time></trkpt><trkpt lat="43.116694" lon="11.4422855"><ele>168.0</ele><time>2026-04-03T10:10:25.738Z</time></trkpt><trkpt lat="43.1166108" lon="11.4422667"><ele>168.0</ele><time>2026-04-03T10:10:26.737Z</time></trkpt><trkpt lat="43.1165338" lon="11.4422245"><ele>168.0</ele><time>2026-04-03T10:10:27.738Z</time></trkpt><trkpt lat="43.1164673" lon="11.4421548"><ele>168.0</ele><time>2026-04-03T10:10:28.738Z</time></trkpt><trkpt lat="43.1163987" lon="11.4420576"><ele>168.0</ele><time>2026-04-03T10:10:29.737Z</time></trkpt><trkpt lat="43.1163168" lon="11.4419483"><ele>168.0</ele><time>2026-04-03T10:10:30.738Z</time></trkpt><trkpt lat="43.1162196" lon="11.4418249"><ele>168.0</ele><time>2026-04-03T10:10:31.737Z</time></trkpt><trkpt lat="43.116114" lon="11.4417053"><ele>165.75</ele><time>2026-04-03T10:10:32.737Z</time></trkpt><trkpt lat="43.1160051" lon="11.4416016"><ele>163.5</ele><time>2026-04-03T10:10:33.738Z</time></trkpt><trkpt lat="43.1159126" lon="11.4414967"><ele>161.25</ele><time>2026-04-03T10:10:34.738Z</time></trkpt><trkpt lat="43.1158261" lon="11.4413955"><ele>159.0</ele><time>2026-04-03T10:10:35.738Z</time></trkpt><trkpt lat="43.1157426" lon="11.441305"><ele>157.25</ele><time>2026-04-03T10:10:36.738Z</time></trkpt><trkpt lat="43.1156515" lon="11.4412451"><ele>155.5</ele><time>2026-04-03T10:10:37.737Z</time></trkpt><trkpt lat="43.1155438" lon="11.4412249"><ele>153.75</ele><time>2026-04-03T10:10:38.737Z</time></trkpt><trkpt lat="43.1154234" lon="11.4412308"><ele>152.0</ele><time>2026-04-03T10:10:39.738Z</time></trkpt><trkpt lat="43.1150834" lon="11.4413143"><ele>148.33333333333331</ele><time>2026-04-03T10:10:41.738Z</time></trkpt><trkpt lat="43.1148922" lon="11.4413408"><ele>144.66666666666666</ele><time>2026-04-03T10:10:42.737Z</time></trkpt><trkpt lat="43.1146957" lon="11.4413579"><ele>141.0</ele><time>2026-04-03T10:10:43.737Z</time></trkpt><trkpt lat="43.1144924" lon="11.4413744"><ele>141.0</ele><time>2026-04-03T10:10:44.737Z</time></trkpt><trkpt lat="43.1142824" lon="11.4413949"><ele>141.0</ele><time>2026-04-03T10:10:45.738Z</time></trkpt><trkpt lat="43.1140615" lon="11.4414181"><ele>141.0</ele><time>2026-04-03T10:10:46.737Z</time></trkpt><trkpt lat="43.113834" lon="11.4414339"><ele>139.5</ele><time>2026-04-03T10:10:47.738Z</time></trkpt><trkpt lat="43.1136013" lon="11.4414526"><ele>138.0</ele><time>2026-04-03T10:10:48.738Z</time></trkpt><trkpt lat="43.1133657" lon="11.4414748"><ele>137.5</ele><time>2026-04-03T10:10:49.738Z</time></trkpt><trkpt lat="43.1131324" lon="11.4415006"><ele>137.0</ele><time>2026-04-03T10:10:50.737Z</time></trkpt><trkpt lat="43.1128996" lon="11.4415282"><ele>137.0</ele><time>2026-04-03T10:10:51.738Z</time></trkpt><trkpt lat="43.1126767" lon="11.4415476"><ele>137.0</ele><time>2026-04-03T10:10:52.738Z</time></trkpt><trkpt lat="43.1124643" lon="11.4415669"><ele>137.0</ele><time>2026-04-03T10:10:53.737Z</time></trkpt><trkpt lat="43.1122706" lon="11.4415822"><ele>136.66666666666666</ele><time>2026-04-03T10:10:54.737Z</time></trkpt><trkpt lat="43.112089" lon="11.4415993"><ele>136.33333333333334</ele><time>2026-04-03T10:10:55.738Z</time></trkpt><trkpt lat="43.111919" lon="11.4416137"><ele>136.0</ele><time>2026-04-03T10:10:56.738Z</time></trkpt><trkpt lat="43.1117563" lon="11.4416315"><ele>136.0</ele><time>2026-04-03T10:10:57.738Z</time></trkpt><trkpt lat="43.1116068" lon="11.4416479"><ele>136.0</ele><time>2026-04-03T10:10:58.737Z</time></trkpt><trkpt lat="43.1114652" lon="11.4416653"><ele>136.0</ele><time>2026-04-03T10:10:59.737Z</time></trkpt><trkpt lat="43.1113035" lon="11.4416837"><ele>135.66666666666669</ele><time>2026-04-03T10:11:00.738Z</time></trkpt><trkpt lat="43.1111165" lon="11.4417069"><ele>135.33333333333334</ele><time>2026-04-03T10:11:01.738Z</time></trkpt><trkpt lat="43.1109169" lon="11.4417279"><ele>135.0</ele><time>2026-04-03T10:11:02.737Z</time></trkpt><trkpt lat="43.1107095" lon="11.4417415"><ele>134.33333333333334</ele><time>2026-04-03T10:11:03.738Z</time></trkpt><trkpt lat="43.110502" lon="11.4417593"><ele>133.66666666666669</ele><time>2026-04-03T10:11:04.737Z</time></trkpt><trkpt lat="43.110299" lon="11.441789"><ele>133.0</ele><time>2026-04-03T10:11:05.738Z</time></trkpt><trkpt lat="43.110098" lon="11.4418348"><ele>133.0</ele><time>2026-04-03T10:11:06.737Z</time></trkpt><trkpt lat="43.1098931" lon="11.4418996"><ele>133.0</ele><time>2026-04-03T10:11:07.737Z</time></trkpt><trkpt lat="43.1096801" lon="11.4419825"><ele>133.0</ele><time>2026-04-03T10:11:08.737Z</time></trkpt><trkpt lat="43.1094521" lon="11.4420669"><ele>133.0</ele><time>2026-04-03T10:11:09.738Z</time></trkpt><trkpt lat="43.1092073" lon="11.4421466"><ele>133.0</ele><time>2026-04-03T10:11:10.738Z</time></trkpt><trkpt lat="43.1089705" lon="11.4422132"><ele>133.0</ele><time>2026-04-03T10:11:11.738Z</time></trkpt><trkpt lat="43.1087517" lon="11.4422596"><ele>133.0</ele><time>2026-04-03T10:11:12.738Z</time></trkpt><trkpt lat="43.1085473" lon="11.4423018"><ele>133.0</ele><time>2026-04-03T10:11:13.737Z</time></trkpt><trkpt lat="43.1083588" lon="11.4423406"><ele>133.33333333333334</ele><time>2026-04-03T10:11:14.737Z</time></trkpt><trkpt lat="43.1081874" lon="11.4423764"><ele>133.66666666666666</ele><time>2026-04-03T10:11:15.737Z</time></trkpt><trkpt lat="43.1080302" lon="11.4424155"><ele>134.0</ele><time>2026-04-03T10:11:16.738Z</time></trkpt><trkpt lat="43.1078919" lon="11.4424439"><ele>134.0</ele><time>2026-04-03T10:11:17.738Z</time></trkpt><trkpt lat="43.1077625" lon="11.4424674"><ele>134.0</ele><time>2026-04-03T10:11:18.738Z</time></trkpt><trkpt lat="43.1076384" lon="11.4424708"><ele>134.0</ele><time>2026-04-03T10:11:19.737Z</time></trkpt><trkpt lat="43.1075225" lon="11.4424346"><ele>134.0</ele><time>2026-04-03T10:11:20.737Z</time></trkpt><trkpt lat="43.107406" lon="11.4423691"><ele>133.0</ele><time>2026-04-03T10:11:21.738Z</time></trkpt><trkpt lat="43.1072904" lon="11.4422584"><ele>132.0</ele><time>2026-04-03T10:11:22.738Z</time></trkpt><trkpt lat="43.1071749" lon="11.4421"><ele>131.0</ele><time>2026-04-03T10:11:23.737Z</time></trkpt><trkpt lat="43.1070414" lon="11.4419013"><ele>131.0</ele><time>2026-04-03T10:11:24.738Z</time></trkpt><trkpt lat="43.1069085" lon="11.4417054"><ele>131.0</ele><time>2026-04-03T10:11:25.737Z</time></trkpt><trkpt lat="43.106778" lon="11.4415239"><ele>131.0</ele><time>2026-04-03T10:11:26.738Z</time></trkpt><trkpt lat="43.1066505" lon="11.4413394"><ele>131.0</ele><time>2026-04-03T10:11:27.737Z</time></trkpt><trkpt lat="43.1065162" lon="11.4411445"><ele>131.0</ele><time>2026-04-03T10:11:28.738Z</time></trkpt><trkpt lat="43.1063793" lon="11.4409451"><ele>131.0</ele><time>2026-04-03T10:11:29.737Z</time></trkpt><trkpt lat="43.1062444" lon="11.4407525"><ele>131.0</ele><time>2026-04-03T10:11:30.738Z</time></trkpt><trkpt lat="43.1061163" lon="11.4405758"><ele>131.0</ele><time>2026-04-03T10:11:31.737Z</time></trkpt><trkpt lat="43.1059881" lon="11.4404017"><ele>131.0</ele><time>2026-04-03T10:11:32.738Z</time></trkpt><trkpt lat="43.1058588" lon="11.4402252"><ele>130.66666666666666</ele><time>2026-04-03T10:11:33.738Z</time></trkpt><trkpt lat="43.1057261" lon="11.4400555"><ele>130.33333333333334</ele><time>2026-04-03T10:11:34.737Z</time></trkpt><trkpt lat="43.1055999" lon="11.4398962"><ele>130.0</ele><time>2026-04-03T10:11:35.738Z</time></trkpt><trkpt lat="43.1054782" lon="11.439748"><ele>130.0</ele><time>2026-04-03T10:11:36.737Z</time></trkpt><trkpt lat="43.1052936" lon="11.439671"><ele>130.0</ele><time>2026-04-03T10:11:37.737Z</time></trkpt><trkpt lat="43.1051881" lon="11.4394966"><ele>130.0</ele><time>2026-04-03T10:11:38.738Z</time></trkpt><trkpt lat="43.1050844" lon="11.4392997"><ele>130.0</ele><time>2026-04-03T10:11:39.738Z</time></trkpt><trkpt lat="43.1049899" lon="11.4391174"><ele>130.0</ele><time>2026-04-03T10:11:40.737Z</time></trkpt><trkpt lat="43.1048963" lon="11.4389522"><ele>130.0</ele><time>2026-04-03T10:11:41.737Z</time></trkpt><trkpt lat="43.1048056" lon="11.4388093"><ele>130.33333333333334</ele><time>2026-04-03T10:11:42.738Z</time></trkpt><trkpt lat="43.1047516" lon="11.4386253"><ele>130.66666666666666</ele><time>2026-04-03T10:11:43.737Z</time></trkpt><trkpt lat="43.1046406" lon="11.4384761"><ele>131.0</ele><time>2026-04-03T10:11:44.737Z</time></trkpt><trkpt lat="43.1045221" lon="11.4383179"><ele>131.0</ele><time>2026-04-03T10:11:45.737Z</time></trkpt><trkpt lat="43.104408" lon="11.4381535"><ele>131.0</ele><time>2026-04-03T10:11:46.738Z</time></trkpt><trkpt lat="43.1042976" lon="11.4380001"><ele>131.0</ele><time>2026-04-03T10:11:47.738Z</time></trkpt><trkpt lat="43.1041904" lon="11.4378487"><ele>131.0</ele><time>2026-04-03T10:11:48.737Z</time></trkpt><trkpt lat="43.1040839" lon="11.4376975"><ele>131.0</ele><time>2026-04-03T10:11:49.737Z</time></trkpt><trkpt lat="43.1039802" lon="11.4375529"><ele>131.0</ele><time>2026-04-03T10:11:50.738Z</time></trkpt><trkpt lat="43.1038773" lon="11.4374126"><ele>131.0</ele><time>2026-04-03T10:11:51.738Z</time></trkpt><trkpt lat="43.1037735" lon="11.437271"><ele>131.75</ele><time>2026-04-03T10:11:52.738Z</time></trkpt><trkpt lat="43.1036721" lon="11.437132"><ele>132.5</ele><time>2026-04-03T10:11:53.737Z</time></trkpt><trkpt lat="43.1035748" lon="11.436995"><ele>133.25</ele><time>2026-04-03T10:11:54.738Z</time></trkpt><trkpt lat="43.1034831" lon="11.4368647"><ele>134.0</ele><time>2026-04-03T10:11:55.737Z</time></trkpt><trkpt lat="43.1033939" lon="11.4367326"><ele>134.0</ele><time>2026-04-03T10:11:56.738Z</time></trkpt><trkpt lat="43.103304" lon="11.436593"><ele>134.0</ele><time>2026-04-03T10:11:57.738Z</time></trkpt><trkpt lat="43.1032068" lon="11.4364569"><ele>134.0</ele><time>2026-04-03T10:11:58.738Z</time></trkpt><trkpt lat="43.1031135" lon="11.4363374"><ele>134.0</ele><time>2026-04-03T10:11:59.738Z</time></trkpt><trkpt lat="43.1030245" lon="11.4362238"><ele>134.5</ele><time>2026-04-03T10:12:00.738Z</time></trkpt><trkpt lat="43.1029366" lon="11.4361062"><ele>135.0</ele><time>2026-04-03T10:12:01.737Z</time></trkpt><trkpt lat="43.1028534" lon="11.4359823"><ele>135.5</ele><time>2026-04-03T10:12:02.738Z</time></trkpt><trkpt lat="43.1027668" lon="11.4358588"><ele>136.0</ele><time>2026-04-03T10:12:03.737Z</time></trkpt><trkpt lat="43.1026776" lon="11.4357251"><ele>136.0</ele><time>2026-04-03T10:12:04.737Z</time></trkpt><trkpt lat="43.1025864" lon="11.435589"><ele>136.0</ele><time>2026-04-03T10:12:05.738Z</time></trkpt><trkpt lat="43.1024974" lon="11.4354558"><ele>136.0</ele><time>2026-04-03T10:12:06.737Z</time></trkpt><trkpt lat="43.1024178" lon="11.4353186"><ele>136.0</ele><time>2026-04-03T10:12:07.738Z</time></trkpt><trkpt lat="43.1023441" lon="11.435189"><ele>136.75</ele><time>2026-04-03T10:12:08.738Z</time></trkpt><trkpt lat="43.1022804" lon="11.4350589"><ele>137.5</ele><time>2026-04-03T10:12:09.737Z</time></trkpt><trkpt lat="43.1022279" lon="11.4349173"><ele>138.25</ele><time>2026-04-03T10:12:10.738Z</time></trkpt><trkpt lat="43.1022007" lon="11.4347747"><ele>139.0</ele><time>2026-04-03T10:12:11.737Z</time></trkpt><trkpt lat="43.1021979" lon="11.4346178"><ele>140.5</ele><time>2026-04-03T10:12:12.737Z</time></trkpt><trkpt lat="43.1022097" lon="11.4344668"><ele>142.0</ele><time>2026-04-03T10:12:13.736Z</time></trkpt><trkpt lat="43.1022333" lon="11.4343127"><ele>143.5</ele><time>2026-04-03T10:12:14.737Z</time></trkpt><trkpt lat="43.1022587" lon="11.4341535"><ele>145.0</ele><time>2026-04-03T10:12:15.736Z</time></trkpt><trkpt lat="43.1022922" lon="11.4339834"><ele>145.0</ele><time>2026-04-03T10:12:16.737Z</time></trkpt><trkpt lat="43.1023206" lon="11.4338232"><ele>145.0</ele><time>2026-04-03T10:12:17.736Z</time></trkpt><trkpt lat="43.1023331" lon="11.4336742"><ele>145.0</ele><time>2026-04-03T10:12:18.737Z</time></trkpt><trkpt lat="43.1023397" lon="11.4335333"><ele>145.0</ele><time>2026-04-03T10:12:19.736Z</time></trkpt><trkpt lat="43.1023327" lon="11.4333918"><ele>145.0</ele><time>2026-04-03T10:12:20.736Z</time></trkpt><trkpt lat="43.1023144" lon="11.4332399"><ele>145.25</ele><time>2026-04-03T10:12:21.737Z</time></trkpt><trkpt lat="43.1022818" lon="11.4330723"><ele>145.5</ele><time>2026-04-03T10:12:22.737Z</time></trkpt><trkpt lat="43.1022309" lon="11.4329145"><ele>145.75</ele><time>2026-04-03T10:12:23.737Z</time></trkpt><trkpt lat="43.1021711" lon="11.4327812"><ele>146.0</ele><time>2026-04-03T10:12:24.737Z</time></trkpt><trkpt lat="43.1020971" lon="11.4326697"><ele>146.0</ele><time>2026-04-03T10:12:25.737Z</time></trkpt><trkpt lat="43.102013" lon="11.4325889"><ele>146.0</ele><time>2026-04-03T10:12:26.736Z</time></trkpt><trkpt lat="43.1019101" lon="11.4325272"><ele>146.0</ele><time>2026-04-03T10:12:27.736Z</time></trkpt><trkpt lat="43.1017845" lon="11.4324745"><ele>146.0</ele><time>2026-04-03T10:12:28.736Z</time></trkpt><trkpt lat="43.1016504" lon="11.4324607"><ele>147.5</ele><time>2026-04-03T10:12:29.737Z</time></trkpt><trkpt lat="43.101521" lon="11.4324548"><ele>149.0</ele><time>2026-04-03T10:12:30.736Z</time></trkpt><trkpt lat="43.101406" lon="11.4324268"><ele>150.5</ele><time>2026-04-03T10:12:31.736Z</time></trkpt><trkpt lat="43.1012826" lon="11.4324141"><ele>152.0</ele><time>2026-04-03T10:12:32.737Z</time></trkpt><trkpt lat="43.1011424" lon="11.43241"><ele>152.0</ele><time>2026-04-03T10:12:33.736Z</time></trkpt><trkpt lat="43.1010012" lon="11.4323988"><ele>152.0</ele><time>2026-04-03T10:12:34.737Z</time></trkpt><trkpt lat="43.1008572" lon="11.4323905"><ele>152.0</ele><time>2026-04-03T10:12:35.737Z</time></trkpt><trkpt lat="43.1007074" lon="11.4323816"><ele>152.0</ele><time>2026-04-03T10:12:36.737Z</time></trkpt><trkpt lat="43.1005494" lon="11.4323671"><ele>154.0</ele><time>2026-04-03T10:12:37.736Z</time></trkpt><trkpt lat="43.1003727" lon="11.4323481"><ele>156.0</ele><time>2026-04-03T10:12:38.737Z</time></trkpt><trkpt lat="43.1001764" lon="11.4323301"><ele>158.0</ele><time>2026-04-03T10:12:39.736Z</time></trkpt><trkpt lat="43.0999865" lon="11.4323104"><ele>159.0</ele><time>2026-04-03T10:12:40.736Z</time></trkpt><trkpt lat="43.0998188" lon="11.4323025"><ele>160.0</ele><time>2026-04-03T10:12:41.736Z</time></trkpt><trkpt lat="43.0996569" lon="11.4322839"><ele>161.0</ele><time>2026-04-03T10:12:42.736Z</time></trkpt><trkpt lat="43.0995181" lon="11.4322616"><ele>161.0</ele><time>2026-04-03T10:12:43.737Z</time></trkpt><trkpt lat="43.0993968" lon="11.4322525"><ele>161.0</ele><time>2026-04-03T10:12:44.736Z</time></trkpt><trkpt lat="43.0992914" lon="11.4322435"><ele>161.0</ele><time>2026-04-03T10:12:45.737Z</time></trkpt><trkpt lat="43.0991927" lon="11.4322367"><ele>161.0</ele><time>2026-04-03T10:12:46.737Z</time></trkpt><trkpt lat="43.0990947" lon="11.432235"><ele>161.0</ele><time>2026-04-03T10:12:47.736Z</time></trkpt><trkpt lat="43.0990038" lon="11.4322261"><ele>160.20000000000002</ele><time>2026-04-03T10:12:48.737Z</time></trkpt><trkpt lat="43.0989129" lon="11.432207"><ele>159.4</ele><time>2026-04-03T10:12:49.736Z</time></trkpt><trkpt lat="43.0988161" lon="11.4321911"><ele>158.6</ele><time>2026-04-03T10:12:50.737Z</time></trkpt><trkpt lat="43.0987155" lon="11.4321666"><ele>157.8</ele><time>2026-04-03T10:12:51.736Z</time></trkpt><trkpt lat="43.0986082" lon="11.4321302"><ele>157.0</ele><time>2026-04-03T10:12:52.736Z</time></trkpt><trkpt lat="43.0985035" lon="11.432073"><ele>158.5</ele><time>2026-04-03T10:12:53.736Z</time></trkpt><trkpt lat="43.0984029" lon="11.4319956"><ele>160.0</ele><time>2026-04-03T10:12:54.736Z</time></trkpt><trkpt lat="43.0983004" lon="11.4319122"><ele>161.5</ele><time>2026-04-03T10:12:55.737Z</time></trkpt><trkpt lat="43.0981918" lon="11.4318313"><ele>163.0</ele><time>2026-04-03T10:12:56.737Z</time></trkpt><trkpt lat="43.0980854" lon="11.4317492"><ele>163.0</ele><time>2026-04-03T10:12:57.737Z</time></trkpt><trkpt lat="43.0979805" lon="11.4316632"><ele>163.0</ele><time>2026-04-03T10:12:58.736Z</time></trkpt><trkpt lat="43.0978751" lon="11.4315736"><ele>163.0</ele><time>2026-04-03T10:12:59.736Z</time></trkpt><trkpt lat="43.0977683" lon="11.4314783"><ele>163.0</ele><time>2026-04-03T10:13:00.737Z</time></trkpt><trkpt lat="43.0976599" lon="11.4313892"><ele>164.0</ele><time>2026-04-03T10:13:01.736Z</time></trkpt><trkpt lat="43.0975847" lon="11.4312836"><ele>165.0</ele><time>2026-04-03T10:13:02.736Z</time></trkpt><trkpt lat="43.0974734" lon="11.4311884"><ele>166.0</ele><time>2026-04-03T10:13:03.737Z</time></trkpt><trkpt lat="43.0973609" lon="11.4310981"><ele>167.0</ele><time>2026-04-03T10:13:04.736Z</time></trkpt><trkpt lat="43.0972499" lon="11.4310041"><ele>167.0</ele><time>2026-04-03T10:13:05.737Z</time></trkpt><trkpt lat="43.097145" lon="11.4309173"><ele>167.0</ele><time>2026-04-03T10:13:06.737Z</time></trkpt><trkpt lat="43.097038" lon="11.4308302"><ele>167.0</ele><time>2026-04-03T10:13:07.736Z</time></trkpt><trkpt lat="43.0969278" lon="11.4307492"><ele>167.0</ele><time>2026-04-03T10:13:08.737Z</time></trkpt><trkpt lat="43.0968224" lon="11.4306588"><ele>167.0</ele><time>2026-04-03T10:13:09.737Z</time></trkpt><trkpt lat="43.0967222" lon="11.4305525"><ele>167.0</ele><time>2026-04-03T10:13:10.736Z</time></trkpt><trkpt lat="43.09663" lon="11.4304361"><ele>167.0</ele><time>2026-04-03T10:13:11.737Z</time></trkpt><trkpt lat="43.0965371" lon="11.4303164"><ele>167.0</ele><time>2026-04-03T10:13:12.736Z</time></trkpt><trkpt lat="43.0964421" lon="11.4301961"><ele>168.0</ele><time>2026-04-03T10:13:13.737Z</time></trkpt><trkpt lat="43.0963425" lon="11.4300755"><ele>169.0</ele><time>2026-04-03T10:13:14.736Z</time></trkpt><trkpt lat="43.0962409" lon="11.4299529"><ele>170.0</ele><time>2026-04-03T10:13:15.737Z</time></trkpt><trkpt lat="43.0961333" lon="11.429835"><ele>171.0</ele><time>2026-04-03T10:13:16.737Z</time></trkpt><trkpt lat="43.0960248" lon="11.4297203"><ele>172.0</ele><time>2026-04-03T10:13:17.736Z</time></trkpt><trkpt lat="43.0959137" lon="11.4296186"><ele>173.0</ele><time>2026-04-03T10:13:18.736Z</time></trkpt><trkpt lat="43.095793" lon="11.4295203"><ele>174.0</ele><time>2026-04-03T10:13:19.736Z</time></trkpt><trkpt lat="43.0956618" lon="11.4294211"><ele>175.0</ele><time>2026-04-03T10:13:20.737Z</time></trkpt><trkpt lat="43.095526" lon="11.4293248"><ele>176.0</ele><time>2026-04-03T10:13:21.737Z</time></trkpt><trkpt lat="43.0953879" lon="11.4292304"><ele>177.0</ele><time>2026-04-03T10:13:22.736Z</time></trkpt><trkpt lat="43.0952572" lon="11.4291348"><ele>178.0</ele><time>2026-04-03T10:13:23.737Z</time></trkpt><trkpt lat="43.0951343" lon="11.429038"><ele>179.0</ele><time>2026-04-03T10:13:24.736Z</time></trkpt><trkpt lat="43.0950107" lon="11.4289446"><ele>179.75</ele><time>2026-04-03T10:13:25.737Z</time></trkpt><trkpt lat="43.0948925" lon="11.4288535"><ele>180.5</ele><time>2026-04-03T10:13:26.737Z</time></trkpt><trkpt lat="43.0947861" lon="11.4287716"><ele>181.25</ele><time>2026-04-03T10:13:27.736Z</time></trkpt><trkpt lat="43.0946935" lon="11.4287001"><ele>182.0</ele><time>2026-04-03T10:13:28.737Z</time></trkpt><trkpt lat="43.0946108" lon="11.4286423"><ele>182.8</ele><time>2026-04-03T10:13:29.736Z</time></trkpt><trkpt lat="43.094538" lon="11.4285942"><ele>183.6</ele><time>2026-04-03T10:13:30.737Z</time></trkpt><trkpt lat="43.0944604" lon="11.4285578"><ele>184.4</ele><time>2026-04-03T10:13:31.736Z</time></trkpt><trkpt lat="43.0943722" lon="11.4285029"><ele>185.20000000000002</ele><time>2026-04-03T10:13:32.737Z</time></trkpt><trkpt lat="43.09426" lon="11.4284363"><ele>186.0</ele><time>2026-04-03T10:13:33.737Z</time></trkpt><trkpt lat="43.0941287" lon="11.4283392"><ele>186.66666666666666</ele><time>2026-04-03T10:13:34.737Z</time></trkpt><trkpt lat="43.0939681" lon="11.4282155"><ele>187.33333333333331</ele><time>2026-04-03T10:13:35.737Z</time></trkpt><trkpt lat="43.0937843" lon="11.4280786"><ele>188.0</ele><time>2026-04-03T10:13:36.736Z</time></trkpt><trkpt lat="43.0935849" lon="11.4279196"><ele>189.5</ele><time>2026-04-03T10:13:37.737Z</time></trkpt><trkpt lat="43.0933741" lon="11.4277574"><ele>191.0</ele><time>2026-04-03T10:13:38.737Z</time></trkpt><trkpt lat="43.0931841" lon="11.4276163"><ele>192.0</ele><time>2026-04-03T10:13:39.737Z</time></trkpt><trkpt lat="43.0929905" lon="11.427475"><ele>193.0</ele><time>2026-04-03T10:13:40.736Z</time></trkpt><trkpt lat="43.0927944" lon="11.4273296"><ele>194.0</ele><time>2026-04-03T10:13:41.736Z</time></trkpt><trkpt lat="43.0926029" lon="11.4271899"><ele>196.0</ele><time>2026-04-03T10:13:42.737Z</time></trkpt><trkpt lat="43.092417" lon="11.427049"><ele>198.0</ele><time>2026-04-03T10:13:43.737Z</time></trkpt><trkpt lat="43.0922431" lon="11.4269144"><ele>200.0</ele><time>2026-04-03T10:13:44.736Z</time></trkpt><trkpt lat="43.0920775" lon="11.4267933"><ele>200.0</ele><time>2026-04-03T10:13:45.737Z</time></trkpt><trkpt lat="43.0919146" lon="11.4266758"><ele>200.0</ele><time>2026-04-03T10:13:46.737Z</time></trkpt><trkpt lat="43.0917573" lon="11.4265609"><ele>200.0</ele><time>2026-04-03T10:13:47.737Z</time></trkpt><trkpt lat="43.0916097" lon="11.4264552"><ele>199.75</ele><time>2026-04-03T10:13:48.737Z</time></trkpt><trkpt lat="43.0914759" lon="11.4263505"><ele>199.5</ele><time>2026-04-03T10:13:49.737Z</time></trkpt><trkpt lat="43.0913543" lon="11.4262573"><ele>199.25</ele><time>2026-04-03T10:13:50.736Z</time></trkpt><trkpt lat="43.0912337" lon="11.4261694"><ele>199.0</ele><time>2026-04-03T10:13:51.736Z</time></trkpt><trkpt lat="43.0911161" lon="11.42609"><ele>200.0</ele><time>2026-04-03T10:13:52.737Z</time></trkpt><trkpt lat="43.0909978" lon="11.4260331"><ele>201.0</ele><time>2026-04-03T10:13:53.736Z</time></trkpt><trkpt lat="43.0908686" lon="11.4259971"><ele>202.0</ele><time>2026-04-03T10:13:54.736Z</time></trkpt><trkpt lat="43.0907253" lon="11.4259587"><ele>203.0</ele><time>2026-04-03T10:13:55.737Z</time></trkpt><trkpt lat="43.0905726" lon="11.4259114"><ele>205.0</ele><time>2026-04-03T10:13:56.736Z</time></trkpt><trkpt lat="43.0904086" lon="11.4258609"><ele>207.0</ele><time>2026-04-03T10:13:57.737Z</time></trkpt><trkpt lat="43.0902324" lon="11.4258092"><ele>209.0</ele><time>2026-04-03T10:13:58.737Z</time></trkpt><trkpt lat="43.0900526" lon="11.4257521"><ele>210.66666666666669</ele><time>2026-04-03T10:13:59.736Z</time></trkpt><trkpt lat="43.0898801" lon="11.4257056"><ele>212.33333333333331</ele><time>2026-04-03T10:14:00.736Z</time></trkpt><trkpt lat="43.0897157" lon="11.4256611"><ele>214.0</ele><time>2026-04-03T10:14:01.737Z</time></trkpt><trkpt lat="43.0895538" lon="11.4256205"><ele>214.0</ele><time>2026-04-03T10:14:02.736Z</time></trkpt><trkpt lat="43.0894051" lon="11.4255792"><ele>214.0</ele><time>2026-04-03T10:14:03.736Z</time></trkpt><trkpt lat="43.0892798" lon="11.4255429"><ele>214.0</ele><time>2026-04-03T10:14:04.737Z</time></trkpt><trkpt lat="43.0891693" lon="11.4255091"><ele>214.0</ele><time>2026-04-03T10:14:05.737Z</time></trkpt><trkpt lat="43.0890798" lon="11.4254695"><ele>219.2</ele><time>2026-04-03T10:14:06.736Z</time></trkpt><trkpt lat="43.0890182" lon="11.4254028"><ele>224.39999999999998</ele><time>2026-04-03T10:14:07.736Z</time></trkpt><trkpt lat="43.0889739" lon="11.4253187"><ele>229.6</ele><time>2026-04-03T10:14:08.736Z</time></trkpt><trkpt lat="43.088943" lon="11.4252052"><ele>234.8</ele><time>2026-04-03T10:14:09.737Z</time></trkpt><trkpt lat="43.0889345" lon="11.4250657"><ele>240.0</ele><time>2026-04-03T10:14:10.736Z</time></trkpt><trkpt lat="43.0889389" lon="11.4248929"><ele>240.0</ele><time>2026-04-03T10:14:11.736Z</time></trkpt><trkpt lat="43.0889702" lon="11.4247306"><ele>240.0</ele><time>2026-04-03T10:14:12.737Z</time></trkpt><trkpt lat="43.0890002" lon="11.4245466"><ele>240.0</ele><time>2026-04-03T10:14:13.736Z</time></trkpt><trkpt lat="43.0890359" lon="11.4243605"><ele>240.0</ele><time>2026-04-03T10:14:14.736Z</time></trkpt><trkpt lat="43.089071" lon="11.4241718"><ele>239.5</ele><time>2026-04-03T10:14:15.736Z</time></trkpt><trkpt lat="43.0891014" lon="11.4239845"><ele>239.0</ele><time>2026-04-03T10:14:16.737Z</time></trkpt><trkpt lat="43.0891329" lon="11.4238148"><ele>238.5</ele><time>2026-04-03T10:14:17.736Z</time></trkpt><trkpt lat="43.0891563" lon="11.4236616"><ele>238.0</ele><time>2026-04-03T10:14:18.737Z</time></trkpt><trkpt lat="43.0891658" lon="11.4235171"><ele>238.0</ele><time>2026-04-03T10:14:19.736Z</time></trkpt><trkpt lat="43.0891635" lon="11.4233898"><ele>238.0</ele><time>2026-04-03T10:14:20.737Z</time></trkpt><trkpt lat="43.0891423" lon="11.4232658"><ele>238.0</ele><time>2026-04-03T10:14:21.736Z</time></trkpt><trkpt lat="43.0891111" lon="11.4231479"><ele>238.0</ele><time>2026-04-03T10:14:22.737Z</time></trkpt><trkpt lat="43.0890749" lon="11.4230301"><ele>238.0</ele><time>2026-04-03T10:14:23.737Z</time></trkpt><trkpt lat="43.089036" lon="11.4229141"><ele>244.25</ele><time>2026-04-03T10:14:24.736Z</time></trkpt><trkpt lat="43.0889867" lon="11.4227892"><ele>250.5</ele><time>2026-04-03T10:14:25.737Z</time></trkpt><trkpt lat="43.0889267" lon="11.4226419"><ele>256.75</ele><time>2026-04-03T10:14:26.737Z</time></trkpt><trkpt lat="43.088859" lon="11.4224715"><ele>263.0</ele><time>2026-04-03T10:14:27.737Z</time></trkpt><trkpt lat="43.0887957" lon="11.4223086"><ele>263.0</ele><time>2026-04-03T10:14:28.737Z</time></trkpt><trkpt lat="43.0887479" lon="11.4221707"><ele>263.0</ele><time>2026-04-03T10:14:29.737Z</time></trkpt><trkpt lat="43.0887093" lon="11.4220549"><ele>263.0</ele><time>2026-04-03T10:14:30.737Z</time></trkpt><trkpt lat="43.0886705" lon="11.4219539"><ele>263.0</ele><time>2026-04-03T10:14:31.737Z</time></trkpt><trkpt lat="43.0886245" lon="11.42186"><ele>263.0</ele><time>2026-04-03T10:14:32.737Z</time></trkpt><trkpt lat="43.0885722" lon="11.4217953"><ele>263.0</ele><time>2026-04-03T10:14:33.736Z</time></trkpt><trkpt lat="43.0885153" lon="11.4217475"><ele>262.0</ele><time>2026-04-03T10:14:34.737Z</time></trkpt><trkpt lat="43.0884488" lon="11.4217187"><ele>261.0</ele><time>2026-04-03T10:14:35.737Z</time></trkpt><trkpt lat="43.0883799" lon="11.4217057"><ele>260.0</ele><time>2026-04-03T10:14:36.737Z</time></trkpt><trkpt lat="43.0883106" lon="11.4217191"><ele>259.0</ele><time>2026-04-03T10:14:37.737Z</time></trkpt><trkpt lat="43.0882506" lon="11.4217655"><ele>258.0</ele><time>2026-04-03T10:14:38.736Z</time></trkpt><trkpt lat="43.0881756" lon="11.4218874"><ele>257.0</ele><time>2026-04-03T10:14:40.737Z</time></trkpt><trkpt lat="43.0881492" lon="11.4219754"><ele>261.4</ele><time>2026-04-03T10:14:41.736Z</time></trkpt><trkpt lat="43.0881316" lon="11.4220807"><ele>265.79999999999995</ele><time>2026-04-03T10:14:42.737Z</time></trkpt><trkpt lat="43.0881088" lon="11.4222031"><ele>270.2</ele><time>2026-04-03T10:14:43.737Z</time></trkpt><trkpt lat="43.088076" lon="11.4223257"><ele>274.59999999999997</ele><time>2026-04-03T10:14:44.737Z</time></trkpt><trkpt lat="43.0880406" lon="11.422456"><ele>279.0</ele><time>2026-04-03T10:14:45.737Z</time></trkpt><trkpt lat="43.0880035" lon="11.4226003"><ele>279.75</ele><time>2026-04-03T10:14:46.737Z</time></trkpt><trkpt lat="43.0879657" lon="11.4227519"><ele>280.5</ele><time>2026-04-03T10:14:47.737Z</time></trkpt><trkpt lat="43.0879265" lon="11.4229047"><ele>281.25</ele><time>2026-04-03T10:14:48.736Z</time></trkpt><trkpt lat="43.0878837" lon="11.4230555"><ele>282.0</ele><time>2026-04-03T10:14:49.737Z</time></trkpt><trkpt lat="43.0878315" lon="11.4231972"><ele>282.1666666666667</ele><time>2026-04-03T10:14:50.737Z</time></trkpt><trkpt lat="43.0877759" lon="11.4233125"><ele>282.3333333333333</ele><time>2026-04-03T10:14:51.736Z</time></trkpt><trkpt lat="43.087727" lon="11.4233992"><ele>282.5</ele><time>2026-04-03T10:14:52.737Z</time></trkpt><trkpt lat="43.087639" lon="11.4234855"><ele>282.66666666666663</ele><time>2026-04-03T10:14:54.736Z</time></trkpt><trkpt lat="43.0875537" lon="11.4234792"><ele>282.8333333333333</ele><time>2026-04-03T10:14:56.737Z</time></trkpt><trkpt lat="43.0874856" lon="11.4234513"><ele>283.0</ele><time>2026-04-03T10:14:59.737Z</time></trkpt><trkpt lat="43.0874592" lon="11.4233533"><ele>283.0</ele><time>2026-04-03T10:15:02.737Z</time></trkpt><trkpt lat="43.0874281" lon="11.4231788"><ele>283.0</ele><time>2026-04-03T10:15:04.736Z</time></trkpt><trkpt lat="43.0874089" lon="11.4230573"><ele>283.0</ele><time>2026-04-03T10:15:05.737Z</time></trkpt><trkpt lat="43.0873849" lon="11.4229265"><ele>283.0</ele><time>2026-04-03T10:15:06.737Z</time></trkpt><trkpt lat="43.0873768" lon="11.4227835"><ele>283.0</ele><time>2026-04-03T10:15:07.737Z</time></trkpt><trkpt lat="43.0873525" lon="11.4226904"><ele>288.4</ele><time>2026-04-03T10:15:08.736Z</time></trkpt><trkpt lat="43.087274" lon="11.4226013"><ele>293.8</ele><time>2026-04-03T10:15:10.736Z</time></trkpt><trkpt lat="43.0871952" lon="11.4226416"><ele>299.2</ele><time>2026-04-03T10:15:12.737Z</time></trkpt><trkpt lat="43.0871535" lon="11.4227836"><ele>304.6</ele><time>2026-04-03T10:15:14.737Z</time></trkpt><trkpt lat="43.0871374" lon="11.4229736"><ele>310.0</ele><time>2026-04-03T10:15:16.737Z</time></trkpt><trkpt lat="43.087119" lon="11.4230905"><ele>310.0</ele><time>2026-04-03T10:15:17.737Z</time></trkpt><trkpt lat="43.0870863" lon="11.4232297"><ele>310.0</ele><time>2026-04-03T10:15:18.737Z</time></trkpt><trkpt lat="43.0870499" lon="11.4233818"><ele>310.0</ele><time>2026-04-03T10:15:19.736Z</time></trkpt><trkpt lat="43.0870124" lon="11.4235161"><ele>310.0</ele><time>2026-04-03T10:15:20.737Z</time></trkpt><trkpt lat="43.086977" lon="11.4236294"><ele>310.0</ele><time>2026-04-03T10:15:21.737Z</time></trkpt><trkpt lat="43.0869389" lon="11.4237225"><ele>310.0</ele><time>2026-04-03T10:15:22.736Z</time></trkpt><trkpt lat="43.086889" lon="11.4237931"><ele>310.0</ele><time>2026-04-03T10:15:23.737Z</time></trkpt><trkpt lat="43.0868356" lon="11.4238426"><ele>310.0</ele><time>2026-04-03T10:15:24.737Z</time></trkpt><trkpt lat="43.0867656" lon="11.4238638"><ele>310.0</ele><time>2026-04-03T10:15:25.736Z</time></trkpt><trkpt lat="43.0866955" lon="11.4238657"><ele>310.0</ele><time>2026-04-03T10:15:26.737Z</time></trkpt><trkpt lat="43.0866266" lon="11.4238517"><ele>310.0</ele><time>2026-04-03T10:15:27.736Z</time></trkpt><trkpt lat="43.0865583" lon="11.423818"><ele>310.0</ele><time>2026-04-03T10:15:28.737Z</time></trkpt><trkpt lat="43.0864987" lon="11.4237834"><ele>313.8</ele><time>2026-04-03T10:15:29.737Z</time></trkpt><trkpt lat="43.0864167" lon="11.4236707"><ele>317.6</ele><time>2026-04-03T10:15:31.737Z</time></trkpt><trkpt lat="43.086387" lon="11.4235097"><ele>321.4</ele><time>2026-04-03T10:15:33.737Z</time></trkpt><trkpt lat="43.0864179" lon="11.4233593"><ele>325.2</ele><time>2026-04-03T10:15:35.737Z</time></trkpt><trkpt lat="43.0864477" lon="11.423272"><ele>329.0</ele><time>2026-04-03T10:15:36.737Z</time></trkpt><trkpt lat="43.0864777" lon="11.423177"><ele>329.0</ele><time>2026-04-03T10:15:37.736Z</time></trkpt><trkpt lat="43.0865072" lon="11.4230695"><ele>329.0</ele><time>2026-04-03T10:15:38.737Z</time></trkpt><trkpt lat="43.086526" lon="11.4229674"><ele>329.0</ele><time>2026-04-03T10:15:39.737Z</time></trkpt><trkpt lat="43.0865262" lon="11.4228689"><ele>329.0</ele><time>2026-04-03T10:15:40.737Z</time></trkpt><trkpt lat="43.0865069" lon="11.4227726"><ele>329.0</ele><time>2026-04-03T10:15:41.737Z</time></trkpt><trkpt lat="43.0864767" lon="11.4226966"><ele>329.0</ele><time>2026-04-03T10:15:42.736Z</time></trkpt><trkpt lat="43.0864212" lon="11.4226433"><ele>329.0</ele><time>2026-04-03T10:15:43.736Z</time></trkpt><trkpt lat="43.0863567" lon="11.4226234"><ele>329.0</ele><time>2026-04-03T10:15:44.737Z</time></trkpt><trkpt lat="43.0862946" lon="11.4226447"><ele>329.0</ele><time>2026-04-03T10:15:45.736Z</time></trkpt><trkpt lat="43.0862378" lon="11.4226948"><ele>329.0</ele><time>2026-04-03T10:15:46.736Z</time></trkpt><trkpt lat="43.0861858" lon="11.4227687"><ele>329.0</ele><time>2026-04-03T10:15:47.737Z</time></trkpt><trkpt lat="43.0861314" lon="11.4228772"><ele>329.0</ele><time>2026-04-03T10:15:48.736Z</time></trkpt><trkpt lat="43.0860671" lon="11.4229973"><ele>329.0</ele><time>2026-04-03T10:15:49.737Z</time></trkpt><trkpt lat="43.0859927" lon="11.4231233"><ele>329.0</ele><time>2026-04-03T10:15:50.737Z</time></trkpt><trkpt lat="43.0859205" lon="11.4232276"><ele>329.0</ele><time>2026-04-03T10:15:51.737Z</time></trkpt><trkpt lat="43.0858526" lon="11.4232767"><ele>329.0</ele><time>2026-04-03T10:15:52.737Z</time></trkpt><trkpt lat="43.0857753" lon="11.4232829"><ele>329.0</ele><time>2026-04-03T10:15:53.737Z</time></trkpt><trkpt lat="43.0856766" lon="11.423222"><ele>329.0</ele><time>2026-04-03T10:15:54.737Z</time></trkpt><trkpt lat="43.0855894" lon="11.4231182"><ele>335.6666666666667</ele><time>2026-04-03T10:15:55.737Z</time></trkpt><trkpt lat="43.0855281" lon="11.4229503"><ele>342.3333333333333</ele><time>2026-04-03T10:15:56.737Z</time></trkpt><trkpt lat="43.0854802" lon="11.4227314"><ele>349.0</ele><time>2026-04-03T10:15:57.737Z</time></trkpt><trkpt lat="43.0854356" lon="11.4225157"><ele>349.0</ele><time>2026-04-03T10:15:58.737Z</time></trkpt><trkpt lat="43.0853905" lon="11.4223342"><ele>349.0</ele><time>2026-04-03T10:15:59.737Z</time></trkpt><trkpt lat="43.0853403" lon="11.4221757"><ele>349.0</ele><time>2026-04-03T10:16:00.737Z</time></trkpt><trkpt lat="43.0852763" lon="11.4220424"><ele>349.0</ele><time>2026-04-03T10:16:01.736Z</time></trkpt><trkpt lat="43.0851898" lon="11.4219241"><ele>348.0</ele><time>2026-04-03T10:16:02.736Z</time></trkpt><trkpt lat="43.0850884" lon="11.4218309"><ele>347.0</ele><time>2026-04-03T10:16:03.736Z</time></trkpt><trkpt lat="43.0849689" lon="11.4217691"><ele>346.0</ele><time>2026-04-03T10:16:04.737Z</time></trkpt><trkpt lat="43.0848341" lon="11.4217081"><ele>345.0</ele><time>2026-04-03T10:16:05.737Z</time></trkpt><trkpt lat="43.0846909" lon="11.4216518"><ele>345.0</ele><time>2026-04-03T10:16:06.736Z</time></trkpt><trkpt lat="43.0845465" lon="11.4215957"><ele>345.0</ele><time>2026-04-03T10:16:07.737Z</time></trkpt><trkpt lat="43.0844205" lon="11.4215263"><ele>345.0</ele><time>2026-04-03T10:16:08.737Z</time></trkpt><trkpt lat="43.0842983" lon="11.4214541"><ele>345.0</ele><time>2026-04-03T10:16:09.737Z</time></trkpt><trkpt lat="43.0842012" lon="11.4213787"><ele>345.5</ele><time>2026-04-03T10:16:10.737Z</time></trkpt><trkpt lat="43.0841279" lon="11.4213144"><ele>346.0</ele><time>2026-04-03T10:16:11.737Z</time></trkpt><trkpt lat="43.0840415" lon="11.4212427"><ele>346.5</ele><time>2026-04-03T10:16:12.737Z</time></trkpt><trkpt lat="43.0839345" lon="11.4211517"><ele>347.0</ele><time>2026-04-03T10:16:13.736Z</time></trkpt><trkpt lat="43.0838111" lon="11.4210646"><ele>347.0</ele><time>2026-04-03T10:16:14.736Z</time></trkpt><trkpt lat="43.0836741" lon="11.4209917"><ele>347.0</ele><time>2026-04-03T10:16:15.737Z</time></trkpt><trkpt lat="43.0835233" lon="11.4209283"><ele>347.0</ele><time>2026-04-03T10:16:16.737Z</time></trkpt><trkpt lat="43.0833633" lon="11.4208807"><ele>349.6666666666667</ele><time>2026-04-03T10:16:17.737Z</time></trkpt><trkpt lat="43.0832109" lon="11.4208316"><ele>352.3333333333333</ele><time>2026-04-03T10:16:18.737Z</time></trkpt><trkpt lat="43.0830596" lon="11.4207822"><ele>355.0</ele><time>2026-04-03T10:16:19.737Z</time></trkpt><trkpt lat="43.0829083" lon="11.4207305"><ele>355.0</ele><time>2026-04-03T10:16:20.736Z</time></trkpt><trkpt lat="43.0827623" lon="11.4206813"><ele>355.0</ele><time>2026-04-03T10:16:21.737Z</time></trkpt><trkpt lat="43.0826331" lon="11.4206443"><ele>355.0</ele><time>2026-04-03T10:16:22.737Z</time></trkpt><trkpt lat="43.0825129" lon="11.4206189"><ele>355.0</ele><time>2026-04-03T10:16:23.737Z</time></trkpt><trkpt lat="43.0823828" lon="11.4205947"><ele>354.75</ele><time>2026-04-03T10:16:24.737Z</time></trkpt><trkpt lat="43.0822408" lon="11.4205851"><ele>354.5</ele><time>2026-04-03T10:16:25.736Z</time></trkpt><trkpt lat="43.0820983" lon="11.4205793"><ele>354.25</ele><time>2026-04-03T10:16:26.737Z</time></trkpt><trkpt lat="43.0819631" lon="11.420523"><ele>354.0</ele><time>2026-04-03T10:16:27.736Z</time></trkpt><trkpt lat="43.0818395" lon="11.4204977"><ele>355.6666666666667</ele><time>2026-04-03T10:16:28.737Z</time></trkpt><trkpt lat="43.0817093" lon="11.4204231"><ele>357.33333333333337</ele><time>2026-04-03T10:16:29.736Z</time></trkpt><trkpt lat="43.0815761" lon="11.4202905"><ele>359.0</ele><time>2026-04-03T10:16:30.737Z</time></trkpt><trkpt lat="43.0814668" lon="11.4201505"><ele>360.75</ele><time>2026-04-03T10:16:31.736Z</time></trkpt><trkpt lat="43.0813727" lon="11.4200026"><ele>362.5</ele><time>2026-04-03T10:16:32.736Z</time></trkpt><trkpt lat="43.0812871" lon="11.4198482"><ele>364.25</ele><time>2026-04-03T10:16:33.737Z</time></trkpt><trkpt lat="43.0811978" lon="11.4197125"><ele>366.0</ele><time>2026-04-03T10:16:34.737Z</time></trkpt><trkpt lat="43.0811099" lon="11.4196034"><ele>366.0</ele><time>2026-04-03T10:16:35.737Z</time></trkpt><trkpt lat="43.0810071" lon="11.4195035"><ele>366.0</ele><time>2026-04-03T10:16:36.736Z</time></trkpt><trkpt lat="43.0808688" lon="11.419477"><ele>366.0</ele><time>2026-04-03T10:16:37.736Z</time></trkpt><trkpt lat="43.0807344" lon="11.4194411"><ele>366.0</ele><time>2026-04-03T10:16:38.736Z</time></trkpt><trkpt lat="43.0805934" lon="11.4194158"><ele>369.8</ele><time>2026-04-03T10:16:39.736Z</time></trkpt><trkpt lat="43.0804727" lon="11.4193898"><ele>373.6</ele><time>2026-04-03T10:16:40.736Z</time></trkpt><trkpt lat="43.0803813" lon="11.4193522"><ele>377.4</ele><time>2026-04-03T10:16:41.737Z</time></trkpt><trkpt lat="43.0803043" lon="11.4192832"><ele>381.2</ele><time>2026-04-03T10:16:42.736Z</time></trkpt><trkpt lat="43.080236" lon="11.4191984"><ele>385.0</ele><time>2026-04-03T10:16:43.737Z</time></trkpt><trkpt lat="43.0801928" lon="11.4190998"><ele>385.00000000000006</ele><time>2026-04-03T10:16:44.737Z</time></trkpt><trkpt lat="43.0801538" lon="11.4189936"><ele>385.0</ele><time>2026-04-03T10:16:45.736Z</time></trkpt><trkpt lat="43.0801119" lon="11.4188997"><ele>385.0</ele><time>2026-04-03T10:16:46.736Z</time></trkpt><trkpt lat="43.0800572" lon="11.4188111"><ele>385.0</ele><time>2026-04-03T10:16:47.737Z</time></trkpt><trkpt lat="43.0799882" lon="11.4187354"><ele>385.00000000000006</ele><time>2026-04-03T10:16:48.737Z</time></trkpt><trkpt lat="43.0799014" lon="11.418671"><ele>385.0</ele><time>2026-04-03T10:16:49.736Z</time></trkpt><trkpt lat="43.079788" lon="11.4186156"><ele>388.0</ele><time>2026-04-03T10:16:50.736Z</time></trkpt><trkpt lat="43.0796658" lon="11.4185639"><ele>391.0</ele><time>2026-04-03T10:16:51.736Z</time></trkpt><trkpt lat="43.0795429" lon="11.4185101"><ele>394.0</ele><time>2026-04-03T10:16:52.736Z</time></trkpt><trkpt lat="43.0794239" lon="11.4184598"><ele>397.0</ele><time>2026-04-03T10:16:53.737Z</time></trkpt><trkpt lat="43.0793099" lon="11.4183937"><ele>397.0</ele><time>2026-04-03T10:16:54.737Z</time></trkpt><trkpt lat="43.0792005" lon="11.4183133"><ele>397.0</ele><time>2026-04-03T10:16:55.737Z</time></trkpt><trkpt lat="43.0791101" lon="11.4182292"><ele>397.0</ele><time>2026-04-03T10:16:56.737Z</time></trkpt><trkpt lat="43.0790352" lon="11.4181466"><ele>397.0</ele><time>2026-04-03T10:16:57.737Z</time></trkpt><trkpt lat="43.0789574" lon="11.4180855"><ele>397.0</ele><time>2026-04-03T10:16:58.736Z</time></trkpt><trkpt lat="43.0788631" lon="11.4180348"><ele>396.5</ele><time>2026-04-03T10:16:59.737Z</time></trkpt><trkpt lat="43.0787463" lon="11.418006"><ele>396.0</ele><time>2026-04-03T10:17:00.736Z</time></trkpt><trkpt lat="43.0786093" lon="11.4179924"><ele>395.5</ele><time>2026-04-03T10:17:01.736Z</time></trkpt><trkpt lat="43.0784675" lon="11.4179862"><ele>395.0</ele><time>2026-04-03T10:17:02.736Z</time></trkpt><trkpt lat="43.0783217" lon="11.4179742"><ele>398.5</ele><time>2026-04-03T10:17:03.735Z</time></trkpt><trkpt lat="43.0781712" lon="11.417956"><ele>402.0</ele><time>2026-04-03T10:17:04.736Z</time></trkpt><trkpt lat="43.07803" lon="11.4179355"><ele>405.5</ele><time>2026-04-03T10:17:05.735Z</time></trkpt><trkpt lat="43.0779107" lon="11.4179375"><ele>409.0</ele><time>2026-04-03T10:17:06.735Z</time></trkpt><trkpt lat="43.0778097" lon="11.4179446"><ele>409.0</ele><time>2026-04-03T10:17:07.736Z</time></trkpt><trkpt lat="43.0777178" lon="11.4179463"><ele>409.0</ele><time>2026-04-03T10:17:08.736Z</time></trkpt><trkpt lat="43.0776274" lon="11.4179375"><ele>409.0</ele><time>2026-04-03T10:17:09.736Z</time></trkpt><trkpt lat="43.0775249" lon="11.4179104"><ele>409.0</ele><time>2026-04-03T10:17:10.736Z</time></trkpt><trkpt lat="43.0774189" lon="11.4178617"><ele>409.0</ele><time>2026-04-03T10:17:11.736Z</time></trkpt><trkpt lat="43.0773122" lon="11.4177911"><ele>413.5</ele><time>2026-04-03T10:17:12.736Z</time></trkpt><trkpt lat="43.077197" lon="11.4177115"><ele>418.0</ele><time>2026-04-03T10:17:13.736Z</time></trkpt><trkpt lat="43.0770856" lon="11.4176262"><ele>422.5</ele><time>2026-04-03T10:17:14.736Z</time></trkpt><trkpt lat="43.0769932" lon="11.4175441"><ele>427.0</ele><time>2026-04-03T10:17:15.736Z</time></trkpt><trkpt lat="43.0769221" lon="11.4174447"><ele>427.00000000000006</ele><time>2026-04-03T10:17:16.735Z</time></trkpt><trkpt lat="43.0768645" lon="11.4173257"><ele>427.0</ele><time>2026-04-03T10:17:17.735Z</time></trkpt><trkpt lat="43.0768223" lon="11.4171937"><ele>427.0</ele><time>2026-04-03T10:17:18.735Z</time></trkpt><trkpt lat="43.0767823" lon="11.4170787"><ele>427.0</ele><time>2026-04-03T10:17:19.735Z</time></trkpt><trkpt lat="43.0767387" lon="11.4169898"><ele>427.00000000000006</ele><time>2026-04-03T10:17:20.736Z</time></trkpt><trkpt lat="43.0766858" lon="11.4169421"><ele>427.0</ele><time>2026-04-03T10:17:21.736Z</time></trkpt><trkpt lat="43.0765587" lon="11.4168867"><ele>427.6</ele><time>2026-04-03T10:17:23.736Z</time></trkpt><trkpt lat="43.0764679" lon="11.4168554"><ele>428.20000000000005</ele><time>2026-04-03T10:17:24.736Z</time></trkpt><trkpt lat="43.0763625" lon="11.4168274"><ele>428.8</ele><time>2026-04-03T10:17:25.736Z</time></trkpt><trkpt lat="43.0762523" lon="11.4167971"><ele>429.4</ele><time>2026-04-03T10:17:26.736Z</time></trkpt><trkpt lat="43.0761397" lon="11.4167534"><ele>430.0</ele><time>2026-04-03T10:17:27.735Z</time></trkpt><trkpt lat="43.0760308" lon="11.4166899"><ele>430.0</ele><time>2026-04-03T10:17:28.736Z</time></trkpt><trkpt lat="43.0759255" lon="11.4166121"><ele>430.0</ele><time>2026-04-03T10:17:29.736Z</time></trkpt><trkpt lat="43.0758219" lon="11.4165282"><ele>430.0</ele><time>2026-04-03T10:17:30.736Z</time></trkpt><trkpt lat="43.0757122" lon="11.4164426"><ele>430.0</ele><time>2026-04-03T10:17:31.736Z</time></trkpt><trkpt lat="43.0755991" lon="11.4163561"><ele>431.25</ele><time>2026-04-03T10:17:32.736Z</time></trkpt><trkpt lat="43.0754818" lon="11.4162641"><ele>432.5</ele><time>2026-04-03T10:17:33.735Z</time></trkpt><trkpt lat="43.0753653" lon="11.416178"><ele>433.75</ele><time>2026-04-03T10:17:34.736Z</time></trkpt><trkpt lat="43.0752485" lon="11.4160946"><ele>435.0</ele><time>2026-04-03T10:17:35.736Z</time></trkpt><trkpt lat="43.0751339" lon="11.41602"><ele>435.0</ele><time>2026-04-03T10:17:36.736Z</time></trkpt><trkpt lat="43.0750275" lon="11.415949"><ele>435.0</ele><time>2026-04-03T10:17:37.736Z</time></trkpt><trkpt lat="43.0749254" lon="11.4158914"><ele>435.0</ele><time>2026-04-03T10:17:38.736Z</time></trkpt><trkpt lat="43.0748244" lon="11.4158484"><ele>435.0</ele><time>2026-04-03T10:17:39.736Z</time></trkpt><trkpt lat="43.0747258" lon="11.4158242"><ele>435.0</ele><time>2026-04-03T10:17:40.735Z</time></trkpt><trkpt lat="43.0746385" lon="11.4158102"><ele>435.8333333333333</ele><time>2026-04-03T10:17:41.736Z</time></trkpt><trkpt lat="43.0745608" lon="11.4157914"><ele>436.66666666666663</ele><time>2026-04-03T10:17:42.735Z</time></trkpt><trkpt lat="43.0744931" lon="11.4157555"><ele>437.5</ele><time>2026-04-03T10:17:43.735Z</time></trkpt><trkpt lat="43.0744295" lon="11.4157049"><ele>438.3333333333333</ele><time>2026-04-03T10:17:44.736Z</time></trkpt><trkpt lat="43.0743827" lon="11.4156357"><ele>439.16666666666663</ele><time>2026-04-03T10:17:45.735Z</time></trkpt><trkpt lat="43.0743535" lon="11.4155521"><ele>440.0</ele><time>2026-04-03T10:17:46.736Z</time></trkpt><trkpt lat="43.0743357" lon="11.4153948"><ele>442.0</ele><time>2026-04-03T10:17:48.736Z</time></trkpt><trkpt lat="43.0743352" lon="11.4152962"><ele>444.0</ele><time>2026-04-03T10:17:49.736Z</time></trkpt><trkpt lat="43.0743333" lon="11.4151729"><ele>446.0</ele><time>2026-04-03T10:17:50.736Z</time></trkpt><trkpt lat="43.0743213" lon="11.4150357"><ele>448.0</ele><time>2026-04-03T10:17:51.736Z</time></trkpt><trkpt lat="43.0742979" lon="11.4148991"><ele>450.0</ele><time>2026-04-03T10:17:52.735Z</time></trkpt><trkpt lat="43.074264" lon="11.4147651"><ele>451.1666666666667</ele><time>2026-04-03T10:17:53.735Z</time></trkpt><trkpt lat="43.0742209" lon="11.4146414"><ele>452.33333333333337</ele><time>2026-04-03T10:17:54.735Z</time></trkpt><trkpt lat="43.0741734" lon="11.4145408"><ele>453.5</ele><time>2026-04-03T10:17:55.736Z</time></trkpt><trkpt lat="43.0741235" lon="11.414471"><ele>454.6666666666667</ele><time>2026-04-03T10:17:56.736Z</time></trkpt><trkpt lat="43.0740637" lon="11.4144229"><ele>455.83333333333337</ele><time>2026-04-03T10:17:57.736Z</time></trkpt><trkpt lat="43.0739889" lon="11.4143989"><ele>457.0</ele><time>2026-04-03T10:17:58.735Z</time></trkpt><trkpt lat="43.0738926" lon="11.4143852"><ele>459.20000000000005</ele><time>2026-04-03T10:17:59.735Z</time></trkpt><trkpt lat="43.0737674" lon="11.4143716"><ele>461.40000000000003</ele><time>2026-04-03T10:18:00.735Z</time></trkpt><trkpt lat="43.0736393" lon="11.414361"><ele>463.59999999999997</ele><time>2026-04-03T10:18:01.735Z</time></trkpt><trkpt lat="43.0735353" lon="11.4143453"><ele>465.79999999999995</ele><time>2026-04-03T10:18:02.735Z</time></trkpt><trkpt lat="43.0734521" lon="11.4143279"><ele>468.0</ele><time>2026-04-03T10:18:03.736Z</time></trkpt><trkpt lat="43.0733856" lon="11.414312"><ele>468.0</ele><time>2026-04-03T10:18:04.735Z</time></trkpt><trkpt lat="43.0733229" lon="11.4142961"><ele>467.99999999999994</ele><time>2026-04-03T10:18:05.735Z</time></trkpt><trkpt lat="43.0732466" lon="11.4142812"><ele>467.99999999999994</ele><time>2026-04-03T10:18:06.735Z</time></trkpt><trkpt lat="43.0731469" lon="11.4142702"><ele>468.0</ele><time>2026-04-03T10:18:07.736Z</time></trkpt><trkpt lat="43.0730303" lon="11.4142731"><ele>468.0</ele><time>2026-04-03T10:18:08.736Z</time></trkpt><trkpt lat="43.072906" lon="11.4142908"><ele>469.75</ele><time>2026-04-03T10:18:09.736Z</time></trkpt><trkpt lat="43.0727824" lon="11.4142912"><ele>471.5</ele><time>2026-04-03T10:18:10.735Z</time></trkpt><trkpt lat="43.072657" lon="11.4142706"><ele>473.25</ele><time>2026-04-03T10:18:11.735Z</time></trkpt><trkpt lat="43.0725276" lon="11.4142255"><ele>475.0</ele><time>2026-04-03T10:18:12.735Z</time></trkpt><trkpt lat="43.0724157" lon="11.4141795"><ele>475.0</ele><time>2026-04-03T10:18:13.735Z</time></trkpt><trkpt lat="43.072327" lon="11.4141245"><ele>475.0</ele><time>2026-04-03T10:18:14.735Z</time></trkpt><trkpt lat="43.0722379" lon="11.4140633"><ele>475.0</ele><time>2026-04-03T10:18:15.735Z</time></trkpt><trkpt lat="43.0721388" lon="11.4139958"><ele>475.0</ele><time>2026-04-03T10:18:16.736Z</time></trkpt><trkpt lat="43.0720154" lon="11.4139332"><ele>475.0</ele><time>2026-04-03T10:18:17.735Z</time></trkpt><trkpt lat="43.0718932" lon="11.4138648"><ele>477.75</ele><time>2026-04-03T10:18:18.735Z</time></trkpt><trkpt lat="43.071773" lon="11.4137894"><ele>480.5</ele><time>2026-04-03T10:18:19.736Z</time></trkpt><trkpt lat="43.0716621" lon="11.4137036"><ele>483.25</ele><time>2026-04-03T10:18:20.735Z</time></trkpt><trkpt lat="43.0715654" lon="11.4136239"><ele>486.0</ele><time>2026-04-03T10:18:21.736Z</time></trkpt><trkpt lat="43.0714712" lon="11.413571"><ele>486.0</ele><time>2026-04-03T10:18:22.735Z</time></trkpt><trkpt lat="43.0713786" lon="11.4135511"><ele>486.0</ele><time>2026-04-03T10:18:23.735Z</time></trkpt><trkpt lat="43.0712719" lon="11.4135652"><ele>486.0</ele><time>2026-04-03T10:18:24.736Z</time></trkpt><trkpt lat="43.0711556" lon="11.4135958"><ele>486.0</ele><time>2026-04-03T10:18:25.736Z</time></trkpt><trkpt lat="43.0710667" lon="11.4135888"><ele>486.0</ele><time>2026-04-03T10:18:26.736Z</time></trkpt><trkpt lat="43.0709796" lon="11.4135626"><ele>486.0</ele><time>2026-04-03T10:18:27.736Z</time></trkpt><trkpt lat="43.0708922" lon="11.4134945"><ele>486.0</ele><time>2026-04-03T10:18:28.736Z</time></trkpt><trkpt lat="43.0708004" lon="11.4133967"><ele>486.0</ele><time>2026-04-03T10:18:29.735Z</time></trkpt><trkpt lat="43.0706971" lon="11.413277"><ele>486.0</ele><time>2026-04-03T10:18:30.736Z</time></trkpt><trkpt lat="43.0705994" lon="11.4131491"><ele>487.5</ele><time>2026-04-03T10:18:31.736Z</time></trkpt><trkpt lat="43.0705178" lon="11.4130416"><ele>489.0</ele><time>2026-04-03T10:18:32.736Z</time></trkpt><trkpt lat="43.0704452" lon="11.4129644"><ele>490.5</ele><time>2026-04-03T10:18:33.736Z</time></trkpt><trkpt lat="43.0703825" lon="11.4129202"><ele>492.0</ele><time>2026-04-03T10:18:34.736Z</time></trkpt><trkpt lat="43.0703139" lon="11.4129056"><ele>493.5</ele><time>2026-04-03T10:18:35.735Z</time></trkpt><trkpt lat="43.0702434" lon="11.4129315"><ele>495.0</ele><time>2026-04-03T10:18:36.736Z</time></trkpt><trkpt lat="43.0701791" lon="11.4130082"><ele>495.0</ele><time>2026-04-03T10:18:37.736Z</time></trkpt><trkpt lat="43.0701374" lon="11.4130839"><ele>495.0</ele><time>2026-04-03T10:18:38.736Z</time></trkpt><trkpt lat="43.0700987" lon="11.4131884"><ele>495.0</ele><time>2026-04-03T10:18:39.735Z</time></trkpt><trkpt lat="43.0700619" lon="11.4133021"><ele>495.0</ele><time>2026-04-03T10:18:40.736Z</time></trkpt><trkpt lat="43.0700303" lon="11.4134188"><ele>495.0</ele><time>2026-04-03T10:18:41.736Z</time></trkpt><trkpt lat="43.0700035" lon="11.4135455"><ele>495.0</ele><time>2026-04-03T10:18:42.735Z</time></trkpt><trkpt lat="43.0699954" lon="11.4136666"><ele>495.0</ele><time>2026-04-03T10:18:43.736Z</time></trkpt><trkpt lat="43.0700061" lon="11.4137814"><ele>495.0</ele><time>2026-04-03T10:18:44.736Z</time></trkpt><trkpt lat="43.0700238" lon="11.4139101"><ele>495.0</ele><time>2026-04-03T10:18:45.736Z</time></trkpt><trkpt lat="43.0700332" lon="11.4140478"><ele>495.0</ele><time>2026-04-03T10:18:46.736Z</time></trkpt><trkpt lat="43.0700353" lon="11.4142012"><ele>495.0</ele><time>2026-04-03T10:18:47.736Z</time></trkpt><trkpt lat="43.0700207" lon="11.4143621"><ele>494.8</ele><time>2026-04-03T10:18:48.735Z</time></trkpt><trkpt lat="43.0699925" lon="11.4145202"><ele>494.6</ele><time>2026-04-03T10:18:49.736Z</time></trkpt><trkpt lat="43.0699522" lon="11.4146508"><ele>494.4</ele><time>2026-04-03T10:18:50.736Z</time></trkpt><trkpt lat="43.0698928" lon="11.4147679"><ele>494.2</ele><time>2026-04-03T10:18:51.736Z</time></trkpt><trkpt lat="43.0698293" lon="11.4148697"><ele>494.0</ele><time>2026-04-03T10:18:52.736Z</time></trkpt><trkpt lat="43.0697515" lon="11.4149595"><ele>495.25</ele><time>2026-04-03T10:18:53.736Z</time></trkpt><trkpt lat="43.0696541" lon="11.4150388"><ele>496.5</ele><time>2026-04-03T10:18:54.736Z</time></trkpt><trkpt lat="43.0695296" lon="11.4151322"><ele>497.75</ele><time>2026-04-03T10:18:55.736Z</time></trkpt><trkpt lat="43.0694075" lon="11.4152349"><ele>499.0</ele><time>2026-04-03T10:18:56.735Z</time></trkpt><trkpt lat="43.0693049" lon="11.4153345"><ele>499.0</ele><time>2026-04-03T10:18:57.736Z</time></trkpt><trkpt lat="43.0692056" lon="11.4154195"><ele>499.0</ele><time>2026-04-03T10:18:58.735Z</time></trkpt><trkpt lat="43.0690953" lon="11.415484"><ele>499.0</ele><time>2026-04-03T10:18:59.736Z</time></trkpt><trkpt lat="43.0689642" lon="11.4155291"><ele>499.0</ele><time>2026-04-03T10:19:00.736Z</time></trkpt><trkpt lat="43.0688343" lon="11.4155679"><ele>496.25</ele><time>2026-04-03T10:19:01.735Z</time></trkpt><trkpt lat="43.0687132" lon="11.4156266"><ele>493.5</ele><time>2026-04-03T10:19:02.736Z</time></trkpt><trkpt lat="43.0685912" lon="11.4157085"><ele>490.75</ele><time>2026-04-03T10:19:03.736Z</time></trkpt><trkpt lat="43.068467" lon="11.4158328"><ele>488.0</ele><time>2026-04-03T10:19:04.735Z</time></trkpt><trkpt lat="43.0683348" lon="11.415978"><ele>487.66666666666663</ele><time>2026-04-03T10:19:05.736Z</time></trkpt><trkpt lat="43.0682048" lon="11.4161251"><ele>487.33333333333337</ele><time>2026-04-03T10:19:06.735Z</time></trkpt><trkpt lat="43.0680792" lon="11.4162468"><ele>487.0</ele><time>2026-04-03T10:19:07.735Z</time></trkpt><trkpt lat="43.0679661" lon="11.4163318"><ele>489.0</ele><time>2026-04-03T10:19:08.735Z</time></trkpt><trkpt lat="43.0678745" lon="11.4164022"><ele>491.00000000000006</ele><time>2026-04-03T10:19:09.736Z</time></trkpt><trkpt lat="43.0678044" lon="11.4164777"><ele>493.00000000000006</ele><time>2026-04-03T10:19:10.736Z</time></trkpt><trkpt lat="43.0677555" lon="11.416584"><ele>495.0</ele><time>2026-04-03T10:19:11.736Z</time></trkpt><trkpt lat="43.0677176" lon="11.4167169"><ele>497.0</ele><time>2026-04-03T10:19:12.736Z</time></trkpt><trkpt lat="43.0676268" lon="11.4169022"><ele>497.0</ele><time>2026-04-03T10:19:13.735Z</time></trkpt><trkpt lat="43.0676022" lon="11.4170185"><ele>497.0</ele><time>2026-04-03T10:19:14.735Z</time></trkpt><trkpt lat="43.0675087" lon="11.4171802"><ele>497.0</ele><time>2026-04-03T10:19:15.735Z</time></trkpt><trkpt lat="43.0674163" lon="11.4173304"><ele>497.0</ele><time>2026-04-03T10:19:16.735Z</time></trkpt><trkpt lat="43.067328" lon="11.4174408"><ele>498.40000000000003</ele><time>2026-04-03T10:19:17.736Z</time></trkpt><trkpt lat="43.0672359" lon="11.4175177"><ele>499.80000000000007</ele><time>2026-04-03T10:19:18.736Z</time></trkpt><trkpt lat="43.0671356" lon="11.4175801"><ele>501.2</ele><time>2026-04-03T10:19:19.736Z</time></trkpt><trkpt lat="43.067025" lon="11.4176345"><ele>502.6</ele><time>2026-04-03T10:19:20.736Z</time></trkpt><trkpt lat="43.0669218" lon="11.4176857"><ele>504.0</ele><time>2026-04-03T10:19:21.736Z</time></trkpt><trkpt lat="43.0668413" lon="11.4177529"><ele>504.0</ele><time>2026-04-03T10:19:22.735Z</time></trkpt><trkpt lat="43.0667705" lon="11.4178482"><ele>504.0</ele><time>2026-04-03T10:19:23.736Z</time></trkpt><trkpt lat="43.0667177" lon="11.4179663"><ele>504.0</ele><time>2026-04-03T10:19:24.736Z</time></trkpt><trkpt lat="43.0666721" lon="11.4180934"><ele>504.0</ele><time>2026-04-03T10:19:25.736Z</time></trkpt><trkpt lat="43.0666344" lon="11.4182254"><ele>504.0</ele><time>2026-04-03T10:19:26.736Z</time></trkpt><trkpt lat="43.0665987" lon="11.4183649"><ele>500.79999999999995</ele><time>2026-04-03T10:19:27.736Z</time></trkpt><trkpt lat="43.0665705" lon="11.4185228"><ele>497.59999999999997</ele><time>2026-04-03T10:19:28.736Z</time></trkpt><trkpt lat="43.0665542" lon="11.4186827"><ele>494.4</ele><time>2026-04-03T10:19:29.736Z</time></trkpt><trkpt lat="43.0665528" lon="11.4188236"><ele>491.2</ele><time>2026-04-03T10:19:30.736Z</time></trkpt><trkpt lat="43.0665557" lon="11.4189599"><ele>488.0</ele><time>2026-04-03T10:19:31.736Z</time></trkpt><trkpt lat="43.0665581" lon="11.4190927"><ele>487.4</ele><time>2026-04-03T10:19:32.736Z</time></trkpt><trkpt lat="43.066564" lon="11.4192224"><ele>486.79999999999995</ele><time>2026-04-03T10:19:33.736Z</time></trkpt><trkpt lat="43.0665665" lon="11.4193559"><ele>486.2</ele><time>2026-04-03T10:19:34.735Z</time></trkpt><trkpt lat="43.0665679" lon="11.4195063"><ele>485.6</ele><time>2026-04-03T10:19:35.736Z</time></trkpt><trkpt lat="43.0665688" lon="11.4196653"><ele>485.0</ele><time>2026-04-03T10:19:36.736Z</time></trkpt><trkpt lat="43.0665575" lon="11.4198161"><ele>485.0</ele><time>2026-04-03T10:19:37.736Z</time></trkpt><trkpt lat="43.0665264" lon="11.4199629"><ele>485.0</ele><time>2026-04-03T10:19:38.735Z</time></trkpt><trkpt lat="43.066466" lon="11.4201098"><ele>485.0</ele><time>2026-04-03T10:19:39.736Z</time></trkpt><trkpt lat="43.0663828" lon="11.4202817"><ele>485.0</ele><time>2026-04-03T10:19:40.735Z</time></trkpt><trkpt lat="43.0662921" lon="11.420477"><ele>487.3333333333333</ele><time>2026-04-03T10:19:41.736Z</time></trkpt><trkpt lat="43.0661974" lon="11.4206871"><ele>489.66666666666663</ele><time>2026-04-03T10:19:42.735Z</time></trkpt><trkpt lat="43.0660913" lon="11.4208986"><ele>492.0</ele><time>2026-04-03T10:19:43.735Z</time></trkpt><trkpt lat="43.0659812" lon="11.4210974"><ele>492.0</ele><time>2026-04-03T10:19:44.735Z</time></trkpt><trkpt lat="43.065882" lon="11.4212834"><ele>492.0</ele><time>2026-04-03T10:19:45.735Z</time></trkpt><trkpt lat="43.0657959" lon="11.4214512"><ele>492.0</ele><time>2026-04-03T10:19:46.735Z</time></trkpt><trkpt lat="43.0657226" lon="11.4216026"><ele>490.5</ele><time>2026-04-03T10:19:47.736Z</time></trkpt><trkpt lat="43.0656479" lon="11.4217289"><ele>489.0</ele><time>2026-04-03T10:19:48.735Z</time></trkpt><trkpt lat="43.0655534" lon="11.4218366"><ele>487.5</ele><time>2026-04-03T10:19:49.736Z</time></trkpt><trkpt lat="43.0654382" lon="11.4219475"><ele>486.0</ele><time>2026-04-03T10:19:50.735Z</time></trkpt><trkpt lat="43.0653266" lon="11.4220326"><ele>486.0</ele><time>2026-04-03T10:19:51.736Z</time></trkpt><trkpt lat="43.0652276" lon="11.4221003"><ele>486.0</ele><time>2026-04-03T10:19:52.736Z</time></trkpt><trkpt lat="43.0651239" lon="11.4221476"><ele>486.0</ele><time>2026-04-03T10:19:53.736Z</time></trkpt><trkpt lat="43.0650123" lon="11.4221698"><ele>486.0</ele><time>2026-04-03T10:19:54.736Z</time></trkpt><trkpt lat="43.0648909" lon="11.4221765"><ele>486.0</ele><time>2026-04-03T10:19:55.735Z</time></trkpt><trkpt lat="43.0647727" lon="11.4221769"><ele>486.0</ele><time>2026-04-03T10:19:56.735Z</time></trkpt><trkpt lat="43.0646612" lon="11.4221635"><ele>486.0</ele><time>2026-04-03T10:19:57.735Z</time></trkpt><trkpt lat="43.0645461" lon="11.4221414"><ele>486.0</ele><time>2026-04-03T10:19:58.736Z</time></trkpt><trkpt lat="43.064432" lon="11.4220917"><ele>484.6</ele><time>2026-04-03T10:19:59.735Z</time></trkpt><trkpt lat="43.0643246" lon="11.422035"><ele>483.20000000000005</ele><time>2026-04-03T10:20:00.735Z</time></trkpt><trkpt lat="43.0642242" lon="11.4219807"><ele>481.79999999999995</ele><time>2026-04-03T10:20:01.736Z</time></trkpt><trkpt lat="43.0641356" lon="11.4219267"><ele>480.4</ele><time>2026-04-03T10:20:02.736Z</time></trkpt><trkpt lat="43.0640479" lon="11.4218891"><ele>479.0</ele><time>2026-04-03T10:20:03.736Z</time></trkpt><trkpt lat="43.0639536" lon="11.4218775"><ele>477.6</ele><time>2026-04-03T10:20:04.735Z</time></trkpt><trkpt lat="43.0638551" lon="11.4218973"><ele>476.2</ele><time>2026-04-03T10:20:05.736Z</time></trkpt><trkpt lat="43.0637584" lon="11.4219131"><ele>474.80000000000007</ele><time>2026-04-03T10:20:06.736Z</time></trkpt><trkpt lat="43.0636738" lon="11.4219443"><ele>473.40000000000003</ele><time>2026-04-03T10:20:07.735Z</time></trkpt><trkpt lat="43.0636129" lon="11.4219679"><ele>472.0</ele><time>2026-04-03T10:20:08.736Z</time></trkpt><trkpt lat="43.0635207" lon="11.4220752"><ele>472.0</ele><time>2026-04-03T10:20:10.736Z</time></trkpt><trkpt lat="43.0635005" lon="11.4221643"><ele>472.00000000000006</ele><time>2026-04-03T10:20:11.735Z</time></trkpt><trkpt lat="43.0634889" lon="11.4222679"><ele>472.00000000000006</ele><time>2026-04-03T10:20:12.736Z</time></trkpt><trkpt lat="43.063506" lon="11.4224069"><ele>472.0</ele><time>2026-04-03T10:20:13.735Z</time></trkpt><trkpt lat="43.0635217" lon="11.4225527"><ele>472.0</ele><time>2026-04-03T10:20:14.736Z</time></trkpt><trkpt lat="43.0635211" lon="11.4226828"><ele>472.0</ele><time>2026-04-03T10:20:15.736Z</time></trkpt><trkpt lat="43.0634981" lon="11.4228198"><ele>472.00000000000006</ele><time>2026-04-03T10:20:16.736Z</time></trkpt><trkpt lat="43.063446" lon="11.4229545"><ele>472.00000000000006</ele><time>2026-04-03T10:20:17.736Z</time></trkpt><trkpt lat="43.0633857" lon="11.4230757"><ele>472.0</ele><time>2026-04-03T10:20:18.736Z</time></trkpt><trkpt lat="43.06334" lon="11.4231916"><ele>472.0</ele><time>2026-04-03T10:20:19.736Z</time></trkpt><trkpt lat="43.0633071" lon="11.4233011"><ele>471.57142857142856</ele><time>2026-04-03T10:20:20.736Z</time></trkpt><trkpt lat="43.0632889" lon="11.4234055"><ele>471.14285714285717</ele><time>2026-04-03T10:20:21.736Z</time></trkpt><trkpt lat="43.0632849" lon="11.423509"><ele>470.7142857142857</ele><time>2026-04-03T10:20:22.735Z</time></trkpt><trkpt lat="43.0632981" lon="11.4236083"><ele>470.2857142857143</ele><time>2026-04-03T10:20:23.736Z</time></trkpt><trkpt lat="43.0633243" lon="11.4237084"><ele>469.8571428571429</ele><time>2026-04-03T10:20:24.736Z</time></trkpt><trkpt lat="43.0633479" lon="11.423804"><ele>469.42857142857144</ele><time>2026-04-03T10:20:25.735Z</time></trkpt><trkpt lat="43.0633571" lon="11.4238957"><ele>469.0</ele><time>2026-04-03T10:20:26.736Z</time></trkpt><trkpt lat="43.0633568" lon="11.4239838"><ele>468.2</ele><time>2026-04-03T10:20:27.735Z</time></trkpt><trkpt lat="43.063346" lon="11.4240855"><ele>467.4</ele><time>2026-04-03T10:20:28.736Z</time></trkpt><trkpt lat="43.0633178" lon="11.42422"><ele>466.6</ele><time>2026-04-03T10:20:29.736Z</time></trkpt><trkpt lat="43.06327" lon="11.4243716"><ele>465.8</ele><time>2026-04-03T10:20:30.736Z</time></trkpt><trkpt lat="43.0632314" lon="11.4245509"><ele>465.0</ele><time>2026-04-03T10:20:31.736Z</time></trkpt><trkpt lat="43.0631963" lon="11.4247386"><ele>464.25</ele><time>2026-04-03T10:20:32.736Z</time></trkpt><trkpt lat="43.0631515" lon="11.4249132"><ele>463.5</ele><time>2026-04-03T10:20:33.736Z</time></trkpt><trkpt lat="43.063091" lon="11.4250761"><ele>462.75</ele><time>2026-04-03T10:20:34.736Z</time></trkpt><trkpt lat="43.0630108" lon="11.4252182"><ele>462.0</ele><time>2026-04-03T10:20:35.735Z</time></trkpt><trkpt lat="43.0629208" lon="11.4253529"><ele>462.0</ele><time>2026-04-03T10:20:36.736Z</time></trkpt><trkpt lat="43.0628288" lon="11.4254746"><ele>462.0</ele><time>2026-04-03T10:20:37.735Z</time></trkpt><trkpt lat="43.0627703" lon="11.4256223"><ele>462.0</ele><time>2026-04-03T10:20:38.736Z</time></trkpt><trkpt lat="43.0627468" lon="11.4257917"><ele>462.0</ele><time>2026-04-03T10:20:39.736Z</time></trkpt><trkpt lat="43.062742" lon="11.4259572"><ele>462.8</ele><time>2026-04-03T10:20:40.735Z</time></trkpt><trkpt lat="43.062745" lon="11.4261005"><ele>463.6</ele><time>2026-04-03T10:20:41.736Z</time></trkpt><trkpt lat="43.062754" lon="11.426236"><ele>464.40000000000003</ele><time>2026-04-03T10:20:42.736Z</time></trkpt><trkpt lat="43.0627659" lon="11.4263826"><ele>465.20000000000005</ele><time>2026-04-03T10:20:43.736Z</time></trkpt><trkpt lat="43.0627924" lon="11.4265566"><ele>466.0</ele><time>2026-04-03T10:20:44.736Z</time></trkpt><trkpt lat="43.0628091" lon="11.4267351"><ele>466.0</ele><time>2026-04-03T10:20:45.736Z</time></trkpt><trkpt lat="43.0628327" lon="11.4268683"><ele>466.0</ele><time>2026-04-03T10:20:46.736Z</time></trkpt><trkpt lat="43.062824" lon="11.4269918"><ele>466.0</ele><time>2026-04-03T10:20:47.736Z</time></trkpt><trkpt lat="43.0627926" lon="11.4271093"><ele>466.0</ele><time>2026-04-03T10:20:48.736Z</time></trkpt><trkpt lat="43.0627309" lon="11.4272135"><ele>466.0</ele><time>2026-04-03T10:20:49.735Z</time></trkpt><trkpt lat="43.0626527" lon="11.4272901"><ele>466.0</ele><time>2026-04-03T10:20:50.736Z</time></trkpt><trkpt lat="43.0625614" lon="11.4273461"><ele>466.0</ele><time>2026-04-03T10:20:51.735Z</time></trkpt><trkpt lat="43.0624668" lon="11.4273884"><ele>466.0</ele><time>2026-04-03T10:20:52.736Z</time></trkpt><trkpt lat="43.0623664" lon="11.4274359"><ele>466.0</ele><time>2026-04-03T10:20:53.735Z</time></trkpt><trkpt lat="43.0622596" lon="11.4274686"><ele>466.0</ele><time>2026-04-03T10:20:54.736Z</time></trkpt><trkpt lat="43.0621631" lon="11.4275215"><ele>466.6666666666667</ele><time>2026-04-03T10:20:55.735Z</time></trkpt><trkpt lat="43.0620645" lon="11.4275599"><ele>467.33333333333337</ele><time>2026-04-03T10:20:56.735Z</time></trkpt><trkpt lat="43.061979" lon="11.4275603"><ele>468.0</ele><time>2026-04-03T10:20:57.735Z</time></trkpt><trkpt lat="43.0619008" lon="11.4275371"><ele>468.66666666666663</ele><time>2026-04-03T10:20:58.735Z</time></trkpt><trkpt lat="43.0618264" lon="11.4274975"><ele>469.3333333333333</ele><time>2026-04-03T10:20:59.735Z</time></trkpt><trkpt lat="43.0617426" lon="11.4274353"><ele>470.0</ele><time>2026-04-03T10:21:00.735Z</time></trkpt><trkpt lat="43.0616507" lon="11.4273537"><ele>470.25</ele><time>2026-04-03T10:21:01.736Z</time></trkpt><trkpt lat="43.0615447" lon="11.4272995"><ele>470.5</ele><time>2026-04-03T10:21:02.736Z</time></trkpt><trkpt lat="43.0614264" lon="11.4272939"><ele>470.75</ele><time>2026-04-03T10:21:03.736Z</time></trkpt><trkpt lat="43.0612824" lon="11.4273123"><ele>471.0</ele><time>2026-04-03T10:21:04.735Z</time></trkpt><trkpt lat="43.0611351" lon="11.4273299"><ele>471.0</ele><time>2026-04-03T10:21:05.735Z</time></trkpt><trkpt lat="43.0610132" lon="11.4273916"><ele>471.0</ele><time>2026-04-03T10:21:06.736Z</time></trkpt><trkpt lat="43.0609227" lon="11.4274202"><ele>471.0</ele><time>2026-04-03T10:21:07.735Z</time></trkpt><trkpt lat="43.0608505" lon="11.4273988"><ele>471.0</ele><time>2026-04-03T10:21:08.736Z</time></trkpt><trkpt lat="43.060779" lon="11.4273452"><ele>471.0</ele><time>2026-04-03T10:21:09.736Z</time></trkpt><trkpt lat="43.0607004" lon="11.4272827"><ele>472.6</ele><time>2026-04-03T10:21:10.735Z</time></trkpt><trkpt lat="43.0606203" lon="11.4272177"><ele>474.20000000000005</ele><time>2026-04-03T10:21:11.735Z</time></trkpt><trkpt lat="43.0605525" lon="11.4271727"><ele>475.79999999999995</ele><time>2026-04-03T10:21:12.735Z</time></trkpt><trkpt lat="43.0604899" lon="11.4271557"><ele>477.4</ele><time>2026-04-03T10:21:13.735Z</time></trkpt><trkpt lat="43.0603817" lon="11.4272497"><ele>479.0</ele><time>2026-04-03T10:21:15.736Z</time></trkpt><trkpt lat="43.0603333" lon="11.4273566"><ele>478.99999999999994</ele><time>2026-04-03T10:21:16.735Z</time></trkpt><trkpt lat="43.06029" lon="11.4274948"><ele>479.0</ele><time>2026-04-03T10:21:17.736Z</time></trkpt><trkpt lat="43.0602434" lon="11.4276015"><ele>479.0</ele><time>2026-04-03T10:21:18.736Z</time></trkpt><trkpt lat="43.0601899" lon="11.4276764"><ele>479.0</ele><time>2026-04-03T10:21:19.736Z</time></trkpt><trkpt lat="43.0601239" lon="11.4277268"><ele>478.99999999999994</ele><time>2026-04-03T10:21:20.736Z</time></trkpt><trkpt lat="43.0600443" lon="11.4277622"><ele>479.0</ele><time>2026-04-03T10:21:21.735Z</time></trkpt><trkpt lat="43.0599754" lon="11.4277958"><ele>480.0</ele><time>2026-04-03T10:21:22.735Z</time></trkpt><trkpt lat="43.0598666" lon="11.4278702"><ele>481.0</ele><time>2026-04-03T10:21:24.736Z</time></trkpt><trkpt lat="43.0597392" lon="11.4278188"><ele>482.0</ele><time>2026-04-03T10:21:26.736Z</time></trkpt><trkpt lat="43.0596765" lon="11.427741"><ele>483.0</ele><time>2026-04-03T10:21:27.736Z</time></trkpt><trkpt lat="43.0596104" lon="11.4276338"><ele>484.0</ele><time>2026-04-03T10:21:28.736Z</time></trkpt><trkpt lat="43.0595409" lon="11.4275145"><ele>484.00000000000006</ele><time>2026-04-03T10:21:29.736Z</time></trkpt><trkpt lat="43.0594732" lon="11.4274109"><ele>484.0</ele><time>2026-04-03T10:21:30.735Z</time></trkpt><trkpt lat="43.0594153" lon="11.4273343"><ele>484.0</ele><time>2026-04-03T10:21:31.735Z</time></trkpt><trkpt lat="43.0593572" lon="11.42728"><ele>484.0</ele><time>2026-04-03T10:21:32.736Z</time></trkpt><trkpt lat="43.0592933" lon="11.4272451"><ele>484.00000000000006</ele><time>2026-04-03T10:21:33.735Z</time></trkpt><trkpt lat="43.0592266" lon="11.4272322"><ele>484.0</ele><time>2026-04-03T10:21:34.736Z</time></trkpt><trkpt lat="43.0591191" lon="11.4272871"><ele>484.00000000000006</ele><time>2026-04-03T10:21:36.736Z</time></trkpt><trkpt lat="43.0590687" lon="11.4273476"><ele>484.0</ele><time>2026-04-03T10:21:37.735Z</time></trkpt><trkpt lat="43.0590314" lon="11.4274171"><ele>484.0</ele><time>2026-04-03T10:21:38.735Z</time></trkpt><trkpt lat="43.0590254" lon="11.4275078"><ele>484.0</ele><time>2026-04-03T10:21:39.736Z</time></trkpt><trkpt lat="43.0590487" lon="11.4276475"><ele>484.00000000000006</ele><time>2026-04-03T10:21:41.736Z</time></trkpt><trkpt lat="43.0590906" lon="11.4277932"><ele>484.0</ele><time>2026-04-03T10:21:58.736Z</time></trkpt><trkpt lat="43.0591352" lon="11.4278862"><ele>483.2857142857143</ele><time>2026-04-03T10:21:59.736Z</time></trkpt><trkpt lat="43.059173" lon="11.4279954"><ele>482.57142857142856</ele><time>2026-04-03T10:22:00.735Z</time></trkpt><trkpt lat="43.0591928" lon="11.4280921"><ele>481.85714285714283</ele><time>2026-04-03T10:22:01.736Z</time></trkpt><trkpt lat="43.059191" lon="11.4281861"><ele>481.1428571428571</ele><time>2026-04-03T10:22:02.736Z</time></trkpt><trkpt lat="43.0591707" lon="11.4282685"><ele>480.42857142857144</ele><time>2026-04-03T10:22:03.736Z</time></trkpt><trkpt lat="43.0591274" lon="11.4283348"><ele>479.71428571428567</ele><time>2026-04-03T10:22:04.736Z</time></trkpt><trkpt lat="43.0590568" lon="11.428381"><ele>479.0</ele><time>2026-04-03T10:22:05.735Z</time></trkpt><trkpt lat="43.0589702" lon="11.4284139"><ele>480.4</ele><time>2026-04-03T10:22:06.736Z</time></trkpt><trkpt lat="43.0588872" lon="11.4284646"><ele>481.79999999999995</ele><time>2026-04-03T10:22:07.736Z</time></trkpt><trkpt lat="43.0587977" lon="11.4285386"><ele>483.20000000000005</ele><time>2026-04-03T10:22:08.736Z</time></trkpt><trkpt lat="43.0587152" lon="11.4286495"><ele>484.6</ele><time>2026-04-03T10:22:09.735Z</time></trkpt><trkpt lat="43.0586369" lon="11.4287842"><ele>486.0</ele><time>2026-04-03T10:22:10.735Z</time></trkpt><trkpt lat="43.058571" lon="11.4289535"><ele>486.0</ele><time>2026-04-03T10:22:11.735Z</time></trkpt><trkpt lat="43.0585117" lon="11.4291334"><ele>486.0</ele><time>2026-04-03T10:22:12.736Z</time></trkpt><trkpt lat="43.0584518" lon="11.4293087"><ele>486.0</ele><time>2026-04-03T10:22:13.736Z</time></trkpt><trkpt lat="43.0584104" lon="11.4294812"><ele>486.0</ele><time>2026-04-03T10:22:14.736Z</time></trkpt><trkpt lat="43.0583711" lon="11.4296554"><ele>486.0</ele><time>2026-04-03T10:22:15.735Z</time></trkpt><trkpt lat="43.0583368" lon="11.4298256"><ele>486.0</ele><time>2026-04-03T10:22:16.736Z</time></trkpt><trkpt lat="43.0583075" lon="11.4299727"><ele>486.0</ele><time>2026-04-03T10:22:17.736Z</time></trkpt><trkpt lat="43.0582898" lon="11.4300996"><ele>486.0</ele><time>2026-04-03T10:22:18.736Z</time></trkpt><trkpt lat="43.0582863" lon="11.4302147"><ele>486.0</ele><time>2026-04-03T10:22:19.735Z</time></trkpt><trkpt lat="43.0582941" lon="11.4303465"><ele>485.8</ele><time>2026-04-03T10:22:20.735Z</time></trkpt><trkpt lat="43.0583011" lon="11.4304822"><ele>485.6</ele><time>2026-04-03T10:22:21.735Z</time></trkpt><trkpt lat="43.0583037" lon="11.4306141"><ele>485.4</ele><time>2026-04-03T10:22:22.736Z</time></trkpt><trkpt lat="43.0582876" lon="11.4307333"><ele>485.2</ele><time>2026-04-03T10:22:23.735Z</time></trkpt><trkpt lat="43.0582499" lon="11.4308398"><ele>485.0</ele><time>2026-04-03T10:22:24.735Z</time></trkpt><trkpt lat="43.0581865" lon="11.4309484"><ele>483.75</ele><time>2026-04-03T10:22:25.736Z</time></trkpt><trkpt lat="43.0581011" lon="11.4310317"><ele>482.5</ele><time>2026-04-03T10:22:26.735Z</time></trkpt><trkpt lat="43.0579916" lon="11.4311079"><ele>481.25</ele><time>2026-04-03T10:22:27.735Z</time></trkpt><trkpt lat="43.0578472" lon="11.4311978"><ele>480.0</ele><time>2026-04-03T10:22:28.736Z</time></trkpt><trkpt lat="43.0576984" lon="11.4312887"><ele>482.0</ele><time>2026-04-03T10:22:29.736Z</time></trkpt><trkpt lat="43.0575781" lon="11.4313808"><ele>484.0</ele><time>2026-04-03T10:22:30.736Z</time></trkpt><trkpt lat="43.0574712" lon="11.4315075"><ele>486.0</ele><time>2026-04-03T10:22:31.736Z</time></trkpt><trkpt lat="43.0573624" lon="11.4316401"><ele>488.0</ele><time>2026-04-03T10:22:32.735Z</time></trkpt><trkpt lat="43.0572665" lon="11.431776"><ele>488.25</ele><time>2026-04-03T10:22:33.735Z</time></trkpt><trkpt lat="43.0571787" lon="11.4319215"><ele>488.5</ele><time>2026-04-03T10:22:34.736Z</time></trkpt><trkpt lat="43.0570903" lon="11.4320917"><ele>488.75</ele><time>2026-04-03T10:22:35.735Z</time></trkpt><trkpt lat="43.0570139" lon="11.4322502"><ele>489.0</ele><time>2026-04-03T10:22:36.736Z</time></trkpt><trkpt lat="43.0569292" lon="11.4324068"><ele>489.25</ele><time>2026-04-03T10:22:37.735Z</time></trkpt><trkpt lat="43.0568382" lon="11.4325562"><ele>489.5</ele><time>2026-04-03T10:22:38.736Z</time></trkpt><trkpt lat="43.0567463" lon="11.432679"><ele>489.75</ele><time>2026-04-03T10:22:39.736Z</time></trkpt><trkpt lat="43.056664" lon="11.4327829"><ele>490.0</ele><time>2026-04-03T10:22:40.735Z</time></trkpt><trkpt lat="43.0565928" lon="11.432896"><ele>491.4</ele><time>2026-04-03T10:22:41.735Z</time></trkpt><trkpt lat="43.0565299" lon="11.4329999"><ele>492.8</ele><time>2026-04-03T10:22:42.735Z</time></trkpt><trkpt lat="43.0564631" lon="11.4330854"><ele>494.20000000000005</ele><time>2026-04-03T10:22:43.736Z</time></trkpt><trkpt lat="43.056382" lon="11.4331552"><ele>495.6</ele><time>2026-04-03T10:22:44.735Z</time></trkpt><trkpt lat="43.0562806" lon="11.433225"><ele>497.0</ele><time>2026-04-03T10:22:45.734Z</time></trkpt><trkpt lat="43.0561658" lon="11.4332777"><ele>497.0</ele><time>2026-04-03T10:22:46.734Z</time></trkpt><trkpt lat="43.056039" lon="11.4333305"><ele>497.0</ele><time>2026-04-03T10:22:47.735Z</time></trkpt><trkpt lat="43.0559037" lon="11.4333798"><ele>497.0</ele><time>2026-04-03T10:22:48.735Z</time></trkpt><trkpt lat="43.0557815" lon="11.4334283"><ele>497.0</ele><time>2026-04-03T10:22:49.734Z</time></trkpt><trkpt lat="43.0556822" lon="11.4334731"><ele>496.8333333333333</ele><time>2026-04-03T10:22:50.735Z</time></trkpt><trkpt lat="43.0556082" lon="11.4335151"><ele>496.66666666666663</ele><time>2026-04-03T10:22:51.734Z</time></trkpt><trkpt lat="43.0555388" lon="11.4335592"><ele>496.5</ele><time>2026-04-03T10:22:52.735Z</time></trkpt><trkpt lat="43.0554806" lon="11.4336026"><ele>496.33333333333337</ele><time>2026-04-03T10:22:53.735Z</time></trkpt><trkpt lat="43.055404" lon="11.4336469"><ele>496.1666666666667</ele><time>2026-04-03T10:22:55.735Z</time></trkpt><trkpt lat="43.0553198" lon="11.4336952"><ele>496.0</ele><time>2026-04-03T10:23:39.734Z</time></trkpt><trkpt lat="43.0552173" lon="11.4337113"><ele>496.0</ele><time>2026-04-03T10:23:55.735Z</time></trkpt><trkpt lat="43.0551168" lon="11.4337384"><ele>496.0</ele><time>2026-04-03T10:23:57.735Z</time></trkpt><trkpt lat="43.0550088" lon="11.4337834"><ele>496.0</ele><time>2026-04-03T10:23:59.735Z</time></trkpt><trkpt lat="43.0548993" lon="11.4338388"><ele>496.0</ele><time>2026-04-03T10:24:01.735Z</time></trkpt><trkpt lat="43.0548059" lon="11.4339152"><ele>496.0</ele><time>2026-04-03T10:24:03.735Z</time></trkpt><trkpt lat="43.0546992" lon="11.4339999"><ele>494.5714285714286</ele><time>2026-04-03T10:24:05.735Z</time></trkpt><trkpt lat="43.0546351" lon="11.4340368"><ele>493.1428571428572</ele><time>2026-04-03T10:24:06.735Z</time></trkpt><trkpt lat="43.0545675" lon="11.4340765"><ele>491.7142857142857</ele><time>2026-04-03T10:24:07.735Z</time></trkpt><trkpt lat="43.0544978" lon="11.4341165"><ele>490.28571428571433</ele><time>2026-04-03T10:24:08.735Z</time></trkpt><trkpt lat="43.0544258" lon="11.4341453"><ele>488.8571428571429</ele><time>2026-04-03T10:24:09.735Z</time></trkpt><trkpt lat="43.0543552" lon="11.4341756"><ele>487.42857142857144</ele><time>2026-04-03T10:24:10.734Z</time></trkpt><trkpt lat="43.0542794" lon="11.4342107"><ele>486.0</ele><time>2026-04-03T10:24:11.734Z</time></trkpt><trkpt lat="43.0541982" lon="11.4342363"><ele>485.6</ele><time>2026-04-03T10:24:12.735Z</time></trkpt><trkpt lat="43.0541085" lon="11.434267"><ele>485.20000000000005</ele><time>2026-04-03T10:24:13.735Z</time></trkpt><trkpt lat="43.0540172" lon="11.4342897"><ele>484.79999999999995</ele><time>2026-04-03T10:24:14.734Z</time></trkpt><trkpt lat="43.0539178" lon="11.4343188"><ele>484.4</ele><time>2026-04-03T10:24:15.734Z</time></trkpt><trkpt lat="43.0538277" lon="11.4343471"><ele>484.0</ele><time>2026-04-03T10:24:16.734Z</time></trkpt><trkpt lat="43.0537447" lon="11.4343809"><ele>484.0</ele><time>2026-04-03T10:24:17.735Z</time></trkpt><trkpt lat="43.0536665" lon="11.4344227"><ele>484.0</ele><time>2026-04-03T10:24:18.734Z</time></trkpt><trkpt lat="43.0535868" lon="11.4344852"><ele>484.0</ele><time>2026-04-03T10:24:19.735Z</time></trkpt><trkpt lat="43.0535044" lon="11.434569"><ele>484.0</ele><time>2026-04-03T10:24:20.734Z</time></trkpt><trkpt lat="43.0534262" lon="11.4346708"><ele>484.0</ele><time>2026-04-03T10:24:21.735Z</time></trkpt><trkpt lat="43.0533562" lon="11.4347859"><ele>482.25</ele><time>2026-04-03T10:24:22.735Z</time></trkpt><trkpt lat="43.0532978" lon="11.4349204"><ele>480.5</ele><time>2026-04-03T10:24:23.735Z</time></trkpt><trkpt lat="43.0532485" lon="11.4350547"><ele>478.75</ele><time>2026-04-03T10:24:24.735Z</time></trkpt><trkpt lat="43.053204" lon="11.4351921"><ele>477.0</ele><time>2026-04-03T10:24:25.734Z</time></trkpt><trkpt lat="43.0531624" lon="11.4353583"><ele>474.0</ele><time>2026-04-03T10:24:26.734Z</time></trkpt><trkpt lat="43.0531264" lon="11.4355463"><ele>471.0</ele><time>2026-04-03T10:24:27.734Z</time></trkpt><trkpt lat="43.0530979" lon="11.435731"><ele>468.0</ele><time>2026-04-03T10:24:28.735Z</time></trkpt><trkpt lat="43.0530777" lon="11.4359047"><ele>465.0</ele><time>2026-04-03T10:24:29.734Z</time></trkpt><trkpt lat="43.0530588" lon="11.4360616"><ele>465.0</ele><time>2026-04-03T10:24:30.735Z</time></trkpt><trkpt lat="43.0530327" lon="11.4361927"><ele>465.0</ele><time>2026-04-03T10:24:31.735Z</time></trkpt><trkpt lat="43.0529961" lon="11.4363173"><ele>465.0</ele><time>2026-04-03T10:24:32.734Z</time></trkpt><trkpt lat="43.0529491" lon="11.4364459"><ele>465.0</ele><time>2026-04-03T10:24:33.735Z</time></trkpt><trkpt lat="43.0528881" lon="11.4365621"><ele>465.0</ele><time>2026-04-03T10:24:34.735Z</time></trkpt><trkpt lat="43.0528122" lon="11.4366684"><ele>465.6</ele><time>2026-04-03T10:24:35.734Z</time></trkpt><trkpt lat="43.0527277" lon="11.4367518"><ele>466.2</ele><time>2026-04-03T10:24:36.735Z</time></trkpt><trkpt lat="43.0526399" lon="11.4367996"><ele>466.79999999999995</ele><time>2026-04-03T10:24:37.734Z</time></trkpt><trkpt lat="43.0525496" lon="11.4368062"><ele>467.4</ele><time>2026-04-03T10:24:38.735Z</time></trkpt><trkpt lat="43.0524614" lon="11.4367916"><ele>468.0</ele><time>2026-04-03T10:24:39.734Z</time></trkpt><trkpt lat="43.0523628" lon="11.4367798"><ele>468.25</ele><time>2026-04-03T10:24:40.734Z</time></trkpt><trkpt lat="43.0522684" lon="11.4367608"><ele>468.5</ele><time>2026-04-03T10:24:41.735Z</time></trkpt><trkpt lat="43.0521543" lon="11.4367732"><ele>468.75</ele><time>2026-04-03T10:24:42.734Z</time></trkpt><trkpt lat="43.052013" lon="11.4368083"><ele>469.0</ele><time>2026-04-03T10:24:43.735Z</time></trkpt><trkpt lat="43.0518724" lon="11.4368548"><ele>469.0</ele><time>2026-04-03T10:24:44.735Z</time></trkpt><trkpt lat="43.0517564" lon="11.4368853"><ele>469.0</ele><time>2026-04-03T10:24:45.734Z</time></trkpt><trkpt lat="43.0516657" lon="11.4369292"><ele>469.0</ele><time>2026-04-03T10:24:46.735Z</time></trkpt><trkpt lat="43.0515863" lon="11.4369887"><ele>469.0</ele><time>2026-04-03T10:24:47.735Z</time></trkpt><trkpt lat="43.0515129" lon="11.437073"><ele>469.0</ele><time>2026-04-03T10:24:48.734Z</time></trkpt><trkpt lat="43.0514464" lon="11.4371825"><ele>469.25</ele><time>2026-04-03T10:24:49.734Z</time></trkpt><trkpt lat="43.0513745" lon="11.4373091"><ele>469.5</ele><time>2026-04-03T10:24:50.734Z</time></trkpt><trkpt lat="43.0512859" lon="11.4374203"><ele>469.75</ele><time>2026-04-03T10:24:51.735Z</time></trkpt><trkpt lat="43.0511747" lon="11.4375243"><ele>470.0</ele><time>2026-04-03T10:24:52.735Z</time></trkpt><trkpt lat="43.0510407" lon="11.4376325"><ele>470.0</ele><time>2026-04-03T10:24:53.735Z</time></trkpt><trkpt lat="43.0508936" lon="11.4377336"><ele>470.0</ele><time>2026-04-03T10:24:54.735Z</time></trkpt><trkpt lat="43.0507641" lon="11.4378136"><ele>470.0</ele><time>2026-04-03T10:24:55.735Z</time></trkpt><trkpt lat="43.0506663" lon="11.4378861"><ele>470.0</ele><time>2026-04-03T10:24:56.735Z</time></trkpt><trkpt lat="43.0505942" lon="11.4379495"><ele>471.99999999999994</ele><time>2026-04-03T10:24:57.734Z</time></trkpt><trkpt lat="43.0505387" lon="11.4380287"><ele>474.0</ele><time>2026-04-03T10:24:58.735Z</time></trkpt><trkpt lat="43.0505036" lon="11.4381159"><ele>476.0</ele><time>2026-04-03T10:24:59.735Z</time></trkpt><trkpt lat="43.0504759" lon="11.4382106"><ele>478.0</ele><time>2026-04-03T10:25:00.734Z</time></trkpt><trkpt lat="43.0504565" lon="11.438328"><ele>479.99999999999994</ele><time>2026-04-03T10:25:01.735Z</time></trkpt><trkpt lat="43.0504363" lon="11.4384551"><ele>482.0</ele><time>2026-04-03T10:25:02.734Z</time></trkpt><trkpt lat="43.050414" lon="11.4385819"><ele>481.99999999999994</ele><time>2026-04-03T10:25:03.735Z</time></trkpt><trkpt lat="43.0503889" lon="11.4386984"><ele>482.0</ele><time>2026-04-03T10:25:04.734Z</time></trkpt><trkpt lat="43.0503853" lon="11.4388056"><ele>482.0</ele><time>2026-04-03T10:25:05.734Z</time></trkpt><trkpt lat="43.0503999" lon="11.4389152"><ele>482.0</ele><time>2026-04-03T10:25:06.735Z</time></trkpt><trkpt lat="43.0504462" lon="11.4390127"><ele>481.99999999999994</ele><time>2026-04-03T10:25:07.734Z</time></trkpt><trkpt lat="43.0505093" lon="11.439127"><ele>482.0</ele><time>2026-04-03T10:25:08.734Z</time></trkpt><trkpt lat="43.050577" lon="11.4392483"><ele>481.8</ele><time>2026-04-03T10:25:09.735Z</time></trkpt><trkpt lat="43.0506341" lon="11.439363"><ele>481.6</ele><time>2026-04-03T10:25:10.734Z</time></trkpt><trkpt lat="43.0506771" lon="11.439484"><ele>481.40000000000003</ele><time>2026-04-03T10:25:11.734Z</time></trkpt><trkpt lat="43.0507062" lon="11.439622"><ele>481.20000000000005</ele><time>2026-04-03T10:25:12.735Z</time></trkpt><trkpt lat="43.0507264" lon="11.4397534"><ele>481.0</ele><time>2026-04-03T10:25:13.735Z</time></trkpt><trkpt lat="43.0507195" lon="11.4398733"><ele>481.0</ele><time>2026-04-03T10:25:14.735Z</time></trkpt><trkpt lat="43.0507021" lon="11.4399875"><ele>481.0</ele><time>2026-04-03T10:25:15.735Z</time></trkpt><trkpt lat="43.0506791" lon="11.4400937"><ele>481.0</ele><time>2026-04-03T10:25:16.734Z</time></trkpt><trkpt lat="43.0506497" lon="11.4402068"><ele>481.0</ele><time>2026-04-03T10:25:17.734Z</time></trkpt><trkpt lat="43.0505995" lon="11.4403223"><ele>481.0</ele><time>2026-04-03T10:25:18.735Z</time></trkpt><trkpt lat="43.0505334" lon="11.4404275"><ele>478.20000000000005</ele><time>2026-04-03T10:25:19.734Z</time></trkpt><trkpt lat="43.0504528" lon="11.4405211"><ele>475.40000000000003</ele><time>2026-04-03T10:25:20.734Z</time></trkpt><trkpt lat="43.0503598" lon="11.4405893"><ele>472.6</ele><time>2026-04-03T10:25:21.735Z</time></trkpt><trkpt lat="43.0502723" lon="11.4406598"><ele>469.8</ele><time>2026-04-03T10:25:22.735Z</time></trkpt><trkpt lat="43.050197" lon="11.4407554"><ele>467.0</ele><time>2026-04-03T10:25:23.735Z</time></trkpt><trkpt lat="43.0501376" lon="11.4408564"><ele>467.0</ele><time>2026-04-03T10:25:24.735Z</time></trkpt><trkpt lat="43.0500976" lon="11.4409803"><ele>467.00000000000006</ele><time>2026-04-03T10:25:25.734Z</time></trkpt><trkpt lat="43.0500726" lon="11.4411061"><ele>467.00000000000006</ele><time>2026-04-03T10:25:26.735Z</time></trkpt><trkpt lat="43.0500723" lon="11.4412387"><ele>467.0</ele><time>2026-04-03T10:25:27.734Z</time></trkpt><trkpt lat="43.0500791" lon="11.4414167"><ele>467.0</ele><time>2026-04-03T10:25:28.735Z</time></trkpt><trkpt lat="43.0500885" lon="11.4416352"><ele>466.0</ele><time>2026-04-03T10:25:29.735Z</time></trkpt><trkpt lat="43.0500968" lon="11.4418639"><ele>465.0</ele><time>2026-04-03T10:25:30.734Z</time></trkpt><trkpt lat="43.0501018" lon="11.4421108"><ele>464.0</ele><time>2026-04-03T10:25:31.735Z</time></trkpt><trkpt lat="43.0501116" lon="11.4423601"><ele>464.0</ele><time>2026-04-03T10:25:32.734Z</time></trkpt><trkpt lat="43.0501197" lon="11.4425964"><ele>464.0</ele><time>2026-04-03T10:25:33.735Z</time></trkpt><trkpt lat="43.0501293" lon="11.4428065"><ele>464.0</ele><time>2026-04-03T10:25:34.734Z</time></trkpt><trkpt lat="43.0501436" lon="11.4429937"><ele>465.75</ele><time>2026-04-03T10:25:35.735Z</time></trkpt><trkpt lat="43.0501538" lon="11.4431586"><ele>467.5</ele><time>2026-04-03T10:25:36.735Z</time></trkpt><trkpt lat="43.0501485" lon="11.4433281"><ele>469.25</ele><time>2026-04-03T10:25:37.735Z</time></trkpt><trkpt lat="43.0501229" lon="11.443511"><ele>471.0</ele><time>2026-04-03T10:25:38.735Z</time></trkpt><trkpt lat="43.050083" lon="11.44372"><ele>472.33333333333337</ele><time>2026-04-03T10:25:39.735Z</time></trkpt><trkpt lat="43.0500398" lon="11.4439491"><ele>473.6666666666667</ele><time>2026-04-03T10:25:40.735Z</time></trkpt><trkpt lat="43.0499974" lon="11.4441556"><ele>475.0</ele><time>2026-04-03T10:25:41.734Z</time></trkpt><trkpt lat="43.0499682" lon="11.4443344"><ele>473.75</ele><time>2026-04-03T10:25:42.734Z</time></trkpt><trkpt lat="43.0499573" lon="11.4445189"><ele>472.5</ele><time>2026-04-03T10:25:43.735Z</time></trkpt><trkpt lat="43.0499519" lon="11.4447188"><ele>471.25</ele><time>2026-04-03T10:25:44.735Z</time></trkpt><trkpt lat="43.0499442" lon="11.4448974"><ele>470.0</ele><time>2026-04-03T10:25:45.735Z</time></trkpt><trkpt lat="43.0499303" lon="11.4450439"><ele>467.75</ele><time>2026-04-03T10:25:46.735Z</time></trkpt><trkpt lat="43.049915" lon="11.4451828"><ele>465.5</ele><time>2026-04-03T10:25:47.734Z</time></trkpt><trkpt lat="43.049878" lon="11.445322"><ele>463.25</ele><time>2026-04-03T10:25:48.735Z</time></trkpt><trkpt lat="43.0498216" lon="11.4454762"><ele>461.0</ele><time>2026-04-03T10:25:49.735Z</time></trkpt><trkpt lat="43.0497606" lon="11.4456231"><ele>461.0</ele><time>2026-04-03T10:25:50.734Z</time></trkpt><trkpt lat="43.0497186" lon="11.4457762"><ele>461.0</ele><time>2026-04-03T10:25:51.735Z</time></trkpt><trkpt lat="43.0496837" lon="11.4459491"><ele>461.0</ele><time>2026-04-03T10:25:52.734Z</time></trkpt><trkpt lat="43.0496554" lon="11.4461423"><ele>461.0</ele><time>2026-04-03T10:25:53.735Z</time></trkpt><trkpt lat="43.0496366" lon="11.4463383"><ele>462.3333333333333</ele><time>2026-04-03T10:25:54.734Z</time></trkpt><trkpt lat="43.0496254" lon="11.4465571"><ele>463.66666666666663</ele><time>2026-04-03T10:25:55.734Z</time></trkpt><trkpt lat="43.0496204" lon="11.4468113"><ele>465.0</ele><time>2026-04-03T10:25:56.734Z</time></trkpt><trkpt lat="43.0496103" lon="11.4470575"><ele>465.25</ele><time>2026-04-03T10:25:57.735Z</time></trkpt><trkpt lat="43.0495999" lon="11.4472664"><ele>465.5</ele><time>2026-04-03T10:25:58.735Z</time></trkpt><trkpt lat="43.0496011" lon="11.4474662"><ele>465.75</ele><time>2026-04-03T10:25:59.735Z</time></trkpt><trkpt lat="43.0496058" lon="11.4476405"><ele>466.0</ele><time>2026-04-03T10:26:00.735Z</time></trkpt><trkpt lat="43.0496201" lon="11.447791"><ele>466.0</ele><time>2026-04-03T10:26:01.735Z</time></trkpt><trkpt lat="43.049651" lon="11.447928"><ele>466.0</ele><time>2026-04-03T10:26:02.734Z</time></trkpt><trkpt lat="43.0496903" lon="11.4480586"><ele>466.0</ele><time>2026-04-03T10:26:03.734Z</time></trkpt><trkpt lat="43.0497099" lon="11.4481824"><ele>466.0</ele><time>2026-04-03T10:26:04.735Z</time></trkpt><trkpt lat="43.0496996" lon="11.4483043"><ele>466.0</ele><time>2026-04-03T10:26:05.735Z</time></trkpt><trkpt lat="43.0496653" lon="11.4484136"><ele>466.6</ele><time>2026-04-03T10:26:06.735Z</time></trkpt><trkpt lat="43.0496185" lon="11.4484989"><ele>467.20000000000005</ele><time>2026-04-03T10:26:07.734Z</time></trkpt><trkpt lat="43.0495618" lon="11.4485679"><ele>467.79999999999995</ele><time>2026-04-03T10:26:08.734Z</time></trkpt><trkpt lat="43.0495007" lon="11.4486571"><ele>468.4</ele><time>2026-04-03T10:26:09.735Z</time></trkpt><trkpt lat="43.049429" lon="11.4487616"><ele>469.0</ele><time>2026-04-03T10:26:10.735Z</time></trkpt><trkpt lat="43.049346" lon="11.4488762"><ele>469.6666666666667</ele><time>2026-04-03T10:26:11.734Z</time></trkpt><trkpt lat="43.0492545" lon="11.4490085"><ele>470.33333333333337</ele><time>2026-04-03T10:26:12.735Z</time></trkpt><trkpt lat="43.0491453" lon="11.4491631"><ele>471.0</ele><time>2026-04-03T10:26:13.734Z</time></trkpt><trkpt lat="43.0490236" lon="11.4493334"><ele>471.0</ele><time>2026-04-03T10:26:14.735Z</time></trkpt><trkpt lat="43.0488968" lon="11.4495148"><ele>471.0</ele><time>2026-04-03T10:26:15.735Z</time></trkpt><trkpt lat="43.0487784" lon="11.4496919"><ele>471.0</ele><time>2026-04-03T10:26:16.735Z</time></trkpt><trkpt lat="43.0486661" lon="11.4498395"><ele>472.0</ele><time>2026-04-03T10:26:17.734Z</time></trkpt><trkpt lat="43.0485639" lon="11.4499692"><ele>473.0</ele><time>2026-04-03T10:26:18.735Z</time></trkpt><trkpt lat="43.0484699" lon="11.4500858"><ele>474.0</ele><time>2026-04-03T10:26:19.735Z</time></trkpt><trkpt lat="43.0483736" lon="11.4501836"><ele>475.0</ele><time>2026-04-03T10:26:20.735Z</time></trkpt><trkpt lat="43.0482924" lon="11.4502629"><ele>475.00000000000006</ele><time>2026-04-03T10:26:21.734Z</time></trkpt><trkpt lat="43.0482282" lon="11.4503375"><ele>475.0</ele><time>2026-04-03T10:26:22.735Z</time></trkpt><trkpt lat="43.0481745" lon="11.4504134"><ele>475.0</ele><time>2026-04-03T10:26:23.735Z</time></trkpt><trkpt lat="43.0481357" lon="11.4504981"><ele>475.0</ele><time>2026-04-03T10:26:24.735Z</time></trkpt><trkpt lat="43.0480995" lon="11.4506022"><ele>475.00000000000006</ele><time>2026-04-03T10:26:25.735Z</time></trkpt><trkpt lat="43.0480731" lon="11.4507275"><ele>475.0</ele><time>2026-04-03T10:26:26.735Z</time></trkpt><trkpt lat="43.0480453" lon="11.4508825"><ele>476.5</ele><time>2026-04-03T10:26:27.735Z</time></trkpt><trkpt lat="43.0480256" lon="11.451059"><ele>478.0</ele><time>2026-04-03T10:26:28.735Z</time></trkpt><trkpt lat="43.0480041" lon="11.4512295"><ele>479.5</ele><time>2026-04-03T10:26:29.735Z</time></trkpt><trkpt lat="43.0479768" lon="11.4513774"><ele>481.0</ele><time>2026-04-03T10:26:30.734Z</time></trkpt><trkpt lat="43.0479379" lon="11.4515187"><ele>481.8</ele><time>2026-04-03T10:26:31.734Z</time></trkpt><trkpt lat="43.0478878" lon="11.4516552"><ele>482.6</ele><time>2026-04-03T10:26:32.734Z</time></trkpt><trkpt lat="43.0478368" lon="11.451777"><ele>483.4</ele><time>2026-04-03T10:26:33.735Z</time></trkpt><trkpt lat="43.0477996" lon="11.45188"><ele>484.2</ele><time>2026-04-03T10:26:34.735Z</time></trkpt><trkpt lat="43.0477548" lon="11.4520105"><ele>485.0</ele><time>2026-04-03T10:26:36.735Z</time></trkpt><trkpt lat="43.0476965" lon="11.4521988"><ele>486.0</ele><time>2026-04-03T10:33:02.733Z</time></trkpt><trkpt lat="43.0476732" lon="11.4523584"><ele>487.0</ele><time>2026-04-03T10:33:04.733Z</time></trkpt><trkpt lat="43.047659" lon="11.4524655"><ele>488.0</ele><time>2026-04-03T10:33:05.733Z</time></trkpt><trkpt lat="43.0476385" lon="11.4525805"><ele>489.0</ele><time>2026-04-03T10:33:06.733Z</time></trkpt><trkpt lat="43.0476144" lon="11.4527173"><ele>490.0</ele><time>2026-04-03T10:33:07.732Z</time></trkpt><trkpt lat="43.0475865" lon="11.4528627"><ele>490.6</ele><time>2026-04-03T10:33:08.733Z</time></trkpt><trkpt lat="43.0475629" lon="11.4530138"><ele>491.2</ele><time>2026-04-03T10:33:09.733Z</time></trkpt><trkpt lat="43.0475413" lon="11.4531656"><ele>491.79999999999995</ele><time>2026-04-03T10:33:10.733Z</time></trkpt><trkpt lat="43.0475223" lon="11.4533076"><ele>492.4</ele><time>2026-04-03T10:33:11.733Z</time></trkpt><trkpt lat="43.0475113" lon="11.4534151"><ele>493.0</ele><time>2026-04-03T10:33:12.733Z</time></trkpt><trkpt lat="43.0475033" lon="11.4535494"><ele>493.00000000000006</ele><time>2026-04-03T10:33:14.733Z</time></trkpt><trkpt lat="43.0474662" lon="11.4536934"><ele>493.0</ele><time>2026-04-03T10:33:16.732Z</time></trkpt><trkpt lat="43.0474357" lon="11.4537735"><ele>493.0</ele><time>2026-04-03T10:33:17.733Z</time></trkpt><trkpt lat="43.0473943" lon="11.4538436"><ele>493.0</ele><time>2026-04-03T10:33:18.733Z</time></trkpt><trkpt lat="43.0473368" lon="11.4539016"><ele>493.00000000000006</ele><time>2026-04-03T10:33:19.733Z</time></trkpt><trkpt lat="43.0472658" lon="11.4539572"><ele>493.0</ele><time>2026-04-03T10:33:20.733Z</time></trkpt><trkpt lat="43.0471682" lon="11.4540174"><ele>495.25</ele><time>2026-04-03T10:33:21.732Z</time></trkpt><trkpt lat="43.0470518" lon="11.4540859"><ele>497.5</ele><time>2026-04-03T10:33:22.733Z</time></trkpt><trkpt lat="43.0469317" lon="11.4541628"><ele>499.75</ele><time>2026-04-03T10:33:23.732Z</time></trkpt><trkpt lat="43.0468244" lon="11.4542263"><ele>502.0</ele><time>2026-04-03T10:33:24.732Z</time></trkpt><trkpt lat="43.0467315" lon="11.4542826"><ele>502.0</ele><time>2026-04-03T10:33:25.733Z</time></trkpt><trkpt lat="43.0466431" lon="11.4543413"><ele>502.00000000000006</ele><time>2026-04-03T10:33:26.733Z</time></trkpt><trkpt lat="43.046556" lon="11.4544137"><ele>502.00000000000006</ele><time>2026-04-03T10:33:27.732Z</time></trkpt><trkpt lat="43.0464661" lon="11.4545018"><ele>502.0</ele><time>2026-04-03T10:33:28.733Z</time></trkpt><trkpt lat="43.0463664" lon="11.4545971"><ele>502.0</ele><time>2026-04-03T10:33:29.733Z</time></trkpt><trkpt lat="43.0462595" lon="11.4547004"><ele>502.8</ele><time>2026-04-03T10:33:30.732Z</time></trkpt><trkpt lat="43.0461549" lon="11.4547734"><ele>503.6</ele><time>2026-04-03T10:33:31.733Z</time></trkpt><trkpt lat="43.0460586" lon="11.4548302"><ele>504.40000000000003</ele><time>2026-04-03T10:33:32.733Z</time></trkpt><trkpt lat="43.0459619" lon="11.4548867"><ele>505.20000000000005</ele><time>2026-04-03T10:33:33.733Z</time></trkpt><trkpt lat="43.0458678" lon="11.4549431"><ele>506.0</ele><time>2026-04-03T10:33:34.733Z</time></trkpt><trkpt lat="43.0457749" lon="11.4549977"><ele>506.0</ele><time>2026-04-03T10:33:35.732Z</time></trkpt><trkpt lat="43.045682" lon="11.4550626"><ele>506.0</ele><time>2026-04-03T10:33:36.733Z</time></trkpt><trkpt lat="43.045598" lon="11.4551404"><ele>506.0</ele><time>2026-04-03T10:33:37.733Z</time></trkpt><trkpt lat="43.0455224" lon="11.4552382"><ele>506.0</ele><time>2026-04-03T10:33:38.733Z</time></trkpt><trkpt lat="43.0454536" lon="11.4553536"><ele>506.0</ele><time>2026-04-03T10:33:39.733Z</time></trkpt><trkpt lat="43.0453834" lon="11.4554911"><ele>505.5</ele><time>2026-04-03T10:33:40.733Z</time></trkpt><trkpt lat="43.0453044" lon="11.455652"><ele>505.0</ele><time>2026-04-03T10:33:41.733Z</time></trkpt><trkpt lat="43.0452127" lon="11.455826"><ele>504.5</ele><time>2026-04-03T10:33:42.732Z</time></trkpt><trkpt lat="43.0451269" lon="11.4559926"><ele>504.0</ele><time>2026-04-03T10:33:43.732Z</time></trkpt><trkpt lat="43.0450433" lon="11.4561563"><ele>504.0</ele><time>2026-04-03T10:33:44.732Z</time></trkpt><trkpt lat="43.0449669" lon="11.456304"><ele>504.0</ele><time>2026-04-03T10:33:45.733Z</time></trkpt><trkpt lat="43.0449081" lon="11.4564324"><ele>504.0</ele><time>2026-04-03T10:33:46.733Z</time></trkpt><trkpt lat="43.0448557" lon="11.45656"><ele>504.0</ele><time>2026-04-03T10:33:47.732Z</time></trkpt><trkpt lat="43.0448179" lon="11.4567121"><ele>503.6</ele><time>2026-04-03T10:33:48.733Z</time></trkpt><trkpt lat="43.0447907" lon="11.4568833"><ele>503.2</ele><time>2026-04-03T10:33:49.732Z</time></trkpt><trkpt lat="43.044768" lon="11.4570506"><ele>502.80000000000007</ele><time>2026-04-03T10:33:50.732Z</time></trkpt><trkpt lat="43.0447431" lon="11.457181"><ele>502.40000000000003</ele><time>2026-04-03T10:33:51.733Z</time></trkpt><trkpt lat="43.0447128" lon="11.4572845"><ele>502.0</ele><time>2026-04-03T10:33:52.733Z</time></trkpt><trkpt lat="43.0446612" lon="11.4573752"><ele>503.6</ele><time>2026-04-03T10:33:53.732Z</time></trkpt><trkpt lat="43.0445921" lon="11.457455"><ele>505.20000000000005</ele><time>2026-04-03T10:33:54.733Z</time></trkpt><trkpt lat="43.0445012" lon="11.4575348"><ele>506.8</ele><time>2026-04-03T10:33:55.733Z</time></trkpt><trkpt lat="43.0443976" lon="11.4576268"><ele>508.4</ele><time>2026-04-03T10:33:56.732Z</time></trkpt><trkpt lat="43.0442959" lon="11.4577245"><ele>510.0</ele><time>2026-04-03T10:33:57.733Z</time></trkpt><trkpt lat="43.0442166" lon="11.4578114"><ele>510.0</ele><time>2026-04-03T10:33:58.733Z</time></trkpt><trkpt lat="43.0441404" lon="11.4579062"><ele>510.0</ele><time>2026-04-03T10:33:59.733Z</time></trkpt><trkpt lat="43.0440575" lon="11.4580263"><ele>510.0</ele><time>2026-04-03T10:34:00.732Z</time></trkpt><trkpt lat="43.0439659" lon="11.4581711"><ele>510.0</ele><time>2026-04-03T10:34:01.733Z</time></trkpt><trkpt lat="43.0438663" lon="11.4583327"><ele>509.66666666666663</ele><time>2026-04-03T10:34:02.732Z</time></trkpt><trkpt lat="43.0437673" lon="11.4585027"><ele>509.3333333333333</ele><time>2026-04-03T10:34:03.732Z</time></trkpt><trkpt lat="43.0436644" lon="11.4586697"><ele>509.0</ele><time>2026-04-03T10:34:04.733Z</time></trkpt><trkpt lat="43.0435574" lon="11.4588215"><ele>509.0</ele><time>2026-04-03T10:34:05.732Z</time></trkpt><trkpt lat="43.0434522" lon="11.4589454"><ele>509.0</ele><time>2026-04-03T10:34:06.732Z</time></trkpt><trkpt lat="43.0433462" lon="11.4590466"><ele>509.0</ele><time>2026-04-03T10:34:07.732Z</time></trkpt><trkpt lat="43.0432393" lon="11.4591323"><ele>509.0</ele><time>2026-04-03T10:34:08.733Z</time></trkpt><trkpt lat="43.0431345" lon="11.4592036"><ele>508.6</ele><time>2026-04-03T10:34:09.732Z</time></trkpt><trkpt lat="43.0430403" lon="11.4592696"><ele>508.2</ele><time>2026-04-03T10:34:10.732Z</time></trkpt><trkpt lat="43.0429657" lon="11.4593402"><ele>507.80000000000007</ele><time>2026-04-03T10:34:11.733Z</time></trkpt><trkpt lat="43.0429065" lon="11.4594312"><ele>507.40000000000003</ele><time>2026-04-03T10:34:12.732Z</time></trkpt><trkpt lat="43.0428518" lon="11.4595506"><ele>507.0</ele><time>2026-04-03T10:34:13.732Z</time></trkpt><trkpt lat="43.0428083" lon="11.4596932"><ele>507.6666666666667</ele><time>2026-04-03T10:34:14.732Z</time></trkpt><trkpt lat="43.0427661" lon="11.4598211"><ele>508.33333333333337</ele><time>2026-04-03T10:34:15.732Z</time></trkpt><trkpt lat="43.0427417" lon="11.4599352"><ele>509.0</ele><time>2026-04-03T10:34:16.732Z</time></trkpt><trkpt lat="43.0427239" lon="11.4600498"><ele>509.6666666666667</ele><time>2026-04-03T10:34:17.733Z</time></trkpt><trkpt lat="43.0427227" lon="11.4601665"><ele>510.33333333333337</ele><time>2026-04-03T10:34:18.732Z</time></trkpt><trkpt lat="43.0427393" lon="11.4602725"><ele>511.0</ele><time>2026-04-03T10:34:19.732Z</time></trkpt><trkpt lat="43.0427773" lon="11.4603807"><ele>510.75</ele><time>2026-04-03T10:34:20.732Z</time></trkpt><trkpt lat="43.0428413" lon="11.460509"><ele>510.5</ele><time>2026-04-03T10:34:21.733Z</time></trkpt><trkpt lat="43.0429115" lon="11.4606615"><ele>510.25</ele><time>2026-04-03T10:34:22.733Z</time></trkpt><trkpt lat="43.0429833" lon="11.460821"><ele>510.0</ele><time>2026-04-03T10:34:23.732Z</time></trkpt><trkpt lat="43.0430528" lon="11.460966"><ele>510.0</ele><time>2026-04-03T10:34:24.732Z</time></trkpt><trkpt lat="43.0431152" lon="11.4610926"><ele>510.0</ele><time>2026-04-03T10:34:25.733Z</time></trkpt><trkpt lat="43.0431681" lon="11.4612261"><ele>510.0</ele><time>2026-04-03T10:34:26.733Z</time></trkpt><trkpt lat="43.0432257" lon="11.4613719"><ele>510.0</ele><time>2026-04-03T10:34:27.732Z</time></trkpt><trkpt lat="43.0432861" lon="11.4615467"><ele>506.66666666666663</ele><time>2026-04-03T10:34:28.733Z</time></trkpt><trkpt lat="43.0433644" lon="11.4617417"><ele>503.3333333333333</ele><time>2026-04-03T10:34:29.732Z</time></trkpt><trkpt lat="43.0434465" lon="11.4619469"><ele>500.0</ele><time>2026-04-03T10:34:30.733Z</time></trkpt><trkpt lat="43.0435147" lon="11.4621138"><ele>500.2</ele><time>2026-04-03T10:34:31.733Z</time></trkpt><trkpt lat="43.0435698" lon="11.4622492"><ele>500.4</ele><time>2026-04-03T10:34:32.733Z</time></trkpt><trkpt lat="43.0436052" lon="11.4623593"><ele>500.6</ele><time>2026-04-03T10:34:33.733Z</time></trkpt><trkpt lat="43.0436258" lon="11.4624721"><ele>500.8</ele><time>2026-04-03T10:34:34.733Z</time></trkpt><trkpt lat="43.0436314" lon="11.4625838"><ele>501.0</ele><time>2026-04-03T10:34:35.733Z</time></trkpt><trkpt lat="43.0436169" lon="11.4626982"><ele>501.0</ele><time>2026-04-03T10:34:36.733Z</time></trkpt><trkpt lat="43.0435954" lon="11.4628052"><ele>501.0</ele><time>2026-04-03T10:34:37.732Z</time></trkpt><trkpt lat="43.0435586" lon="11.4628987"><ele>501.0</ele><time>2026-04-03T10:34:38.732Z</time></trkpt><trkpt lat="43.0435064" lon="11.4629969"><ele>501.0</ele><time>2026-04-03T10:34:39.733Z</time></trkpt><trkpt lat="43.0434289" lon="11.4631086"><ele>501.0</ele><time>2026-04-03T10:34:40.733Z</time></trkpt><trkpt lat="43.0433458" lon="11.4632333"><ele>500.6</ele><time>2026-04-03T10:34:41.732Z</time></trkpt><trkpt lat="43.0432789" lon="11.4633463"><ele>500.20000000000005</ele><time>2026-04-03T10:34:42.733Z</time></trkpt><trkpt lat="43.0432318" lon="11.4634531"><ele>499.79999999999995</ele><time>2026-04-03T10:34:43.733Z</time></trkpt><trkpt lat="43.0431977" lon="11.463588"><ele>499.4</ele><time>2026-04-03T10:34:44.732Z</time></trkpt><trkpt lat="43.0431672" lon="11.4637516"><ele>499.0</ele><time>2026-04-03T10:34:45.732Z</time></trkpt><trkpt lat="43.0431439" lon="11.4639352"><ele>499.0</ele><time>2026-04-03T10:34:46.733Z</time></trkpt><trkpt lat="43.0431177" lon="11.4641263"><ele>499.0</ele><time>2026-04-03T10:34:47.733Z</time></trkpt><trkpt lat="43.0430919" lon="11.4642981"><ele>499.0</ele><time>2026-04-03T10:34:48.732Z</time></trkpt><trkpt lat="43.0430645" lon="11.4644648"><ele>499.0</ele><time>2026-04-03T10:34:49.732Z</time></trkpt><trkpt lat="43.04303" lon="11.4646346"><ele>500.0</ele><time>2026-04-03T10:34:50.733Z</time></trkpt><trkpt lat="43.0429901" lon="11.4647949"><ele>501.0</ele><time>2026-04-03T10:34:51.732Z</time></trkpt><trkpt lat="43.0429399" lon="11.464958"><ele>502.0</ele><time>2026-04-03T10:34:52.733Z</time></trkpt><trkpt lat="43.042876" lon="11.4651149"><ele>503.0</ele><time>2026-04-03T10:34:53.733Z</time></trkpt><trkpt lat="43.0428127" lon="11.4652575"><ele>503.0</ele><time>2026-04-03T10:34:54.732Z</time></trkpt><trkpt lat="43.0427645" lon="11.4653944"><ele>503.0</ele><time>2026-04-03T10:34:55.732Z</time></trkpt><trkpt lat="43.0427253" lon="11.4655403"><ele>503.0</ele><time>2026-04-03T10:34:56.732Z</time></trkpt><trkpt lat="43.0427017" lon="11.4657008"><ele>503.0</ele><time>2026-04-03T10:34:57.733Z</time></trkpt><trkpt lat="43.042692" lon="11.4658956"><ele>502.66666666666663</ele><time>2026-04-03T10:34:58.733Z</time></trkpt><trkpt lat="43.0426778" lon="11.4661094"><ele>502.33333333333337</ele><time>2026-04-03T10:34:59.733Z</time></trkpt><trkpt lat="43.0426622" lon="11.4663361"><ele>502.0</ele><time>2026-04-03T10:35:00.733Z</time></trkpt><trkpt lat="43.0426513" lon="11.4665542"><ele>501.8</ele><time>2026-04-03T10:35:01.732Z</time></trkpt><trkpt lat="43.0426406" lon="11.4667327"><ele>501.6</ele><time>2026-04-03T10:35:02.733Z</time></trkpt><trkpt lat="43.0426309" lon="11.4668719"><ele>501.40000000000003</ele><time>2026-04-03T10:35:03.733Z</time></trkpt><trkpt lat="43.0426189" lon="11.4669935"><ele>501.20000000000005</ele><time>2026-04-03T10:35:04.732Z</time></trkpt><trkpt lat="43.0425931" lon="11.4671239"><ele>501.0</ele><time>2026-04-03T10:35:05.733Z</time></trkpt><trkpt lat="43.0425504" lon="11.4672726"><ele>500.66666666666663</ele><time>2026-04-03T10:35:06.732Z</time></trkpt><trkpt lat="43.0424882" lon="11.4674412"><ele>500.3333333333333</ele><time>2026-04-03T10:35:07.733Z</time></trkpt><trkpt lat="43.0424172" lon="11.4676259"><ele>500.0</ele><time>2026-04-03T10:35:08.732Z</time></trkpt><trkpt lat="43.0423501" lon="11.4678288"><ele>501.66666666666663</ele><time>2026-04-03T10:35:09.733Z</time></trkpt><trkpt lat="43.0422926" lon="11.4680407"><ele>503.33333333333337</ele><time>2026-04-03T10:35:10.733Z</time></trkpt><trkpt lat="43.0422464" lon="11.4682473"><ele>505.0</ele><time>2026-04-03T10:35:11.732Z</time></trkpt><trkpt lat="43.0422049" lon="11.4684436"><ele>505.0</ele><time>2026-04-03T10:35:12.733Z</time></trkpt><trkpt lat="43.0421658" lon="11.4686238"><ele>505.0</ele><time>2026-04-03T10:35:13.733Z</time></trkpt><trkpt lat="43.0421222" lon="11.4688068"><ele>505.0</ele><time>2026-04-03T10:35:14.733Z</time></trkpt><trkpt lat="43.0420613" lon="11.4689857"><ele>505.0</ele><time>2026-04-03T10:35:15.733Z</time></trkpt><trkpt lat="43.0419799" lon="11.4691312"><ele>505.25</ele><time>2026-04-03T10:35:16.733Z</time></trkpt><trkpt lat="43.0418751" lon="11.4692262"><ele>505.5</ele><time>2026-04-03T10:35:17.733Z</time></trkpt><trkpt lat="43.0417451" lon="11.4693184"><ele>505.75</ele><time>2026-04-03T10:35:18.733Z</time></trkpt><trkpt lat="43.0415944" lon="11.4693907"><ele>506.0</ele><time>2026-04-03T10:35:19.733Z</time></trkpt><trkpt lat="43.0414359" lon="11.4694677"><ele>508.0</ele><time>2026-04-03T10:35:20.732Z</time></trkpt><trkpt lat="43.0412817" lon="11.4695689"><ele>510.0</ele><time>2026-04-03T10:35:21.733Z</time></trkpt><trkpt lat="43.0411234" lon="11.4696987"><ele>512.0</ele><time>2026-04-03T10:35:22.733Z</time></trkpt><trkpt lat="43.0409769" lon="11.4698427"><ele>513.3333333333333</ele><time>2026-04-03T10:35:23.733Z</time></trkpt><trkpt lat="43.040842" lon="11.4699977"><ele>514.6666666666666</ele><time>2026-04-03T10:35:24.733Z</time></trkpt><trkpt lat="43.0407075" lon="11.4701696"><ele>516.0</ele><time>2026-04-03T10:35:25.733Z</time></trkpt><trkpt lat="43.0405785" lon="11.4703586"><ele>519.0</ele><time>2026-04-03T10:35:26.733Z</time></trkpt><trkpt lat="43.0404615" lon="11.4705186"><ele>522.0</ele><time>2026-04-03T10:35:27.733Z</time></trkpt><trkpt lat="43.0403552" lon="11.4706369"><ele>525.0</ele><time>2026-04-03T10:35:28.733Z</time></trkpt><trkpt lat="43.0402364" lon="11.4707016"><ele>528.0</ele><time>2026-04-03T10:35:29.733Z</time></trkpt><trkpt lat="43.0400941" lon="11.4707456"><ele>529.3333333333334</ele><time>2026-04-03T10:35:30.733Z</time></trkpt><trkpt lat="43.0399334" lon="11.4708173"><ele>530.6666666666667</ele><time>2026-04-03T10:35:31.733Z</time></trkpt><trkpt lat="43.0397603" lon="11.4709181"><ele>532.0</ele><time>2026-04-03T10:35:32.733Z</time></trkpt><trkpt lat="43.0395675" lon="11.471031"><ele>532.0</ele><time>2026-04-03T10:35:33.733Z</time></trkpt><trkpt lat="43.0393747" lon="11.4711385"><ele>532.0</ele><time>2026-04-03T10:35:34.733Z</time></trkpt><trkpt lat="43.0392046" lon="11.4712446"><ele>532.0</ele><time>2026-04-03T10:35:35.733Z</time></trkpt><trkpt lat="43.0390603" lon="11.4713777"><ele>532.3333333333334</ele><time>2026-04-03T10:35:36.733Z</time></trkpt><trkpt lat="43.0389305" lon="11.4715489"><ele>532.6666666666666</ele><time>2026-04-03T10:35:37.732Z</time></trkpt><trkpt lat="43.0388201" lon="11.4717376"><ele>533.0</ele><time>2026-04-03T10:35:38.732Z</time></trkpt><trkpt lat="43.038737" lon="11.4719369"><ele>538.0</ele><time>2026-04-03T10:35:39.732Z</time></trkpt><trkpt lat="43.0386872" lon="11.4721717"><ele>543.0</ele><time>2026-04-03T10:35:40.733Z</time></trkpt><trkpt lat="43.0386803" lon="11.472414"><ele>548.0</ele><time>2026-04-03T10:35:41.733Z</time></trkpt><trkpt lat="43.0387049" lon="11.4726762"><ele>548.0</ele><time>2026-04-03T10:35:42.733Z</time></trkpt><trkpt lat="43.0387417" lon="11.4729295"><ele>548.0</ele><time>2026-04-03T10:35:43.733Z</time></trkpt><trkpt lat="43.0387568" lon="11.4731575"><ele>548.0</ele><time>2026-04-03T10:35:44.733Z</time></trkpt><trkpt lat="43.0387405" lon="11.4733554"><ele>551.0</ele><time>2026-04-03T10:35:45.733Z</time></trkpt><trkpt lat="43.0386899" lon="11.473531"><ele>554.0</ele><time>2026-04-03T10:35:46.733Z</time></trkpt><trkpt lat="43.0386058" lon="11.4736873"><ele>557.0</ele><time>2026-04-03T10:35:47.733Z</time></trkpt><trkpt lat="43.0384768" lon="11.4738222"><ele>560.0</ele><time>2026-04-03T10:35:48.733Z</time></trkpt><trkpt lat="43.0383137" lon="11.4739324"><ele>563.0</ele><time>2026-04-03T10:35:49.732Z</time></trkpt><trkpt lat="43.0381317" lon="11.4740209"><ele>566.0</ele><time>2026-04-03T10:35:50.733Z</time></trkpt><trkpt lat="43.0379584" lon="11.4741126"><ele>569.0</ele><time>2026-04-03T10:35:51.732Z</time></trkpt><trkpt lat="43.0378269" lon="11.4742059"><ele>569.0</ele><time>2026-04-03T10:35:52.733Z</time></trkpt><trkpt lat="43.0377483" lon="11.4743493"><ele>569.0</ele><time>2026-04-03T10:35:53.732Z</time></trkpt><trkpt lat="43.0376939" lon="11.474528"><ele>569.0</ele><time>2026-04-03T10:35:54.732Z</time></trkpt><trkpt lat="43.0376907" lon="11.4747587"><ele>569.0</ele><time>2026-04-03T10:35:55.733Z</time></trkpt><trkpt lat="43.0377066" lon="11.4750181"><ele>573.0</ele><time>2026-04-03T10:35:56.733Z</time></trkpt><trkpt lat="43.037719" lon="11.475304"><ele>577.0</ele><time>2026-04-03T10:35:57.732Z</time></trkpt><trkpt lat="43.0377263" lon="11.4756217"><ele>581.0</ele><time>2026-04-03T10:35:58.733Z</time></trkpt><trkpt lat="43.0377474" lon="11.4759713"><ele>586.5</ele><time>2026-04-03T10:35:59.733Z</time></trkpt><trkpt lat="43.0377607" lon="11.4763501"><ele>592.0</ele><time>2026-04-03T10:36:00.732Z</time></trkpt><trkpt lat="43.0377708" lon="11.476701"><ele>592.0</ele><time>2026-04-03T10:36:01.732Z</time></trkpt><trkpt lat="43.0377805" lon="11.4769964"><ele>592.0</ele><time>2026-04-03T10:36:02.733Z</time></trkpt><trkpt lat="43.0377757" lon="11.4772751"><ele>592.0</ele><time>2026-04-03T10:36:03.733Z</time></trkpt><trkpt lat="43.0377597" lon="11.4775463"><ele>594.0</ele><time>2026-04-03T10:36:04.732Z</time></trkpt><trkpt lat="43.0377251" lon="11.4778192"><ele>596.0</ele><time>2026-04-03T10:36:05.733Z</time></trkpt><trkpt lat="43.0376806" lon="11.4780806"><ele>598.0</ele><time>2026-04-03T10:36:06.733Z</time></trkpt><trkpt lat="43.0376261" lon="11.4783142"><ele>598.0</ele><time>2026-04-03T10:36:07.732Z</time></trkpt><trkpt lat="43.0375636" lon="11.4785142"><ele>598.0</ele><time>2026-04-03T10:36:08.733Z</time></trkpt><trkpt lat="43.0374644" lon="11.47871"><ele>598.0</ele><time>2026-04-03T10:36:09.732Z</time></trkpt><trkpt lat="43.0373375" lon="11.4789094"><ele>598.3333333333334</ele><time>2026-04-03T10:36:10.732Z</time></trkpt><trkpt lat="43.037198" lon="11.4791217"><ele>598.6666666666666</ele><time>2026-04-03T10:36:11.732Z</time></trkpt><trkpt lat="43.0370692" lon="11.4793167"><ele>599.0</ele><time>2026-04-03T10:36:12.733Z</time></trkpt><trkpt lat="43.0369718" lon="11.4794764"><ele>599.0</ele><time>2026-04-03T10:36:13.733Z</time></trkpt><trkpt lat="43.0369014" lon="11.4795976"><ele>599.0</ele><time>2026-04-03T10:36:14.733Z</time></trkpt><trkpt lat="43.0368568" lon="11.4796799"><ele>599.0</ele><time>2026-04-03T10:36:15.733Z</time></trkpt><trkpt lat="43.0368403" lon="11.4797774"><ele>599.0</ele><time>2026-04-03T10:36:17.733Z</time></trkpt><trkpt lat="43.0369346" lon="11.4799104"><ele>599.0</ele><time>2026-04-03T10:36:19.733Z</time></trkpt><trkpt lat="43.0370313" lon="11.4799782"><ele>599.6666666666666</ele><time>2026-04-03T10:36:20.733Z</time></trkpt><trkpt lat="43.0371407" lon="11.480048"><ele>600.3333333333334</ele><time>2026-04-03T10:36:21.732Z</time></trkpt><trkpt lat="43.0372766" lon="11.4801548"><ele>601.0</ele><time>2026-04-03T10:36:22.733Z</time></trkpt><trkpt lat="43.0374431" lon="11.4802964"><ele>596.5</ele><time>2026-04-03T10:36:23.733Z</time></trkpt><trkpt lat="43.0376347" lon="11.4804706"><ele>592.0</ele><time>2026-04-03T10:36:24.732Z</time></trkpt><trkpt lat="43.0378354" lon="11.4806564"><ele>592.0</ele><time>2026-04-03T10:36:25.733Z</time></trkpt><trkpt lat="43.038043" lon="11.48084"><ele>592.0</ele><time>2026-04-03T10:36:26.733Z</time></trkpt><trkpt lat="43.038249" lon="11.4810132"><ele>591.0</ele><time>2026-04-03T10:36:27.733Z</time></trkpt><trkpt lat="43.0384478" lon="11.4811835"><ele>590.0</ele><time>2026-04-03T10:36:28.733Z</time></trkpt><trkpt lat="43.0386463" lon="11.4813543"><ele>589.5</ele><time>2026-04-03T10:36:29.733Z</time></trkpt><trkpt lat="43.0388516" lon="11.4815346"><ele>589.0</ele><time>2026-04-03T10:36:30.732Z</time></trkpt><trkpt lat="43.0390602" lon="11.4817186"><ele>592.5</ele><time>2026-04-03T10:36:31.733Z</time></trkpt><trkpt lat="43.0392705" lon="11.4819076"><ele>596.0</ele><time>2026-04-03T10:36:32.733Z</time></trkpt><trkpt lat="43.0394795" lon="11.4820874"><ele>600.5</ele><time>2026-04-03T10:36:33.733Z</time></trkpt><trkpt lat="43.0396806" lon="11.4822604"><ele>605.0</ele><time>2026-04-03T10:36:34.732Z</time></trkpt><trkpt lat="43.039864" lon="11.4824181"><ele>606.6666666666666</ele><time>2026-04-03T10:36:35.733Z</time></trkpt><trkpt lat="43.0400368" lon="11.482561"><ele>608.3333333333334</ele><time>2026-04-03T10:36:36.733Z</time></trkpt><trkpt lat="43.0402073" lon="11.4826813"><ele>610.0</ele><time>2026-04-03T10:36:37.733Z</time></trkpt><trkpt lat="43.0403784" lon="11.4827813"><ele>610.0</ele><time>2026-04-03T10:36:38.733Z</time></trkpt><trkpt lat="43.0405557" lon="11.4828587"><ele>610.0</ele><time>2026-04-03T10:36:39.733Z</time></trkpt><trkpt lat="43.040751" lon="11.4829229"><ele>610.0</ele><time>2026-04-03T10:36:40.732Z</time></trkpt><trkpt lat="43.0409686" lon="11.4829824"><ele>614.0</ele><time>2026-04-03T10:36:41.733Z</time></trkpt><trkpt lat="43.0412071" lon="11.4830545"><ele>618.0</ele><time>2026-04-03T10:36:42.732Z</time></trkpt><trkpt lat="43.0414543" lon="11.4831383"><ele>615.0</ele><time>2026-04-03T10:36:43.733Z</time></trkpt><trkpt lat="43.0417081" lon="11.4832264"><ele>612.0</ele><time>2026-04-03T10:36:44.733Z</time></trkpt><trkpt lat="43.0419616" lon="11.483308"><ele>612.0</ele><time>2026-04-03T10:36:45.732Z</time></trkpt><trkpt lat="43.0422227" lon="11.4833878"><ele>612.0</ele><time>2026-04-03T10:36:46.733Z</time></trkpt><trkpt lat="43.0424884" lon="11.4834634"><ele>612.5</ele><time>2026-04-03T10:36:47.732Z</time></trkpt><trkpt lat="43.0427474" lon="11.4835371"><ele>613.0</ele><time>2026-04-03T10:36:48.732Z</time></trkpt><trkpt lat="43.0429826" lon="11.483603"><ele>613.0</ele><time>2026-04-03T10:36:49.733Z</time></trkpt><trkpt lat="43.0432045" lon="11.4836686"><ele>613.0</ele><time>2026-04-03T10:36:50.732Z</time></trkpt><trkpt lat="43.0434287" lon="11.4837518"><ele>612.0</ele><time>2026-04-03T10:36:51.733Z</time></trkpt><trkpt lat="43.0436493" lon="11.4838594"><ele>611.0</ele><time>2026-04-03T10:36:52.733Z</time></trkpt><trkpt lat="43.0438581" lon="11.4840226"><ele>611.0</ele><time>2026-04-03T10:36:53.733Z</time></trkpt><trkpt lat="43.0440629" lon="11.484219"><ele>611.0</ele><time>2026-04-03T10:36:54.733Z</time></trkpt><trkpt lat="43.044238" lon="11.4844082"><ele>611.0</ele><time>2026-04-03T10:36:55.732Z</time></trkpt><trkpt lat="43.0443767" lon="11.4845866"><ele>611.0</ele><time>2026-04-03T10:36:56.733Z</time></trkpt><trkpt lat="43.0444913" lon="11.4847961"><ele>611.0</ele><time>2026-04-03T10:36:57.733Z</time></trkpt><trkpt lat="43.0445797" lon="11.4850468"><ele>611.5</ele><time>2026-04-03T10:36:58.733Z</time></trkpt><trkpt lat="43.0446655" lon="11.4853427"><ele>612.0</ele><time>2026-04-03T10:36:59.733Z</time></trkpt><trkpt lat="43.0447589" lon="11.4856611"><ele>613.0</ele><time>2026-04-03T10:37:00.733Z</time></trkpt><trkpt lat="43.0448527" lon="11.4859784"><ele>614.0</ele><time>2026-04-03T10:37:01.733Z</time></trkpt><trkpt lat="43.0449279" lon="11.4862444"><ele>614.3333333333333</ele><time>2026-04-03T10:37:02.733Z</time></trkpt><trkpt lat="43.0449947" lon="11.4864872"><ele>614.6666666666666</ele><time>2026-04-03T10:37:03.732Z</time></trkpt><trkpt lat="43.0450559" lon="11.4866847"><ele>615.0</ele><time>2026-04-03T10:37:04.733Z</time></trkpt><trkpt lat="43.0451276" lon="11.486848"><ele>615.0</ele><time>2026-04-03T10:37:05.733Z</time></trkpt><trkpt lat="43.0452332" lon="11.4869586"><ele>615.0</ele><time>2026-04-03T10:37:06.733Z</time></trkpt><trkpt lat="43.0453647" lon="11.487032"><ele>615.0</ele><time>2026-04-03T10:37:07.733Z</time></trkpt><trkpt lat="43.045524" lon="11.4870639"><ele>615.0</ele><time>2026-04-03T10:37:08.733Z</time></trkpt><trkpt lat="43.0457033" lon="11.4870726"><ele>614.3333333333334</ele><time>2026-04-03T10:37:09.732Z</time></trkpt><trkpt lat="43.045851" lon="11.4871205"><ele>613.6666666666667</ele><time>2026-04-03T10:37:10.733Z</time></trkpt><trkpt lat="43.04599" lon="11.4872423"><ele>613.0</ele><time>2026-04-03T10:37:11.733Z</time></trkpt><trkpt lat="43.0461031" lon="11.487438"><ele>613.0</ele><time>2026-04-03T10:37:12.732Z</time></trkpt><trkpt lat="43.0461951" lon="11.4876828"><ele>613.0</ele><time>2026-04-03T10:37:13.733Z</time></trkpt><trkpt lat="43.0462703" lon="11.4879563"><ele>613.0</ele><time>2026-04-03T10:37:14.732Z</time></trkpt><trkpt lat="43.0463219" lon="11.4882561"><ele>609.3333333333334</ele><time>2026-04-03T10:37:15.733Z</time></trkpt><trkpt lat="43.0463725" lon="11.4885369"><ele>605.6666666666666</ele><time>2026-04-03T10:37:16.733Z</time></trkpt><trkpt lat="43.0464299" lon="11.4887745"><ele>602.0</ele><time>2026-04-03T10:37:17.733Z</time></trkpt><trkpt lat="43.0464872" lon="11.4889961"><ele>599.3333333333333</ele><time>2026-04-03T10:37:18.733Z</time></trkpt><trkpt lat="43.0465675" lon="11.4891838"><ele>596.6666666666666</ele><time>2026-04-03T10:37:19.732Z</time></trkpt><trkpt lat="43.0466665" lon="11.4893436"><ele>594.0</ele><time>2026-04-03T10:37:20.733Z</time></trkpt><trkpt lat="43.046788" lon="11.4894592"><ele>601.0</ele><time>2026-04-03T10:37:21.733Z</time></trkpt><trkpt lat="43.0469419" lon="11.4895152"><ele>608.0</ele><time>2026-04-03T10:37:22.732Z</time></trkpt><trkpt lat="43.0471174" lon="11.4895405"><ele>615.0</ele><time>2026-04-03T10:37:23.733Z</time></trkpt><trkpt lat="43.0472931" lon="11.4895534"><ele>611.0</ele><time>2026-04-03T10:37:24.733Z</time></trkpt><trkpt lat="43.0474568" lon="11.4896674"><ele>607.0</ele><time>2026-04-03T10:37:25.732Z</time></trkpt><trkpt lat="43.0476083" lon="11.4898049"><ele>603.0</ele><time>2026-04-03T10:37:26.732Z</time></trkpt><trkpt lat="43.047754" lon="11.4899332"><ele>603.0</ele><time>2026-04-03T10:37:27.733Z</time></trkpt><trkpt lat="43.0478957" lon="11.4900078"><ele>603.0</ele><time>2026-04-03T10:37:28.733Z</time></trkpt><trkpt lat="43.0480495" lon="11.4900305"><ele>603.0</ele><time>2026-04-03T10:37:29.732Z</time></trkpt><trkpt lat="43.0482078" lon="11.4899989"><ele>603.0</ele><time>2026-04-03T10:37:30.733Z</time></trkpt><trkpt lat="43.0483747" lon="11.489958"><ele>603.0</ele><time>2026-04-03T10:37:31.733Z</time></trkpt><trkpt lat="43.0485255" lon="11.4899385"><ele>603.0</ele><time>2026-04-03T10:37:32.732Z</time></trkpt><trkpt lat="43.0486551" lon="11.4899652"><ele>603.0</ele><time>2026-04-03T10:37:33.732Z</time></trkpt><trkpt lat="43.0487796" lon="11.4900441"><ele>603.0</ele><time>2026-04-03T10:37:34.732Z</time></trkpt><trkpt lat="43.0488843" lon="11.4901912"><ele>603.0</ele><time>2026-04-03T10:37:35.731Z</time></trkpt><trkpt lat="43.048948" lon="11.4903918"><ele>603.0</ele><time>2026-04-03T10:37:36.732Z</time></trkpt><trkpt lat="43.0489966" lon="11.4906129"><ele>601.0</ele><time>2026-04-03T10:37:37.731Z</time></trkpt><trkpt lat="43.0490661" lon="11.4907825"><ele>599.0</ele><time>2026-04-03T10:37:38.731Z</time></trkpt><trkpt lat="43.049127" lon="11.4909277"><ele>597.0</ele><time>2026-04-03T10:37:39.732Z</time></trkpt><trkpt lat="43.0492176" lon="11.4910236"><ele>595.0</ele><time>2026-04-03T10:37:40.731Z</time></trkpt><trkpt lat="43.0493358" lon="11.4910653"><ele>595.0</ele><time>2026-04-03T10:37:41.731Z</time></trkpt><trkpt lat="43.0494807" lon="11.4910419"><ele>595.0</ele><time>2026-04-03T10:37:42.732Z</time></trkpt><trkpt lat="43.0496612" lon="11.4909966"><ele>595.0</ele><time>2026-04-03T10:37:43.731Z</time></trkpt><trkpt lat="43.0498425" lon="11.4910025"><ele>595.5</ele><time>2026-04-03T10:37:44.731Z</time></trkpt><trkpt lat="43.0499959" lon="11.4910172"><ele>596.0</ele><time>2026-04-03T10:37:45.731Z</time></trkpt><trkpt lat="43.0501261" lon="11.4909717"><ele>596.5</ele><time>2026-04-03T10:37:46.732Z</time></trkpt><trkpt lat="43.0502433" lon="11.490881"><ele>597.0</ele><time>2026-04-03T10:37:47.732Z</time></trkpt><trkpt lat="43.0503289" lon="11.4906993"><ele>597.0</ele><time>2026-04-03T10:37:48.731Z</time></trkpt><trkpt lat="43.0504172" lon="11.4904768"><ele>597.0</ele><time>2026-04-03T10:37:49.732Z</time></trkpt><trkpt lat="43.0505203" lon="11.4902668"><ele>597.0</ele><time>2026-04-03T10:37:50.732Z</time></trkpt><trkpt lat="43.0506119" lon="11.4900844"><ele>598.25</ele><time>2026-04-03T10:37:51.732Z</time></trkpt><trkpt lat="43.0506989" lon="11.4899064"><ele>599.5</ele><time>2026-04-03T10:37:52.732Z</time></trkpt><trkpt lat="43.0507771" lon="11.4897433"><ele>600.75</ele><time>2026-04-03T10:37:53.732Z</time></trkpt><trkpt lat="43.0508653" lon="11.4896213"><ele>602.0</ele><time>2026-04-03T10:37:54.732Z</time></trkpt><trkpt lat="43.0509724" lon="11.4895404"><ele>602.0</ele><time>2026-04-03T10:37:55.732Z</time></trkpt><trkpt lat="43.0510982" lon="11.4895318"><ele>602.0</ele><time>2026-04-03T10:37:56.732Z</time></trkpt><trkpt lat="43.0512143" lon="11.4896189"><ele>602.0</ele><time>2026-04-03T10:37:57.732Z</time></trkpt><trkpt lat="43.0513209" lon="11.4897707"><ele>602.0</ele><time>2026-04-03T10:37:58.732Z</time></trkpt><trkpt lat="43.051409" lon="11.4899627"><ele>597.6666666666666</ele><time>2026-04-03T10:37:59.732Z</time></trkpt><trkpt lat="43.0514989" lon="11.490183"><ele>593.3333333333334</ele><time>2026-04-03T10:38:00.732Z</time></trkpt><trkpt lat="43.0515951" lon="11.4903892"><ele>589.0</ele><time>2026-04-03T10:38:01.732Z</time></trkpt><trkpt lat="43.051708" lon="11.4905708"><ele>583.6666666666667</ele><time>2026-04-03T10:38:02.731Z</time></trkpt><trkpt lat="43.0518352" lon="11.4907226"><ele>578.3333333333334</ele><time>2026-04-03T10:38:03.732Z</time></trkpt><trkpt lat="43.0519622" lon="11.4908489"><ele>573.0</ele><time>2026-04-03T10:38:04.732Z</time></trkpt><trkpt lat="43.0520889" lon="11.4909407"><ele>573.0</ele><time>2026-04-03T10:38:05.731Z</time></trkpt><trkpt lat="43.0522368" lon="11.4909914"><ele>573.0</ele><time>2026-04-03T10:38:06.732Z</time></trkpt><trkpt lat="43.0523868" lon="11.4909691"><ele>573.0</ele><time>2026-04-03T10:38:07.731Z</time></trkpt><trkpt lat="43.0525556" lon="11.4909039"><ele>574.3333333333334</ele><time>2026-04-03T10:38:08.732Z</time></trkpt><trkpt lat="43.0527321" lon="11.490805"><ele>575.6666666666667</ele><time>2026-04-03T10:38:09.732Z</time></trkpt><trkpt lat="43.0528751" lon="11.4907032"><ele>577.0</ele><time>2026-04-03T10:38:10.731Z</time></trkpt><trkpt lat="43.0529932" lon="11.4905965"><ele>581.6666666666667</ele><time>2026-04-03T10:38:11.732Z</time></trkpt><trkpt lat="43.0530914" lon="11.4904244"><ele>586.3333333333334</ele><time>2026-04-03T10:38:12.731Z</time></trkpt><trkpt lat="43.0531564" lon="11.4902127"><ele>591.0</ele><time>2026-04-03T10:38:13.731Z</time></trkpt><trkpt lat="43.0532139" lon="11.4899282"><ele>591.0</ele><time>2026-04-03T10:38:14.732Z</time></trkpt><trkpt lat="43.0532649" lon="11.4896533"><ele>591.0</ele><time>2026-04-03T10:38:15.732Z</time></trkpt><trkpt lat="43.0533141" lon="11.4894047"><ele>591.0</ele><time>2026-04-03T10:38:16.732Z</time></trkpt><trkpt lat="43.0533783" lon="11.4892024"><ele>583.6666666666666</ele><time>2026-04-03T10:38:17.732Z</time></trkpt><trkpt lat="43.0534695" lon="11.4890614"><ele>576.3333333333333</ele><time>2026-04-03T10:38:18.731Z</time></trkpt><trkpt lat="43.0535934" lon="11.4889555"><ele>569.0</ele><time>2026-04-03T10:38:19.732Z</time></trkpt><trkpt lat="43.053751" lon="11.4888806"><ele>569.0</ele><time>2026-04-03T10:38:20.731Z</time></trkpt><trkpt lat="43.0539255" lon="11.4888225"><ele>569.0</ele><time>2026-04-03T10:38:21.732Z</time></trkpt><trkpt lat="43.0540911" lon="11.4887628"><ele>569.0</ele><time>2026-04-03T10:38:22.732Z</time></trkpt><trkpt lat="43.0542322" lon="11.4887346"><ele>568.0</ele><time>2026-04-03T10:38:23.732Z</time></trkpt><trkpt lat="43.0543625" lon="11.4887114"><ele>567.0</ele><time>2026-04-03T10:38:24.732Z</time></trkpt><trkpt lat="43.0544891" lon="11.4887271"><ele>566.0</ele><time>2026-04-03T10:38:25.732Z</time></trkpt><trkpt lat="43.0546093" lon="11.4887581"><ele>565.0</ele><time>2026-04-03T10:38:26.731Z</time></trkpt><trkpt lat="43.0547206" lon="11.488807"><ele>563.3333333333334</ele><time>2026-04-03T10:38:27.731Z</time></trkpt><trkpt lat="43.054814" lon="11.488863"><ele>561.6666666666667</ele><time>2026-04-03T10:38:28.732Z</time></trkpt><trkpt lat="43.0548942" lon="11.4889205"><ele>560.0</ele><time>2026-04-03T10:38:29.731Z</time></trkpt><trkpt lat="43.0549785" lon="11.4889846"><ele>558.3333333333334</ele><time>2026-04-03T10:38:31.732Z</time></trkpt><trkpt lat="43.055026" lon="11.4890593"><ele>556.6666666666666</ele><time>2026-04-03T10:38:34.731Z</time></trkpt><trkpt lat="43.0550495" lon="11.4891581"><ele>555.0</ele><time>2026-04-03T10:38:36.731Z</time></trkpt><trkpt lat="43.0549836" lon="11.4892292"><ele>555.0</ele><time>2026-04-03T10:38:38.732Z</time></trkpt><trkpt lat="43.054906" lon="11.4892369"><ele>555.0</ele><time>2026-04-03T10:38:39.732Z</time></trkpt><trkpt lat="43.0548066" lon="11.4892294"><ele>555.0</ele><time>2026-04-03T10:38:40.732Z</time></trkpt><trkpt lat="43.0546917" lon="11.4892343"><ele>555.0</ele><time>2026-04-03T10:38:41.732Z</time></trkpt><trkpt lat="43.0545694" lon="11.489249"><ele>555.0</ele><time>2026-04-03T10:38:42.732Z</time></trkpt><trkpt lat="43.054446" lon="11.4892701"><ele>555.0</ele><time>2026-04-03T10:38:43.732Z</time></trkpt><trkpt lat="43.0543293" lon="11.4893042"><ele>555.0</ele><time>2026-04-03T10:38:44.732Z</time></trkpt><trkpt lat="43.0542342" lon="11.4893717"><ele>555.0</ele><time>2026-04-03T10:38:45.732Z</time></trkpt><trkpt lat="43.0541633" lon="11.4894794"><ele>555.0</ele><time>2026-04-03T10:38:46.732Z</time></trkpt><trkpt lat="43.0541217" lon="11.4896125"><ele>555.0</ele><time>2026-04-03T10:38:47.732Z</time></trkpt><trkpt lat="43.0541329" lon="11.4897584"><ele>552.75</ele><time>2026-04-03T10:38:48.731Z</time></trkpt><trkpt lat="43.0541851" lon="11.4899145"><ele>550.5</ele><time>2026-04-03T10:38:49.732Z</time></trkpt><trkpt lat="43.0542711" lon="11.4900529"><ele>548.25</ele><time>2026-04-03T10:38:50.731Z</time></trkpt><trkpt lat="43.0543941" lon="11.4901689"><ele>546.0</ele><time>2026-04-03T10:38:51.732Z</time></trkpt><trkpt lat="43.0545252" lon="11.4902967"><ele>543.3333333333334</ele><time>2026-04-03T10:38:52.732Z</time></trkpt><trkpt lat="43.054649" lon="11.4904444"><ele>540.6666666666667</ele><time>2026-04-03T10:38:53.731Z</time></trkpt><trkpt lat="43.0547591" lon="11.4905899"><ele>538.0</ele><time>2026-04-03T10:38:54.732Z</time></trkpt><trkpt lat="43.0548572" lon="11.4907274"><ele>538.0</ele><time>2026-04-03T10:38:55.732Z</time></trkpt><trkpt lat="43.0549443" lon="11.4908735"><ele>538.0</ele><time>2026-04-03T10:38:56.731Z</time></trkpt><trkpt lat="43.055024" lon="11.4910234"><ele>538.0</ele><time>2026-04-03T10:38:57.731Z</time></trkpt><trkpt lat="43.0550898" lon="11.4911641"><ele>538.0</ele><time>2026-04-03T10:38:58.732Z</time></trkpt><trkpt lat="43.0551459" lon="11.4912933"><ele>534.5</ele><time>2026-04-03T10:38:59.732Z</time></trkpt><trkpt lat="43.0552079" lon="11.4914176"><ele>531.0</ele><time>2026-04-03T10:39:00.731Z</time></trkpt><trkpt lat="43.0552647" lon="11.4915249"><ele>527.5</ele><time>2026-04-03T10:39:01.732Z</time></trkpt><trkpt lat="43.0553045" lon="11.4915991"><ele>524.0</ele><time>2026-04-03T10:39:02.732Z</time></trkpt><trkpt lat="43.0553335" lon="11.4916901"><ele>520.5</ele><time>2026-04-03T10:39:04.732Z</time></trkpt><trkpt lat="43.0553687" lon="11.4917628"><ele>517.0</ele><time>2026-04-03T10:39:07.731Z</time></trkpt><trkpt lat="43.055422" lon="11.4918141"><ele>517.0</ele><time>2026-04-03T10:39:11.732Z</time></trkpt><trkpt lat="43.0554089" lon="11.4919078"><ele>517.0</ele><time>2026-04-03T10:39:14.732Z</time></trkpt><trkpt lat="43.0553439" lon="11.4918708"><ele>517.0</ele><time>2026-04-03T10:39:16.732Z</time></trkpt><trkpt lat="43.0552857" lon="11.491798"><ele>517.0</ele><time>2026-04-03T10:39:17.732Z</time></trkpt><trkpt lat="43.055227" lon="11.4917014"><ele>517.0</ele><time>2026-04-03T10:39:18.731Z</time></trkpt><trkpt lat="43.0551552" lon="11.4915992"><ele>517.0</ele><time>2026-04-03T10:39:19.732Z</time></trkpt><trkpt lat="43.0550813" lon="11.4915011"><ele>517.0</ele><time>2026-04-03T10:39:20.732Z</time></trkpt><trkpt lat="43.0550051" lon="11.4913986"><ele>517.0</ele><time>2026-04-03T10:39:21.732Z</time></trkpt><trkpt lat="43.0549287" lon="11.4912824"><ele>517.0</ele><time>2026-04-03T10:39:22.732Z</time></trkpt><trkpt lat="43.0548577" lon="11.4911669"><ele>517.0</ele><time>2026-04-03T10:39:23.732Z</time></trkpt><trkpt lat="43.0547925" lon="11.4910586"><ele>517.0</ele><time>2026-04-03T10:39:24.732Z</time></trkpt><trkpt lat="43.0547209" lon="11.4909869"><ele>520.8000000000001</ele><time>2026-04-03T10:39:25.732Z</time></trkpt><trkpt lat="43.0546412" lon="11.4909599"><ele>524.6</ele><time>2026-04-03T10:39:26.732Z</time></trkpt><trkpt lat="43.0545478" lon="11.4909817"><ele>528.4000000000001</ele><time>2026-04-03T10:39:27.731Z</time></trkpt><trkpt lat="43.0544503" lon="11.491051"><ele>532.2</ele><time>2026-04-03T10:39:28.732Z</time></trkpt><trkpt lat="43.0543782" lon="11.491161"><ele>536.0</ele><time>2026-04-03T10:39:29.732Z</time></trkpt><trkpt lat="43.0543439" lon="11.4912872"><ele>536.0</ele><time>2026-04-03T10:39:30.732Z</time></trkpt><trkpt lat="43.0543537" lon="11.4914618"><ele>536.0</ele><time>2026-04-03T10:39:31.731Z</time></trkpt><trkpt lat="43.0543855" lon="11.491686"><ele>536.0</ele><time>2026-04-03T10:39:32.732Z</time></trkpt><trkpt lat="43.0544192" lon="11.4919159"><ele>532.0</ele><time>2026-04-03T10:39:33.731Z</time></trkpt><trkpt lat="43.0544383" lon="11.4921469"><ele>528.0</ele><time>2026-04-03T10:39:34.731Z</time></trkpt><trkpt lat="43.0544423" lon="11.492381"><ele>524.0</ele><time>2026-04-03T10:39:35.732Z</time></trkpt><trkpt lat="43.0544311" lon="11.4926019"><ele>524.0</ele><time>2026-04-03T10:39:36.732Z</time></trkpt><trkpt lat="43.0544006" lon="11.4927954"><ele>524.0</ele><time>2026-04-03T10:39:37.731Z</time></trkpt><trkpt lat="43.054346" lon="11.4929788"><ele>524.0</ele><time>2026-04-03T10:39:38.731Z</time></trkpt><trkpt lat="43.0542701" lon="11.4931519"><ele>524.0</ele><time>2026-04-03T10:39:39.732Z</time></trkpt><trkpt lat="43.054179" lon="11.4932903"><ele>520.6666666666666</ele><time>2026-04-03T10:39:40.731Z</time></trkpt><trkpt lat="43.0540697" lon="11.4934198"><ele>517.3333333333334</ele><time>2026-04-03T10:39:41.732Z</time></trkpt><trkpt lat="43.0539415" lon="11.4935485"><ele>514.0</ele><time>2026-04-03T10:39:42.732Z</time></trkpt><trkpt lat="43.053806" lon="11.4936876"><ele>512.0</ele><time>2026-04-03T10:39:43.732Z</time></trkpt><trkpt lat="43.0537055" lon="11.4938576"><ele>510.0</ele><time>2026-04-03T10:39:44.732Z</time></trkpt><trkpt lat="43.0536178" lon="11.4940291"><ele>508.0</ele><time>2026-04-03T10:39:45.732Z</time></trkpt><trkpt lat="43.0535516" lon="11.4942292"><ele>508.0</ele><time>2026-04-03T10:39:46.732Z</time></trkpt><trkpt lat="43.0535201" lon="11.4944536"><ele>508.0</ele><time>2026-04-03T10:39:47.732Z</time></trkpt><trkpt lat="43.053513" lon="11.4947031"><ele>508.0</ele><time>2026-04-03T10:39:48.732Z</time></trkpt><trkpt lat="43.0535262" lon="11.4949658"><ele>507.0</ele><time>2026-04-03T10:39:49.731Z</time></trkpt><trkpt lat="43.0535464" lon="11.4952439"><ele>506.0</ele><time>2026-04-03T10:39:50.732Z</time></trkpt><trkpt lat="43.0535616" lon="11.4955303"><ele>505.0</ele><time>2026-04-03T10:39:51.732Z</time></trkpt><trkpt lat="43.0535601" lon="11.495826"><ele>504.6666666666667</ele><time>2026-04-03T10:39:52.732Z</time></trkpt><trkpt lat="43.0535433" lon="11.4961187"><ele>504.33333333333337</ele><time>2026-04-03T10:39:53.732Z</time></trkpt><trkpt lat="43.0535089" lon="11.4963988"><ele>504.0</ele><time>2026-04-03T10:39:54.731Z</time></trkpt><trkpt lat="43.0534719" lon="11.4966731"><ele>502.33333333333337</ele><time>2026-04-03T10:39:55.732Z</time></trkpt><trkpt lat="43.0534236" lon="11.4969528"><ele>500.6666666666667</ele><time>2026-04-03T10:39:56.732Z</time></trkpt><trkpt lat="43.0533622" lon="11.4972041"><ele>499.0</ele><time>2026-04-03T10:39:57.731Z</time></trkpt><trkpt lat="43.0532812" lon="11.4974367"><ele>499.33333333333337</ele><time>2026-04-03T10:39:58.731Z</time></trkpt><trkpt lat="43.0531921" lon="11.4976671"><ele>499.66666666666663</ele><time>2026-04-03T10:39:59.731Z</time></trkpt><trkpt lat="43.0530932" lon="11.4978914"><ele>500.0</ele><time>2026-04-03T10:40:00.731Z</time></trkpt><trkpt lat="43.0529941" lon="11.4981223"><ele>500.0</ele><time>2026-04-03T10:40:01.732Z</time></trkpt><trkpt lat="43.0528959" lon="11.4983454"><ele>500.0</ele><time>2026-04-03T10:40:02.732Z</time></trkpt><trkpt lat="43.0528094" lon="11.4985591"><ele>500.0</ele><time>2026-04-03T10:40:03.732Z</time></trkpt><trkpt lat="43.0527221" lon="11.4987608"><ele>496.66666666666663</ele><time>2026-04-03T10:40:04.732Z</time></trkpt><trkpt lat="43.0526406" lon="11.4989533"><ele>493.33333333333337</ele><time>2026-04-03T10:40:05.731Z</time></trkpt><trkpt lat="43.052566" lon="11.499143"><ele>490.0</ele><time>2026-04-03T10:40:06.732Z</time></trkpt><trkpt lat="43.0524898" lon="11.4993268"><ele>491.0</ele><time>2026-04-03T10:40:07.732Z</time></trkpt><trkpt lat="43.0524135" lon="11.4995098"><ele>492.0</ele><time>2026-04-03T10:40:08.732Z</time></trkpt><trkpt lat="43.0523384" lon="11.4996909"><ele>493.0</ele><time>2026-04-03T10:40:09.732Z</time></trkpt><trkpt lat="43.0522636" lon="11.499878"><ele>489.5</ele><time>2026-04-03T10:40:10.732Z</time></trkpt><trkpt lat="43.0521918" lon="11.5000634"><ele>486.0</ele><time>2026-04-03T10:40:11.732Z</time></trkpt><trkpt lat="43.0521232" lon="11.500241"><ele>482.5</ele><time>2026-04-03T10:40:12.732Z</time></trkpt><trkpt lat="43.0520605" lon="11.5004088"><ele>479.0</ele><time>2026-04-03T10:40:13.732Z</time></trkpt><trkpt lat="43.0520048" lon="11.5005839"><ele>477.75</ele><time>2026-04-03T10:40:14.731Z</time></trkpt><trkpt lat="43.0519657" lon="11.5007668"><ele>476.5</ele><time>2026-04-03T10:40:15.732Z</time></trkpt><trkpt lat="43.0519402" lon="11.500951"><ele>475.25</ele><time>2026-04-03T10:40:16.732Z</time></trkpt><trkpt lat="43.0519281" lon="11.501144"><ele>474.0</ele><time>2026-04-03T10:40:17.732Z</time></trkpt><trkpt lat="43.0519307" lon="11.5013334"><ele>472.75</ele><time>2026-04-03T10:40:18.732Z</time></trkpt><trkpt lat="43.0519411" lon="11.5015192"><ele>471.5</ele><time>2026-04-03T10:40:19.731Z</time></trkpt><trkpt lat="43.0519494" lon="11.5017005"><ele>470.25</ele><time>2026-04-03T10:40:20.731Z</time></trkpt><trkpt lat="43.0519511" lon="11.5018656"><ele>469.0</ele><time>2026-04-03T10:40:21.732Z</time></trkpt><trkpt lat="43.0519414" lon="11.5020372"><ele>468.25</ele><time>2026-04-03T10:40:22.731Z</time></trkpt><trkpt lat="43.0519111" lon="11.5022124"><ele>467.5</ele><time>2026-04-03T10:40:23.732Z</time></trkpt><trkpt lat="43.0518635" lon="11.502382"><ele>466.75</ele><time>2026-04-03T10:40:24.731Z</time></trkpt><trkpt lat="43.0518182" lon="11.5025558"><ele>466.0</ele><time>2026-04-03T10:40:25.732Z</time></trkpt><trkpt lat="43.0517736" lon="11.5027245"><ele>466.0</ele><time>2026-04-03T10:40:26.732Z</time></trkpt><trkpt lat="43.0517494" lon="11.5028933"><ele>466.0</ele><time>2026-04-03T10:40:27.732Z</time></trkpt><trkpt lat="43.0517386" lon="11.5030555"><ele>466.0</ele><time>2026-04-03T10:40:28.731Z</time></trkpt><trkpt lat="43.0517606" lon="11.5032201"><ele>466.0</ele><time>2026-04-03T10:40:29.732Z</time></trkpt><trkpt lat="43.0518087" lon="11.503375"><ele>465.6</ele><time>2026-04-03T10:40:30.731Z</time></trkpt><trkpt lat="43.0518713" lon="11.5035157"><ele>465.20000000000005</ele><time>2026-04-03T10:40:31.732Z</time></trkpt><trkpt lat="43.0519319" lon="11.5036488"><ele>464.79999999999995</ele><time>2026-04-03T10:40:32.731Z</time></trkpt><trkpt lat="43.0519832" lon="11.5037725"><ele>464.4</ele><time>2026-04-03T10:40:33.732Z</time></trkpt><trkpt lat="43.0520339" lon="11.5038848"><ele>464.0</ele><time>2026-04-03T10:40:34.732Z</time></trkpt><trkpt lat="43.0520769" lon="11.5039974"><ele>462.66666666666663</ele><time>2026-04-03T10:40:35.732Z</time></trkpt><trkpt lat="43.0521188" lon="11.504108"><ele>461.3333333333333</ele><time>2026-04-03T10:40:36.731Z</time></trkpt><trkpt lat="43.0521566" lon="11.504208"><ele>460.0</ele><time>2026-04-03T10:40:37.732Z</time></trkpt><trkpt lat="43.0521927" lon="11.5042991"><ele>458.66666666666663</ele><time>2026-04-03T10:40:38.731Z</time></trkpt><trkpt lat="43.0522226" lon="11.5043916"><ele>457.3333333333333</ele><time>2026-04-03T10:40:39.732Z</time></trkpt><trkpt lat="43.0522509" lon="11.5044768"><ele>456.0</ele><time>2026-04-03T10:40:40.732Z</time></trkpt><trkpt lat="43.0522724" lon="11.5045628"><ele>454.6666666666667</ele><time>2026-04-03T10:40:41.732Z</time></trkpt><trkpt lat="43.0522849" lon="11.5046514"><ele>453.33333333333337</ele><time>2026-04-03T10:40:42.732Z</time></trkpt><trkpt lat="43.0522898" lon="11.5047508"><ele>452.0</ele><time>2026-04-03T10:40:43.732Z</time></trkpt><trkpt lat="43.0522837" lon="11.5048622"><ele>450.6666666666667</ele><time>2026-04-03T10:40:44.732Z</time></trkpt><trkpt lat="43.0522823" lon="11.5049566"><ele>449.33333333333337</ele><time>2026-04-03T10:40:45.732Z</time></trkpt><trkpt lat="43.0523321" lon="11.5050518"><ele>448.0</ele><time>2026-04-03T10:40:47.732Z</time></trkpt><trkpt lat="43.0524104" lon="11.5050009"><ele>448.0</ele><time>2026-04-03T10:40:49.732Z</time></trkpt><trkpt lat="43.0524228" lon="11.5048933"><ele>448.0</ele><time>2026-04-03T10:40:51.731Z</time></trkpt><trkpt lat="43.0523916" lon="11.5048125"><ele>448.0</ele><time>2026-04-03T10:40:52.732Z</time></trkpt><trkpt lat="43.0523739" lon="11.5047109"><ele>448.0</ele><time>2026-04-03T10:40:53.732Z</time></trkpt><trkpt lat="43.0523731" lon="11.5046119"><ele>448.0</ele><time>2026-04-03T10:40:54.731Z</time></trkpt><trkpt lat="43.0523859" lon="11.5045261"><ele>448.0</ele><time>2026-04-03T10:40:55.732Z</time></trkpt><trkpt lat="43.0523994" lon="11.5044391"><ele>448.0</ele><time>2026-04-03T10:40:56.732Z</time></trkpt><trkpt lat="43.0524245" lon="11.5042924"><ele>449.33333333333337</ele><time>2026-04-03T10:40:58.731Z</time></trkpt><trkpt lat="43.0524096" lon="11.5041969"><ele>450.6666666666667</ele><time>2026-04-03T10:41:00.732Z</time></trkpt><trkpt lat="43.0523402" lon="11.5041392"><ele>452.0</ele><time>2026-04-03T10:43:08.732Z</time></trkpt><trkpt lat="43.0523838" lon="11.504254"><ele>453.33333333333337</ele><time>2026-04-03T10:43:12.732Z</time></trkpt><trkpt lat="43.052472" lon="11.5043404"><ele>454.6666666666667</ele><time>2026-04-03T10:43:24.731Z</time></trkpt><trkpt lat="43.0524977" lon="11.504445"><ele>456.0</ele><time>2026-04-03T10:43:27.73Z</time></trkpt><trkpt lat="43.0524966" lon="11.5043467"><ele>456.0</ele><time>2026-04-03T10:44:09.731Z</time></trkpt><trkpt lat="43.052528" lon="11.5044241"><ele>456.0</ele><time>2026-04-03T11:41:00.791Z</time></trkpt><trkpt lat="43.0524987" lon="11.5043453"><ele>456.0</ele><time>2026-04-03T11:41:22.775Z</time></trkpt><trkpt lat="43.0525149" lon="11.5044357"><ele>456.0</ele><time>2026-04-03T11:42:12.779Z</time></trkpt><trkpt lat="43.0524813" lon="11.5043522"><ele>456.0</ele><time>2026-04-03T11:44:40.719Z</time></trkpt><trkpt lat="43.0524347" lon="11.5042505"><ele>456.0</ele><time>2026-04-03T11:44:42.719Z</time></trkpt><trkpt lat="43.0523781" lon="11.5041355"><ele>456.0</ele><time>2026-04-03T11:44:44.719Z</time></trkpt><trkpt lat="43.0522669" lon="11.5040736"><ele>456.0</ele><time>2026-04-03T11:44:46.719Z</time></trkpt><trkpt lat="43.0521806" lon="11.5040888"><ele>456.0</ele><time>2026-04-03T11:44:48.719Z</time></trkpt><trkpt lat="43.0520559" lon="11.5039031"><ele>456.0</ele><time>2026-04-03T11:44:51.718Z</time></trkpt><trkpt lat="43.0519951" lon="11.5037653"><ele>458.0</ele><time>2026-04-03T11:44:52.718Z</time></trkpt><trkpt lat="43.0519286" lon="11.503606"><ele>460.0</ele><time>2026-04-03T11:44:53.719Z</time></trkpt><trkpt lat="43.0518688" lon="11.5034605"><ele>462.0</ele><time>2026-04-03T11:44:54.719Z</time></trkpt><trkpt lat="43.0518046" lon="11.5033196"><ele>464.0</ele><time>2026-04-03T11:44:55.718Z</time></trkpt><trkpt lat="43.0517689" lon="11.5031958"><ele>464.0</ele><time>2026-04-03T11:44:56.719Z</time></trkpt><trkpt lat="43.0517508" lon="11.5030798"><ele>464.0</ele><time>2026-04-03T11:44:57.719Z</time></trkpt><trkpt lat="43.0517491" lon="11.5029524"><ele>464.0</ele><time>2026-04-03T11:44:58.719Z</time></trkpt><trkpt lat="43.051761" lon="11.5028268"><ele>464.0</ele><time>2026-04-03T11:44:59.718Z</time></trkpt><trkpt lat="43.0517863" lon="11.502705"><ele>464.0</ele><time>2026-04-03T11:45:00.719Z</time></trkpt><trkpt lat="43.0518217" lon="11.5025773"><ele>464.5</ele><time>2026-04-03T11:45:01.719Z</time></trkpt><trkpt lat="43.051868" lon="11.5024138"><ele>465.0</ele><time>2026-04-03T11:45:02.719Z</time></trkpt><trkpt lat="43.0519193" lon="11.5022261"><ele>465.5</ele><time>2026-04-03T11:45:03.719Z</time></trkpt><trkpt lat="43.0519624" lon="11.502038"><ele>466.0</ele><time>2026-04-03T11:45:04.719Z</time></trkpt><trkpt lat="43.051979" lon="11.5018437"><ele>467.0</ele><time>2026-04-03T11:45:05.718Z</time></trkpt><trkpt lat="43.0519762" lon="11.5016348"><ele>468.0</ele><time>2026-04-03T11:45:06.718Z</time></trkpt><trkpt lat="43.0519711" lon="11.5014327"><ele>469.0</ele><time>2026-04-03T11:45:07.719Z</time></trkpt><trkpt lat="43.0519678" lon="11.5012167"><ele>470.6666666666667</ele><time>2026-04-03T11:45:08.719Z</time></trkpt><trkpt lat="43.0519714" lon="11.501004"><ele>472.33333333333337</ele><time>2026-04-03T11:45:09.718Z</time></trkpt><trkpt lat="43.0519957" lon="11.5007917"><ele>474.0</ele><time>2026-04-03T11:45:10.718Z</time></trkpt><trkpt lat="43.052039" lon="11.500579"><ele>475.66666666666663</ele><time>2026-04-03T11:45:11.719Z</time></trkpt><trkpt lat="43.052104" lon="11.5003593"><ele>477.3333333333333</ele><time>2026-04-03T11:45:12.719Z</time></trkpt><trkpt lat="43.052195" lon="11.5001367"><ele>479.0</ele><time>2026-04-03T11:45:13.718Z</time></trkpt><trkpt lat="43.0522898" lon="11.4998997"><ele>479.0</ele><time>2026-04-03T11:45:14.719Z</time></trkpt><trkpt lat="43.0523833" lon="11.4996661"><ele>479.0</ele><time>2026-04-03T11:45:15.719Z</time></trkpt><trkpt lat="43.0524774" lon="11.4994314"><ele>479.0</ele><time>2026-04-03T11:45:16.718Z</time></trkpt><trkpt lat="43.0525756" lon="11.4991939"><ele>482.66666666666663</ele><time>2026-04-03T11:45:17.718Z</time></trkpt><trkpt lat="43.0526764" lon="11.4989581"><ele>486.33333333333337</ele><time>2026-04-03T11:45:18.718Z</time></trkpt><trkpt lat="43.0527722" lon="11.4987225"><ele>490.0</ele><time>2026-04-03T11:45:19.718Z</time></trkpt><trkpt lat="43.0528645" lon="11.4984942"><ele>493.33333333333337</ele><time>2026-04-03T11:45:20.719Z</time></trkpt><trkpt lat="43.0529466" lon="11.4982907"><ele>496.66666666666663</ele><time>2026-04-03T11:45:21.719Z</time></trkpt><trkpt lat="43.0530202" lon="11.4981171"><ele>500.0</ele><time>2026-04-03T11:45:22.719Z</time></trkpt><trkpt lat="43.0530989" lon="11.4979456"><ele>498.66666666666663</ele><time>2026-04-03T11:45:23.719Z</time></trkpt><trkpt lat="43.0531812" lon="11.4977645"><ele>497.33333333333337</ele><time>2026-04-03T11:45:24.719Z</time></trkpt><trkpt lat="43.0532591" lon="11.4975825"><ele>496.0</ele><time>2026-04-03T11:45:25.719Z</time></trkpt><trkpt lat="43.0533301" lon="11.4973954"><ele>496.0</ele><time>2026-04-03T11:45:26.719Z</time></trkpt><trkpt lat="43.0533889" lon="11.4972063"><ele>496.0</ele><time>2026-04-03T11:45:27.718Z</time></trkpt><trkpt lat="43.0534304" lon="11.4970098"><ele>496.0</ele><time>2026-04-03T11:45:28.719Z</time></trkpt><trkpt lat="43.0534578" lon="11.4968307"><ele>496.0</ele><time>2026-04-03T11:45:29.719Z</time></trkpt><trkpt lat="43.0534791" lon="11.4966771"><ele>496.75</ele><time>2026-04-03T11:45:30.719Z</time></trkpt><trkpt lat="43.0534994" lon="11.4965239"><ele>497.5</ele><time>2026-04-03T11:45:31.718Z</time></trkpt><trkpt lat="43.0535265" lon="11.4963537"><ele>498.25</ele><time>2026-04-03T11:45:32.719Z</time></trkpt><trkpt lat="43.0535506" lon="11.496165"><ele>499.0</ele><time>2026-04-03T11:45:33.719Z</time></trkpt><trkpt lat="43.0535658" lon="11.4959628"><ele>500.6666666666667</ele><time>2026-04-03T11:45:34.719Z</time></trkpt><trkpt lat="43.0535686" lon="11.4957438"><ele>502.33333333333337</ele><time>2026-04-03T11:45:35.718Z</time></trkpt><trkpt lat="43.0535631" lon="11.4955021"><ele>504.0</ele><time>2026-04-03T11:45:36.718Z</time></trkpt><trkpt lat="43.0535494" lon="11.4952462"><ele>504.33333333333337</ele><time>2026-04-03T11:45:37.719Z</time></trkpt><trkpt lat="43.0535297" lon="11.4949988"><ele>504.6666666666667</ele><time>2026-04-03T11:45:38.718Z</time></trkpt><trkpt lat="43.0535127" lon="11.4947561"><ele>505.0</ele><time>2026-04-03T11:45:39.719Z</time></trkpt><trkpt lat="43.0535143" lon="11.4945333"><ele>506.0</ele><time>2026-04-03T11:45:40.719Z</time></trkpt><trkpt lat="43.053532" lon="11.4943237"><ele>507.0</ele><time>2026-04-03T11:45:41.719Z</time></trkpt><trkpt lat="43.0535878" lon="11.494125"><ele>508.0</ele><time>2026-04-03T11:45:42.719Z</time></trkpt><trkpt lat="43.0536769" lon="11.4939427"><ele>508.0</ele><time>2026-04-03T11:45:43.719Z</time></trkpt><trkpt lat="43.0538008" lon="11.4937737"><ele>508.0</ele><time>2026-04-03T11:45:44.719Z</time></trkpt><trkpt lat="43.0539319" lon="11.4936229"><ele>508.0</ele><time>2026-04-03T11:45:45.719Z</time></trkpt><trkpt lat="43.054066" lon="11.4934944"><ele>507.33333333333337</ele><time>2026-04-03T11:45:46.719Z</time></trkpt><trkpt lat="43.0541855" lon="11.4933546"><ele>506.66666666666663</ele><time>2026-04-03T11:45:47.718Z</time></trkpt><trkpt lat="43.0542863" lon="11.4931873"><ele>506.0</ele><time>2026-04-03T11:45:48.719Z</time></trkpt><trkpt lat="43.0543608" lon="11.4930224"><ele>510.5</ele><time>2026-04-03T11:45:49.719Z</time></trkpt><trkpt lat="43.0544139" lon="11.4928418"><ele>515.0</ele><time>2026-04-03T11:45:50.719Z</time></trkpt><trkpt lat="43.0544482" lon="11.4926577"><ele>519.5</ele><time>2026-04-03T11:45:51.719Z</time></trkpt><trkpt lat="43.0544604" lon="11.4924698"><ele>524.0</ele><time>2026-04-03T11:45:52.719Z</time></trkpt><trkpt lat="43.0544604" lon="11.4922803"><ele>524.0</ele><time>2026-04-03T11:45:53.719Z</time></trkpt><trkpt lat="43.0544527" lon="11.4920922"><ele>524.0</ele><time>2026-04-03T11:45:54.719Z</time></trkpt><trkpt lat="43.0544394" lon="11.4919156"><ele>524.0</ele><time>2026-04-03T11:45:55.719Z</time></trkpt><trkpt lat="43.0544233" lon="11.4917637"><ele>524.0</ele><time>2026-04-03T11:45:56.719Z</time></trkpt><trkpt lat="43.0544063" lon="11.4916264"><ele>526.0</ele><time>2026-04-03T11:45:57.719Z</time></trkpt><trkpt lat="43.0543905" lon="11.4915034"><ele>528.0</ele><time>2026-04-03T11:45:58.719Z</time></trkpt><trkpt lat="43.0543757" lon="11.4913885"><ele>530.0</ele><time>2026-04-03T11:45:59.719Z</time></trkpt><trkpt lat="43.0543749" lon="11.4912743"><ele>532.0</ele><time>2026-04-03T11:46:00.719Z</time></trkpt><trkpt lat="43.0543997" lon="11.4911602"><ele>534.0</ele><time>2026-04-03T11:46:01.718Z</time></trkpt><trkpt lat="43.0544558" lon="11.4910706"><ele>536.0</ele><time>2026-04-03T11:46:02.719Z</time></trkpt><trkpt lat="43.0545211" lon="11.4910085"><ele>536.0</ele><time>2026-04-03T11:46:03.718Z</time></trkpt><trkpt lat="43.0545973" lon="11.490985"><ele>536.0</ele><time>2026-04-03T11:46:04.718Z</time></trkpt><trkpt lat="43.0546749" lon="11.4910001"><ele>536.0</ele><time>2026-04-03T11:46:05.719Z</time></trkpt><trkpt lat="43.0547513" lon="11.4910633"><ele>536.0</ele><time>2026-04-03T11:46:06.718Z</time></trkpt><trkpt lat="43.0548331" lon="11.4911618"><ele>536.0</ele><time>2026-04-03T11:46:07.719Z</time></trkpt><trkpt lat="43.0549152" lon="11.4912837"><ele>532.2</ele><time>2026-04-03T11:46:08.719Z</time></trkpt><trkpt lat="43.0550011" lon="11.4914102"><ele>528.4000000000001</ele><time>2026-04-03T11:46:09.718Z</time></trkpt><trkpt lat="43.0550795" lon="11.4915212"><ele>524.6</ele><time>2026-04-03T11:46:10.719Z</time></trkpt><trkpt lat="43.0551459" lon="11.491617"><ele>520.8000000000001</ele><time>2026-04-03T11:46:11.718Z</time></trkpt><trkpt lat="43.0552076" lon="11.4917108"><ele>517.0</ele><time>2026-04-03T11:46:12.719Z</time></trkpt><trkpt lat="43.055263" lon="11.4918031"><ele>517.0</ele><time>2026-04-03T11:46:13.719Z</time></trkpt><trkpt lat="43.0553101" lon="11.4918792"><ele>517.0</ele><time>2026-04-03T11:46:14.719Z</time></trkpt><trkpt lat="43.0554009" lon="11.4919587"><ele>517.0</ele><time>2026-04-03T11:46:16.719Z</time></trkpt><trkpt lat="43.0554883" lon="11.4919133"><ele>517.0</ele><time>2026-04-03T11:46:18.718Z</time></trkpt><trkpt lat="43.0554598" lon="11.4917593"><ele>517.0</ele><time>2026-04-03T11:46:20.719Z</time></trkpt><trkpt lat="43.0553954" lon="11.4916774"><ele>517.0</ele><time>2026-04-03T11:46:21.718Z</time></trkpt><trkpt lat="43.0553071" lon="11.4915621"><ele>517.0</ele><time>2026-04-03T11:46:22.719Z</time></trkpt><trkpt lat="43.0552266" lon="11.4913855"><ele>517.0</ele><time>2026-04-03T11:46:23.718Z</time></trkpt><trkpt lat="43.0551434" lon="11.4911936"><ele>517.0</ele><time>2026-04-03T11:46:24.719Z</time></trkpt><trkpt lat="43.0550477" lon="11.4909777"><ele>524.0</ele><time>2026-04-03T11:46:25.718Z</time></trkpt><trkpt lat="43.0549474" lon="11.4907884"><ele>531.0</ele><time>2026-04-03T11:46:26.719Z</time></trkpt><trkpt lat="43.0548403" lon="11.4906248"><ele>538.0</ele><time>2026-04-03T11:46:27.719Z</time></trkpt><trkpt lat="43.0547162" lon="11.4904679"><ele>540.6666666666667</ele><time>2026-04-03T11:46:28.719Z</time></trkpt><trkpt lat="43.0545708" lon="11.4903156"><ele>543.3333333333334</ele><time>2026-04-03T11:46:29.719Z</time></trkpt><trkpt lat="43.05443" lon="11.4901755"><ele>546.0</ele><time>2026-04-03T11:46:30.719Z</time></trkpt><trkpt lat="43.0543094" lon="11.4900655"><ele>546.0</ele><time>2026-04-03T11:46:31.719Z</time></trkpt><trkpt lat="43.0542269" lon="11.4899545"><ele>546.0</ele><time>2026-04-03T11:46:32.718Z</time></trkpt><trkpt lat="43.0541738" lon="11.4898414"><ele>546.0</ele><time>2026-04-03T11:46:33.719Z</time></trkpt><trkpt lat="43.0541403" lon="11.4897155"><ele>546.0</ele><time>2026-04-03T11:46:34.719Z</time></trkpt><trkpt lat="43.0541477" lon="11.4895857"><ele>546.0</ele><time>2026-04-03T11:46:35.719Z</time></trkpt><trkpt lat="43.0542093" lon="11.4894526"><ele>548.25</ele><time>2026-04-03T11:46:36.719Z</time></trkpt><trkpt lat="43.0542971" lon="11.4893635"><ele>550.5</ele><time>2026-04-03T11:46:37.719Z</time></trkpt><trkpt lat="43.0544086" lon="11.4893131"><ele>552.75</ele><time>2026-04-03T11:46:38.719Z</time></trkpt><trkpt lat="43.0545442" lon="11.4893046"><ele>555.0</ele><time>2026-04-03T11:46:39.718Z</time></trkpt><trkpt lat="43.0546848" lon="11.4893009"><ele>555.0</ele><time>2026-04-03T11:46:40.719Z</time></trkpt><trkpt lat="43.0548067" lon="11.4892893"><ele>555.0</ele><time>2026-04-03T11:46:41.719Z</time></trkpt><trkpt lat="43.054904" lon="11.4892871"><ele>555.0</ele><time>2026-04-03T11:46:42.718Z</time></trkpt><trkpt lat="43.0549727" lon="11.4892909"><ele>555.0</ele><time>2026-04-03T11:46:43.719Z</time></trkpt><trkpt lat="43.0550779" lon="11.4892488"><ele>555.0</ele><time>2026-04-03T11:46:45.718Z</time></trkpt><trkpt lat="43.0551647" lon="11.4891884"><ele>554.6666666666666</ele><time>2026-04-03T11:46:47.718Z</time></trkpt><trkpt lat="43.0552732" lon="11.4891373"><ele>554.3333333333334</ele><time>2026-04-03T11:46:49.718Z</time></trkpt><trkpt lat="43.0553551" lon="11.4891119"><ele>554.0</ele><time>2026-04-03T11:46:51.719Z</time></trkpt><trkpt lat="43.0554268" lon="11.4890663"><ele>553.6666666666667</ele><time>2026-04-03T11:47:01.718Z</time></trkpt><trkpt lat="43.055495" lon="11.4890392"><ele>553.3333333333334</ele><time>2026-04-03T11:47:02.718Z</time></trkpt><trkpt lat="43.0555765" lon="11.4889984"><ele>553.0</ele><time>2026-04-03T11:47:03.718Z</time></trkpt><trkpt lat="43.0556636" lon="11.4889723"><ele>553.0</ele><time>2026-04-03T11:47:04.718Z</time></trkpt><trkpt lat="43.0557428" lon="11.4889631"><ele>553.0</ele><time>2026-04-03T11:47:05.718Z</time></trkpt><trkpt lat="43.0558122" lon="11.4889788"><ele>553.0</ele><time>2026-04-03T11:47:06.719Z</time></trkpt><trkpt lat="43.0558816" lon="11.4890077"><ele>553.0</ele><time>2026-04-03T11:47:07.718Z</time></trkpt><trkpt lat="43.0559571" lon="11.4890408"><ele>553.0</ele><time>2026-04-03T11:47:08.719Z</time></trkpt><trkpt lat="43.0560312" lon="11.4890645"><ele>553.0</ele><time>2026-04-03T11:47:09.719Z</time></trkpt><trkpt lat="43.0561162" lon="11.4890598"><ele>552.1999999999999</ele><time>2026-04-03T11:47:10.719Z</time></trkpt><trkpt lat="43.0562107" lon="11.4890303"><ele>551.4</ele><time>2026-04-03T11:47:11.719Z</time></trkpt><trkpt lat="43.0563184" lon="11.4889859"><ele>550.5999999999999</ele><time>2026-04-03T11:47:12.718Z</time></trkpt><trkpt lat="43.0564222" lon="11.4889404"><ele>549.8</ele><time>2026-04-03T11:47:13.718Z</time></trkpt><trkpt lat="43.0565164" lon="11.4889054"><ele>549.0</ele><time>2026-04-03T11:47:14.719Z</time></trkpt><trkpt lat="43.0566026" lon="11.4888754"><ele>549.2</ele><time>2026-04-03T11:47:15.718Z</time></trkpt><trkpt lat="43.0566853" lon="11.4888432"><ele>549.4</ele><time>2026-04-03T11:47:16.719Z</time></trkpt><trkpt lat="43.0567653" lon="11.4887858"><ele>549.6</ele><time>2026-04-03T11:47:17.719Z</time></trkpt><trkpt lat="43.0568912" lon="11.4886196"><ele>549.8</ele><time>2026-04-03T11:47:19.719Z</time></trkpt><trkpt lat="43.0569484" lon="11.4885212"><ele>550.0</ele><time>2026-04-03T11:47:20.718Z</time></trkpt><trkpt lat="43.0569981" lon="11.4884139"><ele>547.2</ele><time>2026-04-03T11:47:21.717Z</time></trkpt><trkpt lat="43.0570513" lon="11.4883065"><ele>544.4</ele><time>2026-04-03T11:47:22.718Z</time></trkpt><trkpt lat="43.0571062" lon="11.4881949"><ele>541.6</ele><time>2026-04-03T11:47:23.718Z</time></trkpt><trkpt lat="43.0571623" lon="11.4880836"><ele>538.8</ele><time>2026-04-03T11:47:24.718Z</time></trkpt><trkpt lat="43.0572196" lon="11.4879549"><ele>536.0</ele><time>2026-04-03T11:47:25.718Z</time></trkpt><trkpt lat="43.0572781" lon="11.4878342"><ele>537.0</ele><time>2026-04-03T11:47:26.718Z</time></trkpt><trkpt lat="43.0573343" lon="11.4877169"><ele>538.0</ele><time>2026-04-03T11:47:27.717Z</time></trkpt><trkpt lat="43.0573885" lon="11.4876206"><ele>539.0</ele><time>2026-04-03T11:47:28.717Z</time></trkpt><trkpt lat="43.0574399" lon="11.4875249"><ele>540.0</ele><time>2026-04-03T11:47:29.718Z</time></trkpt><trkpt lat="43.0574985" lon="11.4874359"><ele>541.0</ele><time>2026-04-03T11:47:30.718Z</time></trkpt><trkpt lat="43.0575639" lon="11.487353"><ele>541.0</ele><time>2026-04-03T11:47:31.718Z</time></trkpt><trkpt lat="43.0576322" lon="11.4872746"><ele>541.0</ele><time>2026-04-03T11:47:32.718Z</time></trkpt><trkpt lat="43.0577054" lon="11.4871974"><ele>541.0</ele><time>2026-04-03T11:47:33.718Z</time></trkpt><trkpt lat="43.0577685" lon="11.4871173"><ele>541.0</ele><time>2026-04-03T11:47:34.718Z</time></trkpt><trkpt lat="43.0578334" lon="11.4870333"><ele>541.0</ele><time>2026-04-03T11:47:35.718Z</time></trkpt><trkpt lat="43.0579019" lon="11.4869541"><ele>541.0</ele><time>2026-04-03T11:47:36.717Z</time></trkpt><trkpt lat="43.0579789" lon="11.4868621"><ele>542.4</ele><time>2026-04-03T11:47:37.718Z</time></trkpt><trkpt lat="43.0580617" lon="11.4867674"><ele>543.8</ele><time>2026-04-03T11:47:38.718Z</time></trkpt><trkpt lat="43.0581467" lon="11.4866704"><ele>545.1999999999999</ele><time>2026-04-03T11:47:39.717Z</time></trkpt><trkpt lat="43.0582302" lon="11.4865688"><ele>546.6</ele><time>2026-04-03T11:47:40.718Z</time></trkpt><trkpt lat="43.0583055" lon="11.4864874"><ele>548.0</ele><time>2026-04-03T11:47:41.717Z</time></trkpt><trkpt lat="43.0583654" lon="11.4864252"><ele>548.0</ele><time>2026-04-03T11:47:42.718Z</time></trkpt><trkpt lat="43.0584338" lon="11.4863762"><ele>548.0</ele><time>2026-04-03T11:47:43.717Z</time></trkpt><trkpt lat="43.0585129" lon="11.4863235"><ele>548.0</ele><time>2026-04-03T11:47:44.718Z</time></trkpt><trkpt lat="43.058592" lon="11.4862646"><ele>548.0</ele><time>2026-04-03T11:47:45.718Z</time></trkpt><trkpt lat="43.0586756" lon="11.4862096"><ele>548.0</ele><time>2026-04-03T11:47:46.718Z</time></trkpt><trkpt lat="43.0587631" lon="11.4861706"><ele>548.0</ele><time>2026-04-03T11:47:47.717Z</time></trkpt><trkpt lat="43.0588503" lon="11.4861448"><ele>549.1999999999999</ele><time>2026-04-03T11:47:48.718Z</time></trkpt><trkpt lat="43.0589364" lon="11.4861388"><ele>550.4</ele><time>2026-04-03T11:47:49.717Z</time></trkpt><trkpt lat="43.0590338" lon="11.4861587"><ele>551.5999999999999</ele><time>2026-04-03T11:47:50.718Z</time></trkpt><trkpt lat="43.0591239" lon="11.4861867"><ele>552.8</ele><time>2026-04-03T11:47:51.718Z</time></trkpt><trkpt lat="43.0592083" lon="11.4862257"><ele>554.0</ele><time>2026-04-03T11:47:52.718Z</time></trkpt><trkpt lat="43.0592952" lon="11.4862658"><ele>554.0</ele><time>2026-04-03T11:47:53.718Z</time></trkpt><trkpt lat="43.0593763" lon="11.4862991"><ele>554.0</ele><time>2026-04-03T11:47:54.717Z</time></trkpt><trkpt lat="43.05946" lon="11.4863347"><ele>554.0</ele><time>2026-04-03T11:47:55.718Z</time></trkpt><trkpt lat="43.0595486" lon="11.4863699"><ele>554.0</ele><time>2026-04-03T11:47:56.718Z</time></trkpt><trkpt lat="43.0596397" lon="11.4864123"><ele>554.0</ele><time>2026-04-03T11:47:57.718Z</time></trkpt><trkpt lat="43.0597404" lon="11.486455"><ele>554.0</ele><time>2026-04-03T11:47:58.718Z</time></trkpt><trkpt lat="43.059839" lon="11.4865011"><ele>554.0</ele><time>2026-04-03T11:47:59.717Z</time></trkpt><trkpt lat="43.0599297" lon="11.4865361"><ele>554.0</ele><time>2026-04-03T11:48:00.717Z</time></trkpt><trkpt lat="43.0600177" lon="11.4865686"><ele>554.0</ele><time>2026-04-03T11:48:01.718Z</time></trkpt><trkpt lat="43.0601028" lon="11.4866051"><ele>554.0</ele><time>2026-04-03T11:48:02.717Z</time></trkpt><trkpt lat="43.0601868" lon="11.4866475"><ele>553.8</ele><time>2026-04-03T11:48:03.717Z</time></trkpt><trkpt lat="43.0602781" lon="11.4866967"><ele>553.5999999999999</ele><time>2026-04-03T11:48:04.718Z</time></trkpt><trkpt lat="43.0603596" lon="11.4867515"><ele>553.4</ele><time>2026-04-03T11:48:05.718Z</time></trkpt><trkpt lat="43.0604237" lon="11.4868023"><ele>553.1999999999999</ele><time>2026-04-03T11:48:06.718Z</time></trkpt><trkpt lat="43.060476" lon="11.4868508"><ele>553.0</ele><time>2026-04-03T11:48:07.718Z</time></trkpt><trkpt lat="43.0605618" lon="11.4869773"><ele>554.6</ele><time>2026-04-03T11:48:09.717Z</time></trkpt><trkpt lat="43.0606289" lon="11.4871105"><ele>556.1999999999999</ele><time>2026-04-03T11:48:11.717Z</time></trkpt><trkpt lat="43.0606549" lon="11.4872722"><ele>557.8</ele><time>2026-04-03T11:48:13.718Z</time></trkpt><trkpt lat="43.0606567" lon="11.4874467"><ele>559.4</ele><time>2026-04-03T11:48:15.718Z</time></trkpt><trkpt lat="43.0606578" lon="11.48754"><ele>561.0</ele><time>2026-04-03T11:48:16.718Z</time></trkpt><trkpt lat="43.0606625" lon="11.4876353"><ele>561.0</ele><time>2026-04-03T11:48:17.717Z</time></trkpt><trkpt lat="43.0606638" lon="11.4877272"><ele>561.0</ele><time>2026-04-03T11:48:18.717Z</time></trkpt><trkpt lat="43.0606645" lon="11.4878227"><ele>561.0</ele><time>2026-04-03T11:48:19.717Z</time></trkpt><trkpt lat="43.0606697" lon="11.487927"><ele>561.0</ele><time>2026-04-03T11:48:20.717Z</time></trkpt><trkpt lat="43.0606718" lon="11.4880381"><ele>561.0</ele><time>2026-04-03T11:48:21.718Z</time></trkpt><trkpt lat="43.060674" lon="11.4881432"><ele>561.0</ele><time>2026-04-03T11:48:22.718Z</time></trkpt><trkpt lat="43.0606781" lon="11.4882547"><ele>560.0</ele><time>2026-04-03T11:48:23.718Z</time></trkpt><trkpt lat="43.0606835" lon="11.4883814"><ele>559.0</ele><time>2026-04-03T11:48:24.717Z</time></trkpt><trkpt lat="43.0606881" lon="11.488519"><ele>558.0</ele><time>2026-04-03T11:48:25.717Z</time></trkpt><trkpt lat="43.0606931" lon="11.4886699"><ele>557.0</ele><time>2026-04-03T11:48:26.717Z</time></trkpt><trkpt lat="43.0607009" lon="11.4888139"><ele>556.0</ele><time>2026-04-03T11:48:27.718Z</time></trkpt><trkpt lat="43.0607065" lon="11.488952"><ele>554.1666666666667</ele><time>2026-04-03T11:48:28.718Z</time></trkpt><trkpt lat="43.0607086" lon="11.4890826"><ele>552.3333333333334</ele><time>2026-04-03T11:48:29.718Z</time></trkpt><trkpt lat="43.0607115" lon="11.489212"><ele>550.5</ele><time>2026-04-03T11:48:30.718Z</time></trkpt><trkpt lat="43.0607156" lon="11.4893291"><ele>548.6666666666666</ele><time>2026-04-03T11:48:31.718Z</time></trkpt><trkpt lat="43.0607174" lon="11.4894421"><ele>546.8333333333333</ele><time>2026-04-03T11:48:32.718Z</time></trkpt><trkpt lat="43.0607218" lon="11.4895426"><ele>545.0</ele><time>2026-04-03T11:48:33.717Z</time></trkpt><trkpt lat="43.0607309" lon="11.4896866"><ele>542.6666666666666</ele><time>2026-04-03T11:48:35.718Z</time></trkpt><trkpt lat="43.0606908" lon="11.4898036"><ele>540.3333333333333</ele><time>2026-04-03T11:48:43.718Z</time></trkpt><trkpt lat="43.0605649" lon="11.4898845"><ele>538.0</ele><time>2026-04-03T11:56:41.717Z</time></trkpt><trkpt lat="43.0605926" lon="11.4899919"><ele>535.6666666666666</ele><time>2026-04-03T11:56:44.717Z</time></trkpt><trkpt lat="43.0606278" lon="11.490071"><ele>533.3333333333334</ele><time>2026-04-03T11:56:46.717Z</time></trkpt><trkpt lat="43.0606581" lon="11.4901473"><ele>531.0</ele><time>2026-04-03T11:56:48.717Z</time></trkpt><trkpt lat="43.0606772" lon="11.4902376"><ele>531.0</ele><time>2026-04-03T11:56:52.716Z</time></trkpt><trkpt lat="43.0606836" lon="11.4903388"><ele>531.0</ele><time>2026-04-03T11:57:13.717Z</time></trkpt><trkpt lat="43.0606893" lon="11.4904656"><ele>531.0</ele><time>2026-04-03T11:57:16.717Z</time></trkpt><trkpt lat="43.0607028" lon="11.4905659"><ele>531.0</ele><time>2026-04-03T11:57:18.717Z</time></trkpt><trkpt lat="43.0607318" lon="11.490696"><ele>531.0</ele><time>2026-04-03T11:57:20.716Z</time></trkpt><trkpt lat="43.0607628" lon="11.4908381"><ele>531.0</ele><time>2026-04-03T11:57:22.717Z</time></trkpt><trkpt lat="43.0607806" lon="11.4909329"><ele>528.0</ele><time>2026-04-03T11:57:24.717Z</time></trkpt><trkpt lat="43.0607634" lon="11.4910388"><ele>525.0</ele><time>2026-04-03T11:57:28.716Z</time></trkpt><trkpt lat="43.0606859" lon="11.4911178"><ele>522.0</ele><time>2026-04-03T11:57:31.717Z</time></trkpt><trkpt lat="43.0605962" lon="11.4912334"><ele>519.0</ele><time>2026-04-03T11:57:33.717Z</time></trkpt><trkpt lat="43.0605451" lon="11.4913023"><ele>516.0</ele><time>2026-04-03T11:57:34.717Z</time></trkpt><trkpt lat="43.0604884" lon="11.4914175"><ele>515.5</ele><time>2026-04-03T11:57:36.717Z</time></trkpt><trkpt lat="43.0604399" lon="11.4914847"><ele>515.0</ele><time>2026-04-03T11:57:38.717Z</time></trkpt><trkpt lat="43.0604075" lon="11.4915803"><ele>514.5</ele><time>2026-04-03T11:57:41.717Z</time></trkpt><trkpt lat="43.0603918" lon="11.4916666"><ele>514.0</ele><time>2026-04-03T11:57:43.717Z</time></trkpt><trkpt lat="43.060363" lon="11.4918011"><ele>513.5</ele><time>2026-04-03T11:57:45.717Z</time></trkpt><trkpt lat="43.0603402" lon="11.491891"><ele>513.0</ele><time>2026-04-03T11:57:46.717Z</time></trkpt><trkpt lat="43.0603057" lon="11.4919802"><ele>512.5</ele><time>2026-04-03T11:57:47.717Z</time></trkpt><trkpt lat="43.0602304" lon="11.492107"><ele>512.0</ele><time>2026-04-03T11:57:49.717Z</time></trkpt><trkpt lat="43.0601694" lon="11.4921568"><ele>511.5</ele><time>2026-04-03T11:58:02.716Z</time></trkpt><trkpt lat="43.0600902" lon="11.4921744"><ele>511.0</ele><time>2026-04-03T11:58:04.717Z</time></trkpt><trkpt lat="43.0600075" lon="11.4921263"><ele>510.5</ele><time>2026-04-03T11:58:06.716Z</time></trkpt><trkpt lat="43.0599477" lon="11.4920812"><ele>510.0</ele><time>2026-04-03T11:58:08.717Z</time></trkpt><trkpt lat="43.0599216" lon="11.491984"><ele>510.5</ele><time>2026-04-03T11:58:12.717Z</time></trkpt><trkpt lat="43.0599507" lon="11.4918887"><ele>511.0</ele><time>2026-04-03T11:58:15.716Z</time></trkpt><trkpt lat="43.0600143" lon="11.4918045"><ele>511.5</ele><time>2026-04-03T11:58:36.716Z</time></trkpt><trkpt lat="43.0600506" lon="11.4917338"><ele>512.0</ele><time>2026-04-03T11:58:39.717Z</time></trkpt><trkpt lat="43.0599987" lon="11.4918877"><ele>512.5</ele><time>2026-04-03T11:59:06.717Z</time></trkpt><trkpt lat="43.0599418" lon="11.4919843"><ele>513.0</ele><time>2026-04-03T11:59:08.717Z</time></trkpt><trkpt lat="43.0599481" lon="11.4920725"><ele>513.0</ele><time>2026-04-03T11:59:11.716Z</time></trkpt><trkpt lat="43.0600058" lon="11.4921083"><ele>513.0</ele><time>2026-04-03T11:59:13.716Z</time></trkpt><trkpt lat="43.0600639" lon="11.4921524"><ele>513.0</ele><time>2026-04-03T11:59:15.717Z</time></trkpt><trkpt lat="43.0601337" lon="11.4921757"><ele>513.0</ele><time>2026-04-03T11:59:17.717Z</time></trkpt><trkpt lat="43.0601981" lon="11.4921079"><ele>513.0</ele><time>2026-04-03T11:59:19.716Z</time></trkpt><trkpt lat="43.0602524" lon="11.4919989"><ele>513.0</ele><time>2026-04-03T11:59:21.716Z</time></trkpt><trkpt lat="43.060291" lon="11.4918651"><ele>513.0</ele><time>2026-04-03T11:59:23.717Z</time></trkpt><trkpt lat="43.0603283" lon="11.4917343"><ele>513.0</ele><time>2026-04-03T11:59:25.717Z</time></trkpt><trkpt lat="43.0603584" lon="11.4916162"><ele>513.0</ele><time>2026-04-03T11:59:27.717Z</time></trkpt><trkpt lat="43.0603879" lon="11.4915069"><ele>513.0</ele><time>2026-04-03T11:59:29.717Z</time></trkpt><trkpt lat="43.0604332" lon="11.4914245"><ele>513.0</ele><time>2026-04-03T11:59:31.717Z</time></trkpt><trkpt lat="43.0605095" lon="11.4913007"><ele>513.4285714285714</ele><time>2026-04-03T11:59:33.717Z</time></trkpt><trkpt lat="43.0605574" lon="11.4912436"><ele>513.8571428571429</ele><time>2026-04-03T11:59:34.717Z</time></trkpt><trkpt lat="43.0606098" lon="11.4911789"><ele>514.2857142857142</ele><time>2026-04-03T11:59:35.716Z</time></trkpt><trkpt lat="43.0606791" lon="11.491079"><ele>514.7142857142858</ele><time>2026-04-03T11:59:37.717Z</time></trkpt><trkpt lat="43.0607257" lon="11.4910168"><ele>515.1428571428571</ele><time>2026-04-03T11:59:39.716Z</time></trkpt><trkpt lat="43.0607816" lon="11.4909458"><ele>515.5714285714286</ele><time>2026-04-03T11:59:43.716Z</time></trkpt><trkpt lat="43.0607538" lon="11.4908609"><ele>516.0</ele><time>2026-04-03T11:59:45.716Z</time></trkpt><trkpt lat="43.0607007" lon="11.4907195"><ele>516.0</ele><time>2026-04-03T11:59:47.717Z</time></trkpt><trkpt lat="43.0606925" lon="11.4905794"><ele>516.0</ele><time>2026-04-03T11:59:49.716Z</time></trkpt><trkpt lat="43.0606759" lon="11.4904747"><ele>516.0</ele><time>2026-04-03T11:59:51.717Z</time></trkpt><trkpt lat="43.0606628" lon="11.4903799"><ele>516.0</ele><time>2026-04-03T11:59:53.717Z</time></trkpt><trkpt lat="43.0606724" lon="11.4902637"><ele>516.0</ele><time>2026-04-03T11:59:56.717Z</time></trkpt><trkpt lat="43.0607422" lon="11.4901934"><ele>516.0</ele><time>2026-04-03T11:59:59.717Z</time></trkpt><trkpt lat="43.0608364" lon="11.490161"><ele>518.6</ele><time>2026-04-03T12:00:02.717Z</time></trkpt><trkpt lat="43.0609048" lon="11.4901398"><ele>521.2</ele><time>2026-04-03T12:00:04.716Z</time></trkpt><trkpt lat="43.0609926" lon="11.4900279"><ele>523.8</ele><time>2026-04-03T12:00:06.717Z</time></trkpt><trkpt lat="43.0610491" lon="11.4899179"><ele>526.4</ele><time>2026-04-03T12:00:08.717Z</time></trkpt><trkpt lat="43.0611258" lon="11.4897576"><ele>529.0</ele><time>2026-04-03T12:02:43.716Z</time></trkpt><trkpt lat="43.0610256" lon="11.4896861"><ele>529.0</ele><time>2026-04-03T12:02:54.715Z</time></trkpt><trkpt lat="43.0609197" lon="11.4897029"><ele>529.0</ele><time>2026-04-03T12:02:56.716Z</time></trkpt><trkpt lat="43.0608306" lon="11.4897079"><ele>529.0</ele><time>2026-04-03T12:02:58.716Z</time></trkpt><trkpt lat="43.060767" lon="11.4896518"><ele>529.0</ele><time>2026-04-03T12:03:01.716Z</time></trkpt><trkpt lat="43.0607464" lon="11.4895499"><ele>529.0</ele><time>2026-04-03T12:03:03.715Z</time></trkpt><trkpt lat="43.0607346" lon="11.4894582"><ele>529.0</ele><time>2026-04-03T12:03:04.716Z</time></trkpt><trkpt lat="43.0607265" lon="11.4893538"><ele>532.2</ele><time>2026-04-03T12:03:05.716Z</time></trkpt><trkpt lat="43.0607244" lon="11.4892358"><ele>535.4</ele><time>2026-04-03T12:03:06.716Z</time></trkpt><trkpt lat="43.0607199" lon="11.4891179"><ele>538.6</ele><time>2026-04-03T12:03:07.715Z</time></trkpt><trkpt lat="43.0607066" lon="11.4889878"><ele>541.8</ele><time>2026-04-03T12:03:08.715Z</time></trkpt><trkpt lat="43.0606954" lon="11.4888422"><ele>545.0</ele><time>2026-04-03T12:03:09.715Z</time></trkpt><trkpt lat="43.060689" lon="11.4886939"><ele>547.2</ele><time>2026-04-03T12:03:10.715Z</time></trkpt><trkpt lat="43.0606829" lon="11.4885363"><ele>549.4</ele><time>2026-04-03T12:03:11.716Z</time></trkpt><trkpt lat="43.0606796" lon="11.4883794"><ele>551.6</ele><time>2026-04-03T12:03:12.716Z</time></trkpt><trkpt lat="43.0606763" lon="11.4882283"><ele>553.8</ele><time>2026-04-03T12:03:13.716Z</time></trkpt><trkpt lat="43.0606769" lon="11.4880943"><ele>556.0</ele><time>2026-04-03T12:03:14.716Z</time></trkpt><trkpt lat="43.0606776" lon="11.487975"><ele>557.0</ele><time>2026-04-03T12:03:15.716Z</time></trkpt><trkpt lat="43.0606797" lon="11.4878551"><ele>558.0</ele><time>2026-04-03T12:03:16.716Z</time></trkpt><trkpt lat="43.0606768" lon="11.4877345"><ele>559.0</ele><time>2026-04-03T12:03:17.716Z</time></trkpt><trkpt lat="43.0606788" lon="11.4876051"><ele>560.0</ele><time>2026-04-03T12:03:18.715Z</time></trkpt><trkpt lat="43.0606747" lon="11.4874698"><ele>561.0</ele><time>2026-04-03T12:03:19.716Z</time></trkpt><trkpt lat="43.0606717" lon="11.4873482"><ele>561.0</ele><time>2026-04-03T12:03:20.716Z</time></trkpt><trkpt lat="43.0606672" lon="11.4872295"><ele>561.0</ele><time>2026-04-03T12:03:21.715Z</time></trkpt><trkpt lat="43.060653" lon="11.4871131"><ele>561.0</ele><time>2026-04-03T12:03:22.716Z</time></trkpt><trkpt lat="43.060626" lon="11.4870143"><ele>561.0</ele><time>2026-04-03T12:03:23.715Z</time></trkpt><trkpt lat="43.060574" lon="11.4869163"><ele>561.0</ele><time>2026-04-03T12:03:24.716Z</time></trkpt><trkpt lat="43.0604976" lon="11.4868318"><ele>561.0</ele><time>2026-04-03T12:03:25.715Z</time></trkpt><trkpt lat="43.0604078" lon="11.4867603"><ele>559.25</ele><time>2026-04-03T12:03:26.716Z</time></trkpt><trkpt lat="43.0603104" lon="11.4866977"><ele>557.5</ele><time>2026-04-03T12:03:27.716Z</time></trkpt><trkpt lat="43.0602093" lon="11.4866439"><ele>555.75</ele><time>2026-04-03T12:03:28.716Z</time></trkpt><trkpt lat="43.0600891" lon="11.4865929"><ele>554.0</ele><time>2026-04-03T12:03:29.716Z</time></trkpt><trkpt lat="43.0599467" lon="11.4865376"><ele>554.0</ele><time>2026-04-03T12:03:30.716Z</time></trkpt><trkpt lat="43.0598055" lon="11.4864646"><ele>554.0</ele><time>2026-04-03T12:03:31.716Z</time></trkpt><trkpt lat="43.0596496" lon="11.4863871"><ele>554.0</ele><time>2026-04-03T12:03:32.716Z</time></trkpt><trkpt lat="43.0594929" lon="11.486303"><ele>550.0</ele><time>2026-04-03T12:03:33.716Z</time></trkpt><trkpt lat="43.0593419" lon="11.4862417"><ele>546.0</ele><time>2026-04-03T12:03:34.716Z</time></trkpt><trkpt lat="43.0591979" lon="11.4861838"><ele>542.0</ele><time>2026-04-03T12:03:35.715Z</time></trkpt><trkpt lat="43.059063" lon="11.486141"><ele>538.0</ele><time>2026-04-03T12:03:36.716Z</time></trkpt><trkpt lat="43.058934" lon="11.4861233"><ele>540.5</ele><time>2026-04-03T12:03:37.716Z</time></trkpt><trkpt lat="43.0588111" lon="11.4861258"><ele>543.0</ele><time>2026-04-03T12:03:38.715Z</time></trkpt><trkpt lat="43.0586908" lon="11.4861569"><ele>545.5</ele><time>2026-04-03T12:03:39.716Z</time></trkpt><trkpt lat="43.0585693" lon="11.4862245"><ele>548.0</ele><time>2026-04-03T12:03:40.715Z</time></trkpt><trkpt lat="43.0584493" lon="11.4863232"><ele>548.0</ele><time>2026-04-03T12:03:41.716Z</time></trkpt><trkpt lat="43.0583349" lon="11.4864334"><ele>548.0</ele><time>2026-04-03T12:03:42.715Z</time></trkpt><trkpt lat="43.0582247" lon="11.4865563"><ele>548.0</ele><time>2026-04-03T12:03:43.716Z</time></trkpt><trkpt lat="43.0581074" lon="11.486691"><ele>548.0</ele><time>2026-04-03T12:03:44.716Z</time></trkpt><trkpt lat="43.0579831" lon="11.4868258"><ele>545.6666666666666</ele><time>2026-04-03T12:03:45.716Z</time></trkpt><trkpt lat="43.0578601" lon="11.4869681"><ele>543.3333333333334</ele><time>2026-04-03T12:03:46.716Z</time></trkpt><trkpt lat="43.0577462" lon="11.4871014"><ele>541.0</ele><time>2026-04-03T12:03:47.715Z</time></trkpt><trkpt lat="43.0576387" lon="11.4872215"><ele>541.0</ele><time>2026-04-03T12:03:48.716Z</time></trkpt><trkpt lat="43.057543" lon="11.4873369"><ele>541.0</ele><time>2026-04-03T12:03:49.715Z</time></trkpt><trkpt lat="43.0574541" lon="11.4874523"><ele>541.0</ele><time>2026-04-03T12:03:50.716Z</time></trkpt><trkpt lat="43.05737" lon="11.4875718"><ele>541.0</ele><time>2026-04-03T12:03:51.716Z</time></trkpt><trkpt lat="43.0572979" lon="11.487702"><ele>539.75</ele><time>2026-04-03T12:03:52.715Z</time></trkpt><trkpt lat="43.0572322" lon="11.4878464"><ele>538.5</ele><time>2026-04-03T12:03:53.716Z</time></trkpt><trkpt lat="43.0571632" lon="11.4879855"><ele>537.25</ele><time>2026-04-03T12:03:54.716Z</time></trkpt><trkpt lat="43.0570942" lon="11.4881265"><ele>536.0</ele><time>2026-04-03T12:03:55.716Z</time></trkpt><trkpt lat="43.0570258" lon="11.4882656"><ele>536.0</ele><time>2026-04-03T12:03:56.716Z</time></trkpt><trkpt lat="43.0569604" lon="11.4884057"><ele>536.0</ele><time>2026-04-03T12:03:57.716Z</time></trkpt><trkpt lat="43.0568913" lon="11.4885372"><ele>536.0</ele><time>2026-04-03T12:03:58.716Z</time></trkpt><trkpt lat="43.056818" lon="11.4886418"><ele>536.0</ele><time>2026-04-03T12:03:59.715Z</time></trkpt><trkpt lat="43.0567402" lon="11.4887287"><ele>536.0</ele><time>2026-04-03T12:04:00.716Z</time></trkpt><trkpt lat="43.0566597" lon="11.4887946"><ele>538.6</ele><time>2026-04-03T12:04:01.716Z</time></trkpt><trkpt lat="43.0565673" lon="11.4888392"><ele>541.2</ele><time>2026-04-03T12:04:02.715Z</time></trkpt><trkpt lat="43.0564728" lon="11.4888809"><ele>543.8</ele><time>2026-04-03T12:04:03.715Z</time></trkpt><trkpt lat="43.0563736" lon="11.4889167"><ele>546.4</ele><time>2026-04-03T12:04:04.715Z</time></trkpt><trkpt lat="43.05627" lon="11.4889585"><ele>549.0</ele><time>2026-04-03T12:04:05.716Z</time></trkpt><trkpt lat="43.0561681" lon="11.4889982"><ele>549.0</ele><time>2026-04-03T12:04:06.715Z</time></trkpt><trkpt lat="43.0560719" lon="11.4890241"><ele>549.0</ele><time>2026-04-03T12:04:07.715Z</time></trkpt><trkpt lat="43.0559806" lon="11.4890071"><ele>549.0</ele><time>2026-04-03T12:04:08.715Z</time></trkpt><trkpt lat="43.0559029" lon="11.4889764"><ele>549.0</ele><time>2026-04-03T12:04:09.716Z</time></trkpt><trkpt lat="43.0558289" lon="11.4889419"><ele>549.0</ele><time>2026-04-03T12:04:10.716Z</time></trkpt><trkpt lat="43.0557564" lon="11.4889344"><ele>549.0</ele><time>2026-04-03T12:04:11.716Z</time></trkpt><trkpt lat="43.0556803" lon="11.4889272"><ele>549.8</ele><time>2026-04-03T12:04:12.715Z</time></trkpt><trkpt lat="43.055612" lon="11.4889356"><ele>550.5999999999999</ele><time>2026-04-03T12:04:13.716Z</time></trkpt><trkpt lat="43.0554886" lon="11.4889676"><ele>551.4</ele><time>2026-04-03T12:04:15.716Z</time></trkpt><trkpt lat="43.0553733" lon="11.488992"><ele>552.1999999999999</ele><time>2026-04-03T12:04:17.715Z</time></trkpt><trkpt lat="43.055289" lon="11.4889904"><ele>553.0</ele><time>2026-04-03T12:04:19.716Z</time></trkpt><trkpt lat="43.055204" lon="11.48898"><ele>553.0</ele><time>2026-04-03T12:04:21.716Z</time></trkpt><trkpt lat="43.0550958" lon="11.4890396"><ele>553.0</ele><time>2026-04-03T12:04:23.716Z</time></trkpt><trkpt lat="43.055046" lon="11.4891606"><ele>553.0</ele><time>2026-04-03T12:04:25.716Z</time></trkpt><trkpt lat="43.0549209" lon="11.4892179"><ele>553.0</ele><time>2026-04-03T12:04:27.716Z</time></trkpt><trkpt lat="43.0548047" lon="11.4892155"><ele>553.5</ele><time>2026-04-03T12:04:28.716Z</time></trkpt><trkpt lat="43.0546685" lon="11.4892289"><ele>554.0</ele><time>2026-04-03T12:04:29.715Z</time></trkpt><trkpt lat="43.0545389" lon="11.4892541"><ele>554.5</ele><time>2026-04-03T12:04:30.715Z</time></trkpt><trkpt lat="43.0544301" lon="11.4892745"><ele>555.0</ele><time>2026-04-03T12:04:31.716Z</time></trkpt><trkpt lat="43.0543361" lon="11.4893077"><ele>555.0</ele><time>2026-04-03T12:04:32.715Z</time></trkpt><trkpt lat="43.0542519" lon="11.4893743"><ele>555.0</ele><time>2026-04-03T12:04:33.716Z</time></trkpt><trkpt lat="43.0541864" lon="11.489468"><ele>555.0</ele><time>2026-04-03T12:04:34.715Z</time></trkpt><trkpt lat="43.054156" lon="11.4895965"><ele>555.0</ele><time>2026-04-03T12:04:35.715Z</time></trkpt><trkpt lat="43.0541417" lon="11.4897339"><ele>555.0</ele><time>2026-04-03T12:04:36.716Z</time></trkpt><trkpt lat="43.0541757" lon="11.4898711"><ele>552.75</ele><time>2026-04-03T12:04:37.716Z</time></trkpt><trkpt lat="43.0542467" lon="11.4900056"><ele>550.5</ele><time>2026-04-03T12:04:38.715Z</time></trkpt><trkpt lat="43.0543567" lon="11.490136"><ele>548.25</ele><time>2026-04-03T12:04:39.716Z</time></trkpt><trkpt lat="43.0544939" lon="11.4902727"><ele>546.0</ele><time>2026-04-03T12:04:40.716Z</time></trkpt><trkpt lat="43.0546378" lon="11.490438"><ele>544.0</ele><time>2026-04-03T12:04:41.716Z</time></trkpt><trkpt lat="43.0547539" lon="11.4905928"><ele>542.0</ele><time>2026-04-03T12:04:42.716Z</time></trkpt><trkpt lat="43.0548598" lon="11.4907337"><ele>540.0</ele><time>2026-04-03T12:04:43.716Z</time></trkpt><trkpt lat="43.0549525" lon="11.4908742"><ele>538.0</ele><time>2026-04-03T12:04:44.715Z</time></trkpt><trkpt lat="43.0550328" lon="11.4910226"><ele>537.75</ele><time>2026-04-03T12:04:45.716Z</time></trkpt><trkpt lat="43.0550983" lon="11.4911795"><ele>537.5</ele><time>2026-04-03T12:04:46.715Z</time></trkpt><trkpt lat="43.0551644" lon="11.4913282"><ele>537.25</ele><time>2026-04-03T12:04:47.716Z</time></trkpt><trkpt lat="43.0552291" lon="11.4914634"><ele>537.0</ele><time>2026-04-03T12:04:48.715Z</time></trkpt><trkpt lat="43.055293" lon="11.4915777"><ele>533.0</ele><time>2026-04-03T12:04:49.716Z</time></trkpt><trkpt lat="43.0553493" lon="11.4916694"><ele>529.0</ele><time>2026-04-03T12:04:50.715Z</time></trkpt><trkpt lat="43.0554025" lon="11.4917418"><ele>525.0</ele><time>2026-04-03T12:04:51.716Z</time></trkpt><trkpt lat="43.0554626" lon="11.4918519"><ele>521.0</ele><time>2026-04-03T12:04:53.715Z</time></trkpt><trkpt lat="43.0554075" lon="11.4919244"><ele>517.0</ele><time>2026-04-03T12:04:55.716Z</time></trkpt><trkpt lat="43.0553093" lon="11.4918401"><ele>517.0</ele><time>2026-04-03T12:04:57.716Z</time></trkpt><trkpt lat="43.0552497" lon="11.4917458"><ele>517.0</ele><time>2026-04-03T12:04:58.715Z</time></trkpt><trkpt lat="43.0551939" lon="11.4916384"><ele>517.0</ele><time>2026-04-03T12:04:59.716Z</time></trkpt><trkpt lat="43.0551273" lon="11.4915363"><ele>517.0</ele><time>2026-04-03T12:05:00.715Z</time></trkpt><trkpt lat="43.0550537" lon="11.4914315"><ele>517.0</ele><time>2026-04-03T12:05:01.715Z</time></trkpt><trkpt lat="43.0549834" lon="11.4913288"><ele>520.5</ele><time>2026-04-03T12:05:02.716Z</time></trkpt><trkpt lat="43.0549184" lon="11.4912347"><ele>524.0</ele><time>2026-04-03T12:05:03.716Z</time></trkpt><trkpt lat="43.0548586" lon="11.4911441"><ele>527.5</ele><time>2026-04-03T12:05:04.715Z</time></trkpt><trkpt lat="43.0547967" lon="11.4910562"><ele>531.0</ele><time>2026-04-03T12:05:05.715Z</time></trkpt><trkpt lat="43.054728" lon="11.4909897"><ele>534.5</ele><time>2026-04-03T12:05:06.716Z</time></trkpt><trkpt lat="43.0546425" lon="11.4909566"><ele>538.0</ele><time>2026-04-03T12:05:07.716Z</time></trkpt><trkpt lat="43.0545536" lon="11.4909584"><ele>538.0</ele><time>2026-04-03T12:05:08.715Z</time></trkpt><trkpt lat="43.0544734" lon="11.49101"><ele>538.0</ele><time>2026-04-03T12:05:09.715Z</time></trkpt><trkpt lat="43.0544106" lon="11.4910948"><ele>538.0</ele><time>2026-04-03T12:05:10.715Z</time></trkpt><trkpt lat="43.0543686" lon="11.4912064"><ele>538.0</ele><time>2026-04-03T12:05:11.716Z</time></trkpt><trkpt lat="43.0543731" lon="11.4913626"><ele>538.0</ele><time>2026-04-03T12:05:12.716Z</time></trkpt><trkpt lat="43.0543996" lon="11.4915479"><ele>537.3333333333334</ele><time>2026-04-03T12:05:13.715Z</time></trkpt><trkpt lat="43.0544311" lon="11.4917845"><ele>536.6666666666666</ele><time>2026-04-03T12:05:14.716Z</time></trkpt><trkpt lat="43.0544482" lon="11.4920469"><ele>536.0</ele><time>2026-04-03T12:05:15.716Z</time></trkpt><trkpt lat="43.0544605" lon="11.492293"><ele>532.0</ele><time>2026-04-03T12:05:16.715Z</time></trkpt><trkpt lat="43.0544472" lon="11.4925206"><ele>528.0</ele><time>2026-04-03T12:05:17.716Z</time></trkpt><trkpt lat="43.0544078" lon="11.4927466"><ele>524.0</ele><time>2026-04-03T12:05:18.716Z</time></trkpt><trkpt lat="43.0543622" lon="11.4929676"><ele>520.6666666666666</ele><time>2026-04-03T12:05:19.716Z</time></trkpt><trkpt lat="43.0542938" lon="11.4931642"><ele>517.3333333333334</ele><time>2026-04-03T12:05:20.716Z</time></trkpt><trkpt lat="43.0541918" lon="11.4933231"><ele>514.0</ele><time>2026-04-03T12:05:21.715Z</time></trkpt><trkpt lat="43.0540645" lon="11.4934592"><ele>514.0</ele><time>2026-04-03T12:05:22.716Z</time></trkpt><trkpt lat="43.0539177" lon="11.4935951"><ele>514.0</ele><time>2026-04-03T12:05:23.716Z</time></trkpt><trkpt lat="43.0537798" lon="11.4937485"><ele>514.0</ele><time>2026-04-03T12:05:24.715Z</time></trkpt><trkpt lat="43.0536527" lon="11.4939304"><ele>512.0</ele><time>2026-04-03T12:05:25.716Z</time></trkpt><trkpt lat="43.053562" lon="11.4941442"><ele>510.0</ele><time>2026-04-03T12:05:26.716Z</time></trkpt><trkpt lat="43.0535101" lon="11.4943856"><ele>508.0</ele><time>2026-04-03T12:05:27.716Z</time></trkpt><trkpt lat="43.0535003" lon="11.4946709"><ele>507.0</ele><time>2026-04-03T12:05:28.715Z</time></trkpt><trkpt lat="43.0535158" lon="11.4949649"><ele>506.0</ele><time>2026-04-03T12:05:29.716Z</time></trkpt><trkpt lat="43.053535" lon="11.4952671"><ele>505.0</ele><time>2026-04-03T12:05:30.716Z</time></trkpt><trkpt lat="43.0535513" lon="11.4955432"><ele>504.6666666666667</ele><time>2026-04-03T12:05:31.716Z</time></trkpt><trkpt lat="43.053549" lon="11.4958058"><ele>504.33333333333337</ele><time>2026-04-03T12:05:32.716Z</time></trkpt><trkpt lat="43.0535311" lon="11.4960747"><ele>504.0</ele><time>2026-04-03T12:05:33.716Z</time></trkpt><trkpt lat="43.0534967" lon="11.4963497"><ele>502.33333333333337</ele><time>2026-04-03T12:05:34.716Z</time></trkpt><trkpt lat="43.0534592" lon="11.4966242"><ele>500.6666666666667</ele><time>2026-04-03T12:05:35.716Z</time></trkpt><trkpt lat="43.0534167" lon="11.4968834"><ele>499.0</ele><time>2026-04-03T12:05:36.715Z</time></trkpt><trkpt lat="43.0533776" lon="11.4971233"><ele>498.0</ele><time>2026-04-03T12:05:37.715Z</time></trkpt><trkpt lat="43.0533127" lon="11.4973535"><ele>497.0</ele><time>2026-04-03T12:05:38.716Z</time></trkpt><trkpt lat="43.0532287" lon="11.4975826"><ele>496.0</ele><time>2026-04-03T12:05:39.716Z</time></trkpt><trkpt lat="43.0531351" lon="11.4978175"><ele>497.33333333333337</ele><time>2026-04-03T12:05:40.715Z</time></trkpt><trkpt lat="43.0530332" lon="11.4980581"><ele>498.66666666666663</ele><time>2026-04-03T12:05:41.716Z</time></trkpt><trkpt lat="43.0529227" lon="11.4983115"><ele>500.0</ele><time>2026-04-03T12:05:42.716Z</time></trkpt><trkpt lat="43.0528116" lon="11.4985688"><ele>495.0</ele><time>2026-04-03T12:05:43.716Z</time></trkpt><trkpt lat="43.0526988" lon="11.4988332"><ele>490.0</ele><time>2026-04-03T12:05:44.716Z</time></trkpt><trkpt lat="43.0525868" lon="11.4991069"><ele>490.0</ele><time>2026-04-03T12:05:45.716Z</time></trkpt><trkpt lat="43.0524767" lon="11.4993719"><ele>490.0</ele><time>2026-04-03T12:05:46.716Z</time></trkpt><trkpt lat="43.0523741" lon="11.4996241"><ele>490.0</ele><time>2026-04-03T12:05:47.715Z</time></trkpt><trkpt lat="43.0522736" lon="11.4998691"><ele>486.33333333333337</ele><time>2026-04-03T12:05:48.716Z</time></trkpt><trkpt lat="43.0521778" lon="11.5001062"><ele>482.66666666666663</ele><time>2026-04-03T12:05:49.715Z</time></trkpt><trkpt lat="43.0520904" lon="11.5003283"><ele>479.0</ele><time>2026-04-03T12:05:50.716Z</time></trkpt><trkpt lat="43.0520223" lon="11.5005468"><ele>477.3333333333333</ele><time>2026-04-03T12:05:51.716Z</time></trkpt><trkpt lat="43.0519716" lon="11.5007735"><ele>475.66666666666663</ele><time>2026-04-03T12:05:52.716Z</time></trkpt><trkpt lat="43.0519487" lon="11.5010169"><ele>474.0</ele><time>2026-04-03T12:05:53.716Z</time></trkpt><trkpt lat="43.0519507" lon="11.501282"><ele>472.33333333333337</ele><time>2026-04-03T12:05:54.715Z</time></trkpt><trkpt lat="43.0519564" lon="11.5015588"><ele>470.6666666666667</ele><time>2026-04-03T12:05:55.715Z</time></trkpt><trkpt lat="43.0519529" lon="11.5018136"><ele>469.0</ele><time>2026-04-03T12:05:56.716Z</time></trkpt><trkpt lat="43.0519333" lon="11.5020429"><ele>468.0</ele><time>2026-04-03T12:05:57.716Z</time></trkpt><trkpt lat="43.0518966" lon="11.5022583"><ele>467.0</ele><time>2026-04-03T12:05:58.716Z</time></trkpt><trkpt lat="43.0518405" lon="11.5024595"><ele>466.0</ele><time>2026-04-03T12:05:59.715Z</time></trkpt><trkpt lat="43.0517876" lon="11.5026525"><ele>466.0</ele><time>2026-04-03T12:06:00.716Z</time></trkpt><trkpt lat="43.0517548" lon="11.5028343"><ele>466.0</ele><time>2026-04-03T12:06:01.715Z</time></trkpt><trkpt lat="43.0517432" lon="11.5030102"><ele>466.0</ele><time>2026-04-03T12:06:02.715Z</time></trkpt><trkpt lat="43.0517668" lon="11.5031876"><ele>466.0</ele><time>2026-04-03T12:06:03.716Z</time></trkpt><trkpt lat="43.0518207" lon="11.5033633"><ele>465.5</ele><time>2026-04-03T12:06:04.716Z</time></trkpt><trkpt lat="43.0518894" lon="11.5035303"><ele>465.0</ele><time>2026-04-03T12:06:05.716Z</time></trkpt><trkpt lat="43.0519599" lon="11.5036745"><ele>464.5</ele><time>2026-04-03T12:06:06.716Z</time></trkpt><trkpt lat="43.0520212" lon="11.5038209"><ele>464.0</ele><time>2026-04-03T12:06:07.716Z</time></trkpt><trkpt lat="43.052072" lon="11.5039588"><ele>462.4</ele><time>2026-04-03T12:06:08.715Z</time></trkpt><trkpt lat="43.0521265" lon="11.5040909"><ele>460.79999999999995</ele><time>2026-04-03T12:06:09.715Z</time></trkpt><trkpt lat="43.0521758" lon="11.504217"><ele>459.20000000000005</ele><time>2026-04-03T12:06:10.716Z</time></trkpt><trkpt lat="43.0522172" lon="11.5043382"><ele>457.6</ele><time>2026-04-03T12:06:11.715Z</time></trkpt><trkpt lat="43.0522511" lon="11.5044478"><ele>456.0</ele><time>2026-04-03T12:06:12.715Z</time></trkpt><trkpt lat="43.05228" lon="11.5045527"><ele>454.85714285714283</ele><time>2026-04-03T12:06:13.716Z</time></trkpt><trkpt lat="43.0522926" lon="11.5046495"><ele>453.71428571428567</ele><time>2026-04-03T12:06:14.716Z</time></trkpt><trkpt lat="43.0523" lon="11.5047472"><ele>452.57142857142856</ele><time>2026-04-03T12:06:15.716Z</time></trkpt><trkpt lat="43.0522869" lon="11.5048425"><ele>451.42857142857144</ele><time>2026-04-03T12:06:16.715Z</time></trkpt><trkpt lat="43.0522673" lon="11.5049439"><ele>450.2857142857143</ele><time>2026-04-03T12:06:17.715Z</time></trkpt><trkpt lat="43.0522527" lon="11.5050544"><ele>449.1428571428571</ele><time>2026-04-03T12:06:18.716Z</time></trkpt><trkpt lat="43.0522428" lon="11.5051427"><ele>448.0</ele><time>2026-04-03T12:06:19.716Z</time></trkpt><trkpt lat="43.0522809" lon="11.5052148"><ele>448.0</ele><time>2026-04-03T12:06:22.716Z</time></trkpt><trkpt lat="43.0523557" lon="11.5051178"><ele>447.99999999999994</ele><time>2026-04-03T12:06:24.715Z</time></trkpt><trkpt lat="43.0524309" lon="11.5050446"><ele>447.99999999999994</ele><time>2026-04-03T12:06:25.715Z</time></trkpt><trkpt lat="43.0525341" lon="11.5050143"><ele>448.0</ele><time>2026-04-03T12:06:26.715Z</time></trkpt><trkpt lat="43.0526551" lon="11.5050263"><ele>448.0</ele><time>2026-04-03T12:06:27.716Z</time></trkpt><trkpt lat="43.0527999" lon="11.5050995"><ele>450.0</ele><time>2026-04-03T12:06:28.715Z</time></trkpt><trkpt lat="43.0529362" lon="11.5051935"><ele>452.0</ele><time>2026-04-03T12:06:29.715Z</time></trkpt><trkpt lat="43.0530442" lon="11.5052825"><ele>454.0</ele><time>2026-04-03T12:06:30.716Z</time></trkpt><trkpt lat="43.0531335" lon="11.5053899"><ele>456.0</ele><time>2026-04-03T12:06:31.716Z</time></trkpt><trkpt lat="43.0532009" lon="11.5055284"><ele>456.0</ele><time>2026-04-03T12:06:32.716Z</time></trkpt><trkpt lat="43.0532473" lon="11.5056923"><ele>456.0</ele><time>2026-04-03T12:06:33.716Z</time></trkpt><trkpt lat="43.0532598" lon="11.5059016"><ele>456.0</ele><time>2026-04-03T12:06:34.715Z</time></trkpt><trkpt lat="43.0532485" lon="11.5061571"><ele>455.0</ele><time>2026-04-03T12:06:35.716Z</time></trkpt><trkpt lat="43.0532115" lon="11.5064712"><ele>454.0</ele><time>2026-04-03T12:06:36.716Z</time></trkpt><trkpt lat="43.0531766" lon="11.5067585"><ele>453.0</ele><time>2026-04-03T12:06:37.716Z</time></trkpt><trkpt lat="43.0531505" lon="11.5070118"><ele>450.33333333333337</ele><time>2026-04-03T12:06:38.716Z</time></trkpt><trkpt lat="43.053123" lon="11.5072431"><ele>447.6666666666667</ele><time>2026-04-03T12:06:39.715Z</time></trkpt><trkpt lat="43.0530938" lon="11.5074767"><ele>445.0</ele><time>2026-04-03T12:06:40.715Z</time></trkpt><trkpt lat="43.0530648" lon="11.5077103"><ele>442.0</ele><time>2026-04-03T12:06:41.716Z</time></trkpt><trkpt lat="43.0530341" lon="11.5079535"><ele>439.0</ele><time>2026-04-03T12:06:42.716Z</time></trkpt><trkpt lat="43.053004" lon="11.5082011"><ele>436.0</ele><time>2026-04-03T12:06:43.716Z</time></trkpt><trkpt lat="43.0529877" lon="11.5084442"><ele>436.0</ele><time>2026-04-03T12:06:44.715Z</time></trkpt><trkpt lat="43.0529892" lon="11.5086742"><ele>436.0</ele><time>2026-04-03T12:06:45.716Z</time></trkpt><trkpt lat="43.0530164" lon="11.508913"><ele>436.0</ele><time>2026-04-03T12:06:46.716Z</time></trkpt><trkpt lat="43.0530692" lon="11.5091648"><ele>433.33333333333337</ele><time>2026-04-03T12:06:47.716Z</time></trkpt><trkpt lat="43.0531261" lon="11.5094077"><ele>430.66666666666663</ele><time>2026-04-03T12:06:48.716Z</time></trkpt><trkpt lat="43.0531781" lon="11.5096294"><ele>428.0</ele><time>2026-04-03T12:06:49.716Z</time></trkpt><trkpt lat="43.0532398" lon="11.5098349"><ele>427.0</ele><time>2026-04-03T12:06:50.716Z</time></trkpt><trkpt lat="43.0533332" lon="11.510032"><ele>426.0</ele><time>2026-04-03T12:06:51.715Z</time></trkpt><trkpt lat="43.0534599" lon="11.5102179"><ele>425.0</ele><time>2026-04-03T12:06:52.716Z</time></trkpt><trkpt lat="43.0536113" lon="11.5103778"><ele>422.66666666666663</ele><time>2026-04-03T12:06:53.716Z</time></trkpt><trkpt lat="43.0537668" lon="11.510497"><ele>420.33333333333337</ele><time>2026-04-03T12:06:54.715Z</time></trkpt><trkpt lat="43.0539347" lon="11.5105773"><ele>418.0</ele><time>2026-04-03T12:06:55.716Z</time></trkpt><trkpt lat="43.0540915" lon="11.5106194"><ele>417.33333333333337</ele><time>2026-04-03T12:06:56.715Z</time></trkpt><trkpt lat="43.0542518" lon="11.5106038"><ele>416.66666666666663</ele><time>2026-04-03T12:06:57.715Z</time></trkpt><trkpt lat="43.0544078" lon="11.5105494"><ele>416.0</ele><time>2026-04-03T12:06:58.716Z</time></trkpt><trkpt lat="43.0545604" lon="11.5104443"><ele>419.66666666666663</ele><time>2026-04-03T12:06:59.715Z</time></trkpt><trkpt lat="43.0546989" lon="11.5102956"><ele>423.33333333333337</ele><time>2026-04-03T12:07:00.716Z</time></trkpt><trkpt lat="43.0548337" lon="11.5101117"><ele>427.0</ele><time>2026-04-03T12:07:01.716Z</time></trkpt><trkpt lat="43.0549516" lon="11.5098866"><ele>422.6666666666667</ele><time>2026-04-03T12:07:02.716Z</time></trkpt><trkpt lat="43.0550528" lon="11.5096351"><ele>418.33333333333337</ele><time>2026-04-03T12:07:03.715Z</time></trkpt><trkpt lat="43.0551471" lon="11.5093896"><ele>414.0</ele><time>2026-04-03T12:07:04.716Z</time></trkpt><trkpt lat="43.0552477" lon="11.509155"><ele>414.0</ele><time>2026-04-03T12:07:05.716Z</time></trkpt><trkpt lat="43.0553784" lon="11.5089358"><ele>414.0</ele><time>2026-04-03T12:07:06.715Z</time></trkpt><trkpt lat="43.0555314" lon="11.5087417"><ele>414.0</ele><time>2026-04-03T12:07:07.716Z</time></trkpt><trkpt lat="43.0556681" lon="11.5085709"><ele>414.33333333333337</ele><time>2026-04-03T12:07:08.715Z</time></trkpt><trkpt lat="43.0557794" lon="11.5084231"><ele>414.6666666666667</ele><time>2026-04-03T12:07:09.716Z</time></trkpt><trkpt lat="43.0558659" lon="11.5082705"><ele>415.0</ele><time>2026-04-03T12:07:10.716Z</time></trkpt><trkpt lat="43.0559239" lon="11.5080681"><ele>408.6666666666667</ele><time>2026-04-03T12:07:11.715Z</time></trkpt><trkpt lat="43.0559491" lon="11.507836"><ele>402.33333333333337</ele><time>2026-04-03T12:07:12.716Z</time></trkpt><trkpt lat="43.0559584" lon="11.5075977"><ele>396.0</ele><time>2026-04-03T12:07:13.716Z</time></trkpt><trkpt lat="43.0559408" lon="11.507377"><ele>396.0</ele><time>2026-04-03T12:07:14.716Z</time></trkpt><trkpt lat="43.0558914" lon="11.5071807"><ele>396.0</ele><time>2026-04-03T12:07:15.715Z</time></trkpt><trkpt lat="43.0557992" lon="11.506983"><ele>396.0</ele><time>2026-04-03T12:07:16.715Z</time></trkpt><trkpt lat="43.0556814" lon="11.5067753"><ele>398.0</ele><time>2026-04-03T12:07:17.716Z</time></trkpt><trkpt lat="43.0555795" lon="11.5065692"><ele>400.0</ele><time>2026-04-03T12:07:18.716Z</time></trkpt><trkpt lat="43.0555128" lon="11.5063483"><ele>402.0</ele><time>2026-04-03T12:07:19.716Z</time></trkpt><trkpt lat="43.0554995" lon="11.5061115"><ele>402.0</ele><time>2026-04-03T12:07:20.715Z</time></trkpt><trkpt lat="43.055536" lon="11.5058528"><ele>402.0</ele><time>2026-04-03T12:07:21.716Z</time></trkpt><trkpt lat="43.0556165" lon="11.5055727"><ele>402.0</ele><time>2026-04-03T12:07:22.716Z</time></trkpt><trkpt lat="43.0557212" lon="11.5052637"><ele>394.0</ele><time>2026-04-03T12:07:23.716Z</time></trkpt><trkpt lat="43.0558307" lon="11.5049717"><ele>386.0</ele><time>2026-04-03T12:07:24.716Z</time></trkpt><trkpt lat="43.0559448" lon="11.5047096"><ele>387.3333333333333</ele><time>2026-04-03T12:07:25.716Z</time></trkpt><trkpt lat="43.0560681" lon="11.5044628"><ele>388.66666666666663</ele><time>2026-04-03T12:07:26.716Z</time></trkpt><trkpt lat="43.0561993" lon="11.5042422"><ele>390.0</ele><time>2026-04-03T12:07:27.716Z</time></trkpt><trkpt lat="43.0563613" lon="11.5040614"><ele>390.0</ele><time>2026-04-03T12:07:28.716Z</time></trkpt><trkpt lat="43.0565469" lon="11.503896"><ele>390.0</ele><time>2026-04-03T12:07:29.715Z</time></trkpt><trkpt lat="43.0567611" lon="11.5037525"><ele>387.0</ele><time>2026-04-03T12:07:30.716Z</time></trkpt><trkpt lat="43.056974" lon="11.5036374"><ele>384.0</ele><time>2026-04-03T12:07:31.716Z</time></trkpt><trkpt lat="43.0571844" lon="11.5035413"><ele>384.0</ele><time>2026-04-03T12:07:32.715Z</time></trkpt><trkpt lat="43.057377" lon="11.5034662"><ele>384.0</ele><time>2026-04-03T12:07:33.716Z</time></trkpt><trkpt lat="43.0575283" lon="11.5033984"><ele>384.0</ele><time>2026-04-03T12:07:34.716Z</time></trkpt><trkpt lat="43.0576423" lon="11.5033091"><ele>381.75</ele><time>2026-04-03T12:07:35.716Z</time></trkpt><trkpt lat="43.0577299" lon="11.5031819"><ele>379.5</ele><time>2026-04-03T12:07:36.715Z</time></trkpt><trkpt lat="43.0577758" lon="11.503017"><ele>377.25</ele><time>2026-04-03T12:07:37.715Z</time></trkpt><trkpt lat="43.0577816" lon="11.5028012"><ele>375.0</ele><time>2026-04-03T12:07:38.716Z</time></trkpt><trkpt lat="43.0577866" lon="11.5025804"><ele>375.0</ele><time>2026-04-03T12:07:39.716Z</time></trkpt><trkpt lat="43.057815" lon="11.5024002"><ele>375.0</ele><time>2026-04-03T12:07:40.715Z</time></trkpt><trkpt lat="43.05789" lon="11.5022461"><ele>375.0</ele><time>2026-04-03T12:07:41.715Z</time></trkpt><trkpt lat="43.057988" lon="11.5021454"><ele>375.0</ele><time>2026-04-03T12:07:42.716Z</time></trkpt><trkpt lat="43.0581097" lon="11.5020796"><ele>374.5</ele><time>2026-04-03T12:07:43.715Z</time></trkpt><trkpt lat="43.0582439" lon="11.5020584"><ele>374.0</ele><time>2026-04-03T12:07:44.716Z</time></trkpt><trkpt lat="43.0583718" lon="11.502055"><ele>373.5</ele><time>2026-04-03T12:07:45.715Z</time></trkpt><trkpt lat="43.0584914" lon="11.5020901"><ele>373.0</ele><time>2026-04-03T12:07:46.716Z</time></trkpt><trkpt lat="43.0586094" lon="11.5022121"><ele>369.0</ele><time>2026-04-03T12:07:47.716Z</time></trkpt><trkpt lat="43.0587369" lon="11.5023763"><ele>365.0</ele><time>2026-04-03T12:07:48.716Z</time></trkpt><trkpt lat="43.0588853" lon="11.5025505"><ele>361.0</ele><time>2026-04-03T12:07:49.716Z</time></trkpt><trkpt lat="43.0590362" lon="11.502721"><ele>361.3333333333333</ele><time>2026-04-03T12:07:50.715Z</time></trkpt><trkpt lat="43.0591824" lon="11.5028593"><ele>361.6666666666667</ele><time>2026-04-03T12:07:51.715Z</time></trkpt><trkpt lat="43.0593343" lon="11.5029505"><ele>362.0</ele><time>2026-04-03T12:07:52.715Z</time></trkpt><trkpt lat="43.0595154" lon="11.5030077"><ele>355.33333333333337</ele><time>2026-04-03T12:07:53.715Z</time></trkpt><trkpt lat="43.0597076" lon="11.5030492"><ele>348.6666666666667</ele><time>2026-04-03T12:07:54.716Z</time></trkpt><trkpt lat="43.0598947" lon="11.5030669"><ele>342.0</ele><time>2026-04-03T12:07:55.715Z</time></trkpt><trkpt lat="43.0600674" lon="11.5030549"><ele>340.0</ele><time>2026-04-03T12:07:56.716Z</time></trkpt><trkpt lat="43.0602273" lon="11.503005"><ele>338.0</ele><time>2026-04-03T12:07:57.716Z</time></trkpt><trkpt lat="43.0605011" lon="11.5027427"><ele>339.33333333333337</ele><time>2026-04-03T12:07:59.715Z</time></trkpt><trkpt lat="43.0606158" lon="11.5025622"><ele>340.6666666666667</ele><time>2026-04-03T12:08:00.715Z</time></trkpt><trkpt lat="43.0607267" lon="11.5023747"><ele>342.0</ele><time>2026-04-03T12:08:01.716Z</time></trkpt><trkpt lat="43.0608483" lon="11.5022399"><ele>342.0</ele><time>2026-04-03T12:08:02.715Z</time></trkpt><trkpt lat="43.0610129" lon="11.502137"><ele>342.0</ele><time>2026-04-03T12:08:03.716Z</time></trkpt><trkpt lat="43.0611907" lon="11.5020913"><ele>342.0</ele><time>2026-04-03T12:08:04.714Z</time></trkpt><trkpt lat="43.0613603" lon="11.5020601"><ele>342.0</ele><time>2026-04-03T12:08:05.715Z</time></trkpt><trkpt lat="43.0615316" lon="11.5020003"><ele>342.0</ele><time>2026-04-03T12:08:06.714Z</time></trkpt><trkpt lat="43.0617033" lon="11.5018837"><ele>342.0</ele><time>2026-04-03T12:08:07.715Z</time></trkpt><trkpt lat="43.0618897" lon="11.5017217"><ele>342.0</ele><time>2026-04-03T12:08:08.715Z</time></trkpt><trkpt lat="43.0620839" lon="11.5015405"><ele>342.0</ele><time>2026-04-03T12:08:09.714Z</time></trkpt><trkpt lat="43.0622758" lon="11.5013653"><ele>340.3333333333333</ele><time>2026-04-03T12:08:10.714Z</time></trkpt><trkpt lat="43.0624546" lon="11.5012021"><ele>338.66666666666663</ele><time>2026-04-03T12:08:11.714Z</time></trkpt><trkpt lat="43.0626322" lon="11.501081"><ele>337.0</ele><time>2026-04-03T12:08:12.715Z</time></trkpt><trkpt lat="43.0628086" lon="11.5010139"><ele>337.0</ele><time>2026-04-03T12:08:13.716Z</time></trkpt><trkpt lat="43.0630067" lon="11.5010078"><ele>337.0</ele><time>2026-04-03T12:08:14.716Z</time></trkpt><trkpt lat="43.0632104" lon="11.5010758"><ele>337.0</ele><time>2026-04-03T12:08:15.715Z</time></trkpt><trkpt lat="43.0634205" lon="11.5011797"><ele>330.0</ele><time>2026-04-03T12:08:16.716Z</time></trkpt><trkpt lat="43.0636331" lon="11.501294"><ele>323.0</ele><time>2026-04-03T12:08:17.715Z</time></trkpt><trkpt lat="43.0638571" lon="11.5014025"><ele>323.0</ele><time>2026-04-03T12:08:18.715Z</time></trkpt><trkpt lat="43.0640656" lon="11.5015057"><ele>323.0</ele><time>2026-04-03T12:08:19.715Z</time></trkpt><trkpt lat="43.0642527" lon="11.501602"><ele>323.0</ele><time>2026-04-03T12:08:20.716Z</time></trkpt><trkpt lat="43.0644304" lon="11.5016814"><ele>322.6666666666667</ele><time>2026-04-03T12:08:21.716Z</time></trkpt><trkpt lat="43.0646022" lon="11.5017282"><ele>322.3333333333333</ele><time>2026-04-03T12:08:22.715Z</time></trkpt><trkpt lat="43.0647662" lon="11.5017365"><ele>322.0</ele><time>2026-04-03T12:08:23.715Z</time></trkpt><trkpt lat="43.0649301" lon="11.5016892"><ele>321.66666666666663</ele><time>2026-04-03T12:08:24.715Z</time></trkpt><trkpt lat="43.0650822" lon="11.5015936"><ele>321.3333333333333</ele><time>2026-04-03T12:08:25.716Z</time></trkpt><trkpt lat="43.0652281" lon="11.5014431"><ele>321.0</ele><time>2026-04-03T12:08:26.715Z</time></trkpt><trkpt lat="43.0653629" lon="11.5012358"><ele>321.0</ele><time>2026-04-03T12:08:27.716Z</time></trkpt><trkpt lat="43.065485" lon="11.5009915"><ele>321.0</ele><time>2026-04-03T12:08:28.715Z</time></trkpt><trkpt lat="43.0656029" lon="11.5007408"><ele>321.0</ele><time>2026-04-03T12:08:29.715Z</time></trkpt><trkpt lat="43.0657191" lon="11.5005329"><ele>318.6666666666667</ele><time>2026-04-03T12:08:30.716Z</time></trkpt><trkpt lat="43.065844" lon="11.5003681"><ele>316.33333333333337</ele><time>2026-04-03T12:08:31.716Z</time></trkpt><trkpt lat="43.0659921" lon="11.5002366"><ele>314.0</ele><time>2026-04-03T12:08:32.715Z</time></trkpt><trkpt lat="43.0661788" lon="11.5001423"><ele>314.0</ele><time>2026-04-03T12:08:33.716Z</time></trkpt><trkpt lat="43.0663812" lon="11.5000686"><ele>314.0</ele><time>2026-04-03T12:08:34.716Z</time></trkpt><trkpt lat="43.0665886" lon="11.4999917"><ele>314.0</ele><time>2026-04-03T12:08:35.716Z</time></trkpt><trkpt lat="43.0667955" lon="11.4998862"><ele>310.0</ele><time>2026-04-03T12:08:36.715Z</time></trkpt><trkpt lat="43.067002" lon="11.4997531"><ele>306.0</ele><time>2026-04-03T12:08:37.715Z</time></trkpt><trkpt lat="43.0672089" lon="11.4996091"><ele>305.0</ele><time>2026-04-03T12:08:38.715Z</time></trkpt><trkpt lat="43.067413" lon="11.4994732"><ele>304.0</ele><time>2026-04-03T12:08:39.715Z</time></trkpt><trkpt lat="43.0676234" lon="11.4993538"><ele>304.0</ele><time>2026-04-03T12:08:40.716Z</time></trkpt><trkpt lat="43.0678493" lon="11.4992501"><ele>304.0</ele><time>2026-04-03T12:08:41.716Z</time></trkpt><trkpt lat="43.0680803" lon="11.4991608"><ele>299.0</ele><time>2026-04-03T12:08:42.716Z</time></trkpt><trkpt lat="43.0683242" lon="11.4990878"><ele>294.0</ele><time>2026-04-03T12:08:43.715Z</time></trkpt><trkpt lat="43.0685765" lon="11.4990185"><ele>294.0</ele><time>2026-04-03T12:08:44.716Z</time></trkpt><trkpt lat="43.0688363" lon="11.4989394"><ele>294.0</ele><time>2026-04-03T12:08:45.715Z</time></trkpt><trkpt lat="43.0691104" lon="11.4988561"><ele>291.5</ele><time>2026-04-03T12:08:46.716Z</time></trkpt><trkpt lat="43.0694029" lon="11.4987643"><ele>289.0</ele><time>2026-04-03T12:08:47.716Z</time></trkpt><trkpt lat="43.0696837" lon="11.4986715"><ele>289.0</ele><time>2026-04-03T12:08:48.716Z</time></trkpt><trkpt lat="43.0699304" lon="11.4985744"><ele>289.0</ele><time>2026-04-03T12:08:49.715Z</time></trkpt><trkpt lat="43.0701672" lon="11.4984586"><ele>287.0</ele><time>2026-04-03T12:08:50.715Z</time></trkpt><trkpt lat="43.0703966" lon="11.4983197"><ele>285.0</ele><time>2026-04-03T12:08:51.715Z</time></trkpt><trkpt lat="43.0706278" lon="11.4981616"><ele>284.0</ele><time>2026-04-03T12:08:52.715Z</time></trkpt><trkpt lat="43.0708586" lon="11.4979872"><ele>283.0</ele><time>2026-04-03T12:08:53.716Z</time></trkpt><trkpt lat="43.0710883" lon="11.4978102"><ele>280.0</ele><time>2026-04-03T12:08:54.716Z</time></trkpt><trkpt lat="43.0713068" lon="11.4976371"><ele>277.0</ele><time>2026-04-03T12:08:55.716Z</time></trkpt><trkpt lat="43.0715154" lon="11.4974774"><ele>278.5</ele><time>2026-04-03T12:08:56.715Z</time></trkpt><trkpt lat="43.071718" lon="11.4973186"><ele>280.0</ele><time>2026-04-03T12:08:57.715Z</time></trkpt><trkpt lat="43.0719213" lon="11.4971644"><ele>276.5</ele><time>2026-04-03T12:08:58.715Z</time></trkpt><trkpt lat="43.0721239" lon="11.4970169"><ele>273.0</ele><time>2026-04-03T12:08:59.716Z</time></trkpt><trkpt lat="43.0723259" lon="11.4968673"><ele>274.5</ele><time>2026-04-03T12:09:00.716Z</time></trkpt><trkpt lat="43.0725289" lon="11.4967253"><ele>276.0</ele><time>2026-04-03T12:09:01.716Z</time></trkpt><trkpt lat="43.072733" lon="11.4965932"><ele>276.0</ele><time>2026-04-03T12:09:02.715Z</time></trkpt><trkpt lat="43.0729459" lon="11.4964795"><ele>276.0</ele><time>2026-04-03T12:09:03.716Z</time></trkpt><trkpt lat="43.0731682" lon="11.4963801"><ele>274.5</ele><time>2026-04-03T12:09:04.715Z</time></trkpt><trkpt lat="43.0734" lon="11.4962861"><ele>273.0</ele><time>2026-04-03T12:09:05.716Z</time></trkpt><trkpt lat="43.0736394" lon="11.496171"><ele>269.0</ele><time>2026-04-03T12:09:06.716Z</time></trkpt><trkpt lat="43.0738777" lon="11.4960285"><ele>265.0</ele><time>2026-04-03T12:09:07.716Z</time></trkpt><trkpt lat="43.0741078" lon="11.4958578"><ele>264.5</ele><time>2026-04-03T12:09:08.716Z</time></trkpt><trkpt lat="43.0743367" lon="11.4956707"><ele>264.0</ele><time>2026-04-03T12:09:09.716Z</time></trkpt><trkpt lat="43.0745597" lon="11.4954777"><ele>262.0</ele><time>2026-04-03T12:09:10.716Z</time></trkpt><trkpt lat="43.0747725" lon="11.4952981"><ele>260.0</ele><time>2026-04-03T12:09:11.716Z</time></trkpt><trkpt lat="43.074966" lon="11.4951349"><ele>259.33333333333337</ele><time>2026-04-03T12:09:12.716Z</time></trkpt><trkpt lat="43.075143" lon="11.4949863"><ele>258.6666666666667</ele><time>2026-04-03T12:09:13.715Z</time></trkpt><trkpt lat="43.0753029" lon="11.4948544"><ele>258.0</ele><time>2026-04-03T12:09:14.716Z</time></trkpt><trkpt lat="43.0754572" lon="11.4947264"><ele>258.0</ele><time>2026-04-03T12:09:15.716Z</time></trkpt><trkpt lat="43.0756105" lon="11.4945886"><ele>258.0</ele><time>2026-04-03T12:09:16.716Z</time></trkpt><trkpt lat="43.0757659" lon="11.4944377"><ele>258.0</ele><time>2026-04-03T12:09:17.715Z</time></trkpt><trkpt lat="43.075912" lon="11.4942855"><ele>256.3333333333333</ele><time>2026-04-03T12:09:18.716Z</time></trkpt><trkpt lat="43.0760392" lon="11.494149"><ele>254.66666666666666</ele><time>2026-04-03T12:09:19.716Z</time></trkpt><trkpt lat="43.0761606" lon="11.4940249"><ele>253.0</ele><time>2026-04-03T12:09:20.716Z</time></trkpt><trkpt lat="43.0762857" lon="11.4938964"><ele>253.0</ele><time>2026-04-03T12:09:21.716Z</time></trkpt><trkpt lat="43.0764091" lon="11.4937674"><ele>253.0</ele><time>2026-04-03T12:09:22.716Z</time></trkpt><trkpt lat="43.07653" lon="11.4936405"><ele>253.0</ele><time>2026-04-03T12:09:23.716Z</time></trkpt><trkpt lat="43.0766543" lon="11.4935116"><ele>252.33333333333331</ele><time>2026-04-03T12:09:24.716Z</time></trkpt><trkpt lat="43.0767795" lon="11.4933803"><ele>251.66666666666669</ele><time>2026-04-03T12:09:25.715Z</time></trkpt><trkpt lat="43.0769028" lon="11.4932621"><ele>251.0</ele><time>2026-04-03T12:09:26.715Z</time></trkpt><trkpt lat="43.0770304" lon="11.4931671"><ele>251.0</ele><time>2026-04-03T12:09:27.715Z</time></trkpt><trkpt lat="43.0771588" lon="11.4930935"><ele>251.0</ele><time>2026-04-03T12:09:28.715Z</time></trkpt><trkpt lat="43.0772814" lon="11.4930263"><ele>251.0</ele><time>2026-04-03T12:09:29.715Z</time></trkpt><trkpt lat="43.0773894" lon="11.4929682"><ele>251.0</ele><time>2026-04-03T12:09:30.716Z</time></trkpt><trkpt lat="43.0774792" lon="11.4929163"><ele>250.83333333333334</ele><time>2026-04-03T12:09:31.715Z</time></trkpt><trkpt lat="43.0775675" lon="11.492869"><ele>250.66666666666669</ele><time>2026-04-03T12:09:33.716Z</time></trkpt><trkpt lat="43.0776467" lon="11.4928654"><ele>250.5</ele><time>2026-04-03T12:09:38.715Z</time></trkpt><trkpt lat="43.0777463" lon="11.4929138"><ele>250.33333333333331</ele><time>2026-04-03T12:09:40.716Z</time></trkpt><trkpt lat="43.077797" lon="11.4929664"><ele>250.16666666666666</ele><time>2026-04-03T12:09:41.716Z</time></trkpt><trkpt lat="43.0778654" lon="11.4930505"><ele>250.0</ele><time>2026-04-03T12:09:42.716Z</time></trkpt><trkpt lat="43.0779503" lon="11.493149"><ele>250.0</ele><time>2026-04-03T12:09:43.716Z</time></trkpt><trkpt lat="43.0780523" lon="11.493264"><ele>250.0</ele><time>2026-04-03T12:09:44.716Z</time></trkpt><trkpt lat="43.0781599" lon="11.493398"><ele>250.0</ele><time>2026-04-03T12:09:45.715Z</time></trkpt><trkpt lat="43.0782703" lon="11.4935465"><ele>250.0</ele><time>2026-04-03T12:09:46.716Z</time></trkpt><trkpt lat="43.0783839" lon="11.4937119"><ele>251.33333333333331</ele><time>2026-04-03T12:09:47.716Z</time></trkpt><trkpt lat="43.0784967" lon="11.4938825"><ele>252.66666666666669</ele><time>2026-04-03T12:09:48.716Z</time></trkpt><trkpt lat="43.0786037" lon="11.4940627"><ele>254.0</ele><time>2026-04-03T12:09:49.716Z</time></trkpt><trkpt lat="43.0787012" lon="11.4942612"><ele>254.0</ele><time>2026-04-03T12:09:50.716Z</time></trkpt><trkpt lat="43.0787859" lon="11.4944763"><ele>254.0</ele><time>2026-04-03T12:09:51.716Z</time></trkpt><trkpt lat="43.078865" lon="11.4947071"><ele>254.0</ele><time>2026-04-03T12:09:52.716Z</time></trkpt><trkpt lat="43.078938" lon="11.4949311"><ele>254.0</ele><time>2026-04-03T12:09:53.716Z</time></trkpt><trkpt lat="43.0790137" lon="11.4951417"><ele>254.0</ele><time>2026-04-03T12:09:54.715Z</time></trkpt><trkpt lat="43.0790895" lon="11.4953508"><ele>254.0</ele><time>2026-04-03T12:09:55.716Z</time></trkpt><trkpt lat="43.0791685" lon="11.4955835"><ele>256.6666666666667</ele><time>2026-04-03T12:09:56.716Z</time></trkpt><trkpt lat="43.0792513" lon="11.4958239"><ele>259.3333333333333</ele><time>2026-04-03T12:09:57.716Z</time></trkpt><trkpt lat="43.0793301" lon="11.4960579"><ele>262.0</ele><time>2026-04-03T12:09:58.716Z</time></trkpt><trkpt lat="43.0794008" lon="11.4962726"><ele>262.75</ele><time>2026-04-03T12:09:59.716Z</time></trkpt><trkpt lat="43.0794575" lon="11.4964554"><ele>263.5</ele><time>2026-04-03T12:10:00.716Z</time></trkpt><trkpt lat="43.0794989" lon="11.4966169"><ele>264.25</ele><time>2026-04-03T12:10:01.716Z</time></trkpt><trkpt lat="43.0795225" lon="11.4967621"><ele>265.0</ele><time>2026-04-03T12:10:02.715Z</time></trkpt><trkpt lat="43.0795372" lon="11.4968995"><ele>265.0</ele><time>2026-04-03T12:10:03.716Z</time></trkpt><trkpt lat="43.0795546" lon="11.4970392"><ele>265.0</ele><time>2026-04-03T12:10:04.715Z</time></trkpt><trkpt lat="43.0795821" lon="11.4971803"><ele>265.0</ele><time>2026-04-03T12:10:05.716Z</time></trkpt><trkpt lat="43.0796195" lon="11.4973267"><ele>265.0</ele><time>2026-04-03T12:10:06.715Z</time></trkpt><trkpt lat="43.0796641" lon="11.4974893"><ele>264.5</ele><time>2026-04-03T12:10:07.715Z</time></trkpt><trkpt lat="43.0797102" lon="11.4976551"><ele>264.0</ele><time>2026-04-03T12:10:08.716Z</time></trkpt><trkpt lat="43.0797603" lon="11.49783"><ele>263.5</ele><time>2026-04-03T12:10:09.716Z</time></trkpt><trkpt lat="43.079809" lon="11.4979942"><ele>263.0</ele><time>2026-04-03T12:10:10.716Z</time></trkpt><trkpt lat="43.0798539" lon="11.4981437"><ele>262.4</ele><time>2026-04-03T12:10:11.716Z</time></trkpt><trkpt lat="43.079895" lon="11.4982783"><ele>261.8</ele><time>2026-04-03T12:10:12.716Z</time></trkpt><trkpt lat="43.0799418" lon="11.4984033"><ele>261.2</ele><time>2026-04-03T12:10:13.716Z</time></trkpt><trkpt lat="43.0799943" lon="11.4985237"><ele>260.6</ele><time>2026-04-03T12:10:14.715Z</time></trkpt><trkpt lat="43.0800576" lon="11.498644"><ele>260.0</ele><time>2026-04-03T12:10:15.715Z</time></trkpt><trkpt lat="43.0801379" lon="11.4987718"><ele>262.6666666666667</ele><time>2026-04-03T12:10:16.715Z</time></trkpt><trkpt lat="43.0802375" lon="11.4989258"><ele>265.3333333333333</ele><time>2026-04-03T12:10:17.714Z</time></trkpt><trkpt lat="43.0803498" lon="11.4990938"><ele>268.0</ele><time>2026-04-03T12:10:18.714Z</time></trkpt><trkpt lat="43.0804699" lon="11.499274"><ele>268.0</ele><time>2026-04-03T12:10:19.715Z</time></trkpt><trkpt lat="43.0805893" lon="11.4994653"><ele>268.0</ele><time>2026-04-03T12:10:20.715Z</time></trkpt><trkpt lat="43.0807125" lon="11.4996539"><ele>268.0</ele><time>2026-04-03T12:10:21.714Z</time></trkpt><trkpt lat="43.0808244" lon="11.4998279"><ele>268.0</ele><time>2026-04-03T12:10:22.715Z</time></trkpt><trkpt lat="43.0809315" lon="11.4999797"><ele>268.0</ele><time>2026-04-03T12:10:23.715Z</time></trkpt><trkpt lat="43.0810364" lon="11.5001051"><ele>268.0</ele><time>2026-04-03T12:10:24.715Z</time></trkpt><trkpt lat="43.0811457" lon="11.5002024"><ele>268.0</ele><time>2026-04-03T12:10:25.714Z</time></trkpt><trkpt lat="43.0812677" lon="11.5002638"><ele>268.0</ele><time>2026-04-03T12:10:26.715Z</time></trkpt><trkpt lat="43.0814112" lon="11.500314"><ele>268.0</ele><time>2026-04-03T12:10:27.715Z</time></trkpt><trkpt lat="43.0815705" lon="11.5003567"><ele>268.0</ele><time>2026-04-03T12:10:28.714Z</time></trkpt><trkpt lat="43.0817299" lon="11.5003957"><ele>267.66666666666663</ele><time>2026-04-03T12:10:29.715Z</time></trkpt><trkpt lat="43.0818916" lon="11.5004328"><ele>267.3333333333333</ele><time>2026-04-03T12:10:30.714Z</time></trkpt><trkpt lat="43.0820592" lon="11.500482"><ele>267.0</ele><time>2026-04-03T12:10:31.715Z</time></trkpt><trkpt lat="43.0822278" lon="11.5005376"><ele>267.0</ele><time>2026-04-03T12:10:32.714Z</time></trkpt><trkpt lat="43.0823944" lon="11.5006052"><ele>267.0</ele><time>2026-04-03T12:10:33.715Z</time></trkpt><trkpt lat="43.0825574" lon="11.5006759"><ele>267.0</ele><time>2026-04-03T12:10:34.715Z</time></trkpt><trkpt lat="43.0827205" lon="11.5007677"><ele>268.0</ele><time>2026-04-03T12:10:35.714Z</time></trkpt><trkpt lat="43.0828858" lon="11.500859"><ele>269.0</ele><time>2026-04-03T12:10:36.715Z</time></trkpt><trkpt lat="43.0830548" lon="11.5009514"><ele>270.0</ele><time>2026-04-03T12:10:37.715Z</time></trkpt><trkpt lat="43.083208" lon="11.5010392"><ele>269.25</ele><time>2026-04-03T12:10:38.715Z</time></trkpt><trkpt lat="43.0833445" lon="11.5011188"><ele>268.5</ele><time>2026-04-03T12:10:39.715Z</time></trkpt><trkpt lat="43.0834652" lon="11.5011885"><ele>267.75</ele><time>2026-04-03T12:10:40.714Z</time></trkpt><trkpt lat="43.0835798" lon="11.5012551"><ele>267.0</ele><time>2026-04-03T12:10:41.714Z</time></trkpt><trkpt lat="43.0836881" lon="11.5013183"><ele>267.0</ele><time>2026-04-03T12:10:42.715Z</time></trkpt><trkpt lat="43.0837898" lon="11.5013804"><ele>267.0</ele><time>2026-04-03T12:10:43.714Z</time></trkpt><trkpt lat="43.0838921" lon="11.5014393"><ele>267.0</ele><time>2026-04-03T12:10:44.715Z</time></trkpt><trkpt lat="43.0839894" lon="11.501497"><ele>267.0</ele><time>2026-04-03T12:10:45.715Z</time></trkpt><trkpt lat="43.0840714" lon="11.5015461"><ele>267.0</ele><time>2026-04-03T12:10:46.715Z</time></trkpt><trkpt lat="43.0841338" lon="11.5015951"><ele>267.2</ele><time>2026-04-03T12:10:47.715Z</time></trkpt><trkpt lat="43.0842127" lon="11.5017138"><ele>267.4</ele><time>2026-04-03T12:10:49.714Z</time></trkpt><trkpt lat="43.084238" lon="11.5018445"><ele>267.6</ele><time>2026-04-03T12:10:51.715Z</time></trkpt><trkpt lat="43.0842257" lon="11.5019375"><ele>267.8</ele><time>2026-04-03T12:10:52.714Z</time></trkpt><trkpt lat="43.0841893" lon="11.502066"><ele>268.0</ele><time>2026-04-03T12:10:53.715Z</time></trkpt><trkpt lat="43.0841373" lon="11.5022254"><ele>268.0</ele><time>2026-04-03T12:10:54.715Z</time></trkpt><trkpt lat="43.084086" lon="11.5023986"><ele>268.0</ele><time>2026-04-03T12:10:55.715Z</time></trkpt><trkpt lat="43.0840495" lon="11.5025719"><ele>268.0</ele><time>2026-04-03T12:10:56.715Z</time></trkpt><trkpt lat="43.084028" lon="11.5027549"><ele>268.0</ele><time>2026-04-03T12:10:57.715Z</time></trkpt><trkpt lat="43.0840255" lon="11.5029505"><ele>269.5</ele><time>2026-04-03T12:10:58.714Z</time></trkpt><trkpt lat="43.0840367" lon="11.5031566"><ele>271.0</ele><time>2026-04-03T12:10:59.715Z</time></trkpt><trkpt lat="43.0840457" lon="11.5033531"><ele>272.5</ele><time>2026-04-03T12:11:00.715Z</time></trkpt><trkpt lat="43.0840352" lon="11.5035171"><ele>274.0</ele><time>2026-04-03T12:11:01.715Z</time></trkpt><trkpt lat="43.0840078" lon="11.5036722"><ele>275.0</ele><time>2026-04-03T12:11:02.715Z</time></trkpt><trkpt lat="43.0839628" lon="11.5038277"><ele>276.0</ele><time>2026-04-03T12:11:03.715Z</time></trkpt><trkpt lat="43.083904" lon="11.5039797"><ele>277.0</ele><time>2026-04-03T12:11:04.715Z</time></trkpt><trkpt lat="43.0838465" lon="11.5041093"><ele>278.0</ele><time>2026-04-03T12:11:05.715Z</time></trkpt><trkpt lat="43.0837891" lon="11.5042056"><ele>279.0</ele><time>2026-04-03T12:11:06.715Z</time></trkpt><trkpt lat="43.0837266" lon="11.5042696"><ele>279.0</ele><time>2026-04-03T12:11:07.714Z</time></trkpt><trkpt lat="43.0836531" lon="11.5042983"><ele>279.0</ele><time>2026-04-03T12:11:08.714Z</time></trkpt><trkpt lat="43.0835711" lon="11.5042977"><ele>279.0</ele><time>2026-04-03T12:11:09.714Z</time></trkpt><trkpt lat="43.0834763" lon="11.5042833"><ele>279.0</ele><time>2026-04-03T12:11:10.715Z</time></trkpt><trkpt lat="43.083361" lon="11.5042618"><ele>279.0</ele><time>2026-04-03T12:11:11.714Z</time></trkpt><trkpt lat="43.0832507" lon="11.5042436"><ele>280.8</ele><time>2026-04-03T12:11:12.715Z</time></trkpt><trkpt lat="43.0831648" lon="11.5042468"><ele>282.59999999999997</ele><time>2026-04-03T12:11:13.715Z</time></trkpt><trkpt lat="43.0830844" lon="11.5042803"><ele>284.4</ele><time>2026-04-03T12:11:14.715Z</time></trkpt><trkpt lat="43.0829984" lon="11.504343"><ele>286.2</ele><time>2026-04-03T12:11:15.714Z</time></trkpt><trkpt lat="43.0829136" lon="11.504437"><ele>288.0</ele><time>2026-04-03T12:11:16.715Z</time></trkpt><trkpt lat="43.0828277" lon="11.5045628"><ele>289.6666666666667</ele><time>2026-04-03T12:11:17.715Z</time></trkpt><trkpt lat="43.0827395" lon="11.504715"><ele>291.33333333333337</ele><time>2026-04-03T12:11:18.714Z</time></trkpt><trkpt lat="43.082639" lon="11.504898"><ele>293.0</ele><time>2026-04-03T12:11:19.715Z</time></trkpt><trkpt lat="43.0825272" lon="11.5050887"><ele>293.33333333333337</ele><time>2026-04-03T12:11:20.715Z</time></trkpt><trkpt lat="43.0824173" lon="11.505275"><ele>293.6666666666667</ele><time>2026-04-03T12:11:21.715Z</time></trkpt><trkpt lat="43.0822993" lon="11.505475"><ele>294.0</ele><time>2026-04-03T12:11:22.714Z</time></trkpt><trkpt lat="43.0821822" lon="11.5056767"><ele>296.0</ele><time>2026-04-03T12:11:23.715Z</time></trkpt><trkpt lat="43.0820792" lon="11.5058541"><ele>298.0</ele><time>2026-04-03T12:11:24.715Z</time></trkpt><trkpt lat="43.0819882" lon="11.5060116"><ele>300.0</ele><time>2026-04-03T12:11:25.715Z</time></trkpt><trkpt lat="43.0819035" lon="11.5061636"><ele>300.0</ele><time>2026-04-03T12:11:26.715Z</time></trkpt><trkpt lat="43.0818194" lon="11.5063055"><ele>300.0</ele><time>2026-04-03T12:11:27.714Z</time></trkpt><trkpt lat="43.0817377" lon="11.5064425"><ele>300.0</ele><time>2026-04-03T12:11:28.714Z</time></trkpt><trkpt lat="43.0816572" lon="11.5065744"><ele>300.0</ele><time>2026-04-03T12:11:29.715Z</time></trkpt><trkpt lat="43.0815838" lon="11.506708"><ele>299.25</ele><time>2026-04-03T12:11:30.715Z</time></trkpt><trkpt lat="43.081511" lon="11.5068431"><ele>298.5</ele><time>2026-04-03T12:11:31.715Z</time></trkpt><trkpt lat="43.0814328" lon="11.5069775"><ele>297.75</ele><time>2026-04-03T12:11:32.714Z</time></trkpt><trkpt lat="43.0813494" lon="11.507114"><ele>297.0</ele><time>2026-04-03T12:11:33.714Z</time></trkpt><trkpt lat="43.0812641" lon="11.5072547"><ele>299.5</ele><time>2026-04-03T12:11:34.715Z</time></trkpt><trkpt lat="43.0811748" lon="11.507398"><ele>302.0</ele><time>2026-04-03T12:11:35.715Z</time></trkpt><trkpt lat="43.0810884" lon="11.5075507"><ele>304.5</ele><time>2026-04-03T12:11:36.714Z</time></trkpt><trkpt lat="43.0810057" lon="11.5077022"><ele>307.0</ele><time>2026-04-03T12:11:37.715Z</time></trkpt><trkpt lat="43.0809211" lon="11.5078501"><ele>307.0</ele><time>2026-04-03T12:11:38.714Z</time></trkpt><trkpt lat="43.0808327" lon="11.508002"><ele>307.0</ele><time>2026-04-03T12:11:39.715Z</time></trkpt><trkpt lat="43.0807375" lon="11.5081642"><ele>307.0</ele><time>2026-04-03T12:11:40.714Z</time></trkpt><trkpt lat="43.0806362" lon="11.5083288"><ele>307.0</ele><time>2026-04-03T12:11:41.715Z</time></trkpt><trkpt lat="43.0805438" lon="11.5084883"><ele>307.0</ele><time>2026-04-03T12:11:42.715Z</time></trkpt><trkpt lat="43.0804619" lon="11.5086419"><ele>307.0</ele><time>2026-04-03T12:11:43.715Z</time></trkpt><trkpt lat="43.0803841" lon="11.508804"><ele>307.0</ele><time>2026-04-03T12:11:44.715Z</time></trkpt><trkpt lat="43.0803081" lon="11.5089687"><ele>307.25</ele><time>2026-04-03T12:11:45.715Z</time></trkpt><trkpt lat="43.080233" lon="11.5091344"><ele>307.5</ele><time>2026-04-03T12:11:46.715Z</time></trkpt><trkpt lat="43.0801602" lon="11.5092983"><ele>307.75</ele><time>2026-04-03T12:11:47.715Z</time></trkpt><trkpt lat="43.0800931" lon="11.5094565"><ele>308.0</ele><time>2026-04-03T12:11:48.715Z</time></trkpt><trkpt lat="43.080034" lon="11.5096081"><ele>308.0</ele><time>2026-04-03T12:11:49.715Z</time></trkpt><trkpt lat="43.0799833" lon="11.5097589"><ele>308.0</ele><time>2026-04-03T12:11:50.715Z</time></trkpt><trkpt lat="43.0799458" lon="11.5099139"><ele>308.0</ele><time>2026-04-03T12:11:51.715Z</time></trkpt><trkpt lat="43.0799188" lon="11.5100687"><ele>308.0</ele><time>2026-04-03T12:11:52.714Z</time></trkpt><trkpt lat="43.0799091" lon="11.5102262"><ele>308.75</ele><time>2026-04-03T12:11:53.714Z</time></trkpt><trkpt lat="43.0799093" lon="11.5103838"><ele>309.5</ele><time>2026-04-03T12:11:54.714Z</time></trkpt><trkpt lat="43.0799209" lon="11.5105485"><ele>310.25</ele><time>2026-04-03T12:11:55.715Z</time></trkpt><trkpt lat="43.0799345" lon="11.5107188"><ele>311.0</ele><time>2026-04-03T12:11:56.715Z</time></trkpt><trkpt lat="43.0799489" lon="11.5108823"><ele>311.0</ele><time>2026-04-03T12:11:57.714Z</time></trkpt><trkpt lat="43.0799608" lon="11.5110298"><ele>311.0</ele><time>2026-04-03T12:11:58.714Z</time></trkpt><trkpt lat="43.0799812" lon="11.5111762"><ele>311.0</ele><time>2026-04-03T12:11:59.715Z</time></trkpt><trkpt lat="43.0800152" lon="11.5113244"><ele>311.0</ele><time>2026-04-03T12:12:00.714Z</time></trkpt><trkpt lat="43.0800643" lon="11.5114799"><ele>310.75</ele><time>2026-04-03T12:12:01.715Z</time></trkpt><trkpt lat="43.0801275" lon="11.5116445"><ele>310.5</ele><time>2026-04-03T12:12:02.715Z</time></trkpt><trkpt lat="43.0802086" lon="11.5118086"><ele>310.25</ele><time>2026-04-03T12:12:03.715Z</time></trkpt><trkpt lat="43.0803056" lon="11.5119858"><ele>310.0</ele><time>2026-04-03T12:12:04.715Z</time></trkpt><trkpt lat="43.0804111" lon="11.512177"><ele>310.5</ele><time>2026-04-03T12:12:05.715Z</time></trkpt><trkpt lat="43.0805093" lon="11.5123545"><ele>311.0</ele><time>2026-04-03T12:12:06.714Z</time></trkpt><trkpt lat="43.0805941" lon="11.5125083"><ele>311.5</ele><time>2026-04-03T12:12:07.715Z</time></trkpt><trkpt lat="43.0806673" lon="11.512651"><ele>312.0</ele><time>2026-04-03T12:12:08.715Z</time></trkpt><trkpt lat="43.080743" lon="11.5127846"><ele>314.4</ele><time>2026-04-03T12:12:09.715Z</time></trkpt><trkpt lat="43.0808133" lon="11.5129107"><ele>316.79999999999995</ele><time>2026-04-03T12:12:10.714Z</time></trkpt><trkpt lat="43.080888" lon="11.5130109"><ele>319.2</ele><time>2026-04-03T12:12:11.715Z</time></trkpt><trkpt lat="43.0809649" lon="11.5130899"><ele>321.59999999999997</ele><time>2026-04-03T12:12:12.715Z</time></trkpt><trkpt lat="43.081046" lon="11.513149"><ele>324.0</ele><time>2026-04-03T12:12:13.715Z</time></trkpt><trkpt lat="43.0811328" lon="11.5131808"><ele>324.0</ele><time>2026-04-03T12:12:14.714Z</time></trkpt><trkpt lat="43.0812242" lon="11.5131927"><ele>324.0</ele><time>2026-04-03T12:12:15.715Z</time></trkpt><trkpt lat="43.0813233" lon="11.5131892"><ele>324.0</ele><time>2026-04-03T12:12:16.715Z</time></trkpt><trkpt lat="43.0814195" lon="11.513184"><ele>324.0</ele><time>2026-04-03T12:12:17.715Z</time></trkpt><trkpt lat="43.0815084" lon="11.5131975"><ele>324.0</ele><time>2026-04-03T12:12:18.714Z</time></trkpt><trkpt lat="43.081594" lon="11.5132343"><ele>324.5</ele><time>2026-04-03T12:12:19.714Z</time></trkpt><trkpt lat="43.0816809" lon="11.513305"><ele>325.0</ele><time>2026-04-03T12:12:20.715Z</time></trkpt><trkpt lat="43.0817588" lon="11.5133853"><ele>325.5</ele><time>2026-04-03T12:12:21.715Z</time></trkpt><trkpt lat="43.0818158" lon="11.5134487"><ele>326.0</ele><time>2026-04-03T12:12:22.714Z</time></trkpt><trkpt lat="43.0818648" lon="11.5135062"><ele>326.5</ele><time>2026-04-03T12:12:23.715Z</time></trkpt><trkpt lat="43.0819448" lon="11.5136128"><ele>327.0</ele><time>2026-04-03T12:12:25.715Z</time></trkpt><trkpt lat="43.0820083" lon="11.5137204"><ele>327.20000000000005</ele><time>2026-04-03T12:12:27.715Z</time></trkpt><trkpt lat="43.0820795" lon="11.5138323"><ele>327.4</ele><time>2026-04-03T12:12:29.714Z</time></trkpt><trkpt lat="43.0821519" lon="11.5139497"><ele>327.6</ele><time>2026-04-03T12:12:31.714Z</time></trkpt><trkpt lat="43.0822229" lon="11.5140565"><ele>327.79999999999995</ele><time>2026-04-03T12:12:33.714Z</time></trkpt><trkpt lat="43.0822984" lon="11.5141615"><ele>328.0</ele><time>2026-04-03T12:12:35.715Z</time></trkpt><trkpt lat="43.0823853" lon="11.5142598"><ele>327.79999999999995</ele><time>2026-04-03T12:12:37.715Z</time></trkpt><trkpt lat="43.082486" lon="11.5143552"><ele>327.6</ele><time>2026-04-03T12:12:39.714Z</time></trkpt><trkpt lat="43.0825855" lon="11.514449"><ele>327.4</ele><time>2026-04-03T12:12:41.714Z</time></trkpt><trkpt lat="43.0826413" lon="11.5145003"><ele>327.20000000000005</ele><time>2026-04-03T12:12:42.715Z</time></trkpt><trkpt lat="43.0827038" lon="11.514556"><ele>327.0</ele><time>2026-04-03T12:12:43.714Z</time></trkpt><trkpt lat="43.0827722" lon="11.5146133"><ele>327.0</ele><time>2026-04-03T12:12:44.715Z</time></trkpt><trkpt lat="43.0828455" lon="11.5146744"><ele>327.0</ele><time>2026-04-03T12:12:45.715Z</time></trkpt><trkpt lat="43.0829263" lon="11.5147393"><ele>327.0</ele><time>2026-04-03T12:12:46.715Z</time></trkpt><trkpt lat="43.0830103" lon="11.5148059"><ele>327.0</ele><time>2026-04-03T12:12:47.715Z</time></trkpt><trkpt lat="43.0830991" lon="11.5148686"><ele>327.0</ele><time>2026-04-03T12:12:48.715Z</time></trkpt><trkpt lat="43.0831956" lon="11.5149223"><ele>326.40000000000003</ele><time>2026-04-03T12:12:49.714Z</time></trkpt><trkpt lat="43.083298" lon="11.5149643"><ele>325.8</ele><time>2026-04-03T12:12:50.714Z</time></trkpt><trkpt lat="43.083404" lon="11.5150008"><ele>325.2</ele><time>2026-04-03T12:12:51.715Z</time></trkpt><trkpt lat="43.0835179" lon="11.5150307"><ele>324.6</ele><time>2026-04-03T12:12:52.714Z</time></trkpt><trkpt lat="43.0836286" lon="11.5150509"><ele>324.0</ele><time>2026-04-03T12:12:53.715Z</time></trkpt><trkpt lat="43.0837246" lon="11.5150667"><ele>324.0</ele><time>2026-04-03T12:12:54.715Z</time></trkpt><trkpt lat="43.0838063" lon="11.5150706"><ele>324.0</ele><time>2026-04-03T12:12:55.715Z</time></trkpt><trkpt lat="43.0838987" lon="11.5150564"><ele>324.0</ele><time>2026-04-03T12:12:56.715Z</time></trkpt><trkpt lat="43.0839963" lon="11.5150222"><ele>324.0</ele><time>2026-04-03T12:12:57.714Z</time></trkpt><trkpt lat="43.0840956" lon="11.5149683"><ele>324.0</ele><time>2026-04-03T12:12:58.715Z</time></trkpt><trkpt lat="43.0841939" lon="11.5149146"><ele>323.25</ele><time>2026-04-03T12:12:59.715Z</time></trkpt><trkpt lat="43.0842912" lon="11.5148717"><ele>322.5</ele><time>2026-04-03T12:13:00.715Z</time></trkpt><trkpt lat="43.0843953" lon="11.5148443"><ele>321.75</ele><time>2026-04-03T12:13:01.715Z</time></trkpt><trkpt lat="43.0845111" lon="11.5148277"><ele>321.0</ele><time>2026-04-03T12:13:02.715Z</time></trkpt><trkpt lat="43.084649" lon="11.5148295"><ele>321.0</ele><time>2026-04-03T12:13:03.714Z</time></trkpt><trkpt lat="43.0847919" lon="11.5148343"><ele>321.0</ele><time>2026-04-03T12:13:04.715Z</time></trkpt><trkpt lat="43.0849226" lon="11.514841"><ele>321.0</ele><time>2026-04-03T12:13:05.715Z</time></trkpt><trkpt lat="43.0850417" lon="11.5148441"><ele>321.0</ele><time>2026-04-03T12:13:06.714Z</time></trkpt><trkpt lat="43.0851496" lon="11.5148547"><ele>320.2</ele><time>2026-04-03T12:13:07.714Z</time></trkpt><trkpt lat="43.0852485" lon="11.5148727"><ele>319.40000000000003</ele><time>2026-04-03T12:13:08.715Z</time></trkpt><trkpt lat="43.0853493" lon="11.5149069"><ele>318.6</ele><time>2026-04-03T12:13:09.715Z</time></trkpt><trkpt lat="43.0854499" lon="11.5149591"><ele>317.8</ele><time>2026-04-03T12:13:10.715Z</time></trkpt><trkpt lat="43.085543" lon="11.5150307"><ele>317.0</ele><time>2026-04-03T12:13:11.715Z</time></trkpt><trkpt lat="43.0856324" lon="11.5151284"><ele>317.0</ele><time>2026-04-03T12:13:12.715Z</time></trkpt><trkpt lat="43.0857043" lon="11.5152323"><ele>317.0</ele><time>2026-04-03T12:13:13.715Z</time></trkpt><trkpt lat="43.0857644" lon="11.5153258"><ele>317.0</ele><time>2026-04-03T12:13:14.715Z</time></trkpt><trkpt lat="43.0858204" lon="11.5154092"><ele>317.0</ele><time>2026-04-03T12:13:15.715Z</time></trkpt><trkpt lat="43.0858837" lon="11.5154819"><ele>317.0</ele><time>2026-04-03T12:13:16.715Z</time></trkpt><trkpt lat="43.0859635" lon="11.5155475"><ele>316.0</ele><time>2026-04-03T12:13:17.715Z</time></trkpt><trkpt lat="43.0860479" lon="11.5156109"><ele>315.0</ele><time>2026-04-03T12:13:18.715Z</time></trkpt><trkpt lat="43.0861249" lon="11.515677"><ele>314.0</ele><time>2026-04-03T12:13:19.714Z</time></trkpt><trkpt lat="43.0861977" lon="11.5157493"><ele>313.0</ele><time>2026-04-03T12:13:20.714Z</time></trkpt><trkpt lat="43.0862714" lon="11.5158396"><ele>312.0</ele><time>2026-04-03T12:13:21.714Z</time></trkpt><trkpt lat="43.0863394" lon="11.5159456"><ele>312.0</ele><time>2026-04-03T12:13:22.714Z</time></trkpt><trkpt lat="43.0864027" lon="11.5160554"><ele>312.0</ele><time>2026-04-03T12:13:23.714Z</time></trkpt><trkpt lat="43.0864543" lon="11.5161617"><ele>312.0</ele><time>2026-04-03T12:13:24.714Z</time></trkpt><trkpt lat="43.086497" lon="11.5162755"><ele>312.0</ele><time>2026-04-03T12:13:25.715Z</time></trkpt><trkpt lat="43.0865328" lon="11.5163988"><ele>312.0</ele><time>2026-04-03T12:13:26.715Z</time></trkpt><trkpt lat="43.0865575" lon="11.5165324"><ele>310.4</ele><time>2026-04-03T12:13:27.714Z</time></trkpt><trkpt lat="43.0865623" lon="11.5166701"><ele>308.79999999999995</ele><time>2026-04-03T12:13:28.715Z</time></trkpt><trkpt lat="43.0865603" lon="11.5168096"><ele>307.2</ele><time>2026-04-03T12:13:29.714Z</time></trkpt><trkpt lat="43.0865491" lon="11.5169489"><ele>305.59999999999997</ele><time>2026-04-03T12:13:30.715Z</time></trkpt><trkpt lat="43.0865353" lon="11.5170856"><ele>304.0</ele><time>2026-04-03T12:13:31.715Z</time></trkpt><trkpt lat="43.0865202" lon="11.5172204"><ele>303.0</ele><time>2026-04-03T12:13:32.714Z</time></trkpt><trkpt lat="43.0865084" lon="11.5173608"><ele>302.0</ele><time>2026-04-03T12:13:33.714Z</time></trkpt><trkpt lat="43.0865006" lon="11.5175004"><ele>301.0</ele><time>2026-04-03T12:13:34.715Z</time></trkpt><trkpt lat="43.0864897" lon="11.5176469"><ele>300.0</ele><time>2026-04-03T12:13:35.714Z</time></trkpt><trkpt lat="43.086478" lon="11.5177949"><ele>299.0</ele><time>2026-04-03T12:13:36.715Z</time></trkpt><trkpt lat="43.0864631" lon="11.5179482"><ele>298.25</ele><time>2026-04-03T12:13:37.714Z</time></trkpt><trkpt lat="43.0864463" lon="11.5181063"><ele>297.5</ele><time>2026-04-03T12:13:38.715Z</time></trkpt><trkpt lat="43.0864314" lon="11.5182675"><ele>296.75</ele><time>2026-04-03T12:13:39.715Z</time></trkpt><trkpt lat="43.0864167" lon="11.518433"><ele>296.0</ele><time>2026-04-03T12:13:40.714Z</time></trkpt><trkpt lat="43.0864028" lon="11.5186023"><ele>295.6</ele><time>2026-04-03T12:13:41.715Z</time></trkpt><trkpt lat="43.0863866" lon="11.5187677"><ele>295.20000000000005</ele><time>2026-04-03T12:13:42.714Z</time></trkpt><trkpt lat="43.0863688" lon="11.5189193"><ele>294.79999999999995</ele><time>2026-04-03T12:13:43.715Z</time></trkpt><trkpt lat="43.086353" lon="11.5190592"><ele>294.4</ele><time>2026-04-03T12:13:44.714Z</time></trkpt><trkpt lat="43.0863369" lon="11.5191936"><ele>294.0</ele><time>2026-04-03T12:13:45.714Z</time></trkpt><trkpt lat="43.0863212" lon="11.5193185"><ele>294.0</ele><time>2026-04-03T12:13:46.715Z</time></trkpt><trkpt lat="43.0863042" lon="11.5194413"><ele>294.0</ele><time>2026-04-03T12:13:47.715Z</time></trkpt><trkpt lat="43.0862893" lon="11.5195636"><ele>294.0</ele><time>2026-04-03T12:13:48.715Z</time></trkpt><trkpt lat="43.0862755" lon="11.5196926"><ele>294.0</ele><time>2026-04-03T12:13:49.715Z</time></trkpt><trkpt lat="43.0862601" lon="11.5198229"><ele>294.0</ele><time>2026-04-03T12:13:50.714Z</time></trkpt><trkpt lat="43.0862435" lon="11.5199451"><ele>294.3333333333333</ele><time>2026-04-03T12:13:51.715Z</time></trkpt><trkpt lat="43.0862285" lon="11.520055"><ele>294.6666666666667</ele><time>2026-04-03T12:13:52.715Z</time></trkpt><trkpt lat="43.0862147" lon="11.520161"><ele>295.0</ele><time>2026-04-03T12:13:53.714Z</time></trkpt><trkpt lat="43.0861991" lon="11.5202711"><ele>295.33333333333337</ele><time>2026-04-03T12:13:54.715Z</time></trkpt><trkpt lat="43.0861759" lon="11.5203849"><ele>295.6666666666667</ele><time>2026-04-03T12:13:55.715Z</time></trkpt><trkpt lat="43.0861436" lon="11.5205077"><ele>296.0</ele><time>2026-04-03T12:13:56.715Z</time></trkpt><trkpt lat="43.0861008" lon="11.5206363"><ele>296.75</ele><time>2026-04-03T12:13:57.715Z</time></trkpt><trkpt lat="43.0860529" lon="11.5207604"><ele>297.5</ele><time>2026-04-03T12:13:58.715Z</time></trkpt><trkpt lat="43.0859367" lon="11.5209676"><ele>298.25</ele><time>2026-04-03T12:14:00.714Z</time></trkpt><trkpt lat="43.08587" lon="11.5210651"><ele>299.0</ele><time>2026-04-03T12:14:01.715Z</time></trkpt><trkpt lat="43.0857962" lon="11.5211538"><ele>298.8</ele><time>2026-04-03T12:14:02.715Z</time></trkpt><trkpt lat="43.0857182" lon="11.5212336"><ele>298.59999999999997</ele><time>2026-04-03T12:14:03.715Z</time></trkpt><trkpt lat="43.0856343" lon="11.5213049"><ele>298.4</ele><time>2026-04-03T12:14:04.715Z</time></trkpt><trkpt lat="43.0855471" lon="11.5213688"><ele>298.2</ele><time>2026-04-03T12:14:05.715Z</time></trkpt><trkpt lat="43.0854586" lon="11.5214267"><ele>298.0</ele><time>2026-04-03T12:14:06.715Z</time></trkpt><trkpt lat="43.0853705" lon="11.5214738"><ele>298.0</ele><time>2026-04-03T12:14:07.714Z</time></trkpt><trkpt lat="43.085287" lon="11.5215131"><ele>298.0</ele><time>2026-04-03T12:14:08.714Z</time></trkpt><trkpt lat="43.085213" lon="11.5215416"><ele>298.0</ele><time>2026-04-03T12:14:09.714Z</time></trkpt><trkpt lat="43.0851336" lon="11.5215719"><ele>298.0</ele><time>2026-04-03T12:14:10.714Z</time></trkpt><trkpt lat="43.0850515" lon="11.521601"><ele>298.0</ele><time>2026-04-03T12:14:11.715Z</time></trkpt><trkpt lat="43.0849718" lon="11.5216306"><ele>298.0</ele><time>2026-04-03T12:14:12.715Z</time></trkpt><trkpt lat="43.0848873" lon="11.5216597"><ele>297.4</ele><time>2026-04-03T12:14:13.714Z</time></trkpt><trkpt lat="43.0848005" lon="11.5216919"><ele>296.8</ele><time>2026-04-03T12:14:14.714Z</time></trkpt><trkpt lat="43.0847111" lon="11.5217312"><ele>296.2</ele><time>2026-04-03T12:14:15.715Z</time></trkpt><trkpt lat="43.0846206" lon="11.5217772"><ele>295.6</ele><time>2026-04-03T12:14:16.715Z</time></trkpt><trkpt lat="43.0845299" lon="11.5218255"><ele>295.0</ele><time>2026-04-03T12:14:17.714Z</time></trkpt><trkpt lat="43.0844408" lon="11.521868"><ele>295.0</ele><time>2026-04-03T12:14:18.715Z</time></trkpt><trkpt lat="43.084353" lon="11.5219146"><ele>295.0</ele><time>2026-04-03T12:14:19.715Z</time></trkpt><trkpt lat="43.0842651" lon="11.5219597"><ele>295.0</ele><time>2026-04-03T12:14:20.714Z</time></trkpt><trkpt lat="43.0841832" lon="11.5219998"><ele>295.0</ele><time>2026-04-03T12:14:21.714Z</time></trkpt><trkpt lat="43.0840999" lon="11.5220402"><ele>295.0</ele><time>2026-04-03T12:14:22.715Z</time></trkpt><trkpt lat="43.08402" lon="11.5220812"><ele>295.0</ele><time>2026-04-03T12:14:23.715Z</time></trkpt><trkpt lat="43.0839411" lon="11.5221272"><ele>295.66666666666663</ele><time>2026-04-03T12:14:24.714Z</time></trkpt><trkpt lat="43.0838647" lon="11.5221751"><ele>296.3333333333333</ele><time>2026-04-03T12:14:25.715Z</time></trkpt><trkpt lat="43.0837904" lon="11.5222236"><ele>297.0</ele><time>2026-04-03T12:14:26.715Z</time></trkpt><trkpt lat="43.0837213" lon="11.5222849"><ele>297.6666666666667</ele><time>2026-04-03T12:14:27.715Z</time></trkpt><trkpt lat="43.0836562" lon="11.522362"><ele>298.33333333333337</ele><time>2026-04-03T12:14:28.715Z</time></trkpt><trkpt lat="43.0835968" lon="11.5224505"><ele>299.0</ele><time>2026-04-03T12:14:29.715Z</time></trkpt><trkpt lat="43.0835452" lon="11.5225474"><ele>299.0</ele><time>2026-04-03T12:14:30.715Z</time></trkpt><trkpt lat="43.0835032" lon="11.5226481"><ele>299.0</ele><time>2026-04-03T12:14:31.714Z</time></trkpt><trkpt lat="43.0834602" lon="11.5227505"><ele>299.0</ele><time>2026-04-03T12:14:32.715Z</time></trkpt><trkpt lat="43.0834288" lon="11.5228635"><ele>299.0</ele><time>2026-04-03T12:14:33.714Z</time></trkpt><trkpt lat="43.0833932" lon="11.5229817"><ele>299.0</ele><time>2026-04-03T12:14:34.715Z</time></trkpt><trkpt lat="43.0833632" lon="11.5231022"><ele>299.0</ele><time>2026-04-03T12:14:35.714Z</time></trkpt><trkpt lat="43.0833376" lon="11.5232194"><ele>299.0</ele><time>2026-04-03T12:14:36.714Z</time></trkpt><trkpt lat="43.0833151" lon="11.5233199"><ele>299.0</ele><time>2026-04-03T12:14:37.714Z</time></trkpt><trkpt lat="43.083295" lon="11.5234207"><ele>299.0</ele><time>2026-04-03T12:14:38.715Z</time></trkpt><trkpt lat="43.0832732" lon="11.5235271"><ele>299.0</ele><time>2026-04-03T12:14:39.714Z</time></trkpt><trkpt lat="43.0832505" lon="11.5236303"><ele>299.0</ele><time>2026-04-03T12:14:40.714Z</time></trkpt><trkpt lat="43.0832295" lon="11.52372"><ele>299.0</ele><time>2026-04-03T12:14:41.715Z</time></trkpt><trkpt lat="43.0832026" lon="11.5238072"><ele>298.6666666666667</ele><time>2026-04-03T12:14:42.715Z</time></trkpt><trkpt lat="43.0831685" lon="11.5238811"><ele>298.33333333333337</ele><time>2026-04-03T12:14:43.715Z</time></trkpt><trkpt lat="43.0831243" lon="11.5239526"><ele>298.0</ele><time>2026-04-03T12:14:44.715Z</time></trkpt><trkpt lat="43.0830683" lon="11.5240256"><ele>297.6666666666667</ele><time>2026-04-03T12:14:45.715Z</time></trkpt><trkpt lat="43.0829954" lon="11.5240912"><ele>297.3333333333333</ele><time>2026-04-03T12:14:46.715Z</time></trkpt><trkpt lat="43.0829129" lon="11.5241472"><ele>297.0</ele><time>2026-04-03T12:14:47.715Z</time></trkpt><trkpt lat="43.0828277" lon="11.5241954"><ele>297.0</ele><time>2026-04-03T12:14:48.714Z</time></trkpt><trkpt lat="43.0827362" lon="11.524239"><ele>297.0</ele><time>2026-04-03T12:14:49.715Z</time></trkpt><trkpt lat="43.0826473" lon="11.52429"><ele>297.0</ele><time>2026-04-03T12:14:50.715Z</time></trkpt><trkpt lat="43.0825588" lon="11.524357"><ele>297.0</ele><time>2026-04-03T12:14:51.715Z</time></trkpt><trkpt lat="43.082478" lon="11.524431"><ele>297.0</ele><time>2026-04-03T12:14:52.715Z</time></trkpt><trkpt lat="43.0823974" lon="11.5245074"><ele>296.1666666666667</ele><time>2026-04-03T12:14:53.715Z</time></trkpt><trkpt lat="43.0823216" lon="11.5245841"><ele>295.3333333333333</ele><time>2026-04-03T12:14:54.715Z</time></trkpt><trkpt lat="43.082254" lon="11.5246606"><ele>294.5</ele><time>2026-04-03T12:14:55.715Z</time></trkpt><trkpt lat="43.0821905" lon="11.5247388"><ele>293.66666666666663</ele><time>2026-04-03T12:14:56.715Z</time></trkpt><trkpt lat="43.0821254" lon="11.5248128"><ele>292.8333333333333</ele><time>2026-04-03T12:14:57.714Z</time></trkpt><trkpt lat="43.0820618" lon="11.52489"><ele>292.0</ele><time>2026-04-03T12:14:58.714Z</time></trkpt><trkpt lat="43.0820014" lon="11.5249703"><ele>292.0</ele><time>2026-04-03T12:14:59.715Z</time></trkpt><trkpt lat="43.0819421" lon="11.5250491"><ele>292.0</ele><time>2026-04-03T12:15:00.714Z</time></trkpt><trkpt lat="43.0818795" lon="11.5251305"><ele>292.0</ele><time>2026-04-03T12:15:01.715Z</time></trkpt><trkpt lat="43.0818145" lon="11.5252143"><ele>292.0</ele><time>2026-04-03T12:15:02.715Z</time></trkpt><trkpt lat="43.0817456" lon="11.5253008"><ele>292.0</ele><time>2026-04-03T12:15:03.714Z</time></trkpt><trkpt lat="43.0816717" lon="11.5253966"><ele>292.2</ele><time>2026-04-03T12:15:04.715Z</time></trkpt><trkpt lat="43.0815965" lon="11.5254982"><ele>292.4</ele><time>2026-04-03T12:15:05.715Z</time></trkpt><trkpt lat="43.081522" lon="11.5256099"><ele>292.6</ele><time>2026-04-03T12:15:06.714Z</time></trkpt><trkpt lat="43.0814548" lon="11.5257257"><ele>292.8</ele><time>2026-04-03T12:15:07.715Z</time></trkpt><trkpt lat="43.0814013" lon="11.525843"><ele>293.0</ele><time>2026-04-03T12:15:08.715Z</time></trkpt><trkpt lat="43.0813557" lon="11.5259628"><ele>293.0</ele><time>2026-04-03T12:15:09.714Z</time></trkpt><trkpt lat="43.0813139" lon="11.5260798"><ele>293.0</ele><time>2026-04-03T12:15:10.714Z</time></trkpt><trkpt lat="43.0812708" lon="11.5261921"><ele>293.0</ele><time>2026-04-03T12:15:11.715Z</time></trkpt><trkpt lat="43.0812269" lon="11.5263031"><ele>293.0</ele><time>2026-04-03T12:15:12.715Z</time></trkpt><trkpt lat="43.0811809" lon="11.5264191"><ele>293.0</ele><time>2026-04-03T12:15:13.714Z</time></trkpt><trkpt lat="43.0811347" lon="11.5265377"><ele>293.6</ele><time>2026-04-03T12:15:14.713Z</time></trkpt><trkpt lat="43.081086" lon="11.5266559"><ele>294.20000000000005</ele><time>2026-04-03T12:15:15.713Z</time></trkpt><trkpt lat="43.0810361" lon="11.5267779"><ele>294.8</ele><time>2026-04-03T12:15:16.714Z</time></trkpt><trkpt lat="43.0809796" lon="11.526911"><ele>295.40000000000003</ele><time>2026-04-03T12:15:17.714Z</time></trkpt><trkpt lat="43.0809218" lon="11.5270547"><ele>296.0</ele><time>2026-04-03T12:15:18.713Z</time></trkpt><trkpt lat="43.0808636" lon="11.5272094"><ele>296.5</ele><time>2026-04-03T12:15:19.713Z</time></trkpt><trkpt lat="43.0808046" lon="11.527362"><ele>297.0</ele><time>2026-04-03T12:15:20.714Z</time></trkpt><trkpt lat="43.0807435" lon="11.5275206"><ele>297.5</ele><time>2026-04-03T12:15:21.713Z</time></trkpt><trkpt lat="43.0806795" lon="11.5276789"><ele>298.0</ele><time>2026-04-03T12:15:22.714Z</time></trkpt><trkpt lat="43.0806259" lon="11.5278211"><ele>301.2</ele><time>2026-04-03T12:15:23.714Z</time></trkpt><trkpt lat="43.0805746" lon="11.5279551"><ele>304.4</ele><time>2026-04-03T12:15:24.714Z</time></trkpt><trkpt lat="43.0805223" lon="11.5280885"><ele>307.59999999999997</ele><time>2026-04-03T12:15:25.714Z</time></trkpt><trkpt lat="43.0804745" lon="11.5282181"><ele>310.8</ele><time>2026-04-03T12:15:26.714Z</time></trkpt><trkpt lat="43.080429" lon="11.5283432"><ele>314.0</ele><time>2026-04-03T12:15:27.713Z</time></trkpt><trkpt lat="43.0803822" lon="11.5284614"><ele>314.0</ele><time>2026-04-03T12:15:28.713Z</time></trkpt><trkpt lat="43.0803359" lon="11.5285831"><ele>314.0</ele><time>2026-04-03T12:15:29.714Z</time></trkpt><trkpt lat="43.08029" lon="11.5287136"><ele>314.0</ele><time>2026-04-03T12:15:30.714Z</time></trkpt><trkpt lat="43.0802407" lon="11.5288475"><ele>314.0</ele><time>2026-04-03T12:15:31.714Z</time></trkpt><trkpt lat="43.0801924" lon="11.52899"><ele>314.0</ele><time>2026-04-03T12:15:32.714Z</time></trkpt><trkpt lat="43.0801522" lon="11.5291245"><ele>313.0</ele><time>2026-04-03T12:15:33.713Z</time></trkpt><trkpt lat="43.0801198" lon="11.5292526"><ele>312.0</ele><time>2026-04-03T12:15:34.714Z</time></trkpt><trkpt lat="43.0800887" lon="11.5293863"><ele>311.0</ele><time>2026-04-03T12:15:35.714Z</time></trkpt><trkpt lat="43.0800573" lon="11.5295321"><ele>310.0</ele><time>2026-04-03T12:15:36.714Z</time></trkpt><trkpt lat="43.0800278" lon="11.529678"><ele>309.0</ele><time>2026-04-03T12:15:37.714Z</time></trkpt><trkpt lat="43.0800088" lon="11.5298277"><ele>308.4</ele><time>2026-04-03T12:15:38.713Z</time></trkpt><trkpt lat="43.0799973" lon="11.5299792"><ele>307.79999999999995</ele><time>2026-04-03T12:15:39.714Z</time></trkpt><trkpt lat="43.0799916" lon="11.5301287"><ele>307.20000000000005</ele><time>2026-04-03T12:15:40.713Z</time></trkpt><trkpt lat="43.0799944" lon="11.5302854"><ele>306.6</ele><time>2026-04-03T12:15:41.713Z</time></trkpt><trkpt lat="43.0799985" lon="11.5304382"><ele>306.0</ele><time>2026-04-03T12:15:42.714Z</time></trkpt><trkpt lat="43.0800001" lon="11.5305753"><ele>305.8</ele><time>2026-04-03T12:15:43.714Z</time></trkpt><trkpt lat="43.0799989" lon="11.5307094"><ele>305.6</ele><time>2026-04-03T12:15:44.714Z</time></trkpt><trkpt lat="43.0799968" lon="11.5308482"><ele>305.4</ele><time>2026-04-03T12:15:45.714Z</time></trkpt><trkpt lat="43.0799887" lon="11.5309921"><ele>305.2</ele><time>2026-04-03T12:15:46.714Z</time></trkpt><trkpt lat="43.0799773" lon="11.5311342"><ele>305.0</ele><time>2026-04-03T12:15:47.714Z</time></trkpt><trkpt lat="43.0799548" lon="11.5312752"><ele>303.0</ele><time>2026-04-03T12:15:48.714Z</time></trkpt><trkpt lat="43.0799248" lon="11.531412"><ele>301.0</ele><time>2026-04-03T12:15:49.713Z</time></trkpt><trkpt lat="43.0798818" lon="11.5315608"><ele>299.0</ele><time>2026-04-03T12:15:50.713Z</time></trkpt><trkpt lat="43.0798252" lon="11.5317233"><ele>297.0</ele><time>2026-04-03T12:15:51.714Z</time></trkpt><trkpt lat="43.0797633" lon="11.5318764"><ele>297.0</ele><time>2026-04-03T12:15:52.714Z</time></trkpt><trkpt lat="43.0797093" lon="11.5320228"><ele>297.0</ele><time>2026-04-03T12:15:53.714Z</time></trkpt><trkpt lat="43.0796697" lon="11.5321509"><ele>297.0</ele><time>2026-04-03T12:15:54.713Z</time></trkpt><trkpt lat="43.0796463" lon="11.5322715"><ele>297.0</ele><time>2026-04-03T12:15:55.714Z</time></trkpt><trkpt lat="43.0796342" lon="11.5323885"><ele>297.0</ele><time>2026-04-03T12:15:56.714Z</time></trkpt><trkpt lat="43.0796397" lon="11.5325018"><ele>298.4</ele><time>2026-04-03T12:15:57.714Z</time></trkpt><trkpt lat="43.0796607" lon="11.5326172"><ele>299.79999999999995</ele><time>2026-04-03T12:15:58.713Z</time></trkpt><trkpt lat="43.0796945" lon="11.5327338"><ele>301.2</ele><time>2026-04-03T12:15:59.714Z</time></trkpt><trkpt lat="43.0797355" lon="11.5328675"><ele>302.59999999999997</ele><time>2026-04-03T12:16:00.713Z</time></trkpt><trkpt lat="43.07977" lon="11.5329953"><ele>304.0</ele><time>2026-04-03T12:16:01.713Z</time></trkpt><trkpt lat="43.0797986" lon="11.5331246"><ele>305.59999999999997</ele><time>2026-04-03T12:16:02.713Z</time></trkpt><trkpt lat="43.0798108" lon="11.5332433"><ele>307.2</ele><time>2026-04-03T12:16:03.714Z</time></trkpt><trkpt lat="43.0798046" lon="11.5333754"><ele>308.79999999999995</ele><time>2026-04-03T12:16:04.714Z</time></trkpt><trkpt lat="43.0797737" lon="11.5335058"><ele>310.4</ele><time>2026-04-03T12:16:05.714Z</time></trkpt><trkpt lat="43.0797435" lon="11.5336347"><ele>312.0</ele><time>2026-04-03T12:16:06.714Z</time></trkpt><trkpt lat="43.0797304" lon="11.533763"><ele>313.25</ele><time>2026-04-03T12:16:07.714Z</time></trkpt><trkpt lat="43.07973" lon="11.5339017"><ele>314.5</ele><time>2026-04-03T12:16:08.713Z</time></trkpt><trkpt lat="43.0797485" lon="11.5340455"><ele>315.75</ele><time>2026-04-03T12:16:09.714Z</time></trkpt><trkpt lat="43.0797843" lon="11.5342064"><ele>317.0</ele><time>2026-04-03T12:16:10.713Z</time></trkpt><trkpt lat="43.0798213" lon="11.5343797"><ele>317.0</ele><time>2026-04-03T12:16:11.714Z</time></trkpt><trkpt lat="43.0798605" lon="11.5345336"><ele>317.0</ele><time>2026-04-03T12:16:12.714Z</time></trkpt><trkpt lat="43.079897" lon="11.5346644"><ele>317.0</ele><time>2026-04-03T12:16:13.714Z</time></trkpt><trkpt lat="43.0799354" lon="11.5347738"><ele>317.0</ele><time>2026-04-03T12:16:14.714Z</time></trkpt><trkpt lat="43.0799729" lon="11.5348628"><ele>317.0</ele><time>2026-04-03T12:16:15.713Z</time></trkpt><trkpt lat="43.0800158" lon="11.5349443"><ele>315.8</ele><time>2026-04-03T12:16:16.714Z</time></trkpt><trkpt lat="43.0800633" lon="11.5350154"><ele>314.6</ele><time>2026-04-03T12:16:17.713Z</time></trkpt><trkpt lat="43.0801461" lon="11.5351258"><ele>313.40000000000003</ele><time>2026-04-03T12:16:19.714Z</time></trkpt><trkpt lat="43.0802059" lon="11.5352266"><ele>312.2</ele><time>2026-04-03T12:16:21.713Z</time></trkpt><trkpt lat="43.0802509" lon="11.535333"><ele>311.0</ele><time>2026-04-03T12:16:23.713Z</time></trkpt><trkpt lat="43.0802751" lon="11.5354605"><ele>310.33333333333337</ele><time>2026-04-03T12:16:25.714Z</time></trkpt><trkpt lat="43.0802648" lon="11.5356216"><ele>309.6666666666667</ele><time>2026-04-03T12:16:27.714Z</time></trkpt><trkpt lat="43.0802509" lon="11.5357145"><ele>309.0</ele><time>2026-04-03T12:16:28.714Z</time></trkpt><trkpt lat="43.080238" lon="11.5358251"><ele>308.3333333333333</ele><time>2026-04-03T12:16:29.713Z</time></trkpt><trkpt lat="43.080225" lon="11.5359316"><ele>307.66666666666663</ele><time>2026-04-03T12:16:30.714Z</time></trkpt><trkpt lat="43.0802205" lon="11.5360422"><ele>307.0</ele><time>2026-04-03T12:16:31.714Z</time></trkpt><trkpt lat="43.080224" lon="11.5361459"><ele>305.5</ele><time>2026-04-03T12:16:32.713Z</time></trkpt><trkpt lat="43.0802319" lon="11.5362433"><ele>304.0</ele><time>2026-04-03T12:16:33.714Z</time></trkpt><trkpt lat="43.0802416" lon="11.5363435"><ele>302.5</ele><time>2026-04-03T12:16:34.714Z</time></trkpt><trkpt lat="43.0802547" lon="11.5364427"><ele>301.0</ele><time>2026-04-03T12:16:35.713Z</time></trkpt><trkpt lat="43.0802642" lon="11.5365441"><ele>299.5</ele><time>2026-04-03T12:16:36.714Z</time></trkpt><trkpt lat="43.0802693" lon="11.5366488"><ele>298.0</ele><time>2026-04-03T12:16:37.713Z</time></trkpt><trkpt lat="43.0802633" lon="11.5367572"><ele>298.0</ele><time>2026-04-03T12:16:38.714Z</time></trkpt><trkpt lat="43.080254" lon="11.5368584"><ele>298.0</ele><time>2026-04-03T12:16:39.713Z</time></trkpt><trkpt lat="43.0802426" lon="11.5369604"><ele>298.0</ele><time>2026-04-03T12:16:40.714Z</time></trkpt><trkpt lat="43.080243" lon="11.5370586"><ele>298.0</ele><time>2026-04-03T12:16:41.714Z</time></trkpt><trkpt lat="43.0802835" lon="11.5372183"><ele>298.0</ele><time>2026-04-03T12:16:43.714Z</time></trkpt><trkpt lat="43.0803222" lon="11.5372902"><ele>298.0</ele><time>2026-04-03T12:16:44.713Z</time></trkpt><trkpt lat="43.0804347" lon="11.5373964"><ele>296.8333333333333</ele><time>2026-04-03T12:16:46.714Z</time></trkpt><trkpt lat="43.0805078" lon="11.5374551"><ele>295.66666666666663</ele><time>2026-04-03T12:16:47.714Z</time></trkpt><trkpt lat="43.0805774" lon="11.537516"><ele>294.5</ele><time>2026-04-03T12:16:48.714Z</time></trkpt><trkpt lat="43.0806328" lon="11.5375849"><ele>293.3333333333333</ele><time>2026-04-03T12:16:49.714Z</time></trkpt><trkpt lat="43.0806736" lon="11.5376699"><ele>292.1666666666667</ele><time>2026-04-03T12:16:50.713Z</time></trkpt><trkpt lat="43.080701" lon="11.537761"><ele>291.0</ele><time>2026-04-03T12:16:51.714Z</time></trkpt><trkpt lat="43.0807202" lon="11.5378586"><ele>290.2</ele><time>2026-04-03T12:16:52.713Z</time></trkpt><trkpt lat="43.0807395" lon="11.5379565"><ele>289.40000000000003</ele><time>2026-04-03T12:16:53.713Z</time></trkpt><trkpt lat="43.080757" lon="11.5380527"><ele>288.6</ele><time>2026-04-03T12:16:54.713Z</time></trkpt><trkpt lat="43.080776" lon="11.538168"><ele>287.8</ele><time>2026-04-03T12:16:55.714Z</time></trkpt><trkpt lat="43.0807956" lon="11.5383068"><ele>287.0</ele><time>2026-04-03T12:16:56.714Z</time></trkpt><trkpt lat="43.0808242" lon="11.538486"><ele>287.0</ele><time>2026-04-03T12:16:57.713Z</time></trkpt><trkpt lat="43.0808566" lon="11.5386836"><ele>287.0</ele><time>2026-04-03T12:16:58.714Z</time></trkpt><trkpt lat="43.0808909" lon="11.5388841"><ele>287.0</ele><time>2026-04-03T12:16:59.714Z</time></trkpt><trkpt lat="43.0809234" lon="11.5390618"><ele>287.0</ele><time>2026-04-03T12:17:00.714Z</time></trkpt><trkpt lat="43.0809559" lon="11.5392151"><ele>286.75</ele><time>2026-04-03T12:17:01.714Z</time></trkpt><trkpt lat="43.0809897" lon="11.5393471"><ele>286.5</ele><time>2026-04-03T12:17:02.714Z</time></trkpt><trkpt lat="43.0810271" lon="11.5394571"><ele>286.25</ele><time>2026-04-03T12:17:03.714Z</time></trkpt><trkpt lat="43.0810716" lon="11.5395778"><ele>286.0</ele><time>2026-04-03T12:17:05.713Z</time></trkpt><trkpt lat="43.0811997" lon="11.5397723"><ele>286.5</ele><time>2026-04-03T12:17:17.714Z</time></trkpt><trkpt lat="43.081275" lon="11.5398539"><ele>287.0</ele><time>2026-04-03T12:17:18.714Z</time></trkpt><trkpt lat="43.0813512" lon="11.5399302"><ele>287.5</ele><time>2026-04-03T12:17:19.714Z</time></trkpt><trkpt lat="43.081422" lon="11.5400061"><ele>288.0</ele><time>2026-04-03T12:17:20.714Z</time></trkpt><trkpt lat="43.0814824" lon="11.5400789"><ele>288.5</ele><time>2026-04-03T12:17:21.714Z</time></trkpt><trkpt lat="43.0815343" lon="11.5401604"><ele>289.0</ele><time>2026-04-03T12:17:22.713Z</time></trkpt><trkpt lat="43.0815812" lon="11.5402485"><ele>289.0</ele><time>2026-04-03T12:17:23.714Z</time></trkpt><trkpt lat="43.0816208" lon="11.54035"><ele>289.0</ele><time>2026-04-03T12:17:24.714Z</time></trkpt><trkpt lat="43.0816523" lon="11.5404588"><ele>289.0</ele><time>2026-04-03T12:17:25.714Z</time></trkpt><trkpt lat="43.081676" lon="11.5405766"><ele>289.0</ele><time>2026-04-03T12:17:26.714Z</time></trkpt><trkpt lat="43.0816866" lon="11.5406993"><ele>289.0</ele><time>2026-04-03T12:17:27.714Z</time></trkpt><trkpt lat="43.0816991" lon="11.5408223"><ele>289.0</ele><time>2026-04-03T12:17:28.713Z</time></trkpt><trkpt lat="43.0817078" lon="11.5409427"><ele>289.66666666666663</ele><time>2026-04-03T12:17:29.714Z</time></trkpt><trkpt lat="43.0817204" lon="11.5410591"><ele>290.3333333333333</ele><time>2026-04-03T12:17:30.713Z</time></trkpt><trkpt lat="43.0817396" lon="11.5411662"><ele>291.0</ele><time>2026-04-03T12:17:31.714Z</time></trkpt><trkpt lat="43.0817647" lon="11.541283"><ele>291.6666666666667</ele><time>2026-04-03T12:17:32.714Z</time></trkpt><trkpt lat="43.0817881" lon="11.5413967"><ele>292.33333333333337</ele><time>2026-04-03T12:17:33.714Z</time></trkpt><trkpt lat="43.0818133" lon="11.5415075"><ele>293.0</ele><time>2026-04-03T12:17:34.714Z</time></trkpt><trkpt lat="43.08184" lon="11.5416274"><ele>293.5</ele><time>2026-04-03T12:17:35.714Z</time></trkpt><trkpt lat="43.0818673" lon="11.5417536"><ele>294.0</ele><time>2026-04-03T12:17:36.714Z</time></trkpt><trkpt lat="43.0818922" lon="11.5418801"><ele>294.5</ele><time>2026-04-03T12:17:37.713Z</time></trkpt><trkpt lat="43.0819071" lon="11.541994"><ele>295.0</ele><time>2026-04-03T12:17:38.714Z</time></trkpt><trkpt lat="43.0819153" lon="11.5421093"><ele>295.5</ele><time>2026-04-03T12:17:39.714Z</time></trkpt><trkpt lat="43.0819171" lon="11.5422194"><ele>296.0</ele><time>2026-04-03T12:17:40.714Z</time></trkpt><trkpt lat="43.0819173" lon="11.542315"><ele>296.0</ele><time>2026-04-03T12:17:41.713Z</time></trkpt><trkpt lat="43.0819181" lon="11.5424853"><ele>296.0</ele><time>2026-04-03T12:17:43.714Z</time></trkpt><trkpt lat="43.0819253" lon="11.5425711"><ele>296.0</ele><time>2026-04-03T12:17:44.714Z</time></trkpt><trkpt lat="43.0819372" lon="11.542659"><ele>296.0</ele><time>2026-04-03T12:17:45.714Z</time></trkpt><trkpt lat="43.0819584" lon="11.5427452"><ele>296.0</ele><time>2026-04-03T12:17:46.714Z</time></trkpt><trkpt lat="43.0819899" lon="11.542826"><ele>296.0</ele><time>2026-04-03T12:17:47.714Z</time></trkpt><trkpt lat="43.0820738" lon="11.5429456"><ele>295.0</ele><time>2026-04-03T12:17:49.713Z</time></trkpt><trkpt lat="43.0821833" lon="11.542992"><ele>294.0</ele><time>2026-04-03T12:17:51.714Z</time></trkpt><trkpt lat="43.0822475" lon="11.5430066"><ele>293.0</ele><time>2026-04-03T12:17:52.713Z</time></trkpt><trkpt lat="43.082314" lon="11.5430232"><ele>292.0</ele><time>2026-04-03T12:17:53.714Z</time></trkpt><trkpt lat="43.0823819" lon="11.5430413"><ele>291.0</ele><time>2026-04-03T12:17:54.714Z</time></trkpt><trkpt lat="43.0824543" lon="11.5430608"><ele>290.0</ele><time>2026-04-03T12:17:55.713Z</time></trkpt><trkpt lat="43.0825344" lon="11.5430814"><ele>290.0</ele><time>2026-04-03T12:17:56.714Z</time></trkpt><trkpt lat="43.0826179" lon="11.5431082"><ele>290.0</ele><time>2026-04-03T12:17:57.713Z</time></trkpt><trkpt lat="43.0827057" lon="11.5431463"><ele>290.0</ele><time>2026-04-03T12:17:58.713Z</time></trkpt><trkpt lat="43.0827945" lon="11.543176"><ele>290.0</ele><time>2026-04-03T12:17:59.714Z</time></trkpt><trkpt lat="43.0828846" lon="11.5431968"><ele>290.0</ele><time>2026-04-03T12:18:00.714Z</time></trkpt><trkpt lat="43.0829713" lon="11.543216"><ele>290.0</ele><time>2026-04-03T12:18:01.714Z</time></trkpt><trkpt lat="43.0830539" lon="11.54323"><ele>290.0</ele><time>2026-04-03T12:18:02.714Z</time></trkpt><trkpt lat="43.0831336" lon="11.5432435"><ele>290.0</ele><time>2026-04-03T12:18:03.713Z</time></trkpt><trkpt lat="43.0832162" lon="11.5432619"><ele>290.0</ele><time>2026-04-03T12:18:04.714Z</time></trkpt><trkpt lat="43.0832986" lon="11.5432845"><ele>290.0</ele><time>2026-04-03T12:18:05.713Z</time></trkpt><trkpt lat="43.0833818" lon="11.5433084"><ele>290.0</ele><time>2026-04-03T12:18:06.714Z</time></trkpt><trkpt lat="43.0834646" lon="11.5433281"><ele>290.0</ele><time>2026-04-03T12:18:07.714Z</time></trkpt><trkpt lat="43.0835447" lon="11.5433308"><ele>289.2857142857143</ele><time>2026-04-03T12:18:08.714Z</time></trkpt><trkpt lat="43.0836189" lon="11.5433164"><ele>288.5714285714286</ele><time>2026-04-03T12:18:09.714Z</time></trkpt><trkpt lat="43.0836913" lon="11.5432845"><ele>287.8571428571429</ele><time>2026-04-03T12:18:10.714Z</time></trkpt><trkpt lat="43.0837593" lon="11.5432428"><ele>287.14285714285717</ele><time>2026-04-03T12:18:11.714Z</time></trkpt><trkpt lat="43.0838228" lon="11.5432064"><ele>286.42857142857144</ele><time>2026-04-03T12:18:12.714Z</time></trkpt><trkpt lat="43.0838919" lon="11.5431872"><ele>285.7142857142857</ele><time>2026-04-03T12:18:13.713Z</time></trkpt><trkpt lat="43.0839748" lon="11.5431828"><ele>285.0</ele><time>2026-04-03T12:18:14.713Z</time></trkpt><trkpt lat="43.0840656" lon="11.5431992"><ele>283.4</ele><time>2026-04-03T12:18:15.714Z</time></trkpt><trkpt lat="43.0841591" lon="11.543238"><ele>281.8</ele><time>2026-04-03T12:18:16.713Z</time></trkpt><trkpt lat="43.0842534" lon="11.5432794"><ele>280.2</ele><time>2026-04-03T12:18:17.714Z</time></trkpt><trkpt lat="43.0843491" lon="11.5433193"><ele>278.6</ele><time>2026-04-03T12:18:18.714Z</time></trkpt><trkpt lat="43.0844413" lon="11.5433583"><ele>277.0</ele><time>2026-04-03T12:18:19.713Z</time></trkpt><trkpt lat="43.0845159" lon="11.5433883"><ele>277.0</ele><time>2026-04-03T12:18:20.713Z</time></trkpt><trkpt lat="43.0845812" lon="11.5434118"><ele>277.0</ele><time>2026-04-03T12:18:21.714Z</time></trkpt><trkpt lat="43.0846456" lon="11.5434342"><ele>277.0</ele><time>2026-04-03T12:18:22.713Z</time></trkpt><trkpt lat="43.0847114" lon="11.5434544"><ele>277.0</ele><time>2026-04-03T12:18:23.714Z</time></trkpt><trkpt lat="43.0847793" lon="11.5434731"><ele>277.0</ele><time>2026-04-03T12:18:24.714Z</time></trkpt><trkpt lat="43.084845" lon="11.5434962"><ele>277.0</ele><time>2026-04-03T12:18:25.713Z</time></trkpt><trkpt lat="43.0849078" lon="11.543526"><ele>277.0</ele><time>2026-04-03T12:18:26.713Z</time></trkpt><trkpt lat="43.0849679" lon="11.5435611"><ele>275.8333333333333</ele><time>2026-04-03T12:18:27.714Z</time></trkpt><trkpt lat="43.0850314" lon="11.5435978"><ele>274.66666666666663</ele><time>2026-04-03T12:18:28.713Z</time></trkpt><trkpt lat="43.0850967" lon="11.5436463"><ele>273.5</ele><time>2026-04-03T12:18:29.713Z</time></trkpt><trkpt lat="43.0851653" lon="11.5436989"><ele>272.3333333333333</ele><time>2026-04-03T12:18:30.714Z</time></trkpt><trkpt lat="43.0852393" lon="11.54375"><ele>271.1666666666667</ele><time>2026-04-03T12:18:31.714Z</time></trkpt><trkpt lat="43.0853217" lon="11.5438007"><ele>270.0</ele><time>2026-04-03T12:18:32.713Z</time></trkpt><trkpt lat="43.0854037" lon="11.5438493"><ele>270.0</ele><time>2026-04-03T12:18:33.713Z</time></trkpt><trkpt lat="43.0854864" lon="11.5438979"><ele>270.0</ele><time>2026-04-03T12:18:34.713Z</time></trkpt><trkpt lat="43.085571" lon="11.5439362"><ele>270.0</ele><time>2026-04-03T12:18:35.714Z</time></trkpt><trkpt lat="43.0856674" lon="11.5439629"><ele>270.0</ele><time>2026-04-03T12:18:36.714Z</time></trkpt><trkpt lat="43.085772" lon="11.5439901"><ele>270.0</ele><time>2026-04-03T12:18:37.714Z</time></trkpt><trkpt lat="43.0858839" lon="11.5440106"><ele>270.0</ele><time>2026-04-03T12:18:38.714Z</time></trkpt><trkpt lat="43.0860009" lon="11.5440328"><ele>270.0</ele><time>2026-04-03T12:18:39.714Z</time></trkpt><trkpt lat="43.0861318" lon="11.5440549"><ele>270.0</ele><time>2026-04-03T12:18:40.714Z</time></trkpt><trkpt lat="43.086265" lon="11.5440845"><ele>270.0</ele><time>2026-04-03T12:18:41.714Z</time></trkpt><trkpt lat="43.0863831" lon="11.5441334"><ele>270.0</ele><time>2026-04-03T12:18:42.713Z</time></trkpt><trkpt lat="43.0865005" lon="11.5441995"><ele>270.0</ele><time>2026-04-03T12:18:43.713Z</time></trkpt><trkpt lat="43.0866299" lon="11.5442924"><ele>270.0</ele><time>2026-04-03T12:18:44.714Z</time></trkpt><trkpt lat="43.0867568" lon="11.544394"><ele>270.0</ele><time>2026-04-03T12:18:45.714Z</time></trkpt><trkpt lat="43.0868589" lon="11.5444868"><ele>270.2</ele><time>2026-04-03T12:18:46.713Z</time></trkpt><trkpt lat="43.0869454" lon="11.544564"><ele>270.4</ele><time>2026-04-03T12:18:47.714Z</time></trkpt><trkpt lat="43.0870154" lon="11.544638"><ele>270.6</ele><time>2026-04-03T12:18:48.714Z</time></trkpt><trkpt lat="43.0870666" lon="11.5447091"><ele>270.8</ele><time>2026-04-03T12:18:49.714Z</time></trkpt><trkpt lat="43.0871125" lon="11.5448272"><ele>271.0</ele><time>2026-04-03T12:18:51.714Z</time></trkpt><trkpt lat="43.0870789" lon="11.5450168"><ele>271.0</ele><time>2026-04-03T12:18:53.713Z</time></trkpt><trkpt lat="43.0870196" lon="11.5451581"><ele>271.0</ele><time>2026-04-03T12:18:54.713Z</time></trkpt><trkpt lat="43.0869559" lon="11.5452996"><ele>271.0</ele><time>2026-04-03T12:18:55.713Z</time></trkpt><trkpt lat="43.0869126" lon="11.5454332"><ele>271.0</ele><time>2026-04-03T12:18:56.714Z</time></trkpt><trkpt lat="43.0868807" lon="11.5455546"><ele>271.0</ele><time>2026-04-03T12:18:57.714Z</time></trkpt><trkpt lat="43.0868514" lon="11.5456636"><ele>270.42857142857144</ele><time>2026-04-03T12:18:58.714Z</time></trkpt><trkpt lat="43.0868307" lon="11.5457546"><ele>269.8571428571429</ele><time>2026-04-03T12:18:59.713Z</time></trkpt><trkpt lat="43.0868079" lon="11.5458381"><ele>269.28571428571433</ele><time>2026-04-03T12:19:00.714Z</time></trkpt><trkpt lat="43.0867654" lon="11.5459686"><ele>268.7142857142857</ele><time>2026-04-03T12:19:02.714Z</time></trkpt><trkpt lat="43.0867419" lon="11.5460516"><ele>268.14285714285717</ele><time>2026-04-03T12:19:04.713Z</time></trkpt><trkpt lat="43.0866681" lon="11.5460836"><ele>267.5714285714286</ele><time>2026-04-03T12:19:06.713Z</time></trkpt><trkpt lat="43.0866086" lon="11.546055"><ele>267.0</ele><time>2026-04-03T12:19:07.714Z</time></trkpt><trkpt lat="43.0865369" lon="11.5460099"><ele>266.0</ele><time>2026-04-03T12:19:08.713Z</time></trkpt><trkpt lat="43.0864393" lon="11.545978"><ele>265.0</ele><time>2026-04-03T12:19:09.714Z</time></trkpt><trkpt lat="43.0863316" lon="11.5459555"><ele>264.0</ele><time>2026-04-03T12:19:10.714Z</time></trkpt><trkpt lat="43.0862301" lon="11.5459323"><ele>263.0</ele><time>2026-04-03T12:19:11.713Z</time></trkpt><trkpt lat="43.0861377" lon="11.545907"><ele>262.0</ele><time>2026-04-03T12:19:12.714Z</time></trkpt><trkpt lat="43.0860452" lon="11.5458769"><ele>262.0</ele><time>2026-04-03T12:19:13.713Z</time></trkpt><trkpt lat="43.0859569" lon="11.5458499"><ele>262.0</ele><time>2026-04-03T12:19:14.713Z</time></trkpt><trkpt lat="43.0858824" lon="11.5458255"><ele>262.0</ele><time>2026-04-03T12:19:15.714Z</time></trkpt><trkpt lat="43.0857804" lon="11.5458192"><ele>262.0</ele><time>2026-04-03T12:19:17.713Z</time></trkpt><trkpt lat="43.0857121" lon="11.5459054"><ele>262.0</ele><time>2026-04-03T12:19:19.713Z</time></trkpt><trkpt lat="43.0856774" lon="11.5459858"><ele>262.0</ele><time>2026-04-03T12:19:20.714Z</time></trkpt><trkpt lat="43.0856372" lon="11.5460825"><ele>261.8</ele><time>2026-04-03T12:19:21.714Z</time></trkpt><trkpt lat="43.0855852" lon="11.5461959"><ele>261.6</ele><time>2026-04-03T12:19:22.713Z</time></trkpt><trkpt lat="43.0855229" lon="11.5463199"><ele>261.40000000000003</ele><time>2026-04-03T12:19:23.714Z</time></trkpt><trkpt lat="43.0854568" lon="11.5464497"><ele>261.2</ele><time>2026-04-03T12:19:24.713Z</time></trkpt><trkpt lat="43.0853897" lon="11.5465752"><ele>261.0</ele><time>2026-04-03T12:19:25.713Z</time></trkpt><trkpt lat="43.0853277" lon="11.5467067"><ele>260.6</ele><time>2026-04-03T12:19:26.713Z</time></trkpt><trkpt lat="43.0852666" lon="11.5468333"><ele>260.20000000000005</ele><time>2026-04-03T12:19:27.714Z</time></trkpt><trkpt lat="43.0852122" lon="11.546948"><ele>259.79999999999995</ele><time>2026-04-03T12:19:28.714Z</time></trkpt><trkpt lat="43.0851619" lon="11.5470525"><ele>259.4</ele><time>2026-04-03T12:19:29.714Z</time></trkpt><trkpt lat="43.0851131" lon="11.5471519"><ele>259.0</ele><time>2026-04-03T12:19:30.713Z</time></trkpt><trkpt lat="43.0850582" lon="11.5472584"><ele>258.5</ele><time>2026-04-03T12:19:31.713Z</time></trkpt><trkpt lat="43.0850062" lon="11.5473629"><ele>258.0</ele><time>2026-04-03T12:19:32.714Z</time></trkpt><trkpt lat="43.0849606" lon="11.5474555"><ele>257.5</ele><time>2026-04-03T12:19:33.713Z</time></trkpt><trkpt lat="43.0849201" lon="11.5475411"><ele>257.0</ele><time>2026-04-03T12:19:34.713Z</time></trkpt><trkpt lat="43.084886" lon="11.5476294"><ele>256.5</ele><time>2026-04-03T12:19:35.714Z</time></trkpt><trkpt lat="43.084848" lon="11.5477176"><ele>256.0</ele><time>2026-04-03T12:19:36.714Z</time></trkpt><trkpt lat="43.0848107" lon="11.5477936"><ele>254.60000000000002</ele><time>2026-04-03T12:19:37.714Z</time></trkpt><trkpt lat="43.0847462" lon="11.5479183"><ele>253.20000000000002</ele><time>2026-04-03T12:19:39.714Z</time></trkpt><trkpt lat="43.084681" lon="11.5480467"><ele>251.79999999999998</ele><time>2026-04-03T12:19:41.714Z</time></trkpt><trkpt lat="43.0846358" lon="11.5481519"><ele>250.39999999999998</ele><time>2026-04-03T12:19:43.714Z</time></trkpt><trkpt lat="43.0846149" lon="11.548253"><ele>249.0</ele><time>2026-04-03T12:19:50.714Z</time></trkpt><trkpt lat="43.0846339" lon="11.5483542"><ele>249.0</ele><time>2026-04-03T12:19:53.714Z</time></trkpt><trkpt lat="43.0847454" lon="11.5484421"><ele>249.0</ele><time>2026-04-03T12:19:55.714Z</time></trkpt><trkpt lat="43.0848415" lon="11.5484947"><ele>249.0</ele><time>2026-04-03T12:19:56.714Z</time></trkpt><trkpt lat="43.0849483" lon="11.5485693"><ele>249.0</ele><time>2026-04-03T12:19:57.713Z</time></trkpt><trkpt lat="43.0850566" lon="11.5486697"><ele>249.5</ele><time>2026-04-03T12:19:58.714Z</time></trkpt><trkpt lat="43.0851661" lon="11.5487759"><ele>250.0</ele><time>2026-04-03T12:19:59.714Z</time></trkpt><trkpt lat="43.0852705" lon="11.5488762"><ele>250.5</ele><time>2026-04-03T12:20:00.713Z</time></trkpt><trkpt lat="43.0853654" lon="11.5489641"><ele>251.0</ele><time>2026-04-03T12:20:01.714Z</time></trkpt><trkpt lat="43.0854485" lon="11.5490459"><ele>251.00000000000003</ele><time>2026-04-03T12:20:02.713Z</time></trkpt><trkpt lat="43.0855312" lon="11.5491159"><ele>251.0</ele><time>2026-04-03T12:20:03.714Z</time></trkpt><trkpt lat="43.0856117" lon="11.5491756"><ele>251.0</ele><time>2026-04-03T12:20:04.714Z</time></trkpt><trkpt lat="43.0856877" lon="11.5492251"><ele>251.0</ele><time>2026-04-03T12:20:05.713Z</time></trkpt><trkpt lat="43.0857601" lon="11.5492663"><ele>251.00000000000003</ele><time>2026-04-03T12:20:06.714Z</time></trkpt><trkpt lat="43.0858261" lon="11.5493011"><ele>251.0</ele><time>2026-04-03T12:20:07.713Z</time></trkpt><trkpt lat="43.0859006" lon="11.5493388"><ele>250.8</ele><time>2026-04-03T12:20:09.713Z</time></trkpt><trkpt lat="43.0859521" lon="11.5493897"><ele>250.60000000000002</ele><time>2026-04-03T12:20:13.713Z</time></trkpt><trkpt lat="43.0859419" lon="11.5495113"><ele>250.4</ele><time>2026-04-03T12:20:15.714Z</time></trkpt><trkpt lat="43.0858945" lon="11.5495981"><ele>250.2</ele><time>2026-04-03T12:20:16.714Z</time></trkpt><trkpt lat="43.0858142" lon="11.5497162"><ele>250.0</ele><time>2026-04-03T12:20:17.713Z</time></trkpt><trkpt lat="43.0857324" lon="11.549822"><ele>250.0</ele><time>2026-04-03T12:20:18.713Z</time></trkpt><trkpt lat="43.085648" lon="11.5499591"><ele>250.0</ele><time>2026-04-03T12:20:19.714Z</time></trkpt><trkpt lat="43.0855576" lon="11.5501036"><ele>250.0</ele><time>2026-04-03T12:20:20.713Z</time></trkpt><trkpt lat="43.0854761" lon="11.550249"><ele>250.0</ele><time>2026-04-03T12:20:21.713Z</time></trkpt><trkpt lat="43.0854002" lon="11.5503766"><ele>249.66666666666666</ele><time>2026-04-03T12:20:22.714Z</time></trkpt><trkpt lat="43.0853372" lon="11.5504754"><ele>249.33333333333331</ele><time>2026-04-03T12:20:23.714Z</time></trkpt><trkpt lat="43.0852825" lon="11.5505511"><ele>249.0</ele><time>2026-04-03T12:20:24.714Z</time></trkpt><trkpt lat="43.0852121" lon="11.5506445"><ele>248.66666666666669</ele><time>2026-04-03T12:20:26.713Z</time></trkpt><trkpt lat="43.0851799" lon="11.5507404"><ele>248.33333333333334</ele><time>2026-04-03T12:20:57.714Z</time></trkpt><trkpt lat="43.0851227" lon="11.5508256"><ele>248.0</ele><time>2026-04-03T12:20:59.714Z</time></trkpt><trkpt lat="43.0850163" lon="11.5509588"><ele>248.0</ele><time>2026-04-03T12:21:01.714Z</time></trkpt><trkpt lat="43.0849489" lon="11.5510568"><ele>248.0</ele><time>2026-04-03T12:21:02.714Z</time></trkpt><trkpt lat="43.0848619" lon="11.5511724"><ele>248.0</ele><time>2026-04-03T12:21:03.714Z</time></trkpt><trkpt lat="43.0847726" lon="11.551289"><ele>248.0</ele><time>2026-04-03T12:21:04.714Z</time></trkpt><trkpt lat="43.0846852" lon="11.5514068"><ele>247.5</ele><time>2026-04-03T12:21:05.714Z</time></trkpt><trkpt lat="43.0845902" lon="11.5515366"><ele>247.0</ele><time>2026-04-03T12:21:06.714Z</time></trkpt><trkpt lat="43.0844802" lon="11.5516812"><ele>246.5</ele><time>2026-04-03T12:21:07.714Z</time></trkpt><trkpt lat="43.0843804" lon="11.5518194"><ele>246.0</ele><time>2026-04-03T12:21:08.714Z</time></trkpt><trkpt lat="43.0842939" lon="11.5519494"><ele>245.0</ele><time>2026-04-03T12:21:09.714Z</time></trkpt><trkpt lat="43.0842215" lon="11.5520724"><ele>244.0</ele><time>2026-04-03T12:21:10.714Z</time></trkpt><trkpt lat="43.0841555" lon="11.5522102"><ele>243.0</ele><time>2026-04-03T12:21:11.713Z</time></trkpt><trkpt lat="43.0840857" lon="11.5523576"><ele>242.0</ele><time>2026-04-03T12:21:12.714Z</time></trkpt><trkpt lat="43.0840277" lon="11.5524898"><ele>242.00000000000003</ele><time>2026-04-03T12:21:13.714Z</time></trkpt><trkpt lat="43.0839827" lon="11.5526015"><ele>242.0</ele><time>2026-04-03T12:21:14.714Z</time></trkpt><trkpt lat="43.0839424" lon="11.5526857"><ele>242.0</ele><time>2026-04-03T12:21:15.714Z</time></trkpt><trkpt lat="43.0838983" lon="11.552795"><ele>242.0</ele><time>2026-04-03T12:21:17.714Z</time></trkpt><trkpt lat="43.0838824" lon="11.5528883"><ele>242.00000000000003</ele><time>2026-04-03T12:21:27.714Z</time></trkpt><trkpt lat="43.0838545" lon="11.5530005"><ele>242.0</ele><time>2026-04-03T12:21:28.713Z</time></trkpt><trkpt lat="43.0838285" lon="11.5531522"><ele>242.33333333333334</ele><time>2026-04-03T12:21:29.713Z</time></trkpt><trkpt lat="43.0837951" lon="11.5533431"><ele>242.66666666666669</ele><time>2026-04-03T12:21:30.714Z</time></trkpt><trkpt lat="43.0837602" lon="11.5535665"><ele>243.0</ele><time>2026-04-03T12:21:31.713Z</time></trkpt><trkpt lat="43.083725" lon="11.5538188"><ele>244.0</ele><time>2026-04-03T12:21:32.714Z</time></trkpt><trkpt lat="43.0836822" lon="11.5541018"><ele>245.0</ele><time>2026-04-03T12:21:33.714Z</time></trkpt><trkpt lat="43.0836346" lon="11.5543901"><ele>246.0</ele><time>2026-04-03T12:21:34.714Z</time></trkpt><trkpt lat="43.0835897" lon="11.5546865"><ele>247.66666666666669</ele><time>2026-04-03T12:21:35.714Z</time></trkpt><trkpt lat="43.0835514" lon="11.5549645"><ele>249.33333333333334</ele><time>2026-04-03T12:21:36.714Z</time></trkpt><trkpt lat="43.0835155" lon="11.5552213"><ele>251.0</ele><time>2026-04-03T12:21:37.714Z</time></trkpt><trkpt lat="43.0834853" lon="11.5554467"><ele>252.0</ele><time>2026-04-03T12:21:38.714Z</time></trkpt><trkpt lat="43.0834666" lon="11.5556489"><ele>253.0</ele><time>2026-04-03T12:21:39.713Z</time></trkpt><trkpt lat="43.0834717" lon="11.5558357"><ele>254.0</ele><time>2026-04-03T12:21:40.713Z</time></trkpt><trkpt lat="43.0835109" lon="11.5560005"><ele>255.0</ele><time>2026-04-03T12:21:41.714Z</time></trkpt><trkpt lat="43.0835861" lon="11.5561322"><ele>255.0</ele><time>2026-04-03T12:21:42.714Z</time></trkpt><trkpt lat="43.0837037" lon="11.5562241"><ele>255.0</ele><time>2026-04-03T12:21:43.714Z</time></trkpt><trkpt lat="43.0838633" lon="11.5562972"><ele>255.0</ele><time>2026-04-03T12:21:44.714Z</time></trkpt><trkpt lat="43.0840302" lon="11.5563778"><ele>258.3333333333333</ele><time>2026-04-03T12:21:45.714Z</time></trkpt><trkpt lat="43.0841856" lon="11.5564999"><ele>261.66666666666663</ele><time>2026-04-03T12:21:46.714Z</time></trkpt><trkpt lat="43.0843273" lon="11.556667"><ele>265.0</ele><time>2026-04-03T12:21:47.714Z</time></trkpt><trkpt lat="43.0844364" lon="11.5568346"><ele>265.0</ele><time>2026-04-03T12:21:48.714Z</time></trkpt><trkpt lat="43.0845038" lon="11.5570064"><ele>265.0</ele><time>2026-04-03T12:21:49.714Z</time></trkpt><trkpt lat="43.0845505" lon="11.5572201"><ele>265.0</ele><time>2026-04-03T12:21:50.713Z</time></trkpt><trkpt lat="43.0845752" lon="11.5574573"><ele>267.66666666666663</ele><time>2026-04-03T12:21:51.714Z</time></trkpt><trkpt lat="43.0845752" lon="11.5576945"><ele>270.3333333333333</ele><time>2026-04-03T12:21:52.714Z</time></trkpt><trkpt lat="43.0845333" lon="11.5579477"><ele>273.0</ele><time>2026-04-03T12:21:53.714Z</time></trkpt><trkpt lat="43.0844542" lon="11.5582085"><ele>274.6666666666667</ele><time>2026-04-03T12:21:54.713Z</time></trkpt><trkpt lat="43.0843768" lon="11.5584326"><ele>276.33333333333337</ele><time>2026-04-03T12:21:55.713Z</time></trkpt><trkpt lat="43.08434" lon="11.5586395"><ele>278.0</ele><time>2026-04-03T12:21:56.712Z</time></trkpt><trkpt lat="43.0843412" lon="11.5588388"><ele>278.75</ele><time>2026-04-03T12:21:57.713Z</time></trkpt><trkpt lat="43.084384" lon="11.5590049"><ele>279.5</ele><time>2026-04-03T12:21:58.713Z</time></trkpt><trkpt lat="43.0844504" lon="11.5591358"><ele>280.25</ele><time>2026-04-03T12:21:59.712Z</time></trkpt><trkpt lat="43.0845344" lon="11.5592143"><ele>281.0</ele><time>2026-04-03T12:22:00.712Z</time></trkpt><trkpt lat="43.0846467" lon="11.5592595"><ele>281.0</ele><time>2026-04-03T12:22:01.713Z</time></trkpt><trkpt lat="43.0847355" lon="11.5593144"><ele>281.0</ele><time>2026-04-03T12:22:02.713Z</time></trkpt><trkpt lat="43.0847965" lon="11.5594278"><ele>281.0</ele><time>2026-04-03T12:22:03.713Z</time></trkpt><trkpt lat="43.0848148" lon="11.5595677"><ele>281.0</ele><time>2026-04-03T12:22:04.713Z</time></trkpt><trkpt lat="43.084795" lon="11.5597273"><ele>281.0</ele><time>2026-04-03T12:22:05.713Z</time></trkpt><trkpt lat="43.0847782" lon="11.559881"><ele>281.0</ele><time>2026-04-03T12:22:06.712Z</time></trkpt><trkpt lat="43.0848196" lon="11.5600277"><ele>281.0</ele><time>2026-04-03T12:22:07.713Z</time></trkpt><trkpt lat="43.0848958" lon="11.5601601"><ele>281.0</ele><time>2026-04-03T12:22:08.713Z</time></trkpt><trkpt lat="43.0849975" lon="11.5602789"><ele>281.0</ele><time>2026-04-03T12:22:09.712Z</time></trkpt><trkpt lat="43.085071" lon="11.5604103"><ele>283.5</ele><time>2026-04-03T12:22:10.713Z</time></trkpt><trkpt lat="43.0851023" lon="11.5605555"><ele>286.0</ele><time>2026-04-03T12:22:11.713Z</time></trkpt><trkpt lat="43.0850818" lon="11.5606913"><ele>288.5</ele><time>2026-04-03T12:22:12.713Z</time></trkpt><trkpt lat="43.0850234" lon="11.5608123"><ele>291.0</ele><time>2026-04-03T12:22:13.713Z</time></trkpt><trkpt lat="43.0849178" lon="11.560921"><ele>291.5</ele><time>2026-04-03T12:22:14.713Z</time></trkpt><trkpt lat="43.0848333" lon="11.561035"><ele>292.0</ele><time>2026-04-03T12:22:15.713Z</time></trkpt><trkpt lat="43.0847984" lon="11.561162"><ele>292.5</ele><time>2026-04-03T12:22:16.713Z</time></trkpt><trkpt lat="43.084799" lon="11.5613066"><ele>293.0</ele><time>2026-04-03T12:22:17.712Z</time></trkpt><trkpt lat="43.0848516" lon="11.5614734"><ele>294.6666666666667</ele><time>2026-04-03T12:22:18.713Z</time></trkpt><trkpt lat="43.0849348" lon="11.5616672"><ele>296.3333333333333</ele><time>2026-04-03T12:22:19.713Z</time></trkpt><trkpt lat="43.085013" lon="11.5618712"><ele>298.0</ele><time>2026-04-03T12:22:20.713Z</time></trkpt><trkpt lat="43.0850725" lon="11.5620505"><ele>298.75</ele><time>2026-04-03T12:22:21.713Z</time></trkpt><trkpt lat="43.0851025" lon="11.562218"><ele>299.5</ele><time>2026-04-03T12:22:22.712Z</time></trkpt><trkpt lat="43.085092" lon="11.5624037"><ele>300.25</ele><time>2026-04-03T12:22:23.713Z</time></trkpt><trkpt lat="43.0850316" lon="11.5625763"><ele>301.0</ele><time>2026-04-03T12:22:24.713Z</time></trkpt><trkpt lat="43.0849347" lon="11.5627218"><ele>300.66666666666663</ele><time>2026-04-03T12:22:25.713Z</time></trkpt><trkpt lat="43.0848084" lon="11.56282"><ele>300.3333333333333</ele><time>2026-04-03T12:22:26.712Z</time></trkpt><trkpt lat="43.0846479" lon="11.5628602"><ele>300.0</ele><time>2026-04-03T12:22:27.712Z</time></trkpt><trkpt lat="43.0844606" lon="11.5628711"><ele>300.0</ele><time>2026-04-03T12:22:28.713Z</time></trkpt><trkpt lat="43.0842739" lon="11.5628869"><ele>300.0</ele><time>2026-04-03T12:22:29.713Z</time></trkpt><trkpt lat="43.0840942" lon="11.5629288"><ele>300.0</ele><time>2026-04-03T12:22:30.713Z</time></trkpt><trkpt lat="43.0839278" lon="11.5629923"><ele>300.3333333333333</ele><time>2026-04-03T12:22:31.713Z</time></trkpt><trkpt lat="43.0837728" lon="11.5630917"><ele>300.66666666666663</ele><time>2026-04-03T12:22:32.712Z</time></trkpt><trkpt lat="43.0836254" lon="11.563242"><ele>301.0</ele><time>2026-04-03T12:22:33.713Z</time></trkpt><trkpt lat="43.0834847" lon="11.5634315"><ele>301.0</ele><time>2026-04-03T12:22:34.713Z</time></trkpt><trkpt lat="43.0833569" lon="11.5636532"><ele>301.0</ele><time>2026-04-03T12:22:35.713Z</time></trkpt><trkpt lat="43.0832418" lon="11.5638874"><ele>301.0</ele><time>2026-04-03T12:22:36.713Z</time></trkpt><trkpt lat="43.083134" lon="11.5641403"><ele>301.0</ele><time>2026-04-03T12:22:37.713Z</time></trkpt><trkpt lat="43.083025" lon="11.5644159"><ele>301.0</ele><time>2026-04-03T12:22:38.713Z</time></trkpt><trkpt lat="43.0829219" lon="11.5646978"><ele>303.0</ele><time>2026-04-03T12:22:39.713Z</time></trkpt><trkpt lat="43.0828196" lon="11.5649647"><ele>305.0</ele><time>2026-04-03T12:22:40.713Z</time></trkpt><trkpt lat="43.0827123" lon="11.5652157"><ele>307.0</ele><time>2026-04-03T12:22:41.712Z</time></trkpt><trkpt lat="43.0825888" lon="11.5654446"><ele>307.3333333333333</ele><time>2026-04-03T12:22:42.713Z</time></trkpt><trkpt lat="43.0824505" lon="11.5656693"><ele>307.6666666666667</ele><time>2026-04-03T12:22:43.713Z</time></trkpt><trkpt lat="43.0823044" lon="11.5658924"><ele>308.0</ele><time>2026-04-03T12:22:44.713Z</time></trkpt><trkpt lat="43.082161" lon="11.5661152"><ele>311.6666666666667</ele><time>2026-04-03T12:22:45.713Z</time></trkpt><trkpt lat="43.0820164" lon="11.566337"><ele>315.3333333333333</ele><time>2026-04-03T12:22:46.713Z</time></trkpt><trkpt lat="43.0818853" lon="11.5665566"><ele>319.0</ele><time>2026-04-03T12:22:47.712Z</time></trkpt><trkpt lat="43.0817703" lon="11.5667877"><ele>322.0</ele><time>2026-04-03T12:22:48.712Z</time></trkpt><trkpt lat="43.0816836" lon="11.5670307"><ele>325.0</ele><time>2026-04-03T12:22:49.712Z</time></trkpt><trkpt lat="43.0816261" lon="11.5672778"><ele>328.0</ele><time>2026-04-03T12:22:50.713Z</time></trkpt><trkpt lat="43.0815822" lon="11.5675324"><ele>322.0</ele><time>2026-04-03T12:22:51.713Z</time></trkpt><trkpt lat="43.0815516" lon="11.5677917"><ele>316.0</ele><time>2026-04-03T12:22:52.713Z</time></trkpt><trkpt lat="43.0815318" lon="11.5680794"><ele>310.0</ele><time>2026-04-03T12:22:53.713Z</time></trkpt><trkpt lat="43.0815042" lon="11.5683681"><ele>310.0</ele><time>2026-04-03T12:22:54.713Z</time></trkpt><trkpt lat="43.0814608" lon="11.5686566"><ele>310.0</ele><time>2026-04-03T12:22:55.712Z</time></trkpt><trkpt lat="43.0813964" lon="11.568933"><ele>310.0</ele><time>2026-04-03T12:22:56.713Z</time></trkpt><trkpt lat="43.0812982" lon="11.5692313"><ele>313.66666666666663</ele><time>2026-04-03T12:22:57.713Z</time></trkpt><trkpt lat="43.0811961" lon="11.5695071"><ele>317.3333333333333</ele><time>2026-04-03T12:22:58.713Z</time></trkpt><trkpt lat="43.0811021" lon="11.5697357"><ele>321.0</ele><time>2026-04-03T12:22:59.713Z</time></trkpt><trkpt lat="43.0810038" lon="11.5699402"><ele>323.3333333333333</ele><time>2026-04-03T12:23:00.713Z</time></trkpt><trkpt lat="43.0808868" lon="11.5701124"><ele>325.66666666666663</ele><time>2026-04-03T12:23:01.713Z</time></trkpt><trkpt lat="43.080751" lon="11.5702273"><ele>328.0</ele><time>2026-04-03T12:23:02.713Z</time></trkpt><trkpt lat="43.0806076" lon="11.5702871"><ele>328.0</ele><time>2026-04-03T12:23:03.712Z</time></trkpt><trkpt lat="43.0804527" lon="11.5702937"><ele>328.0</ele><time>2026-04-03T12:23:04.712Z</time></trkpt><trkpt lat="43.0802924" lon="11.5702734"><ele>328.0</ele><time>2026-04-03T12:23:05.713Z</time></trkpt><trkpt lat="43.0801069" lon="11.5702272"><ele>329.0</ele><time>2026-04-03T12:23:06.713Z</time></trkpt><trkpt lat="43.0798986" lon="11.5701692"><ele>330.0</ele><time>2026-04-03T12:23:07.713Z</time></trkpt><trkpt lat="43.0796676" lon="11.570117"><ele>331.0</ele><time>2026-04-03T12:23:08.713Z</time></trkpt><trkpt lat="43.079435" lon="11.5700584"><ele>331.0</ele><time>2026-04-03T12:23:09.713Z</time></trkpt><trkpt lat="43.07922" lon="11.5700085"><ele>331.0</ele><time>2026-04-03T12:23:10.712Z</time></trkpt><trkpt lat="43.079038" lon="11.5699585"><ele>331.0</ele><time>2026-04-03T12:23:11.713Z</time></trkpt><trkpt lat="43.0788699" lon="11.5699275"><ele>331.3333333333333</ele><time>2026-04-03T12:23:12.713Z</time></trkpt><trkpt lat="43.0787085" lon="11.5699249"><ele>331.6666666666667</ele><time>2026-04-03T12:23:13.713Z</time></trkpt><trkpt lat="43.0785502" lon="11.569971"><ele>332.0</ele><time>2026-04-03T12:23:14.713Z</time></trkpt><trkpt lat="43.0783825" lon="11.570047"><ele>331.6666666666667</ele><time>2026-04-03T12:23:15.713Z</time></trkpt><trkpt lat="43.0781992" lon="11.5701581"><ele>331.3333333333333</ele><time>2026-04-03T12:23:16.713Z</time></trkpt><trkpt lat="43.078004" lon="11.5702723"><ele>331.0</ele><time>2026-04-03T12:23:17.713Z</time></trkpt><trkpt lat="43.077804" lon="11.5703863"><ele>326.66666666666663</ele><time>2026-04-03T12:23:18.713Z</time></trkpt><trkpt lat="43.0776247" lon="11.5704881"><ele>322.3333333333333</ele><time>2026-04-03T12:23:19.712Z</time></trkpt><trkpt lat="43.0774645" lon="11.5705871"><ele>318.0</ele><time>2026-04-03T12:23:20.712Z</time></trkpt><trkpt lat="43.0772961" lon="11.5707207"><ele>318.0</ele><time>2026-04-03T12:23:21.712Z</time></trkpt><trkpt lat="43.0771391" lon="11.5708686"><ele>318.0</ele><time>2026-04-03T12:23:22.713Z</time></trkpt><trkpt lat="43.0770006" lon="11.5710149"><ele>318.0</ele><time>2026-04-03T12:23:23.712Z</time></trkpt><trkpt lat="43.076884" lon="11.5711343"><ele>315.25</ele><time>2026-04-03T12:23:24.713Z</time></trkpt><trkpt lat="43.0767571" lon="11.5712248"><ele>312.5</ele><time>2026-04-03T12:23:25.713Z</time></trkpt><trkpt lat="43.0766283" lon="11.5712648"><ele>309.75</ele><time>2026-04-03T12:23:26.712Z</time></trkpt><trkpt lat="43.0764929" lon="11.5712595"><ele>307.0</ele><time>2026-04-03T12:23:27.713Z</time></trkpt><trkpt lat="43.0763517" lon="11.5712101"><ele>306.3333333333333</ele><time>2026-04-03T12:23:28.713Z</time></trkpt><trkpt lat="43.0762176" lon="11.5710977"><ele>305.6666666666667</ele><time>2026-04-03T12:23:29.713Z</time></trkpt><trkpt lat="43.0760819" lon="11.5709281"><ele>305.0</ele><time>2026-04-03T12:23:30.713Z</time></trkpt><trkpt lat="43.0759429" lon="11.5707629"><ele>305.0</ele><time>2026-04-03T12:23:31.712Z</time></trkpt><trkpt lat="43.0758199" lon="11.5706201"><ele>305.0</ele><time>2026-04-03T12:23:32.713Z</time></trkpt><trkpt lat="43.0757082" lon="11.5704959"><ele>305.0</ele><time>2026-04-03T12:23:33.713Z</time></trkpt><trkpt lat="43.0756117" lon="11.5704116"><ele>305.0</ele><time>2026-04-03T12:23:34.713Z</time></trkpt><trkpt lat="43.0755126" lon="11.5703812"><ele>302.4</ele><time>2026-04-03T12:23:35.713Z</time></trkpt><trkpt lat="43.0754196" lon="11.5704093"><ele>299.8</ele><time>2026-04-03T12:23:36.713Z</time></trkpt><trkpt lat="43.0753397" lon="11.5704899"><ele>297.2</ele><time>2026-04-03T12:23:37.712Z</time></trkpt><trkpt lat="43.075294" lon="11.5706172"><ele>294.6</ele><time>2026-04-03T12:23:38.713Z</time></trkpt><trkpt lat="43.0752796" lon="11.5707883"><ele>292.0</ele><time>2026-04-03T12:23:39.713Z</time></trkpt><trkpt lat="43.0753218" lon="11.5709696"><ele>292.0</ele><time>2026-04-03T12:23:40.713Z</time></trkpt><trkpt lat="43.0754077" lon="11.5711734"><ele>292.0</ele><time>2026-04-03T12:23:41.713Z</time></trkpt><trkpt lat="43.0755273" lon="11.5713783"><ele>292.0</ele><time>2026-04-03T12:23:42.712Z</time></trkpt><trkpt lat="43.0756427" lon="11.5715531"><ele>293.25</ele><time>2026-04-03T12:23:43.712Z</time></trkpt><trkpt lat="43.0757364" lon="11.571707"><ele>294.5</ele><time>2026-04-03T12:23:44.712Z</time></trkpt><trkpt lat="43.0757872" lon="11.5718616"><ele>295.75</ele><time>2026-04-03T12:23:45.713Z</time></trkpt><trkpt lat="43.0758137" lon="11.5720385"><ele>297.0</ele><time>2026-04-03T12:23:46.712Z</time></trkpt><trkpt lat="43.0758348" lon="11.5722164"><ele>293.0</ele><time>2026-04-03T12:23:47.712Z</time></trkpt><trkpt lat="43.0758912" lon="11.5723895"><ele>289.0</ele><time>2026-04-03T12:23:48.713Z</time></trkpt><trkpt lat="43.0759906" lon="11.5725541"><ele>285.0</ele><time>2026-04-03T12:23:49.713Z</time></trkpt><trkpt lat="43.0761249" lon="11.5726656"><ele>285.0</ele><time>2026-04-03T12:23:50.713Z</time></trkpt><trkpt lat="43.076263" lon="11.5727592"><ele>285.0</ele><time>2026-04-03T12:23:51.712Z</time></trkpt><trkpt lat="43.0763777" lon="11.5728482"><ele>285.0</ele><time>2026-04-03T12:23:52.713Z</time></trkpt><trkpt lat="43.0764606" lon="11.5729344"><ele>285.0</ele><time>2026-04-03T12:23:53.712Z</time></trkpt><trkpt lat="43.0765077" lon="11.5730401"><ele>283.0</ele><time>2026-04-03T12:23:54.712Z</time></trkpt><trkpt lat="43.0765073" lon="11.573174"><ele>281.0</ele><time>2026-04-03T12:23:55.712Z</time></trkpt><trkpt lat="43.0764589" lon="11.5732821"><ele>279.0</ele><time>2026-04-03T12:23:56.712Z</time></trkpt><trkpt lat="43.0763722" lon="11.5733438"><ele>277.0</ele><time>2026-04-03T12:23:57.713Z</time></trkpt><trkpt lat="43.0762602" lon="11.5733441"><ele>275.0</ele><time>2026-04-03T12:23:58.713Z</time></trkpt><trkpt lat="43.0761292" lon="11.5732857"><ele>275.0</ele><time>2026-04-03T12:23:59.713Z</time></trkpt><trkpt lat="43.0759837" lon="11.5731784"><ele>275.0</ele><time>2026-04-03T12:24:00.712Z</time></trkpt><trkpt lat="43.0758646" lon="11.5730327"><ele>275.0</ele><time>2026-04-03T12:24:01.713Z</time></trkpt><trkpt lat="43.0757528" lon="11.57291"><ele>274.2</ele><time>2026-04-03T12:24:02.713Z</time></trkpt><trkpt lat="43.0756419" lon="11.5728376"><ele>273.4</ele><time>2026-04-03T12:24:03.713Z</time></trkpt><trkpt lat="43.0755316" lon="11.5728089"><ele>272.6</ele><time>2026-04-03T12:24:04.713Z</time></trkpt><trkpt lat="43.0754346" lon="11.5728259"><ele>271.8</ele><time>2026-04-03T12:24:05.712Z</time></trkpt><trkpt lat="43.075347" lon="11.5729006"><ele>271.0</ele><time>2026-04-03T12:24:06.713Z</time></trkpt><trkpt lat="43.0753024" lon="11.5730111"><ele>270.2</ele><time>2026-04-03T12:24:07.713Z</time></trkpt><trkpt lat="43.0753097" lon="11.573137"><ele>269.40000000000003</ele><time>2026-04-03T12:24:08.713Z</time></trkpt><trkpt lat="43.0753553" lon="11.5732973"><ele>268.6</ele><time>2026-04-03T12:24:09.713Z</time></trkpt><trkpt lat="43.0753934" lon="11.5734496"><ele>267.8</ele><time>2026-04-03T12:24:10.712Z</time></trkpt><trkpt lat="43.0753772" lon="11.5735898"><ele>267.0</ele><time>2026-04-03T12:24:11.713Z</time></trkpt><trkpt lat="43.0753101" lon="11.5737177"><ele>264.3333333333333</ele><time>2026-04-03T12:24:12.712Z</time></trkpt><trkpt lat="43.0751954" lon="11.5738065"><ele>261.66666666666663</ele><time>2026-04-03T12:24:13.713Z</time></trkpt><trkpt lat="43.0750327" lon="11.5738489"><ele>259.0</ele><time>2026-04-03T12:24:14.712Z</time></trkpt><trkpt lat="43.0748538" lon="11.5738603"><ele>258.66666666666663</ele><time>2026-04-03T12:24:15.713Z</time></trkpt><trkpt lat="43.0746929" lon="11.5738514"><ele>258.3333333333333</ele><time>2026-04-03T12:24:16.713Z</time></trkpt><trkpt lat="43.0745456" lon="11.5738686"><ele>258.0</ele><time>2026-04-03T12:24:17.712Z</time></trkpt><trkpt lat="43.0743927" lon="11.5739614"><ele>258.0</ele><time>2026-04-03T12:24:18.712Z</time></trkpt><trkpt lat="43.0742473" lon="11.5741256"><ele>258.0</ele><time>2026-04-03T12:24:19.713Z</time></trkpt><trkpt lat="43.0741035" lon="11.57435"><ele>258.0</ele><time>2026-04-03T12:24:20.712Z</time></trkpt><trkpt lat="43.0739612" lon="11.5745969"><ele>256.6666666666667</ele><time>2026-04-03T12:24:21.712Z</time></trkpt><trkpt lat="43.0738352" lon="11.5748327"><ele>255.33333333333334</ele><time>2026-04-03T12:24:22.712Z</time></trkpt><trkpt lat="43.0737322" lon="11.5750828"><ele>254.0</ele><time>2026-04-03T12:24:23.713Z</time></trkpt><trkpt lat="43.0736581" lon="11.5753468"><ele>253.33333333333334</ele><time>2026-04-03T12:24:24.713Z</time></trkpt><trkpt lat="43.0736176" lon="11.5756335"><ele>252.66666666666669</ele><time>2026-04-03T12:24:25.712Z</time></trkpt><trkpt lat="43.0735854" lon="11.5759124"><ele>252.0</ele><time>2026-04-03T12:24:26.713Z</time></trkpt><trkpt lat="43.0735684" lon="11.5761754"><ele>251.33333333333331</ele><time>2026-04-03T12:24:27.713Z</time></trkpt><trkpt lat="43.0735609" lon="11.5764278"><ele>250.66666666666666</ele><time>2026-04-03T12:24:28.713Z</time></trkpt><trkpt lat="43.0735642" lon="11.5766494"><ele>250.0</ele><time>2026-04-03T12:24:29.713Z</time></trkpt><trkpt lat="43.0735754" lon="11.5768494"><ele>249.75</ele><time>2026-04-03T12:24:30.712Z</time></trkpt><trkpt lat="43.07359" lon="11.5770319"><ele>249.5</ele><time>2026-04-03T12:24:31.712Z</time></trkpt><trkpt lat="43.0736029" lon="11.5772062"><ele>249.25</ele><time>2026-04-03T12:24:32.713Z</time></trkpt><trkpt lat="43.0736138" lon="11.5773862"><ele>249.0</ele><time>2026-04-03T12:24:33.713Z</time></trkpt><trkpt lat="43.0736087" lon="11.5775706"><ele>249.0</ele><time>2026-04-03T12:24:34.713Z</time></trkpt><trkpt lat="43.0735876" lon="11.5777633"><ele>249.0</ele><time>2026-04-03T12:24:35.713Z</time></trkpt><trkpt lat="43.0735402" lon="11.577961"><ele>249.0</ele><time>2026-04-03T12:24:36.712Z</time></trkpt><trkpt lat="43.0734727" lon="11.57816"><ele>249.66666666666669</ele><time>2026-04-03T12:24:37.713Z</time></trkpt><trkpt lat="43.0733787" lon="11.578361"><ele>250.33333333333334</ele><time>2026-04-03T12:24:38.713Z</time></trkpt><trkpt lat="43.0732647" lon="11.578561"><ele>251.0</ele><time>2026-04-03T12:24:39.713Z</time></trkpt><trkpt lat="43.0731383" lon="11.5787685"><ele>251.66666666666669</ele><time>2026-04-03T12:24:40.712Z</time></trkpt><trkpt lat="43.0730054" lon="11.5789878"><ele>252.33333333333331</ele><time>2026-04-03T12:24:41.713Z</time></trkpt><trkpt lat="43.0728648" lon="11.5792218"><ele>253.0</ele><time>2026-04-03T12:24:42.713Z</time></trkpt><trkpt lat="43.0727194" lon="11.5794697"><ele>253.5</ele><time>2026-04-03T12:24:43.713Z</time></trkpt><trkpt lat="43.07256" lon="11.5797133"><ele>254.0</ele><time>2026-04-03T12:24:44.713Z</time></trkpt><trkpt lat="43.0723976" lon="11.5799301"><ele>256.33333333333337</ele><time>2026-04-03T12:24:45.712Z</time></trkpt><trkpt lat="43.0722517" lon="11.5801089"><ele>258.6666666666667</ele><time>2026-04-03T12:24:46.713Z</time></trkpt><trkpt lat="43.0721299" lon="11.580282"><ele>261.0</ele><time>2026-04-03T12:24:47.713Z</time></trkpt><trkpt lat="43.0720414" lon="11.5804723"><ele>261.6666666666667</ele><time>2026-04-03T12:24:48.713Z</time></trkpt><trkpt lat="43.0719868" lon="11.5806654"><ele>262.33333333333337</ele><time>2026-04-03T12:24:49.713Z</time></trkpt><trkpt lat="43.071973" lon="11.5808755"><ele>263.0</ele><time>2026-04-03T12:24:50.712Z</time></trkpt><trkpt lat="43.0720096" lon="11.5810988"><ele>264.6666666666667</ele><time>2026-04-03T12:24:51.713Z</time></trkpt><trkpt lat="43.0720862" lon="11.5813272"><ele>266.3333333333333</ele><time>2026-04-03T12:24:52.713Z</time></trkpt><trkpt lat="43.0721462" lon="11.5815273"><ele>268.0</ele><time>2026-04-03T12:24:53.712Z</time></trkpt><trkpt lat="43.0721684" lon="11.5816827"><ele>268.0</ele><time>2026-04-03T12:24:54.713Z</time></trkpt><trkpt lat="43.0721575" lon="11.5818051"><ele>268.0</ele><time>2026-04-03T12:24:55.713Z</time></trkpt><trkpt lat="43.0721079" lon="11.581889"><ele>268.0</ele><time>2026-04-03T12:24:56.713Z</time></trkpt><trkpt lat="43.0720264" lon="11.5819207"><ele>268.0</ele><time>2026-04-03T12:24:57.713Z</time></trkpt><trkpt lat="43.0719308" lon="11.5818907"><ele>268.0</ele><time>2026-04-03T12:24:58.713Z</time></trkpt><trkpt lat="43.0718203" lon="11.5817899"><ele>268.0</ele><time>2026-04-03T12:24:59.713Z</time></trkpt><trkpt lat="43.0716894" lon="11.5816719"><ele>268.0</ele><time>2026-04-03T12:25:00.713Z</time></trkpt><trkpt lat="43.0715146" lon="11.5815615"><ele>268.0</ele><time>2026-04-03T12:25:01.713Z</time></trkpt><trkpt lat="43.071337" lon="11.5814598"><ele>268.0</ele><time>2026-04-03T12:25:02.712Z</time></trkpt><trkpt lat="43.0711984" lon="11.5813314"><ele>268.0</ele><time>2026-04-03T12:25:03.712Z</time></trkpt><trkpt lat="43.0711131" lon="11.5811936"><ele>268.0</ele><time>2026-04-03T12:25:04.712Z</time></trkpt><trkpt lat="43.0710311" lon="11.581059"><ele>268.0</ele><time>2026-04-03T12:25:05.713Z</time></trkpt><trkpt lat="43.0709171" lon="11.5810102"><ele>268.0</ele><time>2026-04-03T12:25:06.713Z</time></trkpt><trkpt lat="43.0708059" lon="11.5810176"><ele>268.0</ele><time>2026-04-03T12:25:07.713Z</time></trkpt><trkpt lat="43.0707157" lon="11.5811045"><ele>268.0</ele><time>2026-04-03T12:25:08.713Z</time></trkpt><trkpt lat="43.0706808" lon="11.5812029"><ele>268.0</ele><time>2026-04-03T12:25:09.713Z</time></trkpt><trkpt lat="43.0706847" lon="11.5813545"><ele>268.0</ele><time>2026-04-03T12:25:10.713Z</time></trkpt><trkpt lat="43.0707399" lon="11.5815165"><ele>270.3333333333333</ele><time>2026-04-03T12:25:11.713Z</time></trkpt><trkpt lat="43.0708354" lon="11.5817045"><ele>272.6666666666667</ele><time>2026-04-03T12:25:12.713Z</time></trkpt><trkpt lat="43.0709484" lon="11.5819391"><ele>275.0</ele><time>2026-04-03T12:25:13.713Z</time></trkpt><trkpt lat="43.0710473" lon="11.5821656"><ele>277.6666666666667</ele><time>2026-04-03T12:25:14.713Z</time></trkpt><trkpt lat="43.0711176" lon="11.5823798"><ele>280.3333333333333</ele><time>2026-04-03T12:25:15.712Z</time></trkpt><trkpt lat="43.0711569" lon="11.582597"><ele>283.0</ele><time>2026-04-03T12:25:16.713Z</time></trkpt><trkpt lat="43.0711638" lon="11.5828248"><ele>283.66666666666663</ele><time>2026-04-03T12:25:17.713Z</time></trkpt><trkpt lat="43.0711474" lon="11.5830536"><ele>284.3333333333333</ele><time>2026-04-03T12:25:18.712Z</time></trkpt><trkpt lat="43.071094" lon="11.5832815"><ele>285.0</ele><time>2026-04-03T12:25:19.712Z</time></trkpt><trkpt lat="43.0710116" lon="11.5835215"><ele>286.5</ele><time>2026-04-03T12:25:20.712Z</time></trkpt><trkpt lat="43.0709209" lon="11.5837986"><ele>288.0</ele><time>2026-04-03T12:25:21.713Z</time></trkpt><trkpt lat="43.0708172" lon="11.5841135"><ele>290.5</ele><time>2026-04-03T12:25:22.713Z</time></trkpt><trkpt lat="43.0707186" lon="11.5844297"><ele>293.0</ele><time>2026-04-03T12:25:23.713Z</time></trkpt><trkpt lat="43.0706343" lon="11.5846856"><ele>293.25</ele><time>2026-04-03T12:25:24.713Z</time></trkpt><trkpt lat="43.0705682" lon="11.5849013"><ele>293.5</ele><time>2026-04-03T12:25:25.712Z</time></trkpt><trkpt lat="43.0705037" lon="11.5850636"><ele>293.75</ele><time>2026-04-03T12:25:26.713Z</time></trkpt><trkpt lat="43.0704358" lon="11.5851721"><ele>294.0</ele><time>2026-04-03T12:25:27.713Z</time></trkpt><trkpt lat="43.0703459" lon="11.5852346"><ele>294.0</ele><time>2026-04-03T12:25:28.713Z</time></trkpt><trkpt lat="43.0702085" lon="11.5852356"><ele>294.0</ele><time>2026-04-03T12:25:29.712Z</time></trkpt><trkpt lat="43.0700655" lon="11.5851501"><ele>294.0</ele><time>2026-04-03T12:25:30.713Z</time></trkpt><trkpt lat="43.0698956" lon="11.5850345"><ele>298.0</ele><time>2026-04-03T12:25:31.712Z</time></trkpt><trkpt lat="43.069709" lon="11.5848947"><ele>302.0</ele><time>2026-04-03T12:25:32.712Z</time></trkpt><trkpt lat="43.0694985" lon="11.5847446"><ele>302.0</ele><time>2026-04-03T12:25:33.713Z</time></trkpt><trkpt lat="43.069284" lon="11.5845751"><ele>302.0</ele><time>2026-04-03T12:25:34.712Z</time></trkpt><trkpt lat="43.069089" lon="11.5844216"><ele>301.6666666666667</ele><time>2026-04-03T12:25:35.712Z</time></trkpt><trkpt lat="43.0689252" lon="11.5843017"><ele>301.3333333333333</ele><time>2026-04-03T12:25:36.712Z</time></trkpt><trkpt lat="43.068783" lon="11.5842011"><ele>301.0</ele><time>2026-04-03T12:25:37.712Z</time></trkpt><trkpt lat="43.0686524" lon="11.5841443"><ele>301.0</ele><time>2026-04-03T12:25:38.713Z</time></trkpt><trkpt lat="43.0685184" lon="11.5841485"><ele>301.0</ele><time>2026-04-03T12:25:39.712Z</time></trkpt><trkpt lat="43.0683779" lon="11.584218"><ele>301.0</ele><time>2026-04-03T12:25:40.713Z</time></trkpt><trkpt lat="43.0682363" lon="11.5843348"><ele>301.0</ele><time>2026-04-03T12:25:41.713Z</time></trkpt><trkpt lat="43.068126" lon="11.5844878"><ele>300.3333333333333</ele><time>2026-04-03T12:25:42.713Z</time></trkpt><trkpt lat="43.0680524" lon="11.5846761"><ele>299.6666666666667</ele><time>2026-04-03T12:25:43.712Z</time></trkpt><trkpt lat="43.0680184" lon="11.5849007"><ele>299.0</ele><time>2026-04-03T12:25:44.713Z</time></trkpt><trkpt lat="43.0679953" lon="11.5851738"><ele>303.0</ele><time>2026-04-03T12:25:45.713Z</time></trkpt><trkpt lat="43.067983" lon="11.5854749"><ele>307.0</ele><time>2026-04-03T12:25:46.712Z</time></trkpt><trkpt lat="43.0679642" lon="11.5857919"><ele>307.0</ele><time>2026-04-03T12:25:47.713Z</time></trkpt><trkpt lat="43.0679465" lon="11.586089"><ele>307.0</ele><time>2026-04-03T12:25:48.713Z</time></trkpt><trkpt lat="43.0679238" lon="11.5863453"><ele>307.0</ele><time>2026-04-03T12:25:49.712Z</time></trkpt><trkpt lat="43.0678918" lon="11.5866009"><ele>309.66666666666663</ele><time>2026-04-03T12:25:50.713Z</time></trkpt><trkpt lat="43.0678213" lon="11.586855"><ele>312.3333333333333</ele><time>2026-04-03T12:25:51.713Z</time></trkpt><trkpt lat="43.0677205" lon="11.5871088"><ele>315.0</ele><time>2026-04-03T12:25:52.712Z</time></trkpt><trkpt lat="43.0675827" lon="11.5873776"><ele>315.5</ele><time>2026-04-03T12:25:53.712Z</time></trkpt><trkpt lat="43.0674282" lon="11.5876687"><ele>316.0</ele><time>2026-04-03T12:25:54.712Z</time></trkpt><trkpt lat="43.067274" lon="11.5879595"><ele>318.5</ele><time>2026-04-03T12:25:55.713Z</time></trkpt><trkpt lat="43.0671389" lon="11.5882236"><ele>321.0</ele><time>2026-04-03T12:25:56.713Z</time></trkpt><trkpt lat="43.0670074" lon="11.5884794"><ele>322.0</ele><time>2026-04-03T12:25:57.713Z</time></trkpt><trkpt lat="43.0668955" lon="11.5887503"><ele>323.0</ele><time>2026-04-03T12:25:58.713Z</time></trkpt><trkpt lat="43.0667973" lon="11.5890383"><ele>323.0</ele><time>2026-04-03T12:25:59.713Z</time></trkpt><trkpt lat="43.0667104" lon="11.5893337"><ele>323.0</ele><time>2026-04-03T12:26:00.713Z</time></trkpt><trkpt lat="43.0666319" lon="11.5896238"><ele>325.25</ele><time>2026-04-03T12:26:01.712Z</time></trkpt><trkpt lat="43.0665692" lon="11.5898552"><ele>327.5</ele><time>2026-04-03T12:26:02.713Z</time></trkpt><trkpt lat="43.0665075" lon="11.5900291"><ele>329.75</ele><time>2026-04-03T12:26:03.713Z</time></trkpt><trkpt lat="43.0664346" lon="11.5901458"><ele>332.0</ele><time>2026-04-03T12:26:04.712Z</time></trkpt><trkpt lat="43.0663302" lon="11.5902254"><ele>332.0</ele><time>2026-04-03T12:26:05.713Z</time></trkpt><trkpt lat="43.0661982" lon="11.5902408"><ele>332.0</ele><time>2026-04-03T12:26:06.713Z</time></trkpt><trkpt lat="43.0660603" lon="11.5902106"><ele>332.0</ele><time>2026-04-03T12:26:07.713Z</time></trkpt><trkpt lat="43.065915" lon="11.5901813"><ele>332.0</ele><time>2026-04-03T12:26:08.712Z</time></trkpt><trkpt lat="43.065755" lon="11.5902023"><ele>331.6666666666667</ele><time>2026-04-03T12:26:09.713Z</time></trkpt><trkpt lat="43.0655873" lon="11.5902676"><ele>331.3333333333333</ele><time>2026-04-03T12:26:10.713Z</time></trkpt><trkpt lat="43.0654029" lon="11.5903648"><ele>331.0</ele><time>2026-04-03T12:26:11.713Z</time></trkpt><trkpt lat="43.0652353" lon="11.5904761"><ele>330.66666666666663</ele><time>2026-04-03T12:26:12.713Z</time></trkpt><trkpt lat="43.0650961" lon="11.5906184"><ele>330.3333333333333</ele><time>2026-04-03T12:26:13.712Z</time></trkpt><trkpt lat="43.064968" lon="11.5907959"><ele>330.0</ele><time>2026-04-03T12:26:14.713Z</time></trkpt><trkpt lat="43.0648727" lon="11.5909828"><ele>330.0</ele><time>2026-04-03T12:26:15.713Z</time></trkpt><trkpt lat="43.064811" lon="11.5911674"><ele>330.0</ele><time>2026-04-03T12:26:16.713Z</time></trkpt><trkpt lat="43.0647786" lon="11.591378"><ele>330.0</ele><time>2026-04-03T12:26:17.713Z</time></trkpt><trkpt lat="43.0647854" lon="11.591603"><ele>331.6666666666667</ele><time>2026-04-03T12:26:18.713Z</time></trkpt><trkpt lat="43.0647999" lon="11.5918425"><ele>333.33333333333337</ele><time>2026-04-03T12:26:19.712Z</time></trkpt><trkpt lat="43.0648091" lon="11.5920879"><ele>335.0</ele><time>2026-04-03T12:26:20.713Z</time></trkpt><trkpt lat="43.0648004" lon="11.5923489"><ele>337.0</ele><time>2026-04-03T12:26:21.713Z</time></trkpt><trkpt lat="43.0647571" lon="11.5926096"><ele>339.0</ele><time>2026-04-03T12:26:22.713Z</time></trkpt><trkpt lat="43.0646924" lon="11.5928904"><ele>341.0</ele><time>2026-04-03T12:26:23.713Z</time></trkpt><trkpt lat="43.0646217" lon="11.5931562"><ele>343.33333333333337</ele><time>2026-04-03T12:26:24.713Z</time></trkpt><trkpt lat="43.0645635" lon="11.593422"><ele>345.6666666666667</ele><time>2026-04-03T12:26:25.713Z</time></trkpt><trkpt lat="43.0645228" lon="11.5937013"><ele>348.0</ele><time>2026-04-03T12:26:26.713Z</time></trkpt><trkpt lat="43.0644844" lon="11.5939873"><ele>350.3333333333333</ele><time>2026-04-03T12:26:27.712Z</time></trkpt><trkpt lat="43.0644479" lon="11.5942716"><ele>352.66666666666663</ele><time>2026-04-03T12:26:28.713Z</time></trkpt><trkpt lat="43.0644112" lon="11.5945395"><ele>355.0</ele><time>2026-04-03T12:26:29.712Z</time></trkpt><trkpt lat="43.0643764" lon="11.5947876"><ele>357.3333333333333</ele><time>2026-04-03T12:26:30.713Z</time></trkpt><trkpt lat="43.0643314" lon="11.5950249"><ele>359.6666666666667</ele><time>2026-04-03T12:26:31.713Z</time></trkpt><trkpt lat="43.0642617" lon="11.595251"><ele>362.0</ele><time>2026-04-03T12:26:32.712Z</time></trkpt><trkpt lat="43.0641613" lon="11.5954655"><ele>363.33333333333337</ele><time>2026-04-03T12:26:33.713Z</time></trkpt><trkpt lat="43.0640311" lon="11.5956741"><ele>364.6666666666667</ele><time>2026-04-03T12:26:34.713Z</time></trkpt><trkpt lat="43.0638707" lon="11.5959007"><ele>366.0</ele><time>2026-04-03T12:26:35.713Z</time></trkpt><trkpt lat="43.0636922" lon="11.5961464"><ele>371.0</ele><time>2026-04-03T12:26:36.713Z</time></trkpt><trkpt lat="43.0635147" lon="11.5963816"><ele>376.0</ele><time>2026-04-03T12:26:37.713Z</time></trkpt><trkpt lat="43.06334" lon="11.5965977"><ele>375.5</ele><time>2026-04-03T12:26:38.713Z</time></trkpt><trkpt lat="43.0631465" lon="11.5967903"><ele>375.0</ele><time>2026-04-03T12:26:39.713Z</time></trkpt><trkpt lat="43.0629269" lon="11.596971"><ele>380.5</ele><time>2026-04-03T12:26:40.712Z</time></trkpt><trkpt lat="43.0627034" lon="11.5971477"><ele>386.0</ele><time>2026-04-03T12:26:41.712Z</time></trkpt><trkpt lat="43.0625044" lon="11.5973115"><ele>383.66666666666663</ele><time>2026-04-03T12:26:42.712Z</time></trkpt><trkpt lat="43.0623329" lon="11.5974529"><ele>381.3333333333333</ele><time>2026-04-03T12:26:43.712Z</time></trkpt><trkpt lat="43.0621742" lon="11.5975808"><ele>379.0</ele><time>2026-04-03T12:26:44.712Z</time></trkpt><trkpt lat="43.0620283" lon="11.5977133"><ele>381.3333333333333</ele><time>2026-04-03T12:26:45.712Z</time></trkpt><trkpt lat="43.0619029" lon="11.5978603"><ele>383.66666666666663</ele><time>2026-04-03T12:26:46.713Z</time></trkpt><trkpt lat="43.061805" lon="11.598013"><ele>386.0</ele><time>2026-04-03T12:26:47.713Z</time></trkpt><trkpt lat="43.0617337" lon="11.5981915"><ele>386.0</ele><time>2026-04-03T12:26:48.713Z</time></trkpt><trkpt lat="43.0616845" lon="11.5983897"><ele>386.0</ele><time>2026-04-03T12:26:49.713Z</time></trkpt><trkpt lat="43.0616492" lon="11.5986028"><ele>386.0</ele><time>2026-04-03T12:26:50.713Z</time></trkpt><trkpt lat="43.0616269" lon="11.5988227"><ele>380.66666666666663</ele><time>2026-04-03T12:26:51.712Z</time></trkpt><trkpt lat="43.0616049" lon="11.5990537"><ele>375.3333333333333</ele><time>2026-04-03T12:26:52.713Z</time></trkpt><trkpt lat="43.0615821" lon="11.5992837"><ele>370.0</ele><time>2026-04-03T12:26:53.713Z</time></trkpt><trkpt lat="43.0615583" lon="11.59949"><ele>371.5</ele><time>2026-04-03T12:26:54.712Z</time></trkpt><trkpt lat="43.0615268" lon="11.5996661"><ele>373.0</ele><time>2026-04-03T12:26:55.713Z</time></trkpt><trkpt lat="43.0614783" lon="11.5998296"><ele>374.5</ele><time>2026-04-03T12:26:56.713Z</time></trkpt><trkpt lat="43.0614176" lon="11.5999967"><ele>376.0</ele><time>2026-04-03T12:26:57.712Z</time></trkpt><trkpt lat="43.0613505" lon="11.6001648"><ele>378.0</ele><time>2026-04-03T12:26:58.713Z</time></trkpt><trkpt lat="43.0612768" lon="11.6003335"><ele>380.0</ele><time>2026-04-03T12:26:59.713Z</time></trkpt><trkpt lat="43.0612025" lon="11.6005128"><ele>382.0</ele><time>2026-04-03T12:27:00.712Z</time></trkpt><trkpt lat="43.0611321" lon="11.6006981"><ele>384.0</ele><time>2026-04-03T12:27:01.712Z</time></trkpt><trkpt lat="43.0610639" lon="11.6008856"><ele>384.0</ele><time>2026-04-03T12:27:02.713Z</time></trkpt><trkpt lat="43.0609978" lon="11.6010705"><ele>384.0</ele><time>2026-04-03T12:27:03.713Z</time></trkpt><trkpt lat="43.0609355" lon="11.6012263"><ele>384.0</ele><time>2026-04-03T12:27:04.713Z</time></trkpt><trkpt lat="43.0608684" lon="11.6013494"><ele>384.0</ele><time>2026-04-03T12:27:05.713Z</time></trkpt><trkpt lat="43.0607999" lon="11.6014353"><ele>386.1666666666667</ele><time>2026-04-03T12:27:06.713Z</time></trkpt><trkpt lat="43.0607294" lon="11.6014923"><ele>388.33333333333337</ele><time>2026-04-03T12:27:07.712Z</time></trkpt><trkpt lat="43.060667" lon="11.6015447"><ele>390.5</ele><time>2026-04-03T12:27:08.713Z</time></trkpt><trkpt lat="43.0606052" lon="11.6016385"><ele>392.6666666666667</ele><time>2026-04-03T12:27:10.713Z</time></trkpt><trkpt lat="43.0606193" lon="11.6017438"><ele>394.83333333333337</ele><time>2026-04-03T12:27:12.712Z</time></trkpt><trkpt lat="43.0606622" lon="11.6018319"><ele>397.0</ele><time>2026-04-03T12:27:13.713Z</time></trkpt><trkpt lat="43.0607108" lon="11.6019398"><ele>398.0</ele><time>2026-04-03T12:27:14.713Z</time></trkpt><trkpt lat="43.0607634" lon="11.6020687"><ele>399.0</ele><time>2026-04-03T12:27:15.713Z</time></trkpt><trkpt lat="43.060815" lon="11.6021931"><ele>400.0</ele><time>2026-04-03T12:27:16.713Z</time></trkpt><trkpt lat="43.0608539" lon="11.6023399"><ele>401.0</ele><time>2026-04-03T12:27:17.713Z</time></trkpt><trkpt lat="43.0608813" lon="11.6025171"><ele>401.0</ele><time>2026-04-03T12:27:18.713Z</time></trkpt><trkpt lat="43.0609058" lon="11.6027205"><ele>401.0</ele><time>2026-04-03T12:27:19.712Z</time></trkpt><trkpt lat="43.0609305" lon="11.6029406"><ele>401.0</ele><time>2026-04-03T12:27:20.712Z</time></trkpt><trkpt lat="43.0609518" lon="11.6031711"><ele>403.3333333333333</ele><time>2026-04-03T12:27:21.713Z</time></trkpt><trkpt lat="43.0609572" lon="11.6034182"><ele>405.66666666666663</ele><time>2026-04-03T12:27:22.713Z</time></trkpt><trkpt lat="43.0609506" lon="11.6036712"><ele>408.0</ele><time>2026-04-03T12:27:23.713Z</time></trkpt><trkpt lat="43.0609441" lon="11.6039165"><ele>408.25</ele><time>2026-04-03T12:27:24.713Z</time></trkpt><trkpt lat="43.0609397" lon="11.6041513"><ele>408.5</ele><time>2026-04-03T12:27:25.713Z</time></trkpt><trkpt lat="43.0609423" lon="11.6043269"><ele>408.75</ele><time>2026-04-03T12:27:26.712Z</time></trkpt><trkpt lat="43.0609431" lon="11.6044877"><ele>409.0</ele><time>2026-04-03T12:27:27.713Z</time></trkpt><trkpt lat="43.0609469" lon="11.604662"><ele>409.0</ele><time>2026-04-03T12:27:28.712Z</time></trkpt><trkpt lat="43.0609508" lon="11.6048613"><ele>409.0</ele><time>2026-04-03T12:27:29.713Z</time></trkpt><trkpt lat="43.0609537" lon="11.6050681"><ele>409.0</ele><time>2026-04-03T12:27:30.713Z</time></trkpt><trkpt lat="43.0609367" lon="11.6052696"><ele>409.0</ele><time>2026-04-03T12:27:31.713Z</time></trkpt><trkpt lat="43.060895" lon="11.605443"><ele>408.1666666666667</ele><time>2026-04-03T12:27:32.712Z</time></trkpt><trkpt lat="43.0608483" lon="11.6055902"><ele>407.33333333333337</ele><time>2026-04-03T12:27:33.713Z</time></trkpt><trkpt lat="43.060797" lon="11.6057134"><ele>406.5</ele><time>2026-04-03T12:27:34.713Z</time></trkpt><trkpt lat="43.0607595" lon="11.6057942"><ele>405.66666666666663</ele><time>2026-04-03T12:27:35.713Z</time></trkpt><trkpt lat="43.0607285" lon="11.6058693"><ele>404.8333333333333</ele><time>2026-04-03T12:27:36.713Z</time></trkpt><trkpt lat="43.0607121" lon="11.6059531"><ele>404.0</ele><time>2026-04-03T12:27:37.713Z</time></trkpt><trkpt lat="43.0607363" lon="11.6060446"><ele>404.0</ele><time>2026-04-03T12:27:38.712Z</time></trkpt><trkpt lat="43.0607784" lon="11.6061433"><ele>404.0</ele><time>2026-04-03T12:27:39.713Z</time></trkpt><trkpt lat="43.0608338" lon="11.6062544"><ele>404.0</ele><time>2026-04-03T12:27:40.713Z</time></trkpt><trkpt lat="43.0608911" lon="11.6063872"><ele>404.0</ele><time>2026-04-03T12:27:41.713Z</time></trkpt><trkpt lat="43.0609514" lon="11.6065374"><ele>404.0</ele><time>2026-04-03T12:27:42.713Z</time></trkpt><trkpt lat="43.061018" lon="11.6066998"><ele>403.0</ele><time>2026-04-03T12:27:43.713Z</time></trkpt><trkpt lat="43.0610963" lon="11.6068687"><ele>402.0</ele><time>2026-04-03T12:27:44.713Z</time></trkpt><trkpt lat="43.061187" lon="11.6070491"><ele>401.0</ele><time>2026-04-03T12:27:45.713Z</time></trkpt><trkpt lat="43.0612912" lon="11.6072402"><ele>399.5</ele><time>2026-04-03T12:27:46.712Z</time></trkpt><trkpt lat="43.0614032" lon="11.6074334"><ele>398.0</ele><time>2026-04-03T12:27:47.713Z</time></trkpt><trkpt lat="43.0616593" lon="11.6078483"><ele>400.3333333333333</ele><time>2026-04-03T12:27:49.713Z</time></trkpt><trkpt lat="43.0617979" lon="11.6080621"><ele>402.66666666666663</ele><time>2026-04-03T12:27:50.713Z</time></trkpt><trkpt lat="43.061941" lon="11.608272"><ele>405.0</ele><time>2026-04-03T12:27:51.712Z</time></trkpt><trkpt lat="43.0620954" lon="11.6084823"><ele>405.5</ele><time>2026-04-03T12:27:52.713Z</time></trkpt><trkpt lat="43.0622668" lon="11.6087015"><ele>406.0</ele><time>2026-04-03T12:27:53.713Z</time></trkpt><trkpt lat="43.0624348" lon="11.6089206"><ele>408.0</ele><time>2026-04-03T12:27:54.713Z</time></trkpt><trkpt lat="43.0625899" lon="11.6091248"><ele>410.0</ele><time>2026-04-03T12:27:55.712Z</time></trkpt><trkpt lat="43.0627408" lon="11.6093204"><ele>412.0</ele><time>2026-04-03T12:27:56.712Z</time></trkpt><trkpt lat="43.0628913" lon="11.6094998"><ele>412.0</ele><time>2026-04-03T12:27:57.712Z</time></trkpt><trkpt lat="43.0630527" lon="11.6096592"><ele>412.0</ele><time>2026-04-03T12:27:58.712Z</time></trkpt><trkpt lat="43.0634155" lon="11.6099255"><ele>413.5</ele><time>2026-04-03T12:28:00.713Z</time></trkpt><trkpt lat="43.0636175" lon="11.6100569"><ele>415.0</ele><time>2026-04-03T12:28:01.713Z</time></trkpt><trkpt lat="43.0638262" lon="11.6101887"><ele>407.5</ele><time>2026-04-03T12:28:02.712Z</time></trkpt><trkpt lat="43.0640465" lon="11.6103333"><ele>400.0</ele><time>2026-04-03T12:28:03.713Z</time></trkpt><trkpt lat="43.0642645" lon="11.6104881"><ele>400.0</ele><time>2026-04-03T12:28:04.712Z</time></trkpt><trkpt lat="43.0644666" lon="11.610645"><ele>400.0</ele><time>2026-04-03T12:28:05.713Z</time></trkpt><trkpt lat="43.0646539" lon="11.6108118"><ele>400.0</ele><time>2026-04-03T12:28:06.712Z</time></trkpt><trkpt lat="43.0648169" lon="11.611"><ele>400.0</ele><time>2026-04-03T12:28:07.712Z</time></trkpt><trkpt lat="43.0649693" lon="11.6112145"><ele>400.0</ele><time>2026-04-03T12:28:08.712Z</time></trkpt><trkpt lat="43.0650967" lon="11.6114552"><ele>399.5</ele><time>2026-04-03T12:28:09.712Z</time></trkpt><trkpt lat="43.0652156" lon="11.6117224"><ele>399.0</ele><time>2026-04-03T12:28:10.713Z</time></trkpt><trkpt lat="43.065329" lon="11.612004"><ele>399.0</ele><time>2026-04-03T12:28:11.713Z</time></trkpt><trkpt lat="43.0654329" lon="11.6122627"><ele>399.0</ele><time>2026-04-03T12:28:12.713Z</time></trkpt><trkpt lat="43.0655303" lon="11.6125122"><ele>399.0</ele><time>2026-04-03T12:28:13.713Z</time></trkpt><trkpt lat="43.0656235" lon="11.6127585"><ele>399.33333333333337</ele><time>2026-04-03T12:28:14.713Z</time></trkpt><trkpt lat="43.0657207" lon="11.6130091"><ele>399.6666666666667</ele><time>2026-04-03T12:28:15.713Z</time></trkpt><trkpt lat="43.0658202" lon="11.6132705"><ele>400.0</ele><time>2026-04-03T12:28:16.713Z</time></trkpt><trkpt lat="43.0659175" lon="11.6135178"><ele>400.0</ele><time>2026-04-03T12:28:17.712Z</time></trkpt><trkpt lat="43.0660189" lon="11.6137441"><ele>400.0</ele><time>2026-04-03T12:28:18.711Z</time></trkpt><trkpt lat="43.0661397" lon="11.6139572"><ele>400.0</ele><time>2026-04-03T12:28:19.712Z</time></trkpt><trkpt lat="43.0662847" lon="11.6141467"><ele>400.0</ele><time>2026-04-03T12:28:20.712Z</time></trkpt><trkpt lat="43.0664459" lon="11.6143079"><ele>400.0</ele><time>2026-04-03T12:28:21.712Z</time></trkpt><trkpt lat="43.0666245" lon="11.6144321"><ele>400.0</ele><time>2026-04-03T12:28:22.712Z</time></trkpt><trkpt lat="43.0668106" lon="11.6145156"><ele>399.0</ele><time>2026-04-03T12:28:23.711Z</time></trkpt><trkpt lat="43.0670003" lon="11.6145893"><ele>398.0</ele><time>2026-04-03T12:28:24.712Z</time></trkpt><trkpt lat="43.0671991" lon="11.614652"><ele>397.0</ele><time>2026-04-03T12:28:25.712Z</time></trkpt><trkpt lat="43.0674129" lon="11.614725"><ele>396.0</ele><time>2026-04-03T12:28:26.711Z</time></trkpt><trkpt lat="43.0678614" lon="11.614902"><ele>396.0</ele><time>2026-04-03T12:28:28.712Z</time></trkpt><trkpt lat="43.0680953" lon="11.6149948"><ele>396.0</ele><time>2026-04-03T12:28:29.712Z</time></trkpt><trkpt lat="43.0683309" lon="11.6150946"><ele>395.0</ele><time>2026-04-03T12:28:30.712Z</time></trkpt><trkpt lat="43.0685529" lon="11.6151813"><ele>394.0</ele><time>2026-04-03T12:28:31.712Z</time></trkpt><trkpt lat="43.0687587" lon="11.6152595"><ele>393.0</ele><time>2026-04-03T12:28:32.711Z</time></trkpt><trkpt lat="43.0689553" lon="11.615346"><ele>390.0</ele><time>2026-04-03T12:28:33.712Z</time></trkpt><trkpt lat="43.0691379" lon="11.6154584"><ele>387.0</ele><time>2026-04-03T12:28:34.712Z</time></trkpt><trkpt lat="43.0692957" lon="11.6156029"><ele>384.0</ele><time>2026-04-03T12:28:35.712Z</time></trkpt><trkpt lat="43.0694441" lon="11.6157785"><ele>384.0</ele><time>2026-04-03T12:28:36.712Z</time></trkpt><trkpt lat="43.0695774" lon="11.6159717"><ele>384.0</ele><time>2026-04-03T12:28:37.711Z</time></trkpt><trkpt lat="43.0696936" lon="11.6161939"><ele>384.0</ele><time>2026-04-03T12:28:38.711Z</time></trkpt><trkpt lat="43.0697894" lon="11.6164379"><ele>382.6666666666667</ele><time>2026-04-03T12:28:39.711Z</time></trkpt><trkpt lat="43.0698716" lon="11.6166954"><ele>381.33333333333337</ele><time>2026-04-03T12:28:40.711Z</time></trkpt><trkpt lat="43.0699493" lon="11.6169595"><ele>380.0</ele><time>2026-04-03T12:28:41.711Z</time></trkpt><trkpt lat="43.07003" lon="11.6172232"><ele>379.6666666666667</ele><time>2026-04-03T12:28:42.711Z</time></trkpt><trkpt lat="43.0701222" lon="11.617477"><ele>379.3333333333333</ele><time>2026-04-03T12:28:43.711Z</time></trkpt><trkpt lat="43.0702276" lon="11.6177014"><ele>379.0</ele><time>2026-04-03T12:28:44.711Z</time></trkpt><trkpt lat="43.0703446" lon="11.6179015"><ele>378.66666666666663</ele><time>2026-04-03T12:28:45.711Z</time></trkpt><trkpt lat="43.0704684" lon="11.6180653"><ele>378.3333333333333</ele><time>2026-04-03T12:28:46.712Z</time></trkpt><trkpt lat="43.0706092" lon="11.6182124"><ele>378.0</ele><time>2026-04-03T12:28:47.712Z</time></trkpt><trkpt lat="43.0707669" lon="11.6183467"><ele>376.0</ele><time>2026-04-03T12:28:48.712Z</time></trkpt><trkpt lat="43.0709412" lon="11.6184756"><ele>374.0</ele><time>2026-04-03T12:28:49.712Z</time></trkpt><trkpt lat="43.0711289" lon="11.6185962"><ele>372.0</ele><time>2026-04-03T12:28:50.711Z</time></trkpt><trkpt lat="43.0713283" lon="11.6187141"><ele>372.0</ele><time>2026-04-03T12:28:51.712Z</time></trkpt><trkpt lat="43.0715283" lon="11.6188381"><ele>372.0</ele><time>2026-04-03T12:28:52.711Z</time></trkpt><trkpt lat="43.0717283" lon="11.6189683"><ele>372.0</ele><time>2026-04-03T12:28:53.712Z</time></trkpt><trkpt lat="43.071926" lon="11.6190979"><ele>370.0</ele><time>2026-04-03T12:28:54.712Z</time></trkpt><trkpt lat="43.0721221" lon="11.6192217"><ele>368.0</ele><time>2026-04-03T12:28:55.712Z</time></trkpt><trkpt lat="43.0723153" lon="11.6193502"><ele>366.0</ele><time>2026-04-03T12:28:56.711Z</time></trkpt><trkpt lat="43.0725105" lon="11.6194824"><ele>367.0</ele><time>2026-04-03T12:28:57.712Z</time></trkpt><trkpt lat="43.0726971" lon="11.6196175"><ele>368.0</ele><time>2026-04-03T12:28:58.711Z</time></trkpt><trkpt lat="43.0728697" lon="11.6197765"><ele>369.0</ele><time>2026-04-03T12:28:59.711Z</time></trkpt><trkpt lat="43.0730243" lon="11.6199669"><ele>369.0</ele><time>2026-04-03T12:29:00.712Z</time></trkpt><trkpt lat="43.0731549" lon="11.6201815"><ele>369.0</ele><time>2026-04-03T12:29:01.712Z</time></trkpt><trkpt lat="43.0732613" lon="11.6204308"><ele>369.0</ele><time>2026-04-03T12:29:02.711Z</time></trkpt><trkpt lat="43.0734044" lon="11.6209694"><ele>367.3333333333333</ele><time>2026-04-03T12:29:04.711Z</time></trkpt><trkpt lat="43.0734318" lon="11.6212648"><ele>365.66666666666663</ele><time>2026-04-03T12:29:05.712Z</time></trkpt><trkpt lat="43.0734307" lon="11.6215601"><ele>364.0</ele><time>2026-04-03T12:29:06.711Z</time></trkpt><trkpt lat="43.0734023" lon="11.6218597"><ele>363.3333333333333</ele><time>2026-04-03T12:29:07.712Z</time></trkpt><trkpt lat="43.0733505" lon="11.6221509"><ele>362.6666666666667</ele><time>2026-04-03T12:29:08.712Z</time></trkpt><trkpt lat="43.0732795" lon="11.6224451"><ele>362.0</ele><time>2026-04-03T12:29:09.712Z</time></trkpt><trkpt lat="43.0732094" lon="11.6227381"><ele>361.33333333333337</ele><time>2026-04-03T12:29:10.712Z</time></trkpt><trkpt lat="43.0731491" lon="11.6230301"><ele>360.6666666666667</ele><time>2026-04-03T12:29:11.711Z</time></trkpt><trkpt lat="43.0731189" lon="11.6233168"><ele>360.0</ele><time>2026-04-03T12:29:12.711Z</time></trkpt><trkpt lat="43.0731034" lon="11.623579"><ele>360.0</ele><time>2026-04-03T12:29:13.711Z</time></trkpt><trkpt lat="43.0731093" lon="11.6238087"><ele>360.0</ele><time>2026-04-03T12:29:14.712Z</time></trkpt><trkpt lat="43.0731292" lon="11.6240154"><ele>360.0</ele><time>2026-04-03T12:29:15.712Z</time></trkpt><trkpt lat="43.0731584" lon="11.6241951"><ele>360.0</ele><time>2026-04-03T12:29:16.711Z</time></trkpt><trkpt lat="43.0731936" lon="11.6243577"><ele>360.0</ele><time>2026-04-03T12:29:17.711Z</time></trkpt><trkpt lat="43.0732228" lon="11.6244733"><ele>360.0</ele><time>2026-04-03T12:29:18.711Z</time></trkpt><trkpt lat="43.0732359" lon="11.6245594"><ele>360.0</ele><time>2026-04-03T12:29:19.712Z</time></trkpt><trkpt lat="43.0732546" lon="11.6246747"><ele>360.0</ele><time>2026-04-03T12:29:21.712Z</time></trkpt><trkpt lat="43.0732945" lon="11.6247845"><ele>360.1666666666667</ele><time>2026-04-03T12:29:24.712Z</time></trkpt><trkpt lat="43.0733355" lon="11.6248612"><ele>360.3333333333333</ele><time>2026-04-03T12:29:37.712Z</time></trkpt><trkpt lat="43.0733077" lon="11.6247804"><ele>360.5</ele><time>2026-04-03T12:32:13.711Z</time></trkpt><trkpt lat="43.0732556" lon="11.6247311"><ele>360.66666666666663</ele><time>2026-04-03T12:32:23.163Z</time></trkpt><trkpt lat="43.0731924" lon="11.6247549"><ele>360.8333333333333</ele><time>2026-04-03T12:32:30.688Z</time></trkpt><trkpt lat="43.0733219" lon="11.6248694"><ele>361.0</ele><time>2026-04-03T12:35:18.551Z</time></trkpt><trkpt lat="43.0732433" lon="11.6247684"><ele>361.0</ele><time>2026-04-03T12:35:20.75Z</time></trkpt><trkpt lat="43.0733053" lon="11.6248332"><ele>361.0</ele><time>2026-04-03T12:35:29.739Z</time></trkpt><trkpt lat="43.0734059" lon="11.6249877"><ele>361.0</ele><time>2026-04-03T12:38:25.71Z</time></trkpt><trkpt lat="43.0735083" lon="11.6251826"><ele>361.0</ele><time>2026-04-03T12:38:27.711Z</time></trkpt><trkpt lat="43.0735786" lon="11.6252964"><ele>359.0</ele><time>2026-04-03T12:38:28.71Z</time></trkpt><trkpt lat="43.0736523" lon="11.6254189"><ele>357.0</ele><time>2026-04-03T12:38:29.711Z</time></trkpt><trkpt lat="43.0737337" lon="11.6255555"><ele>355.0</ele><time>2026-04-03T12:38:30.711Z</time></trkpt><trkpt lat="43.0738213" lon="11.6257104"><ele>353.0</ele><time>2026-04-03T12:38:31.71Z</time></trkpt><trkpt lat="43.0739163" lon="11.6258705"><ele>353.0</ele><time>2026-04-03T12:38:32.711Z</time></trkpt><trkpt lat="43.0740113" lon="11.6260361"><ele>353.0</ele><time>2026-04-03T12:38:33.711Z</time></trkpt><trkpt lat="43.0741101" lon="11.6262013"><ele>353.0</ele><time>2026-04-03T12:38:34.711Z</time></trkpt><trkpt lat="43.0742053" lon="11.6263598"><ele>353.25</ele><time>2026-04-03T12:38:35.71Z</time></trkpt><trkpt lat="43.0742972" lon="11.6265186"><ele>353.5</ele><time>2026-04-03T12:38:36.711Z</time></trkpt><trkpt lat="43.0743918" lon="11.6266717"><ele>353.75</ele><time>2026-04-03T12:38:37.711Z</time></trkpt><trkpt lat="43.0744881" lon="11.626822"><ele>354.0</ele><time>2026-04-03T12:38:38.71Z</time></trkpt><trkpt lat="43.0745918" lon="11.6269591"><ele>354.3333333333333</ele><time>2026-04-03T12:38:39.711Z</time></trkpt><trkpt lat="43.0747136" lon="11.6270805"><ele>354.66666666666663</ele><time>2026-04-03T12:38:40.71Z</time></trkpt><trkpt lat="43.0748674" lon="11.627183"><ele>355.0</ele><time>2026-04-03T12:38:41.711Z</time></trkpt><trkpt lat="43.0750334" lon="11.6272659"><ele>355.0</ele><time>2026-04-03T12:38:42.711Z</time></trkpt><trkpt lat="43.0752079" lon="11.6273435"><ele>355.0</ele><time>2026-04-03T12:38:43.711Z</time></trkpt><trkpt lat="43.0753961" lon="11.6274244"><ele>355.0</ele><time>2026-04-03T12:38:44.711Z</time></trkpt><trkpt lat="43.0755981" lon="11.627513"><ele>352.0</ele><time>2026-04-03T12:38:45.711Z</time></trkpt><trkpt lat="43.0758106" lon="11.6276087"><ele>349.0</ele><time>2026-04-03T12:38:46.711Z</time></trkpt><trkpt lat="43.0760358" lon="11.6277129"><ele>349.5</ele><time>2026-04-03T12:38:47.711Z</time></trkpt><trkpt lat="43.0762672" lon="11.6278129"><ele>350.0</ele><time>2026-04-03T12:38:48.711Z</time></trkpt><trkpt lat="43.0765051" lon="11.6279148"><ele>347.0</ele><time>2026-04-03T12:38:49.71Z</time></trkpt><trkpt lat="43.0767511" lon="11.6280244"><ele>344.0</ele><time>2026-04-03T12:38:50.71Z</time></trkpt><trkpt lat="43.0769931" lon="11.6281327"><ele>344.0</ele><time>2026-04-03T12:38:51.71Z</time></trkpt><trkpt lat="43.0772302" lon="11.6282347"><ele>344.0</ele><time>2026-04-03T12:38:52.711Z</time></trkpt><trkpt lat="43.0774602" lon="11.6283377"><ele>345.0</ele><time>2026-04-03T12:38:53.71Z</time></trkpt><trkpt lat="43.077691" lon="11.6284493"><ele>346.0</ele><time>2026-04-03T12:38:54.711Z</time></trkpt><trkpt lat="43.0779094" lon="11.6285508"><ele>344.66666666666663</ele><time>2026-04-03T12:38:55.711Z</time></trkpt><trkpt lat="43.0781161" lon="11.6286434"><ele>343.3333333333333</ele><time>2026-04-03T12:38:56.71Z</time></trkpt><trkpt lat="43.078311" lon="11.6287137"><ele>342.0</ele><time>2026-04-03T12:38:57.711Z</time></trkpt><trkpt lat="43.078501" lon="11.6287729"><ele>342.0</ele><time>2026-04-03T12:38:58.71Z</time></trkpt><trkpt lat="43.0786937" lon="11.6288054"><ele>342.0</ele><time>2026-04-03T12:38:59.711Z</time></trkpt><trkpt lat="43.0788663" lon="11.6288482"><ele>342.0</ele><time>2026-04-03T12:39:00.711Z</time></trkpt><trkpt lat="43.0790361" lon="11.62888"><ele>341.3333333333333</ele><time>2026-04-03T12:39:01.711Z</time></trkpt><trkpt lat="43.0792008" lon="11.6288986"><ele>340.66666666666663</ele><time>2026-04-03T12:39:02.711Z</time></trkpt><trkpt lat="43.0793599" lon="11.6288608"><ele>340.0</ele><time>2026-04-03T12:39:03.71Z</time></trkpt><trkpt lat="43.0795328" lon="11.6287834"><ele>340.0</ele><time>2026-04-03T12:39:04.711Z</time></trkpt><trkpt lat="43.0796395" lon="11.6287031"><ele>340.0</ele><time>2026-04-03T12:39:05.711Z</time></trkpt><trkpt lat="43.0797602" lon="11.6285503"><ele>340.0</ele><time>2026-04-03T12:39:06.71Z</time></trkpt><trkpt lat="43.0798688" lon="11.6284051"><ele>340.0</ele><time>2026-04-03T12:39:07.71Z</time></trkpt><trkpt lat="43.0799744" lon="11.628283"><ele>341.4</ele><time>2026-04-03T12:39:08.711Z</time></trkpt><trkpt lat="43.0800754" lon="11.6282361"><ele>342.8</ele><time>2026-04-03T12:39:09.71Z</time></trkpt><trkpt lat="43.0801519" lon="11.6281708"><ele>344.20000000000005</ele><time>2026-04-03T12:39:10.71Z</time></trkpt><trkpt lat="43.0802391" lon="11.6281517"><ele>345.6</ele><time>2026-04-03T12:39:12.711Z</time></trkpt><trkpt lat="43.080299" lon="11.6282524"><ele>347.0</ele><time>2026-04-03T12:39:14.71Z</time></trkpt><trkpt lat="43.0803427" lon="11.6283285"><ele>347.0</ele><time>2026-04-03T12:39:15.71Z</time></trkpt><trkpt lat="43.0803925" lon="11.6284252"><ele>347.0</ele><time>2026-04-03T12:39:17.711Z</time></trkpt><trkpt lat="43.0830193" lon="11.6292974"><ele>345.0</ele><time>2026-04-03T12:39:20.71Z</time></trkpt><trkpt lat="43.083183" lon="11.6293599"><ele>343.0</ele><time>2026-04-03T12:39:21.71Z</time></trkpt><trkpt lat="43.0833306" lon="11.6294482"><ele>341.0</ele><time>2026-04-03T12:39:22.71Z</time></trkpt><trkpt lat="43.083458" lon="11.6295682"><ele>340.5</ele><time>2026-04-03T12:39:23.71Z</time></trkpt><trkpt lat="43.0835602" lon="11.6296948"><ele>340.0</ele><time>2026-04-03T12:39:24.71Z</time></trkpt><trkpt lat="43.0836484" lon="11.629848"><ele>339.5</ele><time>2026-04-03T12:39:25.71Z</time></trkpt><trkpt lat="43.0837202" lon="11.6300247"><ele>339.0</ele><time>2026-04-03T12:39:26.71Z</time></trkpt><trkpt lat="43.083766" lon="11.6302162"><ele>339.0</ele><time>2026-04-03T12:39:27.71Z</time></trkpt><trkpt lat="43.0837943" lon="11.6304211"><ele>339.0</ele><time>2026-04-03T12:39:28.71Z</time></trkpt><trkpt lat="43.0838035" lon="11.6306474"><ele>339.0</ele><time>2026-04-03T12:39:29.709Z</time></trkpt><trkpt lat="43.083798" lon="11.630885"><ele>341.0</ele><time>2026-04-03T12:39:30.71Z</time></trkpt><trkpt lat="43.0837869" lon="11.631144"><ele>343.0</ele><time>2026-04-03T12:39:31.709Z</time></trkpt><trkpt lat="43.0837707" lon="11.6314086"><ele>345.0</ele><time>2026-04-03T12:39:32.71Z</time></trkpt><trkpt lat="43.0837605" lon="11.631683"><ele>345.0</ele><time>2026-04-03T12:39:33.71Z</time></trkpt><trkpt lat="43.0837489" lon="11.6319705"><ele>345.0</ele><time>2026-04-03T12:39:34.71Z</time></trkpt><trkpt lat="43.083736" lon="11.632261"><ele>345.0</ele><time>2026-04-03T12:39:35.71Z</time></trkpt><trkpt lat="43.0837221" lon="11.6325519"><ele>349.0</ele><time>2026-04-03T12:39:36.71Z</time></trkpt><trkpt lat="43.0837073" lon="11.6328232"><ele>353.0</ele><time>2026-04-03T12:39:37.709Z</time></trkpt><trkpt lat="43.0836889" lon="11.6330823"><ele>357.0</ele><time>2026-04-03T12:39:38.709Z</time></trkpt><trkpt lat="43.0836611" lon="11.6333218"><ele>357.0</ele><time>2026-04-03T12:39:39.709Z</time></trkpt><trkpt lat="43.0836247" lon="11.633568"><ele>357.0</ele><time>2026-04-03T12:39:40.71Z</time></trkpt><trkpt lat="43.0835921" lon="11.6338242"><ele>357.0</ele><time>2026-04-03T12:39:41.71Z</time></trkpt><trkpt lat="43.0835573" lon="11.6340855"><ele>355.6666666666667</ele><time>2026-04-03T12:39:42.709Z</time></trkpt><trkpt lat="43.0835192" lon="11.634358"><ele>354.33333333333337</ele><time>2026-04-03T12:39:43.71Z</time></trkpt><trkpt lat="43.0834874" lon="11.6346431"><ele>353.0</ele><time>2026-04-03T12:39:44.709Z</time></trkpt><trkpt lat="43.0834672" lon="11.6349372"><ele>351.6666666666667</ele><time>2026-04-03T12:39:45.709Z</time></trkpt><trkpt lat="43.0834565" lon="11.6352338"><ele>350.3333333333333</ele><time>2026-04-03T12:39:46.709Z</time></trkpt><trkpt lat="43.0834507" lon="11.6355333"><ele>349.0</ele><time>2026-04-03T12:39:47.709Z</time></trkpt><trkpt lat="43.08344" lon="11.6358409"><ele>349.0</ele><time>2026-04-03T12:39:48.709Z</time></trkpt><trkpt lat="43.0834301" lon="11.6361455"><ele>349.0</ele><time>2026-04-03T12:39:49.71Z</time></trkpt><trkpt lat="43.0834246" lon="11.6364568"><ele>349.0</ele><time>2026-04-03T12:39:50.709Z</time></trkpt><trkpt lat="43.0834198" lon="11.6367627"><ele>349.0</ele><time>2026-04-03T12:39:51.709Z</time></trkpt><trkpt lat="43.0834132" lon="11.6370738"><ele>350.5</ele><time>2026-04-03T12:39:52.71Z</time></trkpt><trkpt lat="43.083399" lon="11.6373876"><ele>352.0</ele><time>2026-04-03T12:39:53.71Z</time></trkpt><trkpt lat="43.0833664" lon="11.6376956"><ele>357.0</ele><time>2026-04-03T12:39:54.71Z</time></trkpt><trkpt lat="43.0832323" lon="11.6383055"><ele>357.0</ele><time>2026-04-03T12:39:56.71Z</time></trkpt><trkpt lat="43.0831405" lon="11.6385938"><ele>357.0</ele><time>2026-04-03T12:39:57.71Z</time></trkpt><trkpt lat="43.0830417" lon="11.6388877"><ele>359.0</ele><time>2026-04-03T12:39:58.71Z</time></trkpt><trkpt lat="43.0829409" lon="11.6391801"><ele>361.0</ele><time>2026-04-03T12:39:59.709Z</time></trkpt><trkpt lat="43.0828434" lon="11.639475"><ele>362.0</ele><time>2026-04-03T12:40:00.709Z</time></trkpt><trkpt lat="43.0827454" lon="11.6397718"><ele>363.0</ele><time>2026-04-03T12:40:01.709Z</time></trkpt><trkpt lat="43.082629" lon="11.6400539"><ele>363.5</ele><time>2026-04-03T12:40:02.71Z</time></trkpt><trkpt lat="43.0824907" lon="11.6403024"><ele>364.0</ele><time>2026-04-03T12:40:03.71Z</time></trkpt><trkpt lat="43.0823368" lon="11.6405307"><ele>365.66666666666663</ele><time>2026-04-03T12:40:04.709Z</time></trkpt><trkpt lat="43.0821755" lon="11.6407549"><ele>367.3333333333333</ele><time>2026-04-03T12:40:05.71Z</time></trkpt><trkpt lat="43.0820314" lon="11.6409718"><ele>369.0</ele><time>2026-04-03T12:40:06.709Z</time></trkpt><trkpt lat="43.0819135" lon="11.6411872"><ele>369.0</ele><time>2026-04-03T12:40:07.71Z</time></trkpt><trkpt lat="43.0818194" lon="11.641422"><ele>369.0</ele><time>2026-04-03T12:40:08.71Z</time></trkpt><trkpt lat="43.0817502" lon="11.6416798"><ele>369.0</ele><time>2026-04-03T12:40:09.71Z</time></trkpt><trkpt lat="43.0817086" lon="11.6419665"><ele>369.6666666666667</ele><time>2026-04-03T12:40:10.709Z</time></trkpt><trkpt lat="43.0816893" lon="11.642266"><ele>370.33333333333337</ele><time>2026-04-03T12:40:11.71Z</time></trkpt><trkpt lat="43.0816769" lon="11.6425659"><ele>371.0</ele><time>2026-04-03T12:40:12.709Z</time></trkpt><trkpt lat="43.0816663" lon="11.6428849"><ele>371.5</ele><time>2026-04-03T12:40:13.709Z</time></trkpt><trkpt lat="43.0816513" lon="11.6432057"><ele>372.0</ele><time>2026-04-03T12:40:14.71Z</time></trkpt><trkpt lat="43.0816388" lon="11.6435308"><ele>372.5</ele><time>2026-04-03T12:40:15.71Z</time></trkpt><trkpt lat="43.0816258" lon="11.6438512"><ele>373.0</ele><time>2026-04-03T12:40:16.71Z</time></trkpt><trkpt lat="43.081616" lon="11.6441599"><ele>373.0</ele><time>2026-04-03T12:40:17.709Z</time></trkpt><trkpt lat="43.0816092" lon="11.6444502"><ele>373.0</ele><time>2026-04-03T12:40:18.709Z</time></trkpt><trkpt lat="43.0816125" lon="11.6447197"><ele>373.0</ele><time>2026-04-03T12:40:19.709Z</time></trkpt><trkpt lat="43.0816411" lon="11.6449839"><ele>372.66666666666663</ele><time>2026-04-03T12:40:20.71Z</time></trkpt><trkpt lat="43.0816841" lon="11.6452307"><ele>372.3333333333333</ele><time>2026-04-03T12:40:21.709Z</time></trkpt><trkpt lat="43.0817471" lon="11.6454633"><ele>372.0</ele><time>2026-04-03T12:40:22.71Z</time></trkpt><trkpt lat="43.0818141" lon="11.645668"><ele>371.3333333333333</ele><time>2026-04-03T12:40:23.71Z</time></trkpt><trkpt lat="43.0818958" lon="11.6458673"><ele>370.66666666666663</ele><time>2026-04-03T12:40:24.71Z</time></trkpt><trkpt lat="43.081987" lon="11.6460583"><ele>370.0</ele><time>2026-04-03T12:40:25.709Z</time></trkpt><trkpt lat="43.0820901" lon="11.6462496"><ele>369.3333333333333</ele><time>2026-04-03T12:40:26.709Z</time></trkpt><trkpt lat="43.08221" lon="11.646459"><ele>368.6666666666667</ele><time>2026-04-03T12:40:27.709Z</time></trkpt><trkpt lat="43.0823318" lon="11.6466664"><ele>368.0</ele><time>2026-04-03T12:40:28.71Z</time></trkpt><trkpt lat="43.0824625" lon="11.6468899"><ele>369.5</ele><time>2026-04-03T12:40:29.709Z</time></trkpt><trkpt lat="43.0825961" lon="11.6471161"><ele>371.0</ele><time>2026-04-03T12:40:30.71Z</time></trkpt><trkpt lat="43.0828791" lon="11.6475936"><ele>367.0</ele><time>2026-04-03T12:40:32.71Z</time></trkpt><trkpt lat="43.0830243" lon="11.6478387"><ele>363.0</ele><time>2026-04-03T12:40:33.71Z</time></trkpt><trkpt lat="43.0831735" lon="11.6480964"><ele>365.5</ele><time>2026-04-03T12:40:34.71Z</time></trkpt><trkpt lat="43.0833214" lon="11.6483523"><ele>368.0</ele><time>2026-04-03T12:40:35.71Z</time></trkpt><trkpt lat="43.0834723" lon="11.64861"><ele>366.0</ele><time>2026-04-03T12:40:36.709Z</time></trkpt><trkpt lat="43.0836239" lon="11.6488659"><ele>364.0</ele><time>2026-04-03T12:40:37.71Z</time></trkpt><trkpt lat="43.0837704" lon="11.6491189"><ele>364.0</ele><time>2026-04-03T12:40:38.709Z</time></trkpt><trkpt lat="43.0839119" lon="11.6493639"><ele>364.0</ele><time>2026-04-03T12:40:39.71Z</time></trkpt><trkpt lat="43.0840483" lon="11.6496009"><ele>364.0</ele><time>2026-04-03T12:40:40.709Z</time></trkpt><trkpt lat="43.0841843" lon="11.6498241"><ele>364.3333333333333</ele><time>2026-04-03T12:40:41.71Z</time></trkpt><trkpt lat="43.0843291" lon="11.6500395"><ele>364.6666666666667</ele><time>2026-04-03T12:40:42.709Z</time></trkpt><trkpt lat="43.08449" lon="11.6502347"><ele>365.0</ele><time>2026-04-03T12:40:43.709Z</time></trkpt><trkpt lat="43.0846655" lon="11.6504251"><ele>367.0</ele><time>2026-04-03T12:40:44.71Z</time></trkpt><trkpt lat="43.0848537" lon="11.6506099"><ele>369.0</ele><time>2026-04-03T12:40:45.71Z</time></trkpt><trkpt lat="43.0850427" lon="11.6507851"><ele>369.0</ele><time>2026-04-03T12:40:46.709Z</time></trkpt><trkpt lat="43.0852379" lon="11.6509574"><ele>369.0</ele><time>2026-04-03T12:40:47.71Z</time></trkpt><trkpt lat="43.0854356" lon="11.6511407"><ele>369.0</ele><time>2026-04-03T12:40:48.709Z</time></trkpt><trkpt lat="43.0856337" lon="11.6513192"><ele>369.0</ele><time>2026-04-03T12:40:49.71Z</time></trkpt><trkpt lat="43.0858339" lon="11.6515041"><ele>369.0</ele><time>2026-04-03T12:40:50.71Z</time></trkpt><trkpt lat="43.0860396" lon="11.6516777"><ele>369.0</ele><time>2026-04-03T12:40:51.71Z</time></trkpt><trkpt lat="43.0862493" lon="11.6518404"><ele>368.0</ele><time>2026-04-03T12:40:52.71Z</time></trkpt><trkpt lat="43.0864636" lon="11.6519974"><ele>367.0</ele><time>2026-04-03T12:40:53.71Z</time></trkpt><trkpt lat="43.0866669" lon="11.6521476"><ele>367.0</ele><time>2026-04-03T12:40:54.71Z</time></trkpt><trkpt lat="43.0868489" lon="11.6522831"><ele>367.0</ele><time>2026-04-03T12:40:55.709Z</time></trkpt><trkpt lat="43.087006" lon="11.6523717"><ele>367.0</ele><time>2026-04-03T12:40:56.71Z</time></trkpt><trkpt lat="43.0871761" lon="11.6523985"><ele>367.0</ele><time>2026-04-03T12:40:57.709Z</time></trkpt><trkpt lat="43.0873459" lon="11.6523768"><ele>367.0</ele><time>2026-04-03T12:40:58.71Z</time></trkpt><trkpt lat="43.0875241" lon="11.6523084"><ele>367.0</ele><time>2026-04-03T12:40:59.709Z</time></trkpt><trkpt lat="43.0877001" lon="11.6522028"><ele>369.3333333333333</ele><time>2026-04-03T12:41:00.709Z</time></trkpt><trkpt lat="43.0878749" lon="11.6521266"><ele>371.6666666666667</ele><time>2026-04-03T12:41:01.71Z</time></trkpt><trkpt lat="43.0880569" lon="11.6520918"><ele>374.0</ele><time>2026-04-03T12:41:02.71Z</time></trkpt><trkpt lat="43.0882292" lon="11.6520905"><ele>375.0</ele><time>2026-04-03T12:41:03.709Z</time></trkpt><trkpt lat="43.0883823" lon="11.6521056"><ele>376.0</ele><time>2026-04-03T12:41:04.71Z</time></trkpt><trkpt lat="43.0885074" lon="11.6521594"><ele>377.0</ele><time>2026-04-03T12:41:05.71Z</time></trkpt><trkpt lat="43.0886043" lon="11.6522469"><ele>378.0</ele><time>2026-04-03T12:41:06.709Z</time></trkpt><trkpt lat="43.0886861" lon="11.6523924"><ele>378.0</ele><time>2026-04-03T12:41:07.71Z</time></trkpt><trkpt lat="43.0887296" lon="11.6525524"><ele>378.0</ele><time>2026-04-03T12:41:08.71Z</time></trkpt><trkpt lat="43.0887517" lon="11.6527546"><ele>378.0</ele><time>2026-04-03T12:41:09.71Z</time></trkpt><trkpt lat="43.0887648" lon="11.6529756"><ele>378.0</ele><time>2026-04-03T12:41:10.71Z</time></trkpt><trkpt lat="43.0887879" lon="11.6532272"><ele>379.0</ele><time>2026-04-03T12:41:11.709Z</time></trkpt><trkpt lat="43.0888274" lon="11.6534467"><ele>380.0</ele><time>2026-04-03T12:41:12.71Z</time></trkpt><trkpt lat="43.0888848" lon="11.65363"><ele>381.0</ele><time>2026-04-03T12:41:13.71Z</time></trkpt><trkpt lat="43.0889656" lon="11.6537694"><ele>382.0</ele><time>2026-04-03T12:41:14.709Z</time></trkpt><trkpt lat="43.0890777" lon="11.6538632"><ele>385.0</ele><time>2026-04-03T12:41:15.71Z</time></trkpt><trkpt lat="43.0892249" lon="11.6539229"><ele>388.0</ele><time>2026-04-03T12:41:16.71Z</time></trkpt><trkpt lat="43.0894019" lon="11.6539486"><ele>391.0</ele><time>2026-04-03T12:41:17.709Z</time></trkpt><trkpt lat="43.0896033" lon="11.6539324"><ele>391.0</ele><time>2026-04-03T12:41:18.71Z</time></trkpt><trkpt lat="43.0897806" lon="11.6539001"><ele>391.0</ele><time>2026-04-03T12:41:19.71Z</time></trkpt><trkpt lat="43.0899335" lon="11.6538312"><ele>391.0</ele><time>2026-04-03T12:41:20.71Z</time></trkpt><trkpt lat="43.090069" lon="11.6537248"><ele>392.5</ele><time>2026-04-03T12:41:21.71Z</time></trkpt><trkpt lat="43.0901846" lon="11.6536329"><ele>394.0</ele><time>2026-04-03T12:41:22.709Z</time></trkpt><trkpt lat="43.0903201" lon="11.6535675"><ele>395.5</ele><time>2026-04-03T12:41:23.71Z</time></trkpt><trkpt lat="43.0904838" lon="11.653528"><ele>397.0</ele><time>2026-04-03T12:41:24.71Z</time></trkpt><trkpt lat="43.0906657" lon="11.6534952"><ele>395.33333333333337</ele><time>2026-04-03T12:41:25.709Z</time></trkpt><trkpt lat="43.0908665" lon="11.6534694"><ele>393.66666666666663</ele><time>2026-04-03T12:41:26.71Z</time></trkpt><trkpt lat="43.0910824" lon="11.6534356"><ele>392.0</ele><time>2026-04-03T12:41:27.71Z</time></trkpt><trkpt lat="43.0912861" lon="11.6534133"><ele>392.0</ele><time>2026-04-03T12:41:28.71Z</time></trkpt><trkpt lat="43.0914743" lon="11.6534118"><ele>392.0</ele><time>2026-04-03T12:41:29.71Z</time></trkpt><trkpt lat="43.0916587" lon="11.6534544"><ele>392.0</ele><time>2026-04-03T12:41:30.71Z</time></trkpt><trkpt lat="43.0918721" lon="11.6535286"><ele>395.0</ele><time>2026-04-03T12:41:31.709Z</time></trkpt><trkpt lat="43.0921008" lon="11.6536129"><ele>398.0</ele><time>2026-04-03T12:41:32.709Z</time></trkpt><trkpt lat="43.0923117" lon="11.6536746"><ele>399.5</ele><time>2026-04-03T12:41:33.709Z</time></trkpt><trkpt lat="43.0924831" lon="11.6537061"><ele>401.0</ele><time>2026-04-03T12:41:34.71Z</time></trkpt><trkpt lat="43.0926232" lon="11.6537212"><ele>402.5</ele><time>2026-04-03T12:41:35.709Z</time></trkpt><trkpt lat="43.0927427" lon="11.6537623"><ele>404.0</ele><time>2026-04-03T12:41:36.71Z</time></trkpt><trkpt lat="43.0928289" lon="11.6538538"><ele>404.0</ele><time>2026-04-03T12:41:37.71Z</time></trkpt><trkpt lat="43.0928726" lon="11.6539697"><ele>404.0</ele><time>2026-04-03T12:41:38.71Z</time></trkpt><trkpt lat="43.0928693" lon="11.6541071"><ele>404.0</ele><time>2026-04-03T12:41:39.709Z</time></trkpt><trkpt lat="43.0928162" lon="11.6542381"><ele>404.0</ele><time>2026-04-03T12:41:40.71Z</time></trkpt><trkpt lat="43.0927381" lon="11.654304"><ele>404.0</ele><time>2026-04-03T12:41:41.71Z</time></trkpt><trkpt lat="43.0926312" lon="11.654319"><ele>404.0</ele><time>2026-04-03T12:41:42.71Z</time></trkpt><trkpt lat="43.0925115" lon="11.654285"><ele>404.0</ele><time>2026-04-03T12:41:43.71Z</time></trkpt><trkpt lat="43.0923804" lon="11.654218"><ele>404.0</ele><time>2026-04-03T12:41:44.71Z</time></trkpt><trkpt lat="43.0922277" lon="11.6541377"><ele>404.0</ele><time>2026-04-03T12:41:45.71Z</time></trkpt><trkpt lat="43.0920606" lon="11.654075"><ele>404.0</ele><time>2026-04-03T12:41:46.71Z</time></trkpt><trkpt lat="43.0918904" lon="11.6540511"><ele>404.0</ele><time>2026-04-03T12:41:47.71Z</time></trkpt><trkpt lat="43.091712" lon="11.6540658"><ele>404.0</ele><time>2026-04-03T12:41:48.709Z</time></trkpt><trkpt lat="43.0915176" lon="11.6541594"><ele>404.0</ele><time>2026-04-03T12:41:49.71Z</time></trkpt><trkpt lat="43.0913106" lon="11.6543019"><ele>404.0</ele><time>2026-04-03T12:41:50.71Z</time></trkpt><trkpt lat="43.0910897" lon="11.6544641"><ele>404.66666666666663</ele><time>2026-04-03T12:41:51.71Z</time></trkpt><trkpt lat="43.0908846" lon="11.6546132"><ele>405.33333333333337</ele><time>2026-04-03T12:41:52.71Z</time></trkpt><trkpt lat="43.0907213" lon="11.65473"><ele>406.0</ele><time>2026-04-03T12:41:53.709Z</time></trkpt><trkpt lat="43.0905856" lon="11.654853"><ele>406.0</ele><time>2026-04-03T12:41:54.71Z</time></trkpt><trkpt lat="43.0904709" lon="11.6549908"><ele>406.0</ele><time>2026-04-03T12:41:55.71Z</time></trkpt><trkpt lat="43.0903787" lon="11.6551681"><ele>406.0</ele><time>2026-04-03T12:41:56.709Z</time></trkpt><trkpt lat="43.0903072" lon="11.6553646"><ele>407.75</ele><time>2026-04-03T12:41:57.709Z</time></trkpt><trkpt lat="43.0902688" lon="11.6555564"><ele>409.5</ele><time>2026-04-03T12:41:58.71Z</time></trkpt><trkpt lat="43.0902546" lon="11.6557279"><ele>411.25</ele><time>2026-04-03T12:41:59.71Z</time></trkpt><trkpt lat="43.090262" lon="11.6558827"><ele>413.0</ele><time>2026-04-03T12:42:00.71Z</time></trkpt><trkpt lat="43.090273" lon="11.6560384"><ele>414.0</ele><time>2026-04-03T12:42:01.71Z</time></trkpt><trkpt lat="43.0902947" lon="11.6561976"><ele>415.0</ele><time>2026-04-03T12:42:02.709Z</time></trkpt><trkpt lat="43.0903037" lon="11.6563629"><ele>416.0</ele><time>2026-04-03T12:42:03.71Z</time></trkpt><trkpt lat="43.0902839" lon="11.656526"><ele>417.0</ele><time>2026-04-03T12:42:04.71Z</time></trkpt><trkpt lat="43.0902444" lon="11.6566774"><ele>417.0</ele><time>2026-04-03T12:42:05.71Z</time></trkpt><trkpt lat="43.0901798" lon="11.6568206"><ele>417.0</ele><time>2026-04-03T12:42:06.709Z</time></trkpt><trkpt lat="43.0900928" lon="11.656934"><ele>417.0</ele><time>2026-04-03T12:42:07.709Z</time></trkpt><trkpt lat="43.08998" lon="11.6570255"><ele>417.0</ele><time>2026-04-03T12:42:08.71Z</time></trkpt><trkpt lat="43.0898586" lon="11.6570806"><ele>417.5</ele><time>2026-04-03T12:42:09.709Z</time></trkpt><trkpt lat="43.0897281" lon="11.6571246"><ele>418.0</ele><time>2026-04-03T12:42:10.709Z</time></trkpt><trkpt lat="43.0895979" lon="11.6571846"><ele>418.5</ele><time>2026-04-03T12:42:11.71Z</time></trkpt><trkpt lat="43.0894734" lon="11.6572857"><ele>419.0</ele><time>2026-04-03T12:42:12.71Z</time></trkpt><trkpt lat="43.0893494" lon="11.6574105"><ele>419.0</ele><time>2026-04-03T12:42:13.71Z</time></trkpt><trkpt lat="43.0892359" lon="11.6575497"><ele>419.0</ele><time>2026-04-03T12:42:14.71Z</time></trkpt><trkpt lat="43.0891189" lon="11.6576969"><ele>419.0</ele><time>2026-04-03T12:42:15.71Z</time></trkpt><trkpt lat="43.088993" lon="11.657849"><ele>420.66666666666663</ele><time>2026-04-03T12:42:16.71Z</time></trkpt><trkpt lat="43.0888682" lon="11.6579929"><ele>422.33333333333337</ele><time>2026-04-03T12:42:17.709Z</time></trkpt><trkpt lat="43.0887584" lon="11.6581263"><ele>424.0</ele><time>2026-04-03T12:42:18.71Z</time></trkpt><trkpt lat="43.0885769" lon="11.6583631"><ele>424.0</ele><time>2026-04-03T12:42:20.709Z</time></trkpt><trkpt lat="43.0884996" lon="11.6584848"><ele>424.0</ele><time>2026-04-03T12:42:21.71Z</time></trkpt><trkpt lat="43.0884445" lon="11.6586129"><ele>424.0</ele><time>2026-04-03T12:42:22.709Z</time></trkpt><trkpt lat="43.0884102" lon="11.6587455"><ele>424.0</ele><time>2026-04-03T12:42:23.709Z</time></trkpt><trkpt lat="43.0884063" lon="11.65888"><ele>424.0</ele><time>2026-04-03T12:42:24.71Z</time></trkpt><trkpt lat="43.0884423" lon="11.6590258"><ele>425.0</ele><time>2026-04-03T12:42:25.71Z</time></trkpt><trkpt lat="43.0884923" lon="11.6591661"><ele>426.0</ele><time>2026-04-03T12:42:26.709Z</time></trkpt><trkpt lat="43.088532" lon="11.6593112"><ele>427.0</ele><time>2026-04-03T12:42:27.71Z</time></trkpt><trkpt lat="43.0885506" lon="11.6594616"><ele>428.0</ele><time>2026-04-03T12:42:28.71Z</time></trkpt><trkpt lat="43.0885328" lon="11.6596141"><ele>429.25</ele><time>2026-04-03T12:42:29.71Z</time></trkpt><trkpt lat="43.0884886" lon="11.6597451"><ele>430.5</ele><time>2026-04-03T12:42:30.71Z</time></trkpt><trkpt lat="43.08841" lon="11.6598574"><ele>431.75</ele><time>2026-04-03T12:42:31.71Z</time></trkpt><trkpt lat="43.0883176" lon="11.6599406"><ele>433.0</ele><time>2026-04-03T12:42:32.709Z</time></trkpt><trkpt lat="43.0881928" lon="11.6599875"><ele>434.33333333333337</ele><time>2026-04-03T12:42:33.71Z</time></trkpt><trkpt lat="43.0880459" lon="11.6600057"><ele>435.66666666666663</ele><time>2026-04-03T12:42:34.71Z</time></trkpt><trkpt lat="43.0878718" lon="11.6599955"><ele>437.0</ele><time>2026-04-03T12:42:35.71Z</time></trkpt><trkpt lat="43.0876734" lon="11.6599656"><ele>437.0</ele><time>2026-04-03T12:42:36.71Z</time></trkpt><trkpt lat="43.0874561" lon="11.659923"><ele>437.0</ele><time>2026-04-03T12:42:37.71Z</time></trkpt><trkpt lat="43.0872509" lon="11.6598918"><ele>437.0</ele><time>2026-04-03T12:42:38.71Z</time></trkpt><trkpt lat="43.087064" lon="11.6598625"><ele>437.66666666666663</ele><time>2026-04-03T12:42:39.709Z</time></trkpt><trkpt lat="43.0869021" lon="11.659863"><ele>438.33333333333337</ele><time>2026-04-03T12:42:40.709Z</time></trkpt><trkpt lat="43.0867565" lon="11.6599326"><ele>439.0</ele><time>2026-04-03T12:42:41.709Z</time></trkpt><trkpt lat="43.0866284" lon="11.6600501"><ele>440.0</ele><time>2026-04-03T12:42:42.71Z</time></trkpt><trkpt lat="43.0865202" lon="11.6602154"><ele>441.0</ele><time>2026-04-03T12:42:43.71Z</time></trkpt><trkpt lat="43.0864082" lon="11.6604281"><ele>442.0</ele><time>2026-04-03T12:42:44.71Z</time></trkpt><trkpt lat="43.0863032" lon="11.6606669"><ele>442.0</ele><time>2026-04-03T12:42:45.71Z</time></trkpt><trkpt lat="43.0861936" lon="11.6609205"><ele>442.0</ele><time>2026-04-03T12:42:46.71Z</time></trkpt><trkpt lat="43.0860846" lon="11.6611886"><ele>442.0</ele><time>2026-04-03T12:42:47.71Z</time></trkpt><trkpt lat="43.0859806" lon="11.6614703"><ele>445.0</ele><time>2026-04-03T12:42:48.71Z</time></trkpt><trkpt lat="43.0858724" lon="11.6617635"><ele>448.0</ele><time>2026-04-03T12:42:49.709Z</time></trkpt><trkpt lat="43.0857771" lon="11.6620343"><ele>449.33333333333337</ele><time>2026-04-03T12:42:50.71Z</time></trkpt><trkpt lat="43.0856869" lon="11.6622961"><ele>450.66666666666663</ele><time>2026-04-03T12:42:51.709Z</time></trkpt><trkpt lat="43.0855985" lon="11.6625518"><ele>452.0</ele><time>2026-04-03T12:42:52.709Z</time></trkpt><trkpt lat="43.085525" lon="11.6628004"><ele>453.3333333333333</ele><time>2026-04-03T12:42:53.71Z</time></trkpt><trkpt lat="43.0854649" lon="11.6630309"><ele>454.66666666666663</ele><time>2026-04-03T12:42:54.71Z</time></trkpt><trkpt lat="43.0854124" lon="11.6632445"><ele>456.0</ele><time>2026-04-03T12:42:55.71Z</time></trkpt><trkpt lat="43.0853626" lon="11.6634536"><ele>456.5</ele><time>2026-04-03T12:42:56.71Z</time></trkpt><trkpt lat="43.0853153" lon="11.6636499"><ele>457.0</ele><time>2026-04-03T12:42:57.71Z</time></trkpt><trkpt lat="43.0852757" lon="11.6638301"><ele>457.5</ele><time>2026-04-03T12:42:58.71Z</time></trkpt><trkpt lat="43.0852344" lon="11.6639948"><ele>458.0</ele><time>2026-04-03T12:42:59.71Z</time></trkpt><trkpt lat="43.0851916" lon="11.6641623"><ele>458.0</ele><time>2026-04-03T12:43:00.71Z</time></trkpt><trkpt lat="43.0851516" lon="11.6643236"><ele>458.0</ele><time>2026-04-03T12:43:01.71Z</time></trkpt><trkpt lat="43.0851103" lon="11.6644691"><ele>458.0</ele><time>2026-04-03T12:43:02.71Z</time></trkpt><trkpt lat="43.0850626" lon="11.6646055"><ele>458.0</ele><time>2026-04-03T12:43:03.71Z</time></trkpt><trkpt lat="43.0850126" lon="11.6647342"><ele>457.75</ele><time>2026-04-03T12:43:04.71Z</time></trkpt><trkpt lat="43.0849551" lon="11.6648673"><ele>457.5</ele><time>2026-04-03T12:43:05.71Z</time></trkpt><trkpt lat="43.0848817" lon="11.6650106"><ele>457.25</ele><time>2026-04-03T12:43:06.71Z</time></trkpt><trkpt lat="43.0848065" lon="11.6651649"><ele>457.0</ele><time>2026-04-03T12:43:07.71Z</time></trkpt><trkpt lat="43.0847278" lon="11.6653235"><ele>458.25</ele><time>2026-04-03T12:43:08.71Z</time></trkpt><trkpt lat="43.0846543" lon="11.6654707"><ele>459.5</ele><time>2026-04-03T12:43:09.71Z</time></trkpt><trkpt lat="43.0845863" lon="11.6656092"><ele>460.75</ele><time>2026-04-03T12:43:10.71Z</time></trkpt><trkpt lat="43.0845188" lon="11.6657426"><ele>462.0</ele><time>2026-04-03T12:43:11.709Z</time></trkpt><trkpt lat="43.0844517" lon="11.6658727"><ele>462.0</ele><time>2026-04-03T12:43:12.71Z</time></trkpt><trkpt lat="43.0843851" lon="11.6660104"><ele>462.0</ele><time>2026-04-03T12:43:13.709Z</time></trkpt><trkpt lat="43.0843116" lon="11.6661552"><ele>462.0</ele><time>2026-04-03T12:43:14.71Z</time></trkpt><trkpt lat="43.0842361" lon="11.6663025"><ele>462.0</ele><time>2026-04-03T12:43:15.71Z</time></trkpt><trkpt lat="43.0841666" lon="11.6664634"><ele>462.75</ele><time>2026-04-03T12:43:16.709Z</time></trkpt><trkpt lat="43.0840955" lon="11.6666274"><ele>463.5</ele><time>2026-04-03T12:43:17.709Z</time></trkpt><trkpt lat="43.084023" lon="11.6667929"><ele>464.25</ele><time>2026-04-03T12:43:18.71Z</time></trkpt><trkpt lat="43.0839584" lon="11.6669629"><ele>465.0</ele><time>2026-04-03T12:43:19.709Z</time></trkpt><trkpt lat="43.0839025" lon="11.6671272"><ele>465.75</ele><time>2026-04-03T12:43:20.709Z</time></trkpt><trkpt lat="43.0838601" lon="11.6672942"><ele>466.5</ele><time>2026-04-03T12:43:21.71Z</time></trkpt><trkpt lat="43.083813" lon="11.6674615"><ele>467.25</ele><time>2026-04-03T12:43:22.71Z</time></trkpt><trkpt lat="43.0837648" lon="11.6676312"><ele>468.0</ele><time>2026-04-03T12:43:23.71Z</time></trkpt><trkpt lat="43.0837167" lon="11.6678036"><ele>468.0</ele><time>2026-04-03T12:43:24.71Z</time></trkpt><trkpt lat="43.0836594" lon="11.6679736"><ele>468.0</ele><time>2026-04-03T12:43:25.709Z</time></trkpt><trkpt lat="43.0836067" lon="11.6681382"><ele>468.0</ele><time>2026-04-03T12:43:26.709Z</time></trkpt><trkpt lat="43.0835532" lon="11.6682875"><ele>468.0</ele><time>2026-04-03T12:43:27.71Z</time></trkpt><trkpt lat="43.083499" lon="11.6684356"><ele>468.0</ele><time>2026-04-03T12:43:28.71Z</time></trkpt><trkpt lat="43.0834496" lon="11.6685809"><ele>468.0</ele><time>2026-04-03T12:43:29.71Z</time></trkpt><trkpt lat="43.0834083" lon="11.6687071"><ele>468.0</ele><time>2026-04-03T12:43:30.71Z</time></trkpt><trkpt lat="43.0833045" lon="11.6689868"><ele>468.0</ele><time>2026-04-03T12:43:32.709Z</time></trkpt><trkpt lat="43.0832525" lon="11.6691378"><ele>469.25</ele><time>2026-04-03T12:43:33.71Z</time></trkpt><trkpt lat="43.0831948" lon="11.669296"><ele>470.5</ele><time>2026-04-03T12:43:34.709Z</time></trkpt><trkpt lat="43.0831338" lon="11.6694611"><ele>471.75</ele><time>2026-04-03T12:43:35.71Z</time></trkpt><trkpt lat="43.0830743" lon="11.6696301"><ele>473.0</ele><time>2026-04-03T12:43:36.709Z</time></trkpt><trkpt lat="43.0830181" lon="11.6697821"><ele>473.4</ele><time>2026-04-03T12:43:37.709Z</time></trkpt><trkpt lat="43.0829714" lon="11.6699016"><ele>473.79999999999995</ele><time>2026-04-03T12:43:38.71Z</time></trkpt><trkpt lat="43.0829357" lon="11.6700048"><ele>474.2</ele><time>2026-04-03T12:43:39.709Z</time></trkpt><trkpt lat="43.0829024" lon="11.6701033"><ele>474.6</ele><time>2026-04-03T12:43:40.709Z</time></trkpt><trkpt lat="43.0828707" lon="11.6701943"><ele>475.0</ele><time>2026-04-03T12:43:41.71Z</time></trkpt><trkpt lat="43.0828127" lon="11.6703301"><ele>475.2</ele><time>2026-04-03T12:43:43.71Z</time></trkpt><trkpt lat="43.0827582" lon="11.6704468"><ele>475.4</ele><time>2026-04-03T12:43:45.709Z</time></trkpt><trkpt lat="43.0826908" lon="11.6705595"><ele>475.6</ele><time>2026-04-03T12:43:47.709Z</time></trkpt><trkpt lat="43.0826663" lon="11.6706429"><ele>475.8</ele><time>2026-04-03T12:43:51.709Z</time></trkpt><trkpt lat="43.0826156" lon="11.670728"><ele>476.0</ele><time>2026-04-03T12:43:54.709Z</time></trkpt><trkpt lat="43.0825432" lon="11.6708351"><ele>476.0</ele><time>2026-04-03T12:43:56.71Z</time></trkpt><trkpt lat="43.0824918" lon="11.6709112"><ele>476.0</ele><time>2026-04-03T12:43:58.709Z</time></trkpt><trkpt lat="43.0823928" lon="11.6710232"><ele>476.0</ele><time>2026-04-03T12:44:00.71Z</time></trkpt><trkpt lat="43.0823281" lon="11.6711001"><ele>476.0</ele><time>2026-04-03T12:44:01.709Z</time></trkpt><trkpt lat="43.0822656" lon="11.671191"><ele>476.0</ele><time>2026-04-03T12:44:02.71Z</time></trkpt><trkpt lat="43.0821962" lon="11.6712663"><ele>476.25</ele><time>2026-04-03T12:44:03.71Z</time></trkpt><trkpt lat="43.0821144" lon="11.6713309"><ele>476.5</ele><time>2026-04-03T12:44:04.709Z</time></trkpt><trkpt lat="43.0820059" lon="11.6713737"><ele>476.75</ele><time>2026-04-03T12:44:05.71Z</time></trkpt><trkpt lat="43.0818786" lon="11.6714175"><ele>477.0</ele><time>2026-04-03T12:44:06.709Z</time></trkpt><trkpt lat="43.0817429" lon="11.671461"><ele>477.0</ele><time>2026-04-03T12:44:07.709Z</time></trkpt><trkpt lat="43.0815994" lon="11.6714995"><ele>477.0</ele><time>2026-04-03T12:44:08.71Z</time></trkpt><trkpt lat="43.0814545" lon="11.6715378"><ele>477.0</ele><time>2026-04-03T12:44:09.71Z</time></trkpt><trkpt lat="43.0813172" lon="11.6715806"><ele>477.0</ele><time>2026-04-03T12:44:10.71Z</time></trkpt><trkpt lat="43.0811859" lon="11.6716348"><ele>478.0</ele><time>2026-04-03T12:44:11.71Z</time></trkpt><trkpt lat="43.081057" lon="11.6717112"><ele>479.0</ele><time>2026-04-03T12:44:12.709Z</time></trkpt><trkpt lat="43.0809334" lon="11.6718026"><ele>480.0</ele><time>2026-04-03T12:44:13.71Z</time></trkpt><trkpt lat="43.080816" lon="11.6719393"><ele>481.0</ele><time>2026-04-03T12:44:14.709Z</time></trkpt><trkpt lat="43.0807027" lon="11.6720637"><ele>481.5</ele><time>2026-04-03T12:44:15.71Z</time></trkpt><trkpt lat="43.0805995" lon="11.6721853"><ele>482.0</ele><time>2026-04-03T12:44:16.71Z</time></trkpt><trkpt lat="43.0805119" lon="11.6722964"><ele>482.5</ele><time>2026-04-03T12:44:17.71Z</time></trkpt><trkpt lat="43.0804294" lon="11.6724061"><ele>483.0</ele><time>2026-04-03T12:44:18.709Z</time></trkpt><trkpt lat="43.0803462" lon="11.6725099"><ele>483.0</ele><time>2026-04-03T12:44:19.709Z</time></trkpt><trkpt lat="43.0802752" lon="11.6726072"><ele>483.0</ele><time>2026-04-03T12:44:20.709Z</time></trkpt><trkpt lat="43.0802145" lon="11.6726962"><ele>483.0</ele><time>2026-04-03T12:44:21.71Z</time></trkpt><trkpt lat="43.0801669" lon="11.6727741"><ele>483.0</ele><time>2026-04-03T12:44:22.71Z</time></trkpt><trkpt lat="43.0801203" lon="11.6728404"><ele>483.0</ele><time>2026-04-03T12:44:23.709Z</time></trkpt><trkpt lat="43.0800708" lon="11.672907"><ele>483.0</ele><time>2026-04-03T12:44:24.71Z</time></trkpt><trkpt lat="43.0800202" lon="11.6729764"><ele>482.8333333333333</ele><time>2026-04-03T12:44:25.709Z</time></trkpt><trkpt lat="43.0799678" lon="11.6730435"><ele>482.66666666666663</ele><time>2026-04-03T12:44:26.71Z</time></trkpt><trkpt lat="43.0799162" lon="11.67312"><ele>482.5</ele><time>2026-04-03T12:44:27.709Z</time></trkpt><trkpt lat="43.0798638" lon="11.6732098"><ele>482.3333333333333</ele><time>2026-04-03T12:44:28.709Z</time></trkpt><trkpt lat="43.0798025" lon="11.6733204"><ele>482.16666666666663</ele><time>2026-04-03T12:44:29.709Z</time></trkpt><trkpt lat="43.0797264" lon="11.6734364"><ele>482.0</ele><time>2026-04-03T12:44:30.709Z</time></trkpt><trkpt lat="43.0796586" lon="11.6735599"><ele>483.0</ele><time>2026-04-03T12:44:31.71Z</time></trkpt><trkpt lat="43.0795958" lon="11.6737089"><ele>484.0</ele><time>2026-04-03T12:44:32.71Z</time></trkpt><trkpt lat="43.0795223" lon="11.6738632"><ele>485.0</ele><time>2026-04-03T12:44:33.71Z</time></trkpt><trkpt lat="43.0794453" lon="11.6740137"><ele>486.0</ele><time>2026-04-03T12:44:34.71Z</time></trkpt><trkpt lat="43.0793669" lon="11.6741754"><ele>486.0</ele><time>2026-04-03T12:44:35.71Z</time></trkpt><trkpt lat="43.0792826" lon="11.6743276"><ele>486.0</ele><time>2026-04-03T12:44:36.71Z</time></trkpt><trkpt lat="43.0791987" lon="11.6744696"><ele>486.0</ele><time>2026-04-03T12:44:37.71Z</time></trkpt><trkpt lat="43.0791237" lon="11.6745962"><ele>486.0</ele><time>2026-04-03T12:44:38.71Z</time></trkpt><trkpt lat="43.0790563" lon="11.6747147"><ele>486.5</ele><time>2026-04-03T12:44:39.709Z</time></trkpt><trkpt lat="43.0789825" lon="11.6748234"><ele>487.0</ele><time>2026-04-03T12:44:40.71Z</time></trkpt><trkpt lat="43.0789049" lon="11.6749383"><ele>487.5</ele><time>2026-04-03T12:44:41.71Z</time></trkpt><trkpt lat="43.0788277" lon="11.6750629"><ele>488.0</ele><time>2026-04-03T12:44:42.709Z</time></trkpt><trkpt lat="43.0787511" lon="11.6751937"><ele>488.25</ele><time>2026-04-03T12:44:43.71Z</time></trkpt><trkpt lat="43.078674" lon="11.6753304"><ele>488.5</ele><time>2026-04-03T12:44:44.709Z</time></trkpt><trkpt lat="43.0785857" lon="11.6754634"><ele>488.75</ele><time>2026-04-03T12:44:45.71Z</time></trkpt><trkpt lat="43.0784979" lon="11.6755892"><ele>489.0</ele><time>2026-04-03T12:44:46.71Z</time></trkpt><trkpt lat="43.078408" lon="11.6757164"><ele>489.0</ele><time>2026-04-03T12:44:47.709Z</time></trkpt><trkpt lat="43.0783216" lon="11.6758453"><ele>489.0</ele><time>2026-04-03T12:44:48.709Z</time></trkpt><trkpt lat="43.0782448" lon="11.6759695"><ele>489.0</ele><time>2026-04-03T12:44:49.71Z</time></trkpt><trkpt lat="43.0781766" lon="11.6760749"><ele>489.0</ele><time>2026-04-03T12:44:50.71Z</time></trkpt><trkpt lat="43.0781241" lon="11.6761672"><ele>489.0</ele><time>2026-04-03T12:44:51.71Z</time></trkpt><trkpt lat="43.0780777" lon="11.6762485"><ele>489.0</ele><time>2026-04-03T12:44:52.71Z</time></trkpt><trkpt lat="43.0780336" lon="11.6763208"><ele>489.00000000000006</ele><time>2026-04-03T12:44:53.71Z</time></trkpt><trkpt lat="43.0779915" lon="11.676385"><ele>489.0</ele><time>2026-04-03T12:44:54.709Z</time></trkpt><trkpt lat="43.0779419" lon="11.6764766"><ele>489.0</ele><time>2026-04-03T12:44:56.71Z</time></trkpt><trkpt lat="43.0778922" lon="11.6765556"><ele>489.00000000000006</ele><time>2026-04-03T12:44:58.71Z</time></trkpt><trkpt lat="43.0778316" lon="11.6766331"><ele>489.0</ele><time>2026-04-03T12:45:00.71Z</time></trkpt><trkpt lat="43.0777869" lon="11.6767154"><ele>489.0</ele><time>2026-04-03T12:45:02.71Z</time></trkpt><trkpt lat="43.07775" lon="11.6768027"><ele>489.0</ele><time>2026-04-03T12:45:04.709Z</time></trkpt><trkpt lat="43.077718" lon="11.6768962"><ele>489.0</ele><time>2026-04-03T12:45:06.71Z</time></trkpt><trkpt lat="43.0776889" lon="11.6770138"><ele>489.0</ele><time>2026-04-03T12:45:08.71Z</time></trkpt><trkpt lat="43.0776627" lon="11.6771617"><ele>489.0</ele><time>2026-04-03T12:45:10.709Z</time></trkpt><trkpt lat="43.0776524" lon="11.6772517"><ele>489.0</ele><time>2026-04-03T12:45:11.709Z</time></trkpt><trkpt lat="43.0776316" lon="11.6773432"><ele>489.0</ele><time>2026-04-03T12:45:12.709Z</time></trkpt><trkpt lat="43.0776143" lon="11.6774393"><ele>489.1666666666667</ele><time>2026-04-03T12:45:13.71Z</time></trkpt><trkpt lat="43.0776037" lon="11.6775321"><ele>489.33333333333337</ele><time>2026-04-03T12:45:14.71Z</time></trkpt><trkpt lat="43.0776053" lon="11.677643"><ele>489.5</ele><time>2026-04-03T12:45:15.709Z</time></trkpt><trkpt lat="43.077606" lon="11.6777596"><ele>489.6666666666667</ele><time>2026-04-03T12:45:16.71Z</time></trkpt><trkpt lat="43.0775954" lon="11.6778907"><ele>489.83333333333337</ele><time>2026-04-03T12:45:17.709Z</time></trkpt><trkpt lat="43.077584" lon="11.6780264"><ele>490.0</ele><time>2026-04-03T12:45:18.71Z</time></trkpt><trkpt lat="43.0775703" lon="11.6781702"><ele>490.2</ele><time>2026-04-03T12:45:19.709Z</time></trkpt><trkpt lat="43.0775583" lon="11.6783101"><ele>490.4</ele><time>2026-04-03T12:45:20.71Z</time></trkpt><trkpt lat="43.0775496" lon="11.6784396"><ele>490.6</ele><time>2026-04-03T12:45:21.71Z</time></trkpt><trkpt lat="43.0775372" lon="11.6785774"><ele>490.8</ele><time>2026-04-03T12:45:22.71Z</time></trkpt><trkpt lat="43.0775255" lon="11.6786971"><ele>491.0</ele><time>2026-04-03T12:45:23.71Z</time></trkpt><trkpt lat="43.0775085" lon="11.6788504"><ele>490.99999999999994</ele><time>2026-04-03T12:45:25.71Z</time></trkpt><trkpt lat="43.0774968" lon="11.6789448"><ele>491.0</ele><time>2026-04-03T12:45:26.71Z</time></trkpt><trkpt lat="43.077499" lon="11.6790564"><ele>491.0</ele><time>2026-04-03T12:45:27.71Z</time></trkpt><trkpt lat="43.0774969" lon="11.6791726"><ele>491.0</ele><time>2026-04-03T12:45:28.71Z</time></trkpt><trkpt lat="43.0774847" lon="11.6792881"><ele>490.99999999999994</ele><time>2026-04-03T12:45:29.709Z</time></trkpt><trkpt lat="43.0774733" lon="11.6794046"><ele>491.0</ele><time>2026-04-03T12:45:30.71Z</time></trkpt><trkpt lat="43.0774512" lon="11.6795216"><ele>491.8333333333333</ele><time>2026-04-03T12:45:31.71Z</time></trkpt><trkpt lat="43.0774252" lon="11.679621"><ele>492.66666666666663</ele><time>2026-04-03T12:45:32.71Z</time></trkpt><trkpt lat="43.0773954" lon="11.6797197"><ele>493.5</ele><time>2026-04-03T12:45:33.709Z</time></trkpt><trkpt lat="43.0773633" lon="11.6798238"><ele>494.33333333333337</ele><time>2026-04-03T12:45:34.71Z</time></trkpt><trkpt lat="43.0773381" lon="11.679937"><ele>495.1666666666667</ele><time>2026-04-03T12:45:35.71Z</time></trkpt><trkpt lat="43.0773149" lon="11.6800551"><ele>496.0</ele><time>2026-04-03T12:45:36.709Z</time></trkpt><trkpt lat="43.0772916" lon="11.6801692"><ele>495.4</ele><time>2026-04-03T12:45:37.71Z</time></trkpt><trkpt lat="43.077265" lon="11.6802743"><ele>494.8</ele><time>2026-04-03T12:45:38.71Z</time></trkpt><trkpt lat="43.0772397" lon="11.6803782"><ele>494.19999999999993</ele><time>2026-04-03T12:45:39.71Z</time></trkpt><trkpt lat="43.0772122" lon="11.6805012"><ele>493.59999999999997</ele><time>2026-04-03T12:45:40.71Z</time></trkpt><trkpt lat="43.0771837" lon="11.6806448"><ele>493.0</ele><time>2026-04-03T12:45:41.709Z</time></trkpt><trkpt lat="43.0771511" lon="11.6807888"><ele>493.0</ele><time>2026-04-03T12:45:42.709Z</time></trkpt><trkpt lat="43.077116" lon="11.680937"><ele>493.0</ele><time>2026-04-03T12:45:43.71Z</time></trkpt><trkpt lat="43.0770881" lon="11.6810714"><ele>493.0</ele><time>2026-04-03T12:45:44.71Z</time></trkpt><trkpt lat="43.077069" lon="11.6812008"><ele>493.0</ele><time>2026-04-03T12:45:45.71Z</time></trkpt><trkpt lat="43.0770387" lon="11.6814257"><ele>491.33333333333337</ele><time>2026-04-03T12:45:47.71Z</time></trkpt><trkpt lat="43.0770257" lon="11.6815322"><ele>489.6666666666667</ele><time>2026-04-03T12:45:48.71Z</time></trkpt><trkpt lat="43.0770065" lon="11.6816278"><ele>488.0</ele><time>2026-04-03T12:45:49.709Z</time></trkpt><trkpt lat="43.0769721" lon="11.6817022"><ele>486.33333333333337</ele><time>2026-04-03T12:45:50.71Z</time></trkpt><trkpt lat="43.0768436" lon="11.6817706"><ele>484.6666666666667</ele><time>2026-04-03T12:45:52.71Z</time></trkpt><trkpt lat="43.0767491" lon="11.681787"><ele>483.0</ele><time>2026-04-03T12:45:53.71Z</time></trkpt><trkpt lat="43.0766494" lon="11.6817999"><ele>481.3333333333333</ele><time>2026-04-03T12:45:54.71Z</time></trkpt><trkpt lat="43.0765589" lon="11.6818103"><ele>479.66666666666663</ele><time>2026-04-03T12:45:55.71Z</time></trkpt><trkpt lat="43.0764774" lon="11.6818173"><ele>478.0</ele><time>2026-04-03T12:45:56.71Z</time></trkpt><trkpt lat="43.0763924" lon="11.681818"><ele>476.3333333333333</ele><time>2026-04-03T12:45:57.709Z</time></trkpt><trkpt lat="43.0763099" lon="11.681793"><ele>474.66666666666663</ele><time>2026-04-03T12:45:58.71Z</time></trkpt><trkpt lat="43.0762375" lon="11.6817388"><ele>473.0</ele><time>2026-04-03T12:45:59.71Z</time></trkpt><trkpt lat="43.0761873" lon="11.6816511"><ele>473.0</ele><time>2026-04-03T12:46:00.709Z</time></trkpt><trkpt lat="43.0761454" lon="11.6815349"><ele>472.99999999999994</ele><time>2026-04-03T12:46:01.71Z</time></trkpt><trkpt lat="43.0761149" lon="11.6814073"><ele>472.99999999999994</ele><time>2026-04-03T12:46:02.709Z</time></trkpt><trkpt lat="43.0760846" lon="11.6812805"><ele>473.0</ele><time>2026-04-03T12:46:03.71Z</time></trkpt><trkpt lat="43.0760571" lon="11.6811643"><ele>473.0</ele><time>2026-04-03T12:46:04.71Z</time></trkpt><trkpt lat="43.0760343" lon="11.681055"><ele>474.0</ele><time>2026-04-03T12:46:05.709Z</time></trkpt><trkpt lat="43.0760101" lon="11.6809305"><ele>474.99999999999994</ele><time>2026-04-03T12:46:06.71Z</time></trkpt><trkpt lat="43.0759896" lon="11.6807975"><ele>475.99999999999994</ele><time>2026-04-03T12:46:07.71Z</time></trkpt><trkpt lat="43.0759819" lon="11.6806525"><ele>477.0</ele><time>2026-04-03T12:46:08.71Z</time></trkpt><trkpt lat="43.0759953" lon="11.6804945"><ele>478.0</ele><time>2026-04-03T12:46:09.71Z</time></trkpt><trkpt lat="43.0760127" lon="11.6803473"><ele>478.00000000000006</ele><time>2026-04-03T12:46:10.71Z</time></trkpt><trkpt lat="43.07603" lon="11.6802153"><ele>478.0</ele><time>2026-04-03T12:46:11.709Z</time></trkpt><trkpt lat="43.0760455" lon="11.6800966"><ele>478.0</ele><time>2026-04-03T12:46:12.708Z</time></trkpt><trkpt lat="43.0760609" lon="11.6799815"><ele>478.0</ele><time>2026-04-03T12:46:13.708Z</time></trkpt><trkpt lat="43.0760746" lon="11.6798637"><ele>478.00000000000006</ele><time>2026-04-03T12:46:14.709Z</time></trkpt><trkpt lat="43.0760816" lon="11.6797419"><ele>478.0</ele><time>2026-04-03T12:46:15.709Z</time></trkpt><trkpt lat="43.0760777" lon="11.6796135"><ele>478.0</ele><time>2026-04-03T12:46:16.708Z</time></trkpt><trkpt lat="43.076058" lon="11.6794732"><ele>477.99999999999994</ele><time>2026-04-03T12:46:17.708Z</time></trkpt><trkpt lat="43.0760291" lon="11.6793306"><ele>477.99999999999994</ele><time>2026-04-03T12:46:18.709Z</time></trkpt><trkpt lat="43.0760014" lon="11.6791827"><ele>478.0</ele><time>2026-04-03T12:46:19.709Z</time></trkpt><trkpt lat="43.0759744" lon="11.6790414"><ele>478.0</ele><time>2026-04-03T12:46:20.709Z</time></trkpt><trkpt lat="43.0759537" lon="11.6789062"><ele>478.25</ele><time>2026-04-03T12:46:21.708Z</time></trkpt><trkpt lat="43.0759407" lon="11.6787712"><ele>478.5</ele><time>2026-04-03T12:46:22.708Z</time></trkpt><trkpt lat="43.0759323" lon="11.6786242"><ele>478.75</ele><time>2026-04-03T12:46:23.708Z</time></trkpt><trkpt lat="43.0759358" lon="11.6784584"><ele>479.0</ele><time>2026-04-03T12:46:24.709Z</time></trkpt><trkpt lat="43.075946" lon="11.6782826"><ele>478.5</ele><time>2026-04-03T12:46:25.708Z</time></trkpt><trkpt lat="43.075967" lon="11.6780955"><ele>478.0</ele><time>2026-04-03T12:46:26.709Z</time></trkpt><trkpt lat="43.0759969" lon="11.677909"><ele>477.5</ele><time>2026-04-03T12:46:27.709Z</time></trkpt><trkpt lat="43.0760273" lon="11.6777175"><ele>477.0</ele><time>2026-04-03T12:46:28.709Z</time></trkpt><trkpt lat="43.0760602" lon="11.6775309"><ele>475.25</ele><time>2026-04-03T12:46:29.709Z</time></trkpt><trkpt lat="43.0760955" lon="11.6773506"><ele>473.5</ele><time>2026-04-03T12:46:30.708Z</time></trkpt><trkpt lat="43.0761323" lon="11.6771813"><ele>471.75</ele><time>2026-04-03T12:46:31.709Z</time></trkpt><trkpt lat="43.0761726" lon="11.6770164"><ele>470.0</ele><time>2026-04-03T12:46:32.709Z</time></trkpt><trkpt lat="43.0762277" lon="11.6768582"><ele>468.0</ele><time>2026-04-03T12:46:33.709Z</time></trkpt><trkpt lat="43.0762885" lon="11.6766996"><ele>466.0</ele><time>2026-04-03T12:46:34.709Z</time></trkpt><trkpt lat="43.07635" lon="11.6765333"><ele>464.0</ele><time>2026-04-03T12:46:35.709Z</time></trkpt><trkpt lat="43.0764012" lon="11.6763699"><ele>462.0</ele><time>2026-04-03T12:46:36.708Z</time></trkpt><trkpt lat="43.0764474" lon="11.6762056"><ele>459.75</ele><time>2026-04-03T12:46:37.708Z</time></trkpt><trkpt lat="43.0764906" lon="11.6760494"><ele>457.5</ele><time>2026-04-03T12:46:38.708Z</time></trkpt><trkpt lat="43.0765353" lon="11.6759055"><ele>455.25</ele><time>2026-04-03T12:46:39.709Z</time></trkpt><trkpt lat="43.0765773" lon="11.6757591"><ele>453.0</ele><time>2026-04-03T12:46:40.709Z</time></trkpt><trkpt lat="43.0766185" lon="11.6756015"><ele>455.0</ele><time>2026-04-03T12:46:41.708Z</time></trkpt><trkpt lat="43.0766566" lon="11.6754432"><ele>457.0</ele><time>2026-04-03T12:46:42.708Z</time></trkpt><trkpt lat="43.0766991" lon="11.675274"><ele>459.0</ele><time>2026-04-03T12:46:43.709Z</time></trkpt><trkpt lat="43.0767443" lon="11.6751027"><ele>461.0</ele><time>2026-04-03T12:46:44.709Z</time></trkpt><trkpt lat="43.0767974" lon="11.6749249"><ele>461.0</ele><time>2026-04-03T12:46:45.709Z</time></trkpt><trkpt lat="43.0768491" lon="11.6747603"><ele>461.0</ele><time>2026-04-03T12:46:46.709Z</time></trkpt><trkpt lat="43.0769001" lon="11.6746048"><ele>461.0</ele><time>2026-04-03T12:46:47.709Z</time></trkpt><trkpt lat="43.0769483" lon="11.6744599"><ele>461.0</ele><time>2026-04-03T12:46:48.708Z</time></trkpt><trkpt lat="43.0769852" lon="11.674325"><ele>459.49999999999994</ele><time>2026-04-03T12:46:49.709Z</time></trkpt><trkpt lat="43.0769986" lon="11.6742061"><ele>458.0</ele><time>2026-04-03T12:46:50.709Z</time></trkpt><trkpt lat="43.0769867" lon="11.6740952"><ele>456.5</ele><time>2026-04-03T12:46:51.708Z</time></trkpt><trkpt lat="43.0769698" lon="11.6739851"><ele>455.0</ele><time>2026-04-03T12:46:52.708Z</time></trkpt><trkpt lat="43.0769571" lon="11.6738738"><ele>453.49999999999994</ele><time>2026-04-03T12:46:53.708Z</time></trkpt><trkpt lat="43.0769537" lon="11.6737589"><ele>452.0</ele><time>2026-04-03T12:46:54.709Z</time></trkpt><trkpt lat="43.0769583" lon="11.6736631"><ele>450.99999999999994</ele><time>2026-04-03T12:46:55.709Z</time></trkpt><trkpt lat="43.0769698" lon="11.6735262"><ele>450.0</ele><time>2026-04-03T12:46:57.709Z</time></trkpt><trkpt lat="43.0769557" lon="11.6734251"><ele>449.0</ele><time>2026-04-03T12:46:59.709Z</time></trkpt><trkpt lat="43.0769441" lon="11.6733183"><ele>448.0</ele><time>2026-04-03T12:47:01.709Z</time></trkpt><trkpt lat="43.0769124" lon="11.6732437"><ele>446.99999999999994</ele><time>2026-04-03T12:47:03.708Z</time></trkpt><trkpt lat="43.0768618" lon="11.6731907"><ele>446.0</ele><time>2026-04-03T12:47:09.708Z</time></trkpt><trkpt lat="43.0769063" lon="11.6733012"><ele>446.0</ele><time>2026-04-03T12:49:50.708Z</time></trkpt><trkpt lat="43.0769361" lon="11.6734523"><ele>446.0</ele><time>2026-04-03T12:49:52.709Z</time></trkpt><trkpt lat="43.076937" lon="11.6735609"><ele>446.0</ele><time>2026-04-03T12:49:53.709Z</time></trkpt><trkpt lat="43.0769334" lon="11.6736789"><ele>446.0</ele><time>2026-04-03T12:49:54.709Z</time></trkpt><trkpt lat="43.0769385" lon="11.6738094"><ele>446.0</ele><time>2026-04-03T12:49:55.709Z</time></trkpt><trkpt lat="43.0769491" lon="11.6739508"><ele>447.5</ele><time>2026-04-03T12:49:56.708Z</time></trkpt><trkpt lat="43.076963" lon="11.674102"><ele>449.0</ele><time>2026-04-03T12:49:57.708Z</time></trkpt><trkpt lat="43.0769596" lon="11.6742628"><ele>450.5</ele><time>2026-04-03T12:49:58.709Z</time></trkpt><trkpt lat="43.0769151" lon="11.6744473"><ele>452.0</ele><time>2026-04-03T12:49:59.708Z</time></trkpt><trkpt lat="43.0768477" lon="11.6746554"><ele>455.0</ele><time>2026-04-03T12:50:00.708Z</time></trkpt><trkpt lat="43.0767797" lon="11.6748846"><ele>458.0</ele><time>2026-04-03T12:50:01.708Z</time></trkpt><trkpt lat="43.0767209" lon="11.6751213"><ele>461.0</ele><time>2026-04-03T12:50:02.709Z</time></trkpt><trkpt lat="43.0766609" lon="11.675387"><ele>461.3333333333333</ele><time>2026-04-03T12:50:03.709Z</time></trkpt><trkpt lat="43.0765881" lon="11.6756686"><ele>461.66666666666663</ele><time>2026-04-03T12:50:04.708Z</time></trkpt><trkpt lat="43.0765213" lon="11.6759155"><ele>462.0</ele><time>2026-04-03T12:50:05.709Z</time></trkpt><trkpt lat="43.0764502" lon="11.6761533"><ele>462.0</ele><time>2026-04-03T12:50:06.708Z</time></trkpt><trkpt lat="43.0763817" lon="11.676392"><ele>462.0</ele><time>2026-04-03T12:50:07.709Z</time></trkpt><trkpt lat="43.0763095" lon="11.6766193"><ele>462.0</ele><time>2026-04-03T12:50:08.708Z</time></trkpt><trkpt lat="43.0762313" lon="11.6768354"><ele>464.66666666666663</ele><time>2026-04-03T12:50:09.709Z</time></trkpt><trkpt lat="43.0761608" lon="11.6770452"><ele>467.3333333333333</ele><time>2026-04-03T12:50:10.709Z</time></trkpt><trkpt lat="43.0761075" lon="11.6772739"><ele>470.0</ele><time>2026-04-03T12:50:11.709Z</time></trkpt><trkpt lat="43.0760536" lon="11.6775294"><ele>470.0</ele><time>2026-04-03T12:50:12.709Z</time></trkpt><trkpt lat="43.0760165" lon="11.6777673"><ele>470.0</ele><time>2026-04-03T12:50:13.709Z</time></trkpt><trkpt lat="43.0759812" lon="11.6779796"><ele>470.0</ele><time>2026-04-03T12:50:14.709Z</time></trkpt><trkpt lat="43.0759529" lon="11.6781727"><ele>471.75</ele><time>2026-04-03T12:50:15.709Z</time></trkpt><trkpt lat="43.0759366" lon="11.6783688"><ele>473.5</ele><time>2026-04-03T12:50:16.709Z</time></trkpt><trkpt lat="43.0759318" lon="11.6785569"><ele>475.25</ele><time>2026-04-03T12:50:17.708Z</time></trkpt><trkpt lat="43.0759425" lon="11.6787418"><ele>477.0</ele><time>2026-04-03T12:50:18.709Z</time></trkpt><trkpt lat="43.0759555" lon="11.6789175"><ele>477.25</ele><time>2026-04-03T12:50:19.709Z</time></trkpt><trkpt lat="43.0759749" lon="11.6790954"><ele>477.5</ele><time>2026-04-03T12:50:20.709Z</time></trkpt><trkpt lat="43.0760019" lon="11.6792743"><ele>477.75</ele><time>2026-04-03T12:50:21.709Z</time></trkpt><trkpt lat="43.0760289" lon="11.6794399"><ele>478.0</ele><time>2026-04-03T12:50:22.709Z</time></trkpt><trkpt lat="43.0760494" lon="11.6795888"><ele>478.0</ele><time>2026-04-03T12:50:23.709Z</time></trkpt><trkpt lat="43.0760652" lon="11.679723"><ele>477.99999999999994</ele><time>2026-04-03T12:50:24.709Z</time></trkpt><trkpt lat="43.0760646" lon="11.6798533"><ele>477.99999999999994</ele><time>2026-04-03T12:50:25.709Z</time></trkpt><trkpt lat="43.0760533" lon="11.6799891"><ele>478.0</ele><time>2026-04-03T12:50:26.709Z</time></trkpt><trkpt lat="43.0760274" lon="11.6801256"><ele>478.0</ele><time>2026-04-03T12:50:27.709Z</time></trkpt><trkpt lat="43.076006" lon="11.6802867"><ele>478.0</ele><time>2026-04-03T12:50:28.709Z</time></trkpt><trkpt lat="43.0759821" lon="11.6804464"><ele>478.0</ele><time>2026-04-03T12:50:29.708Z</time></trkpt><trkpt lat="43.075971" lon="11.6806108"><ele>478.0</ele><time>2026-04-03T12:50:30.709Z</time></trkpt><trkpt lat="43.075973" lon="11.6807798"><ele>478.0</ele><time>2026-04-03T12:50:31.709Z</time></trkpt><trkpt lat="43.0759958" lon="11.6809456"><ele>476.75</ele><time>2026-04-03T12:50:32.708Z</time></trkpt><trkpt lat="43.0760262" lon="11.6811014"><ele>475.5</ele><time>2026-04-03T12:50:33.709Z</time></trkpt><trkpt lat="43.0760827" lon="11.6813505"><ele>474.25</ele><time>2026-04-03T12:50:35.709Z</time></trkpt><trkpt lat="43.0761024" lon="11.681462"><ele>473.0</ele><time>2026-04-03T12:50:36.709Z</time></trkpt><trkpt lat="43.0761292" lon="11.681563"><ele>472.99999999999994</ele><time>2026-04-03T12:50:37.709Z</time></trkpt><trkpt lat="43.0761642" lon="11.6816489"><ele>473.0</ele><time>2026-04-03T12:50:38.709Z</time></trkpt><trkpt lat="43.0762103" lon="11.6817285"><ele>473.0</ele><time>2026-04-03T12:50:39.709Z</time></trkpt><trkpt lat="43.0762856" lon="11.6817957"><ele>473.0</ele><time>2026-04-03T12:50:40.709Z</time></trkpt><trkpt lat="43.0763681" lon="11.6818284"><ele>472.99999999999994</ele><time>2026-04-03T12:50:41.708Z</time></trkpt><trkpt lat="43.0764623" lon="11.6818389"><ele>473.0</ele><time>2026-04-03T12:50:42.709Z</time></trkpt><trkpt lat="43.0765711" lon="11.6818234"><ele>475.0</ele><time>2026-04-03T12:50:43.708Z</time></trkpt><trkpt lat="43.0766825" lon="11.6818101"><ele>476.99999999999994</ele><time>2026-04-03T12:50:44.708Z</time></trkpt><trkpt lat="43.0767946" lon="11.6817986"><ele>478.99999999999994</ele><time>2026-04-03T12:50:45.709Z</time></trkpt><trkpt lat="43.0768891" lon="11.6817779"><ele>481.0</ele><time>2026-04-03T12:50:46.709Z</time></trkpt><trkpt lat="43.0769601" lon="11.6817343"><ele>483.0</ele><time>2026-04-03T12:50:47.708Z</time></trkpt><trkpt lat="43.0770036" lon="11.6816691"><ele>483.0</ele><time>2026-04-03T12:50:48.709Z</time></trkpt><trkpt lat="43.0770239" lon="11.6815622"><ele>482.99999999999994</ele><time>2026-04-03T12:50:49.708Z</time></trkpt><trkpt lat="43.0770338" lon="11.6814198"><ele>482.99999999999994</ele><time>2026-04-03T12:50:50.708Z</time></trkpt><trkpt lat="43.0770508" lon="11.6812726"><ele>483.0</ele><time>2026-04-03T12:50:51.708Z</time></trkpt><trkpt lat="43.0770814" lon="11.68111"><ele>483.0</ele><time>2026-04-03T12:50:52.709Z</time></trkpt><trkpt lat="43.0771265" lon="11.6809506"><ele>485.0</ele><time>2026-04-03T12:50:53.709Z</time></trkpt><trkpt lat="43.0771611" lon="11.6808095"><ele>486.99999999999994</ele><time>2026-04-03T12:50:54.709Z</time></trkpt><trkpt lat="43.0771901" lon="11.6806864"><ele>488.99999999999994</ele><time>2026-04-03T12:50:55.709Z</time></trkpt><trkpt lat="43.0772198" lon="11.6805614"><ele>491.0</ele><time>2026-04-03T12:50:56.708Z</time></trkpt><trkpt lat="43.0772455" lon="11.6804284"><ele>493.0</ele><time>2026-04-03T12:50:57.709Z</time></trkpt><trkpt lat="43.0772781" lon="11.6802835"><ele>493.75</ele><time>2026-04-03T12:50:58.709Z</time></trkpt><trkpt lat="43.0773155" lon="11.6801439"><ele>494.5</ele><time>2026-04-03T12:50:59.709Z</time></trkpt><trkpt lat="43.0773497" lon="11.6799934"><ele>495.25</ele><time>2026-04-03T12:51:00.708Z</time></trkpt><trkpt lat="43.0773897" lon="11.6798429"><ele>496.0</ele><time>2026-04-03T12:51:01.709Z</time></trkpt><trkpt lat="43.0774283" lon="11.6796905"><ele>495.0</ele><time>2026-04-03T12:51:02.708Z</time></trkpt><trkpt lat="43.0774592" lon="11.679531"><ele>494.0</ele><time>2026-04-03T12:51:03.709Z</time></trkpt><trkpt lat="43.0774846" lon="11.6793814"><ele>493.0</ele><time>2026-04-03T12:51:04.709Z</time></trkpt><trkpt lat="43.0774983" lon="11.6792384"><ele>492.0</ele><time>2026-04-03T12:51:05.709Z</time></trkpt><trkpt lat="43.0775024" lon="11.6791109"><ele>491.0</ele><time>2026-04-03T12:51:06.709Z</time></trkpt><trkpt lat="43.0775075" lon="11.679"><ele>490.99999999999994</ele><time>2026-04-03T12:51:07.708Z</time></trkpt><trkpt lat="43.0775249" lon="11.6789086"><ele>491.0</ele><time>2026-04-03T12:51:08.708Z</time></trkpt><trkpt lat="43.0776086" lon="11.6788364"><ele>491.0</ele><time>2026-04-03T12:51:10.709Z</time></trkpt><trkpt lat="43.0777265" lon="11.6788327"><ele>491.0</ele><time>2026-04-03T12:51:12.709Z</time></trkpt><trkpt lat="43.0777852" lon="11.6787898"><ele>490.99999999999994</ele><time>2026-04-03T12:51:13.709Z</time></trkpt><trkpt lat="43.0778344" lon="11.6787338"><ele>491.0</ele><time>2026-04-03T12:51:14.708Z</time></trkpt><trkpt lat="43.0778711" lon="11.6786348"><ele>490.99999999999994</ele><time>2026-04-03T12:51:15.709Z</time></trkpt><trkpt lat="43.077913" lon="11.6785228"><ele>491.0</ele><time>2026-04-03T12:51:16.708Z</time></trkpt><trkpt lat="43.0779489" lon="11.6784133"><ele>491.0</ele><time>2026-04-03T12:51:17.709Z</time></trkpt><trkpt lat="43.0779805" lon="11.6783202"><ele>491.0</ele><time>2026-04-03T12:51:18.709Z</time></trkpt><trkpt lat="43.0780097" lon="11.6782386"><ele>490.99999999999994</ele><time>2026-04-03T12:51:19.709Z</time></trkpt><trkpt lat="43.0780447" lon="11.6781216"><ele>491.0</ele><time>2026-04-03T12:51:21.709Z</time></trkpt><trkpt lat="43.0780858" lon="11.6780417"><ele>491.0</ele><time>2026-04-03T12:51:24.709Z</time></trkpt><trkpt lat="43.0781615" lon="11.6779783"><ele>491.0</ele><time>2026-04-03T12:51:27.709Z</time></trkpt><trkpt lat="43.0782889" lon="11.6778907"><ele>491.0</ele><time>2026-04-03T12:51:29.708Z</time></trkpt><trkpt lat="43.0783751" lon="11.6778465"><ele>491.0</ele><time>2026-04-03T12:51:30.709Z</time></trkpt><trkpt lat="43.0784745" lon="11.6777927"><ele>491.0</ele><time>2026-04-03T12:51:31.709Z</time></trkpt><trkpt lat="43.0785796" lon="11.6777286"><ele>490.0</ele><time>2026-04-03T12:51:32.708Z</time></trkpt><trkpt lat="43.0786839" lon="11.6776587"><ele>489.0</ele><time>2026-04-03T12:51:33.708Z</time></trkpt><trkpt lat="43.0787944" lon="11.6775919"><ele>488.0</ele><time>2026-04-03T12:51:34.708Z</time></trkpt><trkpt lat="43.0789053" lon="11.6775287"><ele>487.0</ele><time>2026-04-03T12:51:35.709Z</time></trkpt><trkpt lat="43.0790055" lon="11.6774575"><ele>487.00000000000006</ele><time>2026-04-03T12:51:36.709Z</time></trkpt><trkpt lat="43.0790904" lon="11.6773924"><ele>487.0</ele><time>2026-04-03T12:51:37.708Z</time></trkpt><trkpt lat="43.0791628" lon="11.6773596"><ele>487.0</ele><time>2026-04-03T12:51:38.708Z</time></trkpt><trkpt lat="43.0792541" lon="11.6773466"><ele>487.0</ele><time>2026-04-03T12:51:40.709Z</time></trkpt><trkpt lat="43.0793211" lon="11.6773487"><ele>487.00000000000006</ele><time>2026-04-03T12:52:09.708Z</time></trkpt><trkpt lat="43.0794057" lon="11.677343"><ele>487.0</ele><time>2026-04-03T12:52:12.709Z</time></trkpt><trkpt lat="43.0794757" lon="11.6773183"><ele>486.6666666666667</ele><time>2026-04-03T12:52:15.709Z</time></trkpt><trkpt lat="43.0795542" lon="11.677245"><ele>486.33333333333337</ele><time>2026-04-03T13:03:58.708Z</time></trkpt><trkpt lat="43.0794846" lon="11.6772378"><ele>486.0</ele><time>2026-04-03T13:04:01.708Z</time></trkpt><trkpt lat="43.0794214" lon="11.6772725"><ele>485.66666666666663</ele><time>2026-04-03T13:04:04.708Z</time></trkpt><trkpt lat="43.0795257" lon="11.6772724"><ele>485.3333333333333</ele><time>2026-04-03T13:05:51.707Z</time></trkpt><trkpt lat="43.0794637" lon="11.6772563"><ele>485.0</ele><time>2026-04-03T13:06:49.706Z</time></trkpt><trkpt lat="43.0795297" lon="11.6772489"><ele>484.99999999999994</ele><time>2026-04-03T13:07:57.707Z</time></trkpt><trkpt lat="43.0795686" lon="11.6773247"><ele>485.0</ele><time>2026-04-03T13:08:06.706Z</time></trkpt><trkpt lat="43.0796288" lon="11.6772353"><ele>485.0</ele><time>2026-04-03T13:10:01.706Z</time></trkpt><trkpt lat="43.0796519" lon="11.6771298"><ele>485.0</ele><time>2026-04-03T13:10:03.706Z</time></trkpt><trkpt lat="43.0797266" lon="11.6770337"><ele>484.99999999999994</ele><time>2026-04-03T13:10:05.706Z</time></trkpt><trkpt lat="43.0797827" lon="11.6769806"><ele>485.0</ele><time>2026-04-03T13:10:06.706Z</time></trkpt><trkpt lat="43.0798572" lon="11.6769303"><ele>485.0</ele><time>2026-04-03T13:10:07.706Z</time></trkpt><trkpt lat="43.0799485" lon="11.6768588"><ele>485.0</ele><time>2026-04-03T13:10:08.706Z</time></trkpt><trkpt lat="43.0800552" lon="11.6767883"><ele>485.0</ele><time>2026-04-03T13:10:09.705Z</time></trkpt><trkpt lat="43.0801646" lon="11.6767177"><ele>485.0</ele><time>2026-04-03T13:10:10.706Z</time></trkpt><trkpt lat="43.0802797" lon="11.6766431"><ele>485.0</ele><time>2026-04-03T13:10:11.706Z</time></trkpt><trkpt lat="43.0803933" lon="11.6765756"><ele>485.0</ele><time>2026-04-03T13:10:12.705Z</time></trkpt><trkpt lat="43.080508" lon="11.6765232"><ele>485.0</ele><time>2026-04-03T13:10:13.705Z</time></trkpt><trkpt lat="43.0806318" lon="11.6764831"><ele>485.0</ele><time>2026-04-03T13:10:14.705Z</time></trkpt><trkpt lat="43.0807651" lon="11.6764479"><ele>483.25</ele><time>2026-04-03T13:10:15.706Z</time></trkpt><trkpt lat="43.0809046" lon="11.6764204"><ele>481.5</ele><time>2026-04-03T13:10:16.706Z</time></trkpt><trkpt lat="43.0810473" lon="11.6763974"><ele>479.75</ele><time>2026-04-03T13:10:17.706Z</time></trkpt><trkpt lat="43.0811905" lon="11.6763822"><ele>478.0</ele><time>2026-04-03T13:10:18.706Z</time></trkpt><trkpt lat="43.0813381" lon="11.6763691"><ele>478.0</ele><time>2026-04-03T13:10:19.705Z</time></trkpt><trkpt lat="43.0814854" lon="11.6763634"><ele>478.0</ele><time>2026-04-03T13:10:20.705Z</time></trkpt><trkpt lat="43.0816314" lon="11.6763642"><ele>478.0</ele><time>2026-04-03T13:10:21.705Z</time></trkpt><trkpt lat="43.0817808" lon="11.676366"><ele>478.0</ele><time>2026-04-03T13:10:22.706Z</time></trkpt><trkpt lat="43.0819403" lon="11.676376"><ele>475.33333333333337</ele><time>2026-04-03T13:10:23.705Z</time></trkpt><trkpt lat="43.0821087" lon="11.6763903"><ele>472.66666666666663</ele><time>2026-04-03T13:10:24.705Z</time></trkpt><trkpt lat="43.0822701" lon="11.6764111"><ele>470.0</ele><time>2026-04-03T13:10:25.705Z</time></trkpt><trkpt lat="43.0824328" lon="11.6764363"><ele>467.0</ele><time>2026-04-03T13:10:26.706Z</time></trkpt><trkpt lat="43.0825935" lon="11.6764659"><ele>464.0</ele><time>2026-04-03T13:10:27.706Z</time></trkpt><trkpt lat="43.082758" lon="11.6764912"><ele>461.0</ele><time>2026-04-03T13:10:28.706Z</time></trkpt><trkpt lat="43.0829207" lon="11.6765139"><ele>461.0</ele><time>2026-04-03T13:10:29.706Z</time></trkpt><trkpt lat="43.0830774" lon="11.6765363"><ele>461.0</ele><time>2026-04-03T13:10:30.706Z</time></trkpt><trkpt lat="43.0832204" lon="11.6765622"><ele>461.0</ele><time>2026-04-03T13:10:31.706Z</time></trkpt><trkpt lat="43.0833599" lon="11.6765867"><ele>461.0</ele><time>2026-04-03T13:10:32.706Z</time></trkpt><trkpt lat="43.0835016" lon="11.6766063"><ele>460.0</ele><time>2026-04-03T13:10:33.706Z</time></trkpt><trkpt lat="43.0836334" lon="11.6766251"><ele>459.0</ele><time>2026-04-03T13:10:34.705Z</time></trkpt><trkpt lat="43.0837436" lon="11.6766424"><ele>458.0</ele><time>2026-04-03T13:10:35.706Z</time></trkpt><trkpt lat="43.0838402" lon="11.6766511"><ele>457.0</ele><time>2026-04-03T13:10:36.706Z</time></trkpt><trkpt lat="43.0839353" lon="11.6766465"><ele>456.0</ele><time>2026-04-03T13:10:37.706Z</time></trkpt><trkpt lat="43.0840162" lon="11.6766202"><ele>455.0</ele><time>2026-04-03T13:10:38.705Z</time></trkpt><trkpt lat="43.0841013" lon="11.676586"><ele>454.0</ele><time>2026-04-03T13:10:39.706Z</time></trkpt><trkpt lat="43.0841849" lon="11.6765617"><ele>453.0</ele><time>2026-04-03T13:10:40.706Z</time></trkpt><trkpt lat="43.0842528" lon="11.6765602"><ele>452.0</ele><time>2026-04-03T13:10:41.706Z</time></trkpt><trkpt lat="43.084333" lon="11.6765678"><ele>451.0</ele><time>2026-04-03T13:10:42.706Z</time></trkpt><trkpt lat="43.0844237" lon="11.6765836"><ele>450.0</ele><time>2026-04-03T13:10:43.706Z</time></trkpt><trkpt lat="43.084516" lon="11.6766399"><ele>450.0</ele><time>2026-04-03T13:10:44.706Z</time></trkpt><trkpt lat="43.084621" lon="11.6767497"><ele>450.0</ele><time>2026-04-03T13:10:45.705Z</time></trkpt><trkpt lat="43.0847281" lon="11.676913"><ele>450.0</ele><time>2026-04-03T13:10:46.705Z</time></trkpt><trkpt lat="43.0848359" lon="11.6770971"><ele>450.66666666666663</ele><time>2026-04-03T13:10:47.705Z</time></trkpt><trkpt lat="43.0849434" lon="11.6772976"><ele>451.3333333333333</ele><time>2026-04-03T13:10:48.706Z</time></trkpt><trkpt lat="43.0850519" lon="11.6774834"><ele>452.0</ele><time>2026-04-03T13:10:49.705Z</time></trkpt><trkpt lat="43.0851709" lon="11.6776532"><ele>451.66666666666663</ele><time>2026-04-03T13:10:50.706Z</time></trkpt><trkpt lat="43.0853029" lon="11.6778178"><ele>451.33333333333337</ele><time>2026-04-03T13:10:51.706Z</time></trkpt><trkpt lat="43.0854496" lon="11.6779717"><ele>451.0</ele><time>2026-04-03T13:10:52.706Z</time></trkpt><trkpt lat="43.0856174" lon="11.6781265"><ele>452.0</ele><time>2026-04-03T13:10:53.706Z</time></trkpt><trkpt lat="43.0857979" lon="11.6782812"><ele>453.0</ele><time>2026-04-03T13:10:54.706Z</time></trkpt><trkpt lat="43.0859875" lon="11.6784417"><ele>454.0</ele><time>2026-04-03T13:10:55.705Z</time></trkpt><trkpt lat="43.086186" lon="11.6786101"><ele>454.0</ele><time>2026-04-03T13:10:56.706Z</time></trkpt><trkpt lat="43.0863891" lon="11.6787852"><ele>454.0</ele><time>2026-04-03T13:10:57.706Z</time></trkpt><trkpt lat="43.0865776" lon="11.6789471"><ele>454.33333333333337</ele><time>2026-04-03T13:10:58.705Z</time></trkpt><trkpt lat="43.0867607" lon="11.679103"><ele>454.66666666666663</ele><time>2026-04-03T13:10:59.705Z</time></trkpt><trkpt lat="43.0869377" lon="11.6792723"><ele>455.0</ele><time>2026-04-03T13:11:00.705Z</time></trkpt><trkpt lat="43.087102" lon="11.6794693"><ele>455.0</ele><time>2026-04-03T13:11:01.705Z</time></trkpt><trkpt lat="43.0872432" lon="11.6796972"><ele>455.0</ele><time>2026-04-03T13:11:02.706Z</time></trkpt><trkpt lat="43.0873608" lon="11.679946"><ele>455.0</ele><time>2026-04-03T13:11:03.705Z</time></trkpt><trkpt lat="43.0874683" lon="11.6802192"><ele>456.0</ele><time>2026-04-03T13:11:04.706Z</time></trkpt><trkpt lat="43.0875798" lon="11.6804828"><ele>457.0</ele><time>2026-04-03T13:11:05.706Z</time></trkpt><trkpt lat="43.0876558" lon="11.680795"><ele>457.0</ele><time>2026-04-03T13:11:06.705Z</time></trkpt><trkpt lat="43.0877235" lon="11.6810897"><ele>457.0</ele><time>2026-04-03T13:11:07.706Z</time></trkpt><trkpt lat="43.0878004" lon="11.6813707"><ele>457.0</ele><time>2026-04-03T13:11:08.706Z</time></trkpt><trkpt lat="43.087863" lon="11.6816433"><ele>457.6666666666667</ele><time>2026-04-03T13:11:09.706Z</time></trkpt><trkpt lat="43.0879259" lon="11.6819042"><ele>458.33333333333337</ele><time>2026-04-03T13:11:10.706Z</time></trkpt><trkpt lat="43.0879844" lon="11.6821632"><ele>459.0</ele><time>2026-04-03T13:11:11.705Z</time></trkpt><trkpt lat="43.0880399" lon="11.6823984"><ele>459.0</ele><time>2026-04-03T13:11:12.705Z</time></trkpt><trkpt lat="43.0880927" lon="11.6826142"><ele>459.0</ele><time>2026-04-03T13:11:13.706Z</time></trkpt><trkpt lat="43.0881448" lon="11.6828349"><ele>459.0</ele><time>2026-04-03T13:11:14.706Z</time></trkpt><trkpt lat="43.0881917" lon="11.683052"><ele>459.0</ele><time>2026-04-03T13:11:15.705Z</time></trkpt><trkpt lat="43.0882457" lon="11.6832582"><ele>459.0</ele><time>2026-04-03T13:11:16.706Z</time></trkpt><trkpt lat="43.0883199" lon="11.6834627"><ele>459.0</ele><time>2026-04-03T13:11:17.705Z</time></trkpt><trkpt lat="43.0884013" lon="11.6836601"><ele>457.0</ele><time>2026-04-03T13:11:18.706Z</time></trkpt><trkpt lat="43.0884953" lon="11.6838479"><ele>455.0</ele><time>2026-04-03T13:11:19.705Z</time></trkpt><trkpt lat="43.0886097" lon="11.6840201"><ele>453.0</ele><time>2026-04-03T13:11:20.706Z</time></trkpt><trkpt lat="43.0887556" lon="11.6841885"><ele>453.0</ele><time>2026-04-03T13:11:21.705Z</time></trkpt><trkpt lat="43.0889223" lon="11.6843705"><ele>453.0</ele><time>2026-04-03T13:11:22.706Z</time></trkpt><trkpt lat="43.0891007" lon="11.6845786"><ele>453.0</ele><time>2026-04-03T13:11:23.706Z</time></trkpt><trkpt lat="43.089287" lon="11.684795"><ele>450.0</ele><time>2026-04-03T13:11:24.706Z</time></trkpt><trkpt lat="43.0894717" lon="11.6850093"><ele>447.0</ele><time>2026-04-03T13:11:25.706Z</time></trkpt><trkpt lat="43.0896512" lon="11.6852054"><ele>445.5</ele><time>2026-04-03T13:11:26.706Z</time></trkpt><trkpt lat="43.0898294" lon="11.6854048"><ele>444.0</ele><time>2026-04-03T13:11:27.706Z</time></trkpt><trkpt lat="43.0900063" lon="11.6856043"><ele>443.66666666666663</ele><time>2026-04-03T13:11:28.705Z</time></trkpt><trkpt lat="43.0901653" lon="11.6857794"><ele>443.3333333333333</ele><time>2026-04-03T13:11:29.706Z</time></trkpt><trkpt lat="43.0903193" lon="11.6859446"><ele>443.0</ele><time>2026-04-03T13:11:30.705Z</time></trkpt><trkpt lat="43.0904724" lon="11.686084"><ele>442.3333333333333</ele><time>2026-04-03T13:11:31.706Z</time></trkpt><trkpt lat="43.0906276" lon="11.6861968"><ele>441.66666666666663</ele><time>2026-04-03T13:11:32.705Z</time></trkpt><trkpt lat="43.0907841" lon="11.6862879"><ele>441.0</ele><time>2026-04-03T13:11:33.706Z</time></trkpt><trkpt lat="43.0909316" lon="11.6863718"><ele>441.0</ele><time>2026-04-03T13:11:34.706Z</time></trkpt><trkpt lat="43.091083" lon="11.6864546"><ele>441.0</ele><time>2026-04-03T13:11:35.706Z</time></trkpt><trkpt lat="43.0912196" lon="11.6865439"><ele>441.0</ele><time>2026-04-03T13:11:36.706Z</time></trkpt><trkpt lat="43.0913546" lon="11.686619"><ele>441.0</ele><time>2026-04-03T13:11:37.705Z</time></trkpt><trkpt lat="43.0914833" lon="11.6866936"><ele>441.0</ele><time>2026-04-03T13:11:38.705Z</time></trkpt><trkpt lat="43.0916008" lon="11.6867852"><ele>441.0</ele><time>2026-04-03T13:11:39.706Z</time></trkpt><trkpt lat="43.0916851" lon="11.6869109"><ele>441.0</ele><time>2026-04-03T13:11:40.705Z</time></trkpt><trkpt lat="43.0917407" lon="11.6870722"><ele>439.75</ele><time>2026-04-03T13:11:41.705Z</time></trkpt><trkpt lat="43.0917745" lon="11.68725"><ele>438.5</ele><time>2026-04-03T13:11:42.706Z</time></trkpt><trkpt lat="43.0918111" lon="11.687424"><ele>437.25</ele><time>2026-04-03T13:11:43.706Z</time></trkpt><trkpt lat="43.0918732" lon="11.6875929"><ele>436.0</ele><time>2026-04-03T13:11:44.706Z</time></trkpt><trkpt lat="43.0919654" lon="11.687729"><ele>436.33333333333337</ele><time>2026-04-03T13:11:45.706Z</time></trkpt><trkpt lat="43.0920792" lon="11.6878409"><ele>436.66666666666663</ele><time>2026-04-03T13:11:46.706Z</time></trkpt><trkpt lat="43.092221" lon="11.6879632"><ele>437.0</ele><time>2026-04-03T13:11:47.705Z</time></trkpt><trkpt lat="43.0923623" lon="11.6881071"><ele>434.3333333333333</ele><time>2026-04-03T13:11:48.706Z</time></trkpt><trkpt lat="43.0925308" lon="11.6882631"><ele>431.66666666666663</ele><time>2026-04-03T13:11:49.705Z</time></trkpt><trkpt lat="43.0926996" lon="11.6884118"><ele>429.0</ele><time>2026-04-03T13:11:50.706Z</time></trkpt><trkpt lat="43.0928574" lon="11.6885363"><ele>429.66666666666663</ele><time>2026-04-03T13:11:51.705Z</time></trkpt><trkpt lat="43.0930134" lon="11.6886512"><ele>430.3333333333333</ele><time>2026-04-03T13:11:52.706Z</time></trkpt><trkpt lat="43.0931719" lon="11.6887605"><ele>431.0</ele><time>2026-04-03T13:11:53.706Z</time></trkpt><trkpt lat="43.0933363" lon="11.6888575"><ele>429.3333333333333</ele><time>2026-04-03T13:11:54.706Z</time></trkpt><trkpt lat="43.0935141" lon="11.6889246"><ele>427.66666666666663</ele><time>2026-04-03T13:11:55.706Z</time></trkpt><trkpt lat="43.0936933" lon="11.688975"><ele>426.0</ele><time>2026-04-03T13:11:56.706Z</time></trkpt><trkpt lat="43.0938639" lon="11.6889997"><ele>426.0</ele><time>2026-04-03T13:11:57.706Z</time></trkpt><trkpt lat="43.0940247" lon="11.6890111"><ele>426.0</ele><time>2026-04-03T13:11:58.706Z</time></trkpt><trkpt lat="43.0941862" lon="11.6890361"><ele>426.0</ele><time>2026-04-03T13:11:59.706Z</time></trkpt><trkpt lat="43.0943461" lon="11.6890744"><ele>426.33333333333337</ele><time>2026-04-03T13:12:00.706Z</time></trkpt><trkpt lat="43.0945016" lon="11.6891282"><ele>426.6666666666667</ele><time>2026-04-03T13:12:01.706Z</time></trkpt><trkpt lat="43.0946484" lon="11.6891834"><ele>427.0</ele><time>2026-04-03T13:12:02.706Z</time></trkpt><trkpt lat="43.0947926" lon="11.6892529"><ele>428.0</ele><time>2026-04-03T13:12:03.706Z</time></trkpt><trkpt lat="43.0949377" lon="11.6893392"><ele>429.0</ele><time>2026-04-03T13:12:04.706Z</time></trkpt><trkpt lat="43.0950821" lon="11.6894478"><ele>430.0</ele><time>2026-04-03T13:12:05.705Z</time></trkpt><trkpt lat="43.0952309" lon="11.689569"><ele>427.33333333333337</ele><time>2026-04-03T13:12:06.706Z</time></trkpt><trkpt lat="43.0953711" lon="11.6897037"><ele>424.66666666666663</ele><time>2026-04-03T13:12:07.706Z</time></trkpt><trkpt lat="43.0955117" lon="11.6898453"><ele>422.0</ele><time>2026-04-03T13:12:08.705Z</time></trkpt><trkpt lat="43.0956514" lon="11.6899985"><ele>421.66666666666663</ele><time>2026-04-03T13:12:09.706Z</time></trkpt><trkpt lat="43.0957905" lon="11.6901435"><ele>421.33333333333337</ele><time>2026-04-03T13:12:10.706Z</time></trkpt><trkpt lat="43.095927" lon="11.6902942"><ele>421.0</ele><time>2026-04-03T13:12:11.706Z</time></trkpt><trkpt lat="43.0960604" lon="11.6904451"><ele>420.0</ele><time>2026-04-03T13:12:12.706Z</time></trkpt><trkpt lat="43.0961915" lon="11.6905814"><ele>419.0</ele><time>2026-04-03T13:12:13.706Z</time></trkpt><trkpt lat="43.0963032" lon="11.6907278"><ele>418.0</ele><time>2026-04-03T13:12:14.706Z</time></trkpt><trkpt lat="43.0964014" lon="11.690875"><ele>418.0</ele><time>2026-04-03T13:12:15.706Z</time></trkpt><trkpt lat="43.0964724" lon="11.6910565"><ele>418.0</ele><time>2026-04-03T13:12:16.705Z</time></trkpt><trkpt lat="43.0965159" lon="11.69126"><ele>418.0</ele><time>2026-04-03T13:12:17.706Z</time></trkpt><trkpt lat="43.0965426" lon="11.6914774"><ele>418.33333333333337</ele><time>2026-04-03T13:12:18.706Z</time></trkpt><trkpt lat="43.0965715" lon="11.6917533"><ele>418.66666666666663</ele><time>2026-04-03T13:12:19.706Z</time></trkpt><trkpt lat="43.0965883" lon="11.6920768"><ele>419.0</ele><time>2026-04-03T13:12:20.706Z</time></trkpt><trkpt lat="43.0965769" lon="11.6923796"><ele>419.0</ele><time>2026-04-03T13:12:21.706Z</time></trkpt><trkpt lat="43.0966029" lon="11.6926331"><ele>419.0</ele><time>2026-04-03T13:12:22.705Z</time></trkpt><trkpt lat="43.096647" lon="11.6928697"><ele>419.0</ele><time>2026-04-03T13:12:23.706Z</time></trkpt><trkpt lat="43.09673" lon="11.693069"><ele>418.66666666666663</ele><time>2026-04-03T13:12:24.705Z</time></trkpt><trkpt lat="43.0968572" lon="11.6932557"><ele>418.33333333333337</ele><time>2026-04-03T13:12:25.705Z</time></trkpt><trkpt lat="43.0970179" lon="11.6934535"><ele>418.0</ele><time>2026-04-03T13:12:26.706Z</time></trkpt><trkpt lat="43.0971944" lon="11.6936531"><ele>418.0</ele><time>2026-04-03T13:12:27.706Z</time></trkpt><trkpt lat="43.0973846" lon="11.6938721"><ele>418.0</ele><time>2026-04-03T13:12:28.706Z</time></trkpt><trkpt lat="43.097578" lon="11.6940954"><ele>420.0</ele><time>2026-04-03T13:12:29.706Z</time></trkpt><trkpt lat="43.0977818" lon="11.694318"><ele>422.0</ele><time>2026-04-03T13:12:30.706Z</time></trkpt><trkpt lat="43.0979847" lon="11.6945465"><ele>424.0</ele><time>2026-04-03T13:12:31.706Z</time></trkpt><trkpt lat="43.0981889" lon="11.6947745"><ele>426.0</ele><time>2026-04-03T13:12:32.706Z</time></trkpt><trkpt lat="43.0983922" lon="11.6949998"><ele>426.5</ele><time>2026-04-03T13:12:33.706Z</time></trkpt><trkpt lat="43.0985786" lon="11.6952033"><ele>427.0</ele><time>2026-04-03T13:12:34.706Z</time></trkpt><trkpt lat="43.0987457" lon="11.6953909"><ele>428.33333333333337</ele><time>2026-04-03T13:12:35.705Z</time></trkpt><trkpt lat="43.0989004" lon="11.695564"><ele>429.66666666666663</ele><time>2026-04-03T13:12:36.706Z</time></trkpt><trkpt lat="43.0990536" lon="11.6957381"><ele>431.0</ele><time>2026-04-03T13:12:37.705Z</time></trkpt><trkpt lat="43.0992066" lon="11.6959068"><ele>433.0</ele><time>2026-04-03T13:12:38.706Z</time></trkpt><trkpt lat="43.0993512" lon="11.6960582"><ele>435.0</ele><time>2026-04-03T13:12:39.706Z</time></trkpt><trkpt lat="43.0994885" lon="11.696188"><ele>437.0</ele><time>2026-04-03T13:12:40.705Z</time></trkpt><trkpt lat="43.0996308" lon="11.69629"><ele>437.66666666666663</ele><time>2026-04-03T13:12:41.705Z</time></trkpt><trkpt lat="43.0997834" lon="11.6963581"><ele>438.33333333333337</ele><time>2026-04-03T13:12:42.706Z</time></trkpt><trkpt lat="43.0999554" lon="11.6964046"><ele>439.0</ele><time>2026-04-03T13:12:43.706Z</time></trkpt><trkpt lat="43.1001481" lon="11.6964528"><ele>441.6666666666667</ele><time>2026-04-03T13:12:44.706Z</time></trkpt><trkpt lat="43.1003513" lon="11.6965213"><ele>444.33333333333337</ele><time>2026-04-03T13:12:45.705Z</time></trkpt><trkpt lat="43.1005572" lon="11.6965916"><ele>447.0</ele><time>2026-04-03T13:12:46.705Z</time></trkpt><trkpt lat="43.1007557" lon="11.6966512"><ele>448.33333333333337</ele><time>2026-04-03T13:12:47.706Z</time></trkpt><trkpt lat="43.1009306" lon="11.6967046"><ele>449.6666666666667</ele><time>2026-04-03T13:12:48.706Z</time></trkpt><trkpt lat="43.1010912" lon="11.6967612"><ele>451.0</ele><time>2026-04-03T13:12:49.705Z</time></trkpt><trkpt lat="43.1012389" lon="11.6968465"><ele>455.0</ele><time>2026-04-03T13:12:50.706Z</time></trkpt><trkpt lat="43.1013827" lon="11.6969619"><ele>459.0</ele><time>2026-04-03T13:12:51.706Z</time></trkpt><trkpt lat="43.1015341" lon="11.6970864"><ele>463.0</ele><time>2026-04-03T13:12:52.705Z</time></trkpt><trkpt lat="43.1016858" lon="11.6972321"><ele>463.6666666666667</ele><time>2026-04-03T13:12:53.705Z</time></trkpt><trkpt lat="43.1018322" lon="11.6973881"><ele>464.33333333333337</ele><time>2026-04-03T13:12:54.706Z</time></trkpt><trkpt lat="43.1019684" lon="11.6975421"><ele>465.0</ele><time>2026-04-03T13:12:55.705Z</time></trkpt><trkpt lat="43.1020917" lon="11.6976873"><ele>469.33333333333337</ele><time>2026-04-03T13:12:56.706Z</time></trkpt><trkpt lat="43.1022044" lon="11.6978431"><ele>473.6666666666667</ele><time>2026-04-03T13:12:57.706Z</time></trkpt><trkpt lat="43.1023064" lon="11.6980173"><ele>478.0</ele><time>2026-04-03T13:12:58.705Z</time></trkpt><trkpt lat="43.1023964" lon="11.6981885"><ele>477.5</ele><time>2026-04-03T13:12:59.705Z</time></trkpt><trkpt lat="43.1024637" lon="11.6983255"><ele>477.0</ele><time>2026-04-03T13:13:00.705Z</time></trkpt><trkpt lat="43.1025277" lon="11.6984431"><ele>476.5</ele><time>2026-04-03T13:13:01.705Z</time></trkpt><trkpt lat="43.1025928" lon="11.6985609"><ele>476.0</ele><time>2026-04-03T13:13:02.706Z</time></trkpt><trkpt lat="43.10267" lon="11.6986949"><ele>476.0</ele><time>2026-04-03T13:13:03.706Z</time></trkpt><trkpt lat="43.1027581" lon="11.6988536"><ele>476.0</ele><time>2026-04-03T13:13:04.706Z</time></trkpt><trkpt lat="43.1028457" lon="11.699061"><ele>476.0</ele><time>2026-04-03T13:13:05.706Z</time></trkpt><trkpt lat="43.1029333" lon="11.6992899"><ele>476.3333333333333</ele><time>2026-04-03T13:13:06.705Z</time></trkpt><trkpt lat="43.1030213" lon="11.6995247"><ele>476.66666666666663</ele><time>2026-04-03T13:13:07.706Z</time></trkpt><trkpt lat="43.1031152" lon="11.6997445"><ele>477.0</ele><time>2026-04-03T13:13:08.706Z</time></trkpt><trkpt lat="43.1032054" lon="11.6999367"><ele>474.0</ele><time>2026-04-03T13:13:09.705Z</time></trkpt><trkpt lat="43.1032892" lon="11.7000899"><ele>471.0</ele><time>2026-04-03T13:13:10.706Z</time></trkpt><trkpt lat="43.1033668" lon="11.700225"><ele>468.0</ele><time>2026-04-03T13:13:11.706Z</time></trkpt><trkpt lat="43.1034344" lon="11.7003482"><ele>465.0</ele><time>2026-04-03T13:13:12.706Z</time></trkpt><trkpt lat="43.1035041" lon="11.7004667"><ele>465.0</ele><time>2026-04-03T13:13:13.705Z</time></trkpt><trkpt lat="43.103581" lon="11.7005864"><ele>465.0</ele><time>2026-04-03T13:13:14.705Z</time></trkpt><trkpt lat="43.1036603" lon="11.7007083"><ele>465.0</ele><time>2026-04-03T13:13:15.705Z</time></trkpt><trkpt lat="43.1037388" lon="11.700836"><ele>465.0</ele><time>2026-04-03T13:13:16.706Z</time></trkpt><trkpt lat="43.1038119" lon="11.7009652"><ele>466.25</ele><time>2026-04-03T13:13:17.705Z</time></trkpt><trkpt lat="43.1038815" lon="11.7010994"><ele>467.5</ele><time>2026-04-03T13:13:18.706Z</time></trkpt><trkpt lat="43.1039384" lon="11.7012379"><ele>468.75</ele><time>2026-04-03T13:13:19.705Z</time></trkpt><trkpt lat="43.1039809" lon="11.7013822"><ele>470.0</ele><time>2026-04-03T13:13:20.706Z</time></trkpt><trkpt lat="43.1040171" lon="11.7015287"><ele>469.99999999999994</ele><time>2026-04-03T13:13:21.706Z</time></trkpt><trkpt lat="43.1040527" lon="11.7016656"><ele>470.0</ele><time>2026-04-03T13:13:22.705Z</time></trkpt><trkpt lat="43.1040881" lon="11.701791"><ele>470.0</ele><time>2026-04-03T13:13:23.706Z</time></trkpt><trkpt lat="43.1041206" lon="11.7019054"><ele>470.0</ele><time>2026-04-03T13:13:24.706Z</time></trkpt><trkpt lat="43.1041448" lon="11.7020046"><ele>469.99999999999994</ele><time>2026-04-03T13:13:25.706Z</time></trkpt><trkpt lat="43.1041624" lon="11.7020964"><ele>470.0</ele><time>2026-04-03T13:13:26.706Z</time></trkpt><trkpt lat="43.1041684" lon="11.702186"><ele>469.99999999999994</ele><time>2026-04-03T13:13:27.706Z</time></trkpt><trkpt lat="43.104165" lon="11.7022765"><ele>470.0</ele><time>2026-04-03T13:13:28.706Z</time></trkpt><trkpt lat="43.1041555" lon="11.7023689"><ele>470.0</ele><time>2026-04-03T13:13:29.705Z</time></trkpt><trkpt lat="43.1041352" lon="11.7024612"><ele>470.0</ele><time>2026-04-03T13:13:30.706Z</time></trkpt><trkpt lat="43.1041011" lon="11.7025431"><ele>469.99999999999994</ele><time>2026-04-03T13:13:31.706Z</time></trkpt><trkpt lat="43.1040382" lon="11.7026808"><ele>470.0</ele><time>2026-04-03T13:13:33.706Z</time></trkpt><trkpt lat="43.1039899" lon="11.7027642"><ele>470.6</ele><time>2026-04-03T13:13:34.705Z</time></trkpt><trkpt lat="43.1039344" lon="11.702852"><ele>471.2</ele><time>2026-04-03T13:13:35.705Z</time></trkpt><trkpt lat="43.1038778" lon="11.7029459"><ele>471.79999999999995</ele><time>2026-04-03T13:13:36.706Z</time></trkpt><trkpt lat="43.1038108" lon="11.7030487"><ele>472.4</ele><time>2026-04-03T13:13:37.706Z</time></trkpt><trkpt lat="43.1037503" lon="11.7031528"><ele>473.0</ele><time>2026-04-03T13:13:38.706Z</time></trkpt><trkpt lat="43.1036972" lon="11.7032499"><ele>473.0</ele><time>2026-04-03T13:13:39.706Z</time></trkpt><trkpt lat="43.1036484" lon="11.7033731"><ele>472.99999999999994</ele><time>2026-04-03T13:13:40.706Z</time></trkpt><trkpt lat="43.1035978" lon="11.7035103"><ele>472.99999999999994</ele><time>2026-04-03T13:13:41.706Z</time></trkpt><trkpt lat="43.1035855" lon="11.7036538"><ele>473.0</ele><time>2026-04-03T13:13:42.705Z</time></trkpt><trkpt lat="43.103535" lon="11.7037985"><ele>473.0</ele><time>2026-04-03T13:13:43.705Z</time></trkpt><trkpt lat="43.1035003" lon="11.7039524"><ele>473.59999999999997</ele><time>2026-04-03T13:13:44.706Z</time></trkpt><trkpt lat="43.1034862" lon="11.7040992"><ele>474.19999999999993</ele><time>2026-04-03T13:13:45.706Z</time></trkpt><trkpt lat="43.1034907" lon="11.7042344"><ele>474.8</ele><time>2026-04-03T13:13:46.705Z</time></trkpt><trkpt lat="43.1035223" lon="11.7043553"><ele>475.4</ele><time>2026-04-03T13:13:47.705Z</time></trkpt><trkpt lat="43.1035729" lon="11.7044472"><ele>476.0</ele><time>2026-04-03T13:13:48.706Z</time></trkpt><trkpt lat="43.1036302" lon="11.704515"><ele>474.8333333333333</ele><time>2026-04-03T13:13:49.706Z</time></trkpt><trkpt lat="43.103697" lon="11.7045575"><ele>473.66666666666663</ele><time>2026-04-03T13:13:50.705Z</time></trkpt><trkpt lat="43.1037737" lon="11.7045794"><ele>472.5</ele><time>2026-04-03T13:13:51.706Z</time></trkpt><trkpt lat="43.1038537" lon="11.704585"><ele>471.33333333333337</ele><time>2026-04-03T13:13:52.706Z</time></trkpt><trkpt lat="43.1039477" lon="11.7046183"><ele>470.1666666666667</ele><time>2026-04-03T13:13:53.705Z</time></trkpt><trkpt lat="43.1040441" lon="11.7046395"><ele>469.0</ele><time>2026-04-03T13:13:54.706Z</time></trkpt><trkpt lat="43.104149" lon="11.7046588"><ele>473.0</ele><time>2026-04-03T13:13:55.706Z</time></trkpt><trkpt lat="43.1042562" lon="11.7046882"><ele>477.0</ele><time>2026-04-03T13:13:56.705Z</time></trkpt><trkpt lat="43.1043847" lon="11.7047607"><ele>481.0</ele><time>2026-04-03T13:13:57.706Z</time></trkpt><trkpt lat="43.1045093" lon="11.7048289"><ele>485.0</ele><time>2026-04-03T13:13:58.706Z</time></trkpt><trkpt lat="43.1046419" lon="11.70494"><ele>485.0</ele><time>2026-04-03T13:13:59.706Z</time></trkpt><trkpt lat="43.1047676" lon="11.7050895"><ele>485.0</ele><time>2026-04-03T13:14:00.705Z</time></trkpt><trkpt lat="43.1048801" lon="11.705217"><ele>485.0</ele><time>2026-04-03T13:14:01.705Z</time></trkpt><trkpt lat="43.1049874" lon="11.7053666"><ele>486.3333333333333</ele><time>2026-04-03T13:14:02.705Z</time></trkpt><trkpt lat="43.1050939" lon="11.7055335"><ele>487.66666666666663</ele><time>2026-04-03T13:14:03.706Z</time></trkpt><trkpt lat="43.1051875" lon="11.7057013"><ele>489.0</ele><time>2026-04-03T13:14:04.706Z</time></trkpt><trkpt lat="43.1052673" lon="11.7058699"><ele>489.0</ele><time>2026-04-03T13:14:05.706Z</time></trkpt><trkpt lat="43.1053493" lon="11.7060317"><ele>489.0</ele><time>2026-04-03T13:14:06.706Z</time></trkpt><trkpt lat="43.1054422" lon="11.7061931"><ele>489.0</ele><time>2026-04-03T13:14:07.706Z</time></trkpt><trkpt lat="43.1055534" lon="11.7063491"><ele>486.0</ele><time>2026-04-03T13:14:08.706Z</time></trkpt><trkpt lat="43.1056889" lon="11.7064853"><ele>483.0</ele><time>2026-04-03T13:14:09.706Z</time></trkpt><trkpt lat="43.1058347" lon="11.7065874"><ele>480.0</ele><time>2026-04-03T13:14:10.705Z</time></trkpt><trkpt lat="43.1059857" lon="11.7066731"><ele>482.0</ele><time>2026-04-03T13:14:11.706Z</time></trkpt><trkpt lat="43.106128" lon="11.7067445"><ele>484.0</ele><time>2026-04-03T13:14:12.706Z</time></trkpt><trkpt lat="43.1062638" lon="11.7068296"><ele>486.0</ele><time>2026-04-03T13:14:13.706Z</time></trkpt><trkpt lat="43.1063863" lon="11.7069429"><ele>488.0</ele><time>2026-04-03T13:14:14.706Z</time></trkpt><trkpt lat="43.1064973" lon="11.7070723"><ele>489.5</ele><time>2026-04-03T13:14:15.705Z</time></trkpt><trkpt lat="43.1066013" lon="11.7072082"><ele>491.0</ele><time>2026-04-03T13:14:16.705Z</time></trkpt><trkpt lat="43.1067019" lon="11.7073483"><ele>492.5</ele><time>2026-04-03T13:14:17.706Z</time></trkpt><trkpt lat="43.1067934" lon="11.707488"><ele>494.0</ele><time>2026-04-03T13:14:18.706Z</time></trkpt><trkpt lat="43.1068708" lon="11.7076369"><ele>494.25</ele><time>2026-04-03T13:14:19.706Z</time></trkpt><trkpt lat="43.1069272" lon="11.7078037"><ele>494.5</ele><time>2026-04-03T13:14:20.706Z</time></trkpt><trkpt lat="43.1069474" lon="11.7079913"><ele>494.75</ele><time>2026-04-03T13:14:21.705Z</time></trkpt><trkpt lat="43.1069361" lon="11.7081764"><ele>495.0</ele><time>2026-04-03T13:14:22.705Z</time></trkpt><trkpt lat="43.1068975" lon="11.7083427"><ele>495.0</ele><time>2026-04-03T13:14:23.706Z</time></trkpt><trkpt lat="43.1068331" lon="11.7084702"><ele>495.0</ele><time>2026-04-03T13:14:24.706Z</time></trkpt><trkpt lat="43.1067437" lon="11.7085639"><ele>495.0</ele><time>2026-04-03T13:14:25.706Z</time></trkpt><trkpt lat="43.1066466" lon="11.7086667"><ele>495.0</ele><time>2026-04-03T13:14:26.705Z</time></trkpt><trkpt lat="43.1065497" lon="11.7087753"><ele>494.5</ele><time>2026-04-03T13:14:27.705Z</time></trkpt><trkpt lat="43.1064637" lon="11.7089174"><ele>494.0</ele><time>2026-04-03T13:14:28.706Z</time></trkpt><trkpt lat="43.1064091" lon="11.7090903"><ele>493.5</ele><time>2026-04-03T13:14:29.706Z</time></trkpt><trkpt lat="43.1063901" lon="11.709283"><ele>493.0</ele><time>2026-04-03T13:14:30.706Z</time></trkpt><trkpt lat="43.1063885" lon="11.7094829"><ele>493.0</ele><time>2026-04-03T13:14:31.705Z</time></trkpt><trkpt lat="43.1063945" lon="11.7097017"><ele>493.0</ele><time>2026-04-03T13:14:32.706Z</time></trkpt><trkpt lat="43.1063961" lon="11.7099245"><ele>493.0</ele><time>2026-04-03T13:14:33.705Z</time></trkpt><trkpt lat="43.106382" lon="11.7101645"><ele>496.0</ele><time>2026-04-03T13:14:34.706Z</time></trkpt><trkpt lat="43.1063585" lon="11.7104097"><ele>499.0</ele><time>2026-04-03T13:14:35.706Z</time></trkpt><trkpt lat="43.1063067" lon="11.710652"><ele>502.0</ele><time>2026-04-03T13:14:36.706Z</time></trkpt><trkpt lat="43.1062248" lon="11.7108865"><ele>504.0</ele><time>2026-04-03T13:14:37.706Z</time></trkpt><trkpt lat="43.1061381" lon="11.7111068"><ele>506.0</ele><time>2026-04-03T13:14:38.706Z</time></trkpt><trkpt lat="43.1060465" lon="11.7113206"><ele>508.0</ele><time>2026-04-03T13:14:39.706Z</time></trkpt><trkpt lat="43.1059556" lon="11.7115373"><ele>508.0</ele><time>2026-04-03T13:14:40.706Z</time></trkpt><trkpt lat="43.1058742" lon="11.7117578"><ele>508.0</ele><time>2026-04-03T13:14:41.705Z</time></trkpt><trkpt lat="43.1058047" lon="11.7119684"><ele>508.0</ele><time>2026-04-03T13:14:42.705Z</time></trkpt><trkpt lat="43.1057478" lon="11.7121784"><ele>507.0</ele><time>2026-04-03T13:14:43.705Z</time></trkpt><trkpt lat="43.105703" lon="11.712365"><ele>506.0</ele><time>2026-04-03T13:14:44.706Z</time></trkpt><trkpt lat="43.1056595" lon="11.7125465"><ele>505.0</ele><time>2026-04-03T13:14:45.705Z</time></trkpt><trkpt lat="43.1056084" lon="11.7127317"><ele>504.0</ele><time>2026-04-03T13:14:46.706Z</time></trkpt><trkpt lat="43.1055543" lon="11.7129131"><ele>501.66666666666663</ele><time>2026-04-03T13:14:47.706Z</time></trkpt><trkpt lat="43.10551" lon="11.7131038"><ele>499.3333333333333</ele><time>2026-04-03T13:14:48.705Z</time></trkpt><trkpt lat="43.1054893" lon="11.7133333"><ele>497.0</ele><time>2026-04-03T13:14:49.706Z</time></trkpt><trkpt lat="43.1054738" lon="11.7136021"><ele>497.0</ele><time>2026-04-03T13:14:50.706Z</time></trkpt><trkpt lat="43.1054474" lon="11.7139027"><ele>497.0</ele><time>2026-04-03T13:14:51.706Z</time></trkpt><trkpt lat="43.1054236" lon="11.7141992"><ele>497.0</ele><time>2026-04-03T13:14:52.705Z</time></trkpt><trkpt lat="43.1054077" lon="11.7144588"><ele>498.5</ele><time>2026-04-03T13:14:53.705Z</time></trkpt><trkpt lat="43.1053757" lon="11.7149128"><ele>500.0</ele><time>2026-04-03T13:14:55.706Z</time></trkpt><trkpt lat="43.1053648" lon="11.7151272"><ele>500.25</ele><time>2026-04-03T13:14:56.705Z</time></trkpt><trkpt lat="43.1053585" lon="11.715327"><ele>500.5</ele><time>2026-04-03T13:14:57.705Z</time></trkpt><trkpt lat="43.105362" lon="11.7155179"><ele>500.75</ele><time>2026-04-03T13:14:58.706Z</time></trkpt><trkpt lat="43.1053774" lon="11.7156855"><ele>501.0</ele><time>2026-04-03T13:14:59.706Z</time></trkpt><trkpt lat="43.1054158" lon="11.7158375"><ele>501.0</ele><time>2026-04-03T13:15:00.705Z</time></trkpt><trkpt lat="43.1054813" lon="11.7159772"><ele>501.0</ele><time>2026-04-03T13:15:01.706Z</time></trkpt><trkpt lat="43.1055909" lon="11.7161728"><ele>501.0</ele><time>2026-04-03T13:15:02.705Z</time></trkpt><trkpt lat="43.1057342" lon="11.7163727"><ele>501.0</ele><time>2026-04-03T13:15:03.706Z</time></trkpt><trkpt lat="43.1059071" lon="11.7165965"><ele>501.0</ele><time>2026-04-03T13:15:04.706Z</time></trkpt><trkpt lat="43.1060841" lon="11.7168438"><ele>500.5</ele><time>2026-04-03T13:15:05.706Z</time></trkpt><trkpt lat="43.106254" lon="11.7170862"><ele>500.0</ele><time>2026-04-03T13:15:06.706Z</time></trkpt><trkpt lat="43.106414" lon="11.7173134"><ele>500.0</ele><time>2026-04-03T13:15:07.705Z</time></trkpt><trkpt lat="43.1065691" lon="11.7175313"><ele>500.0</ele><time>2026-04-03T13:15:08.705Z</time></trkpt><trkpt lat="43.1067292" lon="11.7177456"><ele>500.0</ele><time>2026-04-03T13:15:09.706Z</time></trkpt><trkpt lat="43.1068774" lon="11.7179537"><ele>498.3333333333333</ele><time>2026-04-03T13:15:10.706Z</time></trkpt><trkpt lat="43.1070024" lon="11.7181761"><ele>496.66666666666663</ele><time>2026-04-03T13:15:11.706Z</time></trkpt><trkpt lat="43.1071208" lon="11.7184217"><ele>495.0</ele><time>2026-04-03T13:15:12.706Z</time></trkpt><trkpt lat="43.1072446" lon="11.7186695"><ele>494.5</ele><time>2026-04-03T13:15:13.705Z</time></trkpt><trkpt lat="43.1073727" lon="11.7189287"><ele>494.0</ele><time>2026-04-03T13:15:14.706Z</time></trkpt><trkpt lat="43.1075018" lon="11.7191849"><ele>494.0</ele><time>2026-04-03T13:15:15.706Z</time></trkpt><trkpt lat="43.1076308" lon="11.7194495"><ele>494.0</ele><time>2026-04-03T13:15:16.706Z</time></trkpt><trkpt lat="43.1077582" lon="11.7197124"><ele>494.0</ele><time>2026-04-03T13:15:17.706Z</time></trkpt><trkpt lat="43.1078923" lon="11.719973"><ele>494.0</ele><time>2026-04-03T13:15:18.705Z</time></trkpt><trkpt lat="43.1080278" lon="11.7202315"><ele>494.0</ele><time>2026-04-03T13:15:19.706Z</time></trkpt><trkpt lat="43.1081622" lon="11.7204816"><ele>494.0</ele><time>2026-04-03T13:15:20.706Z</time></trkpt><trkpt lat="43.1082876" lon="11.7207176"><ele>494.0</ele><time>2026-04-03T13:15:21.705Z</time></trkpt><trkpt lat="43.1083905" lon="11.7209505"><ele>495.3333333333333</ele><time>2026-04-03T13:15:22.706Z</time></trkpt><trkpt lat="43.1084776" lon="11.7211741"><ele>496.66666666666663</ele><time>2026-04-03T13:15:23.705Z</time></trkpt><trkpt lat="43.1085502" lon="11.7213939"><ele>498.0</ele><time>2026-04-03T13:15:24.705Z</time></trkpt><trkpt lat="43.1086153" lon="11.7216005"><ele>498.0</ele><time>2026-04-03T13:15:25.705Z</time></trkpt><trkpt lat="43.1086674" lon="11.7217914"><ele>498.0</ele><time>2026-04-03T13:15:26.706Z</time></trkpt><trkpt lat="43.1087106" lon="11.7219727"><ele>498.0</ele><time>2026-04-03T13:15:27.706Z</time></trkpt><trkpt lat="43.1087474" lon="11.7221356"><ele>498.0</ele><time>2026-04-03T13:15:28.706Z</time></trkpt><trkpt lat="43.1087828" lon="11.7222727"><ele>497.4</ele><time>2026-04-03T13:15:29.706Z</time></trkpt><trkpt lat="43.1088142" lon="11.7224059"><ele>496.79999999999995</ele><time>2026-04-03T13:15:30.705Z</time></trkpt><trkpt lat="43.1088391" lon="11.7225501"><ele>496.2</ele><time>2026-04-03T13:15:31.706Z</time></trkpt><trkpt lat="43.1088534" lon="11.7226984"><ele>495.6</ele><time>2026-04-03T13:15:32.706Z</time></trkpt><trkpt lat="43.1088512" lon="11.7228641"><ele>495.0</ele><time>2026-04-03T13:15:33.706Z</time></trkpt><trkpt lat="43.1088292" lon="11.7230288"><ele>494.25</ele><time>2026-04-03T13:15:34.706Z</time></trkpt><trkpt lat="43.1087929" lon="11.7231862"><ele>493.5</ele><time>2026-04-03T13:15:35.706Z</time></trkpt><trkpt lat="43.1087459" lon="11.7233408"><ele>492.75</ele><time>2026-04-03T13:15:36.706Z</time></trkpt><trkpt lat="43.1086736" lon="11.7234837"><ele>492.0</ele><time>2026-04-03T13:15:37.705Z</time></trkpt><trkpt lat="43.1085807" lon="11.7236183"><ele>490.75</ele><time>2026-04-03T13:15:38.705Z</time></trkpt><trkpt lat="43.1084826" lon="11.7237379"><ele>489.5</ele><time>2026-04-03T13:15:39.706Z</time></trkpt><trkpt lat="43.108379" lon="11.7238293"><ele>488.25</ele><time>2026-04-03T13:15:40.706Z</time></trkpt><trkpt lat="43.1082701" lon="11.723894"><ele>487.0</ele><time>2026-04-03T13:15:41.706Z</time></trkpt><trkpt lat="43.1081524" lon="11.7239427"><ele>487.0</ele><time>2026-04-03T13:15:42.705Z</time></trkpt><trkpt lat="43.1080124" lon="11.7239722"><ele>487.0</ele><time>2026-04-03T13:15:43.705Z</time></trkpt><trkpt lat="43.1078424" lon="11.7239882"><ele>487.0</ele><time>2026-04-03T13:15:44.706Z</time></trkpt><trkpt lat="43.1076421" lon="11.7239858"><ele>487.0</ele><time>2026-04-03T13:15:45.704Z</time></trkpt><trkpt lat="43.1074109" lon="11.7239726"><ele>487.0</ele><time>2026-04-03T13:15:46.705Z</time></trkpt><trkpt lat="43.1071533" lon="11.7239565"><ele>487.5</ele><time>2026-04-03T13:15:47.705Z</time></trkpt><trkpt lat="43.1068804" lon="11.7239482"><ele>488.0</ele><time>2026-04-03T13:15:48.704Z</time></trkpt><trkpt lat="43.1066299" lon="11.7239459"><ele>489.0</ele><time>2026-04-03T13:15:49.704Z</time></trkpt><trkpt lat="43.1063922" lon="11.7239345"><ele>490.0</ele><time>2026-04-03T13:15:50.705Z</time></trkpt><trkpt lat="43.1061568" lon="11.7238968"><ele>490.0</ele><time>2026-04-03T13:15:51.705Z</time></trkpt><trkpt lat="43.1059243" lon="11.7238286"><ele>490.0</ele><time>2026-04-03T13:15:52.704Z</time></trkpt><trkpt lat="43.1056962" lon="11.7237264"><ele>490.33333333333337</ele><time>2026-04-03T13:15:53.705Z</time></trkpt><trkpt lat="43.1054837" lon="11.7236266"><ele>490.66666666666663</ele><time>2026-04-03T13:15:54.704Z</time></trkpt><trkpt lat="43.1053017" lon="11.7235391"><ele>491.0</ele><time>2026-04-03T13:15:55.705Z</time></trkpt><trkpt lat="43.1051254" lon="11.7234712"><ele>491.0</ele><time>2026-04-03T13:15:56.704Z</time></trkpt><trkpt lat="43.1049468" lon="11.7234305"><ele>491.0</ele><time>2026-04-03T13:15:57.705Z</time></trkpt><trkpt lat="43.1047546" lon="11.723422"><ele>491.0</ele><time>2026-04-03T13:15:58.705Z</time></trkpt><trkpt lat="43.1045518" lon="11.7234168"><ele>489.5</ele><time>2026-04-03T13:15:59.705Z</time></trkpt><trkpt lat="43.1043332" lon="11.7234096"><ele>488.0</ele><time>2026-04-03T13:16:00.704Z</time></trkpt><trkpt lat="43.1041021" lon="11.7234023"><ele>486.5</ele><time>2026-04-03T13:16:01.704Z</time></trkpt><trkpt lat="43.1038611" lon="11.7233992"><ele>485.0</ele><time>2026-04-03T13:16:02.705Z</time></trkpt><trkpt lat="43.1036126" lon="11.7233951"><ele>485.0</ele><time>2026-04-03T13:16:03.705Z</time></trkpt><trkpt lat="43.1033233" lon="11.7234048"><ele>485.0</ele><time>2026-04-03T13:16:04.705Z</time></trkpt><trkpt lat="43.1030471" lon="11.723429"><ele>485.66666666666663</ele><time>2026-04-03T13:16:05.704Z</time></trkpt><trkpt lat="43.1028146" lon="11.723437"><ele>486.33333333333337</ele><time>2026-04-03T13:16:06.704Z</time></trkpt><trkpt lat="43.1026152" lon="11.7234445"><ele>487.0</ele><time>2026-04-03T13:16:07.705Z</time></trkpt><trkpt lat="43.1024402" lon="11.7234568"><ele>487.6666666666667</ele><time>2026-04-03T13:16:08.704Z</time></trkpt><trkpt lat="43.1022868" lon="11.7235058"><ele>488.33333333333337</ele><time>2026-04-03T13:16:09.705Z</time></trkpt><trkpt lat="43.1021472" lon="11.7235941"><ele>489.0</ele><time>2026-04-03T13:16:10.704Z</time></trkpt><trkpt lat="43.1020071" lon="11.7237519"><ele>487.0</ele><time>2026-04-03T13:16:11.705Z</time></trkpt><trkpt lat="43.1018894" lon="11.7239632"><ele>485.0</ele><time>2026-04-03T13:16:12.705Z</time></trkpt><trkpt lat="43.1017846" lon="11.7242047"><ele>483.0</ele><time>2026-04-03T13:16:13.705Z</time></trkpt><trkpt lat="43.1016813" lon="11.7244718"><ele>486.0</ele><time>2026-04-03T13:16:14.704Z</time></trkpt><trkpt lat="43.1015808" lon="11.7247502"><ele>489.0</ele><time>2026-04-03T13:16:15.705Z</time></trkpt><trkpt lat="43.1014905" lon="11.7250532"><ele>491.5</ele><time>2026-04-03T13:16:16.705Z</time></trkpt><trkpt lat="43.1014103" lon="11.7253661"><ele>494.0</ele><time>2026-04-03T13:16:17.705Z</time></trkpt><trkpt lat="43.1013377" lon="11.725675"><ele>494.0</ele><time>2026-04-03T13:16:18.705Z</time></trkpt><trkpt lat="43.1012663" lon="11.7259882"><ele>494.0</ele><time>2026-04-03T13:16:19.705Z</time></trkpt><trkpt lat="43.1011988" lon="11.7262993"><ele>493.5</ele><time>2026-04-03T13:16:20.704Z</time></trkpt><trkpt lat="43.1011344" lon="11.7266071"><ele>493.0</ele><time>2026-04-03T13:16:21.704Z</time></trkpt><trkpt lat="43.1010664" lon="11.7269122"><ele>493.0</ele><time>2026-04-03T13:16:22.705Z</time></trkpt><trkpt lat="43.1009902" lon="11.7272131"><ele>493.0</ele><time>2026-04-03T13:16:23.705Z</time></trkpt><trkpt lat="43.1009061" lon="11.7275121"><ele>493.0</ele><time>2026-04-03T13:16:24.705Z</time></trkpt><trkpt lat="43.1008149" lon="11.7278056"><ele>493.0</ele><time>2026-04-03T13:16:25.704Z</time></trkpt><trkpt lat="43.1007122" lon="11.7280898"><ele>493.0</ele><time>2026-04-03T13:16:26.705Z</time></trkpt><trkpt lat="43.1006081" lon="11.7283587"><ele>493.0</ele><time>2026-04-03T13:16:27.705Z</time></trkpt><trkpt lat="43.100497" lon="11.7286194"><ele>493.0</ele><time>2026-04-03T13:16:28.705Z</time></trkpt><trkpt lat="43.1003837" lon="11.7288821"><ele>491.0</ele><time>2026-04-03T13:16:29.704Z</time></trkpt><trkpt lat="43.1002623" lon="11.7291483"><ele>489.0</ele><time>2026-04-03T13:16:30.704Z</time></trkpt><trkpt lat="43.100134" lon="11.729422"><ele>486.5</ele><time>2026-04-03T13:16:31.705Z</time></trkpt><trkpt lat="43.0999969" lon="11.7296967"><ele>484.0</ele><time>2026-04-03T13:16:32.705Z</time></trkpt><trkpt lat="43.0998512" lon="11.7299793"><ele>482.5</ele><time>2026-04-03T13:16:33.705Z</time></trkpt><trkpt lat="43.0996995" lon="11.730263"><ele>481.0</ele><time>2026-04-03T13:16:34.704Z</time></trkpt><trkpt lat="43.0995404" lon="11.7305457"><ele>481.0</ele><time>2026-04-03T13:16:35.705Z</time></trkpt><trkpt lat="43.0993874" lon="11.7308175"><ele>481.0</ele><time>2026-04-03T13:16:36.705Z</time></trkpt><trkpt lat="43.0992351" lon="11.7311027"><ele>481.0</ele><time>2026-04-03T13:16:37.705Z</time></trkpt><trkpt lat="43.0990885" lon="11.7313639"><ele>481.0</ele><time>2026-04-03T13:16:38.704Z</time></trkpt><trkpt lat="43.0989508" lon="11.7316082"><ele>481.0</ele><time>2026-04-03T13:16:39.704Z</time></trkpt><trkpt lat="43.0988175" lon="11.7318399"><ele>481.0</ele><time>2026-04-03T13:16:40.705Z</time></trkpt><trkpt lat="43.0986743" lon="11.7320837"><ele>481.0</ele><time>2026-04-03T13:16:41.704Z</time></trkpt><trkpt lat="43.0985678" lon="11.7323189"><ele>483.6666666666667</ele><time>2026-04-03T13:16:42.705Z</time></trkpt><trkpt lat="43.0984891" lon="11.7325721"><ele>486.33333333333337</ele><time>2026-04-03T13:16:43.705Z</time></trkpt><trkpt lat="43.0984461" lon="11.7328337"><ele>489.0</ele><time>2026-04-03T13:16:44.705Z</time></trkpt><trkpt lat="43.0984211" lon="11.7331032"><ele>490.0</ele><time>2026-04-03T13:16:45.704Z</time></trkpt><trkpt lat="43.0983945" lon="11.7333734"><ele>491.0</ele><time>2026-04-03T13:16:46.705Z</time></trkpt><trkpt lat="43.0983825" lon="11.7336527"><ele>492.0</ele><time>2026-04-03T13:16:47.705Z</time></trkpt><trkpt lat="43.0983677" lon="11.7339278"><ele>493.33333333333337</ele><time>2026-04-03T13:16:48.704Z</time></trkpt><trkpt lat="43.098353" lon="11.7342009"><ele>494.6666666666667</ele><time>2026-04-03T13:16:49.704Z</time></trkpt><trkpt lat="43.0983358" lon="11.7344705"><ele>496.0</ele><time>2026-04-03T13:16:50.705Z</time></trkpt><trkpt lat="43.098338" lon="11.7347431"><ele>496.6666666666667</ele><time>2026-04-03T13:16:51.705Z</time></trkpt><trkpt lat="43.098372" lon="11.7350169"><ele>497.33333333333337</ele><time>2026-04-03T13:16:52.705Z</time></trkpt><trkpt lat="43.0984231" lon="11.7352894"><ele>498.0</ele><time>2026-04-03T13:16:53.704Z</time></trkpt><trkpt lat="43.0984757" lon="11.7355429"><ele>499.0</ele><time>2026-04-03T13:16:54.705Z</time></trkpt><trkpt lat="43.0985166" lon="11.7358044"><ele>500.0</ele><time>2026-04-03T13:16:55.704Z</time></trkpt><trkpt lat="43.0985248" lon="11.7360679"><ele>501.0</ele><time>2026-04-03T13:16:56.705Z</time></trkpt><trkpt lat="43.0985231" lon="11.736337"><ele>501.0</ele><time>2026-04-03T13:16:57.705Z</time></trkpt><trkpt lat="43.0985329" lon="11.7366094"><ele>501.0</ele><time>2026-04-03T13:16:58.705Z</time></trkpt><trkpt lat="43.0985641" lon="11.7368869"><ele>501.0</ele><time>2026-04-03T13:16:59.705Z</time></trkpt><trkpt lat="43.0985765" lon="11.7371681"><ele>500.33333333333337</ele><time>2026-04-03T13:17:00.704Z</time></trkpt><trkpt lat="43.0986025" lon="11.7374497"><ele>499.6666666666667</ele><time>2026-04-03T13:17:01.705Z</time></trkpt><trkpt lat="43.0986484" lon="11.7376991"><ele>499.0</ele><time>2026-04-03T13:17:02.705Z</time></trkpt><trkpt lat="43.0987239" lon="11.7379247"><ele>498.33333333333337</ele><time>2026-04-03T13:17:03.705Z</time></trkpt><trkpt lat="43.0988001" lon="11.7381284"><ele>497.66666666666663</ele><time>2026-04-03T13:17:04.705Z</time></trkpt><trkpt lat="43.0988632" lon="11.7383431"><ele>497.0</ele><time>2026-04-03T13:17:05.705Z</time></trkpt><trkpt lat="43.0989072" lon="11.7385541"><ele>496.5</ele><time>2026-04-03T13:17:06.704Z</time></trkpt><trkpt lat="43.0989354" lon="11.7387579"><ele>496.0</ele><time>2026-04-03T13:17:07.705Z</time></trkpt><trkpt lat="43.0989093" lon="11.7391657"><ele>496.0</ele><time>2026-04-03T13:17:09.705Z</time></trkpt><trkpt lat="43.0988393" lon="11.739375"><ele>496.0</ele><time>2026-04-03T13:17:10.704Z</time></trkpt><trkpt lat="43.0987549" lon="11.7395907"><ele>496.0</ele><time>2026-04-03T13:17:11.705Z</time></trkpt><trkpt lat="43.0986824" lon="11.7398097"><ele>496.0</ele><time>2026-04-03T13:17:12.705Z</time></trkpt><trkpt lat="43.0986487" lon="11.7400444"><ele>496.0</ele><time>2026-04-03T13:17:13.704Z</time></trkpt><trkpt lat="43.0986497" lon="11.7402834"><ele>496.0</ele><time>2026-04-03T13:17:14.705Z</time></trkpt><trkpt lat="43.0986746" lon="11.740559"><ele>496.0</ele><time>2026-04-03T13:17:15.704Z</time></trkpt><trkpt lat="43.0987012" lon="11.7408242"><ele>496.0</ele><time>2026-04-03T13:17:16.704Z</time></trkpt><trkpt lat="43.0987339" lon="11.7410753"><ele>496.0</ele><time>2026-04-03T13:17:17.705Z</time></trkpt><trkpt lat="43.098772" lon="11.7412899"><ele>496.6666666666667</ele><time>2026-04-03T13:17:18.705Z</time></trkpt><trkpt lat="43.0988552" lon="11.7414634"><ele>497.33333333333337</ele><time>2026-04-03T13:17:19.704Z</time></trkpt><trkpt lat="43.0989867" lon="11.7415992"><ele>498.0</ele><time>2026-04-03T13:17:20.704Z</time></trkpt><trkpt lat="43.0991498" lon="11.7416819"><ele>499.33333333333337</ele><time>2026-04-03T13:17:21.705Z</time></trkpt><trkpt lat="43.0993393" lon="11.741742"><ele>500.6666666666667</ele><time>2026-04-03T13:17:22.705Z</time></trkpt><trkpt lat="43.0995224" lon="11.7418384"><ele>502.0</ele><time>2026-04-03T13:17:23.705Z</time></trkpt><trkpt lat="43.0997163" lon="11.7419811"><ele>503.0</ele><time>2026-04-03T13:17:24.705Z</time></trkpt><trkpt lat="43.0999142" lon="11.7421638"><ele>504.0</ele><time>2026-04-03T13:17:25.705Z</time></trkpt><trkpt lat="43.100117" lon="11.7423988"><ele>504.0</ele><time>2026-04-03T13:17:26.705Z</time></trkpt><trkpt lat="43.1002903" lon="11.7426692"><ele>504.0</ele><time>2026-04-03T13:17:27.705Z</time></trkpt><trkpt lat="43.1004532" lon="11.7428523"><ele>506.0</ele><time>2026-04-03T13:17:28.705Z</time></trkpt><trkpt lat="43.1005803" lon="11.7430262"><ele>508.0</ele><time>2026-04-03T13:17:29.704Z</time></trkpt><trkpt lat="43.1006749" lon="11.7432187"><ele>510.0</ele><time>2026-04-03T13:17:30.704Z</time></trkpt><trkpt lat="43.1007399" lon="11.7434405"><ele>509.0</ele><time>2026-04-03T13:17:31.704Z</time></trkpt><trkpt lat="43.1007747" lon="11.7436999"><ele>508.0</ele><time>2026-04-03T13:17:32.705Z</time></trkpt><trkpt lat="43.1007711" lon="11.7439917"><ele>507.0</ele><time>2026-04-03T13:17:33.704Z</time></trkpt><trkpt lat="43.1007515" lon="11.7443139"><ele>508.0</ele><time>2026-04-03T13:17:34.705Z</time></trkpt><trkpt lat="43.1007332" lon="11.7446198"><ele>509.0</ele><time>2026-04-03T13:17:35.705Z</time></trkpt><trkpt lat="43.1007234" lon="11.7448925"><ele>510.0</ele><time>2026-04-03T13:17:36.705Z</time></trkpt><trkpt lat="43.1007102" lon="11.7451218"><ele>509.5</ele><time>2026-04-03T13:17:37.705Z</time></trkpt><trkpt lat="43.1006769" lon="11.7453205"><ele>509.0</ele><time>2026-04-03T13:17:38.704Z</time></trkpt><trkpt lat="43.1006044" lon="11.7454622"><ele>508.5</ele><time>2026-04-03T13:17:39.705Z</time></trkpt><trkpt lat="43.1004908" lon="11.7455735"><ele>508.0</ele><time>2026-04-03T13:17:40.705Z</time></trkpt><trkpt lat="43.1003543" lon="11.745635"><ele>508.0</ele><time>2026-04-03T13:17:41.705Z</time></trkpt><trkpt lat="43.1001977" lon="11.7456662"><ele>508.0</ele><time>2026-04-03T13:17:42.705Z</time></trkpt><trkpt lat="43.1000359" lon="11.7456834"><ele>508.0</ele><time>2026-04-03T13:17:43.704Z</time></trkpt><trkpt lat="43.0997552" lon="11.7458197"><ele>510.0</ele><time>2026-04-03T13:17:45.705Z</time></trkpt><trkpt lat="43.0996432" lon="11.7459585"><ele>512.0</ele><time>2026-04-03T13:17:46.705Z</time></trkpt><trkpt lat="43.0995478" lon="11.7461499"><ele>514.0</ele><time>2026-04-03T13:17:47.704Z</time></trkpt><trkpt lat="43.0994677" lon="11.7463838"><ele>514.3333333333334</ele><time>2026-04-03T13:17:48.705Z</time></trkpt><trkpt lat="43.0993917" lon="11.7466089"><ele>514.6666666666666</ele><time>2026-04-03T13:17:49.704Z</time></trkpt><trkpt lat="43.0993179" lon="11.7467988"><ele>515.0</ele><time>2026-04-03T13:17:50.705Z</time></trkpt><trkpt lat="43.0992288" lon="11.7469698"><ele>516.0</ele><time>2026-04-03T13:17:51.705Z</time></trkpt><trkpt lat="43.0990997" lon="11.7471191"><ele>517.0</ele><time>2026-04-03T13:17:52.704Z</time></trkpt><trkpt lat="43.0989305" lon="11.74728"><ele>518.0</ele><time>2026-04-03T13:17:53.705Z</time></trkpt><trkpt lat="43.0987359" lon="11.7474481"><ele>518.0</ele><time>2026-04-03T13:17:54.705Z</time></trkpt><trkpt lat="43.0985348" lon="11.7476247"><ele>518.0</ele><time>2026-04-03T13:17:55.705Z</time></trkpt><trkpt lat="43.098335" lon="11.7478187"><ele>519.0</ele><time>2026-04-03T13:17:56.705Z</time></trkpt><trkpt lat="43.0981584" lon="11.7480131"><ele>520.0</ele><time>2026-04-03T13:17:57.705Z</time></trkpt><trkpt lat="43.0980017" lon="11.748194"><ele>521.0</ele><time>2026-04-03T13:17:58.705Z</time></trkpt><trkpt lat="43.0978689" lon="11.7483672"><ele>521.0</ele><time>2026-04-03T13:17:59.705Z</time></trkpt><trkpt lat="43.097737" lon="11.7485257"><ele>521.0</ele><time>2026-04-03T13:18:00.705Z</time></trkpt><trkpt lat="43.0976024" lon="11.7486665"><ele>521.0</ele><time>2026-04-03T13:18:01.705Z</time></trkpt><trkpt lat="43.0974557" lon="11.7487747"><ele>516.3333333333333</ele><time>2026-04-03T13:18:02.704Z</time></trkpt><trkpt lat="43.0972911" lon="11.7488429"><ele>511.66666666666663</ele><time>2026-04-03T13:18:03.704Z</time></trkpt><trkpt lat="43.0971077" lon="11.7488705"><ele>507.0</ele><time>2026-04-03T13:18:04.705Z</time></trkpt><trkpt lat="43.0969105" lon="11.7488755"><ele>507.0</ele><time>2026-04-03T13:18:05.705Z</time></trkpt><trkpt lat="43.0967129" lon="11.7488847"><ele>507.0</ele><time>2026-04-03T13:18:06.705Z</time></trkpt><trkpt lat="43.096516" lon="11.7489471"><ele>507.0</ele><time>2026-04-03T13:18:07.705Z</time></trkpt><trkpt lat="43.0963325" lon="11.7490402"><ele>508.33333333333337</ele><time>2026-04-03T13:18:08.705Z</time></trkpt><trkpt lat="43.0961659" lon="11.7491182"><ele>509.6666666666667</ele><time>2026-04-03T13:18:09.705Z</time></trkpt><trkpt lat="43.0960221" lon="11.7491954"><ele>511.0</ele><time>2026-04-03T13:18:10.704Z</time></trkpt><trkpt lat="43.0958958" lon="11.7492886"><ele>511.0</ele><time>2026-04-03T13:18:11.705Z</time></trkpt><trkpt lat="43.0957863" lon="11.7494353"><ele>511.0</ele><time>2026-04-03T13:18:12.705Z</time></trkpt><trkpt lat="43.0956999" lon="11.7496102"><ele>511.0</ele><time>2026-04-03T13:18:13.705Z</time></trkpt><trkpt lat="43.0956121" lon="11.7497837"><ele>511.0</ele><time>2026-04-03T13:18:14.705Z</time></trkpt><trkpt lat="43.0954961" lon="11.74992"><ele>511.0</ele><time>2026-04-03T13:18:15.705Z</time></trkpt><trkpt lat="43.0953392" lon="11.7500214"><ele>511.0</ele><time>2026-04-03T13:18:16.704Z</time></trkpt><trkpt lat="43.0951783" lon="11.7500941"><ele>512.0</ele><time>2026-04-03T13:18:17.705Z</time></trkpt><trkpt lat="43.0950317" lon="11.7502138"><ele>513.0</ele><time>2026-04-03T13:18:18.705Z</time></trkpt><trkpt lat="43.0948867" lon="11.7503891"><ele>514.0</ele><time>2026-04-03T13:18:19.704Z</time></trkpt><trkpt lat="43.0947615" lon="11.7505828"><ele>514.0</ele><time>2026-04-03T13:18:20.704Z</time></trkpt><trkpt lat="43.0946708" lon="11.7507664"><ele>514.0</ele><time>2026-04-03T13:18:21.704Z</time></trkpt><trkpt lat="43.0946148" lon="11.7509563"><ele>514.0</ele><time>2026-04-03T13:18:22.705Z</time></trkpt><trkpt lat="43.0945645" lon="11.7511518"><ele>508.33333333333337</ele><time>2026-04-03T13:18:23.705Z</time></trkpt><trkpt lat="43.0945253" lon="11.7513483"><ele>502.66666666666663</ele><time>2026-04-03T13:18:24.705Z</time></trkpt><trkpt lat="43.0944696" lon="11.7515388"><ele>497.0</ele><time>2026-04-03T13:18:25.704Z</time></trkpt><trkpt lat="43.0943825" lon="11.7517085"><ele>497.0</ele><time>2026-04-03T13:18:26.704Z</time></trkpt><trkpt lat="43.094256" lon="11.7518441"><ele>497.0</ele><time>2026-04-03T13:18:27.705Z</time></trkpt><trkpt lat="43.0940976" lon="11.7519357"><ele>497.0</ele><time>2026-04-03T13:18:28.705Z</time></trkpt><trkpt lat="43.0939228" lon="11.7520031"><ele>494.3333333333333</ele><time>2026-04-03T13:18:29.705Z</time></trkpt><trkpt lat="43.0937144" lon="11.7520685"><ele>491.66666666666663</ele><time>2026-04-03T13:18:30.704Z</time></trkpt><trkpt lat="43.0934897" lon="11.7521591"><ele>489.0</ele><time>2026-04-03T13:18:31.705Z</time></trkpt><trkpt lat="43.0932622" lon="11.75227"><ele>492.66666666666663</ele><time>2026-04-03T13:18:32.705Z</time></trkpt><trkpt lat="43.0930473" lon="11.7523841"><ele>496.3333333333333</ele><time>2026-04-03T13:18:33.705Z</time></trkpt><trkpt lat="43.0928463" lon="11.7524855"><ele>500.0</ele><time>2026-04-03T13:18:34.705Z</time></trkpt><trkpt lat="43.092644" lon="11.7526178"><ele>496.5</ele><time>2026-04-03T13:18:35.705Z</time></trkpt><trkpt lat="43.0924489" lon="11.7527804"><ele>493.0</ele><time>2026-04-03T13:18:36.704Z</time></trkpt><trkpt lat="43.0922434" lon="11.7529713"><ele>493.0</ele><time>2026-04-03T13:18:37.704Z</time></trkpt><trkpt lat="43.0920353" lon="11.7531839"><ele>493.0</ele><time>2026-04-03T13:18:38.705Z</time></trkpt><trkpt lat="43.0918423" lon="11.753386"><ele>491.0</ele><time>2026-04-03T13:18:39.705Z</time></trkpt><trkpt lat="43.091674" lon="11.7535731"><ele>489.0</ele><time>2026-04-03T13:18:40.705Z</time></trkpt><trkpt lat="43.0915247" lon="11.7537456"><ele>487.0</ele><time>2026-04-03T13:18:41.705Z</time></trkpt><trkpt lat="43.091363" lon="11.7538959"><ele>487.0</ele><time>2026-04-03T13:18:42.704Z</time></trkpt><trkpt lat="43.0911837" lon="11.7540072"><ele>487.0</ele><time>2026-04-03T13:18:43.705Z</time></trkpt><trkpt lat="43.0909547" lon="11.7540861"><ele>487.0</ele><time>2026-04-03T13:18:44.704Z</time></trkpt><trkpt lat="43.0906955" lon="11.7541509"><ele>489.5</ele><time>2026-04-03T13:18:45.705Z</time></trkpt><trkpt lat="43.0904281" lon="11.754211"><ele>492.0</ele><time>2026-04-03T13:18:46.705Z</time></trkpt><trkpt lat="43.0899752" lon="11.7543379"><ele>491.66666666666663</ele><time>2026-04-03T13:18:48.705Z</time></trkpt><trkpt lat="43.0897837" lon="11.754425"><ele>491.3333333333333</ele><time>2026-04-03T13:18:49.705Z</time></trkpt><trkpt lat="43.0896174" lon="11.7545551"><ele>491.0</ele><time>2026-04-03T13:18:50.705Z</time></trkpt><trkpt lat="43.0894725" lon="11.7547314"><ele>491.0</ele><time>2026-04-03T13:18:51.705Z</time></trkpt><trkpt lat="43.0893343" lon="11.7549588"><ele>491.0</ele><time>2026-04-03T13:18:52.705Z</time></trkpt><trkpt lat="43.0891955" lon="11.7552134"><ele>491.0</ele><time>2026-04-03T13:18:53.704Z</time></trkpt><trkpt lat="43.0890732" lon="11.7554439"><ele>491.3333333333333</ele><time>2026-04-03T13:18:54.704Z</time></trkpt><trkpt lat="43.0889666" lon="11.7556562"><ele>491.66666666666663</ele><time>2026-04-03T13:18:55.704Z</time></trkpt><trkpt lat="43.0888627" lon="11.7558557"><ele>492.0</ele><time>2026-04-03T13:18:56.705Z</time></trkpt><trkpt lat="43.0887598" lon="11.7560441"><ele>489.33333333333337</ele><time>2026-04-03T13:18:57.705Z</time></trkpt><trkpt lat="43.0886576" lon="11.7562233"><ele>486.6666666666667</ele><time>2026-04-03T13:18:58.705Z</time></trkpt><trkpt lat="43.0885389" lon="11.7564041"><ele>484.0</ele><time>2026-04-03T13:18:59.704Z</time></trkpt><trkpt lat="43.0884029" lon="11.7565784"><ele>485.33333333333337</ele><time>2026-04-03T13:19:00.704Z</time></trkpt><trkpt lat="43.0882527" lon="11.756752"><ele>486.66666666666663</ele><time>2026-04-03T13:19:01.705Z</time></trkpt><trkpt lat="43.0881014" lon="11.756929"><ele>488.0</ele><time>2026-04-03T13:19:02.705Z</time></trkpt><trkpt lat="43.0879496" lon="11.7571073"><ele>488.0</ele><time>2026-04-03T13:19:03.705Z</time></trkpt><trkpt lat="43.0878077" lon="11.7572764"><ele>488.0</ele><time>2026-04-03T13:19:04.705Z</time></trkpt><trkpt lat="43.0876849" lon="11.7574426"><ele>488.0</ele><time>2026-04-03T13:19:05.704Z</time></trkpt><trkpt lat="43.0875877" lon="11.7575989"><ele>487.5</ele><time>2026-04-03T13:19:06.705Z</time></trkpt><trkpt lat="43.0875014" lon="11.7577619"><ele>487.0</ele><time>2026-04-03T13:19:07.704Z</time></trkpt><trkpt lat="43.0874165" lon="11.7579256"><ele>486.5</ele><time>2026-04-03T13:19:08.704Z</time></trkpt><trkpt lat="43.0873305" lon="11.7580872"><ele>486.0</ele><time>2026-04-03T13:19:09.705Z</time></trkpt><trkpt lat="43.0872455" lon="11.7582534"><ele>487.25</ele><time>2026-04-03T13:19:10.704Z</time></trkpt><trkpt lat="43.087157" lon="11.7584163"><ele>488.5</ele><time>2026-04-03T13:19:11.704Z</time></trkpt><trkpt lat="43.087066" lon="11.7585775"><ele>489.75</ele><time>2026-04-03T13:19:12.704Z</time></trkpt><trkpt lat="43.0869801" lon="11.7587333"><ele>491.0</ele><time>2026-04-03T13:19:13.705Z</time></trkpt><trkpt lat="43.0868948" lon="11.7588889"><ele>491.0</ele><time>2026-04-03T13:19:14.704Z</time></trkpt><trkpt lat="43.0868166" lon="11.759049"><ele>491.0</ele><time>2026-04-03T13:19:15.705Z</time></trkpt><trkpt lat="43.0867439" lon="11.7591969"><ele>491.0</ele><time>2026-04-03T13:19:16.704Z</time></trkpt><trkpt lat="43.0866803" lon="11.7593414"><ele>491.0</ele><time>2026-04-03T13:19:17.705Z</time></trkpt><trkpt lat="43.0866248" lon="11.7594935"><ele>490.75</ele><time>2026-04-03T13:19:18.705Z</time></trkpt><trkpt lat="43.0865774" lon="11.7596514"><ele>490.5</ele><time>2026-04-03T13:19:19.704Z</time></trkpt><trkpt lat="43.08654" lon="11.7598084"><ele>490.25</ele><time>2026-04-03T13:19:20.705Z</time></trkpt><trkpt lat="43.086513" lon="11.7599518"><ele>490.0</ele><time>2026-04-03T13:19:21.705Z</time></trkpt><trkpt lat="43.08651" lon="11.760085"><ele>489.8</ele><time>2026-04-03T13:19:22.704Z</time></trkpt><trkpt lat="43.0865167" lon="11.7602199"><ele>489.6</ele><time>2026-04-03T13:19:23.705Z</time></trkpt><trkpt lat="43.0865372" lon="11.7603557"><ele>489.4</ele><time>2026-04-03T13:19:24.704Z</time></trkpt><trkpt lat="43.0865586" lon="11.7604872"><ele>489.2</ele><time>2026-04-03T13:19:25.705Z</time></trkpt><trkpt lat="43.0865831" lon="11.7606156"><ele>489.0</ele><time>2026-04-03T13:19:26.704Z</time></trkpt><trkpt lat="43.0866203" lon="11.7607492"><ele>489.25</ele><time>2026-04-03T13:19:27.705Z</time></trkpt><trkpt lat="43.0866578" lon="11.7608957"><ele>489.5</ele><time>2026-04-03T13:19:28.704Z</time></trkpt><trkpt lat="43.0867021" lon="11.7610679"><ele>489.75</ele><time>2026-04-03T13:19:29.705Z</time></trkpt><trkpt lat="43.0867536" lon="11.7612638"><ele>490.0</ele><time>2026-04-03T13:19:30.705Z</time></trkpt><trkpt lat="43.0868069" lon="11.7614768"><ele>490.0</ele><time>2026-04-03T13:19:31.704Z</time></trkpt><trkpt lat="43.0868571" lon="11.7616947"><ele>490.0</ele><time>2026-04-03T13:19:32.705Z</time></trkpt><trkpt lat="43.0869018" lon="11.7619247"><ele>490.0</ele><time>2026-04-03T13:19:33.705Z</time></trkpt><trkpt lat="43.0869223" lon="11.7621688"><ele>490.0</ele><time>2026-04-03T13:19:34.705Z</time></trkpt><trkpt lat="43.0869257" lon="11.7624326"><ele>490.0</ele><time>2026-04-03T13:19:35.705Z</time></trkpt><trkpt lat="43.086922" lon="11.7627282"><ele>490.0</ele><time>2026-04-03T13:19:36.705Z</time></trkpt><trkpt lat="43.0869178" lon="11.7630691"><ele>490.0</ele><time>2026-04-03T13:19:37.704Z</time></trkpt><trkpt lat="43.0868946" lon="11.76343"><ele>490.0</ele><time>2026-04-03T13:19:38.705Z</time></trkpt><trkpt lat="43.0868524" lon="11.7638056"><ele>491.0</ele><time>2026-04-03T13:19:39.705Z</time></trkpt><trkpt lat="43.0868075" lon="11.7641967"><ele>492.0</ele><time>2026-04-03T13:19:40.704Z</time></trkpt><trkpt lat="43.0867589" lon="11.7645935"><ele>494.0</ele><time>2026-04-03T13:19:41.705Z</time></trkpt><trkpt lat="43.0867134" lon="11.7649899"><ele>496.0</ele><time>2026-04-03T13:19:42.705Z</time></trkpt><trkpt lat="43.08667" lon="11.7653904"><ele>496.5</ele><time>2026-04-03T13:19:43.705Z</time></trkpt><trkpt lat="43.0866208" lon="11.7657985"><ele>497.0</ele><time>2026-04-03T13:19:44.705Z</time></trkpt><trkpt lat="43.0865743" lon="11.7662159"><ele>497.0</ele><time>2026-04-03T13:19:45.705Z</time></trkpt><trkpt lat="43.0865262" lon="11.7666457"><ele>497.0</ele><time>2026-04-03T13:19:46.705Z</time></trkpt><trkpt lat="43.0864779" lon="11.7670828"><ele>499.0</ele><time>2026-04-03T13:19:47.705Z</time></trkpt><trkpt lat="43.0864344" lon="11.7675168"><ele>501.0</ele><time>2026-04-03T13:19:48.704Z</time></trkpt><trkpt lat="43.0864019" lon="11.7679111"><ele>503.0</ele><time>2026-04-03T13:19:49.704Z</time></trkpt><trkpt lat="43.0863665" lon="11.7682244"><ele>505.0</ele><time>2026-04-03T13:19:50.705Z</time></trkpt><trkpt lat="43.0863378" lon="11.7684798"><ele>507.0</ele><time>2026-04-03T13:19:51.705Z</time></trkpt><trkpt lat="43.0863157" lon="11.7686976"><ele>508.0</ele><time>2026-04-03T13:19:52.705Z</time></trkpt><trkpt lat="43.0863074" lon="11.7688756"><ele>509.0</ele><time>2026-04-03T13:19:53.704Z</time></trkpt><trkpt lat="43.0863186" lon="11.7690764"><ele>510.0</ele><time>2026-04-03T13:19:54.705Z</time></trkpt><trkpt lat="43.0863376" lon="11.7692874"><ele>511.0</ele><time>2026-04-03T13:19:55.704Z</time></trkpt><trkpt lat="43.0863678" lon="11.7695184"><ele>512.0</ele><time>2026-04-03T13:19:56.705Z</time></trkpt><trkpt lat="43.0864095" lon="11.769787"><ele>513.0</ele><time>2026-04-03T13:19:57.705Z</time></trkpt><trkpt lat="43.0864386" lon="11.7700783"><ele>514.0</ele><time>2026-04-03T13:19:58.705Z</time></trkpt><trkpt lat="43.0864548" lon="11.7703914"><ele>517.0</ele><time>2026-04-03T13:19:59.704Z</time></trkpt><trkpt lat="43.08647" lon="11.7707179"><ele>520.0</ele><time>2026-04-03T13:20:00.705Z</time></trkpt><trkpt lat="43.0864914" lon="11.7710304"><ele>522.0</ele><time>2026-04-03T13:20:01.705Z</time></trkpt><trkpt lat="43.0865134" lon="11.7713186"><ele>524.0</ele><time>2026-04-03T13:20:02.704Z</time></trkpt><trkpt lat="43.0865253" lon="11.7715841"><ele>526.0</ele><time>2026-04-03T13:20:03.705Z</time></trkpt><trkpt lat="43.0865261" lon="11.7718375"><ele>525.6666666666667</ele><time>2026-04-03T13:20:04.705Z</time></trkpt><trkpt lat="43.0865089" lon="11.7720886"><ele>525.3333333333334</ele><time>2026-04-03T13:20:05.705Z</time></trkpt><trkpt lat="43.086484" lon="11.7723367"><ele>525.0</ele><time>2026-04-03T13:20:06.704Z</time></trkpt><trkpt lat="43.0864677" lon="11.772568"><ele>523.0</ele><time>2026-04-03T13:20:07.705Z</time></trkpt><trkpt lat="43.0864704" lon="11.7727936"><ele>521.0</ele><time>2026-04-03T13:20:08.704Z</time></trkpt><trkpt lat="43.0864843" lon="11.7730215"><ele>519.0</ele><time>2026-04-03T13:20:09.705Z</time></trkpt><trkpt lat="43.0865342" lon="11.7732596"><ele>517.0</ele><time>2026-04-03T13:20:10.705Z</time></trkpt><trkpt lat="43.0866099" lon="11.7735061"><ele>515.0</ele><time>2026-04-03T13:20:11.705Z</time></trkpt><trkpt lat="43.086697" lon="11.7737701"><ele>513.0</ele><time>2026-04-03T13:20:12.705Z</time></trkpt><trkpt lat="43.0867892" lon="11.7740373"><ele>513.0</ele><time>2026-04-03T13:20:13.705Z</time></trkpt><trkpt lat="43.0868849" lon="11.7743073"><ele>513.0</ele><time>2026-04-03T13:20:14.704Z</time></trkpt><trkpt lat="43.086973" lon="11.7745718"><ele>513.0</ele><time>2026-04-03T13:20:15.705Z</time></trkpt><trkpt lat="43.0870502" lon="11.7748175"><ele>511.33333333333337</ele><time>2026-04-03T13:20:16.705Z</time></trkpt><trkpt lat="43.0871123" lon="11.7750447"><ele>509.6666666666667</ele><time>2026-04-03T13:20:17.704Z</time></trkpt><trkpt lat="43.0871676" lon="11.7752598"><ele>508.0</ele><time>2026-04-03T13:20:18.704Z</time></trkpt><trkpt lat="43.0872183" lon="11.775451"><ele>507.59999999999997</ele><time>2026-04-03T13:20:19.705Z</time></trkpt><trkpt lat="43.0872559" lon="11.775612"><ele>507.19999999999993</ele><time>2026-04-03T13:20:20.705Z</time></trkpt><trkpt lat="43.0872805" lon="11.7757452"><ele>506.8</ele><time>2026-04-03T13:20:21.705Z</time></trkpt><trkpt lat="43.0872948" lon="11.7758527"><ele>506.4</ele><time>2026-04-03T13:20:22.704Z</time></trkpt><trkpt lat="43.0873021" lon="11.775962"><ele>506.0</ele><time>2026-04-03T13:20:24.705Z</time></trkpt><trkpt lat="43.0873173" lon="11.7761246"><ele>505.6</ele><time>2026-04-03T13:20:27.704Z</time></trkpt><trkpt lat="43.0873841" lon="11.7762663"><ele>505.20000000000005</ele><time>2026-04-03T13:20:29.705Z</time></trkpt><trkpt lat="43.0874205" lon="11.7764137"><ele>504.79999999999995</ele><time>2026-04-03T13:20:31.704Z</time></trkpt><trkpt lat="43.0874335" lon="11.7765234"><ele>504.4</ele><time>2026-04-03T13:20:33.705Z</time></trkpt><trkpt lat="43.0874566" lon="11.7766674"><ele>504.0</ele><time>2026-04-03T13:20:35.705Z</time></trkpt><trkpt lat="43.0874814" lon="11.7768304"><ele>505.4</ele><time>2026-04-03T13:20:37.705Z</time></trkpt><trkpt lat="43.0874988" lon="11.7769164"><ele>506.79999999999995</ele><time>2026-04-03T13:20:38.704Z</time></trkpt><trkpt lat="43.0875203" lon="11.7770064"><ele>508.20000000000005</ele><time>2026-04-03T13:20:39.705Z</time></trkpt><trkpt lat="43.0875593" lon="11.7771167"><ele>509.6</ele><time>2026-04-03T13:20:40.705Z</time></trkpt><trkpt lat="43.0876164" lon="11.7772786"><ele>511.0</ele><time>2026-04-03T13:20:41.704Z</time></trkpt><trkpt lat="43.0876724" lon="11.7774888"><ele>509.33333333333337</ele><time>2026-04-03T13:20:42.705Z</time></trkpt><trkpt lat="43.0877279" lon="11.7777084"><ele>507.66666666666663</ele><time>2026-04-03T13:20:43.705Z</time></trkpt><trkpt lat="43.0877821" lon="11.7779572"><ele>506.0</ele><time>2026-04-03T13:20:44.704Z</time></trkpt><trkpt lat="43.0878157" lon="11.7782141"><ele>506.0</ele><time>2026-04-03T13:20:45.705Z</time></trkpt><trkpt lat="43.0878503" lon="11.7784571"><ele>506.0</ele><time>2026-04-03T13:20:46.705Z</time></trkpt><trkpt lat="43.0879062" lon="11.7786965"><ele>506.0</ele><time>2026-04-03T13:20:47.705Z</time></trkpt><trkpt lat="43.0880012" lon="11.7789361"><ele>502.5</ele><time>2026-04-03T13:20:48.705Z</time></trkpt><trkpt lat="43.0881337" lon="11.7791707"><ele>499.0</ele><time>2026-04-03T13:20:49.704Z</time></trkpt><trkpt lat="43.088309" lon="11.7794054"><ele>506.5</ele><time>2026-04-03T13:20:50.705Z</time></trkpt><trkpt lat="43.0885113" lon="11.7796718"><ele>514.0</ele><time>2026-04-03T13:20:51.704Z</time></trkpt><trkpt lat="43.0887083" lon="11.7799552"><ele>508.5</ele><time>2026-04-03T13:20:52.704Z</time></trkpt><trkpt lat="43.0888806" lon="11.7802265"><ele>503.0</ele><time>2026-04-03T13:20:53.704Z</time></trkpt><trkpt lat="43.0890258" lon="11.7804953"><ele>512.0</ele><time>2026-04-03T13:20:54.704Z</time></trkpt><trkpt lat="43.0891508" lon="11.7807801"><ele>521.0</ele><time>2026-04-03T13:20:55.704Z</time></trkpt><trkpt lat="43.0892461" lon="11.7810709"><ele>521.0</ele><time>2026-04-03T13:20:56.704Z</time></trkpt><trkpt lat="43.0893133" lon="11.7813397"><ele>521.0</ele><time>2026-04-03T13:20:57.705Z</time></trkpt><trkpt lat="43.0893421" lon="11.7815864"><ele>521.0</ele><time>2026-04-03T13:20:58.704Z</time></trkpt><trkpt lat="43.0893466" lon="11.7818238"><ele>517.0</ele><time>2026-04-03T13:20:59.705Z</time></trkpt><trkpt lat="43.0893564" lon="11.7820237"><ele>513.0</ele><time>2026-04-03T13:21:00.704Z</time></trkpt><trkpt lat="43.0893955" lon="11.7821923"><ele>509.0</ele><time>2026-04-03T13:21:01.705Z</time></trkpt><trkpt lat="43.0894281" lon="11.7823166"><ele>505.0</ele><time>2026-04-03T13:21:02.705Z</time></trkpt><trkpt lat="43.0894647" lon="11.78244"><ele>505.00000000000006</ele><time>2026-04-03T13:21:04.705Z</time></trkpt><trkpt lat="43.089549" lon="11.7825148"><ele>505.0</ele><time>2026-04-03T13:21:06.704Z</time></trkpt><trkpt lat="43.0896087" lon="11.7825583"><ele>505.0</ele><time>2026-04-03T13:21:07.704Z</time></trkpt><trkpt lat="43.0897059" lon="11.7826328"><ele>505.0</ele><time>2026-04-03T13:21:09.704Z</time></trkpt><trkpt lat="43.0897802" lon="11.7826628"><ele>505.00000000000006</ele><time>2026-04-03T13:21:11.705Z</time></trkpt><trkpt lat="43.0898616" lon="11.7826162"><ele>505.0</ele><time>2026-04-03T13:26:13.704Z</time></trkpt><trkpt lat="43.0899276" lon="11.7825808"><ele>505.4</ele><time>2026-04-03T13:26:15.703Z</time></trkpt><trkpt lat="43.0900057" lon="11.7825797"><ele>505.8</ele><time>2026-04-03T13:26:16.704Z</time></trkpt><trkpt lat="43.0900999" lon="11.7825897"><ele>506.20000000000005</ele><time>2026-04-03T13:26:17.704Z</time></trkpt><trkpt lat="43.090206" lon="11.7826088"><ele>506.6</ele><time>2026-04-03T13:26:18.704Z</time></trkpt><trkpt lat="43.0903206" lon="11.7826435"><ele>507.0</ele><time>2026-04-03T13:26:19.704Z</time></trkpt><trkpt lat="43.0904415" lon="11.7826944"><ele>507.0</ele><time>2026-04-03T13:26:20.704Z</time></trkpt><trkpt lat="43.0905756" lon="11.7827719"><ele>507.0</ele><time>2026-04-03T13:26:21.704Z</time></trkpt><trkpt lat="43.0907252" lon="11.7828928"><ele>507.0</ele><time>2026-04-03T13:26:22.704Z</time></trkpt><trkpt lat="43.0908813" lon="11.7830209"><ele>512.3333333333334</ele><time>2026-04-03T13:26:23.704Z</time></trkpt><trkpt lat="43.0910304" lon="11.7831385"><ele>517.6666666666667</ele><time>2026-04-03T13:26:24.703Z</time></trkpt><trkpt lat="43.0911799" lon="11.783242"><ele>523.0</ele><time>2026-04-03T13:26:25.704Z</time></trkpt><trkpt lat="43.0913377" lon="11.7833318"><ele>523.0</ele><time>2026-04-03T13:26:26.704Z</time></trkpt><trkpt lat="43.0915055" lon="11.7833899"><ele>523.0</ele><time>2026-04-03T13:26:27.704Z</time></trkpt><trkpt lat="43.0916718" lon="11.783442"><ele>523.0</ele><time>2026-04-03T13:26:28.703Z</time></trkpt><trkpt lat="43.0918203" lon="11.7835084"><ele>523.0</ele><time>2026-04-03T13:26:29.704Z</time></trkpt><trkpt lat="43.0919553" lon="11.7835822"><ele>523.0</ele><time>2026-04-03T13:26:30.704Z</time></trkpt><trkpt lat="43.0922051" lon="11.7837305"><ele>523.0</ele><time>2026-04-03T13:26:32.704Z</time></trkpt><trkpt lat="43.0923213" lon="11.7838012"><ele>524.0</ele><time>2026-04-03T13:26:33.704Z</time></trkpt><trkpt lat="43.0924446" lon="11.7838682"><ele>525.0</ele><time>2026-04-03T13:26:34.703Z</time></trkpt><trkpt lat="43.092577" lon="11.783923"><ele>526.0</ele><time>2026-04-03T13:26:35.704Z</time></trkpt><trkpt lat="43.0927087" lon="11.7839632"><ele>527.0</ele><time>2026-04-03T13:26:36.704Z</time></trkpt><trkpt lat="43.0928393" lon="11.7839913"><ele>527.0</ele><time>2026-04-03T13:26:37.704Z</time></trkpt><trkpt lat="43.0929772" lon="11.7839933"><ele>527.0</ele><time>2026-04-03T13:26:38.703Z</time></trkpt><trkpt lat="43.0931059" lon="11.7839533"><ele>527.0</ele><time>2026-04-03T13:26:39.703Z</time></trkpt><trkpt lat="43.0932256" lon="11.7838923"><ele>527.0</ele><time>2026-04-03T13:26:40.704Z</time></trkpt><trkpt lat="43.0933291" lon="11.7838149"><ele>526.4</ele><time>2026-04-03T13:26:41.704Z</time></trkpt><trkpt lat="43.0934155" lon="11.783727"><ele>525.8000000000001</ele><time>2026-04-03T13:26:42.704Z</time></trkpt><trkpt lat="43.0934936" lon="11.7836387"><ele>525.2</ele><time>2026-04-03T13:26:43.703Z</time></trkpt><trkpt lat="43.0935611" lon="11.7835604"><ele>524.6</ele><time>2026-04-03T13:26:44.704Z</time></trkpt><trkpt lat="43.0936259" lon="11.7834873"><ele>524.0</ele><time>2026-04-03T13:26:45.704Z</time></trkpt><trkpt lat="43.0936904" lon="11.7834096"><ele>526.2</ele><time>2026-04-03T13:26:46.704Z</time></trkpt><trkpt lat="43.0937579" lon="11.7833316"><ele>528.4</ele><time>2026-04-03T13:26:47.704Z</time></trkpt><trkpt lat="43.0938257" lon="11.7832493"><ele>530.6</ele><time>2026-04-03T13:26:48.704Z</time></trkpt><trkpt lat="43.093913" lon="11.7831969"><ele>532.8</ele><time>2026-04-03T13:26:49.703Z</time></trkpt><trkpt lat="43.0940126" lon="11.7831777"><ele>535.0</ele><time>2026-04-03T13:26:50.704Z</time></trkpt><trkpt lat="43.0941041" lon="11.7831946"><ele>535.0</ele><time>2026-04-03T13:26:51.704Z</time></trkpt><trkpt lat="43.0941939" lon="11.7832317"><ele>535.0</ele><time>2026-04-03T13:26:52.703Z</time></trkpt><trkpt lat="43.094295" lon="11.7832826"><ele>535.0</ele><time>2026-04-03T13:26:53.704Z</time></trkpt><trkpt lat="43.0943886" lon="11.7833475"><ele>535.0</ele><time>2026-04-03T13:26:54.703Z</time></trkpt><trkpt lat="43.0944779" lon="11.7834157"><ele>535.0</ele><time>2026-04-03T13:26:55.703Z</time></trkpt><trkpt lat="43.0945716" lon="11.7834953"><ele>535.4</ele><time>2026-04-03T13:26:56.704Z</time></trkpt><trkpt lat="43.0946663" lon="11.7835834"><ele>535.8</ele><time>2026-04-03T13:26:57.703Z</time></trkpt><trkpt lat="43.0947552" lon="11.7836712"><ele>536.2</ele><time>2026-04-03T13:26:58.703Z</time></trkpt><trkpt lat="43.0948236" lon="11.7837638"><ele>536.6</ele><time>2026-04-03T13:26:59.704Z</time></trkpt><trkpt lat="43.0948917" lon="11.7838534"><ele>537.0</ele><time>2026-04-03T13:27:00.704Z</time></trkpt><trkpt lat="43.0949548" lon="11.7839474"><ele>537.0</ele><time>2026-04-03T13:27:01.703Z</time></trkpt><trkpt lat="43.0950104" lon="11.7840351"><ele>537.0</ele><time>2026-04-03T13:27:02.704Z</time></trkpt><trkpt lat="43.0950481" lon="11.7841306"><ele>537.0</ele><time>2026-04-03T13:27:03.704Z</time></trkpt><trkpt lat="43.0950804" lon="11.78422"><ele>537.0</ele><time>2026-04-03T13:27:04.703Z</time></trkpt><trkpt lat="43.0951115" lon="11.7843113"><ele>537.0</ele><time>2026-04-03T13:27:05.704Z</time></trkpt><trkpt lat="43.0951125" lon="11.7844233"><ele>537.0</ele><time>2026-04-03T13:27:06.703Z</time></trkpt><trkpt lat="43.095123" lon="11.7845509"><ele>536.0</ele><time>2026-04-03T13:27:07.703Z</time></trkpt><trkpt lat="43.0951438" lon="11.7846986"><ele>535.0</ele><time>2026-04-03T13:27:08.703Z</time></trkpt><trkpt lat="43.0951626" lon="11.7848231"><ele>534.0</ele><time>2026-04-03T13:27:09.704Z</time></trkpt><trkpt lat="43.0951783" lon="11.7849496"><ele>533.0</ele><time>2026-04-03T13:27:10.703Z</time></trkpt><trkpt lat="43.0952023" lon="11.7850564"><ele>532.0</ele><time>2026-04-03T13:27:11.704Z</time></trkpt><trkpt lat="43.0952442" lon="11.7851539"><ele>530.6</ele><time>2026-04-03T13:27:12.703Z</time></trkpt><trkpt lat="43.0953036" lon="11.7852489"><ele>529.2</ele><time>2026-04-03T13:27:13.703Z</time></trkpt><trkpt lat="43.0953791" lon="11.7853351"><ele>527.8</ele><time>2026-04-03T13:27:14.704Z</time></trkpt><trkpt lat="43.0954499" lon="11.7854228"><ele>526.4</ele><time>2026-04-03T13:27:15.703Z</time></trkpt><trkpt lat="43.0955228" lon="11.7855061"><ele>525.0</ele><time>2026-04-03T13:27:16.704Z</time></trkpt><trkpt lat="43.0956017" lon="11.785586"><ele>525.0</ele><time>2026-04-03T13:27:17.704Z</time></trkpt><trkpt lat="43.0956904" lon="11.7856679"><ele>525.0</ele><time>2026-04-03T13:27:18.704Z</time></trkpt><trkpt lat="43.0957743" lon="11.7857422"><ele>525.0</ele><time>2026-04-03T13:27:19.704Z</time></trkpt><trkpt lat="43.0958576" lon="11.785811"><ele>525.0</ele><time>2026-04-03T13:27:20.704Z</time></trkpt><trkpt lat="43.0959475" lon="11.7858832"><ele>525.0</ele><time>2026-04-03T13:27:21.704Z</time></trkpt><trkpt lat="43.0960367" lon="11.7859566"><ele>522.2</ele><time>2026-04-03T13:27:22.704Z</time></trkpt><trkpt lat="43.0961214" lon="11.7860245"><ele>519.4</ele><time>2026-04-03T13:27:23.704Z</time></trkpt><trkpt lat="43.0961834" lon="11.7860895"><ele>516.6</ele><time>2026-04-03T13:27:24.704Z</time></trkpt><trkpt lat="43.0962832" lon="11.786174"><ele>513.8</ele><time>2026-04-03T13:27:26.704Z</time></trkpt><trkpt lat="43.0963723" lon="11.7862534"><ele>511.0</ele><time>2026-04-03T13:27:28.704Z</time></trkpt><trkpt lat="43.096473" lon="11.7863344"><ele>511.0</ele><time>2026-04-03T13:27:30.703Z</time></trkpt><trkpt lat="43.0965314" lon="11.786378"><ele>511.0</ele><time>2026-04-03T13:27:31.704Z</time></trkpt><trkpt lat="43.0965917" lon="11.7864287"><ele>511.0</ele><time>2026-04-03T13:27:32.703Z</time></trkpt><trkpt lat="43.0966541" lon="11.7864783"><ele>511.0</ele><time>2026-04-03T13:27:33.703Z</time></trkpt><trkpt lat="43.0967105" lon="11.7865247"><ele>511.0</ele><time>2026-04-03T13:27:34.704Z</time></trkpt><trkpt lat="43.0967707" lon="11.7865726"><ele>511.0</ele><time>2026-04-03T13:27:35.703Z</time></trkpt><trkpt lat="43.0968326" lon="11.7866163"><ele>511.0</ele><time>2026-04-03T13:27:36.704Z</time></trkpt><trkpt lat="43.0968941" lon="11.7866612"><ele>512.0</ele><time>2026-04-03T13:27:37.704Z</time></trkpt><trkpt lat="43.096963" lon="11.7866986"><ele>513.0</ele><time>2026-04-03T13:27:38.704Z</time></trkpt><trkpt lat="43.0970325" lon="11.7867386"><ele>514.0</ele><time>2026-04-03T13:27:39.703Z</time></trkpt><trkpt lat="43.0971087" lon="11.7867582"><ele>515.0</ele><time>2026-04-03T13:27:40.703Z</time></trkpt><trkpt lat="43.0971912" lon="11.7867629"><ele>516.0</ele><time>2026-04-03T13:27:41.703Z</time></trkpt><trkpt lat="43.0972843" lon="11.7867496"><ele>517.0</ele><time>2026-04-03T13:27:42.703Z</time></trkpt><trkpt lat="43.0973775" lon="11.7867295"><ele>517.0</ele><time>2026-04-03T13:27:43.703Z</time></trkpt><trkpt lat="43.09746" lon="11.7866923"><ele>517.0</ele><time>2026-04-03T13:27:44.703Z</time></trkpt><trkpt lat="43.0975277" lon="11.78665"><ele>517.0</ele><time>2026-04-03T13:27:45.704Z</time></trkpt><trkpt lat="43.0975983" lon="11.7866049"><ele>517.0</ele><time>2026-04-03T13:27:46.703Z</time></trkpt><trkpt lat="43.097663" lon="11.7865597"><ele>517.0</ele><time>2026-04-03T13:27:47.704Z</time></trkpt><trkpt lat="43.0977224" lon="11.7865068"><ele>517.0</ele><time>2026-04-03T13:27:48.704Z</time></trkpt><trkpt lat="43.0978238" lon="11.7863946"><ele>517.0</ele><time>2026-04-03T13:27:50.704Z</time></trkpt><trkpt lat="43.0978735" lon="11.7863315"><ele>517.0</ele><time>2026-04-03T13:27:51.704Z</time></trkpt><trkpt lat="43.0979239" lon="11.7862613"><ele>517.0</ele><time>2026-04-03T13:27:52.704Z</time></trkpt><trkpt lat="43.0979536" lon="11.7861741"><ele>517.0</ele><time>2026-04-03T13:27:53.704Z</time></trkpt><trkpt lat="43.097971" lon="11.7860819"><ele>517.0</ele><time>2026-04-03T13:27:54.704Z</time></trkpt><trkpt lat="43.0980061" lon="11.7859441"><ele>517.0</ele><time>2026-04-03T13:27:56.704Z</time></trkpt><trkpt lat="43.0980133" lon="11.7858218"><ele>518.6666666666667</ele><time>2026-04-03T13:27:58.704Z</time></trkpt><trkpt lat="43.0980279" lon="11.7857263"><ele>520.3333333333334</ele><time>2026-04-03T13:28:00.704Z</time></trkpt><trkpt lat="43.0980276" lon="11.7856191"><ele>522.0</ele><time>2026-04-03T13:28:02.704Z</time></trkpt><trkpt lat="43.0980287" lon="11.7854931"><ele>523.6666666666666</ele><time>2026-04-03T13:28:04.704Z</time></trkpt><trkpt lat="43.098045" lon="11.7853689"><ele>525.3333333333333</ele><time>2026-04-03T13:28:06.704Z</time></trkpt><trkpt lat="43.0981288" lon="11.78528"><ele>527.0</ele><time>2026-04-03T13:28:08.704Z</time></trkpt><trkpt lat="43.0982025" lon="11.7852574"><ele>525.8333333333333</ele><time>2026-04-03T13:28:09.704Z</time></trkpt><trkpt lat="43.0982811" lon="11.7852618"><ele>524.6666666666666</ele><time>2026-04-03T13:28:10.703Z</time></trkpt><trkpt lat="43.0983623" lon="11.7852668"><ele>523.5</ele><time>2026-04-03T13:28:11.704Z</time></trkpt><trkpt lat="43.0984472" lon="11.7852582"><ele>522.3333333333334</ele><time>2026-04-03T13:28:12.704Z</time></trkpt><trkpt lat="43.0985276" lon="11.7852686"><ele>521.1666666666667</ele><time>2026-04-03T13:28:13.703Z</time></trkpt><trkpt lat="43.0986101" lon="11.785289"><ele>520.0</ele><time>2026-04-03T13:28:14.704Z</time></trkpt><trkpt lat="43.0987009" lon="11.7853159"><ele>520.0</ele><time>2026-04-03T13:28:15.704Z</time></trkpt><trkpt lat="43.0987865" lon="11.7853384"><ele>520.0</ele><time>2026-04-03T13:28:16.704Z</time></trkpt><trkpt lat="43.0988814" lon="11.7853547"><ele>520.0</ele><time>2026-04-03T13:28:17.703Z</time></trkpt><trkpt lat="43.0989752" lon="11.785375"><ele>520.0</ele><time>2026-04-03T13:28:18.704Z</time></trkpt><trkpt lat="43.0990705" lon="11.7853962"><ele>520.0</ele><time>2026-04-03T13:28:19.704Z</time></trkpt><trkpt lat="43.099169" lon="11.7854063"><ele>518.6</ele><time>2026-04-03T13:28:20.704Z</time></trkpt><trkpt lat="43.0992764" lon="11.7853895"><ele>517.2</ele><time>2026-04-03T13:28:21.704Z</time></trkpt><trkpt lat="43.0993549" lon="11.7854415"><ele>515.8</ele><time>2026-04-03T13:28:22.704Z</time></trkpt><trkpt lat="43.0994702" lon="11.7854408"><ele>514.4</ele><time>2026-04-03T13:28:23.704Z</time></trkpt><trkpt lat="43.0995968" lon="11.7854563"><ele>513.0</ele><time>2026-04-03T13:28:24.703Z</time></trkpt><trkpt lat="43.0997259" lon="11.7854632"><ele>513.0</ele><time>2026-04-03T13:28:25.703Z</time></trkpt><trkpt lat="43.0998467" lon="11.7854729"><ele>513.0</ele><time>2026-04-03T13:28:26.704Z</time></trkpt><trkpt lat="43.0999546" lon="11.7854824"><ele>513.0</ele><time>2026-04-03T13:28:27.703Z</time></trkpt><trkpt lat="43.1000684" lon="11.7854959"><ele>513.0</ele><time>2026-04-03T13:28:28.704Z</time></trkpt><trkpt lat="43.1001899" lon="11.785504"><ele>509.0</ele><time>2026-04-03T13:28:29.704Z</time></trkpt><trkpt lat="43.1003154" lon="11.7855122"><ele>505.0</ele><time>2026-04-03T13:28:30.703Z</time></trkpt><trkpt lat="43.1004395" lon="11.7855244"><ele>501.0</ele><time>2026-04-03T13:28:31.704Z</time></trkpt><trkpt lat="43.1005571" lon="11.785534"><ele>497.0</ele><time>2026-04-03T13:28:32.704Z</time></trkpt><trkpt lat="43.1006639" lon="11.7855451"><ele>496.0</ele><time>2026-04-03T13:28:33.703Z</time></trkpt><trkpt lat="43.100757" lon="11.7855609"><ele>495.00000000000006</ele><time>2026-04-03T13:28:34.704Z</time></trkpt><trkpt lat="43.1008417" lon="11.7855704"><ele>494.00000000000006</ele><time>2026-04-03T13:28:35.703Z</time></trkpt><trkpt lat="43.1009246" lon="11.7855804"><ele>493.0</ele><time>2026-04-03T13:28:36.704Z</time></trkpt><trkpt lat="43.1010338" lon="11.7855758"><ele>492.0</ele><time>2026-04-03T13:28:37.703Z</time></trkpt><trkpt lat="43.1011674" lon="11.7855827"><ele>492.0</ele><time>2026-04-03T13:28:38.703Z</time></trkpt><trkpt lat="43.1013166" lon="11.7855972"><ele>492.0</ele><time>2026-04-03T13:28:39.704Z</time></trkpt><trkpt lat="43.1014808" lon="11.7856113"><ele>492.0</ele><time>2026-04-03T13:28:40.704Z</time></trkpt><trkpt lat="43.1016537" lon="11.7856227"><ele>491.0</ele><time>2026-04-03T13:28:41.704Z</time></trkpt><trkpt lat="43.1018406" lon="11.7856373"><ele>490.0</ele><time>2026-04-03T13:28:42.704Z</time></trkpt><trkpt lat="43.1020248" lon="11.7856531"><ele>489.0</ele><time>2026-04-03T13:28:43.704Z</time></trkpt><trkpt lat="43.1022127" lon="11.7856733"><ele>489.0</ele><time>2026-04-03T13:28:44.703Z</time></trkpt><trkpt lat="43.1023994" lon="11.7856942"><ele>489.0</ele><time>2026-04-03T13:28:45.704Z</time></trkpt><trkpt lat="43.1025842" lon="11.7857138"><ele>489.0</ele><time>2026-04-03T13:28:46.703Z</time></trkpt><trkpt lat="43.1027629" lon="11.785722"><ele>488.0</ele><time>2026-04-03T13:28:47.704Z</time></trkpt><trkpt lat="43.1029339" lon="11.7857366"><ele>487.0</ele><time>2026-04-03T13:28:48.704Z</time></trkpt><trkpt lat="43.1030985" lon="11.7857498"><ele>486.0</ele><time>2026-04-03T13:28:49.704Z</time></trkpt><trkpt lat="43.1032545" lon="11.7857634"><ele>484.33333333333337</ele><time>2026-04-03T13:28:50.703Z</time></trkpt><trkpt lat="43.1034134" lon="11.7857687"><ele>482.6666666666667</ele><time>2026-04-03T13:28:51.703Z</time></trkpt><trkpt lat="43.103583" lon="11.7857645"><ele>481.0</ele><time>2026-04-03T13:28:52.703Z</time></trkpt><trkpt lat="43.1037636" lon="11.7857773"><ele>481.0</ele><time>2026-04-03T13:28:53.704Z</time></trkpt><trkpt lat="43.1039408" lon="11.7857683"><ele>481.0</ele><time>2026-04-03T13:28:54.703Z</time></trkpt><trkpt lat="43.1040692" lon="11.7857829"><ele>481.0</ele><time>2026-04-03T13:28:55.704Z</time></trkpt><trkpt lat="43.1042806" lon="11.7858163"><ele>482.33333333333337</ele><time>2026-04-03T13:28:57.703Z</time></trkpt><trkpt lat="43.1044311" lon="11.7858534"><ele>483.66666666666663</ele><time>2026-04-03T13:28:58.704Z</time></trkpt><trkpt lat="43.1046131" lon="11.78589"><ele>485.0</ele><time>2026-04-03T13:28:59.703Z</time></trkpt><trkpt lat="43.1047952" lon="11.7859211"><ele>484.66666666666663</ele><time>2026-04-03T13:29:00.704Z</time></trkpt><trkpt lat="43.1049677" lon="11.785952"><ele>484.33333333333337</ele><time>2026-04-03T13:29:01.704Z</time></trkpt><trkpt lat="43.1051415" lon="11.785978"><ele>484.0</ele><time>2026-04-03T13:29:02.704Z</time></trkpt><trkpt lat="43.1053158" lon="11.7859998"><ele>484.33333333333337</ele><time>2026-04-03T13:29:03.704Z</time></trkpt><trkpt lat="43.1054933" lon="11.7860227"><ele>484.66666666666663</ele><time>2026-04-03T13:29:04.704Z</time></trkpt><trkpt lat="43.1056712" lon="11.7860415"><ele>485.0</ele><time>2026-04-03T13:29:05.704Z</time></trkpt><trkpt lat="43.1058501" lon="11.7860603"><ele>485.0</ele><time>2026-04-03T13:29:06.704Z</time></trkpt><trkpt lat="43.1060245" lon="11.7860779"><ele>485.0</ele><time>2026-04-03T13:29:07.704Z</time></trkpt><trkpt lat="43.1061859" lon="11.7860933"><ele>485.0</ele><time>2026-04-03T13:29:08.704Z</time></trkpt><trkpt lat="43.1063301" lon="11.7861027"><ele>485.0</ele><time>2026-04-03T13:29:09.703Z</time></trkpt><trkpt lat="43.1064605" lon="11.7861106"><ele>485.0</ele><time>2026-04-03T13:29:10.704Z</time></trkpt><trkpt lat="43.1065832" lon="11.7861172"><ele>485.0</ele><time>2026-04-03T13:29:11.704Z</time></trkpt><trkpt lat="43.1067032" lon="11.7861309"><ele>485.0</ele><time>2026-04-03T13:29:12.704Z</time></trkpt><trkpt lat="43.1068202" lon="11.7861468"><ele>484.8</ele><time>2026-04-03T13:29:13.704Z</time></trkpt><trkpt lat="43.1069274" lon="11.7861688"><ele>484.6</ele><time>2026-04-03T13:29:14.704Z</time></trkpt><trkpt lat="43.10703" lon="11.7862039"><ele>484.4</ele><time>2026-04-03T13:29:15.704Z</time></trkpt><trkpt lat="43.1071383" lon="11.7862498"><ele>484.2</ele><time>2026-04-03T13:29:16.703Z</time></trkpt><trkpt lat="43.1072482" lon="11.7863007"><ele>484.0</ele><time>2026-04-03T13:29:17.704Z</time></trkpt><trkpt lat="43.1073596" lon="11.7863597"><ele>483.0</ele><time>2026-04-03T13:29:18.704Z</time></trkpt><trkpt lat="43.1074878" lon="11.7864357"><ele>482.0</ele><time>2026-04-03T13:29:19.703Z</time></trkpt><trkpt lat="43.1076266" lon="11.7865259"><ele>481.0</ele><time>2026-04-03T13:29:20.704Z</time></trkpt><trkpt lat="43.1077805" lon="11.7866287"><ele>481.0</ele><time>2026-04-03T13:29:21.703Z</time></trkpt><trkpt lat="43.1079402" lon="11.7867413"><ele>481.0</ele><time>2026-04-03T13:29:22.703Z</time></trkpt><trkpt lat="43.1081129" lon="11.7868574"><ele>481.0</ele><time>2026-04-03T13:29:23.703Z</time></trkpt><trkpt lat="43.1082891" lon="11.7869694"><ele>476.33333333333337</ele><time>2026-04-03T13:29:24.703Z</time></trkpt><trkpt lat="43.1084609" lon="11.7870816"><ele>471.66666666666663</ele><time>2026-04-03T13:29:25.704Z</time></trkpt><trkpt lat="43.1086198" lon="11.7872092"><ele>467.0</ele><time>2026-04-03T13:29:26.704Z</time></trkpt><trkpt lat="43.1087736" lon="11.7873723"><ele>467.0</ele><time>2026-04-03T13:29:27.704Z</time></trkpt><trkpt lat="43.108912" lon="11.787565"><ele>467.0</ele><time>2026-04-03T13:29:28.704Z</time></trkpt><trkpt lat="43.109041" lon="11.7877884"><ele>467.0</ele><time>2026-04-03T13:29:29.703Z</time></trkpt><trkpt lat="43.1091683" lon="11.7880205"><ele>466.0</ele><time>2026-04-03T13:29:30.703Z</time></trkpt><trkpt lat="43.1093" lon="11.7882622"><ele>465.0</ele><time>2026-04-03T13:29:31.704Z</time></trkpt><trkpt lat="43.1094417" lon="11.7885053"><ele>464.0</ele><time>2026-04-03T13:29:32.704Z</time></trkpt><trkpt lat="43.109588" lon="11.7887559"><ele>464.0</ele><time>2026-04-03T13:29:33.704Z</time></trkpt><trkpt lat="43.1097583" lon="11.7890116"><ele>464.0</ele><time>2026-04-03T13:29:34.704Z</time></trkpt><trkpt lat="43.1098922" lon="11.7892135"><ele>465.3333333333333</ele><time>2026-04-03T13:29:35.704Z</time></trkpt><trkpt lat="43.1100221" lon="11.789424"><ele>466.66666666666663</ele><time>2026-04-03T13:29:36.704Z</time></trkpt><trkpt lat="43.1101473" lon="11.7896391"><ele>468.0</ele><time>2026-04-03T13:29:37.703Z</time></trkpt><trkpt lat="43.1102734" lon="11.7898427"><ele>468.0</ele><time>2026-04-03T13:29:38.704Z</time></trkpt><trkpt lat="43.1103882" lon="11.7900376"><ele>468.0</ele><time>2026-04-03T13:29:39.704Z</time></trkpt><trkpt lat="43.1105161" lon="11.7902282"><ele>468.0</ele><time>2026-04-03T13:29:40.704Z</time></trkpt><trkpt lat="43.1106749" lon="11.7904043"><ele>462.5</ele><time>2026-04-03T13:29:41.704Z</time></trkpt><trkpt lat="43.1108717" lon="11.790558"><ele>457.0</ele><time>2026-04-03T13:29:42.704Z</time></trkpt><trkpt lat="43.1110831" lon="11.7907141"><ele>457.0</ele><time>2026-04-03T13:29:43.704Z</time></trkpt><trkpt lat="43.1112802" lon="11.7908466"><ele>457.0</ele><time>2026-04-03T13:29:44.704Z</time></trkpt><trkpt lat="43.1114441" lon="11.7909519"><ele>457.0</ele><time>2026-04-03T13:29:45.703Z</time></trkpt><trkpt lat="43.1115819" lon="11.7910481"><ele>454.0</ele><time>2026-04-03T13:29:46.704Z</time></trkpt><trkpt lat="43.1116611" lon="11.7911849"><ele>451.0</ele><time>2026-04-03T13:29:47.703Z</time></trkpt><trkpt lat="43.1117338" lon="11.7912995"><ele>448.0</ele><time>2026-04-03T13:29:48.703Z</time></trkpt><trkpt lat="43.1117781" lon="11.7914718"><ele>445.0</ele><time>2026-04-03T13:29:49.702Z</time></trkpt><trkpt lat="43.1117878" lon="11.7916856"><ele>443.33333333333337</ele><time>2026-04-03T13:29:50.702Z</time></trkpt><trkpt lat="43.1117826" lon="11.7919294"><ele>441.66666666666663</ele><time>2026-04-03T13:29:51.703Z</time></trkpt><trkpt lat="43.111785" lon="11.7921775"><ele>440.0</ele><time>2026-04-03T13:29:52.703Z</time></trkpt><trkpt lat="43.1118034" lon="11.7924215"><ele>440.0</ele><time>2026-04-03T13:29:53.702Z</time></trkpt><trkpt lat="43.1118515" lon="11.7926596"><ele>440.0</ele><time>2026-04-03T13:29:54.703Z</time></trkpt><trkpt lat="43.1119296" lon="11.7929178"><ele>440.0</ele><time>2026-04-03T13:29:55.702Z</time></trkpt><trkpt lat="43.1120042" lon="11.793171"><ele>436.66666666666663</ele><time>2026-04-03T13:29:56.703Z</time></trkpt><trkpt lat="43.1120502" lon="11.7934405"><ele>433.33333333333337</ele><time>2026-04-03T13:29:57.702Z</time></trkpt><trkpt lat="43.1120857" lon="11.7937072"><ele>430.0</ele><time>2026-04-03T13:29:58.702Z</time></trkpt><trkpt lat="43.1121216" lon="11.7939658"><ele>426.33333333333337</ele><time>2026-04-03T13:29:59.702Z</time></trkpt><trkpt lat="43.1121595" lon="11.7942212"><ele>422.66666666666663</ele><time>2026-04-03T13:30:00.703Z</time></trkpt><trkpt lat="43.1122002" lon="11.7944826"><ele>419.0</ele><time>2026-04-03T13:30:01.702Z</time></trkpt><trkpt lat="43.1122464" lon="11.7947385"><ele>417.66666666666663</ele><time>2026-04-03T13:30:02.703Z</time></trkpt><trkpt lat="43.1123028" lon="11.7949806"><ele>416.33333333333337</ele><time>2026-04-03T13:30:03.703Z</time></trkpt><trkpt lat="43.1123702" lon="11.7952102"><ele>415.0</ele><time>2026-04-03T13:30:04.703Z</time></trkpt><trkpt lat="43.112472" lon="11.7954447"><ele>415.0</ele><time>2026-04-03T13:30:05.702Z</time></trkpt><trkpt lat="43.1125965" lon="11.7956855"><ele>415.0</ele><time>2026-04-03T13:30:06.703Z</time></trkpt><trkpt lat="43.1127332" lon="11.7959057"><ele>415.0</ele><time>2026-04-03T13:30:07.703Z</time></trkpt><trkpt lat="43.112899" lon="11.7961143"><ele>412.0</ele><time>2026-04-03T13:30:08.703Z</time></trkpt><trkpt lat="43.1130887" lon="11.7963262"><ele>409.0</ele><time>2026-04-03T13:30:09.703Z</time></trkpt><trkpt lat="43.1132659" lon="11.7965224"><ele>409.0</ele><time>2026-04-03T13:30:10.703Z</time></trkpt><trkpt lat="43.1134388" lon="11.7967185"><ele>409.0</ele><time>2026-04-03T13:30:11.703Z</time></trkpt><trkpt lat="43.1136206" lon="11.796927"><ele>408.0</ele><time>2026-04-03T13:30:12.703Z</time></trkpt><trkpt lat="43.1137938" lon="11.7971297"><ele>407.0</ele><time>2026-04-03T13:30:13.703Z</time></trkpt><trkpt lat="43.1139588" lon="11.7973132"><ele>406.0</ele><time>2026-04-03T13:30:14.703Z</time></trkpt><trkpt lat="43.1141095" lon="11.797471"><ele>406.0</ele><time>2026-04-03T13:30:15.703Z</time></trkpt><trkpt lat="43.1142605" lon="11.7976063"><ele>406.0</ele><time>2026-04-03T13:30:16.703Z</time></trkpt><trkpt lat="43.1144223" lon="11.7977194"><ele>406.0</ele><time>2026-04-03T13:30:17.702Z</time></trkpt><trkpt lat="43.114604" lon="11.7978165"><ele>402.0</ele><time>2026-04-03T13:30:18.702Z</time></trkpt><trkpt lat="43.1147881" lon="11.7979257"><ele>398.0</ele><time>2026-04-03T13:30:19.702Z</time></trkpt><trkpt lat="43.114966" lon="11.7980225"><ele>394.0</ele><time>2026-04-03T13:30:20.703Z</time></trkpt><trkpt lat="43.1151469" lon="11.7981427"><ele>393.6666666666667</ele><time>2026-04-03T13:30:21.703Z</time></trkpt><trkpt lat="43.1153092" lon="11.7983019"><ele>393.33333333333337</ele><time>2026-04-03T13:30:22.703Z</time></trkpt><trkpt lat="43.1154418" lon="11.7985071"><ele>393.0</ele><time>2026-04-03T13:30:23.702Z</time></trkpt><trkpt lat="43.1155412" lon="11.7987525"><ele>390.33333333333337</ele><time>2026-04-03T13:30:24.703Z</time></trkpt><trkpt lat="43.1156195" lon="11.7990287"><ele>387.6666666666667</ele><time>2026-04-03T13:30:25.703Z</time></trkpt><trkpt lat="43.1156915" lon="11.7993276"><ele>385.0</ele><time>2026-04-03T13:30:26.702Z</time></trkpt><trkpt lat="43.1157423" lon="11.799647"><ele>385.0</ele><time>2026-04-03T13:30:27.703Z</time></trkpt><trkpt lat="43.115775" lon="11.7999687"><ele>385.0</ele><time>2026-04-03T13:30:28.703Z</time></trkpt><trkpt lat="43.1157843" lon="11.8003005"><ele>383.5</ele><time>2026-04-03T13:30:29.703Z</time></trkpt><trkpt lat="43.1157555" lon="11.8006239"><ele>382.0</ele><time>2026-04-03T13:30:30.703Z</time></trkpt><trkpt lat="43.1156893" lon="11.8009417"><ele>376.66666666666663</ele><time>2026-04-03T13:30:31.703Z</time></trkpt><trkpt lat="43.1156013" lon="11.801219"><ele>371.3333333333333</ele><time>2026-04-03T13:30:32.703Z</time></trkpt><trkpt lat="43.1155131" lon="11.8014685"><ele>366.0</ele><time>2026-04-03T13:30:33.703Z</time></trkpt><trkpt lat="43.1154467" lon="11.8016948"><ele>365.6666666666667</ele><time>2026-04-03T13:30:34.702Z</time></trkpt><trkpt lat="43.1154012" lon="11.8019159"><ele>365.33333333333337</ele><time>2026-04-03T13:30:35.703Z</time></trkpt><trkpt lat="43.1153883" lon="11.8021228"><ele>365.0</ele><time>2026-04-03T13:30:36.703Z</time></trkpt><trkpt lat="43.1154113" lon="11.802316"><ele>365.0</ele><time>2026-04-03T13:30:37.703Z</time></trkpt><trkpt lat="43.1154732" lon="11.8025133"><ele>365.0</ele><time>2026-04-03T13:30:38.702Z</time></trkpt><trkpt lat="43.11558" lon="11.8026982"><ele>365.0</ele><time>2026-04-03T13:30:39.703Z</time></trkpt><trkpt lat="43.1157231" lon="11.8028589"><ele>367.33333333333337</ele><time>2026-04-03T13:30:40.703Z</time></trkpt><trkpt lat="43.1158832" lon="11.8030276"><ele>369.6666666666667</ele><time>2026-04-03T13:30:41.703Z</time></trkpt><trkpt lat="43.1159988" lon="11.803208"><ele>372.0</ele><time>2026-04-03T13:30:42.703Z</time></trkpt><trkpt lat="43.1160707" lon="11.8034073"><ele>372.6666666666667</ele><time>2026-04-03T13:30:43.703Z</time></trkpt><trkpt lat="43.1161112" lon="11.8036333"><ele>373.33333333333337</ele><time>2026-04-03T13:30:44.703Z</time></trkpt><trkpt lat="43.1161174" lon="11.8038958"><ele>374.0</ele><time>2026-04-03T13:30:45.703Z</time></trkpt><trkpt lat="43.1161126" lon="11.8041965"><ele>373.5</ele><time>2026-04-03T13:30:46.703Z</time></trkpt><trkpt lat="43.116109" lon="11.8045365"><ele>373.0</ele><time>2026-04-03T13:30:47.703Z</time></trkpt><trkpt lat="43.1161039" lon="11.8048872"><ele>370.5</ele><time>2026-04-03T13:30:48.703Z</time></trkpt><trkpt lat="43.1161012" lon="11.8052438"><ele>368.0</ele><time>2026-04-03T13:30:49.702Z</time></trkpt><trkpt lat="43.1161006" lon="11.8056093"><ele>368.0</ele><time>2026-04-03T13:30:50.703Z</time></trkpt><trkpt lat="43.1160991" lon="11.8059831"><ele>368.0</ele><time>2026-04-03T13:30:51.702Z</time></trkpt><trkpt lat="43.1160925" lon="11.8063616"><ele>367.0</ele><time>2026-04-03T13:30:52.703Z</time></trkpt><trkpt lat="43.1160889" lon="11.8067169"><ele>366.0</ele><time>2026-04-03T13:30:53.703Z</time></trkpt><trkpt lat="43.1160873" lon="11.807049"><ele>366.0</ele><time>2026-04-03T13:30:54.702Z</time></trkpt><trkpt lat="43.1160838" lon="11.8073656"><ele>366.0</ele><time>2026-04-03T13:30:55.703Z</time></trkpt><trkpt lat="43.1160813" lon="11.8076674"><ele>364.3333333333333</ele><time>2026-04-03T13:30:56.703Z</time></trkpt><trkpt lat="43.1160791" lon="11.8079552"><ele>362.66666666666663</ele><time>2026-04-03T13:30:57.702Z</time></trkpt><trkpt lat="43.1160716" lon="11.8082147"><ele>361.0</ele><time>2026-04-03T13:30:58.702Z</time></trkpt><trkpt lat="43.116053" lon="11.8084561"><ele>359.3333333333333</ele><time>2026-04-03T13:30:59.702Z</time></trkpt><trkpt lat="43.1160092" lon="11.8086777"><ele>357.6666666666667</ele><time>2026-04-03T13:31:00.702Z</time></trkpt><trkpt lat="43.1159253" lon="11.8088869"><ele>356.0</ele><time>2026-04-03T13:31:01.703Z</time></trkpt><trkpt lat="43.1158054" lon="11.8090836"><ele>354.0</ele><time>2026-04-03T13:31:02.703Z</time></trkpt><trkpt lat="43.1156652" lon="11.8092501"><ele>352.0</ele><time>2026-04-03T13:31:03.702Z</time></trkpt><trkpt lat="43.1155019" lon="11.8093817"><ele>350.0</ele><time>2026-04-03T13:31:04.703Z</time></trkpt><trkpt lat="43.1153213" lon="11.8094866"><ele>350.0</ele><time>2026-04-03T13:31:05.703Z</time></trkpt><trkpt lat="43.115158" lon="11.8095702"><ele>350.0</ele><time>2026-04-03T13:31:06.702Z</time></trkpt><trkpt lat="43.1150301" lon="11.8096533"><ele>350.0</ele><time>2026-04-03T13:31:07.703Z</time></trkpt><trkpt lat="43.114922" lon="11.8097474"><ele>350.0</ele><time>2026-04-03T13:31:08.703Z</time></trkpt><trkpt lat="43.1148514" lon="11.8098744"><ele>349.25</ele><time>2026-04-03T13:31:09.703Z</time></trkpt><trkpt lat="43.1148213" lon="11.8100203"><ele>348.5</ele><time>2026-04-03T13:31:10.702Z</time></trkpt><trkpt lat="43.1148332" lon="11.8101682"><ele>347.75</ele><time>2026-04-03T13:31:11.702Z</time></trkpt><trkpt lat="43.1148912" lon="11.8102907"><ele>347.0</ele><time>2026-04-03T13:31:12.702Z</time></trkpt><trkpt lat="43.1150133" lon="11.8103786"><ele>347.0</ele><time>2026-04-03T13:31:13.703Z</time></trkpt><trkpt lat="43.1151689" lon="11.8104298"><ele>347.0</ele><time>2026-04-03T13:31:14.703Z</time></trkpt><trkpt lat="43.1153639" lon="11.8104568"><ele>347.0</ele><time>2026-04-03T13:31:15.703Z</time></trkpt><trkpt lat="43.1155423" lon="11.810492"><ele>347.0</ele><time>2026-04-03T13:31:16.703Z</time></trkpt><trkpt lat="43.1156923" lon="11.810542"><ele>347.0</ele><time>2026-04-03T13:31:17.702Z</time></trkpt><trkpt lat="43.1158151" lon="11.8106428"><ele>347.0</ele><time>2026-04-03T13:31:18.703Z</time></trkpt><trkpt lat="43.1159156" lon="11.8108059"><ele>345.5</ele><time>2026-04-03T13:31:19.702Z</time></trkpt><trkpt lat="43.1159888" lon="11.8109981"><ele>344.0</ele><time>2026-04-03T13:31:20.702Z</time></trkpt><trkpt lat="43.1160559" lon="11.811162"><ele>342.5</ele><time>2026-04-03T13:31:21.703Z</time></trkpt><trkpt lat="43.1161316" lon="11.8112787"><ele>341.0</ele><time>2026-04-03T13:31:22.703Z</time></trkpt><trkpt lat="43.1162147" lon="11.8113331"><ele>341.0</ele><time>2026-04-03T13:31:23.703Z</time></trkpt><trkpt lat="43.1163198" lon="11.8113182"><ele>341.0</ele><time>2026-04-03T13:31:24.703Z</time></trkpt><trkpt lat="43.1164387" lon="11.8112371"><ele>341.0</ele><time>2026-04-03T13:31:25.702Z</time></trkpt><trkpt lat="43.1165817" lon="11.8110845"><ele>341.0</ele><time>2026-04-03T13:31:26.703Z</time></trkpt><trkpt lat="43.1167524" lon="11.8109098"><ele>342.0</ele><time>2026-04-03T13:31:27.702Z</time></trkpt><trkpt lat="43.1169687" lon="11.810743"><ele>343.0</ele><time>2026-04-03T13:31:28.702Z</time></trkpt><trkpt lat="43.1171581" lon="11.8105693"><ele>343.0</ele><time>2026-04-03T13:31:29.703Z</time></trkpt><trkpt lat="43.1173487" lon="11.8104099"><ele>343.0</ele><time>2026-04-03T13:31:30.703Z</time></trkpt><trkpt lat="43.1175548" lon="11.8102811"><ele>340.66666666666663</ele><time>2026-04-03T13:31:31.703Z</time></trkpt><trkpt lat="43.1177731" lon="11.8102043"><ele>338.3333333333333</ele><time>2026-04-03T13:31:32.703Z</time></trkpt><trkpt lat="43.11797" lon="11.8101954"><ele>336.0</ele><time>2026-04-03T13:31:33.702Z</time></trkpt><trkpt lat="43.1181979" lon="11.8102822"><ele>334.6666666666667</ele><time>2026-04-03T13:31:34.703Z</time></trkpt><trkpt lat="43.1184225" lon="11.8103443"><ele>333.33333333333337</ele><time>2026-04-03T13:31:35.702Z</time></trkpt><trkpt lat="43.1186315" lon="11.8104235"><ele>332.0</ele><time>2026-04-03T13:31:36.702Z</time></trkpt><trkpt lat="43.118827" lon="11.8105264"><ele>332.0</ele><time>2026-04-03T13:31:37.703Z</time></trkpt><trkpt lat="43.1190028" lon="11.8106611"><ele>332.0</ele><time>2026-04-03T13:31:38.703Z</time></trkpt><trkpt lat="43.1191781" lon="11.8108485"><ele>332.0</ele><time>2026-04-03T13:31:39.703Z</time></trkpt><trkpt lat="43.1193464" lon="11.8110671"><ele>326.5</ele><time>2026-04-03T13:31:40.703Z</time></trkpt><trkpt lat="43.1195172" lon="11.8112941"><ele>321.0</ele><time>2026-04-03T13:31:41.703Z</time></trkpt><trkpt lat="43.1196787" lon="11.8115166"><ele>321.0</ele><time>2026-04-03T13:31:42.702Z</time></trkpt><trkpt lat="43.1198303" lon="11.8117263"><ele>321.0</ele><time>2026-04-03T13:31:43.703Z</time></trkpt><trkpt lat="43.1199666" lon="11.8119296"><ele>321.0</ele><time>2026-04-03T13:31:44.703Z</time></trkpt><trkpt lat="43.1200964" lon="11.8121509"><ele>318.6666666666667</ele><time>2026-04-03T13:31:45.703Z</time></trkpt><trkpt lat="43.1201912" lon="11.8124161"><ele>316.33333333333337</ele><time>2026-04-03T13:31:46.703Z</time></trkpt><trkpt lat="43.1202557" lon="11.8127073"><ele>314.0</ele><time>2026-04-03T13:31:47.703Z</time></trkpt><trkpt lat="43.1203286" lon="11.8130082"><ele>312.5</ele><time>2026-04-03T13:31:48.703Z</time></trkpt><trkpt lat="43.1203917" lon="11.813319"><ele>311.0</ele><time>2026-04-03T13:31:49.703Z</time></trkpt><trkpt lat="43.120452" lon="11.8136391"><ele>310.0</ele><time>2026-04-03T13:31:50.703Z</time></trkpt><trkpt lat="43.1205153" lon="11.8139691"><ele>309.0</ele><time>2026-04-03T13:31:51.703Z</time></trkpt><trkpt lat="43.1205789" lon="11.8142978"><ele>307.5</ele><time>2026-04-03T13:31:52.703Z</time></trkpt><trkpt lat="43.1206374" lon="11.8146337"><ele>306.0</ele><time>2026-04-03T13:31:53.703Z</time></trkpt><trkpt lat="43.120687" lon="11.8149785"><ele>305.5</ele><time>2026-04-03T13:31:54.702Z</time></trkpt><trkpt lat="43.1207312" lon="11.8153336"><ele>305.0</ele><time>2026-04-03T13:31:55.702Z</time></trkpt><trkpt lat="43.1207529" lon="11.8157003"><ele>309.5</ele><time>2026-04-03T13:31:56.703Z</time></trkpt><trkpt lat="43.1207801" lon="11.8160738"><ele>314.0</ele><time>2026-04-03T13:31:57.703Z</time></trkpt><trkpt lat="43.1208096" lon="11.8164363"><ele>314.0</ele><time>2026-04-03T13:31:58.703Z</time></trkpt><trkpt lat="43.1208286" lon="11.8167672"><ele>314.0</ele><time>2026-04-03T13:31:59.702Z</time></trkpt><trkpt lat="43.120833" lon="11.8170978"><ele>314.0</ele><time>2026-04-03T13:32:00.702Z</time></trkpt><trkpt lat="43.1208096" lon="11.8174248"><ele>314.0</ele><time>2026-04-03T13:32:01.702Z</time></trkpt><trkpt lat="43.1207637" lon="11.8177236"><ele>313.6666666666667</ele><time>2026-04-03T13:32:02.703Z</time></trkpt><trkpt lat="43.1206989" lon="11.8179957"><ele>313.3333333333333</ele><time>2026-04-03T13:32:03.703Z</time></trkpt><trkpt lat="43.1206164" lon="11.8182545"><ele>313.0</ele><time>2026-04-03T13:32:04.703Z</time></trkpt><trkpt lat="43.1205477" lon="11.8185218"><ele>314.3333333333333</ele><time>2026-04-03T13:32:05.702Z</time></trkpt><trkpt lat="43.1205029" lon="11.8187768"><ele>315.6666666666667</ele><time>2026-04-03T13:32:06.702Z</time></trkpt><trkpt lat="43.1204839" lon="11.8190228"><ele>317.0</ele><time>2026-04-03T13:32:07.703Z</time></trkpt><trkpt lat="43.1204914" lon="11.8192735"><ele>316.0</ele><time>2026-04-03T13:32:08.702Z</time></trkpt><trkpt lat="43.1205258" lon="11.8195402"><ele>315.0</ele><time>2026-04-03T13:32:09.703Z</time></trkpt><trkpt lat="43.1205806" lon="11.8198197"><ele>314.0</ele><time>2026-04-03T13:32:10.703Z</time></trkpt><trkpt lat="43.1206252" lon="11.8200835"><ele>311.5</ele><time>2026-04-03T13:32:11.702Z</time></trkpt><trkpt lat="43.120649" lon="11.8203826"><ele>309.0</ele><time>2026-04-03T13:32:12.703Z</time></trkpt><trkpt lat="43.1206553" lon="11.8207028"><ele>310.0</ele><time>2026-04-03T13:32:13.703Z</time></trkpt><trkpt lat="43.1206618" lon="11.8210215"><ele>311.0</ele><time>2026-04-03T13:32:14.703Z</time></trkpt><trkpt lat="43.1206671" lon="11.8213435"><ele>311.0</ele><time>2026-04-03T13:32:15.702Z</time></trkpt><trkpt lat="43.1206737" lon="11.8216494"><ele>311.0</ele><time>2026-04-03T13:32:16.703Z</time></trkpt><trkpt lat="43.1206838" lon="11.821937"><ele>311.0</ele><time>2026-04-03T13:32:17.702Z</time></trkpt><trkpt lat="43.1207034" lon="11.8221967"><ele>311.0</ele><time>2026-04-03T13:32:18.703Z</time></trkpt><trkpt lat="43.1207398" lon="11.8224345"><ele>311.0</ele><time>2026-04-03T13:32:19.702Z</time></trkpt><trkpt lat="43.120796" lon="11.8226598"><ele>311.0</ele><time>2026-04-03T13:32:20.702Z</time></trkpt><trkpt lat="43.1208644" lon="11.8229021"><ele>311.0</ele><time>2026-04-03T13:32:21.703Z</time></trkpt><trkpt lat="43.1209533" lon="11.8231178"><ele>311.0</ele><time>2026-04-03T13:32:22.703Z</time></trkpt><trkpt lat="43.121031" lon="11.8233686"><ele>311.0</ele><time>2026-04-03T13:32:23.702Z</time></trkpt><trkpt lat="43.1211109" lon="11.8236154"><ele>311.0</ele><time>2026-04-03T13:32:24.702Z</time></trkpt><trkpt lat="43.1211853" lon="11.8238384"><ele>311.0</ele><time>2026-04-03T13:32:25.702Z</time></trkpt><trkpt lat="43.1212561" lon="11.8240367"><ele>311.0</ele><time>2026-04-03T13:32:26.703Z</time></trkpt><trkpt lat="43.1213229" lon="11.8242145"><ele>310.40000000000003</ele><time>2026-04-03T13:32:27.703Z</time></trkpt><trkpt lat="43.1213873" lon="11.8243589"><ele>309.8</ele><time>2026-04-03T13:32:28.702Z</time></trkpt><trkpt lat="43.1214369" lon="11.8244605"><ele>309.20000000000005</ele><time>2026-04-03T13:32:29.703Z</time></trkpt><trkpt lat="43.1214907" lon="11.8245473"><ele>308.6</ele><time>2026-04-03T13:32:31.703Z</time></trkpt><trkpt lat="43.121569" lon="11.8247038"><ele>308.0</ele><time>2026-04-03T13:33:18.703Z</time></trkpt><trkpt lat="43.1216178" lon="11.8248007"><ele>308.0</ele><time>2026-04-03T13:33:19.703Z</time></trkpt><trkpt lat="43.1216864" lon="11.8249083"><ele>308.0</ele><time>2026-04-03T13:33:20.703Z</time></trkpt><trkpt lat="43.1217694" lon="11.825053"><ele>308.0</ele><time>2026-04-03T13:33:21.702Z</time></trkpt><trkpt lat="43.1218794" lon="11.8252378"><ele>308.0</ele><time>2026-04-03T13:33:22.703Z</time></trkpt><trkpt lat="43.1220045" lon="11.8254531"><ele>309.33333333333337</ele><time>2026-04-03T13:33:23.702Z</time></trkpt><trkpt lat="43.1221233" lon="11.8256555"><ele>310.6666666666667</ele><time>2026-04-03T13:33:24.702Z</time></trkpt><trkpt lat="43.1222236" lon="11.8258351"><ele>312.0</ele><time>2026-04-03T13:33:25.702Z</time></trkpt><trkpt lat="43.1222951" lon="11.8260118"><ele>312.3333333333333</ele><time>2026-04-03T13:33:26.703Z</time></trkpt><trkpt lat="43.122345" lon="11.8262015"><ele>312.66666666666663</ele><time>2026-04-03T13:33:27.703Z</time></trkpt><trkpt lat="43.1223821" lon="11.8264091"><ele>313.0</ele><time>2026-04-03T13:33:28.703Z</time></trkpt><trkpt lat="43.1224083" lon="11.8266469"><ele>314.66666666666663</ele><time>2026-04-03T13:33:29.703Z</time></trkpt><trkpt lat="43.1224125" lon="11.8269147"><ele>316.3333333333333</ele><time>2026-04-03T13:33:30.703Z</time></trkpt><trkpt lat="43.1224147" lon="11.8271737"><ele>318.0</ele><time>2026-04-03T13:33:31.703Z</time></trkpt><trkpt lat="43.1224154" lon="11.8274571"><ele>318.0</ele><time>2026-04-03T13:33:32.702Z</time></trkpt><trkpt lat="43.1224226" lon="11.8277304"><ele>318.0</ele><time>2026-04-03T13:33:33.702Z</time></trkpt><trkpt lat="43.1224459" lon="11.8279942"><ele>318.0</ele><time>2026-04-03T13:33:34.702Z</time></trkpt><trkpt lat="43.1224841" lon="11.8282649"><ele>319.6666666666667</ele><time>2026-04-03T13:33:35.702Z</time></trkpt><trkpt lat="43.1225292" lon="11.8285617"><ele>321.33333333333337</ele><time>2026-04-03T13:33:36.703Z</time></trkpt><trkpt lat="43.1225747" lon="11.8288631"><ele>323.0</ele><time>2026-04-03T13:33:37.702Z</time></trkpt><trkpt lat="43.1226173" lon="11.8291287"><ele>323.33333333333337</ele><time>2026-04-03T13:33:38.702Z</time></trkpt><trkpt lat="43.1226458" lon="11.829379"><ele>323.6666666666667</ele><time>2026-04-03T13:33:39.702Z</time></trkpt><trkpt lat="43.1226744" lon="11.8296191"><ele>324.0</ele><time>2026-04-03T13:33:40.703Z</time></trkpt><trkpt lat="43.1226957" lon="11.8298727"><ele>324.3333333333333</ele><time>2026-04-03T13:33:41.703Z</time></trkpt><trkpt lat="43.1227141" lon="11.8301516"><ele>324.66666666666663</ele><time>2026-04-03T13:33:42.702Z</time></trkpt><trkpt lat="43.1227415" lon="11.8304604"><ele>325.0</ele><time>2026-04-03T13:33:43.703Z</time></trkpt><trkpt lat="43.1227698" lon="11.8307884"><ele>324.0</ele><time>2026-04-03T13:33:44.703Z</time></trkpt><trkpt lat="43.1228042" lon="11.8311134"><ele>323.0</ele><time>2026-04-03T13:33:45.703Z</time></trkpt><trkpt lat="43.1228284" lon="11.8314063"><ele>323.0</ele><time>2026-04-03T13:33:46.702Z</time></trkpt><trkpt lat="43.1228508" lon="11.8316927"><ele>323.0</ele><time>2026-04-03T13:33:47.703Z</time></trkpt><trkpt lat="43.1228608" lon="11.8319999"><ele>323.0</ele><time>2026-04-03T13:33:48.702Z</time></trkpt><trkpt lat="43.1228668" lon="11.8323279"><ele>317.5</ele><time>2026-04-03T13:33:49.703Z</time></trkpt><trkpt lat="43.1228664" lon="11.8326786"><ele>312.0</ele><time>2026-04-03T13:33:50.702Z</time></trkpt><trkpt lat="43.1228613" lon="11.8330534"><ele>312.0</ele><time>2026-04-03T13:33:51.703Z</time></trkpt><trkpt lat="43.1228484" lon="11.8334375"><ele>312.0</ele><time>2026-04-03T13:33:52.703Z</time></trkpt><trkpt lat="43.1228327" lon="11.8338245"><ele>312.0</ele><time>2026-04-03T13:33:53.703Z</time></trkpt><trkpt lat="43.1228241" lon="11.8342158"><ele>312.0</ele><time>2026-04-03T13:33:54.703Z</time></trkpt><trkpt lat="43.1228279" lon="11.8346176"><ele>314.5</ele><time>2026-04-03T13:33:55.703Z</time></trkpt><trkpt lat="43.1228478" lon="11.8350124"><ele>317.0</ele><time>2026-04-03T13:33:56.702Z</time></trkpt><trkpt lat="43.1228683" lon="11.8353739"><ele>318.0</ele><time>2026-04-03T13:33:57.703Z</time></trkpt><trkpt lat="43.1228886" lon="11.8356905"><ele>319.0</ele><time>2026-04-03T13:33:58.703Z</time></trkpt><trkpt lat="43.1229028" lon="11.835969"><ele>320.0</ele><time>2026-04-03T13:33:59.703Z</time></trkpt><trkpt lat="43.1229021" lon="11.8362254"><ele>320.0</ele><time>2026-04-03T13:34:00.702Z</time></trkpt><trkpt lat="43.1228949" lon="11.8364791"><ele>320.0</ele><time>2026-04-03T13:34:01.702Z</time></trkpt><trkpt lat="43.1228572" lon="11.8367579"><ele>320.0</ele><time>2026-04-03T13:34:02.702Z</time></trkpt><trkpt lat="43.1227979" lon="11.8370611"><ele>318.0</ele><time>2026-04-03T13:34:03.702Z</time></trkpt><trkpt lat="43.1227401" lon="11.8373896"><ele>316.0</ele><time>2026-04-03T13:34:04.703Z</time></trkpt><trkpt lat="43.1226848" lon="11.8377139"><ele>316.0</ele><time>2026-04-03T13:34:05.703Z</time></trkpt><trkpt lat="43.1226312" lon="11.8380078"><ele>316.0</ele><time>2026-04-03T13:34:06.702Z</time></trkpt><trkpt lat="43.1225597" lon="11.8382878"><ele>316.0</ele><time>2026-04-03T13:34:07.702Z</time></trkpt><trkpt lat="43.1224634" lon="11.8385601"><ele>313.0</ele><time>2026-04-03T13:34:08.702Z</time></trkpt><trkpt lat="43.1223545" lon="11.8388214"><ele>310.0</ele><time>2026-04-03T13:34:09.703Z</time></trkpt><trkpt lat="43.1222475" lon="11.839054"><ele>307.0</ele><time>2026-04-03T13:34:10.702Z</time></trkpt><trkpt lat="43.1221521" lon="11.8392585"><ele>307.5</ele><time>2026-04-03T13:34:11.703Z</time></trkpt><trkpt lat="43.1220806" lon="11.8394158"><ele>308.0</ele><time>2026-04-03T13:34:12.703Z</time></trkpt><trkpt lat="43.1219626" lon="11.8396091"><ele>308.5</ele><time>2026-04-03T13:34:14.703Z</time></trkpt><trkpt lat="43.1219061" lon="11.8396877"><ele>309.0</ele><time>2026-04-03T13:34:15.702Z</time></trkpt><trkpt lat="43.1218277" lon="11.8397784"><ele>309.0</ele><time>2026-04-03T13:34:16.703Z</time></trkpt><trkpt lat="43.1217005" lon="11.8398864"><ele>309.0</ele><time>2026-04-03T13:34:17.702Z</time></trkpt><trkpt lat="43.1215449" lon="11.83997"><ele>309.0</ele><time>2026-04-03T13:34:18.702Z</time></trkpt><trkpt lat="43.1213583" lon="11.8400162"><ele>308.0</ele><time>2026-04-03T13:34:19.703Z</time></trkpt><trkpt lat="43.1211292" lon="11.8400582"><ele>307.0</ele><time>2026-04-03T13:34:20.702Z</time></trkpt><trkpt lat="43.1208967" lon="11.8400983"><ele>307.0</ele><time>2026-04-03T13:34:21.703Z</time></trkpt><trkpt lat="43.1207011" lon="11.8401319"><ele>307.0</ele><time>2026-04-03T13:34:22.703Z</time></trkpt><trkpt lat="43.1205363" lon="11.8401633"><ele>307.0</ele><time>2026-04-03T13:34:23.703Z</time></trkpt><trkpt lat="43.1203912" lon="11.8402114"><ele>307.0</ele><time>2026-04-03T13:34:24.702Z</time></trkpt><trkpt lat="43.1202604" lon="11.840312"><ele>307.0</ele><time>2026-04-03T13:34:25.702Z</time></trkpt><trkpt lat="43.1201734" lon="11.8404533"><ele>307.0</ele><time>2026-04-03T13:34:26.702Z</time></trkpt><trkpt lat="43.1201187" lon="11.8406503"><ele>307.0</ele><time>2026-04-03T13:34:27.702Z</time></trkpt><trkpt lat="43.1200823" lon="11.8409019"><ele>305.5</ele><time>2026-04-03T13:34:28.702Z</time></trkpt><trkpt lat="43.1200462" lon="11.8412107"><ele>304.0</ele><time>2026-04-03T13:34:29.703Z</time></trkpt><trkpt lat="43.1200023" lon="11.8415595"><ele>302.0</ele><time>2026-04-03T13:34:30.702Z</time></trkpt><trkpt lat="43.1199515" lon="11.8419301"><ele>300.0</ele><time>2026-04-03T13:34:31.702Z</time></trkpt><trkpt lat="43.1198962" lon="11.8423109"><ele>305.0</ele><time>2026-04-03T13:34:32.702Z</time></trkpt><trkpt lat="43.1198518" lon="11.8426965"><ele>310.0</ele><time>2026-04-03T13:34:33.703Z</time></trkpt><trkpt lat="43.1198112" lon="11.8430901"><ele>310.0</ele><time>2026-04-03T13:34:34.703Z</time></trkpt><trkpt lat="43.1197944" lon="11.8434523"><ele>310.0</ele><time>2026-04-03T13:34:35.703Z</time></trkpt><trkpt lat="43.1197794" lon="11.8437785"><ele>309.3333333333333</ele><time>2026-04-03T13:34:36.702Z</time></trkpt><trkpt lat="43.1197684" lon="11.8440774"><ele>308.6666666666667</ele><time>2026-04-03T13:34:37.703Z</time></trkpt><trkpt lat="43.1197518" lon="11.8443468"><ele>308.0</ele><time>2026-04-03T13:34:38.702Z</time></trkpt><trkpt lat="43.119703" lon="11.8445892"><ele>308.0</ele><time>2026-04-03T13:34:39.703Z</time></trkpt><trkpt lat="43.1196181" lon="11.84482"><ele>308.0</ele><time>2026-04-03T13:34:40.702Z</time></trkpt><trkpt lat="43.119502" lon="11.8450269"><ele>308.0</ele><time>2026-04-03T13:34:41.703Z</time></trkpt><trkpt lat="43.1193443" lon="11.8451942"><ele>306.33333333333337</ele><time>2026-04-03T13:34:42.703Z</time></trkpt><trkpt lat="43.119177" lon="11.8453121"><ele>304.6666666666667</ele><time>2026-04-03T13:34:43.702Z</time></trkpt><trkpt lat="43.1189975" lon="11.8453996"><ele>303.0</ele><time>2026-04-03T13:34:44.703Z</time></trkpt><trkpt lat="43.1188006" lon="11.8455007"><ele>302.6666666666667</ele><time>2026-04-03T13:34:45.703Z</time></trkpt><trkpt lat="43.1186072" lon="11.8456391"><ele>302.33333333333337</ele><time>2026-04-03T13:34:46.702Z</time></trkpt><trkpt lat="43.1184304" lon="11.8458127"><ele>302.0</ele><time>2026-04-03T13:34:47.703Z</time></trkpt><trkpt lat="43.1182539" lon="11.8460151"><ele>297.5</ele><time>2026-04-03T13:34:48.703Z</time></trkpt><trkpt lat="43.1179401" lon="11.8464415"><ele>293.0</ele><time>2026-04-03T13:34:50.703Z</time></trkpt><trkpt lat="43.1178042" lon="11.8466737"><ele>294.0</ele><time>2026-04-03T13:34:51.702Z</time></trkpt><trkpt lat="43.1177033" lon="11.8469279"><ele>295.0</ele><time>2026-04-03T13:34:52.702Z</time></trkpt><trkpt lat="43.117632" lon="11.8472088"><ele>296.0</ele><time>2026-04-03T13:34:53.702Z</time></trkpt><trkpt lat="43.1175919" lon="11.8475103"><ele>295.5</ele><time>2026-04-03T13:34:54.703Z</time></trkpt><trkpt lat="43.1175588" lon="11.8478216"><ele>295.0</ele><time>2026-04-03T13:34:55.702Z</time></trkpt><trkpt lat="43.117532" lon="11.8481426"><ele>295.0</ele><time>2026-04-03T13:34:56.703Z</time></trkpt><trkpt lat="43.1175069" lon="11.8484598"><ele>295.0</ele><time>2026-04-03T13:34:57.703Z</time></trkpt><trkpt lat="43.1174676" lon="11.8487333"><ele>295.0</ele><time>2026-04-03T13:34:58.702Z</time></trkpt><trkpt lat="43.1174257" lon="11.8489736"><ele>291.3333333333333</ele><time>2026-04-03T13:34:59.702Z</time></trkpt><trkpt lat="43.1173695" lon="11.8492026"><ele>287.6666666666667</ele><time>2026-04-03T13:35:00.703Z</time></trkpt><trkpt lat="43.1172955" lon="11.8494297"><ele>284.0</ele><time>2026-04-03T13:35:01.703Z</time></trkpt><trkpt lat="43.1171798" lon="11.8496569"><ele>284.0</ele><time>2026-04-03T13:35:02.703Z</time></trkpt><trkpt lat="43.1170606" lon="11.8498807"><ele>284.0</ele><time>2026-04-03T13:35:03.702Z</time></trkpt><trkpt lat="43.1169664" lon="11.8501279"><ele>284.0</ele><time>2026-04-03T13:35:04.703Z</time></trkpt><trkpt lat="43.1168937" lon="11.8503972"><ele>283.6666666666667</ele><time>2026-04-03T13:35:05.703Z</time></trkpt><trkpt lat="43.1168394" lon="11.8506499"><ele>283.3333333333333</ele><time>2026-04-03T13:35:06.703Z</time></trkpt><trkpt lat="43.1168146" lon="11.8508777"><ele>283.0</ele><time>2026-04-03T13:35:07.703Z</time></trkpt><trkpt lat="43.1168014" lon="11.8510824"><ele>283.66666666666663</ele><time>2026-04-03T13:35:08.703Z</time></trkpt><trkpt lat="43.1168346" lon="11.851298"><ele>284.3333333333333</ele><time>2026-04-03T13:35:09.702Z</time></trkpt><trkpt lat="43.1169079" lon="11.8515098"><ele>285.0</ele><time>2026-04-03T13:35:10.703Z</time></trkpt><trkpt lat="43.1170081" lon="11.8517312"><ele>286.3333333333333</ele><time>2026-04-03T13:35:11.703Z</time></trkpt><trkpt lat="43.1171184" lon="11.8519498"><ele>287.66666666666663</ele><time>2026-04-03T13:35:12.702Z</time></trkpt><trkpt lat="43.1172008" lon="11.8521598"><ele>289.0</ele><time>2026-04-03T13:35:13.702Z</time></trkpt><trkpt lat="43.1172521" lon="11.8524096"><ele>289.66666666666663</ele><time>2026-04-03T13:35:14.703Z</time></trkpt><trkpt lat="43.1172783" lon="11.852683"><ele>290.3333333333333</ele><time>2026-04-03T13:35:15.702Z</time></trkpt><trkpt lat="43.1172764" lon="11.8529683"><ele>291.0</ele><time>2026-04-03T13:35:16.703Z</time></trkpt><trkpt lat="43.1172406" lon="11.8532479"><ele>289.6666666666667</ele><time>2026-04-03T13:35:17.702Z</time></trkpt><trkpt lat="43.1171821" lon="11.8535242"><ele>288.33333333333337</ele><time>2026-04-03T13:35:18.703Z</time></trkpt><trkpt lat="43.1171097" lon="11.8538017"><ele>287.0</ele><time>2026-04-03T13:35:19.703Z</time></trkpt><trkpt lat="43.1170271" lon="11.8540925"><ele>285.5</ele><time>2026-04-03T13:35:20.703Z</time></trkpt><trkpt lat="43.1169492" lon="11.8543956"><ele>284.0</ele><time>2026-04-03T13:35:21.702Z</time></trkpt><trkpt lat="43.1168731" lon="11.8547054"><ele>284.0</ele><time>2026-04-03T13:35:22.702Z</time></trkpt><trkpt lat="43.116814" lon="11.8550241"><ele>284.0</ele><time>2026-04-03T13:35:23.703Z</time></trkpt><trkpt lat="43.1167628" lon="11.8553433"><ele>285.6666666666667</ele><time>2026-04-03T13:35:24.702Z</time></trkpt><trkpt lat="43.1167197" lon="11.8556584"><ele>287.3333333333333</ele><time>2026-04-03T13:35:25.703Z</time></trkpt><trkpt lat="43.1166857" lon="11.8559436"><ele>289.0</ele><time>2026-04-03T13:35:26.702Z</time></trkpt><trkpt lat="43.1166542" lon="11.8561918"><ele>290.66666666666663</ele><time>2026-04-03T13:35:27.703Z</time></trkpt><trkpt lat="43.1166425" lon="11.8564257"><ele>292.3333333333333</ele><time>2026-04-03T13:35:28.703Z</time></trkpt><trkpt lat="43.1166711" lon="11.8566483"><ele>294.0</ele><time>2026-04-03T13:35:29.703Z</time></trkpt><trkpt lat="43.1167415" lon="11.8568765"><ele>294.0</ele><time>2026-04-03T13:35:30.703Z</time></trkpt><trkpt lat="43.1168228" lon="11.8571046"><ele>294.0</ele><time>2026-04-03T13:35:31.703Z</time></trkpt><trkpt lat="43.1168727" lon="11.8573322"><ele>294.0</ele><time>2026-04-03T13:35:32.702Z</time></trkpt><trkpt lat="43.1168985" lon="11.8575515"><ele>294.3333333333333</ele><time>2026-04-03T13:35:33.703Z</time></trkpt><trkpt lat="43.1168975" lon="11.8577636"><ele>294.66666666666663</ele><time>2026-04-03T13:35:34.703Z</time></trkpt><trkpt lat="43.1168765" lon="11.8579699"><ele>295.0</ele><time>2026-04-03T13:35:35.703Z</time></trkpt><trkpt lat="43.1168353" lon="11.858177"><ele>295.0</ele><time>2026-04-03T13:35:36.702Z</time></trkpt><trkpt lat="43.1167696" lon="11.8583894"><ele>295.0</ele><time>2026-04-03T13:35:37.702Z</time></trkpt><trkpt lat="43.1167049" lon="11.8585862"><ele>295.0</ele><time>2026-04-03T13:35:38.703Z</time></trkpt><trkpt lat="43.1166625" lon="11.8587582"><ele>295.25</ele><time>2026-04-03T13:35:39.702Z</time></trkpt><trkpt lat="43.1166221" lon="11.858913"><ele>295.5</ele><time>2026-04-03T13:35:40.703Z</time></trkpt><trkpt lat="43.1165793" lon="11.8590591"><ele>295.75</ele><time>2026-04-03T13:35:41.703Z</time></trkpt><trkpt lat="43.1165219" lon="11.8592064"><ele>296.0</ele><time>2026-04-03T13:35:42.703Z</time></trkpt><trkpt lat="43.1164548" lon="11.8593418"><ele>296.0</ele><time>2026-04-03T13:35:43.702Z</time></trkpt><trkpt lat="43.1163938" lon="11.8594773"><ele>296.0</ele><time>2026-04-03T13:35:44.703Z</time></trkpt><trkpt lat="43.1163287" lon="11.8596237"><ele>296.0</ele><time>2026-04-03T13:35:45.703Z</time></trkpt><trkpt lat="43.1162713" lon="11.8597739"><ele>296.0</ele><time>2026-04-03T13:35:46.702Z</time></trkpt><trkpt lat="43.1162097" lon="11.8599253"><ele>296.0</ele><time>2026-04-03T13:35:47.702Z</time></trkpt><trkpt lat="43.1161476" lon="11.8600831"><ele>296.0</ele><time>2026-04-03T13:35:48.703Z</time></trkpt><trkpt lat="43.1160888" lon="11.8602442"><ele>296.0</ele><time>2026-04-03T13:35:49.702Z</time></trkpt><trkpt lat="43.116028" lon="11.8604043"><ele>296.0</ele><time>2026-04-03T13:35:50.702Z</time></trkpt><trkpt lat="43.1159695" lon="11.8605693"><ele>296.0</ele><time>2026-04-03T13:35:51.703Z</time></trkpt><trkpt lat="43.1159127" lon="11.8607317"><ele>296.0</ele><time>2026-04-03T13:35:52.703Z</time></trkpt><trkpt lat="43.1158499" lon="11.8608882"><ele>296.0</ele><time>2026-04-03T13:35:53.703Z</time></trkpt><trkpt lat="43.1157792" lon="11.8610332"><ele>296.0</ele><time>2026-04-03T13:35:54.702Z</time></trkpt><trkpt lat="43.115699" lon="11.8611681"><ele>294.8</ele><time>2026-04-03T13:35:55.703Z</time></trkpt><trkpt lat="43.1156059" lon="11.8612925"><ele>293.6</ele><time>2026-04-03T13:35:56.703Z</time></trkpt><trkpt lat="43.1155276" lon="11.8614081"><ele>292.4</ele><time>2026-04-03T13:35:57.703Z</time></trkpt><trkpt lat="43.1154604" lon="11.8615043"><ele>291.2</ele><time>2026-04-03T13:35:58.703Z</time></trkpt><trkpt lat="43.115401" lon="11.8615866"><ele>290.0</ele><time>2026-04-03T13:35:59.702Z</time></trkpt><trkpt lat="43.1153453" lon="11.8616628"><ele>290.0</ele><time>2026-04-03T13:36:00.702Z</time></trkpt><trkpt lat="43.1152942" lon="11.8617371"><ele>290.0</ele><time>2026-04-03T13:36:01.702Z</time></trkpt><trkpt lat="43.1152359" lon="11.8618208"><ele>290.0</ele><time>2026-04-03T13:36:02.703Z</time></trkpt><trkpt lat="43.1151685" lon="11.8619206"><ele>290.0</ele><time>2026-04-03T13:36:03.702Z</time></trkpt><trkpt lat="43.1150939" lon="11.862027"><ele>290.0</ele><time>2026-04-03T13:36:04.703Z</time></trkpt><trkpt lat="43.1150226" lon="11.8621356"><ele>289.8</ele><time>2026-04-03T13:36:05.702Z</time></trkpt><trkpt lat="43.1149525" lon="11.8622339"><ele>289.6</ele><time>2026-04-03T13:36:06.702Z</time></trkpt><trkpt lat="43.1148798" lon="11.8623307"><ele>289.4</ele><time>2026-04-03T13:36:07.703Z</time></trkpt><trkpt lat="43.1148077" lon="11.8624368"><ele>289.2</ele><time>2026-04-03T13:36:08.703Z</time></trkpt><trkpt lat="43.114734" lon="11.8625458"><ele>289.0</ele><time>2026-04-03T13:36:09.702Z</time></trkpt><trkpt lat="43.1146586" lon="11.8626601"><ele>290.0</ele><time>2026-04-03T13:36:10.703Z</time></trkpt><trkpt lat="43.1145783" lon="11.862785"><ele>291.0</ele><time>2026-04-03T13:36:11.703Z</time></trkpt><trkpt lat="43.1144923" lon="11.8629225"><ele>292.0</ele><time>2026-04-03T13:36:12.703Z</time></trkpt><trkpt lat="43.1144045" lon="11.8630708"><ele>293.0</ele><time>2026-04-03T13:36:13.703Z</time></trkpt><trkpt lat="43.1143201" lon="11.8632303"><ele>293.0</ele><time>2026-04-03T13:36:14.703Z</time></trkpt><trkpt lat="43.1142377" lon="11.8633898"><ele>293.0</ele><time>2026-04-03T13:36:15.703Z</time></trkpt><trkpt lat="43.1141521" lon="11.8635464"><ele>293.0</ele><time>2026-04-03T13:36:16.702Z</time></trkpt><trkpt lat="43.1140621" lon="11.8636981"><ele>293.0</ele><time>2026-04-03T13:36:17.703Z</time></trkpt><trkpt lat="43.11397" lon="11.8638473"><ele>293.0</ele><time>2026-04-03T13:36:18.702Z</time></trkpt><trkpt lat="43.113873" lon="11.8639936"><ele>293.0</ele><time>2026-04-03T13:36:19.702Z</time></trkpt><trkpt lat="43.113786" lon="11.8641396"><ele>293.0</ele><time>2026-04-03T13:36:20.703Z</time></trkpt><trkpt lat="43.1137131" lon="11.8642661"><ele>293.0</ele><time>2026-04-03T13:36:21.703Z</time></trkpt><trkpt lat="43.1136615" lon="11.8643663"><ele>293.0</ele><time>2026-04-03T13:36:22.703Z</time></trkpt><trkpt lat="43.1136115" lon="11.8644822"><ele>293.0</ele><time>2026-04-03T13:36:23.702Z</time></trkpt><trkpt lat="43.1135483" lon="11.8646045"><ele>293.0</ele><time>2026-04-03T13:36:24.703Z</time></trkpt><trkpt lat="43.1134811" lon="11.8647413"><ele>293.0</ele><time>2026-04-03T13:36:25.703Z</time></trkpt><trkpt lat="43.113412" lon="11.8648828"><ele>293.0</ele><time>2026-04-03T13:36:26.703Z</time></trkpt><trkpt lat="43.1133306" lon="11.8650208"><ele>293.0</ele><time>2026-04-03T13:36:27.702Z</time></trkpt><trkpt lat="43.1132456" lon="11.8651645"><ele>293.0</ele><time>2026-04-03T13:36:28.702Z</time></trkpt><trkpt lat="43.1131828" lon="11.8653128"><ele>293.0</ele><time>2026-04-03T13:36:29.702Z</time></trkpt><trkpt lat="43.1131453" lon="11.8654876"><ele>295.0</ele><time>2026-04-03T13:36:30.703Z</time></trkpt><trkpt lat="43.1131295" lon="11.8656857"><ele>297.0</ele><time>2026-04-03T13:36:31.703Z</time></trkpt><trkpt lat="43.1131271" lon="11.8658965"><ele>299.0</ele><time>2026-04-03T13:36:32.703Z</time></trkpt><trkpt lat="43.1131361" lon="11.8660962"><ele>301.0</ele><time>2026-04-03T13:36:33.703Z</time></trkpt><trkpt lat="43.1131419" lon="11.8662734"><ele>301.0</ele><time>2026-04-03T13:36:34.703Z</time></trkpt><trkpt lat="43.1131443" lon="11.8664425"><ele>301.0</ele><time>2026-04-03T13:36:35.703Z</time></trkpt><trkpt lat="43.1131414" lon="11.8666124"><ele>301.0</ele><time>2026-04-03T13:36:36.703Z</time></trkpt><trkpt lat="43.1131412" lon="11.8667829"><ele>301.0</ele><time>2026-04-03T13:36:37.703Z</time></trkpt><trkpt lat="43.1131379" lon="11.8669557"><ele>299.0</ele><time>2026-04-03T13:36:38.703Z</time></trkpt><trkpt lat="43.1131267" lon="11.8671371"><ele>297.0</ele><time>2026-04-03T13:36:39.703Z</time></trkpt><trkpt lat="43.1130995" lon="11.8673215"><ele>295.0</ele><time>2026-04-03T13:36:40.702Z</time></trkpt><trkpt lat="43.1130642" lon="11.8674994"><ele>293.0</ele><time>2026-04-03T13:36:41.703Z</time></trkpt><trkpt lat="43.1130319" lon="11.8676676"><ele>291.0</ele><time>2026-04-03T13:36:42.702Z</time></trkpt><trkpt lat="43.112998" lon="11.8678236"><ele>289.0</ele><time>2026-04-03T13:36:43.703Z</time></trkpt><trkpt lat="43.1129549" lon="11.8679762"><ele>287.0</ele><time>2026-04-03T13:36:44.703Z</time></trkpt><trkpt lat="43.1129033" lon="11.8681237"><ele>285.0</ele><time>2026-04-03T13:36:45.702Z</time></trkpt><trkpt lat="43.1128373" lon="11.868269"><ele>285.0</ele><time>2026-04-03T13:36:46.702Z</time></trkpt><trkpt lat="43.1127626" lon="11.8684022"><ele>285.0</ele><time>2026-04-03T13:36:47.702Z</time></trkpt><trkpt lat="43.1126823" lon="11.8685191"><ele>285.0</ele><time>2026-04-03T13:36:48.702Z</time></trkpt><trkpt lat="43.1125943" lon="11.8686207"><ele>285.0</ele><time>2026-04-03T13:36:49.702Z</time></trkpt><trkpt lat="43.1124963" lon="11.8687252"><ele>284.0</ele><time>2026-04-03T13:36:50.703Z</time></trkpt><trkpt lat="43.1123939" lon="11.8688219"><ele>283.0</ele><time>2026-04-03T13:36:51.702Z</time></trkpt><trkpt lat="43.1122848" lon="11.8689195"><ele>282.0</ele><time>2026-04-03T13:36:52.702Z</time></trkpt><trkpt lat="43.1121813" lon="11.8690241"><ele>281.0</ele><time>2026-04-03T13:36:53.703Z</time></trkpt><trkpt lat="43.1120861" lon="11.8691409"><ele>281.0</ele><time>2026-04-03T13:36:54.703Z</time></trkpt><trkpt lat="43.1120146" lon="11.8692714"><ele>281.0</ele><time>2026-04-03T13:36:55.703Z</time></trkpt><trkpt lat="43.1119591" lon="11.8694154"><ele>281.0</ele><time>2026-04-03T13:36:56.702Z</time></trkpt><trkpt lat="43.1119061" lon="11.8695697"><ele>281.0</ele><time>2026-04-03T13:36:57.702Z</time></trkpt><trkpt lat="43.1118593" lon="11.8697355"><ele>280.0</ele><time>2026-04-03T13:36:58.703Z</time></trkpt><trkpt lat="43.1118142" lon="11.869893"><ele>279.0</ele><time>2026-04-03T13:36:59.702Z</time></trkpt><trkpt lat="43.1117699" lon="11.8700365"><ele>278.0</ele><time>2026-04-03T13:37:00.703Z</time></trkpt><trkpt lat="43.111735" lon="11.8701689"><ele>277.0</ele><time>2026-04-03T13:37:01.703Z</time></trkpt><trkpt lat="43.1116981" lon="11.8702917"><ele>276.0</ele><time>2026-04-03T13:37:02.703Z</time></trkpt><trkpt lat="43.111667" lon="11.8704059"><ele>276.5</ele><time>2026-04-03T13:37:03.703Z</time></trkpt><trkpt lat="43.111636" lon="11.8705172"><ele>277.0</ele><time>2026-04-03T13:37:04.702Z</time></trkpt><trkpt lat="43.1116037" lon="11.8706446"><ele>277.5</ele><time>2026-04-03T13:37:05.702Z</time></trkpt><trkpt lat="43.1115628" lon="11.8708077"><ele>278.0</ele><time>2026-04-03T13:37:06.702Z</time></trkpt><trkpt lat="43.1115195" lon="11.8709964"><ele>278.0</ele><time>2026-04-03T13:37:07.702Z</time></trkpt><trkpt lat="43.1114651" lon="11.8712072"><ele>278.0</ele><time>2026-04-03T13:37:08.703Z</time></trkpt><trkpt lat="43.1114055" lon="11.8714285"><ele>278.0</ele><time>2026-04-03T13:37:09.702Z</time></trkpt><trkpt lat="43.1113482" lon="11.8716613"><ele>276.0</ele><time>2026-04-03T13:37:10.702Z</time></trkpt><trkpt lat="43.1113068" lon="11.8719038"><ele>274.0</ele><time>2026-04-03T13:37:11.703Z</time></trkpt><trkpt lat="43.1113015" lon="11.8721609"><ele>272.0</ele><time>2026-04-03T13:37:12.703Z</time></trkpt><trkpt lat="43.1113361" lon="11.8724417"><ele>271.0</ele><time>2026-04-03T13:37:13.702Z</time></trkpt><trkpt lat="43.1113925" lon="11.8727448"><ele>270.0</ele><time>2026-04-03T13:37:14.702Z</time></trkpt><trkpt lat="43.1114606" lon="11.8730865"><ele>269.0</ele><time>2026-04-03T13:37:15.702Z</time></trkpt><trkpt lat="43.1115336" lon="11.8734571"><ele>268.0</ele><time>2026-04-03T13:37:16.702Z</time></trkpt><trkpt lat="43.111605" lon="11.873831"><ele>266.5</ele><time>2026-04-03T13:37:17.702Z</time></trkpt><trkpt lat="43.1116696" lon="11.8741826"><ele>265.0</ele><time>2026-04-03T13:37:18.702Z</time></trkpt><trkpt lat="43.1117329" lon="11.8745089"><ele>265.0</ele><time>2026-04-03T13:37:19.701Z</time></trkpt><trkpt lat="43.1117908" lon="11.8748181"><ele>265.0</ele><time>2026-04-03T13:37:20.701Z</time></trkpt><trkpt lat="43.1118445" lon="11.875122"><ele>264.66666666666663</ele><time>2026-04-03T13:37:21.702Z</time></trkpt><trkpt lat="43.1118992" lon="11.8754135"><ele>264.3333333333333</ele><time>2026-04-03T13:37:22.702Z</time></trkpt><trkpt lat="43.1119414" lon="11.8756833"><ele>264.0</ele><time>2026-04-03T13:37:23.702Z</time></trkpt><trkpt lat="43.1119762" lon="11.8759487"><ele>263.6666666666667</ele><time>2026-04-03T13:37:24.702Z</time></trkpt><trkpt lat="43.1119827" lon="11.8762279"><ele>263.33333333333337</ele><time>2026-04-03T13:37:25.701Z</time></trkpt><trkpt lat="43.1119789" lon="11.8765027"><ele>263.0</ele><time>2026-04-03T13:37:26.702Z</time></trkpt><trkpt lat="43.1119857" lon="11.8767707"><ele>262.33333333333337</ele><time>2026-04-03T13:37:27.701Z</time></trkpt><trkpt lat="43.1120158" lon="11.8770472"><ele>261.6666666666667</ele><time>2026-04-03T13:37:28.702Z</time></trkpt><trkpt lat="43.1120665" lon="11.8773157"><ele>261.0</ele><time>2026-04-03T13:37:29.702Z</time></trkpt><trkpt lat="43.1121187" lon="11.8775564"><ele>262.0</ele><time>2026-04-03T13:37:30.701Z</time></trkpt><trkpt lat="43.1121676" lon="11.8777849"><ele>263.0</ele><time>2026-04-03T13:37:31.702Z</time></trkpt><trkpt lat="43.112231" lon="11.8780007"><ele>264.0</ele><time>2026-04-03T13:37:32.701Z</time></trkpt><trkpt lat="43.112304" lon="11.8782085"><ele>264.0</ele><time>2026-04-03T13:37:33.701Z</time></trkpt><trkpt lat="43.1123747" lon="11.8784046"><ele>264.0</ele><time>2026-04-03T13:37:34.701Z</time></trkpt><trkpt lat="43.1124304" lon="11.878589"><ele>264.0</ele><time>2026-04-03T13:37:35.701Z</time></trkpt><trkpt lat="43.1124713" lon="11.8787611"><ele>264.0</ele><time>2026-04-03T13:37:36.702Z</time></trkpt><trkpt lat="43.1124976" lon="11.8789155"><ele>262.25</ele><time>2026-04-03T13:37:37.701Z</time></trkpt><trkpt lat="43.1125064" lon="11.8790772"><ele>260.5</ele><time>2026-04-03T13:37:38.702Z</time></trkpt><trkpt lat="43.1125073" lon="11.8792532"><ele>258.75</ele><time>2026-04-03T13:37:39.702Z</time></trkpt><trkpt lat="43.1124919" lon="11.879437"><ele>257.0</ele><time>2026-04-03T13:37:40.702Z</time></trkpt><trkpt lat="43.1124705" lon="11.8796202"><ele>256.75</ele><time>2026-04-03T13:37:41.702Z</time></trkpt><trkpt lat="43.1124391" lon="11.8797836"><ele>256.5</ele><time>2026-04-03T13:37:42.702Z</time></trkpt><trkpt lat="43.1124039" lon="11.8799453"><ele>256.25</ele><time>2026-04-03T13:37:43.702Z</time></trkpt><trkpt lat="43.1123759" lon="11.880114"><ele>256.0</ele><time>2026-04-03T13:37:44.702Z</time></trkpt><trkpt lat="43.1123423" lon="11.8802904"><ele>254.0</ele><time>2026-04-03T13:37:45.702Z</time></trkpt><trkpt lat="43.1122999" lon="11.8804749"><ele>252.0</ele><time>2026-04-03T13:37:46.702Z</time></trkpt><trkpt lat="43.1122357" lon="11.8806605"><ele>250.0</ele><time>2026-04-03T13:37:47.702Z</time></trkpt><trkpt lat="43.1121358" lon="11.8808364"><ele>250.0</ele><time>2026-04-03T13:37:48.702Z</time></trkpt><trkpt lat="43.1120191" lon="11.8809815"><ele>250.0</ele><time>2026-04-03T13:37:49.702Z</time></trkpt><trkpt lat="43.1118615" lon="11.8811447"><ele>250.0</ele><time>2026-04-03T13:37:50.701Z</time></trkpt><trkpt lat="43.1116942" lon="11.8813095"><ele>251.0</ele><time>2026-04-03T13:37:51.702Z</time></trkpt><trkpt lat="43.1115262" lon="11.8814571"><ele>252.0</ele><time>2026-04-03T13:37:52.702Z</time></trkpt><trkpt lat="43.1113661" lon="11.8815955"><ele>253.0</ele><time>2026-04-03T13:37:53.702Z</time></trkpt><trkpt lat="43.1111991" lon="11.8817391"><ele>253.0</ele><time>2026-04-03T13:37:54.702Z</time></trkpt><trkpt lat="43.1110395" lon="11.8818817"><ele>253.0</ele><time>2026-04-03T13:37:55.701Z</time></trkpt><trkpt lat="43.1108924" lon="11.8820152"><ele>253.0</ele><time>2026-04-03T13:37:56.702Z</time></trkpt><trkpt lat="43.1107605" lon="11.882131"><ele>253.2</ele><time>2026-04-03T13:37:57.701Z</time></trkpt><trkpt lat="43.1106509" lon="11.8822256"><ele>253.4</ele><time>2026-04-03T13:37:58.701Z</time></trkpt><trkpt lat="43.1105707" lon="11.8822926"><ele>253.59999999999997</ele><time>2026-04-03T13:37:59.702Z</time></trkpt><trkpt lat="43.1105013" lon="11.8823434"><ele>253.79999999999998</ele><time>2026-04-03T13:38:00.702Z</time></trkpt><trkpt lat="43.1104327" lon="11.8824454"><ele>254.0</ele><time>2026-04-03T13:38:02.702Z</time></trkpt><trkpt lat="43.1104489" lon="11.8825381"><ele>254.0</ele><time>2026-04-03T13:38:03.702Z</time></trkpt><trkpt lat="43.1104715" lon="11.8826578"><ele>253.99999999999997</ele><time>2026-04-03T13:38:04.702Z</time></trkpt><trkpt lat="43.1104901" lon="11.8827926"><ele>253.99999999999997</ele><time>2026-04-03T13:38:05.702Z</time></trkpt><trkpt lat="43.1104744" lon="11.8829182"><ele>254.0</ele><time>2026-04-03T13:38:06.701Z</time></trkpt><trkpt lat="43.1104052" lon="11.883054"><ele>254.0</ele><time>2026-04-03T13:38:07.702Z</time></trkpt><trkpt lat="43.1102828" lon="11.8831876"><ele>254.0</ele><time>2026-04-03T13:38:08.701Z</time></trkpt><trkpt lat="43.1101157" lon="11.8833284"><ele>254.0</ele><time>2026-04-03T13:38:09.702Z</time></trkpt><trkpt lat="43.1099247" lon="11.8834719"><ele>254.0</ele><time>2026-04-03T13:38:10.702Z</time></trkpt><trkpt lat="43.109721" lon="11.8836294"><ele>253.0</ele><time>2026-04-03T13:38:11.702Z</time></trkpt><trkpt lat="43.1095175" lon="11.8837914"><ele>252.0</ele><time>2026-04-03T13:38:12.702Z</time></trkpt><trkpt lat="43.1093072" lon="11.8839561"><ele>252.0</ele><time>2026-04-03T13:38:13.701Z</time></trkpt><trkpt lat="43.1090936" lon="11.8841183"><ele>252.0</ele><time>2026-04-03T13:38:14.701Z</time></trkpt><trkpt lat="43.1088908" lon="11.8842729"><ele>252.0</ele><time>2026-04-03T13:38:15.701Z</time></trkpt><trkpt lat="43.1087071" lon="11.8844212"><ele>252.0</ele><time>2026-04-03T13:38:16.701Z</time></trkpt><trkpt lat="43.108522" lon="11.8845731"><ele>252.0</ele><time>2026-04-03T13:38:17.702Z</time></trkpt><trkpt lat="43.1083446" lon="11.8847309"><ele>252.33333333333331</ele><time>2026-04-03T13:38:18.702Z</time></trkpt><trkpt lat="43.1081753" lon="11.8849018"><ele>252.66666666666666</ele><time>2026-04-03T13:38:19.702Z</time></trkpt><trkpt lat="43.1080222" lon="11.8850986"><ele>253.0</ele><time>2026-04-03T13:38:20.701Z</time></trkpt><trkpt lat="43.1078894" lon="11.8853175"><ele>253.33333333333331</ele><time>2026-04-03T13:38:21.702Z</time></trkpt><trkpt lat="43.107778" lon="11.8855633"><ele>253.66666666666669</ele><time>2026-04-03T13:38:22.701Z</time></trkpt><trkpt lat="43.1076826" lon="11.8858089"><ele>254.0</ele><time>2026-04-03T13:38:23.702Z</time></trkpt><trkpt lat="43.1076128" lon="11.8860564"><ele>254.0</ele><time>2026-04-03T13:38:24.701Z</time></trkpt><trkpt lat="43.1075686" lon="11.886273"><ele>254.0</ele><time>2026-04-03T13:38:25.702Z</time></trkpt><trkpt lat="43.1075397" lon="11.8864821"><ele>254.0</ele><time>2026-04-03T13:38:26.702Z</time></trkpt><trkpt lat="43.1075253" lon="11.8866989"><ele>253.66666666666669</ele><time>2026-04-03T13:38:27.702Z</time></trkpt><trkpt lat="43.1075284" lon="11.8869256"><ele>253.33333333333331</ele><time>2026-04-03T13:38:28.702Z</time></trkpt><trkpt lat="43.1075453" lon="11.8871818"><ele>253.0</ele><time>2026-04-03T13:38:29.702Z</time></trkpt><trkpt lat="43.1075772" lon="11.8874497"><ele>252.66666666666666</ele><time>2026-04-03T13:38:30.701Z</time></trkpt><trkpt lat="43.1076164" lon="11.8877379"><ele>252.33333333333331</ele><time>2026-04-03T13:38:31.702Z</time></trkpt><trkpt lat="43.1076562" lon="11.888043"><ele>252.0</ele><time>2026-04-03T13:38:32.701Z</time></trkpt><trkpt lat="43.1076974" lon="11.8883558"><ele>252.0</ele><time>2026-04-03T13:38:33.702Z</time></trkpt><trkpt lat="43.1077355" lon="11.8886761"><ele>252.0</ele><time>2026-04-03T13:38:34.702Z</time></trkpt><trkpt lat="43.1077802" lon="11.8890041"><ele>252.5</ele><time>2026-04-03T13:38:35.701Z</time></trkpt><trkpt lat="43.1078263" lon="11.8893396"><ele>253.0</ele><time>2026-04-03T13:38:36.702Z</time></trkpt><trkpt lat="43.1078702" lon="11.8896788"><ele>253.0</ele><time>2026-04-03T13:38:37.701Z</time></trkpt><trkpt lat="43.1079185" lon="11.8900226"><ele>253.0</ele><time>2026-04-03T13:38:38.701Z</time></trkpt><trkpt lat="43.107966" lon="11.8903678"><ele>254.0</ele><time>2026-04-03T13:38:39.702Z</time></trkpt><trkpt lat="43.1080145" lon="11.8907182"><ele>255.0</ele><time>2026-04-03T13:38:40.702Z</time></trkpt><trkpt lat="43.1080682" lon="11.891078"><ele>253.0</ele><time>2026-04-03T13:38:41.701Z</time></trkpt><trkpt lat="43.1081235" lon="11.8914324"><ele>251.0</ele><time>2026-04-03T13:38:42.702Z</time></trkpt><trkpt lat="43.1081835" lon="11.8917805"><ele>251.0</ele><time>2026-04-03T13:38:43.702Z</time></trkpt><trkpt lat="43.1082446" lon="11.8921287"><ele>251.0</ele><time>2026-04-03T13:38:44.702Z</time></trkpt><trkpt lat="43.108307" lon="11.8924777"><ele>250.5</ele><time>2026-04-03T13:38:45.701Z</time></trkpt><trkpt lat="43.1083699" lon="11.8928289"><ele>250.0</ele><time>2026-04-03T13:38:46.702Z</time></trkpt><trkpt lat="43.1084287" lon="11.8931844"><ele>250.0</ele><time>2026-04-03T13:38:47.701Z</time></trkpt><trkpt lat="43.1084841" lon="11.8935349"><ele>250.0</ele><time>2026-04-03T13:38:48.701Z</time></trkpt><trkpt lat="43.1085342" lon="11.8938857"><ele>250.0</ele><time>2026-04-03T13:38:49.701Z</time></trkpt><trkpt lat="43.1085835" lon="11.8942455"><ele>250.0</ele><time>2026-04-03T13:38:50.701Z</time></trkpt><trkpt lat="43.1086303" lon="11.8946049"><ele>250.0</ele><time>2026-04-03T13:38:51.701Z</time></trkpt><trkpt lat="43.1086681" lon="11.894974"><ele>250.0</ele><time>2026-04-03T13:38:52.702Z</time></trkpt><trkpt lat="43.1087" lon="11.8953422"><ele>250.0</ele><time>2026-04-03T13:38:53.702Z</time></trkpt><trkpt lat="43.1087276" lon="11.8957122"><ele>250.0</ele><time>2026-04-03T13:38:54.702Z</time></trkpt><trkpt lat="43.1087456" lon="11.8960838"><ele>250.0</ele><time>2026-04-03T13:38:55.701Z</time></trkpt><trkpt lat="43.1087521" lon="11.8964494"><ele>250.0</ele><time>2026-04-03T13:38:56.702Z</time></trkpt><trkpt lat="43.108758" lon="11.8968252"><ele>250.5</ele><time>2026-04-03T13:38:57.702Z</time></trkpt><trkpt lat="43.1087631" lon="11.8971976"><ele>251.0</ele><time>2026-04-03T13:38:58.702Z</time></trkpt><trkpt lat="43.1087729" lon="11.8975678"><ele>250.0</ele><time>2026-04-03T13:38:59.701Z</time></trkpt><trkpt lat="43.1087982" lon="11.8979409"><ele>249.0</ele><time>2026-04-03T13:39:00.702Z</time></trkpt><trkpt lat="43.1088429" lon="11.898307"><ele>248.5</ele><time>2026-04-03T13:39:01.702Z</time></trkpt><trkpt lat="43.1089015" lon="11.898672"><ele>248.0</ele><time>2026-04-03T13:39:02.702Z</time></trkpt><trkpt lat="43.1089652" lon="11.8990313"><ele>247.5</ele><time>2026-04-03T13:39:03.702Z</time></trkpt><trkpt lat="43.1090235" lon="11.8993634"><ele>247.0</ele><time>2026-04-03T13:39:04.701Z</time></trkpt><trkpt lat="43.1090776" lon="11.8996825"><ele>247.5</ele><time>2026-04-03T13:39:05.701Z</time></trkpt><trkpt lat="43.1091485" lon="11.8999858"><ele>248.0</ele><time>2026-04-03T13:39:06.702Z</time></trkpt><trkpt lat="43.1092397" lon="11.9002798"><ele>248.0</ele><time>2026-04-03T13:39:07.701Z</time></trkpt><trkpt lat="43.1093565" lon="11.9005611"><ele>248.0</ele><time>2026-04-03T13:39:08.702Z</time></trkpt><trkpt lat="43.1095043" lon="11.9008368"><ele>248.0</ele><time>2026-04-03T13:39:09.701Z</time></trkpt><trkpt lat="43.1096558" lon="11.9011233"><ele>248.0</ele><time>2026-04-03T13:39:10.702Z</time></trkpt><trkpt lat="43.1098178" lon="11.9014139"><ele>248.0</ele><time>2026-04-03T13:39:11.701Z</time></trkpt><trkpt lat="43.1099829" lon="11.9017122"><ele>248.0</ele><time>2026-04-03T13:39:12.701Z</time></trkpt><trkpt lat="43.1101501" lon="11.9020092"><ele>248.0</ele><time>2026-04-03T13:39:13.701Z</time></trkpt><trkpt lat="43.1103215" lon="11.9023028"><ele>248.0</ele><time>2026-04-03T13:39:14.702Z</time></trkpt><trkpt lat="43.110499" lon="11.9025865"><ele>248.5</ele><time>2026-04-03T13:39:15.702Z</time></trkpt><trkpt lat="43.1106864" lon="11.9028586"><ele>249.0</ele><time>2026-04-03T13:39:16.702Z</time></trkpt><trkpt lat="43.1108885" lon="11.9031141"><ele>249.0</ele><time>2026-04-03T13:39:17.702Z</time></trkpt><trkpt lat="43.1110926" lon="11.9033679"><ele>249.0</ele><time>2026-04-03T13:39:18.702Z</time></trkpt><trkpt lat="43.1113006" lon="11.9036183"><ele>249.0</ele><time>2026-04-03T13:39:19.702Z</time></trkpt><trkpt lat="43.1115068" lon="11.9038705"><ele>249.0</ele><time>2026-04-03T13:39:20.701Z</time></trkpt><trkpt lat="43.111715" lon="11.9041242"><ele>249.0</ele><time>2026-04-03T13:39:21.701Z</time></trkpt><trkpt lat="43.1119282" lon="11.9043742"><ele>249.0</ele><time>2026-04-03T13:39:22.702Z</time></trkpt><trkpt lat="43.1121423" lon="11.9046242"><ele>249.0</ele><time>2026-04-03T13:39:23.702Z</time></trkpt><trkpt lat="43.1123547" lon="11.9048757"><ele>249.0</ele><time>2026-04-03T13:39:24.702Z</time></trkpt><trkpt lat="43.112565" lon="11.9051281"><ele>249.0</ele><time>2026-04-03T13:39:25.702Z</time></trkpt><trkpt lat="43.1127735" lon="11.9053771"><ele>249.0</ele><time>2026-04-03T13:39:26.702Z</time></trkpt><trkpt lat="43.1129825" lon="11.9056243"><ele>249.0</ele><time>2026-04-03T13:39:27.701Z</time></trkpt><trkpt lat="43.1131916" lon="11.9058696"><ele>249.0</ele><time>2026-04-03T13:39:28.702Z</time></trkpt><trkpt lat="43.1134035" lon="11.9061132"><ele>249.0</ele><time>2026-04-03T13:39:29.702Z</time></trkpt><trkpt lat="43.113603" lon="11.9063502"><ele>249.0</ele><time>2026-04-03T13:39:30.702Z</time></trkpt><trkpt lat="43.1137881" lon="11.9065667"><ele>248.66666666666669</ele><time>2026-04-03T13:39:31.702Z</time></trkpt><trkpt lat="43.1139645" lon="11.9067773"><ele>248.33333333333334</ele><time>2026-04-03T13:39:32.702Z</time></trkpt><trkpt lat="43.114126" lon="11.906964"><ele>248.0</ele><time>2026-04-03T13:39:33.702Z</time></trkpt><trkpt lat="43.1142567" lon="11.9071275"><ele>248.5</ele><time>2026-04-03T13:39:34.702Z</time></trkpt><trkpt lat="43.11437" lon="11.9072646"><ele>249.0</ele><time>2026-04-03T13:39:35.702Z</time></trkpt><trkpt lat="43.1144651" lon="11.9074049"><ele>249.5</ele><time>2026-04-03T13:39:36.701Z</time></trkpt><trkpt lat="43.1145452" lon="11.9075597"><ele>250.0</ele><time>2026-04-03T13:39:37.701Z</time></trkpt><trkpt lat="43.1146045" lon="11.9077387"><ele>250.33333333333331</ele><time>2026-04-03T13:39:38.702Z</time></trkpt><trkpt lat="43.1146414" lon="11.9079573"><ele>250.66666666666669</ele><time>2026-04-03T13:39:39.701Z</time></trkpt><trkpt lat="43.1146642" lon="11.9082077"><ele>251.0</ele><time>2026-04-03T13:39:40.701Z</time></trkpt><trkpt lat="43.1146788" lon="11.9084949"><ele>251.0</ele><time>2026-04-03T13:39:41.702Z</time></trkpt><trkpt lat="43.1146923" lon="11.9088094"><ele>251.0</ele><time>2026-04-03T13:39:42.702Z</time></trkpt><trkpt lat="43.1147052" lon="11.9091358"><ele>250.5</ele><time>2026-04-03T13:39:43.701Z</time></trkpt><trkpt lat="43.1147158" lon="11.9094731"><ele>250.0</ele><time>2026-04-03T13:39:44.702Z</time></trkpt><trkpt lat="43.1147296" lon="11.9098124"><ele>249.0</ele><time>2026-04-03T13:39:45.701Z</time></trkpt><trkpt lat="43.1147405" lon="11.9101656"><ele>248.0</ele><time>2026-04-03T13:39:46.702Z</time></trkpt><trkpt lat="43.1147498" lon="11.9105304"><ele>248.0</ele><time>2026-04-03T13:39:47.702Z</time></trkpt><trkpt lat="43.1147596" lon="11.9108995"><ele>248.0</ele><time>2026-04-03T13:39:48.702Z</time></trkpt><trkpt lat="43.1147726" lon="11.9112752"><ele>248.5</ele><time>2026-04-03T13:39:49.702Z</time></trkpt><trkpt lat="43.114791" lon="11.9116568"><ele>249.0</ele><time>2026-04-03T13:39:50.701Z</time></trkpt><trkpt lat="43.1148085" lon="11.9120443"><ele>249.0</ele><time>2026-04-03T13:39:51.702Z</time></trkpt><trkpt lat="43.1148199" lon="11.912422"><ele>249.0</ele><time>2026-04-03T13:39:52.701Z</time></trkpt><trkpt lat="43.1148313" lon="11.912778"><ele>249.0</ele><time>2026-04-03T13:39:53.701Z</time></trkpt><trkpt lat="43.1148265" lon="11.9131363"><ele>249.0</ele><time>2026-04-03T13:39:54.702Z</time></trkpt><trkpt lat="43.1148008" lon="11.9134955"><ele>248.5</ele><time>2026-04-03T13:39:55.702Z</time></trkpt><trkpt lat="43.1147718" lon="11.9138583"><ele>248.0</ele><time>2026-04-03T13:39:56.702Z</time></trkpt><trkpt lat="43.1147408" lon="11.9142264"><ele>248.5</ele><time>2026-04-03T13:39:57.702Z</time></trkpt><trkpt lat="43.1147118" lon="11.9145963"><ele>249.0</ele><time>2026-04-03T13:39:58.702Z</time></trkpt><trkpt lat="43.1146869" lon="11.9149635"><ele>249.0</ele><time>2026-04-03T13:39:59.701Z</time></trkpt><trkpt lat="43.1146531" lon="11.9153289"><ele>249.0</ele><time>2026-04-03T13:40:00.701Z</time></trkpt><trkpt lat="43.114623" lon="11.915668"><ele>249.0</ele><time>2026-04-03T13:40:01.701Z</time></trkpt><trkpt lat="43.114592" lon="11.9159635"><ele>249.0</ele><time>2026-04-03T13:40:02.702Z</time></trkpt><trkpt lat="43.1145699" lon="11.9162157"><ele>249.0</ele><time>2026-04-03T13:40:03.702Z</time></trkpt><trkpt lat="43.1145465" lon="11.9164512"><ele>249.0</ele><time>2026-04-03T13:40:04.702Z</time></trkpt><trkpt lat="43.1145354" lon="11.9166777"><ele>249.0</ele><time>2026-04-03T13:40:05.701Z</time></trkpt><trkpt lat="43.1145495" lon="11.9168998"><ele>249.0</ele><time>2026-04-03T13:40:06.701Z</time></trkpt><trkpt lat="43.1145745" lon="11.9171328"><ele>249.0</ele><time>2026-04-03T13:40:07.702Z</time></trkpt><trkpt lat="43.1146145" lon="11.9173771"><ele>249.0</ele><time>2026-04-03T13:40:08.701Z</time></trkpt><trkpt lat="43.1146608" lon="11.9176356"><ele>249.0</ele><time>2026-04-03T13:40:09.702Z</time></trkpt><trkpt lat="43.1147138" lon="11.9179052"><ele>249.0</ele><time>2026-04-03T13:40:10.702Z</time></trkpt><trkpt lat="43.1147748" lon="11.9181864"><ele>249.0</ele><time>2026-04-03T13:40:11.702Z</time></trkpt><trkpt lat="43.1148392" lon="11.9184752"><ele>249.0</ele><time>2026-04-03T13:40:12.702Z</time></trkpt><trkpt lat="43.1149061" lon="11.9187797"><ele>248.5</ele><time>2026-04-03T13:40:13.701Z</time></trkpt><trkpt lat="43.1149774" lon="11.919095"><ele>248.0</ele><time>2026-04-03T13:40:14.701Z</time></trkpt><trkpt lat="43.1150451" lon="11.9194173"><ele>248.0</ele><time>2026-04-03T13:40:15.702Z</time></trkpt><trkpt lat="43.1151124" lon="11.919745"><ele>248.0</ele><time>2026-04-03T13:40:16.701Z</time></trkpt><trkpt lat="43.1151832" lon="11.9200755"><ele>248.5</ele><time>2026-04-03T13:40:17.701Z</time></trkpt><trkpt lat="43.1152559" lon="11.9204163"><ele>249.0</ele><time>2026-04-03T13:40:18.701Z</time></trkpt><trkpt lat="43.1153277" lon="11.920751"><ele>249.0</ele><time>2026-04-03T13:40:19.701Z</time></trkpt><trkpt lat="43.1153939" lon="11.9210669"><ele>249.0</ele><time>2026-04-03T13:40:20.701Z</time></trkpt><trkpt lat="43.1154571" lon="11.9213615"><ele>249.0</ele><time>2026-04-03T13:40:21.702Z</time></trkpt><trkpt lat="43.1155154" lon="11.9216237"><ele>249.0</ele><time>2026-04-03T13:40:22.702Z</time></trkpt><trkpt lat="43.1155593" lon="11.9218644"><ele>249.0</ele><time>2026-04-03T13:40:23.702Z</time></trkpt><trkpt lat="43.1155684" lon="11.9220941"><ele>249.33333333333331</ele><time>2026-04-03T13:40:24.702Z</time></trkpt><trkpt lat="43.1155434" lon="11.9223086"><ele>249.66666666666666</ele><time>2026-04-03T13:40:25.701Z</time></trkpt><trkpt lat="43.1154837" lon="11.922513"><ele>250.0</ele><time>2026-04-03T13:40:26.702Z</time></trkpt><trkpt lat="43.1153717" lon="11.9226941"><ele>250.66666666666666</ele><time>2026-04-03T13:40:27.702Z</time></trkpt><trkpt lat="43.1152256" lon="11.9228303"><ele>251.33333333333331</ele><time>2026-04-03T13:40:28.702Z</time></trkpt><trkpt lat="43.1150516" lon="11.9229527"><ele>252.0</ele><time>2026-04-03T13:40:29.702Z</time></trkpt><trkpt lat="43.1148513" lon="11.9230826"><ele>252.0</ele><time>2026-04-03T13:40:30.701Z</time></trkpt><trkpt lat="43.1146678" lon="11.9232169"><ele>252.0</ele><time>2026-04-03T13:40:31.702Z</time></trkpt><trkpt lat="43.1145125" lon="11.9233445"><ele>252.0</ele><time>2026-04-03T13:40:32.701Z</time></trkpt><trkpt lat="43.1143739" lon="11.9234703"><ele>252.25</ele><time>2026-04-03T13:40:33.701Z</time></trkpt><trkpt lat="43.1142719" lon="11.9236199"><ele>252.5</ele><time>2026-04-03T13:40:34.701Z</time></trkpt><trkpt lat="43.1142258" lon="11.9237801"><ele>252.75</ele><time>2026-04-03T13:40:35.702Z</time></trkpt><trkpt lat="43.1142023" lon="11.9239619"><ele>253.0</ele><time>2026-04-03T13:40:36.702Z</time></trkpt><trkpt lat="43.1142122" lon="11.9241412"><ele>252.66666666666666</ele><time>2026-04-03T13:40:37.702Z</time></trkpt><trkpt lat="43.1142739" lon="11.9243206"><ele>252.33333333333331</ele><time>2026-04-03T13:40:38.701Z</time></trkpt><trkpt lat="43.1143727" lon="11.9244881"><ele>252.0</ele><time>2026-04-03T13:40:39.702Z</time></trkpt><trkpt lat="43.1144977" lon="11.9246591"><ele>252.0</ele><time>2026-04-03T13:40:40.702Z</time></trkpt><trkpt lat="43.1146454" lon="11.9248453"><ele>252.0</ele><time>2026-04-03T13:40:41.701Z</time></trkpt><trkpt lat="43.1147989" lon="11.9250458"><ele>252.0</ele><time>2026-04-03T13:40:42.702Z</time></trkpt><trkpt lat="43.1149652" lon="11.9252554"><ele>252.0</ele><time>2026-04-03T13:40:43.701Z</time></trkpt><trkpt lat="43.1151446" lon="11.9254777"><ele>252.0</ele><time>2026-04-03T13:40:44.702Z</time></trkpt><trkpt lat="43.1153374" lon="11.925717"><ele>252.0</ele><time>2026-04-03T13:40:45.702Z</time></trkpt><trkpt lat="43.115539" lon="11.9259624"><ele>252.0</ele><time>2026-04-03T13:40:46.702Z</time></trkpt><trkpt lat="43.1157453" lon="11.9262093"><ele>251.5</ele><time>2026-04-03T13:40:47.702Z</time></trkpt><trkpt lat="43.1159492" lon="11.9264679"><ele>251.0</ele><time>2026-04-03T13:40:48.701Z</time></trkpt><trkpt lat="43.1161527" lon="11.9267311"><ele>252.0</ele><time>2026-04-03T13:40:49.702Z</time></trkpt><trkpt lat="43.1163587" lon="11.9269906"><ele>253.0</ele><time>2026-04-03T13:40:50.702Z</time></trkpt><trkpt lat="43.1165665" lon="11.9272492"><ele>253.0</ele><time>2026-04-03T13:40:51.702Z</time></trkpt><trkpt lat="43.1167744" lon="11.9275145"><ele>253.0</ele><time>2026-04-03T13:40:52.701Z</time></trkpt><trkpt lat="43.1169842" lon="11.927772"><ele>254.5</ele><time>2026-04-03T13:40:53.702Z</time></trkpt><trkpt lat="43.1171982" lon="11.9280205"><ele>256.0</ele><time>2026-04-03T13:40:54.702Z</time></trkpt><trkpt lat="43.1173985" lon="11.9282327"><ele>261.0</ele><time>2026-04-03T13:40:55.702Z</time></trkpt><trkpt lat="43.1175704" lon="11.9284223"><ele>266.0</ele><time>2026-04-03T13:40:56.701Z</time></trkpt><trkpt lat="43.1177286" lon="11.9286014"><ele>271.0</ele><time>2026-04-03T13:40:57.702Z</time></trkpt><trkpt lat="43.1178781" lon="11.9287984"><ele>271.0</ele><time>2026-04-03T13:40:58.702Z</time></trkpt><trkpt lat="43.1180226" lon="11.929015"><ele>271.0</ele><time>2026-04-03T13:40:59.701Z</time></trkpt><trkpt lat="43.1181466" lon="11.9292436"><ele>271.0</ele><time>2026-04-03T13:41:00.702Z</time></trkpt><trkpt lat="43.1182467" lon="11.9294907"><ele>270.3333333333333</ele><time>2026-04-03T13:41:01.702Z</time></trkpt><trkpt lat="43.1183402" lon="11.9297595"><ele>269.6666666666667</ele><time>2026-04-03T13:41:02.701Z</time></trkpt><trkpt lat="43.1184374" lon="11.9300461"><ele>269.0</ele><time>2026-04-03T13:41:03.701Z</time></trkpt><trkpt lat="43.1185405" lon="11.9303456"><ele>273.5</ele><time>2026-04-03T13:41:04.701Z</time></trkpt><trkpt lat="43.1186454" lon="11.9306523"><ele>278.0</ele><time>2026-04-03T13:41:05.702Z</time></trkpt><trkpt lat="43.1187512" lon="11.9309657"><ele>282.0</ele><time>2026-04-03T13:41:06.701Z</time></trkpt><trkpt lat="43.1188606" lon="11.9312856"><ele>286.0</ele><time>2026-04-03T13:41:07.702Z</time></trkpt><trkpt lat="43.1189702" lon="11.9316101"><ele>283.0</ele><time>2026-04-03T13:41:08.701Z</time></trkpt><trkpt lat="43.1190796" lon="11.9319393"><ele>280.0</ele><time>2026-04-03T13:41:09.702Z</time></trkpt><trkpt lat="43.1191936" lon="11.9322719"><ele>281.5</ele><time>2026-04-03T13:41:10.702Z</time></trkpt><trkpt lat="43.1193044" lon="11.9326062"><ele>283.0</ele><time>2026-04-03T13:41:11.702Z</time></trkpt><trkpt lat="43.1194227" lon="11.9329228"><ele>283.0</ele><time>2026-04-03T13:41:12.702Z</time></trkpt><trkpt lat="43.1195293" lon="11.9331995"><ele>283.0</ele><time>2026-04-03T13:41:13.701Z</time></trkpt><trkpt lat="43.1196362" lon="11.9334393"><ele>283.0</ele><time>2026-04-03T13:41:14.702Z</time></trkpt><trkpt lat="43.1197402" lon="11.9336458"><ele>284.66666666666663</ele><time>2026-04-03T13:41:15.702Z</time></trkpt><trkpt lat="43.1198741" lon="11.9338223"><ele>286.3333333333333</ele><time>2026-04-03T13:41:16.701Z</time></trkpt><trkpt lat="43.1200309" lon="11.9339653"><ele>288.0</ele><time>2026-04-03T13:41:17.701Z</time></trkpt><trkpt lat="43.1202029" lon="11.9340699"><ele>288.0</ele><time>2026-04-03T13:41:18.702Z</time></trkpt><trkpt lat="43.1203892" lon="11.9341396"><ele>288.0</ele><time>2026-04-03T13:41:19.702Z</time></trkpt><trkpt lat="43.1205814" lon="11.9341943"><ele>288.0</ele><time>2026-04-03T13:41:20.702Z</time></trkpt><trkpt lat="43.120782" lon="11.9342633"><ele>290.6666666666667</ele><time>2026-04-03T13:41:21.701Z</time></trkpt><trkpt lat="43.1209787" lon="11.9343783"><ele>293.33333333333337</ele><time>2026-04-03T13:41:22.702Z</time></trkpt><trkpt lat="43.121176" lon="11.9345204"><ele>296.0</ele><time>2026-04-03T13:41:23.701Z</time></trkpt><trkpt lat="43.1213731" lon="11.9346708"><ele>293.0</ele><time>2026-04-03T13:41:24.701Z</time></trkpt><trkpt lat="43.1215769" lon="11.9348085"><ele>290.0</ele><time>2026-04-03T13:41:25.702Z</time></trkpt><trkpt lat="43.1217787" lon="11.9349447"><ele>295.5</ele><time>2026-04-03T13:41:26.702Z</time></trkpt><trkpt lat="43.1219883" lon="11.9350652"><ele>301.0</ele><time>2026-04-03T13:41:27.702Z</time></trkpt><trkpt lat="43.1222102" lon="11.9351748"><ele>302.0</ele><time>2026-04-03T13:41:28.701Z</time></trkpt><trkpt lat="43.1224386" lon="11.9352783"><ele>303.0</ele><time>2026-04-03T13:41:29.702Z</time></trkpt><trkpt lat="43.1226618" lon="11.9353814"><ele>303.0</ele><time>2026-04-03T13:41:30.702Z</time></trkpt><trkpt lat="43.1228768" lon="11.9354892"><ele>303.0</ele><time>2026-04-03T13:41:31.701Z</time></trkpt><trkpt lat="43.1231052" lon="11.9355937"><ele>303.5</ele><time>2026-04-03T13:41:32.702Z</time></trkpt><trkpt lat="43.1233397" lon="11.9356982"><ele>304.0</ele><time>2026-04-03T13:41:33.702Z</time></trkpt><trkpt lat="43.1235716" lon="11.935802"><ele>307.3333333333333</ele><time>2026-04-03T13:41:34.701Z</time></trkpt><trkpt lat="43.1237858" lon="11.935897"><ele>310.6666666666667</ele><time>2026-04-03T13:41:35.702Z</time></trkpt><trkpt lat="43.1239805" lon="11.9359972"><ele>314.0</ele><time>2026-04-03T13:41:36.701Z</time></trkpt><trkpt lat="43.1241544" lon="11.9361117"><ele>314.33333333333337</ele><time>2026-04-03T13:41:37.702Z</time></trkpt><trkpt lat="43.1243198" lon="11.9362536"><ele>314.6666666666667</ele><time>2026-04-03T13:41:38.701Z</time></trkpt><trkpt lat="43.1244742" lon="11.9364255"><ele>315.0</ele><time>2026-04-03T13:41:39.702Z</time></trkpt><trkpt lat="43.1246197" lon="11.9366197"><ele>316.0</ele><time>2026-04-03T13:41:40.702Z</time></trkpt><trkpt lat="43.1247536" lon="11.9368289"><ele>317.0</ele><time>2026-04-03T13:41:41.702Z</time></trkpt><trkpt lat="43.1248727" lon="11.9370505"><ele>318.0</ele><time>2026-04-03T13:41:42.702Z</time></trkpt><trkpt lat="43.124994" lon="11.9372867"><ele>318.0</ele><time>2026-04-03T13:41:43.701Z</time></trkpt><trkpt lat="43.1251123" lon="11.937526"><ele>318.0</ele><time>2026-04-03T13:41:44.702Z</time></trkpt><trkpt lat="43.12523" lon="11.9377763"><ele>318.0</ele><time>2026-04-03T13:41:45.702Z</time></trkpt><trkpt lat="43.1253541" lon="11.9380196"><ele>318.6666666666667</ele><time>2026-04-03T13:41:46.702Z</time></trkpt><trkpt lat="43.1254924" lon="11.9382507"><ele>319.33333333333337</ele><time>2026-04-03T13:41:47.701Z</time></trkpt><trkpt lat="43.1256479" lon="11.9384705"><ele>320.0</ele><time>2026-04-03T13:41:48.701Z</time></trkpt><trkpt lat="43.1258122" lon="11.9386875"><ele>321.5</ele><time>2026-04-03T13:41:49.702Z</time></trkpt><trkpt lat="43.1259785" lon="11.9389042"><ele>323.0</ele><time>2026-04-03T13:41:50.701Z</time></trkpt><trkpt lat="43.1261352" lon="11.9391295"><ele>322.33333333333337</ele><time>2026-04-03T13:41:51.701Z</time></trkpt><trkpt lat="43.1262766" lon="11.9393471"><ele>321.6666666666667</ele><time>2026-04-03T13:41:52.702Z</time></trkpt><trkpt lat="43.1263983" lon="11.9395505"><ele>321.0</ele><time>2026-04-03T13:41:53.701Z</time></trkpt><trkpt lat="43.1265088" lon="11.939743"><ele>320.6666666666667</ele><time>2026-04-03T13:41:54.701Z</time></trkpt><trkpt lat="43.1266155" lon="11.9399269"><ele>320.33333333333337</ele><time>2026-04-03T13:41:55.701Z</time></trkpt><trkpt lat="43.1267301" lon="11.9401209"><ele>320.0</ele><time>2026-04-03T13:41:56.702Z</time></trkpt><trkpt lat="43.126855" lon="11.9403229"><ele>320.0</ele><time>2026-04-03T13:41:57.702Z</time></trkpt><trkpt lat="43.1269989" lon="11.9405308"><ele>320.0</ele><time>2026-04-03T13:41:58.702Z</time></trkpt><trkpt lat="43.1271639" lon="11.9407363"><ele>320.0</ele><time>2026-04-03T13:41:59.702Z</time></trkpt><trkpt lat="43.1273392" lon="11.9409594"><ele>319.0</ele><time>2026-04-03T13:42:00.701Z</time></trkpt><trkpt lat="43.1275079" lon="11.9411854"><ele>318.0</ele><time>2026-04-03T13:42:01.702Z</time></trkpt><trkpt lat="43.1276637" lon="11.9413917"><ele>318.0</ele><time>2026-04-03T13:42:02.701Z</time></trkpt><trkpt lat="43.1278066" lon="11.9415809"><ele>318.0</ele><time>2026-04-03T13:42:03.701Z</time></trkpt><trkpt lat="43.1279429" lon="11.9417472"><ele>318.0</ele><time>2026-04-03T13:42:04.702Z</time></trkpt><trkpt lat="43.1280647" lon="11.9419065"><ele>317.3333333333333</ele><time>2026-04-03T13:42:05.702Z</time></trkpt><trkpt lat="43.1281717" lon="11.9420795"><ele>316.66666666666663</ele><time>2026-04-03T13:42:06.701Z</time></trkpt><trkpt lat="43.1282604" lon="11.9422889"><ele>316.0</ele><time>2026-04-03T13:42:07.702Z</time></trkpt><trkpt lat="43.1283241" lon="11.9425217"><ele>316.0</ele><time>2026-04-03T13:42:08.702Z</time></trkpt><trkpt lat="43.1283533" lon="11.9427794"><ele>316.0</ele><time>2026-04-03T13:42:09.702Z</time></trkpt><trkpt lat="43.1283575" lon="11.9430568"><ele>316.0</ele><time>2026-04-03T13:42:10.702Z</time></trkpt><trkpt lat="43.1283456" lon="11.943342"><ele>317.0</ele><time>2026-04-03T13:42:11.702Z</time></trkpt><trkpt lat="43.1283276" lon="11.9436136"><ele>318.0</ele><time>2026-04-03T13:42:12.702Z</time></trkpt><trkpt lat="43.1282924" lon="11.9438558"><ele>319.0</ele><time>2026-04-03T13:42:13.701Z</time></trkpt><trkpt lat="43.1282363" lon="11.944068"><ele>320.66666666666663</ele><time>2026-04-03T13:42:14.701Z</time></trkpt><trkpt lat="43.1281517" lon="11.9442586"><ele>322.3333333333333</ele><time>2026-04-03T13:42:15.702Z</time></trkpt><trkpt lat="43.1280328" lon="11.9444237"><ele>324.0</ele><time>2026-04-03T13:42:16.702Z</time></trkpt><trkpt lat="43.1278845" lon="11.9445705"><ele>324.0</ele><time>2026-04-03T13:42:17.702Z</time></trkpt><trkpt lat="43.1277291" lon="11.9446967"><ele>324.0</ele><time>2026-04-03T13:42:18.701Z</time></trkpt><trkpt lat="43.1275887" lon="11.9448293"><ele>324.0</ele><time>2026-04-03T13:42:19.701Z</time></trkpt><trkpt lat="43.1274719" lon="11.944975"><ele>325.6666666666667</ele><time>2026-04-03T13:42:20.702Z</time></trkpt><trkpt lat="43.1274054" lon="11.9451439"><ele>327.33333333333337</ele><time>2026-04-03T13:42:21.702Z</time></trkpt><trkpt lat="43.1273665" lon="11.9453464"><ele>329.0</ele><time>2026-04-03T13:42:22.702Z</time></trkpt><trkpt lat="43.1273482" lon="11.9455936"><ele>326.33333333333337</ele><time>2026-04-03T13:42:23.702Z</time></trkpt><trkpt lat="43.1273435" lon="11.9458561"><ele>323.6666666666667</ele><time>2026-04-03T13:42:24.702Z</time></trkpt><trkpt lat="43.1273491" lon="11.946129"><ele>321.0</ele><time>2026-04-03T13:42:25.702Z</time></trkpt><trkpt lat="43.1273799" lon="11.9464035"><ele>325.6666666666667</ele><time>2026-04-03T13:42:26.702Z</time></trkpt><trkpt lat="43.1274398" lon="11.9466758"><ele>330.33333333333337</ele><time>2026-04-03T13:42:27.702Z</time></trkpt><trkpt lat="43.1274769" lon="11.9469264"><ele>335.0</ele><time>2026-04-03T13:42:28.701Z</time></trkpt><trkpt lat="43.1274729" lon="11.9471712"><ele>336.33333333333337</ele><time>2026-04-03T13:42:29.702Z</time></trkpt><trkpt lat="43.127441" lon="11.9473998"><ele>337.6666666666667</ele><time>2026-04-03T13:42:30.701Z</time></trkpt><trkpt lat="43.1273779" lon="11.9476427"><ele>339.0</ele><time>2026-04-03T13:42:31.702Z</time></trkpt><trkpt lat="43.1272936" lon="11.9478965"><ele>340.3333333333333</ele><time>2026-04-03T13:42:32.701Z</time></trkpt><trkpt lat="43.1272091" lon="11.9481559"><ele>341.66666666666663</ele><time>2026-04-03T13:42:33.702Z</time></trkpt><trkpt lat="43.127126" lon="11.9484172"><ele>343.0</ele><time>2026-04-03T13:42:34.701Z</time></trkpt><trkpt lat="43.127058" lon="11.9486495"><ele>343.5</ele><time>2026-04-03T13:42:35.702Z</time></trkpt><trkpt lat="43.1269904" lon="11.9488335"><ele>344.0</ele><time>2026-04-03T13:42:36.701Z</time></trkpt><trkpt lat="43.1269081" lon="11.9489908"><ele>344.5</ele><time>2026-04-03T13:42:37.702Z</time></trkpt><trkpt lat="43.1267974" lon="11.9491245"><ele>345.0</ele><time>2026-04-03T13:42:38.702Z</time></trkpt><trkpt lat="43.1266621" lon="11.9492522"><ele>348.0</ele><time>2026-04-03T13:42:39.702Z</time></trkpt><trkpt lat="43.1265117" lon="11.9494035"><ele>351.0</ele><time>2026-04-03T13:42:40.702Z</time></trkpt><trkpt lat="43.1263556" lon="11.9495944"><ele>354.0</ele><time>2026-04-03T13:42:41.701Z</time></trkpt><trkpt lat="43.1261973" lon="11.9498024"><ele>354.0</ele><time>2026-04-03T13:42:42.701Z</time></trkpt><trkpt lat="43.1260297" lon="11.9500381"><ele>354.0</ele><time>2026-04-03T13:42:43.702Z</time></trkpt><trkpt lat="43.1258643" lon="11.9502826"><ele>353.6666666666667</ele><time>2026-04-03T13:42:44.701Z</time></trkpt><trkpt lat="43.1257075" lon="11.9505164"><ele>353.33333333333337</ele><time>2026-04-03T13:42:45.702Z</time></trkpt><trkpt lat="43.1255509" lon="11.9507191"><ele>353.0</ele><time>2026-04-03T13:42:46.702Z</time></trkpt><trkpt lat="43.125404" lon="11.9509166"><ele>353.0</ele><time>2026-04-03T13:42:47.702Z</time></trkpt><trkpt lat="43.1252425" lon="11.9511077"><ele>353.0</ele><time>2026-04-03T13:42:48.702Z</time></trkpt><trkpt lat="43.1250737" lon="11.9512837"><ele>353.0</ele><time>2026-04-03T13:42:49.702Z</time></trkpt><trkpt lat="43.1248904" lon="11.9514606"><ele>352.33333333333337</ele><time>2026-04-03T13:42:50.701Z</time></trkpt><trkpt lat="43.1247157" lon="11.9516406"><ele>351.6666666666667</ele><time>2026-04-03T13:42:51.702Z</time></trkpt><trkpt lat="43.1245578" lon="11.9518234"><ele>351.0</ele><time>2026-04-03T13:42:52.701Z</time></trkpt><trkpt lat="43.1244176" lon="11.9520134"><ele>349.0</ele><time>2026-04-03T13:42:53.702Z</time></trkpt><trkpt lat="43.1243039" lon="11.9522126"><ele>347.0</ele><time>2026-04-03T13:42:54.702Z</time></trkpt><trkpt lat="43.1241293" lon="11.952597"><ele>345.75</ele><time>2026-04-03T13:42:56.701Z</time></trkpt><trkpt lat="43.1240784" lon="11.9527753"><ele>344.5</ele><time>2026-04-03T13:42:57.702Z</time></trkpt><trkpt lat="43.1240394" lon="11.952949"><ele>343.25</ele><time>2026-04-03T13:42:58.702Z</time></trkpt><trkpt lat="43.1240017" lon="11.9531147"><ele>342.0</ele><time>2026-04-03T13:42:59.702Z</time></trkpt><trkpt lat="43.1239541" lon="11.9532655"><ele>342.0</ele><time>2026-04-03T13:43:00.701Z</time></trkpt><trkpt lat="43.1238976" lon="11.9534071"><ele>342.0</ele><time>2026-04-03T13:43:01.702Z</time></trkpt><trkpt lat="43.123838" lon="11.9535545"><ele>342.0</ele><time>2026-04-03T13:43:02.702Z</time></trkpt><trkpt lat="43.123759" lon="11.9537112"><ele>342.0</ele><time>2026-04-03T13:43:03.701Z</time></trkpt><trkpt lat="43.1236715" lon="11.9538785"><ele>342.0</ele><time>2026-04-03T13:43:04.701Z</time></trkpt><trkpt lat="43.1235631" lon="11.9540452"><ele>342.0</ele><time>2026-04-03T13:43:05.701Z</time></trkpt><trkpt lat="43.1234461" lon="11.9542183"><ele>342.0</ele><time>2026-04-03T13:43:06.702Z</time></trkpt><trkpt lat="43.1233284" lon="11.954398"><ele>343.6666666666667</ele><time>2026-04-03T13:43:07.702Z</time></trkpt><trkpt lat="43.1232048" lon="11.9545812"><ele>345.33333333333337</ele><time>2026-04-03T13:43:08.701Z</time></trkpt><trkpt lat="43.1230812" lon="11.9547723"><ele>347.0</ele><time>2026-04-03T13:43:09.701Z</time></trkpt><trkpt lat="43.1229569" lon="11.9549584"><ele>348.6666666666667</ele><time>2026-04-03T13:43:10.702Z</time></trkpt><trkpt lat="43.1228305" lon="11.9551191"><ele>350.3333333333333</ele><time>2026-04-03T13:43:11.701Z</time></trkpt><trkpt lat="43.122714" lon="11.9552621"><ele>352.0</ele><time>2026-04-03T13:43:12.702Z</time></trkpt><trkpt lat="43.1225973" lon="11.9553869"><ele>352.0</ele><time>2026-04-03T13:43:13.702Z</time></trkpt><trkpt lat="43.1224795" lon="11.9554967"><ele>352.0</ele><time>2026-04-03T13:43:14.702Z</time></trkpt><trkpt lat="43.1223674" lon="11.9555942"><ele>352.0</ele><time>2026-04-03T13:43:15.701Z</time></trkpt><trkpt lat="43.122256" lon="11.9556897"><ele>352.0</ele><time>2026-04-03T13:43:16.702Z</time></trkpt><trkpt lat="43.1221424" lon="11.9557825"><ele>353.0</ele><time>2026-04-03T13:43:17.702Z</time></trkpt><trkpt lat="43.1220379" lon="11.9558768"><ele>354.0</ele><time>2026-04-03T13:43:18.702Z</time></trkpt><trkpt lat="43.1219341" lon="11.9559679"><ele>355.0</ele><time>2026-04-03T13:43:19.702Z</time></trkpt><trkpt lat="43.1218394" lon="11.9560495"><ele>356.0</ele><time>2026-04-03T13:43:20.702Z</time></trkpt><trkpt lat="43.1217471" lon="11.9561156"><ele>356.0</ele><time>2026-04-03T13:43:21.701Z</time></trkpt><trkpt lat="43.1216666" lon="11.9561898"><ele>356.0</ele><time>2026-04-03T13:43:22.702Z</time></trkpt><trkpt lat="43.1215901" lon="11.9562606"><ele>356.0</ele><time>2026-04-03T13:43:23.702Z</time></trkpt><trkpt lat="43.1215116" lon="11.9563599"><ele>356.0</ele><time>2026-04-03T13:43:24.701Z</time></trkpt><trkpt lat="43.1214527" lon="11.9564841"><ele>356.0</ele><time>2026-04-03T13:43:25.701Z</time></trkpt><trkpt lat="43.121414" lon="11.9566065"><ele>356.8</ele><time>2026-04-03T13:43:26.702Z</time></trkpt><trkpt lat="43.1213862" lon="11.9567307"><ele>357.6</ele><time>2026-04-03T13:43:27.701Z</time></trkpt><trkpt lat="43.121333" lon="11.9568478"><ele>358.4</ele><time>2026-04-03T13:43:28.701Z</time></trkpt><trkpt lat="43.1212739" lon="11.9569705"><ele>359.2</ele><time>2026-04-03T13:43:29.702Z</time></trkpt><trkpt lat="43.1212103" lon="11.9571078"><ele>360.0</ele><time>2026-04-03T13:43:30.702Z</time></trkpt><trkpt lat="43.1211545" lon="11.9572298"><ele>360.0</ele><time>2026-04-03T13:43:31.701Z</time></trkpt><trkpt lat="43.1211129" lon="11.9573563"><ele>360.0</ele><time>2026-04-03T13:43:32.701Z</time></trkpt><trkpt lat="43.1210895" lon="11.9575039"><ele>360.0</ele><time>2026-04-03T13:43:33.702Z</time></trkpt><trkpt lat="43.1210746" lon="11.957675"><ele>360.0</ele><time>2026-04-03T13:43:34.702Z</time></trkpt><trkpt lat="43.121068" lon="11.9578641"><ele>359.3333333333333</ele><time>2026-04-03T13:43:35.701Z</time></trkpt><trkpt lat="43.1210722" lon="11.9580666"><ele>358.66666666666663</ele><time>2026-04-03T13:43:36.701Z</time></trkpt><trkpt lat="43.1210675" lon="11.9582761"><ele>358.0</ele><time>2026-04-03T13:43:37.701Z</time></trkpt><trkpt lat="43.1210598" lon="11.9584987"><ele>358.0</ele><time>2026-04-03T13:43:38.701Z</time></trkpt><trkpt lat="43.1210505" lon="11.958722"><ele>358.0</ele><time>2026-04-03T13:43:39.702Z</time></trkpt><trkpt lat="43.1210386" lon="11.9589442"><ele>358.0</ele><time>2026-04-03T13:43:40.701Z</time></trkpt><trkpt lat="43.1210302" lon="11.9591444"><ele>357.3333333333333</ele><time>2026-04-03T13:43:41.701Z</time></trkpt><trkpt lat="43.1210209" lon="11.9593478"><ele>356.6666666666667</ele><time>2026-04-03T13:43:42.701Z</time></trkpt><trkpt lat="43.121017" lon="11.9595807"><ele>356.0</ele><time>2026-04-03T13:43:43.701Z</time></trkpt><trkpt lat="43.1210024" lon="11.9598326"><ele>355.6666666666667</ele><time>2026-04-03T13:43:44.701Z</time></trkpt><trkpt lat="43.1209797" lon="11.9600999"><ele>355.3333333333333</ele><time>2026-04-03T13:43:45.702Z</time></trkpt><trkpt lat="43.1209589" lon="11.9603796"><ele>355.0</ele><time>2026-04-03T13:43:46.701Z</time></trkpt><trkpt lat="43.1209364" lon="11.9606733"><ele>354.5</ele><time>2026-04-03T13:43:47.702Z</time></trkpt><trkpt lat="43.1209143" lon="11.9609774"><ele>354.0</ele><time>2026-04-03T13:43:48.701Z</time></trkpt><trkpt lat="43.1208916" lon="11.9612994"><ele>354.0</ele><time>2026-04-03T13:43:49.702Z</time></trkpt><trkpt lat="43.1208729" lon="11.9616326"><ele>354.0</ele><time>2026-04-03T13:43:50.702Z</time></trkpt><trkpt lat="43.1208535" lon="11.9619796"><ele>354.0</ele><time>2026-04-03T13:43:51.702Z</time></trkpt><trkpt lat="43.120834" lon="11.9623375"><ele>354.0</ele><time>2026-04-03T13:43:52.702Z</time></trkpt><trkpt lat="43.1208177" lon="11.9626908"><ele>353.5</ele><time>2026-04-03T13:43:53.701Z</time></trkpt><trkpt lat="43.1207997" lon="11.9630329"><ele>353.0</ele><time>2026-04-03T13:43:54.702Z</time></trkpt><trkpt lat="43.1207775" lon="11.9633624"><ele>352.0</ele><time>2026-04-03T13:43:55.702Z</time></trkpt><trkpt lat="43.1207579" lon="11.9636728"><ele>351.0</ele><time>2026-04-03T13:43:56.701Z</time></trkpt><trkpt lat="43.1207455" lon="11.9639631"><ele>350.0</ele><time>2026-04-03T13:43:57.701Z</time></trkpt><trkpt lat="43.1207259" lon="11.9642472"><ele>349.33333333333337</ele><time>2026-04-03T13:43:58.702Z</time></trkpt><trkpt lat="43.1206819" lon="11.9645312"><ele>348.6666666666667</ele><time>2026-04-03T13:43:59.701Z</time></trkpt><trkpt lat="43.1206173" lon="11.9648185"><ele>348.0</ele><time>2026-04-03T13:44:00.702Z</time></trkpt><trkpt lat="43.1205461" lon="11.9651002"><ele>347.0</ele><time>2026-04-03T13:44:01.701Z</time></trkpt><trkpt lat="43.1204806" lon="11.9653667"><ele>346.0</ele><time>2026-04-03T13:44:02.702Z</time></trkpt><trkpt lat="43.1204187" lon="11.9656043"><ele>345.0</ele><time>2026-04-03T13:44:03.701Z</time></trkpt><trkpt lat="43.120367" lon="11.9658381"><ele>344.3333333333333</ele><time>2026-04-03T13:44:04.702Z</time></trkpt><trkpt lat="43.1203326" lon="11.9660767"><ele>343.66666666666663</ele><time>2026-04-03T13:44:05.702Z</time></trkpt><trkpt lat="43.1203118" lon="11.9663179"><ele>343.0</ele><time>2026-04-03T13:44:06.702Z</time></trkpt><trkpt lat="43.1203045" lon="11.9665536"><ele>342.0</ele><time>2026-04-03T13:44:07.702Z</time></trkpt><trkpt lat="43.1202973" lon="11.9667729"><ele>341.0</ele><time>2026-04-03T13:44:08.701Z</time></trkpt><trkpt lat="43.1202885" lon="11.9669814"><ele>340.0</ele><time>2026-04-03T13:44:09.702Z</time></trkpt><trkpt lat="43.1202816" lon="11.9671757"><ele>340.0</ele><time>2026-04-03T13:44:10.702Z</time></trkpt><trkpt lat="43.1202752" lon="11.9673721"><ele>340.0</ele><time>2026-04-03T13:44:11.702Z</time></trkpt><trkpt lat="43.1202794" lon="11.9675619"><ele>340.0</ele><time>2026-04-03T13:44:12.702Z</time></trkpt><trkpt lat="43.1203127" lon="11.9677516"><ele>340.0</ele><time>2026-04-03T13:44:13.702Z</time></trkpt><trkpt lat="43.120378" lon="11.9679441"><ele>340.0</ele><time>2026-04-03T13:44:14.702Z</time></trkpt><trkpt lat="43.1204757" lon="11.9681527"><ele>340.0</ele><time>2026-04-03T13:44:15.702Z</time></trkpt><trkpt lat="43.1205753" lon="11.9683939"><ele>340.0</ele><time>2026-04-03T13:44:16.701Z</time></trkpt><trkpt lat="43.120681" lon="11.9686737"><ele>337.5</ele><time>2026-04-03T13:44:17.702Z</time></trkpt><trkpt lat="43.1207975" lon="11.9689776"><ele>335.0</ele><time>2026-04-03T13:44:18.701Z</time></trkpt><trkpt lat="43.1209197" lon="11.9692928"><ele>335.0</ele><time>2026-04-03T13:44:19.701Z</time></trkpt><trkpt lat="43.1210368" lon="11.9695819"><ele>335.0</ele><time>2026-04-03T13:44:20.702Z</time></trkpt><trkpt lat="43.1211415" lon="11.9698395"><ele>334.6666666666667</ele><time>2026-04-03T13:44:21.701Z</time></trkpt><trkpt lat="43.1212387" lon="11.970069"><ele>334.3333333333333</ele><time>2026-04-03T13:44:22.701Z</time></trkpt><trkpt lat="43.1213241" lon="11.9702821"><ele>334.0</ele><time>2026-04-03T13:44:23.7Z</time></trkpt><trkpt lat="43.1213798" lon="11.970498"><ele>334.0</ele><time>2026-04-03T13:44:24.701Z</time></trkpt><trkpt lat="43.1213895" lon="11.9707084"><ele>334.0</ele><time>2026-04-03T13:44:25.7Z</time></trkpt><trkpt lat="43.1213642" lon="11.9709468"><ele>334.0</ele><time>2026-04-03T13:44:26.701Z</time></trkpt><trkpt lat="43.1212974" lon="11.9711943"><ele>333.0</ele><time>2026-04-03T13:44:27.701Z</time></trkpt><trkpt lat="43.1212169" lon="11.9714752"><ele>332.0</ele><time>2026-04-03T13:44:28.7Z</time></trkpt><trkpt lat="43.121131" lon="11.9717808"><ele>331.5</ele><time>2026-04-03T13:44:29.701Z</time></trkpt><trkpt lat="43.1210434" lon="11.9721177"><ele>331.0</ele><time>2026-04-03T13:44:30.701Z</time></trkpt><trkpt lat="43.1209434" lon="11.9724714"><ele>331.5</ele><time>2026-04-03T13:44:31.701Z</time></trkpt><trkpt lat="43.1208323" lon="11.9728477"><ele>332.0</ele><time>2026-04-03T13:44:32.7Z</time></trkpt><trkpt lat="43.1207265" lon="11.9732081"><ele>331.0</ele><time>2026-04-03T13:44:33.701Z</time></trkpt><trkpt lat="43.1206262" lon="11.9735525"><ele>330.0</ele><time>2026-04-03T13:44:34.701Z</time></trkpt><trkpt lat="43.1205345" lon="11.9738726"><ele>330.0</ele><time>2026-04-03T13:44:35.701Z</time></trkpt><trkpt lat="43.1204491" lon="11.9741907"><ele>330.0</ele><time>2026-04-03T13:44:36.701Z</time></trkpt><trkpt lat="43.1203754" lon="11.9745068"><ele>330.0</ele><time>2026-04-03T13:44:37.701Z</time></trkpt><trkpt lat="43.1203226" lon="11.9748296"><ele>330.0</ele><time>2026-04-03T13:44:38.701Z</time></trkpt><trkpt lat="43.120284" lon="11.9751529"><ele>330.5</ele><time>2026-04-03T13:44:39.701Z</time></trkpt><trkpt lat="43.1202667" lon="11.9754806"><ele>331.0</ele><time>2026-04-03T13:44:40.7Z</time></trkpt><trkpt lat="43.1202752" lon="11.9758108"><ele>331.5</ele><time>2026-04-03T13:44:41.7Z</time></trkpt><trkpt lat="43.1202981" lon="11.9761441"><ele>332.0</ele><time>2026-04-03T13:44:42.7Z</time></trkpt><trkpt lat="43.1203271" lon="11.9764792"><ele>332.0</ele><time>2026-04-03T13:44:43.701Z</time></trkpt><trkpt lat="43.1203554" lon="11.9768206"><ele>332.0</ele><time>2026-04-03T13:44:44.701Z</time></trkpt><trkpt lat="43.1203826" lon="11.977162"><ele>332.0</ele><time>2026-04-03T13:44:45.7Z</time></trkpt><trkpt lat="43.1204127" lon="11.9775111"><ele>332.0</ele><time>2026-04-03T13:44:46.701Z</time></trkpt><trkpt lat="43.1204396" lon="11.9778587"><ele>331.0</ele><time>2026-04-03T13:44:47.701Z</time></trkpt><trkpt lat="43.1204702" lon="11.9782108"><ele>330.0</ele><time>2026-04-03T13:44:48.701Z</time></trkpt><trkpt lat="43.1205017" lon="11.9785624"><ele>328.5</ele><time>2026-04-03T13:44:49.701Z</time></trkpt><trkpt lat="43.1205303" lon="11.9789222"><ele>327.0</ele><time>2026-04-03T13:44:50.701Z</time></trkpt><trkpt lat="43.1205592" lon="11.979285"><ele>326.5</ele><time>2026-04-03T13:44:51.7Z</time></trkpt><trkpt lat="43.1205935" lon="11.9796466"><ele>326.0</ele><time>2026-04-03T13:44:52.701Z</time></trkpt><trkpt lat="43.1206271" lon="11.9800095"><ele>325.0</ele><time>2026-04-03T13:44:53.7Z</time></trkpt><trkpt lat="43.1206609" lon="11.9803701"><ele>324.0</ele><time>2026-04-03T13:44:54.7Z</time></trkpt><trkpt lat="43.1206916" lon="11.9807309"><ele>324.0</ele><time>2026-04-03T13:44:55.7Z</time></trkpt><trkpt lat="43.1207258" lon="11.9810874"><ele>324.0</ele><time>2026-04-03T13:44:56.7Z</time></trkpt><trkpt lat="43.1207582" lon="11.9814277"><ele>325.5</ele><time>2026-04-03T13:44:57.701Z</time></trkpt><trkpt lat="43.1207869" lon="11.9817484"><ele>327.0</ele><time>2026-04-03T13:44:58.7Z</time></trkpt><trkpt lat="43.1208121" lon="11.9820625"><ele>327.0</ele><time>2026-04-03T13:44:59.701Z</time></trkpt><trkpt lat="43.1208374" lon="11.9823643"><ele>327.0</ele><time>2026-04-03T13:45:00.701Z</time></trkpt><trkpt lat="43.1208613" lon="11.9826684"><ele>327.0</ele><time>2026-04-03T13:45:01.701Z</time></trkpt><trkpt lat="43.1208835" lon="11.982974"><ele>326.3333333333333</ele><time>2026-04-03T13:45:02.7Z</time></trkpt><trkpt lat="43.1209108" lon="11.9832749"><ele>325.66666666666663</ele><time>2026-04-03T13:45:03.701Z</time></trkpt><trkpt lat="43.1209347" lon="11.9835716"><ele>325.0</ele><time>2026-04-03T13:45:04.701Z</time></trkpt><trkpt lat="43.1209559" lon="11.9838619"><ele>324.3333333333333</ele><time>2026-04-03T13:45:05.7Z</time></trkpt><trkpt lat="43.1209723" lon="11.9841337"><ele>323.6666666666667</ele><time>2026-04-03T13:45:06.701Z</time></trkpt><trkpt lat="43.1209969" lon="11.9843864"><ele>323.0</ele><time>2026-04-03T13:45:07.7Z</time></trkpt><trkpt lat="43.1210174" lon="11.9846259"><ele>323.0</ele><time>2026-04-03T13:45:08.701Z</time></trkpt><trkpt lat="43.1210374" lon="11.9848612"><ele>323.0</ele><time>2026-04-03T13:45:09.7Z</time></trkpt><trkpt lat="43.1210601" lon="11.9850871"><ele>323.0</ele><time>2026-04-03T13:45:10.701Z</time></trkpt><trkpt lat="43.1210898" lon="11.9853136"><ele>323.0</ele><time>2026-04-03T13:45:11.7Z</time></trkpt><trkpt lat="43.121134" lon="11.9855478"><ele>323.0</ele><time>2026-04-03T13:45:12.701Z</time></trkpt><trkpt lat="43.1211962" lon="11.9857897"><ele>323.0</ele><time>2026-04-03T13:45:13.701Z</time></trkpt><trkpt lat="43.1212782" lon="11.9860261"><ele>321.33333333333337</ele><time>2026-04-03T13:45:14.7Z</time></trkpt><trkpt lat="43.1213841" lon="11.98626"><ele>319.6666666666667</ele><time>2026-04-03T13:45:15.701Z</time></trkpt><trkpt lat="43.1215201" lon="11.9864906"><ele>318.0</ele><time>2026-04-03T13:45:16.701Z</time></trkpt><trkpt lat="43.1216655" lon="11.9867385"><ele>318.0</ele><time>2026-04-03T13:45:17.701Z</time></trkpt><trkpt lat="43.1218159" lon="11.9870152"><ele>318.0</ele><time>2026-04-03T13:45:18.701Z</time></trkpt><trkpt lat="43.1219583" lon="11.9873056"><ele>316.0</ele><time>2026-04-03T13:45:19.701Z</time></trkpt><trkpt lat="43.1221086" lon="11.9876018"><ele>314.0</ele><time>2026-04-03T13:45:20.701Z</time></trkpt><trkpt lat="43.122266" lon="11.9878955"><ele>313.5</ele><time>2026-04-03T13:45:21.701Z</time></trkpt><trkpt lat="43.1224213" lon="11.9881835"><ele>313.0</ele><time>2026-04-03T13:45:22.7Z</time></trkpt><trkpt lat="43.1225753" lon="11.9884545"><ele>313.0</ele><time>2026-04-03T13:45:23.701Z</time></trkpt><trkpt lat="43.1227095" lon="11.9887107"><ele>313.0</ele><time>2026-04-03T13:45:24.701Z</time></trkpt><trkpt lat="43.1228309" lon="11.988942"><ele>313.0</ele><time>2026-04-03T13:45:25.701Z</time></trkpt><trkpt lat="43.122932" lon="11.9891533"><ele>312.0</ele><time>2026-04-03T13:45:26.701Z</time></trkpt><trkpt lat="43.1230188" lon="11.9893553"><ele>311.0</ele><time>2026-04-03T13:45:27.7Z</time></trkpt><trkpt lat="43.1230832" lon="11.9895683"><ele>310.0</ele><time>2026-04-03T13:45:28.701Z</time></trkpt><trkpt lat="43.1231237" lon="11.9898047"><ele>308.66666666666663</ele><time>2026-04-03T13:45:29.701Z</time></trkpt><trkpt lat="43.1231444" lon="11.9900554"><ele>307.3333333333333</ele><time>2026-04-03T13:45:30.701Z</time></trkpt><trkpt lat="43.1231369" lon="11.9903126"><ele>306.0</ele><time>2026-04-03T13:45:31.701Z</time></trkpt><trkpt lat="43.1231075" lon="11.9905861"><ele>306.0</ele><time>2026-04-03T13:45:32.7Z</time></trkpt><trkpt lat="43.1230655" lon="11.9908762"><ele>306.0</ele><time>2026-04-03T13:45:33.701Z</time></trkpt><trkpt lat="43.1230049" lon="11.9911802"><ele>306.0</ele><time>2026-04-03T13:45:34.701Z</time></trkpt><trkpt lat="43.1229359" lon="11.9915071"><ele>306.0</ele><time>2026-04-03T13:45:35.701Z</time></trkpt><trkpt lat="43.1228759" lon="11.9918247"><ele>306.0</ele><time>2026-04-03T13:45:36.701Z</time></trkpt><trkpt lat="43.122824" lon="11.9921187"><ele>306.0</ele><time>2026-04-03T13:45:37.7Z</time></trkpt><trkpt lat="43.1227621" lon="11.9924163"><ele>306.0</ele><time>2026-04-03T13:45:38.701Z</time></trkpt><trkpt lat="43.1227122" lon="11.992712"><ele>306.0</ele><time>2026-04-03T13:45:39.7Z</time></trkpt><trkpt lat="43.1226612" lon="11.9929742"><ele>305.0</ele><time>2026-04-03T13:45:40.701Z</time></trkpt><trkpt lat="43.1226174" lon="11.9932237"><ele>304.0</ele><time>2026-04-03T13:45:41.701Z</time></trkpt><trkpt lat="43.1225817" lon="11.9934721"><ele>303.0</ele><time>2026-04-03T13:45:42.701Z</time></trkpt><trkpt lat="43.1225698" lon="11.9937387"><ele>302.3333333333333</ele><time>2026-04-03T13:45:43.7Z</time></trkpt><trkpt lat="43.1225908" lon="11.9940208"><ele>301.66666666666663</ele><time>2026-04-03T13:45:44.701Z</time></trkpt><trkpt lat="43.1226268" lon="11.9943117"><ele>301.0</ele><time>2026-04-03T13:45:45.701Z</time></trkpt><trkpt lat="43.1226621" lon="11.9946016"><ele>300.0</ele><time>2026-04-03T13:45:46.701Z</time></trkpt><trkpt lat="43.1226982" lon="11.9948753"><ele>299.0</ele><time>2026-04-03T13:45:47.701Z</time></trkpt><trkpt lat="43.122731" lon="11.9951331"><ele>298.0</ele><time>2026-04-03T13:45:48.701Z</time></trkpt><trkpt lat="43.1227606" lon="11.9953774"><ele>296.66666666666663</ele><time>2026-04-03T13:45:49.701Z</time></trkpt><trkpt lat="43.1228046" lon="11.9956276"><ele>295.3333333333333</ele><time>2026-04-03T13:45:50.7Z</time></trkpt><trkpt lat="43.1228766" lon="11.9959093"><ele>294.0</ele><time>2026-04-03T13:45:51.701Z</time></trkpt><trkpt lat="43.1229738" lon="11.9962356"><ele>291.5</ele><time>2026-04-03T13:45:52.701Z</time></trkpt><trkpt lat="43.1230717" lon="11.996565"><ele>289.0</ele><time>2026-04-03T13:45:53.701Z</time></trkpt><trkpt lat="43.123155" lon="11.9968803"><ele>289.3333333333333</ele><time>2026-04-03T13:45:54.701Z</time></trkpt><trkpt lat="43.1232248" lon="11.9971702"><ele>289.6666666666667</ele><time>2026-04-03T13:45:55.701Z</time></trkpt><trkpt lat="43.1232985" lon="11.9974335"><ele>290.0</ele><time>2026-04-03T13:45:56.7Z</time></trkpt><trkpt lat="43.1233743" lon="11.9976833"><ele>289.33333333333337</ele><time>2026-04-03T13:45:57.701Z</time></trkpt><trkpt lat="43.1234426" lon="11.9979276"><ele>288.6666666666667</ele><time>2026-04-03T13:45:58.7Z</time></trkpt><trkpt lat="43.1235131" lon="11.9981681"><ele>288.0</ele><time>2026-04-03T13:45:59.701Z</time></trkpt><trkpt lat="43.1235766" lon="11.9984027"><ele>287.3333333333333</ele><time>2026-04-03T13:46:00.701Z</time></trkpt><trkpt lat="43.1236298" lon="11.9986374"><ele>286.66666666666663</ele><time>2026-04-03T13:46:01.701Z</time></trkpt><trkpt lat="43.1236722" lon="11.9988769"><ele>286.0</ele><time>2026-04-03T13:46:02.701Z</time></trkpt><trkpt lat="43.123681" lon="11.9991315"><ele>285.66666666666663</ele><time>2026-04-03T13:46:03.701Z</time></trkpt><trkpt lat="43.1236762" lon="11.9993784"><ele>285.3333333333333</ele><time>2026-04-03T13:46:04.7Z</time></trkpt><trkpt lat="43.123655" lon="11.9996056"><ele>285.0</ele><time>2026-04-03T13:46:05.701Z</time></trkpt><trkpt lat="43.1236109" lon="11.9998338"><ele>285.0</ele><time>2026-04-03T13:46:06.7Z</time></trkpt><trkpt lat="43.123544" lon="12.0000682"><ele>285.0</ele><time>2026-04-03T13:46:07.701Z</time></trkpt><trkpt lat="43.1234438" lon="12.0003123"><ele>285.0</ele><time>2026-04-03T13:46:08.701Z</time></trkpt><trkpt lat="43.1233323" lon="12.0005697"><ele>285.0</ele><time>2026-04-03T13:46:09.701Z</time></trkpt><trkpt lat="43.1231995" lon="12.000846"><ele>285.0</ele><time>2026-04-03T13:46:10.701Z</time></trkpt><trkpt lat="43.1230516" lon="12.001151"><ele>285.0</ele><time>2026-04-03T13:46:11.7Z</time></trkpt><trkpt lat="43.1228937" lon="12.0014732"><ele>285.0</ele><time>2026-04-03T13:46:12.7Z</time></trkpt><trkpt lat="43.1227196" lon="12.0018179"><ele>286.0</ele><time>2026-04-03T13:46:13.701Z</time></trkpt><trkpt lat="43.1225471" lon="12.0021354"><ele>287.0</ele><time>2026-04-03T13:46:14.701Z</time></trkpt><trkpt lat="43.12239" lon="12.002436"><ele>287.0</ele><time>2026-04-03T13:46:15.701Z</time></trkpt><trkpt lat="43.1222555" lon="12.0027096"><ele>287.0</ele><time>2026-04-03T13:46:16.701Z</time></trkpt><trkpt lat="43.1221349" lon="12.0029602"><ele>287.0</ele><time>2026-04-03T13:46:17.701Z</time></trkpt><trkpt lat="43.1220234" lon="12.0031978"><ele>287.0</ele><time>2026-04-03T13:46:18.701Z</time></trkpt><trkpt lat="43.1219229" lon="12.0034365"><ele>287.0</ele><time>2026-04-03T13:46:19.701Z</time></trkpt><trkpt lat="43.1218434" lon="12.0036871"><ele>288.0</ele><time>2026-04-03T13:46:20.701Z</time></trkpt><trkpt lat="43.1217847" lon="12.0039617"><ele>289.0</ele><time>2026-04-03T13:46:21.7Z</time></trkpt><trkpt lat="43.1217393" lon="12.0042466"><ele>290.0</ele><time>2026-04-03T13:46:22.701Z</time></trkpt><trkpt lat="43.1216954" lon="12.0045132"><ele>291.0</ele><time>2026-04-03T13:46:23.7Z</time></trkpt><trkpt lat="43.1216525" lon="12.0047552"><ele>292.0</ele><time>2026-04-03T13:46:24.701Z</time></trkpt><trkpt lat="43.1216112" lon="12.0049793"><ele>293.0</ele><time>2026-04-03T13:46:25.701Z</time></trkpt><trkpt lat="43.1215747" lon="12.0051964"><ele>292.75</ele><time>2026-04-03T13:46:26.7Z</time></trkpt><trkpt lat="43.1215415" lon="12.0054051"><ele>292.5</ele><time>2026-04-03T13:46:27.7Z</time></trkpt><trkpt lat="43.1215064" lon="12.0055914"><ele>292.25</ele><time>2026-04-03T13:46:28.7Z</time></trkpt><trkpt lat="43.1214816" lon="12.0057644"><ele>292.0</ele><time>2026-04-03T13:46:29.7Z</time></trkpt><trkpt lat="43.1214633" lon="12.0059333"><ele>292.0</ele><time>2026-04-03T13:46:30.701Z</time></trkpt><trkpt lat="43.1214585" lon="12.0061055"><ele>292.0</ele><time>2026-04-03T13:46:31.7Z</time></trkpt><trkpt lat="43.1214708" lon="12.0063018"><ele>292.0</ele><time>2026-04-03T13:46:32.7Z</time></trkpt><trkpt lat="43.1215027" lon="12.0065406"><ele>292.0</ele><time>2026-04-03T13:46:33.7Z</time></trkpt><trkpt lat="43.1215405" lon="12.0068186"><ele>293.0</ele><time>2026-04-03T13:46:34.7Z</time></trkpt><trkpt lat="43.1215737" lon="12.0071348"><ele>294.0</ele><time>2026-04-03T13:46:35.701Z</time></trkpt><trkpt lat="43.1216112" lon="12.0074769"><ele>293.5</ele><time>2026-04-03T13:46:36.701Z</time></trkpt><trkpt lat="43.1216498" lon="12.0078306"><ele>293.0</ele><time>2026-04-03T13:46:37.7Z</time></trkpt><trkpt lat="43.1216961" lon="12.0081827"><ele>293.5</ele><time>2026-04-03T13:46:38.7Z</time></trkpt><trkpt lat="43.1217432" lon="12.0085445"><ele>294.0</ele><time>2026-04-03T13:46:39.701Z</time></trkpt><trkpt lat="43.1217906" lon="12.0089108"><ele>293.5</ele><time>2026-04-03T13:46:40.7Z</time></trkpt><trkpt lat="43.1218357" lon="12.0092771"><ele>293.0</ele><time>2026-04-03T13:46:41.7Z</time></trkpt><trkpt lat="43.1218802" lon="12.0096295"><ele>293.0</ele><time>2026-04-03T13:46:42.7Z</time></trkpt><trkpt lat="43.1219259" lon="12.0099808"><ele>293.0</ele><time>2026-04-03T13:46:43.701Z</time></trkpt><trkpt lat="43.1219706" lon="12.0103335"><ele>292.0</ele><time>2026-04-03T13:46:44.701Z</time></trkpt><trkpt lat="43.1220154" lon="12.0106779"><ele>291.0</ele><time>2026-04-03T13:46:45.7Z</time></trkpt><trkpt lat="43.1220548" lon="12.0110092"><ele>288.5</ele><time>2026-04-03T13:46:46.701Z</time></trkpt><trkpt lat="43.1220954" lon="12.0113179"><ele>286.0</ele><time>2026-04-03T13:46:47.701Z</time></trkpt><trkpt lat="43.1221362" lon="12.0116162"><ele>285.0</ele><time>2026-04-03T13:46:48.701Z</time></trkpt><trkpt lat="43.1221718" lon="12.0119057"><ele>284.0</ele><time>2026-04-03T13:46:49.701Z</time></trkpt><trkpt lat="43.1222097" lon="12.0121852"><ele>283.0</ele><time>2026-04-03T13:46:50.7Z</time></trkpt><trkpt lat="43.1222432" lon="12.0124679"><ele>282.66666666666663</ele><time>2026-04-03T13:46:51.701Z</time></trkpt><trkpt lat="43.1222772" lon="12.0127577"><ele>282.3333333333333</ele><time>2026-04-03T13:46:52.701Z</time></trkpt><trkpt lat="43.1223149" lon="12.0130354"><ele>282.0</ele><time>2026-04-03T13:46:53.7Z</time></trkpt><trkpt lat="43.122344" lon="12.0132983"><ele>282.0</ele><time>2026-04-03T13:46:54.701Z</time></trkpt><trkpt lat="43.1223746" lon="12.0135511"><ele>282.0</ele><time>2026-04-03T13:46:55.701Z</time></trkpt><trkpt lat="43.1223999" lon="12.0137803"><ele>282.0</ele><time>2026-04-03T13:46:56.701Z</time></trkpt><trkpt lat="43.1224229" lon="12.0139831"><ele>281.0</ele><time>2026-04-03T13:46:57.701Z</time></trkpt><trkpt lat="43.1224439" lon="12.0141753"><ele>280.0</ele><time>2026-04-03T13:46:58.701Z</time></trkpt><trkpt lat="43.1224687" lon="12.0143571"><ele>279.0</ele><time>2026-04-03T13:46:59.701Z</time></trkpt><trkpt lat="43.1224922" lon="12.0145478"><ele>278.0</ele><time>2026-04-03T13:47:00.7Z</time></trkpt><trkpt lat="43.1225159" lon="12.0147498"><ele>278.0</ele><time>2026-04-03T13:47:01.7Z</time></trkpt><trkpt lat="43.1225423" lon="12.0149684"><ele>278.0</ele><time>2026-04-03T13:47:02.701Z</time></trkpt><trkpt lat="43.1225673" lon="12.0151952"><ele>278.0</ele><time>2026-04-03T13:47:03.7Z</time></trkpt><trkpt lat="43.1225923" lon="12.0154262"><ele>278.0</ele><time>2026-04-03T13:47:04.701Z</time></trkpt><trkpt lat="43.1226204" lon="12.0156474"><ele>278.0</ele><time>2026-04-03T13:47:05.7Z</time></trkpt><trkpt lat="43.122646" lon="12.0158599"><ele>278.0</ele><time>2026-04-03T13:47:06.7Z</time></trkpt><trkpt lat="43.1226706" lon="12.0160603"><ele>278.75</ele><time>2026-04-03T13:47:07.701Z</time></trkpt><trkpt lat="43.1226931" lon="12.016264"><ele>279.5</ele><time>2026-04-03T13:47:08.7Z</time></trkpt><trkpt lat="43.1227126" lon="12.0164633"><ele>280.25</ele><time>2026-04-03T13:47:09.701Z</time></trkpt><trkpt lat="43.1227335" lon="12.0166468"><ele>281.0</ele><time>2026-04-03T13:47:10.701Z</time></trkpt><trkpt lat="43.1227553" lon="12.0168317"><ele>281.5</ele><time>2026-04-03T13:47:11.701Z</time></trkpt><trkpt lat="43.1227795" lon="12.0170152"><ele>282.0</ele><time>2026-04-03T13:47:12.7Z</time></trkpt><trkpt lat="43.1228035" lon="12.0171999"><ele>282.5</ele><time>2026-04-03T13:47:13.7Z</time></trkpt><trkpt lat="43.1228251" lon="12.0173898"><ele>283.0</ele><time>2026-04-03T13:47:14.701Z</time></trkpt><trkpt lat="43.1228491" lon="12.0175825"><ele>283.0</ele><time>2026-04-03T13:47:15.701Z</time></trkpt><trkpt lat="43.1228712" lon="12.0177781"><ele>283.0</ele><time>2026-04-03T13:47:16.7Z</time></trkpt><trkpt lat="43.1228929" lon="12.0179811"><ele>283.0</ele><time>2026-04-03T13:47:17.701Z</time></trkpt><trkpt lat="43.1229167" lon="12.0181817"><ele>283.0</ele><time>2026-04-03T13:47:18.701Z</time></trkpt><trkpt lat="43.1229419" lon="12.0183803"><ele>282.0</ele><time>2026-04-03T13:47:19.7Z</time></trkpt><trkpt lat="43.1229664" lon="12.0185727"><ele>281.0</ele><time>2026-04-03T13:47:20.701Z</time></trkpt><trkpt lat="43.1229943" lon="12.0187653"><ele>280.0</ele><time>2026-04-03T13:47:21.701Z</time></trkpt><trkpt lat="43.1230171" lon="12.0189596"><ele>279.0</ele><time>2026-04-03T13:47:22.7Z</time></trkpt><trkpt lat="43.123038" lon="12.0191615"><ele>278.6666666666667</ele><time>2026-04-03T13:47:23.7Z</time></trkpt><trkpt lat="43.1230653" lon="12.0193677"><ele>278.33333333333337</ele><time>2026-04-03T13:47:24.7Z</time></trkpt><trkpt lat="43.1230891" lon="12.0195787"><ele>278.0</ele><time>2026-04-03T13:47:25.701Z</time></trkpt><trkpt lat="43.1231133" lon="12.019788"><ele>277.6666666666667</ele><time>2026-04-03T13:47:26.701Z</time></trkpt><trkpt lat="43.1231369" lon="12.0199962"><ele>277.3333333333333</ele><time>2026-04-03T13:47:27.701Z</time></trkpt><trkpt lat="43.1231638" lon="12.0202053"><ele>277.0</ele><time>2026-04-03T13:47:28.7Z</time></trkpt><trkpt lat="43.1231908" lon="12.020414"><ele>277.0</ele><time>2026-04-03T13:47:29.701Z</time></trkpt><trkpt lat="43.1232163" lon="12.0206258"><ele>277.0</ele><time>2026-04-03T13:47:30.701Z</time></trkpt><trkpt lat="43.123242" lon="12.0208445"><ele>277.0</ele><time>2026-04-03T13:47:31.7Z</time></trkpt><trkpt lat="43.1232717" lon="12.0210757"><ele>276.0</ele><time>2026-04-03T13:47:32.7Z</time></trkpt><trkpt lat="43.1233004" lon="12.0213265"><ele>275.0</ele><time>2026-04-03T13:47:33.7Z</time></trkpt><trkpt lat="43.1233343" lon="12.0215983"><ele>274.0</ele><time>2026-04-03T13:47:34.7Z</time></trkpt><trkpt lat="43.1233668" lon="12.021882"><ele>273.66666666666663</ele><time>2026-04-03T13:47:35.701Z</time></trkpt><trkpt lat="43.1233975" lon="12.0221644"><ele>273.3333333333333</ele><time>2026-04-03T13:47:36.701Z</time></trkpt><trkpt lat="43.1234275" lon="12.0224262"><ele>273.0</ele><time>2026-04-03T13:47:37.701Z</time></trkpt><trkpt lat="43.1234556" lon="12.0226748"><ele>272.3333333333333</ele><time>2026-04-03T13:47:38.7Z</time></trkpt><trkpt lat="43.1234812" lon="12.0229234"><ele>271.66666666666663</ele><time>2026-04-03T13:47:39.7Z</time></trkpt><trkpt lat="43.123512" lon="12.0231651"><ele>271.0</ele><time>2026-04-03T13:47:40.7Z</time></trkpt><trkpt lat="43.1235453" lon="12.0233938"><ele>271.0</ele><time>2026-04-03T13:47:41.7Z</time></trkpt><trkpt lat="43.123572" lon="12.023605"><ele>271.0</ele><time>2026-04-03T13:47:42.701Z</time></trkpt><trkpt lat="43.1235953" lon="12.023785"><ele>271.0</ele><time>2026-04-03T13:47:43.701Z</time></trkpt><trkpt lat="43.1236111" lon="12.0239318"><ele>271.0</ele><time>2026-04-03T13:47:44.701Z</time></trkpt><trkpt lat="43.1236268" lon="12.0240548"><ele>271.0</ele><time>2026-04-03T13:47:45.701Z</time></trkpt><trkpt lat="43.1236391" lon="12.0241417"><ele>271.0</ele><time>2026-04-03T13:47:46.7Z</time></trkpt><trkpt lat="43.1236544" lon="12.0242522"><ele>271.0</ele><time>2026-04-03T13:47:48.701Z</time></trkpt><trkpt lat="43.1236408" lon="12.0243377"><ele>271.0</ele><time>2026-04-03T13:47:51.701Z</time></trkpt><trkpt lat="43.1236717" lon="12.0244903"><ele>271.0</ele><time>2026-04-03T13:47:53.701Z</time></trkpt><trkpt lat="43.1236862" lon="12.0246444"><ele>271.0</ele><time>2026-04-03T13:47:54.701Z</time></trkpt><trkpt lat="43.1237098" lon="12.0248331"><ele>270.3333333333333</ele><time>2026-04-03T13:47:55.701Z</time></trkpt><trkpt lat="43.1237481" lon="12.0250885"><ele>269.6666666666667</ele><time>2026-04-03T13:47:56.701Z</time></trkpt><trkpt lat="43.1237778" lon="12.0253932"><ele>269.0</ele><time>2026-04-03T13:47:57.7Z</time></trkpt><trkpt lat="43.1238118" lon="12.0257119"><ele>268.0</ele><time>2026-04-03T13:47:58.7Z</time></trkpt><trkpt lat="43.1238489" lon="12.0260318"><ele>267.0</ele><time>2026-04-03T13:47:59.701Z</time></trkpt><trkpt lat="43.12389" lon="12.0263639"><ele>266.0</ele><time>2026-04-03T13:48:00.701Z</time></trkpt><trkpt lat="43.1239341" lon="12.026703"><ele>265.0</ele><time>2026-04-03T13:48:01.701Z</time></trkpt><trkpt lat="43.1239802" lon="12.0270517"><ele>265.0</ele><time>2026-04-03T13:48:02.7Z</time></trkpt><trkpt lat="43.1240199" lon="12.0274023"><ele>265.0</ele><time>2026-04-03T13:48:03.701Z</time></trkpt><trkpt lat="43.1240645" lon="12.0277544"><ele>265.5</ele><time>2026-04-03T13:48:04.7Z</time></trkpt><trkpt lat="43.1241038" lon="12.0281098"><ele>266.0</ele><time>2026-04-03T13:48:05.7Z</time></trkpt><trkpt lat="43.1241392" lon="12.0284532"><ele>265.33333333333337</ele><time>2026-04-03T13:48:06.701Z</time></trkpt><trkpt lat="43.1241788" lon="12.0287523"><ele>264.6666666666667</ele><time>2026-04-03T13:48:07.7Z</time></trkpt><trkpt lat="43.1241964" lon="12.0289787"><ele>264.0</ele><time>2026-04-03T13:48:08.701Z</time></trkpt><trkpt lat="43.1242151" lon="12.0291452"><ele>263.8333333333333</ele><time>2026-04-03T13:48:09.7Z</time></trkpt><trkpt lat="43.1242197" lon="12.0292476"><ele>263.6666666666667</ele><time>2026-04-03T13:48:10.7Z</time></trkpt><trkpt lat="43.1241516" lon="12.0292532"><ele>263.5</ele><time>2026-04-03T13:48:15.701Z</time></trkpt><trkpt lat="43.1240625" lon="12.0292218"><ele>263.33333333333337</ele><time>2026-04-03T13:48:18.701Z</time></trkpt><trkpt lat="43.1239854" lon="12.0292568"><ele>263.1666666666667</ele><time>2026-04-03T13:48:19.701Z</time></trkpt><trkpt lat="43.1238793" lon="12.0293105"><ele>263.0</ele><time>2026-04-03T13:48:20.7Z</time></trkpt><trkpt lat="43.1237464" lon="12.0293783"><ele>263.33333333333337</ele><time>2026-04-03T13:48:21.701Z</time></trkpt><trkpt lat="43.1235769" lon="12.0294579"><ele>263.6666666666667</ele><time>2026-04-03T13:48:22.701Z</time></trkpt><trkpt lat="43.123376" lon="12.0295605"><ele>264.0</ele><time>2026-04-03T13:48:23.7Z</time></trkpt><trkpt lat="43.1231662" lon="12.029676"><ele>264.0</ele><time>2026-04-03T13:48:24.701Z</time></trkpt><trkpt lat="43.1229535" lon="12.0297854"><ele>264.0</ele><time>2026-04-03T13:48:25.701Z</time></trkpt><trkpt lat="43.1227355" lon="12.0299032"><ele>264.0</ele><time>2026-04-03T13:48:26.701Z</time></trkpt><trkpt lat="43.12251" lon="12.0300333"><ele>264.0</ele><time>2026-04-03T13:48:27.7Z</time></trkpt><trkpt lat="43.1222766" lon="12.0301886"><ele>264.5</ele><time>2026-04-03T13:48:28.701Z</time></trkpt><trkpt lat="43.1220369" lon="12.0303549"><ele>265.0</ele><time>2026-04-03T13:48:29.7Z</time></trkpt><trkpt lat="43.1217906" lon="12.03053"><ele>265.5</ele><time>2026-04-03T13:48:30.701Z</time></trkpt><trkpt lat="43.1215482" lon="12.0307067"><ele>266.0</ele><time>2026-04-03T13:48:31.701Z</time></trkpt><trkpt lat="43.1213068" lon="12.0308876"><ele>266.0</ele><time>2026-04-03T13:48:32.7Z</time></trkpt><trkpt lat="43.1210576" lon="12.0310627"><ele>266.0</ele><time>2026-04-03T13:48:33.701Z</time></trkpt><trkpt lat="43.1208016" lon="12.0312295"><ele>267.5</ele><time>2026-04-03T13:48:34.7Z</time></trkpt><trkpt lat="43.1205328" lon="12.0313881"><ele>269.0</ele><time>2026-04-03T13:48:35.701Z</time></trkpt><trkpt lat="43.1202527" lon="12.0315324"><ele>268.0</ele><time>2026-04-03T13:48:36.701Z</time></trkpt><trkpt lat="43.1199527" lon="12.0316785"><ele>267.0</ele><time>2026-04-03T13:48:37.7Z</time></trkpt><trkpt lat="43.1196531" lon="12.0318227"><ele>267.0</ele><time>2026-04-03T13:48:38.701Z</time></trkpt><trkpt lat="43.119379" lon="12.0319545"><ele>267.0</ele><time>2026-04-03T13:48:39.701Z</time></trkpt><trkpt lat="43.1191338" lon="12.0320788"><ele>267.6666666666667</ele><time>2026-04-03T13:48:40.701Z</time></trkpt><trkpt lat="43.1189229" lon="12.0321785"><ele>268.33333333333337</ele><time>2026-04-03T13:48:41.701Z</time></trkpt><trkpt lat="43.1187372" lon="12.0322665"><ele>269.0</ele><time>2026-04-03T13:48:42.701Z</time></trkpt><trkpt lat="43.1185756" lon="12.032343"><ele>269.0</ele><time>2026-04-03T13:48:43.701Z</time></trkpt><trkpt lat="43.1184287" lon="12.0324095"><ele>269.0</ele><time>2026-04-03T13:48:44.701Z</time></trkpt><trkpt lat="43.118294" lon="12.0324739"><ele>269.0</ele><time>2026-04-03T13:48:45.701Z</time></trkpt><trkpt lat="43.1181847" lon="12.0325238"><ele>269.0</ele><time>2026-04-03T13:48:46.7Z</time></trkpt><trkpt lat="43.1181031" lon="12.0325681"><ele>269.6666666666667</ele><time>2026-04-03T13:48:47.701Z</time></trkpt><trkpt lat="43.1180297" lon="12.0326425"><ele>270.33333333333337</ele><time>2026-04-03T13:48:49.701Z</time></trkpt><trkpt lat="43.1180279" lon="12.032733"><ele>271.0</ele><time>2026-04-03T13:48:51.7Z</time></trkpt><trkpt lat="43.1180619" lon="12.0328107"><ele>271.6666666666667</ele><time>2026-04-03T13:48:52.7Z</time></trkpt><trkpt lat="43.1181021" lon="12.0328905"><ele>272.3333333333333</ele><time>2026-04-03T13:48:53.701Z</time></trkpt><trkpt lat="43.1181508" lon="12.0329946"><ele>273.0</ele><time>2026-04-03T13:48:54.701Z</time></trkpt><trkpt lat="43.1182109" lon="12.0331087"><ele>272.25</ele><time>2026-04-03T13:48:55.701Z</time></trkpt><trkpt lat="43.1182754" lon="12.0332376"><ele>271.5</ele><time>2026-04-03T13:48:56.701Z</time></trkpt><trkpt lat="43.1183354" lon="12.033382"><ele>270.75</ele><time>2026-04-03T13:48:57.701Z</time></trkpt><trkpt lat="43.1183788" lon="12.0335494"><ele>270.0</ele><time>2026-04-03T13:48:58.7Z</time></trkpt><trkpt lat="43.1184097" lon="12.0337343"><ele>270.0</ele><time>2026-04-03T13:48:59.701Z</time></trkpt><trkpt lat="43.1184409" lon="12.0339383"><ele>270.0</ele><time>2026-04-03T13:49:00.701Z</time></trkpt><trkpt lat="43.1184721" lon="12.0341452"><ele>270.0</ele><time>2026-04-03T13:49:01.701Z</time></trkpt><trkpt lat="43.1185075" lon="12.0343724"><ele>269.0</ele><time>2026-04-03T13:49:02.701Z</time></trkpt><trkpt lat="43.1185335" lon="12.0345948"><ele>268.0</ele><time>2026-04-03T13:49:03.701Z</time></trkpt><trkpt lat="43.1185323" lon="12.0347837"><ele>267.0</ele><time>2026-04-03T13:49:04.7Z</time></trkpt><trkpt lat="43.1185211" lon="12.034961"><ele>266.0</ele><time>2026-04-03T13:49:05.7Z</time></trkpt><trkpt lat="43.1185194" lon="12.0351007"><ele>265.6</ele><time>2026-04-03T13:49:06.7Z</time></trkpt><trkpt lat="43.1185298" lon="12.0352108"><ele>265.20000000000005</ele><time>2026-04-03T13:49:07.701Z</time></trkpt><trkpt lat="43.1185409" lon="12.0353517"><ele>264.79999999999995</ele><time>2026-04-03T13:49:09.7Z</time></trkpt><trkpt lat="43.1185572" lon="12.0354939"><ele>264.4</ele><time>2026-04-03T13:49:11.701Z</time></trkpt><trkpt lat="43.1185896" lon="12.0356365"><ele>264.0</ele><time>2026-04-03T13:49:13.701Z</time></trkpt><trkpt lat="43.1186161" lon="12.0357157"><ele>264.0</ele><time>2026-04-03T13:49:14.701Z</time></trkpt><trkpt lat="43.1186442" lon="12.0358002"><ele>264.0</ele><time>2026-04-03T13:49:15.701Z</time></trkpt><trkpt lat="43.1186786" lon="12.0358915"><ele>264.0</ele><time>2026-04-03T13:49:16.701Z</time></trkpt><trkpt lat="43.1187153" lon="12.0359907"><ele>264.0</ele><time>2026-04-03T13:49:17.701Z</time></trkpt><trkpt lat="43.1187556" lon="12.0361116"><ele>264.0</ele><time>2026-04-03T13:49:18.7Z</time></trkpt><trkpt lat="43.1188058" lon="12.0362596"><ele>264.0</ele><time>2026-04-03T13:49:19.7Z</time></trkpt><trkpt lat="43.1188829" lon="12.036448"><ele>264.0</ele><time>2026-04-03T13:49:20.701Z</time></trkpt><trkpt lat="43.1189634" lon="12.0366714"><ele>264.0</ele><time>2026-04-03T13:49:21.701Z</time></trkpt><trkpt lat="43.1190504" lon="12.0369145"><ele>264.0</ele><time>2026-04-03T13:49:22.7Z</time></trkpt><trkpt lat="43.119135" lon="12.0371711"><ele>263.6666666666667</ele><time>2026-04-03T13:49:23.701Z</time></trkpt><trkpt lat="43.1192143" lon="12.0374382"><ele>263.33333333333337</ele><time>2026-04-03T13:49:24.701Z</time></trkpt><trkpt lat="43.1192807" lon="12.0377132"><ele>263.0</ele><time>2026-04-03T13:49:25.701Z</time></trkpt><trkpt lat="43.1193384" lon="12.0379883"><ele>263.0</ele><time>2026-04-03T13:49:26.701Z</time></trkpt><trkpt lat="43.11939" lon="12.0382452"><ele>263.0</ele><time>2026-04-03T13:49:27.7Z</time></trkpt><trkpt lat="43.1194382" lon="12.0384856"><ele>263.0</ele><time>2026-04-03T13:49:28.7Z</time></trkpt><trkpt lat="43.1194818" lon="12.0386995"><ele>263.0</ele><time>2026-04-03T13:49:29.701Z</time></trkpt><trkpt lat="43.1195165" lon="12.038884"><ele>263.0</ele><time>2026-04-03T13:49:30.7Z</time></trkpt><trkpt lat="43.1195453" lon="12.0390329"><ele>263.0</ele><time>2026-04-03T13:49:31.701Z</time></trkpt><trkpt lat="43.1195568" lon="12.0391495"><ele>263.0</ele><time>2026-04-03T13:49:32.701Z</time></trkpt><trkpt lat="43.1195551" lon="12.0392548"><ele>263.0</ele><time>2026-04-03T13:49:33.701Z</time></trkpt><trkpt lat="43.1195359" lon="12.0393529"><ele>262.6</ele><time>2026-04-03T13:49:34.7Z</time></trkpt><trkpt lat="43.1195007" lon="12.0394464"><ele>262.20000000000005</ele><time>2026-04-03T13:49:35.701Z</time></trkpt><trkpt lat="43.1194378" lon="12.0395231"><ele>261.8</ele><time>2026-04-03T13:49:36.7Z</time></trkpt><trkpt lat="43.1193521" lon="12.0395646"><ele>261.40000000000003</ele><time>2026-04-03T13:49:37.701Z</time></trkpt><trkpt lat="43.1192479" lon="12.039569"><ele>261.0</ele><time>2026-04-03T13:49:38.701Z</time></trkpt><trkpt lat="43.1191245" lon="12.0395609"><ele>261.0</ele><time>2026-04-03T13:49:39.701Z</time></trkpt><trkpt lat="43.1189791" lon="12.0395433"><ele>261.0</ele><time>2026-04-03T13:49:40.7Z</time></trkpt><trkpt lat="43.1188149" lon="12.0395241"><ele>261.0</ele><time>2026-04-03T13:49:41.701Z</time></trkpt><trkpt lat="43.118639" lon="12.0395137"><ele>261.0</ele><time>2026-04-03T13:49:42.7Z</time></trkpt><trkpt lat="43.1184585" lon="12.039514"><ele>261.0</ele><time>2026-04-03T13:49:43.701Z</time></trkpt><trkpt lat="43.1182753" lon="12.0395136"><ele>261.0</ele><time>2026-04-03T13:49:44.701Z</time></trkpt><trkpt lat="43.1180983" lon="12.0395133"><ele>261.3333333333333</ele><time>2026-04-03T13:49:45.701Z</time></trkpt><trkpt lat="43.1179353" lon="12.0395165"><ele>261.66666666666663</ele><time>2026-04-03T13:49:46.7Z</time></trkpt><trkpt lat="43.117784" lon="12.0395147"><ele>262.0</ele><time>2026-04-03T13:49:47.7Z</time></trkpt><trkpt lat="43.1176389" lon="12.0395126"><ele>262.0</ele><time>2026-04-03T13:49:48.701Z</time></trkpt><trkpt lat="43.1174858" lon="12.0395148"><ele>262.0</ele><time>2026-04-03T13:49:49.701Z</time></trkpt><trkpt lat="43.1173271" lon="12.0395149"><ele>262.0</ele><time>2026-04-03T13:49:50.701Z</time></trkpt><trkpt lat="43.1171627" lon="12.0395159"><ele>262.0</ele><time>2026-04-03T13:49:51.701Z</time></trkpt><trkpt lat="43.1169837" lon="12.0395238"><ele>262.0</ele><time>2026-04-03T13:49:52.701Z</time></trkpt><trkpt lat="43.1167968" lon="12.0395252"><ele>262.0</ele><time>2026-04-03T13:49:53.7Z</time></trkpt><trkpt lat="43.1166107" lon="12.039517"><ele>262.0</ele><time>2026-04-03T13:49:54.7Z</time></trkpt><trkpt lat="43.1164268" lon="12.0395143"><ele>262.0</ele><time>2026-04-03T13:49:55.701Z</time></trkpt><trkpt lat="43.1162551" lon="12.0395153"><ele>262.0</ele><time>2026-04-03T13:49:56.701Z</time></trkpt><trkpt lat="43.1160926" lon="12.0395169"><ele>262.0</ele><time>2026-04-03T13:49:57.701Z</time></trkpt><trkpt lat="43.1159385" lon="12.0395153"><ele>262.0</ele><time>2026-04-03T13:49:58.701Z</time></trkpt><trkpt lat="43.1157626" lon="12.0395174"><ele>262.0</ele><time>2026-04-03T13:49:59.701Z</time></trkpt><trkpt lat="43.1155469" lon="12.0395262"><ele>261.0</ele><time>2026-04-03T13:50:00.7Z</time></trkpt><trkpt lat="43.1153025" lon="12.0395281"><ele>260.0</ele><time>2026-04-03T13:50:01.701Z</time></trkpt><trkpt lat="43.1150486" lon="12.0395065"><ele>260.5</ele><time>2026-04-03T13:50:02.701Z</time></trkpt><trkpt lat="43.1148029" lon="12.0394962"><ele>261.0</ele><time>2026-04-03T13:50:03.701Z</time></trkpt><trkpt lat="43.1145662" lon="12.039497"><ele>261.0</ele><time>2026-04-03T13:50:04.7Z</time></trkpt><trkpt lat="43.1143297" lon="12.0395"><ele>261.0</ele><time>2026-04-03T13:50:05.7Z</time></trkpt><trkpt lat="43.1140934" lon="12.0394985"><ele>262.0</ele><time>2026-04-03T13:50:06.701Z</time></trkpt><trkpt lat="43.1138535" lon="12.0394997"><ele>263.0</ele><time>2026-04-03T13:50:07.7Z</time></trkpt><trkpt lat="43.1136083" lon="12.0395017"><ele>263.0</ele><time>2026-04-03T13:50:08.7Z</time></trkpt><trkpt lat="43.1133618" lon="12.0395037"><ele>263.0</ele><time>2026-04-03T13:50:09.701Z</time></trkpt><trkpt lat="43.1131114" lon="12.0395076"><ele>263.5</ele><time>2026-04-03T13:50:10.701Z</time></trkpt><trkpt lat="43.1128598" lon="12.0395055"><ele>264.0</ele><time>2026-04-03T13:50:11.701Z</time></trkpt><trkpt lat="43.1126077" lon="12.0395038"><ele>265.5</ele><time>2026-04-03T13:50:12.7Z</time></trkpt><trkpt lat="43.1123513" lon="12.0395053"><ele>267.0</ele><time>2026-04-03T13:50:13.701Z</time></trkpt><trkpt lat="43.112082" lon="12.0395116"><ele>267.0</ele><time>2026-04-03T13:50:14.701Z</time></trkpt><trkpt lat="43.1118016" lon="12.039512"><ele>267.0</ele><time>2026-04-03T13:50:15.701Z</time></trkpt><trkpt lat="43.1115233" lon="12.0395101"><ele>266.5</ele><time>2026-04-03T13:50:16.7Z</time></trkpt><trkpt lat="43.1112555" lon="12.0395121"><ele>266.0</ele><time>2026-04-03T13:50:17.7Z</time></trkpt><trkpt lat="43.1109954" lon="12.0395141"><ele>266.5</ele><time>2026-04-03T13:50:18.701Z</time></trkpt><trkpt lat="43.1107316" lon="12.0395172"><ele>267.0</ele><time>2026-04-03T13:50:19.701Z</time></trkpt><trkpt lat="43.1104679" lon="12.039512"><ele>267.0</ele><time>2026-04-03T13:50:20.701Z</time></trkpt><trkpt lat="43.1102136" lon="12.0395137"><ele>267.0</ele><time>2026-04-03T13:50:21.701Z</time></trkpt><trkpt lat="43.1099673" lon="12.0395188"><ele>267.5</ele><time>2026-04-03T13:50:22.7Z</time></trkpt><trkpt lat="43.1097246" lon="12.0395216"><ele>268.0</ele><time>2026-04-03T13:50:23.7Z</time></trkpt><trkpt lat="43.1094829" lon="12.0395165"><ele>268.0</ele><time>2026-04-03T13:50:24.701Z</time></trkpt><trkpt lat="43.1092459" lon="12.0395086"><ele>268.0</ele><time>2026-04-03T13:50:25.701Z</time></trkpt><trkpt lat="43.1090138" lon="12.0395017"><ele>268.3333333333333</ele><time>2026-04-03T13:50:26.701Z</time></trkpt><trkpt lat="43.1087941" lon="12.0395004"><ele>268.6666666666667</ele><time>2026-04-03T13:50:27.701Z</time></trkpt><trkpt lat="43.1085895" lon="12.0395046"><ele>269.0</ele><time>2026-04-03T13:50:28.701Z</time></trkpt><trkpt lat="43.1083984" lon="12.0395238"><ele>269.0</ele><time>2026-04-03T13:50:29.701Z</time></trkpt><trkpt lat="43.1082158" lon="12.0395566"><ele>269.0</ele><time>2026-04-03T13:50:30.7Z</time></trkpt><trkpt lat="43.1080346" lon="12.0396446"><ele>269.0</ele><time>2026-04-03T13:50:31.701Z</time></trkpt><trkpt lat="43.1078671" lon="12.0397561"><ele>269.0</ele><time>2026-04-03T13:50:32.7Z</time></trkpt><trkpt lat="43.107706" lon="12.0398803"><ele>269.0</ele><time>2026-04-03T13:50:33.701Z</time></trkpt><trkpt lat="43.1075485" lon="12.0400023"><ele>269.0</ele><time>2026-04-03T13:50:34.701Z</time></trkpt><trkpt lat="43.107395" lon="12.0401213"><ele>269.0</ele><time>2026-04-03T13:50:35.7Z</time></trkpt><trkpt lat="43.1072392" lon="12.0402408"><ele>269.0</ele><time>2026-04-03T13:50:36.701Z</time></trkpt><trkpt lat="43.1070797" lon="12.0403684"><ele>269.0</ele><time>2026-04-03T13:50:37.701Z</time></trkpt><trkpt lat="43.1069247" lon="12.0404948"><ele>269.0</ele><time>2026-04-03T13:50:38.7Z</time></trkpt><trkpt lat="43.1067625" lon="12.0406208"><ele>269.0</ele><time>2026-04-03T13:50:39.701Z</time></trkpt><trkpt lat="43.1065974" lon="12.0407493"><ele>269.0</ele><time>2026-04-03T13:50:40.701Z</time></trkpt><trkpt lat="43.1064285" lon="12.0408812"><ele>268.0</ele><time>2026-04-03T13:50:41.701Z</time></trkpt><trkpt lat="43.1062578" lon="12.041016"><ele>267.0</ele><time>2026-04-03T13:50:42.7Z</time></trkpt><trkpt lat="43.1060863" lon="12.041151"><ele>266.0</ele><time>2026-04-03T13:50:43.701Z</time></trkpt><trkpt lat="43.1059085" lon="12.0412931"><ele>267.0</ele><time>2026-04-03T13:50:44.7Z</time></trkpt><trkpt lat="43.1057275" lon="12.0414347"><ele>268.0</ele><time>2026-04-03T13:50:45.7Z</time></trkpt><trkpt lat="43.1055333" lon="12.0415976"><ele>269.0</ele><time>2026-04-03T13:50:46.701Z</time></trkpt><trkpt lat="43.1053228" lon="12.04178"><ele>269.0</ele><time>2026-04-03T13:50:47.701Z</time></trkpt><trkpt lat="43.1050914" lon="12.0419666"><ele>269.0</ele><time>2026-04-03T13:50:48.701Z</time></trkpt><trkpt lat="43.104852" lon="12.0421426"><ele>268.5</ele><time>2026-04-03T13:50:49.701Z</time></trkpt><trkpt lat="43.1046163" lon="12.0423239"><ele>268.0</ele><time>2026-04-03T13:50:50.701Z</time></trkpt><trkpt lat="43.104385" lon="12.0425063"><ele>267.0</ele><time>2026-04-03T13:50:51.701Z</time></trkpt><trkpt lat="43.1041505" lon="12.0426875"><ele>266.0</ele><time>2026-04-03T13:50:52.7Z</time></trkpt><trkpt lat="43.1039211" lon="12.042867"><ele>266.0</ele><time>2026-04-03T13:50:53.701Z</time></trkpt><trkpt lat="43.1036934" lon="12.0430502"><ele>266.0</ele><time>2026-04-03T13:50:54.701Z</time></trkpt><trkpt lat="43.1034638" lon="12.0432341"><ele>265.5</ele><time>2026-04-03T13:50:55.701Z</time></trkpt><trkpt lat="43.1032345" lon="12.0434135"><ele>265.0</ele><time>2026-04-03T13:50:56.7Z</time></trkpt><trkpt lat="43.1030049" lon="12.04359"><ele>265.0</ele><time>2026-04-03T13:50:57.701Z</time></trkpt><trkpt lat="43.1027726" lon="12.0437723"><ele>265.0</ele><time>2026-04-03T13:50:58.701Z</time></trkpt><trkpt lat="43.1025412" lon="12.0439542"><ele>263.5</ele><time>2026-04-03T13:50:59.701Z</time></trkpt><trkpt lat="43.1023107" lon="12.0441334"><ele>262.0</ele><time>2026-04-03T13:51:00.7Z</time></trkpt><trkpt lat="43.1020815" lon="12.0443152"><ele>262.0</ele><time>2026-04-03T13:51:01.701Z</time></trkpt><trkpt lat="43.1018536" lon="12.0444988"><ele>262.0</ele><time>2026-04-03T13:51:02.7Z</time></trkpt><trkpt lat="43.1016265" lon="12.0446772"><ele>263.0</ele><time>2026-04-03T13:51:03.7Z</time></trkpt><trkpt lat="43.1014056" lon="12.0448515"><ele>264.0</ele><time>2026-04-03T13:51:04.701Z</time></trkpt><trkpt lat="43.1011881" lon="12.0450259"><ele>265.0</ele><time>2026-04-03T13:51:05.701Z</time></trkpt><trkpt lat="43.1009744" lon="12.0452029"><ele>266.0</ele><time>2026-04-03T13:51:06.701Z</time></trkpt><trkpt lat="43.1007741" lon="12.0453874"><ele>266.0</ele><time>2026-04-03T13:51:07.7Z</time></trkpt><trkpt lat="43.1005811" lon="12.0455921"><ele>266.0</ele><time>2026-04-03T13:51:08.701Z</time></trkpt><trkpt lat="43.1003977" lon="12.0458097"><ele>266.5</ele><time>2026-04-03T13:51:09.701Z</time></trkpt><trkpt lat="43.1002252" lon="12.0460388"><ele>267.0</ele><time>2026-04-03T13:51:10.7Z</time></trkpt><trkpt lat="43.1000622" lon="12.0462766"><ele>266.0</ele><time>2026-04-03T13:51:11.701Z</time></trkpt><trkpt lat="43.0999069" lon="12.046526"><ele>265.0</ele><time>2026-04-03T13:51:12.701Z</time></trkpt><trkpt lat="43.0997609" lon="12.0467859"><ele>264.5</ele><time>2026-04-03T13:51:13.7Z</time></trkpt><trkpt lat="43.0996262" lon="12.0470565"><ele>264.0</ele><time>2026-04-03T13:51:14.701Z</time></trkpt><trkpt lat="43.0994883" lon="12.0473281"><ele>264.0</ele><time>2026-04-03T13:51:15.701Z</time></trkpt><trkpt lat="43.0993504" lon="12.0476033"><ele>264.0</ele><time>2026-04-03T13:51:16.7Z</time></trkpt><trkpt lat="43.0992138" lon="12.0478927"><ele>265.5</ele><time>2026-04-03T13:51:17.701Z</time></trkpt><trkpt lat="43.0990744" lon="12.0481936"><ele>267.0</ele><time>2026-04-03T13:51:18.7Z</time></trkpt><trkpt lat="43.0989329" lon="12.048494"><ele>267.0</ele><time>2026-04-03T13:51:19.7Z</time></trkpt><trkpt lat="43.0987839" lon="12.0487996"><ele>267.0</ele><time>2026-04-03T13:51:20.7Z</time></trkpt><trkpt lat="43.0986299" lon="12.0491105"><ele>266.5</ele><time>2026-04-03T13:51:21.7Z</time></trkpt><trkpt lat="43.0984777" lon="12.049427"><ele>266.0</ele><time>2026-04-03T13:51:22.7Z</time></trkpt><trkpt lat="43.098326" lon="12.0497424"><ele>265.5</ele><time>2026-04-03T13:51:23.701Z</time></trkpt><trkpt lat="43.0981699" lon="12.0500662"><ele>265.0</ele><time>2026-04-03T13:51:24.701Z</time></trkpt><trkpt lat="43.0980155" lon="12.0503903"><ele>265.0</ele><time>2026-04-03T13:51:25.701Z</time></trkpt><trkpt lat="43.0978576" lon="12.0507199"><ele>265.0</ele><time>2026-04-03T13:51:26.701Z</time></trkpt><trkpt lat="43.0976985" lon="12.0510468"><ele>264.5</ele><time>2026-04-03T13:51:27.7Z</time></trkpt><trkpt lat="43.0975422" lon="12.0513687"><ele>264.0</ele><time>2026-04-03T13:51:28.701Z</time></trkpt><trkpt lat="43.097392" lon="12.0516927"><ele>264.0</ele><time>2026-04-03T13:51:29.7Z</time></trkpt><trkpt lat="43.0972388" lon="12.0520122"><ele>264.0</ele><time>2026-04-03T13:51:30.7Z</time></trkpt><trkpt lat="43.0970968" lon="12.0523119"><ele>263.0</ele><time>2026-04-03T13:51:31.701Z</time></trkpt><trkpt lat="43.0969616" lon="12.052592"><ele>262.0</ele><time>2026-04-03T13:51:32.701Z</time></trkpt><trkpt lat="43.0968352" lon="12.0528479"><ele>262.0</ele><time>2026-04-03T13:51:33.701Z</time></trkpt><trkpt lat="43.0967252" lon="12.0530696"><ele>262.0</ele><time>2026-04-03T13:51:34.701Z</time></trkpt><trkpt lat="43.0966205" lon="12.0532868"><ele>262.0</ele><time>2026-04-03T13:51:35.7Z</time></trkpt><trkpt lat="43.096512" lon="12.053514"><ele>261.66666666666663</ele><time>2026-04-03T13:51:36.7Z</time></trkpt><trkpt lat="43.0963975" lon="12.0537523"><ele>261.3333333333333</ele><time>2026-04-03T13:51:37.701Z</time></trkpt><trkpt lat="43.096266" lon="12.0540232"><ele>261.0</ele><time>2026-04-03T13:51:38.701Z</time></trkpt><trkpt lat="43.0961065" lon="12.0542895"><ele>262.5</ele><time>2026-04-03T13:51:39.7Z</time></trkpt><trkpt lat="43.0959333" lon="12.0545583"><ele>264.0</ele><time>2026-04-03T13:51:40.701Z</time></trkpt><trkpt lat="43.095762" lon="12.0548247"><ele>265.0</ele><time>2026-04-03T13:51:41.701Z</time></trkpt><trkpt lat="43.0955922" lon="12.0550727"><ele>266.0</ele><time>2026-04-03T13:51:42.701Z</time></trkpt><trkpt lat="43.0954277" lon="12.0553008"><ele>266.0</ele><time>2026-04-03T13:51:43.701Z</time></trkpt><trkpt lat="43.0952836" lon="12.0555038"><ele>266.0</ele><time>2026-04-03T13:51:44.7Z</time></trkpt><trkpt lat="43.0951482" lon="12.0556818"><ele>266.0</ele><time>2026-04-03T13:51:45.701Z</time></trkpt><trkpt lat="43.0950338" lon="12.0558275"><ele>266.0</ele><time>2026-04-03T13:51:46.7Z</time></trkpt><trkpt lat="43.0949213" lon="12.0559231"><ele>266.0</ele><time>2026-04-03T13:51:47.7Z</time></trkpt><trkpt lat="43.0948093" lon="12.0559829"><ele>266.0</ele><time>2026-04-03T13:51:48.701Z</time></trkpt><trkpt lat="43.0946826" lon="12.0559914"><ele>266.0</ele><time>2026-04-03T13:51:49.701Z</time></trkpt><trkpt lat="43.0945659" lon="12.0559967"><ele>265.8</ele><time>2026-04-03T13:51:50.701Z</time></trkpt><trkpt lat="43.0944721" lon="12.0560336"><ele>265.6</ele><time>2026-04-03T13:51:51.701Z</time></trkpt><trkpt lat="43.0943954" lon="12.0561149"><ele>265.4</ele><time>2026-04-03T13:51:52.7Z</time></trkpt><trkpt lat="43.0943366" lon="12.056222"><ele>265.2</ele><time>2026-04-03T13:51:53.7Z</time></trkpt><trkpt lat="43.0943084" lon="12.0563423"><ele>265.0</ele><time>2026-04-03T13:51:54.701Z</time></trkpt><trkpt lat="43.0943284" lon="12.0564608"><ele>265.0</ele><time>2026-04-03T13:51:55.701Z</time></trkpt><trkpt lat="43.0943711" lon="12.0565649"><ele>265.0</ele><time>2026-04-03T13:51:56.701Z</time></trkpt><trkpt lat="43.0944538" lon="12.056662"><ele>265.0</ele><time>2026-04-03T13:51:57.701Z</time></trkpt><trkpt lat="43.0945518" lon="12.0567598"><ele>265.0</ele><time>2026-04-03T13:51:58.701Z</time></trkpt><trkpt lat="43.0946316" lon="12.0568724"><ele>265.0</ele><time>2026-04-03T13:51:59.701Z</time></trkpt><trkpt lat="43.0946843" lon="12.0570251"><ele>265.5</ele><time>2026-04-03T13:52:00.7Z</time></trkpt><trkpt lat="43.0946977" lon="12.0571892"><ele>266.0</ele><time>2026-04-03T13:52:01.701Z</time></trkpt><trkpt lat="43.094667" lon="12.0573963"><ele>266.5</ele><time>2026-04-03T13:52:02.701Z</time></trkpt><trkpt lat="43.0945959" lon="12.0576139"><ele>267.0</ele><time>2026-04-03T13:52:03.7Z</time></trkpt><trkpt lat="43.0944891" lon="12.0578572"><ele>267.0</ele><time>2026-04-03T13:52:04.7Z</time></trkpt><trkpt lat="43.0943636" lon="12.0581166"><ele>267.0</ele><time>2026-04-03T13:52:05.701Z</time></trkpt><trkpt lat="43.094223" lon="12.0583959"><ele>266.5</ele><time>2026-04-03T13:52:06.701Z</time></trkpt><trkpt lat="43.0940833" lon="12.0586925"><ele>266.0</ele><time>2026-04-03T13:52:07.701Z</time></trkpt><trkpt lat="43.0939436" lon="12.0590046"><ele>266.0</ele><time>2026-04-03T13:52:08.701Z</time></trkpt><trkpt lat="43.0937923" lon="12.0593234"><ele>266.0</ele><time>2026-04-03T13:52:09.7Z</time></trkpt><trkpt lat="43.0936371" lon="12.0596529"><ele>265.5</ele><time>2026-04-03T13:52:10.701Z</time></trkpt><trkpt lat="43.0934842" lon="12.0599793"><ele>265.0</ele><time>2026-04-03T13:52:11.701Z</time></trkpt><trkpt lat="43.0933304" lon="12.0602991"><ele>265.5</ele><time>2026-04-03T13:52:12.701Z</time></trkpt><trkpt lat="43.093178" lon="12.0606196"><ele>266.0</ele><time>2026-04-03T13:52:13.7Z</time></trkpt><trkpt lat="43.0930247" lon="12.060936"><ele>266.5</ele><time>2026-04-03T13:52:14.7Z</time></trkpt><trkpt lat="43.0928699" lon="12.0612522"><ele>267.0</ele><time>2026-04-03T13:52:15.7Z</time></trkpt><trkpt lat="43.0927119" lon="12.061569"><ele>267.0</ele><time>2026-04-03T13:52:16.701Z</time></trkpt><trkpt lat="43.0925612" lon="12.0618808"><ele>267.0</ele><time>2026-04-03T13:52:17.699Z</time></trkpt><trkpt lat="43.0924112" lon="12.0621959"><ele>268.0</ele><time>2026-04-03T13:52:18.7Z</time></trkpt><trkpt lat="43.0922633" lon="12.0625081"><ele>269.0</ele><time>2026-04-03T13:52:19.699Z</time></trkpt><trkpt lat="43.0921137" lon="12.0628198"><ele>269.0</ele><time>2026-04-03T13:52:20.7Z</time></trkpt><trkpt lat="43.0919662" lon="12.0631248"><ele>269.0</ele><time>2026-04-03T13:52:21.7Z</time></trkpt><trkpt lat="43.0918216" lon="12.0634241"><ele>269.5</ele><time>2026-04-03T13:52:22.7Z</time></trkpt><trkpt lat="43.0916799" lon="12.0637256"><ele>270.0</ele><time>2026-04-03T13:52:23.7Z</time></trkpt><trkpt lat="43.0915425" lon="12.0640214"><ele>268.0</ele><time>2026-04-03T13:52:24.7Z</time></trkpt><trkpt lat="43.0914072" lon="12.0643122"><ele>266.0</ele><time>2026-04-03T13:52:25.699Z</time></trkpt><trkpt lat="43.0912751" lon="12.0646026"><ele>266.0</ele><time>2026-04-03T13:52:26.699Z</time></trkpt><trkpt lat="43.0911325" lon="12.0648976"><ele>266.0</ele><time>2026-04-03T13:52:27.7Z</time></trkpt><trkpt lat="43.090982" lon="12.065199"><ele>265.5</ele><time>2026-04-03T13:52:28.7Z</time></trkpt><trkpt lat="43.0908272" lon="12.0655113"><ele>265.0</ele><time>2026-04-03T13:52:29.7Z</time></trkpt><trkpt lat="43.0906658" lon="12.0658279"><ele>265.0</ele><time>2026-04-03T13:52:30.7Z</time></trkpt><trkpt lat="43.0905042" lon="12.0661518"><ele>265.0</ele><time>2026-04-03T13:52:31.699Z</time></trkpt><trkpt lat="43.0903402" lon="12.0664783"><ele>264.5</ele><time>2026-04-03T13:52:32.699Z</time></trkpt><trkpt lat="43.0901718" lon="12.0668133"><ele>264.0</ele><time>2026-04-03T13:52:33.7Z</time></trkpt><trkpt lat="43.0900036" lon="12.0671519"><ele>265.0</ele><time>2026-04-03T13:52:34.7Z</time></trkpt><trkpt lat="43.0898369" lon="12.0674899"><ele>266.0</ele><time>2026-04-03T13:52:35.7Z</time></trkpt><trkpt lat="43.089667" lon="12.0678308"><ele>266.0</ele><time>2026-04-03T13:52:36.699Z</time></trkpt><trkpt lat="43.0895097" lon="12.0681628"><ele>266.0</ele><time>2026-04-03T13:52:37.699Z</time></trkpt><trkpt lat="43.0893513" lon="12.0684796"><ele>267.5</ele><time>2026-04-03T13:52:38.7Z</time></trkpt><trkpt lat="43.0891987" lon="12.0688012"><ele>269.0</ele><time>2026-04-03T13:52:39.7Z</time></trkpt><trkpt lat="43.0890448" lon="12.0691214"><ele>269.0</ele><time>2026-04-03T13:52:40.7Z</time></trkpt><trkpt lat="43.088889" lon="12.0694447"><ele>269.0</ele><time>2026-04-03T13:52:41.7Z</time></trkpt><trkpt lat="43.0887365" lon="12.0697695"><ele>268.0</ele><time>2026-04-03T13:52:42.699Z</time></trkpt><trkpt lat="43.0885816" lon="12.0700914"><ele>267.0</ele><time>2026-04-03T13:52:43.7Z</time></trkpt><trkpt lat="43.088424" lon="12.070411"><ele>267.0</ele><time>2026-04-03T13:52:44.699Z</time></trkpt><trkpt lat="43.0882676" lon="12.0707319"><ele>267.0</ele><time>2026-04-03T13:52:45.7Z</time></trkpt><trkpt lat="43.0881109" lon="12.071051"><ele>267.0</ele><time>2026-04-03T13:52:46.7Z</time></trkpt><trkpt lat="43.0879555" lon="12.0713686"><ele>267.0</ele><time>2026-04-03T13:52:47.7Z</time></trkpt><trkpt lat="43.0877989" lon="12.0716934"><ele>266.0</ele><time>2026-04-03T13:52:48.7Z</time></trkpt><trkpt lat="43.0876404" lon="12.0720134"><ele>265.0</ele><time>2026-04-03T13:52:49.699Z</time></trkpt><trkpt lat="43.0874778" lon="12.0723407"><ele>264.5</ele><time>2026-04-03T13:52:50.7Z</time></trkpt><trkpt lat="43.0873172" lon="12.0726711"><ele>264.0</ele><time>2026-04-03T13:52:51.7Z</time></trkpt><trkpt lat="43.0871561" lon="12.0729995"><ele>263.5</ele><time>2026-04-03T13:52:52.699Z</time></trkpt><trkpt lat="43.0869913" lon="12.0733317"><ele>263.0</ele><time>2026-04-03T13:52:53.7Z</time></trkpt><trkpt lat="43.0868263" lon="12.0736677"><ele>263.0</ele><time>2026-04-03T13:52:54.699Z</time></trkpt><trkpt lat="43.0866616" lon="12.0740088"><ele>263.0</ele><time>2026-04-03T13:52:55.7Z</time></trkpt><trkpt lat="43.0864975" lon="12.07435"><ele>263.0</ele><time>2026-04-03T13:52:56.7Z</time></trkpt><trkpt lat="43.0863308" lon="12.0746926"><ele>263.0</ele><time>2026-04-03T13:52:57.699Z</time></trkpt><trkpt lat="43.0861624" lon="12.0750397"><ele>263.0</ele><time>2026-04-03T13:52:58.7Z</time></trkpt><trkpt lat="43.0859938" lon="12.0753859"><ele>263.0</ele><time>2026-04-03T13:52:59.7Z</time></trkpt><trkpt lat="43.0858244" lon="12.0757367"><ele>262.5</ele><time>2026-04-03T13:53:00.7Z</time></trkpt><trkpt lat="43.0856538" lon="12.0760811"><ele>262.0</ele><time>2026-04-03T13:53:01.7Z</time></trkpt><trkpt lat="43.08548" lon="12.0764291"><ele>262.0</ele><time>2026-04-03T13:53:02.7Z</time></trkpt><trkpt lat="43.0853087" lon="12.0767802"><ele>262.0</ele><time>2026-04-03T13:53:03.7Z</time></trkpt><trkpt lat="43.0851402" lon="12.0771306"><ele>262.0</ele><time>2026-04-03T13:53:04.7Z</time></trkpt><trkpt lat="43.0849676" lon="12.0774786"><ele>262.0</ele><time>2026-04-03T13:53:05.7Z</time></trkpt><trkpt lat="43.0847965" lon="12.0778274"><ele>262.5</ele><time>2026-04-03T13:53:06.7Z</time></trkpt><trkpt lat="43.0846254" lon="12.0781769"><ele>263.0</ele><time>2026-04-03T13:53:07.699Z</time></trkpt><trkpt lat="43.0844567" lon="12.0785246"><ele>262.0</ele><time>2026-04-03T13:53:08.699Z</time></trkpt><trkpt lat="43.084287" lon="12.0788675"><ele>261.0</ele><time>2026-04-03T13:53:09.699Z</time></trkpt><trkpt lat="43.0841136" lon="12.0792119"><ele>261.0</ele><time>2026-04-03T13:53:10.7Z</time></trkpt><trkpt lat="43.0839453" lon="12.0795613"><ele>261.0</ele><time>2026-04-03T13:53:11.7Z</time></trkpt><trkpt lat="43.0837777" lon="12.0799096"><ele>261.0</ele><time>2026-04-03T13:53:12.7Z</time></trkpt><trkpt lat="43.0836092" lon="12.0802554"><ele>261.0</ele><time>2026-04-03T13:53:13.7Z</time></trkpt><trkpt lat="43.0834413" lon="12.0806031"><ele>261.5</ele><time>2026-04-03T13:53:14.7Z</time></trkpt><trkpt lat="43.0832754" lon="12.0809538"><ele>262.0</ele><time>2026-04-03T13:53:15.7Z</time></trkpt><trkpt lat="43.0831075" lon="12.0813043"><ele>263.0</ele><time>2026-04-03T13:53:16.699Z</time></trkpt><trkpt lat="43.082937" lon="12.0816596"><ele>264.0</ele><time>2026-04-03T13:53:17.7Z</time></trkpt><trkpt lat="43.0827668" lon="12.0820131"><ele>264.0</ele><time>2026-04-03T13:53:18.7Z</time></trkpt><trkpt lat="43.0825974" lon="12.0823638"><ele>264.0</ele><time>2026-04-03T13:53:19.699Z</time></trkpt><trkpt lat="43.0824247" lon="12.0827153"><ele>263.5</ele><time>2026-04-03T13:53:20.7Z</time></trkpt><trkpt lat="43.0822549" lon="12.0830681"><ele>263.0</ele><time>2026-04-03T13:53:21.7Z</time></trkpt><trkpt lat="43.0820889" lon="12.0834201"><ele>263.0</ele><time>2026-04-03T13:53:22.7Z</time></trkpt><trkpt lat="43.0819226" lon="12.0837729"><ele>263.0</ele><time>2026-04-03T13:53:23.699Z</time></trkpt><trkpt lat="43.0817567" lon="12.0841181"><ele>261.0</ele><time>2026-04-03T13:53:24.7Z</time></trkpt><trkpt lat="43.0815841" lon="12.0844653"><ele>259.0</ele><time>2026-04-03T13:53:25.699Z</time></trkpt><trkpt lat="43.0814142" lon="12.0848164"><ele>259.5</ele><time>2026-04-03T13:53:26.699Z</time></trkpt><trkpt lat="43.0812475" lon="12.0851643"><ele>260.0</ele><time>2026-04-03T13:53:27.699Z</time></trkpt><trkpt lat="43.0810807" lon="12.0855104"><ele>260.5</ele><time>2026-04-03T13:53:28.7Z</time></trkpt><trkpt lat="43.0809211" lon="12.0858566"><ele>261.0</ele><time>2026-04-03T13:53:29.699Z</time></trkpt><trkpt lat="43.0807603" lon="12.0862001"><ele>260.5</ele><time>2026-04-03T13:53:30.699Z</time></trkpt><trkpt lat="43.0805957" lon="12.0865436"><ele>260.0</ele><time>2026-04-03T13:53:31.699Z</time></trkpt><trkpt lat="43.0804332" lon="12.0868844"><ele>260.0</ele><time>2026-04-03T13:53:32.699Z</time></trkpt><trkpt lat="43.0802695" lon="12.0872253"><ele>260.0</ele><time>2026-04-03T13:53:33.699Z</time></trkpt><trkpt lat="43.0801056" lon="12.0875574"><ele>260.0</ele><time>2026-04-03T13:53:34.699Z</time></trkpt><trkpt lat="43.0799574" lon="12.0878593"><ele>260.0</ele><time>2026-04-03T13:53:35.699Z</time></trkpt><trkpt lat="43.0798188" lon="12.0881306"><ele>259.33333333333337</ele><time>2026-04-03T13:53:36.7Z</time></trkpt><trkpt lat="43.0796877" lon="12.0883811"><ele>258.6666666666667</ele><time>2026-04-03T13:53:37.7Z</time></trkpt><trkpt lat="43.0795689" lon="12.0886069"><ele>258.0</ele><time>2026-04-03T13:53:38.7Z</time></trkpt><trkpt lat="43.0794522" lon="12.0888226"><ele>258.0</ele><time>2026-04-03T13:53:39.7Z</time></trkpt><trkpt lat="43.079348" lon="12.0890304"><ele>258.0</ele><time>2026-04-03T13:53:40.699Z</time></trkpt><trkpt lat="43.0792751" lon="12.0892754"><ele>258.0</ele><time>2026-04-03T13:53:41.7Z</time></trkpt><trkpt lat="43.0792338" lon="12.0895365"><ele>258.5</ele><time>2026-04-03T13:53:42.699Z</time></trkpt><trkpt lat="43.0792301" lon="12.0898391"><ele>259.0</ele><time>2026-04-03T13:53:43.7Z</time></trkpt><trkpt lat="43.0792335" lon="12.0901641"><ele>259.0</ele><time>2026-04-03T13:53:44.7Z</time></trkpt><trkpt lat="43.0792312" lon="12.0905061"><ele>259.0</ele><time>2026-04-03T13:53:45.7Z</time></trkpt><trkpt lat="43.0792302" lon="12.0908456"><ele>258.5</ele><time>2026-04-03T13:53:46.699Z</time></trkpt><trkpt lat="43.0792249" lon="12.0911974"><ele>258.0</ele><time>2026-04-03T13:53:47.699Z</time></trkpt><trkpt lat="43.0792265" lon="12.091545"><ele>258.5</ele><time>2026-04-03T13:53:48.699Z</time></trkpt><trkpt lat="43.0792297" lon="12.0919002"><ele>259.0</ele><time>2026-04-03T13:53:49.7Z</time></trkpt><trkpt lat="43.0792287" lon="12.0922659"><ele>261.0</ele><time>2026-04-03T13:53:50.699Z</time></trkpt><trkpt lat="43.0792295" lon="12.0926372"><ele>263.0</ele><time>2026-04-03T13:53:51.7Z</time></trkpt><trkpt lat="43.0792325" lon="12.0930113"><ele>263.5</ele><time>2026-04-03T13:53:52.7Z</time></trkpt><trkpt lat="43.0792304" lon="12.0933898"><ele>264.0</ele><time>2026-04-03T13:53:53.699Z</time></trkpt><trkpt lat="43.0792304" lon="12.0937686"><ele>262.0</ele><time>2026-04-03T13:53:54.7Z</time></trkpt><trkpt lat="43.0792322" lon="12.094149"><ele>260.0</ele><time>2026-04-03T13:53:55.7Z</time></trkpt><trkpt lat="43.0792341" lon="12.0945312"><ele>260.0</ele><time>2026-04-03T13:53:56.699Z</time></trkpt><trkpt lat="43.0792337" lon="12.0949153"><ele>260.0</ele><time>2026-04-03T13:53:57.7Z</time></trkpt><trkpt lat="43.079234" lon="12.0952998"><ele>260.0</ele><time>2026-04-03T13:53:58.7Z</time></trkpt><trkpt lat="43.0792278" lon="12.0956775"><ele>260.0</ele><time>2026-04-03T13:53:59.699Z</time></trkpt><trkpt lat="43.0792305" lon="12.0960313"><ele>260.0</ele><time>2026-04-03T13:54:00.699Z</time></trkpt><trkpt lat="43.0792271" lon="12.0963628"><ele>260.0</ele><time>2026-04-03T13:54:01.699Z</time></trkpt><trkpt lat="43.0792089" lon="12.0966899"><ele>260.5</ele><time>2026-04-03T13:54:02.699Z</time></trkpt><trkpt lat="43.0791759" lon="12.0970119"><ele>261.0</ele><time>2026-04-03T13:54:03.7Z</time></trkpt><trkpt lat="43.0791241" lon="12.097337"><ele>260.5</ele><time>2026-04-03T13:54:04.699Z</time></trkpt><trkpt lat="43.0790624" lon="12.0976714"><ele>260.0</ele><time>2026-04-03T13:54:05.7Z</time></trkpt><trkpt lat="43.0789952" lon="12.0980072"><ele>260.5</ele><time>2026-04-03T13:54:06.699Z</time></trkpt><trkpt lat="43.0789218" lon="12.0983495"><ele>261.0</ele><time>2026-04-03T13:54:07.7Z</time></trkpt><trkpt lat="43.0788408" lon="12.0987012"><ele>261.0</ele><time>2026-04-03T13:54:08.7Z</time></trkpt><trkpt lat="43.0787598" lon="12.0990581"><ele>261.0</ele><time>2026-04-03T13:54:09.699Z</time></trkpt><trkpt lat="43.0786809" lon="12.0994209"><ele>260.0</ele><time>2026-04-03T13:54:10.7Z</time></trkpt><trkpt lat="43.0785981" lon="12.0997822"><ele>259.0</ele><time>2026-04-03T13:54:11.699Z</time></trkpt><trkpt lat="43.0785166" lon="12.1001496"><ele>258.5</ele><time>2026-04-03T13:54:12.7Z</time></trkpt><trkpt lat="43.0784378" lon="12.1005225"><ele>258.0</ele><time>2026-04-03T13:54:13.7Z</time></trkpt><trkpt lat="43.078366" lon="12.1008963"><ele>258.5</ele><time>2026-04-03T13:54:14.7Z</time></trkpt><trkpt lat="43.0782935" lon="12.1012717"><ele>259.0</ele><time>2026-04-03T13:54:15.7Z</time></trkpt><trkpt lat="43.0782216" lon="12.1016429"><ele>259.0</ele><time>2026-04-03T13:54:16.7Z</time></trkpt><trkpt lat="43.0781559" lon="12.1020176"><ele>259.0</ele><time>2026-04-03T13:54:17.699Z</time></trkpt><trkpt lat="43.0780957" lon="12.1023919"><ele>259.0</ele><time>2026-04-03T13:54:18.7Z</time></trkpt><trkpt lat="43.0780307" lon="12.102767"><ele>259.0</ele><time>2026-04-03T13:54:19.7Z</time></trkpt><trkpt lat="43.0779633" lon="12.1031391"><ele>258.5</ele><time>2026-04-03T13:54:20.7Z</time></trkpt><trkpt lat="43.0778949" lon="12.1035125"><ele>258.0</ele><time>2026-04-03T13:54:21.699Z</time></trkpt><trkpt lat="43.0778324" lon="12.1038819"><ele>258.0</ele><time>2026-04-03T13:54:22.7Z</time></trkpt><trkpt lat="43.0777662" lon="12.1042549"><ele>258.0</ele><time>2026-04-03T13:54:23.7Z</time></trkpt><trkpt lat="43.0777051" lon="12.1046111"><ele>258.0</ele><time>2026-04-03T13:54:24.699Z</time></trkpt><trkpt lat="43.0776473" lon="12.1049411"><ele>258.0</ele><time>2026-04-03T13:54:25.7Z</time></trkpt><trkpt lat="43.077588" lon="12.105242"><ele>258.0</ele><time>2026-04-03T13:54:26.7Z</time></trkpt><trkpt lat="43.0775361" lon="12.105527"><ele>258.0</ele><time>2026-04-03T13:54:27.699Z</time></trkpt><trkpt lat="43.0774847" lon="12.1057931"><ele>258.0</ele><time>2026-04-03T13:54:28.699Z</time></trkpt><trkpt lat="43.0774338" lon="12.1060252"><ele>258.3333333333333</ele><time>2026-04-03T13:54:29.7Z</time></trkpt><trkpt lat="43.0773514" lon="12.1062225"><ele>258.66666666666663</ele><time>2026-04-03T13:54:30.7Z</time></trkpt><trkpt lat="43.077243" lon="12.1064031"><ele>259.0</ele><time>2026-04-03T13:54:31.699Z</time></trkpt><trkpt lat="43.0771051" lon="12.106535"><ele>258.3333333333333</ele><time>2026-04-03T13:54:32.7Z</time></trkpt><trkpt lat="43.0769546" lon="12.1066266"><ele>257.6666666666667</ele><time>2026-04-03T13:54:33.7Z</time></trkpt><trkpt lat="43.0767906" lon="12.1066872"><ele>257.0</ele><time>2026-04-03T13:54:34.699Z</time></trkpt><trkpt lat="43.0766367" lon="12.10673"><ele>257.2</ele><time>2026-04-03T13:54:35.7Z</time></trkpt><trkpt lat="43.0764971" lon="12.1067732"><ele>257.4</ele><time>2026-04-03T13:54:36.699Z</time></trkpt><trkpt lat="43.0763874" lon="12.1068059"><ele>257.6</ele><time>2026-04-03T13:54:37.7Z</time></trkpt><trkpt lat="43.0763139" lon="12.1068331"><ele>257.8</ele><time>2026-04-03T13:54:38.7Z</time></trkpt><trkpt lat="43.0762478" lon="12.106856"><ele>258.0</ele><time>2026-04-03T13:54:40.699Z</time></trkpt><trkpt lat="43.0762162" lon="12.1069626"><ele>258.0</ele><time>2026-04-03T13:54:47.7Z</time></trkpt><trkpt lat="43.0762173" lon="12.107074"><ele>258.0</ele><time>2026-04-03T13:54:48.7Z</time></trkpt><trkpt lat="43.0762464" lon="12.1072151"><ele>258.0</ele><time>2026-04-03T13:54:49.7Z</time></trkpt><trkpt lat="43.0763008" lon="12.1073989"><ele>258.0</ele><time>2026-04-03T13:54:50.7Z</time></trkpt><trkpt lat="43.0763388" lon="12.1076365"><ele>258.3333333333333</ele><time>2026-04-03T13:54:51.7Z</time></trkpt><trkpt lat="43.0763916" lon="12.1079299"><ele>258.66666666666663</ele><time>2026-04-03T13:54:52.7Z</time></trkpt><trkpt lat="43.0764383" lon="12.108233"><ele>259.0</ele><time>2026-04-03T13:54:53.7Z</time></trkpt><trkpt lat="43.0764652" lon="12.1085369"><ele>259.0</ele><time>2026-04-03T13:54:54.699Z</time></trkpt><trkpt lat="43.0764691" lon="12.1088667"><ele>259.0</ele><time>2026-04-03T13:54:55.699Z</time></trkpt><trkpt lat="43.0764549" lon="12.1092399"><ele>259.0</ele><time>2026-04-03T13:54:56.7Z</time></trkpt><trkpt lat="43.0764281" lon="12.1096258"><ele>259.0</ele><time>2026-04-03T13:54:57.699Z</time></trkpt><trkpt lat="43.0763941" lon="12.1100129"><ele>259.5</ele><time>2026-04-03T13:54:58.7Z</time></trkpt><trkpt lat="43.0763603" lon="12.1103918"><ele>260.0</ele><time>2026-04-03T13:54:59.7Z</time></trkpt><trkpt lat="43.0763286" lon="12.1107709"><ele>260.0</ele><time>2026-04-03T13:55:00.699Z</time></trkpt><trkpt lat="43.0763023" lon="12.1111337"><ele>260.0</ele><time>2026-04-03T13:55:01.7Z</time></trkpt><trkpt lat="43.0762765" lon="12.1114679"><ele>260.0</ele><time>2026-04-03T13:55:02.7Z</time></trkpt><trkpt lat="43.0762523" lon="12.1117811"><ele>260.0</ele><time>2026-04-03T13:55:03.7Z</time></trkpt><trkpt lat="43.0762314" lon="12.1120661"><ele>260.0</ele><time>2026-04-03T13:55:04.699Z</time></trkpt><trkpt lat="43.0762134" lon="12.112333"><ele>260.0</ele><time>2026-04-03T13:55:05.699Z</time></trkpt><trkpt lat="43.0761988" lon="12.1125854"><ele>260.0</ele><time>2026-04-03T13:55:06.7Z</time></trkpt><trkpt lat="43.0761923" lon="12.1128153"><ele>260.0</ele><time>2026-04-03T13:55:07.7Z</time></trkpt><trkpt lat="43.0761886" lon="12.1130347"><ele>260.0</ele><time>2026-04-03T13:55:08.699Z</time></trkpt><trkpt lat="43.0761887" lon="12.1132348"><ele>260.0</ele><time>2026-04-03T13:55:09.699Z</time></trkpt><trkpt lat="43.0761929" lon="12.1134203"><ele>260.0</ele><time>2026-04-03T13:55:10.7Z</time></trkpt><trkpt lat="43.0762022" lon="12.1135905"><ele>260.0</ele><time>2026-04-03T13:55:11.699Z</time></trkpt><trkpt lat="43.0762085" lon="12.1137467"><ele>260.0</ele><time>2026-04-03T13:55:12.7Z</time></trkpt><trkpt lat="43.0762161" lon="12.1138902"><ele>260.0</ele><time>2026-04-03T13:55:13.699Z</time></trkpt><trkpt lat="43.0762259" lon="12.1140373"><ele>260.0</ele><time>2026-04-03T13:55:14.7Z</time></trkpt><trkpt lat="43.0762334" lon="12.1141851"><ele>260.0</ele><time>2026-04-03T13:55:15.7Z</time></trkpt><trkpt lat="43.0762398" lon="12.114353"><ele>260.0</ele><time>2026-04-03T13:55:16.699Z</time></trkpt><trkpt lat="43.07625" lon="12.114547"><ele>260.0</ele><time>2026-04-03T13:55:17.7Z</time></trkpt><trkpt lat="43.0762604" lon="12.1147626"><ele>260.0</ele><time>2026-04-03T13:55:18.7Z</time></trkpt><trkpt lat="43.0762749" lon="12.1150034"><ele>260.0</ele><time>2026-04-03T13:55:19.7Z</time></trkpt><trkpt lat="43.0762849" lon="12.1152631"><ele>260.0</ele><time>2026-04-03T13:55:20.7Z</time></trkpt><trkpt lat="43.0762998" lon="12.1155142"><ele>260.0</ele><time>2026-04-03T13:55:21.7Z</time></trkpt><trkpt lat="43.0763163" lon="12.1157711"><ele>260.0</ele><time>2026-04-03T13:55:22.7Z</time></trkpt><trkpt lat="43.0763354" lon="12.116053"><ele>260.0</ele><time>2026-04-03T13:55:23.699Z</time></trkpt><trkpt lat="43.0763527" lon="12.1163535"><ele>260.0</ele><time>2026-04-03T13:55:24.7Z</time></trkpt><trkpt lat="43.076372" lon="12.1166705"><ele>259.5</ele><time>2026-04-03T13:55:25.7Z</time></trkpt><trkpt lat="43.0763909" lon="12.1170011"><ele>259.0</ele><time>2026-04-03T13:55:26.7Z</time></trkpt><trkpt lat="43.0764017" lon="12.1173588"><ele>259.0</ele><time>2026-04-03T13:55:27.7Z</time></trkpt><trkpt lat="43.0764085" lon="12.117755"><ele>259.0</ele><time>2026-04-03T13:55:28.699Z</time></trkpt><trkpt lat="43.0764159" lon="12.1181592"><ele>259.5</ele><time>2026-04-03T13:55:29.7Z</time></trkpt><trkpt lat="43.0764199" lon="12.1185753"><ele>260.0</ele><time>2026-04-03T13:55:30.7Z</time></trkpt><trkpt lat="43.0764176" lon="12.1189953"><ele>259.5</ele><time>2026-04-03T13:55:31.7Z</time></trkpt><trkpt lat="43.0764148" lon="12.1194171"><ele>259.0</ele><time>2026-04-03T13:55:32.699Z</time></trkpt><trkpt lat="43.0764164" lon="12.1198204"><ele>259.0</ele><time>2026-04-03T13:55:33.699Z</time></trkpt><trkpt lat="43.0764138" lon="12.1201995"><ele>259.0</ele><time>2026-04-03T13:55:34.7Z</time></trkpt><trkpt lat="43.0764131" lon="12.1205547"><ele>259.0</ele><time>2026-04-03T13:55:35.699Z</time></trkpt><trkpt lat="43.0764137" lon="12.1209005"><ele>259.0</ele><time>2026-04-03T13:55:36.7Z</time></trkpt><trkpt lat="43.0764168" lon="12.1212371"><ele>259.0</ele><time>2026-04-03T13:55:37.699Z</time></trkpt><trkpt lat="43.0764262" lon="12.1215582"><ele>259.0</ele><time>2026-04-03T13:55:38.7Z</time></trkpt><trkpt lat="43.0764477" lon="12.1218701"><ele>259.0</ele><time>2026-04-03T13:55:39.7Z</time></trkpt><trkpt lat="43.0764926" lon="12.1221804"><ele>259.0</ele><time>2026-04-03T13:55:40.7Z</time></trkpt><trkpt lat="43.0765647" lon="12.1225054"><ele>258.5</ele><time>2026-04-03T13:55:41.699Z</time></trkpt><trkpt lat="43.0766363" lon="12.1228516"><ele>258.0</ele><time>2026-04-03T13:55:42.699Z</time></trkpt><trkpt lat="43.0767142" lon="12.1232077"><ele>258.0</ele><time>2026-04-03T13:55:43.7Z</time></trkpt><trkpt lat="43.0767907" lon="12.1235752"><ele>258.0</ele><time>2026-04-03T13:55:44.7Z</time></trkpt><trkpt lat="43.0768761" lon="12.1239441"><ele>258.5</ele><time>2026-04-03T13:55:45.7Z</time></trkpt><trkpt lat="43.0769554" lon="12.1243177"><ele>259.0</ele><time>2026-04-03T13:55:46.699Z</time></trkpt><trkpt lat="43.0770361" lon="12.1246986"><ele>259.0</ele><time>2026-04-03T13:55:47.7Z</time></trkpt><trkpt lat="43.077119" lon="12.125083"><ele>259.0</ele><time>2026-04-03T13:55:48.699Z</time></trkpt><trkpt lat="43.0772012" lon="12.1254694"><ele>259.0</ele><time>2026-04-03T13:55:49.7Z</time></trkpt><trkpt lat="43.0772804" lon="12.1258523"><ele>259.0</ele><time>2026-04-03T13:55:50.7Z</time></trkpt><trkpt lat="43.0773613" lon="12.1262344"><ele>258.5</ele><time>2026-04-03T13:55:51.7Z</time></trkpt><trkpt lat="43.0774433" lon="12.1266199"><ele>258.0</ele><time>2026-04-03T13:55:52.7Z</time></trkpt><trkpt lat="43.0775282" lon="12.1270049"><ele>258.0</ele><time>2026-04-03T13:55:53.699Z</time></trkpt><trkpt lat="43.077612" lon="12.1273846"><ele>258.0</ele><time>2026-04-03T13:55:54.7Z</time></trkpt><trkpt lat="43.0776971" lon="12.1277597"><ele>258.5</ele><time>2026-04-03T13:55:55.699Z</time></trkpt><trkpt lat="43.0777802" lon="12.1281303"><ele>259.0</ele><time>2026-04-03T13:55:56.7Z</time></trkpt><trkpt lat="43.0778626" lon="12.1285044"><ele>259.0</ele><time>2026-04-03T13:55:57.7Z</time></trkpt><trkpt lat="43.0779451" lon="12.1288774"><ele>259.0</ele><time>2026-04-03T13:55:58.7Z</time></trkpt><trkpt lat="43.0780325" lon="12.1292444"><ele>259.5</ele><time>2026-04-03T13:55:59.7Z</time></trkpt><trkpt lat="43.0781167" lon="12.1296168"><ele>260.0</ele><time>2026-04-03T13:56:00.7Z</time></trkpt><trkpt lat="43.0782028" lon="12.1299889"><ele>260.0</ele><time>2026-04-03T13:56:01.7Z</time></trkpt><trkpt lat="43.0782878" lon="12.1303657"><ele>260.0</ele><time>2026-04-03T13:56:02.7Z</time></trkpt><trkpt lat="43.0783708" lon="12.1307473"><ele>260.0</ele><time>2026-04-03T13:56:03.699Z</time></trkpt><trkpt lat="43.0784588" lon="12.1311368"><ele>260.0</ele><time>2026-04-03T13:56:04.7Z</time></trkpt><trkpt lat="43.0785436" lon="12.1315249"><ele>260.5</ele><time>2026-04-03T13:56:05.7Z</time></trkpt><trkpt lat="43.0786317" lon="12.1319132"><ele>261.0</ele><time>2026-04-03T13:56:06.7Z</time></trkpt><trkpt lat="43.0787192" lon="12.1323153"><ele>260.5</ele><time>2026-04-03T13:56:07.699Z</time></trkpt><trkpt lat="43.0788047" lon="12.1327072"><ele>260.0</ele><time>2026-04-03T13:56:08.699Z</time></trkpt><trkpt lat="43.0788881" lon="12.1330658"><ele>261.5</ele><time>2026-04-03T13:56:09.7Z</time></trkpt><trkpt lat="43.078962" lon="12.1333919"><ele>263.0</ele><time>2026-04-03T13:56:10.7Z</time></trkpt><trkpt lat="43.0790405" lon="12.1336902"><ele>263.6666666666667</ele><time>2026-04-03T13:56:11.699Z</time></trkpt><trkpt lat="43.0791219" lon="12.1339486"><ele>264.3333333333333</ele><time>2026-04-03T13:56:12.7Z</time></trkpt><trkpt lat="43.0792123" lon="12.1341686"><ele>265.0</ele><time>2026-04-03T13:56:13.699Z</time></trkpt><trkpt lat="43.0793287" lon="12.1343505"><ele>265.0</ele><time>2026-04-03T13:56:14.7Z</time></trkpt><trkpt lat="43.0794749" lon="12.1344884"><ele>265.0</ele><time>2026-04-03T13:56:15.7Z</time></trkpt><trkpt lat="43.0796427" lon="12.1345761"><ele>265.0</ele><time>2026-04-03T13:56:16.699Z</time></trkpt><trkpt lat="43.0798353" lon="12.1346163"><ele>264.0</ele><time>2026-04-03T13:56:17.7Z</time></trkpt><trkpt lat="43.080047" lon="12.1346352"><ele>263.0</ele><time>2026-04-03T13:56:18.7Z</time></trkpt><trkpt lat="43.0802729" lon="12.1346578"><ele>262.0</ele><time>2026-04-03T13:56:19.7Z</time></trkpt><trkpt lat="43.0804967" lon="12.1346903"><ele>262.0</ele><time>2026-04-03T13:56:20.699Z</time></trkpt><trkpt lat="43.0806999" lon="12.1347289"><ele>262.0</ele><time>2026-04-03T13:56:21.699Z</time></trkpt><trkpt lat="43.0808771" lon="12.1347956"><ele>262.0</ele><time>2026-04-03T13:56:22.699Z</time></trkpt><trkpt lat="43.081035" lon="12.1348848"><ele>267.0</ele><time>2026-04-03T13:56:23.699Z</time></trkpt><trkpt lat="43.0811857" lon="12.1349964"><ele>272.0</ele><time>2026-04-03T13:56:24.7Z</time></trkpt><trkpt lat="43.0813281" lon="12.1351162"><ele>277.0</ele><time>2026-04-03T13:56:25.7Z</time></trkpt><trkpt lat="43.0814464" lon="12.1352478"><ele>277.0</ele><time>2026-04-03T13:56:26.7Z</time></trkpt><trkpt lat="43.0815317" lon="12.1354042"><ele>277.0</ele><time>2026-04-03T13:56:27.7Z</time></trkpt><trkpt lat="43.081589" lon="12.1355632"><ele>277.0</ele><time>2026-04-03T13:56:28.699Z</time></trkpt><trkpt lat="43.0816222" lon="12.135721"><ele>277.0</ele><time>2026-04-03T13:56:29.699Z</time></trkpt><trkpt lat="43.0816295" lon="12.1358776"><ele>277.0</ele><time>2026-04-03T13:56:30.7Z</time></trkpt><trkpt lat="43.0816124" lon="12.1360365"><ele>277.0</ele><time>2026-04-03T13:56:31.699Z</time></trkpt><trkpt lat="43.081582" lon="12.1361866"><ele>277.0</ele><time>2026-04-03T13:56:32.699Z</time></trkpt><trkpt lat="43.0815223" lon="12.1363429"><ele>277.0</ele><time>2026-04-03T13:56:33.7Z</time></trkpt><trkpt lat="43.0814436" lon="12.13649"><ele>281.5</ele><time>2026-04-03T13:56:34.7Z</time></trkpt><trkpt lat="43.0813572" lon="12.1366391"><ele>286.0</ele><time>2026-04-03T13:56:35.7Z</time></trkpt><trkpt lat="43.0812638" lon="12.1367999"><ele>290.5</ele><time>2026-04-03T13:56:36.7Z</time></trkpt><trkpt lat="43.0811726" lon="12.1369719"><ele>295.0</ele><time>2026-04-03T13:56:37.699Z</time></trkpt><trkpt lat="43.0810773" lon="12.1371538"><ele>295.0</ele><time>2026-04-03T13:56:38.7Z</time></trkpt><trkpt lat="43.0809764" lon="12.1373429"><ele>295.0</ele><time>2026-04-03T13:56:39.7Z</time></trkpt><trkpt lat="43.0808677" lon="12.137545"><ele>295.0</ele><time>2026-04-03T13:56:40.7Z</time></trkpt><trkpt lat="43.0807518" lon="12.1377553"><ele>293.3333333333333</ele><time>2026-04-03T13:56:41.7Z</time></trkpt><trkpt lat="43.080623" lon="12.1379763"><ele>291.6666666666667</ele><time>2026-04-03T13:56:42.7Z</time></trkpt><trkpt lat="43.0804916" lon="12.1381936"><ele>290.0</ele><time>2026-04-03T13:56:43.7Z</time></trkpt><trkpt lat="43.0803611" lon="12.138398"><ele>290.0</ele><time>2026-04-03T13:56:44.699Z</time></trkpt><trkpt lat="43.080241" lon="12.1386169"><ele>290.0</ele><time>2026-04-03T13:56:45.7Z</time></trkpt><trkpt lat="43.0801458" lon="12.1388691"><ele>290.0</ele><time>2026-04-03T13:56:46.699Z</time></trkpt><trkpt lat="43.0800611" lon="12.1391354"><ele>288.0</ele><time>2026-04-03T13:56:47.7Z</time></trkpt><trkpt lat="43.0799944" lon="12.1393998"><ele>286.0</ele><time>2026-04-03T13:56:48.7Z</time></trkpt><trkpt lat="43.0799418" lon="12.1396625"><ele>284.0</ele><time>2026-04-03T13:56:49.699Z</time></trkpt><trkpt lat="43.0799178" lon="12.139945"><ele>284.0</ele><time>2026-04-03T13:56:50.7Z</time></trkpt><trkpt lat="43.0799231" lon="12.1402466"><ele>284.0</ele><time>2026-04-03T13:56:51.7Z</time></trkpt><trkpt lat="43.0799761" lon="12.1405282"><ele>284.0</ele><time>2026-04-03T13:56:52.7Z</time></trkpt><trkpt lat="43.0800511" lon="12.1407993"><ele>278.6666666666667</ele><time>2026-04-03T13:56:53.7Z</time></trkpt><trkpt lat="43.0801449" lon="12.1410502"><ele>273.3333333333333</ele><time>2026-04-03T13:56:54.699Z</time></trkpt><trkpt lat="43.0802708" lon="12.1412913"><ele>268.0</ele><time>2026-04-03T13:56:55.7Z</time></trkpt><trkpt lat="43.0804368" lon="12.1415136"><ele>266.5</ele><time>2026-04-03T13:56:56.699Z</time></trkpt><trkpt lat="43.0806126" lon="12.1417383"><ele>265.0</ele><time>2026-04-03T13:56:57.7Z</time></trkpt><trkpt lat="43.0807816" lon="12.1419626"><ele>263.66666666666663</ele><time>2026-04-03T13:56:58.7Z</time></trkpt><trkpt lat="43.0809214" lon="12.1421893"><ele>262.3333333333333</ele><time>2026-04-03T13:56:59.7Z</time></trkpt><trkpt lat="43.0810316" lon="12.142443"><ele>261.0</ele><time>2026-04-03T13:57:00.699Z</time></trkpt><trkpt lat="43.0811151" lon="12.1427184"><ele>261.0</ele><time>2026-04-03T13:57:01.699Z</time></trkpt><trkpt lat="43.0811809" lon="12.1430002"><ele>261.0</ele><time>2026-04-03T13:57:02.7Z</time></trkpt><trkpt lat="43.0812441" lon="12.1432852"><ele>261.0</ele><time>2026-04-03T13:57:03.7Z</time></trkpt><trkpt lat="43.0813039" lon="12.1435795"><ele>261.0</ele><time>2026-04-03T13:57:04.7Z</time></trkpt><trkpt lat="43.0813676" lon="12.1438755"><ele>261.0</ele><time>2026-04-03T13:57:05.7Z</time></trkpt><trkpt lat="43.0814335" lon="12.1441691"><ele>261.5</ele><time>2026-04-03T13:57:06.7Z</time></trkpt><trkpt lat="43.0815012" lon="12.1444628"><ele>262.0</ele><time>2026-04-03T13:57:07.7Z</time></trkpt><trkpt lat="43.0815674" lon="12.1447577"><ele>261.3333333333333</ele><time>2026-04-03T13:57:08.7Z</time></trkpt><trkpt lat="43.0816285" lon="12.1450466"><ele>260.6666666666667</ele><time>2026-04-03T13:57:09.7Z</time></trkpt><trkpt lat="43.0816924" lon="12.1453347"><ele>260.0</ele><time>2026-04-03T13:57:10.7Z</time></trkpt><trkpt lat="43.0817587" lon="12.1456208"><ele>260.33333333333337</ele><time>2026-04-03T13:57:11.7Z</time></trkpt><trkpt lat="43.0818199" lon="12.1459045"><ele>260.6666666666667</ele><time>2026-04-03T13:57:12.7Z</time></trkpt><trkpt lat="43.0818824" lon="12.1461855"><ele>261.0</ele><time>2026-04-03T13:57:13.7Z</time></trkpt><trkpt lat="43.0819447" lon="12.1464665"><ele>261.6666666666667</ele><time>2026-04-03T13:57:14.7Z</time></trkpt><trkpt lat="43.0819991" lon="12.1467508"><ele>262.33333333333337</ele><time>2026-04-03T13:57:15.699Z</time></trkpt><trkpt lat="43.0820323" lon="12.1470355"><ele>263.0</ele><time>2026-04-03T13:57:16.7Z</time></trkpt><trkpt lat="43.0820409" lon="12.1473334"><ele>263.0</ele><time>2026-04-03T13:57:17.7Z</time></trkpt><trkpt lat="43.0820301" lon="12.1476217"><ele>263.0</ele><time>2026-04-03T13:57:18.699Z</time></trkpt><trkpt lat="43.0820164" lon="12.1478837"><ele>263.0</ele><time>2026-04-03T13:57:19.699Z</time></trkpt><trkpt lat="43.0819941" lon="12.1481363"><ele>263.6666666666667</ele><time>2026-04-03T13:57:20.699Z</time></trkpt><trkpt lat="43.0819792" lon="12.1483801"><ele>264.3333333333333</ele><time>2026-04-03T13:57:21.699Z</time></trkpt><trkpt lat="43.0819691" lon="12.1486334"><ele>265.0</ele><time>2026-04-03T13:57:22.7Z</time></trkpt><trkpt lat="43.0819563" lon="12.1488978"><ele>265.0</ele><time>2026-04-03T13:57:23.7Z</time></trkpt><trkpt lat="43.0819448" lon="12.1491542"><ele>265.0</ele><time>2026-04-03T13:57:24.699Z</time></trkpt><trkpt lat="43.0819382" lon="12.1494179"><ele>265.0</ele><time>2026-04-03T13:57:25.7Z</time></trkpt><trkpt lat="43.081924" lon="12.1497131"><ele>265.0</ele><time>2026-04-03T13:57:26.7Z</time></trkpt><trkpt lat="43.0819095" lon="12.1500297"><ele>265.0</ele><time>2026-04-03T13:57:27.7Z</time></trkpt><trkpt lat="43.0818869" lon="12.1503586"><ele>265.0</ele><time>2026-04-03T13:57:28.7Z</time></trkpt><trkpt lat="43.0818613" lon="12.1506913"><ele>265.0</ele><time>2026-04-03T13:57:29.7Z</time></trkpt><trkpt lat="43.0818315" lon="12.151024"><ele>265.0</ele><time>2026-04-03T13:57:30.7Z</time></trkpt><trkpt lat="43.0818116" lon="12.1513589"><ele>265.0</ele><time>2026-04-03T13:57:31.7Z</time></trkpt><trkpt lat="43.0817841" lon="12.1516847"><ele>265.0</ele><time>2026-04-03T13:57:32.7Z</time></trkpt><trkpt lat="43.0817627" lon="12.1520074"><ele>265.0</ele><time>2026-04-03T13:57:33.7Z</time></trkpt><trkpt lat="43.0817498" lon="12.1523222"><ele>266.0</ele><time>2026-04-03T13:57:34.7Z</time></trkpt><trkpt lat="43.0817527" lon="12.1526365"><ele>267.0</ele><time>2026-04-03T13:57:35.7Z</time></trkpt><trkpt lat="43.0817659" lon="12.1529533"><ele>267.5</ele><time>2026-04-03T13:57:36.7Z</time></trkpt><trkpt lat="43.0818131" lon="12.1532626"><ele>268.0</ele><time>2026-04-03T13:57:37.699Z</time></trkpt><trkpt lat="43.0818802" lon="12.1535584"><ele>268.0</ele><time>2026-04-03T13:57:38.699Z</time></trkpt><trkpt lat="43.0819616" lon="12.1538516"><ele>268.0</ele><time>2026-04-03T13:57:39.7Z</time></trkpt><trkpt lat="43.0820489" lon="12.1541435"><ele>269.0</ele><time>2026-04-03T13:57:40.699Z</time></trkpt><trkpt lat="43.0821368" lon="12.1544405"><ele>270.0</ele><time>2026-04-03T13:57:41.7Z</time></trkpt><trkpt lat="43.0822252" lon="12.1547408"><ele>270.0</ele><time>2026-04-03T13:57:42.7Z</time></trkpt><trkpt lat="43.0823152" lon="12.1550491"><ele>270.0</ele><time>2026-04-03T13:57:43.7Z</time></trkpt><trkpt lat="43.0824081" lon="12.1553629"><ele>269.0</ele><time>2026-04-03T13:57:44.699Z</time></trkpt><trkpt lat="43.0825016" lon="12.1556843"><ele>268.0</ele><time>2026-04-03T13:57:45.7Z</time></trkpt><trkpt lat="43.082594" lon="12.1560059"><ele>268.0</ele><time>2026-04-03T13:57:46.7Z</time></trkpt><trkpt lat="43.0826905" lon="12.156326"><ele>268.0</ele><time>2026-04-03T13:57:47.699Z</time></trkpt><trkpt lat="43.0827881" lon="12.156646"><ele>268.5</ele><time>2026-04-03T13:57:48.7Z</time></trkpt><trkpt lat="43.0828834" lon="12.156964"><ele>269.0</ele><time>2026-04-03T13:57:49.699Z</time></trkpt><trkpt lat="43.0829759" lon="12.1572828"><ele>270.5</ele><time>2026-04-03T13:57:50.7Z</time></trkpt><trkpt lat="43.083064" lon="12.1575827"><ele>272.0</ele><time>2026-04-03T13:57:51.7Z</time></trkpt><trkpt lat="43.0831441" lon="12.1578708"><ele>272.0</ele><time>2026-04-03T13:57:52.699Z</time></trkpt><trkpt lat="43.0832266" lon="12.1581521"><ele>272.0</ele><time>2026-04-03T13:57:53.699Z</time></trkpt><trkpt lat="43.0833175" lon="12.1584207"><ele>272.0</ele><time>2026-04-03T13:57:54.7Z</time></trkpt><trkpt lat="43.0834366" lon="12.1586545"><ele>271.6666666666667</ele><time>2026-04-03T13:57:55.7Z</time></trkpt><trkpt lat="43.0835723" lon="12.1588608"><ele>271.3333333333333</ele><time>2026-04-03T13:57:56.7Z</time></trkpt><trkpt lat="43.0837139" lon="12.1590355"><ele>271.0</ele><time>2026-04-03T13:57:57.7Z</time></trkpt><trkpt lat="43.083853" lon="12.1591933"><ele>271.3333333333333</ele><time>2026-04-03T13:57:58.7Z</time></trkpt><trkpt lat="43.0839732" lon="12.1593341"><ele>271.6666666666667</ele><time>2026-04-03T13:57:59.699Z</time></trkpt><trkpt lat="43.0840916" lon="12.1594671"><ele>272.0</ele><time>2026-04-03T13:58:00.699Z</time></trkpt><trkpt lat="43.0841995" lon="12.1596009"><ele>272.0</ele><time>2026-04-03T13:58:01.699Z</time></trkpt><trkpt lat="43.0843184" lon="12.1597399"><ele>272.0</ele><time>2026-04-03T13:58:02.7Z</time></trkpt><trkpt lat="43.0844481" lon="12.1598864"><ele>272.0</ele><time>2026-04-03T13:58:03.7Z</time></trkpt><trkpt lat="43.0845845" lon="12.160045"><ele>272.6666666666667</ele><time>2026-04-03T13:58:04.7Z</time></trkpt><trkpt lat="43.0847238" lon="12.1601918"><ele>273.3333333333333</ele><time>2026-04-03T13:58:05.699Z</time></trkpt><trkpt lat="43.0848589" lon="12.1603131"><ele>274.0</ele><time>2026-04-03T13:58:06.7Z</time></trkpt><trkpt lat="43.0849979" lon="12.1603803"><ele>272.3333333333333</ele><time>2026-04-03T13:58:07.7Z</time></trkpt><trkpt lat="43.0851423" lon="12.1603973"><ele>270.6666666666667</ele><time>2026-04-03T13:58:08.7Z</time></trkpt><trkpt lat="43.0852944" lon="12.1603709"><ele>269.0</ele><time>2026-04-03T13:58:09.699Z</time></trkpt><trkpt lat="43.0854585" lon="12.1603152"><ele>269.0</ele><time>2026-04-03T13:58:10.699Z</time></trkpt><trkpt lat="43.0856174" lon="12.1602626"><ele>269.0</ele><time>2026-04-03T13:58:11.7Z</time></trkpt><trkpt lat="43.0857716" lon="12.1602119"><ele>269.0</ele><time>2026-04-03T13:58:12.7Z</time></trkpt><trkpt lat="43.0859163" lon="12.1601635"><ele>268.75</ele><time>2026-04-03T13:58:13.7Z</time></trkpt><trkpt lat="43.0860513" lon="12.1601179"><ele>268.5</ele><time>2026-04-03T13:58:14.699Z</time></trkpt><trkpt lat="43.0861753" lon="12.1600855"><ele>268.25</ele><time>2026-04-03T13:58:15.699Z</time></trkpt><trkpt lat="43.0863029" lon="12.1600643"><ele>268.0</ele><time>2026-04-03T13:58:16.699Z</time></trkpt><trkpt lat="43.0864307" lon="12.1600625"><ele>268.0</ele><time>2026-04-03T13:58:17.699Z</time></trkpt><trkpt lat="43.0865625" lon="12.1600985"><ele>268.0</ele><time>2026-04-03T13:58:18.7Z</time></trkpt><trkpt lat="43.0866874" lon="12.1601614"><ele>268.0</ele><time>2026-04-03T13:58:19.7Z</time></trkpt><trkpt lat="43.0868138" lon="12.1602678"><ele>268.0</ele><time>2026-04-03T13:58:20.699Z</time></trkpt><trkpt lat="43.0869404" lon="12.1603847"><ele>267.3333333333333</ele><time>2026-04-03T13:58:21.699Z</time></trkpt><trkpt lat="43.0870777" lon="12.1605179"><ele>266.6666666666667</ele><time>2026-04-03T13:58:22.699Z</time></trkpt><trkpt lat="43.0872295" lon="12.16066"><ele>266.0</ele><time>2026-04-03T13:58:23.699Z</time></trkpt><trkpt lat="43.0874003" lon="12.1608026"><ele>266.5</ele><time>2026-04-03T13:58:24.7Z</time></trkpt><trkpt lat="43.0875809" lon="12.160968"><ele>267.0</ele><time>2026-04-03T13:58:25.699Z</time></trkpt><trkpt lat="43.0877744" lon="12.1611624"><ele>267.0</ele><time>2026-04-03T13:58:26.7Z</time></trkpt><trkpt lat="43.0879838" lon="12.1613734"><ele>267.0</ele><time>2026-04-03T13:58:27.699Z</time></trkpt><trkpt lat="43.088215" lon="12.1615984"><ele>269.0</ele><time>2026-04-03T13:58:28.7Z</time></trkpt><trkpt lat="43.0884613" lon="12.1618455"><ele>271.0</ele><time>2026-04-03T13:58:29.7Z</time></trkpt><trkpt lat="43.0887085" lon="12.1620958"><ele>271.0</ele><time>2026-04-03T13:58:30.7Z</time></trkpt><trkpt lat="43.088945" lon="12.1623314"><ele>271.0</ele><time>2026-04-03T13:58:31.7Z</time></trkpt><trkpt lat="43.089167" lon="12.1625489"><ele>269.5</ele><time>2026-04-03T13:58:32.7Z</time></trkpt><trkpt lat="43.0893793" lon="12.162752"><ele>268.0</ele><time>2026-04-03T13:58:33.699Z</time></trkpt><trkpt lat="43.0895819" lon="12.1629539"><ele>268.0</ele><time>2026-04-03T13:58:34.699Z</time></trkpt><trkpt lat="43.0897766" lon="12.1631461"><ele>268.0</ele><time>2026-04-03T13:58:35.699Z</time></trkpt><trkpt lat="43.0899418" lon="12.1633239"><ele>268.3333333333333</ele><time>2026-04-03T13:58:36.7Z</time></trkpt><trkpt lat="43.0900782" lon="12.1634951"><ele>268.6666666666667</ele><time>2026-04-03T13:58:37.699Z</time></trkpt><trkpt lat="43.0901794" lon="12.1636824"><ele>269.0</ele><time>2026-04-03T13:58:38.7Z</time></trkpt><trkpt lat="43.0902591" lon="12.1639079"><ele>274.0</ele><time>2026-04-03T13:58:39.699Z</time></trkpt><trkpt lat="43.0903452" lon="12.164175"><ele>279.0</ele><time>2026-04-03T13:58:40.7Z</time></trkpt><trkpt lat="43.0904369" lon="12.1644606"><ele>284.0</ele><time>2026-04-03T13:58:41.7Z</time></trkpt><trkpt lat="43.0905266" lon="12.1647389"><ele>286.33333333333337</ele><time>2026-04-03T13:58:42.7Z</time></trkpt><trkpt lat="43.0906017" lon="12.1649893"><ele>288.6666666666667</ele><time>2026-04-03T13:58:43.699Z</time></trkpt><trkpt lat="43.0906688" lon="12.1652182"><ele>291.0</ele><time>2026-04-03T13:58:44.7Z</time></trkpt><trkpt lat="43.090723" lon="12.1654472"><ele>291.0</ele><time>2026-04-03T13:58:45.699Z</time></trkpt><trkpt lat="43.0907517" lon="12.165682"><ele>291.0</ele><time>2026-04-03T13:58:46.699Z</time></trkpt><trkpt lat="43.0907573" lon="12.1659247"><ele>291.0</ele><time>2026-04-03T13:58:47.7Z</time></trkpt><trkpt lat="43.0907271" lon="12.1661837"><ele>292.0</ele><time>2026-04-03T13:58:48.699Z</time></trkpt><trkpt lat="43.0906805" lon="12.1664765"><ele>293.0</ele><time>2026-04-03T13:58:49.7Z</time></trkpt><trkpt lat="43.0906279" lon="12.1667915"><ele>289.33333333333337</ele><time>2026-04-03T13:58:50.699Z</time></trkpt><trkpt lat="43.0905874" lon="12.1670963"><ele>285.6666666666667</ele><time>2026-04-03T13:58:51.7Z</time></trkpt><trkpt lat="43.0905488" lon="12.1673744"><ele>282.0</ele><time>2026-04-03T13:58:52.7Z</time></trkpt><trkpt lat="43.0905049" lon="12.1676398"><ele>280.6666666666667</ele><time>2026-04-03T13:58:53.7Z</time></trkpt><trkpt lat="43.0904619" lon="12.1678981"><ele>279.33333333333337</ele><time>2026-04-03T13:58:54.699Z</time></trkpt><trkpt lat="43.0904227" lon="12.1681574"><ele>278.0</ele><time>2026-04-03T13:58:55.7Z</time></trkpt><trkpt lat="43.0903769" lon="12.1684056"><ele>278.0</ele><time>2026-04-03T13:58:56.7Z</time></trkpt><trkpt lat="43.0903109" lon="12.1686409"><ele>278.0</ele><time>2026-04-03T13:58:57.699Z</time></trkpt><trkpt lat="43.0902189" lon="12.1688644"><ele>278.0</ele><time>2026-04-03T13:58:58.7Z</time></trkpt><trkpt lat="43.0901139" lon="12.1690764"><ele>275.0</ele><time>2026-04-03T13:58:59.7Z</time></trkpt><trkpt lat="43.0900046" lon="12.1692796"><ele>272.0</ele><time>2026-04-03T13:59:00.7Z</time></trkpt><trkpt lat="43.0898932" lon="12.1694776"><ele>269.0</ele><time>2026-04-03T13:59:01.699Z</time></trkpt><trkpt lat="43.0897882" lon="12.1696773"><ele>269.6666666666667</ele><time>2026-04-03T13:59:02.7Z</time></trkpt><trkpt lat="43.0896814" lon="12.1698865"><ele>270.3333333333333</ele><time>2026-04-03T13:59:03.7Z</time></trkpt><trkpt lat="43.0895707" lon="12.1700984"><ele>271.0</ele><time>2026-04-03T13:59:04.7Z</time></trkpt><trkpt lat="43.0894572" lon="12.1703123"><ele>271.0</ele><time>2026-04-03T13:59:05.7Z</time></trkpt><trkpt lat="43.0893427" lon="12.1705268"><ele>271.0</ele><time>2026-04-03T13:59:06.7Z</time></trkpt><trkpt lat="43.0892272" lon="12.1707454"><ele>271.0</ele><time>2026-04-03T13:59:07.7Z</time></trkpt><trkpt lat="43.0891124" lon="12.1709615"><ele>271.0</ele><time>2026-04-03T13:59:08.7Z</time></trkpt><trkpt lat="43.0889975" lon="12.1711789"><ele>271.0</ele><time>2026-04-03T13:59:09.7Z</time></trkpt><trkpt lat="43.0888859" lon="12.1713911"><ele>271.0</ele><time>2026-04-03T13:59:10.699Z</time></trkpt><trkpt lat="43.0887756" lon="12.1716062"><ele>271.0</ele><time>2026-04-03T13:59:11.7Z</time></trkpt><trkpt lat="43.0886645" lon="12.1718213"><ele>271.0</ele><time>2026-04-03T13:59:12.699Z</time></trkpt><trkpt lat="43.0885548" lon="12.1720282"><ele>271.0</ele><time>2026-04-03T13:59:13.699Z</time></trkpt><trkpt lat="43.088453" lon="12.172233"><ele>267.66666666666663</ele><time>2026-04-03T13:59:14.699Z</time></trkpt><trkpt lat="43.08836" lon="12.1724533"><ele>264.3333333333333</ele><time>2026-04-03T13:59:15.699Z</time></trkpt><trkpt lat="43.0882974" lon="12.1726883"><ele>261.0</ele><time>2026-04-03T13:59:16.7Z</time></trkpt><trkpt lat="43.0882658" lon="12.1729431"><ele>265.0</ele><time>2026-04-03T13:59:17.7Z</time></trkpt><trkpt lat="43.0882506" lon="12.1732376"><ele>269.0</ele><time>2026-04-03T13:59:18.7Z</time></trkpt><trkpt lat="43.0882299" lon="12.1735608"><ele>269.0</ele><time>2026-04-03T13:59:19.699Z</time></trkpt><trkpt lat="43.0881989" lon="12.1739072"><ele>269.0</ele><time>2026-04-03T13:59:20.7Z</time></trkpt><trkpt lat="43.088159" lon="12.1742575"><ele>268.0</ele><time>2026-04-03T13:59:21.699Z</time></trkpt><trkpt lat="43.0881309" lon="12.174604"><ele>267.0</ele><time>2026-04-03T13:59:22.7Z</time></trkpt><trkpt lat="43.0881002" lon="12.1749462"><ele>267.0</ele><time>2026-04-03T13:59:23.7Z</time></trkpt><trkpt lat="43.0880739" lon="12.1752901"><ele>267.0</ele><time>2026-04-03T13:59:24.7Z</time></trkpt><trkpt lat="43.0880451" lon="12.1756326"><ele>267.5</ele><time>2026-04-03T13:59:25.7Z</time></trkpt><trkpt lat="43.0880205" lon="12.1759765"><ele>268.0</ele><time>2026-04-03T13:59:26.7Z</time></trkpt><trkpt lat="43.0879948" lon="12.1763292"><ele>267.5</ele><time>2026-04-03T13:59:27.7Z</time></trkpt><trkpt lat="43.0879666" lon="12.1766863"><ele>267.0</ele><time>2026-04-03T13:59:28.7Z</time></trkpt><trkpt lat="43.0879356" lon="12.1770408"><ele>267.5</ele><time>2026-04-03T13:59:29.7Z</time></trkpt><trkpt lat="43.0879069" lon="12.1773957"><ele>268.0</ele><time>2026-04-03T13:59:30.7Z</time></trkpt><trkpt lat="43.0878751" lon="12.1777532"><ele>268.0</ele><time>2026-04-03T13:59:31.7Z</time></trkpt><trkpt lat="43.0878485" lon="12.1781126"><ele>268.0</ele><time>2026-04-03T13:59:32.7Z</time></trkpt><trkpt lat="43.0878231" lon="12.1784679"><ele>268.0</ele><time>2026-04-03T13:59:33.699Z</time></trkpt><trkpt lat="43.0877955" lon="12.1788269"><ele>268.0</ele><time>2026-04-03T13:59:34.7Z</time></trkpt><trkpt lat="43.087767" lon="12.1791829"><ele>268.5</ele><time>2026-04-03T13:59:35.699Z</time></trkpt><trkpt lat="43.0877309" lon="12.1795419"><ele>269.0</ele><time>2026-04-03T13:59:36.699Z</time></trkpt><trkpt lat="43.0876998" lon="12.1799054"><ele>266.5</ele><time>2026-04-03T13:59:37.7Z</time></trkpt><trkpt lat="43.0876697" lon="12.1802701"><ele>264.0</ele><time>2026-04-03T13:59:38.7Z</time></trkpt><trkpt lat="43.0876409" lon="12.1806325"><ele>264.0</ele><time>2026-04-03T13:59:39.699Z</time></trkpt><trkpt lat="43.0876088" lon="12.1809984"><ele>264.0</ele><time>2026-04-03T13:59:40.699Z</time></trkpt><trkpt lat="43.0875721" lon="12.1813669"><ele>262.0</ele><time>2026-04-03T13:59:41.7Z</time></trkpt><trkpt lat="43.0875411" lon="12.1817406"><ele>260.0</ele><time>2026-04-03T13:59:42.699Z</time></trkpt><trkpt lat="43.087508" lon="12.1821126"><ele>260.0</ele><time>2026-04-03T13:59:43.7Z</time></trkpt><trkpt lat="43.0874745" lon="12.182483"><ele>260.0</ele><time>2026-04-03T13:59:44.699Z</time></trkpt><trkpt lat="43.0874454" lon="12.182856"><ele>264.5</ele><time>2026-04-03T13:59:45.699Z</time></trkpt><trkpt lat="43.0874157" lon="12.1832285"><ele>269.0</ele><time>2026-04-03T13:59:46.7Z</time></trkpt><trkpt lat="43.0873864" lon="12.1836008"><ele>269.0</ele><time>2026-04-03T13:59:47.699Z</time></trkpt><trkpt lat="43.0873508" lon="12.1839726"><ele>269.0</ele><time>2026-04-03T13:59:48.699Z</time></trkpt><trkpt lat="43.087323" lon="12.184318"><ele>268.6666666666667</ele><time>2026-04-03T13:59:49.699Z</time></trkpt><trkpt lat="43.0873011" lon="12.1846114"><ele>268.3333333333333</ele><time>2026-04-03T13:59:50.7Z</time></trkpt><trkpt lat="43.0872929" lon="12.1848145"><ele>268.0</ele><time>2026-04-03T13:59:51.699Z</time></trkpt><trkpt lat="43.0872757" lon="12.1849927"><ele>267.75</ele><time>2026-04-03T13:59:52.7Z</time></trkpt><trkpt lat="43.0872689" lon="12.185172"><ele>267.5</ele><time>2026-04-03T13:59:53.7Z</time></trkpt><trkpt lat="43.0872712" lon="12.1853617"><ele>267.25</ele><time>2026-04-03T13:59:54.699Z</time></trkpt><trkpt lat="43.087292" lon="12.1855721"><ele>267.0</ele><time>2026-04-03T13:59:55.7Z</time></trkpt><trkpt lat="43.0873345" lon="12.1858163"><ele>266.3333333333333</ele><time>2026-04-03T13:59:56.699Z</time></trkpt><trkpt lat="43.0873884" lon="12.1860829"><ele>265.66666666666663</ele><time>2026-04-03T13:59:57.7Z</time></trkpt><trkpt lat="43.0874554" lon="12.1863475"><ele>265.0</ele><time>2026-04-03T13:59:58.7Z</time></trkpt><trkpt lat="43.0875177" lon="12.1866156"><ele>266.66666666666663</ele><time>2026-04-03T13:59:59.699Z</time></trkpt><trkpt lat="43.0875725" lon="12.1868794"><ele>268.3333333333333</ele><time>2026-04-03T14:00:00.7Z</time></trkpt><trkpt lat="43.0876139" lon="12.1871289"><ele>270.0</ele><time>2026-04-03T14:00:01.699Z</time></trkpt><trkpt lat="43.0876373" lon="12.1873652"><ele>271.6666666666667</ele><time>2026-04-03T14:00:02.699Z</time></trkpt><trkpt lat="43.0876325" lon="12.1876144"><ele>273.33333333333337</ele><time>2026-04-03T14:00:03.699Z</time></trkpt><trkpt lat="43.0876001" lon="12.1878826"><ele>275.0</ele><time>2026-04-03T14:00:04.699Z</time></trkpt><trkpt lat="43.0875434" lon="12.1881676"><ele>275.5</ele><time>2026-04-03T14:00:05.699Z</time></trkpt><trkpt lat="43.0874745" lon="12.1884757"><ele>276.0</ele><time>2026-04-03T14:00:06.699Z</time></trkpt><trkpt lat="43.0873963" lon="12.1888008"><ele>286.0</ele><time>2026-04-03T14:00:07.699Z</time></trkpt><trkpt lat="43.0873177" lon="12.1891426"><ele>296.0</ele><time>2026-04-03T14:00:08.7Z</time></trkpt><trkpt lat="43.0872396" lon="12.1894749"><ele>296.0</ele><time>2026-04-03T14:00:09.699Z</time></trkpt><trkpt lat="43.0871681" lon="12.1897705"><ele>296.0</ele><time>2026-04-03T14:00:10.7Z</time></trkpt><trkpt lat="43.0871067" lon="12.1900397"><ele>296.0</ele><time>2026-04-03T14:00:11.7Z</time></trkpt><trkpt lat="43.0870763" lon="12.1902833"><ele>294.33333333333337</ele><time>2026-04-03T14:00:12.699Z</time></trkpt><trkpt lat="43.0870904" lon="12.1905402"><ele>292.6666666666667</ele><time>2026-04-03T14:00:13.699Z</time></trkpt><trkpt lat="43.0871569" lon="12.1907906"><ele>291.0</ele><time>2026-04-03T14:00:14.7Z</time></trkpt><trkpt lat="43.0872667" lon="12.1910372"><ele>291.0</ele><time>2026-04-03T14:00:15.7Z</time></trkpt><trkpt lat="43.0873838" lon="12.1913035"><ele>291.0</ele><time>2026-04-03T14:00:16.7Z</time></trkpt><trkpt lat="43.0874932" lon="12.1915505"><ele>291.0</ele><time>2026-04-03T14:00:17.7Z</time></trkpt><trkpt lat="43.0875809" lon="12.1917766"><ele>289.6666666666667</ele><time>2026-04-03T14:00:18.7Z</time></trkpt><trkpt lat="43.0876441" lon="12.1919874"><ele>288.33333333333337</ele><time>2026-04-03T14:00:19.7Z</time></trkpt><trkpt lat="43.0876686" lon="12.1922157"><ele>287.0</ele><time>2026-04-03T14:00:20.7Z</time></trkpt><trkpt lat="43.0876625" lon="12.1924758"><ele>287.0</ele><time>2026-04-03T14:00:21.699Z</time></trkpt><trkpt lat="43.0876376" lon="12.1927719"><ele>287.0</ele><time>2026-04-03T14:00:22.699Z</time></trkpt><trkpt lat="43.0876212" lon="12.1930878"><ele>287.0</ele><time>2026-04-03T14:00:23.698Z</time></trkpt><trkpt lat="43.0876041" lon="12.1933887"><ele>286.0</ele><time>2026-04-03T14:00:24.699Z</time></trkpt><trkpt lat="43.0875863" lon="12.1936342"><ele>285.0</ele><time>2026-04-03T14:00:25.699Z</time></trkpt><trkpt lat="43.0875666" lon="12.1938437"><ele>284.0</ele><time>2026-04-03T14:00:26.698Z</time></trkpt><trkpt lat="43.087546" lon="12.194003"><ele>284.2</ele><time>2026-04-03T14:00:27.699Z</time></trkpt><trkpt lat="43.0875079" lon="12.1941247"><ele>284.4</ele><time>2026-04-03T14:00:28.699Z</time></trkpt><trkpt lat="43.087456" lon="12.1942132"><ele>284.6</ele><time>2026-04-03T14:00:29.699Z</time></trkpt><trkpt lat="43.0873468" lon="12.1942805"><ele>284.8</ele><time>2026-04-03T14:00:30.699Z</time></trkpt><trkpt lat="43.0872187" lon="12.1943558"><ele>285.0</ele><time>2026-04-03T14:00:31.698Z</time></trkpt><trkpt lat="43.0871007" lon="12.1944849"><ele>290.0</ele><time>2026-04-03T14:00:32.699Z</time></trkpt><trkpt lat="43.0869744" lon="12.1946647"><ele>295.0</ele><time>2026-04-03T14:00:33.699Z</time></trkpt><trkpt lat="43.086855" lon="12.1948733"><ele>300.0</ele><time>2026-04-03T14:00:34.699Z</time></trkpt><trkpt lat="43.0867259" lon="12.1951064"><ele>309.5</ele><time>2026-04-03T14:00:35.699Z</time></trkpt><trkpt lat="43.0865923" lon="12.1953503"><ele>319.0</ele><time>2026-04-03T14:00:36.699Z</time></trkpt><trkpt lat="43.086453" lon="12.1956018"><ele>318.0</ele><time>2026-04-03T14:00:37.698Z</time></trkpt><trkpt lat="43.0863169" lon="12.1958461"><ele>317.0</ele><time>2026-04-03T14:00:38.699Z</time></trkpt><trkpt lat="43.08618" lon="12.1960937"><ele>317.0</ele><time>2026-04-03T14:00:39.699Z</time></trkpt><trkpt lat="43.0860383" lon="12.196339"><ele>317.0</ele><time>2026-04-03T14:00:40.699Z</time></trkpt><trkpt lat="43.0859005" lon="12.1965874"><ele>318.6666666666667</ele><time>2026-04-03T14:00:41.698Z</time></trkpt><trkpt lat="43.0857657" lon="12.1968162"><ele>320.3333333333333</ele><time>2026-04-03T14:00:42.699Z</time></trkpt><trkpt lat="43.0856367" lon="12.1970356"><ele>322.0</ele><time>2026-04-03T14:00:43.699Z</time></trkpt><trkpt lat="43.0855088" lon="12.1972522"><ele>322.0</ele><time>2026-04-03T14:00:44.698Z</time></trkpt><trkpt lat="43.0853865" lon="12.1974482"><ele>322.0</ele><time>2026-04-03T14:00:45.699Z</time></trkpt><trkpt lat="43.0852644" lon="12.1976058"><ele>322.0</ele><time>2026-04-03T14:00:46.699Z</time></trkpt><trkpt lat="43.085126" lon="12.197734"><ele>322.0</ele><time>2026-04-03T14:00:47.699Z</time></trkpt><trkpt lat="43.0849735" lon="12.1978543"><ele>322.0</ele><time>2026-04-03T14:00:48.699Z</time></trkpt><trkpt lat="43.084779" lon="12.1979904"><ele>322.0</ele><time>2026-04-03T14:00:49.698Z</time></trkpt><trkpt lat="43.0845753" lon="12.1981385"><ele>312.5</ele><time>2026-04-03T14:00:50.699Z</time></trkpt><trkpt lat="43.0843705" lon="12.1982924"><ele>303.0</ele><time>2026-04-03T14:00:51.699Z</time></trkpt><trkpt lat="43.084157" lon="12.198452"><ele>301.5</ele><time>2026-04-03T14:00:52.698Z</time></trkpt><trkpt lat="43.0839238" lon="12.198631"><ele>300.0</ele><time>2026-04-03T14:00:53.699Z</time></trkpt><trkpt lat="43.0836864" lon="12.1988169"><ele>294.5</ele><time>2026-04-03T14:00:54.699Z</time></trkpt><trkpt lat="43.0834422" lon="12.1990039"><ele>289.0</ele><time>2026-04-03T14:00:55.698Z</time></trkpt><trkpt lat="43.0831966" lon="12.1991833"><ele>287.0</ele><time>2026-04-03T14:00:56.699Z</time></trkpt><trkpt lat="43.0829453" lon="12.1993561"><ele>285.0</ele><time>2026-04-03T14:00:57.698Z</time></trkpt><trkpt lat="43.0826791" lon="12.1995092"><ele>283.5</ele><time>2026-04-03T14:00:58.699Z</time></trkpt><trkpt lat="43.0823936" lon="12.1996374"><ele>282.0</ele><time>2026-04-03T14:00:59.699Z</time></trkpt><trkpt lat="43.0821006" lon="12.1997581"><ele>280.0</ele><time>2026-04-03T14:01:00.699Z</time></trkpt><trkpt lat="43.0818168" lon="12.1998705"><ele>278.0</ele><time>2026-04-03T14:01:01.699Z</time></trkpt><trkpt lat="43.081543" lon="12.1999821"><ele>276.0</ele><time>2026-04-03T14:01:02.699Z</time></trkpt><trkpt lat="43.0812762" lon="12.2000949"><ele>274.0</ele><time>2026-04-03T14:01:03.699Z</time></trkpt><trkpt lat="43.0810224" lon="12.2002217"><ele>274.0</ele><time>2026-04-03T14:01:04.699Z</time></trkpt><trkpt lat="43.0807828" lon="12.2003823"><ele>274.0</ele><time>2026-04-03T14:01:05.699Z</time></trkpt><trkpt lat="43.0805389" lon="12.2005867"><ele>272.5</ele><time>2026-04-03T14:01:06.699Z</time></trkpt><trkpt lat="43.0802855" lon="12.2008085"><ele>271.0</ele><time>2026-04-03T14:01:07.699Z</time></trkpt><trkpt lat="43.0800268" lon="12.2010355"><ele>268.5</ele><time>2026-04-03T14:01:08.698Z</time></trkpt><trkpt lat="43.0797618" lon="12.2012714"><ele>266.0</ele><time>2026-04-03T14:01:09.699Z</time></trkpt><trkpt lat="43.0794967" lon="12.2015085"><ele>265.0</ele><time>2026-04-03T14:01:10.698Z</time></trkpt><trkpt lat="43.0792297" lon="12.2017435"><ele>264.0</ele><time>2026-04-03T14:01:11.698Z</time></trkpt><trkpt lat="43.078959" lon="12.201982"><ele>263.0</ele><time>2026-04-03T14:01:12.698Z</time></trkpt><trkpt lat="43.0786892" lon="12.2022155"><ele>262.0</ele><time>2026-04-03T14:01:13.698Z</time></trkpt><trkpt lat="43.0784167" lon="12.2024567"><ele>260.0</ele><time>2026-04-03T14:01:14.699Z</time></trkpt><trkpt lat="43.0781415" lon="12.2027017"><ele>258.0</ele><time>2026-04-03T14:01:15.699Z</time></trkpt><trkpt lat="43.0778668" lon="12.2029489"><ele>258.0</ele><time>2026-04-03T14:01:16.698Z</time></trkpt><trkpt lat="43.0775918" lon="12.2031921"><ele>258.0</ele><time>2026-04-03T14:01:17.699Z</time></trkpt><trkpt lat="43.0773292" lon="12.2034292"><ele>258.0</ele><time>2026-04-03T14:01:18.699Z</time></trkpt><trkpt lat="43.0770685" lon="12.2036592"><ele>258.0</ele><time>2026-04-03T14:01:19.699Z</time></trkpt><trkpt lat="43.0768136" lon="12.2038805"><ele>257.5</ele><time>2026-04-03T14:01:20.699Z</time></trkpt><trkpt lat="43.0765573" lon="12.2040941"><ele>257.0</ele><time>2026-04-03T14:01:21.699Z</time></trkpt><trkpt lat="43.076302" lon="12.2043103"><ele>257.0</ele><time>2026-04-03T14:01:22.699Z</time></trkpt><trkpt lat="43.0760462" lon="12.2045197"><ele>257.0</ele><time>2026-04-03T14:01:23.698Z</time></trkpt><trkpt lat="43.0757906" lon="12.2047208"><ele>255.0</ele><time>2026-04-03T14:01:24.699Z</time></trkpt><trkpt lat="43.0755338" lon="12.2049114"><ele>253.0</ele><time>2026-04-03T14:01:25.699Z</time></trkpt><trkpt lat="43.0752743" lon="12.2050789"><ele>253.0</ele><time>2026-04-03T14:01:26.698Z</time></trkpt><trkpt lat="43.0750015" lon="12.2052285"><ele>253.0</ele><time>2026-04-03T14:01:27.699Z</time></trkpt><trkpt lat="43.0747292" lon="12.2053692"><ele>252.5</ele><time>2026-04-03T14:01:28.698Z</time></trkpt><trkpt lat="43.0744543" lon="12.2055116"><ele>252.0</ele><time>2026-04-03T14:01:29.699Z</time></trkpt><trkpt lat="43.074177" lon="12.205653"><ele>251.0</ele><time>2026-04-03T14:01:30.699Z</time></trkpt><trkpt lat="43.0739016" lon="12.2057986"><ele>250.0</ele><time>2026-04-03T14:01:31.698Z</time></trkpt><trkpt lat="43.073628" lon="12.2059465"><ele>250.0</ele><time>2026-04-03T14:01:32.699Z</time></trkpt><trkpt lat="43.0733724" lon="12.2060881"><ele>250.0</ele><time>2026-04-03T14:01:33.698Z</time></trkpt><trkpt lat="43.0731406" lon="12.2062166"><ele>248.5</ele><time>2026-04-03T14:01:34.699Z</time></trkpt><trkpt lat="43.0729241" lon="12.2063274"><ele>247.0</ele><time>2026-04-03T14:01:35.698Z</time></trkpt><trkpt lat="43.0727142" lon="12.2064358"><ele>247.5</ele><time>2026-04-03T14:01:36.699Z</time></trkpt><trkpt lat="43.0725004" lon="12.2065337"><ele>248.0</ele><time>2026-04-03T14:01:37.698Z</time></trkpt><trkpt lat="43.0722668" lon="12.2066189"><ele>247.0</ele><time>2026-04-03T14:01:38.698Z</time></trkpt><trkpt lat="43.0720133" lon="12.2067108"><ele>246.0</ele><time>2026-04-03T14:01:39.698Z</time></trkpt><trkpt lat="43.0717531" lon="12.2067991"><ele>246.0</ele><time>2026-04-03T14:01:40.699Z</time></trkpt><trkpt lat="43.0714873" lon="12.2068886"><ele>246.0</ele><time>2026-04-03T14:01:41.698Z</time></trkpt><trkpt lat="43.0712129" lon="12.2069802"><ele>246.0</ele><time>2026-04-03T14:01:42.699Z</time></trkpt><trkpt lat="43.0709348" lon="12.2070782"><ele>246.0</ele><time>2026-04-03T14:01:43.698Z</time></trkpt><trkpt lat="43.0706521" lon="12.207175"><ele>246.0</ele><time>2026-04-03T14:01:44.699Z</time></trkpt><trkpt lat="43.0703649" lon="12.2072751"><ele>246.0</ele><time>2026-04-03T14:01:45.699Z</time></trkpt><trkpt lat="43.0700704" lon="12.2073806"><ele>244.5</ele><time>2026-04-03T14:01:46.698Z</time></trkpt><trkpt lat="43.0697769" lon="12.2074801"><ele>243.0</ele><time>2026-04-03T14:01:47.699Z</time></trkpt><trkpt lat="43.0694791" lon="12.2075827"><ele>243.0</ele><time>2026-04-03T14:01:48.699Z</time></trkpt><trkpt lat="43.0691813" lon="12.2076861"><ele>243.0</ele><time>2026-04-03T14:01:49.699Z</time></trkpt><trkpt lat="43.0688847" lon="12.2077935"><ele>242.5</ele><time>2026-04-03T14:01:50.698Z</time></trkpt><trkpt lat="43.0685899" lon="12.2079018"><ele>242.0</ele><time>2026-04-03T14:01:51.698Z</time></trkpt><trkpt lat="43.0682979" lon="12.2080071"><ele>241.5</ele><time>2026-04-03T14:01:52.699Z</time></trkpt><trkpt lat="43.0680098" lon="12.208105"><ele>241.0</ele><time>2026-04-03T14:01:53.698Z</time></trkpt><trkpt lat="43.0677207" lon="12.2082031"><ele>240.5</ele><time>2026-04-03T14:01:54.699Z</time></trkpt><trkpt lat="43.0674328" lon="12.2083016"><ele>240.0</ele><time>2026-04-03T14:01:55.698Z</time></trkpt><trkpt lat="43.0671581" lon="12.2083937"><ele>240.0</ele><time>2026-04-03T14:01:56.699Z</time></trkpt><trkpt lat="43.0669068" lon="12.2084799"><ele>240.0</ele><time>2026-04-03T14:01:57.698Z</time></trkpt><trkpt lat="43.0666722" lon="12.2085636"><ele>239.5</ele><time>2026-04-03T14:01:58.699Z</time></trkpt><trkpt lat="43.0664493" lon="12.2086449"><ele>239.0</ele><time>2026-04-03T14:01:59.699Z</time></trkpt><trkpt lat="43.0662338" lon="12.2087483"><ele>239.0</ele><time>2026-04-03T14:02:00.698Z</time></trkpt><trkpt lat="43.0660319" lon="12.2088877"><ele>239.0</ele><time>2026-04-03T14:02:01.699Z</time></trkpt><trkpt lat="43.0658489" lon="12.2090782"><ele>239.0</ele><time>2026-04-03T14:02:02.699Z</time></trkpt><trkpt lat="43.0656686" lon="12.2093208"><ele>239.0</ele><time>2026-04-03T14:02:03.699Z</time></trkpt><trkpt lat="43.0654857" lon="12.2095837"><ele>239.0</ele><time>2026-04-03T14:02:04.699Z</time></trkpt><trkpt lat="43.0652956" lon="12.2098581"><ele>239.0</ele><time>2026-04-03T14:02:05.698Z</time></trkpt><trkpt lat="43.0651014" lon="12.2101416"><ele>238.0</ele><time>2026-04-03T14:02:06.699Z</time></trkpt><trkpt lat="43.0649127" lon="12.2104142"><ele>237.0</ele><time>2026-04-03T14:02:07.698Z</time></trkpt><trkpt lat="43.0647408" lon="12.2106625"><ele>237.0</ele><time>2026-04-03T14:02:08.698Z</time></trkpt><trkpt lat="43.0645862" lon="12.2108863"><ele>237.0</ele><time>2026-04-03T14:02:09.699Z</time></trkpt><trkpt lat="43.0644212" lon="12.2110693"><ele>237.0</ele><time>2026-04-03T14:02:10.699Z</time></trkpt><trkpt lat="43.064238" lon="12.211188"><ele>237.5</ele><time>2026-04-03T14:02:11.698Z</time></trkpt><trkpt lat="43.0640192" lon="12.211293"><ele>238.0</ele><time>2026-04-03T14:02:12.698Z</time></trkpt><trkpt lat="43.0637805" lon="12.211395"><ele>238.0</ele><time>2026-04-03T14:02:13.699Z</time></trkpt><trkpt lat="43.0635288" lon="12.2115121"><ele>238.0</ele><time>2026-04-03T14:02:14.699Z</time></trkpt><trkpt lat="43.0632607" lon="12.211633"><ele>237.0</ele><time>2026-04-03T14:02:15.699Z</time></trkpt><trkpt lat="43.0629856" lon="12.2117604"><ele>236.0</ele><time>2026-04-03T14:02:16.698Z</time></trkpt><trkpt lat="43.0627089" lon="12.2118978"><ele>235.5</ele><time>2026-04-03T14:02:17.698Z</time></trkpt><trkpt lat="43.0624431" lon="12.2120401"><ele>235.0</ele><time>2026-04-03T14:02:18.699Z</time></trkpt><trkpt lat="43.0621949" lon="12.212183"><ele>236.0</ele><time>2026-04-03T14:02:19.699Z</time></trkpt><trkpt lat="43.0619641" lon="12.2123277"><ele>237.0</ele><time>2026-04-03T14:02:20.699Z</time></trkpt><trkpt lat="43.0617505" lon="12.2124758"><ele>237.0</ele><time>2026-04-03T14:02:21.698Z</time></trkpt><trkpt lat="43.0615619" lon="12.2126434"><ele>237.0</ele><time>2026-04-03T14:02:22.699Z</time></trkpt><trkpt lat="43.0613841" lon="12.2128328"><ele>237.0</ele><time>2026-04-03T14:02:23.698Z</time></trkpt><trkpt lat="43.0612148" lon="12.2130315"><ele>237.0</ele><time>2026-04-03T14:02:24.699Z</time></trkpt><trkpt lat="43.061048" lon="12.2132281"><ele>237.0</ele><time>2026-04-03T14:02:25.698Z</time></trkpt><trkpt lat="43.0608812" lon="12.2134224"><ele>237.0</ele><time>2026-04-03T14:02:26.699Z</time></trkpt><trkpt lat="43.0607201" lon="12.213611"><ele>237.0</ele><time>2026-04-03T14:02:27.698Z</time></trkpt><trkpt lat="43.060568" lon="12.2137971"><ele>237.0</ele><time>2026-04-03T14:02:28.699Z</time></trkpt><trkpt lat="43.0604281" lon="12.2139663"><ele>236.5</ele><time>2026-04-03T14:02:29.699Z</time></trkpt><trkpt lat="43.0603063" lon="12.2141148"><ele>236.0</ele><time>2026-04-03T14:02:30.698Z</time></trkpt><trkpt lat="43.060191" lon="12.2142324"><ele>235.5</ele><time>2026-04-03T14:02:31.698Z</time></trkpt><trkpt lat="43.0600732" lon="12.2143013"><ele>235.0</ele><time>2026-04-03T14:02:32.699Z</time></trkpt><trkpt lat="43.0599303" lon="12.214331"><ele>235.0</ele><time>2026-04-03T14:02:33.699Z</time></trkpt><trkpt lat="43.0597698" lon="12.2143136"><ele>235.0</ele><time>2026-04-03T14:02:34.699Z</time></trkpt><trkpt lat="43.0595884" lon="12.214255"><ele>235.0</ele><time>2026-04-03T14:02:35.698Z</time></trkpt><trkpt lat="43.059383" lon="12.2141799"><ele>235.0</ele><time>2026-04-03T14:02:36.699Z</time></trkpt><trkpt lat="43.0591476" lon="12.2141034"><ele>235.0</ele><time>2026-04-03T14:02:37.699Z</time></trkpt><trkpt lat="43.0588911" lon="12.2140246"><ele>233.0</ele><time>2026-04-03T14:02:38.698Z</time></trkpt><trkpt lat="43.0586191" lon="12.2139365"><ele>231.0</ele><time>2026-04-03T14:02:39.699Z</time></trkpt><trkpt lat="43.0583392" lon="12.2138418"><ele>231.5</ele><time>2026-04-03T14:02:40.699Z</time></trkpt><trkpt lat="43.0580795" lon="12.2137566"><ele>232.0</ele><time>2026-04-03T14:02:41.698Z</time></trkpt><trkpt lat="43.0578492" lon="12.2136848"><ele>232.0</ele><time>2026-04-03T14:02:42.698Z</time></trkpt><trkpt lat="43.0576439" lon="12.213618"><ele>232.0</ele><time>2026-04-03T14:02:43.698Z</time></trkpt><trkpt lat="43.057458" lon="12.2135475"><ele>232.0</ele><time>2026-04-03T14:02:44.698Z</time></trkpt><trkpt lat="43.0572752" lon="12.2135029"><ele>232.33333333333331</ele><time>2026-04-03T14:02:45.699Z</time></trkpt><trkpt lat="43.0570997" lon="12.213498"><ele>232.66666666666669</ele><time>2026-04-03T14:02:46.699Z</time></trkpt><trkpt lat="43.0569217" lon="12.213542"><ele>233.0</ele><time>2026-04-03T14:02:47.698Z</time></trkpt><trkpt lat="43.0567464" lon="12.2136216"><ele>232.66666666666669</ele><time>2026-04-03T14:02:48.699Z</time></trkpt><trkpt lat="43.0565864" lon="12.2137513"><ele>232.33333333333331</ele><time>2026-04-03T14:02:49.699Z</time></trkpt><trkpt lat="43.0564397" lon="12.2139435"><ele>232.0</ele><time>2026-04-03T14:02:50.699Z</time></trkpt><trkpt lat="43.0563064" lon="12.2141559"><ele>233.0</ele><time>2026-04-03T14:02:51.699Z</time></trkpt><trkpt lat="43.0561612" lon="12.2144073"><ele>234.0</ele><time>2026-04-03T14:02:52.699Z</time></trkpt><trkpt lat="43.0560061" lon="12.2146634"><ele>234.0</ele><time>2026-04-03T14:02:53.699Z</time></trkpt><trkpt lat="43.0558407" lon="12.2149197"><ele>234.0</ele><time>2026-04-03T14:02:54.698Z</time></trkpt><trkpt lat="43.0556755" lon="12.2151769"><ele>234.0</ele><time>2026-04-03T14:02:55.699Z</time></trkpt><trkpt lat="43.0555179" lon="12.2154219"><ele>234.0</ele><time>2026-04-03T14:02:56.698Z</time></trkpt><trkpt lat="43.0553728" lon="12.2156568"><ele>233.66666666666669</ele><time>2026-04-03T14:02:57.699Z</time></trkpt><trkpt lat="43.0552376" lon="12.215877"><ele>233.33333333333334</ele><time>2026-04-03T14:02:58.699Z</time></trkpt><trkpt lat="43.0551128" lon="12.2160806"><ele>233.0</ele><time>2026-04-03T14:02:59.699Z</time></trkpt><trkpt lat="43.0549817" lon="12.2162712"><ele>232.33333333333334</ele><time>2026-04-03T14:03:00.699Z</time></trkpt><trkpt lat="43.0548257" lon="12.2164484"><ele>231.66666666666669</ele><time>2026-04-03T14:03:01.698Z</time></trkpt><trkpt lat="43.0546384" lon="12.216615"><ele>231.0</ele><time>2026-04-03T14:03:02.699Z</time></trkpt><trkpt lat="43.0544224" lon="12.2167786"><ele>231.0</ele><time>2026-04-03T14:03:03.698Z</time></trkpt><trkpt lat="43.0541974" lon="12.2169555"><ele>231.0</ele><time>2026-04-03T14:03:04.699Z</time></trkpt><trkpt lat="43.0539745" lon="12.2171342"><ele>231.0</ele><time>2026-04-03T14:03:05.698Z</time></trkpt><trkpt lat="43.053752" lon="12.2173147"><ele>231.0</ele><time>2026-04-03T14:03:06.699Z</time></trkpt><trkpt lat="43.0535271" lon="12.217487"><ele>231.0</ele><time>2026-04-03T14:03:07.699Z</time></trkpt><trkpt lat="43.0533194" lon="12.2176468"><ele>231.0</ele><time>2026-04-03T14:03:08.698Z</time></trkpt><trkpt lat="43.0531428" lon="12.2177967"><ele>231.0</ele><time>2026-04-03T14:03:09.699Z</time></trkpt><trkpt lat="43.0529843" lon="12.2179586"><ele>230.66666666666669</ele><time>2026-04-03T14:03:10.699Z</time></trkpt><trkpt lat="43.0528408" lon="12.2181433"><ele>230.33333333333334</ele><time>2026-04-03T14:03:11.699Z</time></trkpt><trkpt lat="43.0527132" lon="12.2183495"><ele>230.0</ele><time>2026-04-03T14:03:12.699Z</time></trkpt><trkpt lat="43.0526027" lon="12.2185604"><ele>230.0</ele><time>2026-04-03T14:03:13.699Z</time></trkpt><trkpt lat="43.0525007" lon="12.2187957"><ele>230.0</ele><time>2026-04-03T14:03:14.699Z</time></trkpt><trkpt lat="43.0524207" lon="12.2190529"><ele>230.0</ele><time>2026-04-03T14:03:15.698Z</time></trkpt><trkpt lat="43.0523658" lon="12.2193211"><ele>230.0</ele><time>2026-04-03T14:03:16.698Z</time></trkpt><trkpt lat="43.0523394" lon="12.2196081"><ele>230.0</ele><time>2026-04-03T14:03:17.699Z</time></trkpt><trkpt lat="43.052338" lon="12.2199024"><ele>230.0</ele><time>2026-04-03T14:03:18.698Z</time></trkpt><trkpt lat="43.0523641" lon="12.2202125"><ele>230.0</ele><time>2026-04-03T14:03:19.699Z</time></trkpt><trkpt lat="43.0524129" lon="12.2205214"><ele>230.0</ele><time>2026-04-03T14:03:20.698Z</time></trkpt><trkpt lat="43.0524848" lon="12.220838"><ele>231.5</ele><time>2026-04-03T14:03:21.699Z</time></trkpt><trkpt lat="43.0525669" lon="12.2211601"><ele>233.0</ele><time>2026-04-03T14:03:22.699Z</time></trkpt><trkpt lat="43.0526486" lon="12.2214832"><ele>233.5</ele><time>2026-04-03T14:03:23.699Z</time></trkpt><trkpt lat="43.0527329" lon="12.2218105"><ele>234.0</ele><time>2026-04-03T14:03:24.698Z</time></trkpt><trkpt lat="43.0528208" lon="12.2221419"><ele>235.0</ele><time>2026-04-03T14:03:25.699Z</time></trkpt><trkpt lat="43.052911" lon="12.2224835"><ele>236.0</ele><time>2026-04-03T14:03:26.699Z</time></trkpt><trkpt lat="43.0530025" lon="12.2228283"><ele>240.0</ele><time>2026-04-03T14:03:27.699Z</time></trkpt><trkpt lat="43.0530942" lon="12.2231807"><ele>244.0</ele><time>2026-04-03T14:03:28.699Z</time></trkpt><trkpt lat="43.0531864" lon="12.2235461"><ele>244.0</ele><time>2026-04-03T14:03:29.698Z</time></trkpt><trkpt lat="43.05328" lon="12.2239097"><ele>244.0</ele><time>2026-04-03T14:03:30.699Z</time></trkpt><trkpt lat="43.0533765" lon="12.2242753"><ele>242.5</ele><time>2026-04-03T14:03:31.698Z</time></trkpt><trkpt lat="43.0534694" lon="12.2246173"><ele>241.0</ele><time>2026-04-03T14:03:32.699Z</time></trkpt><trkpt lat="43.0535435" lon="12.2249247"><ele>243.33333333333331</ele><time>2026-04-03T14:03:33.698Z</time></trkpt><trkpt lat="43.0536098" lon="12.2251917"><ele>245.66666666666669</ele><time>2026-04-03T14:03:34.698Z</time></trkpt><trkpt lat="43.0536474" lon="12.2254298"><ele>248.0</ele><time>2026-04-03T14:03:35.699Z</time></trkpt><trkpt lat="43.0536435" lon="12.225657"><ele>248.66666666666669</ele><time>2026-04-03T14:03:36.699Z</time></trkpt><trkpt lat="43.0536167" lon="12.2258864"><ele>249.33333333333331</ele><time>2026-04-03T14:03:37.698Z</time></trkpt><trkpt lat="43.0535485" lon="12.2261282"><ele>250.0</ele><time>2026-04-03T14:03:38.699Z</time></trkpt><trkpt lat="43.0534577" lon="12.2263579"><ele>249.0</ele><time>2026-04-03T14:03:39.698Z</time></trkpt><trkpt lat="43.0533351" lon="12.226591"><ele>248.0</ele><time>2026-04-03T14:03:40.698Z</time></trkpt><trkpt lat="43.0532043" lon="12.2268446"><ele>247.0</ele><time>2026-04-03T14:03:41.699Z</time></trkpt><trkpt lat="43.0531056" lon="12.2271359"><ele>252.0</ele><time>2026-04-03T14:03:42.698Z</time></trkpt><trkpt lat="43.0530237" lon="12.2274738"><ele>257.0</ele><time>2026-04-03T14:03:43.699Z</time></trkpt><trkpt lat="43.0529469" lon="12.2278362"><ele>261.0</ele><time>2026-04-03T14:03:44.699Z</time></trkpt><trkpt lat="43.0528625" lon="12.2282144"><ele>265.0</ele><time>2026-04-03T14:03:45.699Z</time></trkpt><trkpt lat="43.052782" lon="12.2285653"><ele>265.0</ele><time>2026-04-03T14:03:46.699Z</time></trkpt><trkpt lat="43.0527059" lon="12.2288914"><ele>265.0</ele><time>2026-04-03T14:03:47.699Z</time></trkpt><trkpt lat="43.0526269" lon="12.2292033"><ele>266.0</ele><time>2026-04-03T14:03:48.698Z</time></trkpt><trkpt lat="43.0525563" lon="12.2295124"><ele>267.0</ele><time>2026-04-03T14:03:49.699Z</time></trkpt><trkpt lat="43.0524879" lon="12.2298191"><ele>274.6666666666667</ele><time>2026-04-03T14:03:50.699Z</time></trkpt><trkpt lat="43.0524166" lon="12.2301194"><ele>282.33333333333337</ele><time>2026-04-03T14:03:51.698Z</time></trkpt><trkpt lat="43.052355" lon="12.2303922"><ele>290.0</ele><time>2026-04-03T14:03:52.699Z</time></trkpt><trkpt lat="43.0522809" lon="12.2306336"><ele>288.0</ele><time>2026-04-03T14:03:53.699Z</time></trkpt><trkpt lat="43.0521925" lon="12.230853"><ele>286.0</ele><time>2026-04-03T14:03:54.699Z</time></trkpt><trkpt lat="43.0520801" lon="12.2310704"><ele>284.0</ele><time>2026-04-03T14:03:55.699Z</time></trkpt><trkpt lat="43.0519497" lon="12.231279"><ele>284.0</ele><time>2026-04-03T14:03:56.698Z</time></trkpt><trkpt lat="43.0518256" lon="12.2314655"><ele>284.0</ele><time>2026-04-03T14:03:57.698Z</time></trkpt><trkpt lat="43.0517183" lon="12.231631"><ele>284.0</ele><time>2026-04-03T14:03:58.699Z</time></trkpt><trkpt lat="43.0516163" lon="12.2317876"><ele>283.33333333333337</ele><time>2026-04-03T14:03:59.699Z</time></trkpt><trkpt lat="43.0515109" lon="12.2319493"><ele>282.6666666666667</ele><time>2026-04-03T14:04:00.699Z</time></trkpt><trkpt lat="43.0514042" lon="12.232119"><ele>282.0</ele><time>2026-04-03T14:04:01.698Z</time></trkpt><trkpt lat="43.0512891" lon="12.2323098"><ele>281.0</ele><time>2026-04-03T14:04:02.698Z</time></trkpt><trkpt lat="43.051163" lon="12.2325322"><ele>280.0</ele><time>2026-04-03T14:04:03.699Z</time></trkpt><trkpt lat="43.0510178" lon="12.2327683"><ele>279.0</ele><time>2026-04-03T14:04:04.698Z</time></trkpt><trkpt lat="43.050866" lon="12.232994"><ele>274.6666666666667</ele><time>2026-04-03T14:04:05.699Z</time></trkpt><trkpt lat="43.0507277" lon="12.2332059"><ele>270.33333333333337</ele><time>2026-04-03T14:04:06.699Z</time></trkpt><trkpt lat="43.0506103" lon="12.2334087"><ele>266.0</ele><time>2026-04-03T14:04:07.699Z</time></trkpt><trkpt lat="43.0505166" lon="12.2336058"><ele>266.0</ele><time>2026-04-03T14:04:08.699Z</time></trkpt><trkpt lat="43.0504498" lon="12.2338075"><ele>266.0</ele><time>2026-04-03T14:04:09.699Z</time></trkpt><trkpt lat="43.0504136" lon="12.2340338"><ele>266.0</ele><time>2026-04-03T14:04:10.699Z</time></trkpt><trkpt lat="43.0503925" lon="12.2342822"><ele>266.33333333333337</ele><time>2026-04-03T14:04:11.699Z</time></trkpt><trkpt lat="43.0503467" lon="12.2345269"><ele>266.6666666666667</ele><time>2026-04-03T14:04:12.699Z</time></trkpt><trkpt lat="43.050287" lon="12.2347373"><ele>267.0</ele><time>2026-04-03T14:04:13.699Z</time></trkpt><trkpt lat="43.0501925" lon="12.2349138"><ele>267.6666666666667</ele><time>2026-04-03T14:04:14.699Z</time></trkpt><trkpt lat="43.0500734" lon="12.2350477"><ele>268.33333333333337</ele><time>2026-04-03T14:04:15.699Z</time></trkpt><trkpt lat="43.0499208" lon="12.2351267"><ele>269.0</ele><time>2026-04-03T14:04:16.699Z</time></trkpt><trkpt lat="43.0497603" lon="12.2351602"><ele>269.0</ele><time>2026-04-03T14:04:17.699Z</time></trkpt><trkpt lat="43.0495673" lon="12.2351719"><ele>269.0</ele><time>2026-04-03T14:04:18.699Z</time></trkpt><trkpt lat="43.0493844" lon="12.2352029"><ele>269.0</ele><time>2026-04-03T14:04:19.698Z</time></trkpt><trkpt lat="43.0492233" lon="12.2352656"><ele>267.6666666666667</ele><time>2026-04-03T14:04:20.699Z</time></trkpt><trkpt lat="43.0490778" lon="12.2353671"><ele>266.3333333333333</ele><time>2026-04-03T14:04:21.698Z</time></trkpt><trkpt lat="43.0489332" lon="12.2355114"><ele>265.0</ele><time>2026-04-03T14:04:22.699Z</time></trkpt><trkpt lat="43.0487723" lon="12.2356709"><ele>268.66666666666663</ele><time>2026-04-03T14:04:23.699Z</time></trkpt><trkpt lat="43.0486081" lon="12.2358248"><ele>272.3333333333333</ele><time>2026-04-03T14:04:24.699Z</time></trkpt><trkpt lat="43.0484521" lon="12.2359682"><ele>276.0</ele><time>2026-04-03T14:04:25.699Z</time></trkpt><trkpt lat="43.0483049" lon="12.2360977"><ele>274.75</ele><time>2026-04-03T14:04:26.698Z</time></trkpt><trkpt lat="43.0481733" lon="12.2362086"><ele>273.5</ele><time>2026-04-03T14:04:27.698Z</time></trkpt><trkpt lat="43.0480492" lon="12.2363011"><ele>272.25</ele><time>2026-04-03T14:04:28.698Z</time></trkpt><trkpt lat="43.0479327" lon="12.236374"><ele>271.0</ele><time>2026-04-03T14:04:29.699Z</time></trkpt><trkpt lat="43.0478268" lon="12.2364357"><ele>270.5</ele><time>2026-04-03T14:04:30.699Z</time></trkpt><trkpt lat="43.0477278" lon="12.2364908"><ele>270.0</ele><time>2026-04-03T14:04:31.699Z</time></trkpt><trkpt lat="43.0476429" lon="12.2365349"><ele>269.5</ele><time>2026-04-03T14:04:32.699Z</time></trkpt><trkpt lat="43.0475647" lon="12.2365735"><ele>269.0</ele><time>2026-04-03T14:04:33.699Z</time></trkpt><trkpt lat="43.0474937" lon="12.2365947"><ele>268.5</ele><time>2026-04-03T14:04:34.698Z</time></trkpt><trkpt lat="43.047425" lon="12.2366093"><ele>268.0</ele><time>2026-04-03T14:04:35.699Z</time></trkpt><trkpt lat="43.0473588" lon="12.2366045"><ele>268.0</ele><time>2026-04-03T14:04:36.698Z</time></trkpt><trkpt lat="43.0472421" lon="12.2365695"><ele>268.0</ele><time>2026-04-03T14:04:38.699Z</time></trkpt><trkpt lat="43.0471481" lon="12.2366114"><ele>268.0</ele><time>2026-04-03T14:04:40.698Z</time></trkpt><trkpt lat="43.0471079" lon="12.2367687"><ele>268.0</ele><time>2026-04-03T14:04:42.699Z</time></trkpt><trkpt lat="43.0470887" lon="12.2368851"><ele>268.0</ele><time>2026-04-03T14:04:43.699Z</time></trkpt><trkpt lat="43.0470637" lon="12.2370148"><ele>268.0</ele><time>2026-04-03T14:04:44.698Z</time></trkpt><trkpt lat="43.0470197" lon="12.2371554"><ele>268.0</ele><time>2026-04-03T14:04:45.699Z</time></trkpt><trkpt lat="43.0469723" lon="12.2373262"><ele>268.0</ele><time>2026-04-03T14:04:46.699Z</time></trkpt><trkpt lat="43.0469069" lon="12.2375198"><ele>268.0</ele><time>2026-04-03T14:04:47.699Z</time></trkpt><trkpt lat="43.0468203" lon="12.2377541"><ele>268.0</ele><time>2026-04-03T14:04:48.699Z</time></trkpt><trkpt lat="43.0467427" lon="12.2379602"><ele>268.0</ele><time>2026-04-03T14:04:49.698Z</time></trkpt><trkpt lat="43.0466669" lon="12.2381495"><ele>268.0</ele><time>2026-04-03T14:04:50.699Z</time></trkpt><trkpt lat="43.0465893" lon="12.2383225"><ele>267.25</ele><time>2026-04-03T14:04:51.698Z</time></trkpt><trkpt lat="43.0464965" lon="12.2384519"><ele>266.5</ele><time>2026-04-03T14:04:52.698Z</time></trkpt><trkpt lat="43.0463776" lon="12.238547"><ele>265.75</ele><time>2026-04-03T14:04:53.699Z</time></trkpt><trkpt lat="43.0462417" lon="12.2385981"><ele>265.0</ele><time>2026-04-03T14:04:54.699Z</time></trkpt><trkpt lat="43.0460919" lon="12.2385931"><ele>265.0</ele><time>2026-04-03T14:04:55.698Z</time></trkpt><trkpt lat="43.0459494" lon="12.2385533"><ele>265.0</ele><time>2026-04-03T14:04:56.698Z</time></trkpt><trkpt lat="43.0458155" lon="12.2384762"><ele>265.0</ele><time>2026-04-03T14:04:57.698Z</time></trkpt><trkpt lat="43.0456819" lon="12.2383786"><ele>265.0</ele><time>2026-04-03T14:04:58.698Z</time></trkpt><trkpt lat="43.0455303" lon="12.2382614"><ele>262.66666666666663</ele><time>2026-04-03T14:04:59.699Z</time></trkpt><trkpt lat="43.0453569" lon="12.2381134"><ele>260.3333333333333</ele><time>2026-04-03T14:05:00.698Z</time></trkpt><trkpt lat="43.0451709" lon="12.2379727"><ele>258.0</ele><time>2026-04-03T14:05:01.699Z</time></trkpt><trkpt lat="43.0449826" lon="12.2378495"><ele>257.0</ele><time>2026-04-03T14:05:02.698Z</time></trkpt><trkpt lat="43.0447784" lon="12.2377589"><ele>256.0</ele><time>2026-04-03T14:05:03.699Z</time></trkpt><trkpt lat="43.0445501" lon="12.2376939"><ele>255.0</ele><time>2026-04-03T14:05:04.698Z</time></trkpt><trkpt lat="43.0443154" lon="12.2376465"><ele>253.0</ele><time>2026-04-03T14:05:05.699Z</time></trkpt><trkpt lat="43.0440813" lon="12.2376031"><ele>251.0</ele><time>2026-04-03T14:05:06.699Z</time></trkpt><trkpt lat="43.043844" lon="12.2375793"><ele>251.0</ele><time>2026-04-03T14:05:07.699Z</time></trkpt><trkpt lat="43.0435892" lon="12.2375906"><ele>251.0</ele><time>2026-04-03T14:05:08.699Z</time></trkpt><trkpt lat="43.0433194" lon="12.2376197"><ele>251.5</ele><time>2026-04-03T14:05:09.699Z</time></trkpt><trkpt lat="43.0430296" lon="12.2376559"><ele>252.0</ele><time>2026-04-03T14:05:10.698Z</time></trkpt><trkpt lat="43.0427104" lon="12.2376955"><ele>252.0</ele><time>2026-04-03T14:05:11.699Z</time></trkpt><trkpt lat="43.0423859" lon="12.2377373"><ele>252.0</ele><time>2026-04-03T14:05:12.699Z</time></trkpt><trkpt lat="43.0420861" lon="12.2377712"><ele>252.0</ele><time>2026-04-03T14:05:13.699Z</time></trkpt><trkpt lat="43.0418135" lon="12.2378104"><ele>252.0</ele><time>2026-04-03T14:05:14.699Z</time></trkpt><trkpt lat="43.0415651" lon="12.2378456"><ele>253.5</ele><time>2026-04-03T14:05:15.698Z</time></trkpt><trkpt lat="43.0413278" lon="12.2378829"><ele>255.0</ele><time>2026-04-03T14:05:16.699Z</time></trkpt><trkpt lat="43.0410973" lon="12.2379165"><ele>255.0</ele><time>2026-04-03T14:05:17.699Z</time></trkpt><trkpt lat="43.0408609" lon="12.2379411"><ele>255.0</ele><time>2026-04-03T14:05:18.698Z</time></trkpt><trkpt lat="43.0406214" lon="12.2379503"><ele>255.5</ele><time>2026-04-03T14:05:19.699Z</time></trkpt><trkpt lat="43.040387" lon="12.2379594"><ele>256.0</ele><time>2026-04-03T14:05:20.698Z</time></trkpt><trkpt lat="43.0401701" lon="12.2379696"><ele>255.66666666666666</ele><time>2026-04-03T14:05:21.699Z</time></trkpt><trkpt lat="43.0399635" lon="12.2380064"><ele>255.33333333333331</ele><time>2026-04-03T14:05:22.699Z</time></trkpt><trkpt lat="43.0397559" lon="12.2380893"><ele>255.0</ele><time>2026-04-03T14:05:23.698Z</time></trkpt><trkpt lat="43.0395472" lon="12.2382131"><ele>254.5</ele><time>2026-04-03T14:05:24.699Z</time></trkpt><trkpt lat="43.0393286" lon="12.2383469"><ele>254.0</ele><time>2026-04-03T14:05:25.699Z</time></trkpt><trkpt lat="43.0390992" lon="12.2384899"><ele>252.0</ele><time>2026-04-03T14:05:26.699Z</time></trkpt><trkpt lat="43.0388604" lon="12.2386364"><ele>250.0</ele><time>2026-04-03T14:05:27.699Z</time></trkpt><trkpt lat="43.0386143" lon="12.2387813"><ele>250.0</ele><time>2026-04-03T14:05:28.698Z</time></trkpt><trkpt lat="43.0383556" lon="12.2389145"><ele>250.0</ele><time>2026-04-03T14:05:29.699Z</time></trkpt><trkpt lat="43.0380935" lon="12.2390176"><ele>252.0</ele><time>2026-04-03T14:05:30.699Z</time></trkpt><trkpt lat="43.0378273" lon="12.2390872"><ele>254.0</ele><time>2026-04-03T14:05:31.699Z</time></trkpt><trkpt lat="43.0375584" lon="12.2391558"><ele>253.0</ele><time>2026-04-03T14:05:32.698Z</time></trkpt><trkpt lat="43.0372942" lon="12.2392263"><ele>252.0</ele><time>2026-04-03T14:05:33.698Z</time></trkpt><trkpt lat="43.0370296" lon="12.2393113"><ele>252.0</ele><time>2026-04-03T14:05:34.699Z</time></trkpt><trkpt lat="43.0367673" lon="12.2393999"><ele>252.0</ele><time>2026-04-03T14:05:35.699Z</time></trkpt><trkpt lat="43.036514" lon="12.2394846"><ele>251.5</ele><time>2026-04-03T14:05:36.699Z</time></trkpt><trkpt lat="43.0362711" lon="12.2395673"><ele>251.0</ele><time>2026-04-03T14:05:37.699Z</time></trkpt><trkpt lat="43.0360407" lon="12.239639"><ele>251.0</ele><time>2026-04-03T14:05:38.698Z</time></trkpt><trkpt lat="43.0358237" lon="12.2397026"><ele>251.0</ele><time>2026-04-03T14:05:39.699Z</time></trkpt><trkpt lat="43.0356123" lon="12.2397511"><ele>251.0</ele><time>2026-04-03T14:05:40.698Z</time></trkpt><trkpt lat="43.0354196" lon="12.2397536"><ele>251.66666666666669</ele><time>2026-04-03T14:05:41.699Z</time></trkpt><trkpt lat="43.0352175" lon="12.239711"><ele>252.33333333333331</ele><time>2026-04-03T14:05:42.699Z</time></trkpt><trkpt lat="43.0350163" lon="12.2396228"><ele>253.0</ele><time>2026-04-03T14:05:43.699Z</time></trkpt><trkpt lat="43.034816" lon="12.2395116"><ele>255.5</ele><time>2026-04-03T14:05:44.699Z</time></trkpt><trkpt lat="43.0346069" lon="12.2393975"><ele>258.0</ele><time>2026-04-03T14:05:45.699Z</time></trkpt><trkpt lat="43.0343939" lon="12.2392994"><ele>258.0</ele><time>2026-04-03T14:05:46.699Z</time></trkpt><trkpt lat="43.0341844" lon="12.2392458"><ele>258.0</ele><time>2026-04-03T14:05:47.699Z</time></trkpt><trkpt lat="43.0339786" lon="12.2392349"><ele>258.0</ele><time>2026-04-03T14:05:48.699Z</time></trkpt><trkpt lat="43.0337564" lon="12.2392516"><ele>257.5</ele><time>2026-04-03T14:05:49.698Z</time></trkpt><trkpt lat="43.0335234" lon="12.2392724"><ele>257.0</ele><time>2026-04-03T14:05:50.699Z</time></trkpt><trkpt lat="43.0332849" lon="12.2392923"><ele>257.0</ele><time>2026-04-03T14:05:51.698Z</time></trkpt><trkpt lat="43.0330394" lon="12.2393167"><ele>257.0</ele><time>2026-04-03T14:05:52.698Z</time></trkpt><trkpt lat="43.0328227" lon="12.2393343"><ele>257.0</ele><time>2026-04-03T14:05:53.699Z</time></trkpt><trkpt lat="43.0326441" lon="12.2393504"><ele>257.0</ele><time>2026-04-03T14:05:54.699Z</time></trkpt><trkpt lat="43.0325069" lon="12.2393891"><ele>257.0</ele><time>2026-04-03T14:05:55.699Z</time></trkpt><trkpt lat="43.0323794" lon="12.239471"><ele>258.6666666666667</ele><time>2026-04-03T14:05:56.699Z</time></trkpt><trkpt lat="43.0322667" lon="12.2396318"><ele>260.3333333333333</ele><time>2026-04-03T14:05:57.699Z</time></trkpt><trkpt lat="43.0321632" lon="12.2398492"><ele>262.0</ele><time>2026-04-03T14:05:58.699Z</time></trkpt><trkpt lat="43.0320576" lon="12.2400969"><ele>262.0</ele><time>2026-04-03T14:05:59.699Z</time></trkpt><trkpt lat="43.0319469" lon="12.2403582"><ele>262.0</ele><time>2026-04-03T14:06:00.699Z</time></trkpt><trkpt lat="43.0318434" lon="12.2406159"><ele>262.0</ele><time>2026-04-03T14:06:01.698Z</time></trkpt><trkpt lat="43.0317451" lon="12.2408538"><ele>261.3333333333333</ele><time>2026-04-03T14:06:02.698Z</time></trkpt><trkpt lat="43.0316527" lon="12.2410608"><ele>260.6666666666667</ele><time>2026-04-03T14:06:03.699Z</time></trkpt><trkpt lat="43.0315698" lon="12.2412399"><ele>260.0</ele><time>2026-04-03T14:06:04.698Z</time></trkpt><trkpt lat="43.0314724" lon="12.2413865"><ele>258.33333333333337</ele><time>2026-04-03T14:06:05.699Z</time></trkpt><trkpt lat="43.0313573" lon="12.2414935"><ele>256.6666666666667</ele><time>2026-04-03T14:06:06.699Z</time></trkpt><trkpt lat="43.0312202" lon="12.2415836"><ele>255.0</ele><time>2026-04-03T14:06:07.699Z</time></trkpt><trkpt lat="43.0310545" lon="12.2416593"><ele>255.0</ele><time>2026-04-03T14:06:08.699Z</time></trkpt><trkpt lat="43.030871" lon="12.2417391"><ele>255.0</ele><time>2026-04-03T14:06:09.699Z</time></trkpt><trkpt lat="43.0306565" lon="12.2418384"><ele>255.0</ele><time>2026-04-03T14:06:10.699Z</time></trkpt><trkpt lat="43.0304289" lon="12.2419401"><ele>253.0</ele><time>2026-04-03T14:06:11.699Z</time></trkpt><trkpt lat="43.0301983" lon="12.2420371"><ele>251.0</ele><time>2026-04-03T14:06:12.699Z</time></trkpt><trkpt lat="43.0299965" lon="12.2421274"><ele>250.0</ele><time>2026-04-03T14:06:13.698Z</time></trkpt><trkpt lat="43.0298316" lon="12.2422081"><ele>249.0</ele><time>2026-04-03T14:06:14.699Z</time></trkpt><trkpt lat="43.0297039" lon="12.2423031"><ele>248.0</ele><time>2026-04-03T14:06:15.698Z</time></trkpt><trkpt lat="43.029594" lon="12.2424066"><ele>248.0</ele><time>2026-04-03T14:06:16.699Z</time></trkpt><trkpt lat="43.0295224" lon="12.242542"><ele>248.0</ele><time>2026-04-03T14:06:17.698Z</time></trkpt><trkpt lat="43.0294627" lon="12.24272"><ele>248.0</ele><time>2026-04-03T14:06:18.698Z</time></trkpt><trkpt lat="43.0293953" lon="12.242937"><ele>248.0</ele><time>2026-04-03T14:06:19.698Z</time></trkpt><trkpt lat="43.0293159" lon="12.2431834"><ele>246.0</ele><time>2026-04-03T14:06:20.699Z</time></trkpt><trkpt lat="43.0292248" lon="12.2434652"><ele>244.0</ele><time>2026-04-03T14:06:21.699Z</time></trkpt><trkpt lat="43.02914" lon="12.2437558"><ele>241.0</ele><time>2026-04-03T14:06:22.699Z</time></trkpt><trkpt lat="43.0290619" lon="12.2440172"><ele>238.0</ele><time>2026-04-03T14:06:23.698Z</time></trkpt><trkpt lat="43.0289838" lon="12.2442578"><ele>235.0</ele><time>2026-04-03T14:06:24.699Z</time></trkpt><trkpt lat="43.0289187" lon="12.2444749"><ele>235.0</ele><time>2026-04-03T14:06:25.699Z</time></trkpt><trkpt lat="43.0288266" lon="12.2446716"><ele>235.0</ele><time>2026-04-03T14:06:26.699Z</time></trkpt><trkpt lat="43.0287011" lon="12.2448488"><ele>235.0</ele><time>2026-04-03T14:06:27.698Z</time></trkpt><trkpt lat="43.0285413" lon="12.2450044"><ele>233.66666666666666</ele><time>2026-04-03T14:06:28.699Z</time></trkpt><trkpt lat="43.028346" lon="12.2451419"><ele>232.33333333333331</ele><time>2026-04-03T14:06:29.699Z</time></trkpt><trkpt lat="43.0281441" lon="12.2452881"><ele>231.0</ele><time>2026-04-03T14:06:30.699Z</time></trkpt><trkpt lat="43.0279422" lon="12.245464"><ele>227.5</ele><time>2026-04-03T14:06:31.699Z</time></trkpt><trkpt lat="43.0277524" lon="12.2456683"><ele>224.0</ele><time>2026-04-03T14:06:32.699Z</time></trkpt><trkpt lat="43.0275761" lon="12.2458801"><ele>225.5</ele><time>2026-04-03T14:06:33.699Z</time></trkpt><trkpt lat="43.0274111" lon="12.24609"><ele>227.0</ele><time>2026-04-03T14:06:34.698Z</time></trkpt><trkpt lat="43.0272457" lon="12.246306"><ele>225.33333333333334</ele><time>2026-04-03T14:06:35.699Z</time></trkpt><trkpt lat="43.0270913" lon="12.2465084"><ele>223.66666666666669</ele><time>2026-04-03T14:06:36.699Z</time></trkpt><trkpt lat="43.0269431" lon="12.2466985"><ele>222.0</ele><time>2026-04-03T14:06:37.698Z</time></trkpt><trkpt lat="43.0268027" lon="12.2468806"><ele>223.0</ele><time>2026-04-03T14:06:38.698Z</time></trkpt><trkpt lat="43.0266434" lon="12.2470562"><ele>224.0</ele><time>2026-04-03T14:06:39.698Z</time></trkpt><trkpt lat="43.0264613" lon="12.2472078"><ele>225.0</ele><time>2026-04-03T14:06:40.699Z</time></trkpt><trkpt lat="43.0262532" lon="12.2473451"><ele>222.0</ele><time>2026-04-03T14:06:41.699Z</time></trkpt><trkpt lat="43.0260404" lon="12.2474784"><ele>219.0</ele><time>2026-04-03T14:06:42.699Z</time></trkpt><trkpt lat="43.0258406" lon="12.2476066"><ele>220.0</ele><time>2026-04-03T14:06:43.699Z</time></trkpt><trkpt lat="43.0256666" lon="12.2477367"><ele>221.0</ele><time>2026-04-03T14:06:44.699Z</time></trkpt><trkpt lat="43.0255138" lon="12.2479018"><ele>222.0</ele><time>2026-04-03T14:06:45.699Z</time></trkpt><trkpt lat="43.0253733" lon="12.2481056"><ele>222.33333333333331</ele><time>2026-04-03T14:06:46.699Z</time></trkpt><trkpt lat="43.0252399" lon="12.2483392"><ele>222.66666666666666</ele><time>2026-04-03T14:06:47.699Z</time></trkpt><trkpt lat="43.0250873" lon="12.2485706"><ele>223.0</ele><time>2026-04-03T14:06:48.699Z</time></trkpt><trkpt lat="43.0249002" lon="12.2487989"><ele>221.0</ele><time>2026-04-03T14:06:49.699Z</time></trkpt><trkpt lat="43.0246916" lon="12.2490301"><ele>219.0</ele><time>2026-04-03T14:06:50.695Z</time></trkpt><trkpt lat="43.0244671" lon="12.2492638"><ele>219.0</ele><time>2026-04-03T14:06:51.699Z</time></trkpt><trkpt lat="43.0242453" lon="12.2494901"><ele>219.0</ele><time>2026-04-03T14:06:52.699Z</time></trkpt><trkpt lat="43.0240409" lon="12.2497038"><ele>217.5</ele><time>2026-04-03T14:06:53.699Z</time></trkpt><trkpt lat="43.0238448" lon="12.2498994"><ele>216.0</ele><time>2026-04-03T14:06:54.698Z</time></trkpt><trkpt lat="43.0236616" lon="12.2500952"><ele>216.0</ele><time>2026-04-03T14:06:55.698Z</time></trkpt><trkpt lat="43.0234886" lon="12.2502804"><ele>216.0</ele><time>2026-04-03T14:06:56.698Z</time></trkpt><trkpt lat="43.0233279" lon="12.2504649"><ele>216.0</ele><time>2026-04-03T14:06:57.699Z</time></trkpt><trkpt lat="43.0231673" lon="12.2506553"><ele>216.0</ele><time>2026-04-03T14:06:58.698Z</time></trkpt><trkpt lat="43.0230018" lon="12.2508531"><ele>216.0</ele><time>2026-04-03T14:06:59.698Z</time></trkpt><trkpt lat="43.0228316" lon="12.2510683"><ele>216.0</ele><time>2026-04-03T14:07:00.698Z</time></trkpt><trkpt lat="43.0226547" lon="12.2512955"><ele>216.0</ele><time>2026-04-03T14:07:01.699Z</time></trkpt><trkpt lat="43.0224694" lon="12.2515399"><ele>215.5</ele><time>2026-04-03T14:07:02.698Z</time></trkpt><trkpt lat="43.0222767" lon="12.2517895"><ele>215.0</ele><time>2026-04-03T14:07:03.699Z</time></trkpt><trkpt lat="43.0220759" lon="12.2520402"><ele>214.0</ele><time>2026-04-03T14:07:04.699Z</time></trkpt><trkpt lat="43.0218727" lon="12.2522947"><ele>213.0</ele><time>2026-04-03T14:07:05.699Z</time></trkpt><trkpt lat="43.0216665" lon="12.2525532"><ele>212.5</ele><time>2026-04-03T14:07:06.699Z</time></trkpt><trkpt lat="43.0214596" lon="12.2528109"><ele>212.0</ele><time>2026-04-03T14:07:07.699Z</time></trkpt><trkpt lat="43.0212578" lon="12.2530624"><ele>211.0</ele><time>2026-04-03T14:07:08.698Z</time></trkpt><trkpt lat="43.0210615" lon="12.2533074"><ele>210.0</ele><time>2026-04-03T14:07:09.698Z</time></trkpt><trkpt lat="43.0208671" lon="12.253549"><ele>211.0</ele><time>2026-04-03T14:07:10.699Z</time></trkpt><trkpt lat="43.0206718" lon="12.2537881"><ele>212.0</ele><time>2026-04-03T14:07:11.698Z</time></trkpt><trkpt lat="43.020469" lon="12.2540172"><ele>212.0</ele><time>2026-04-03T14:07:12.699Z</time></trkpt><trkpt lat="43.0202657" lon="12.2542423"><ele>212.0</ele><time>2026-04-03T14:07:13.699Z</time></trkpt><trkpt lat="43.0200571" lon="12.254457"><ele>211.5</ele><time>2026-04-03T14:07:14.699Z</time></trkpt><trkpt lat="43.0198465" lon="12.2546641"><ele>211.0</ele><time>2026-04-03T14:07:15.699Z</time></trkpt><trkpt lat="43.0196331" lon="12.2548709"><ele>211.0</ele><time>2026-04-03T14:07:16.699Z</time></trkpt><trkpt lat="43.0194132" lon="12.2550777"><ele>211.0</ele><time>2026-04-03T14:07:17.698Z</time></trkpt><trkpt lat="43.0191935" lon="12.2552915"><ele>211.5</ele><time>2026-04-03T14:07:18.699Z</time></trkpt><trkpt lat="43.0189688" lon="12.255504"><ele>212.0</ele><time>2026-04-03T14:07:19.698Z</time></trkpt><trkpt lat="43.0187508" lon="12.2557186"><ele>211.0</ele><time>2026-04-03T14:07:20.698Z</time></trkpt><trkpt lat="43.0185448" lon="12.2559149"><ele>210.0</ele><time>2026-04-03T14:07:21.699Z</time></trkpt><trkpt lat="43.0183565" lon="12.25609"><ele>209.66666666666669</ele><time>2026-04-03T14:07:22.699Z</time></trkpt><trkpt lat="43.0181839" lon="12.2562547"><ele>209.33333333333334</ele><time>2026-04-03T14:07:23.699Z</time></trkpt><trkpt lat="43.0180365" lon="12.2564023"><ele>209.0</ele><time>2026-04-03T14:07:24.699Z</time></trkpt><trkpt lat="43.017913" lon="12.2565272"><ele>208.79999999999998</ele><time>2026-04-03T14:07:25.698Z</time></trkpt><trkpt lat="43.0178025" lon="12.2566215"><ele>208.6</ele><time>2026-04-03T14:07:26.698Z</time></trkpt><trkpt lat="43.0177015" lon="12.2566646"><ele>208.4</ele><time>2026-04-03T14:07:27.699Z</time></trkpt><trkpt lat="43.0176057" lon="12.2566575"><ele>208.2</ele><time>2026-04-03T14:07:28.698Z</time></trkpt><trkpt lat="43.0175156" lon="12.2566289"><ele>208.0</ele><time>2026-04-03T14:07:29.699Z</time></trkpt><trkpt lat="43.0174458" lon="12.2566337"><ele>208.0</ele><time>2026-04-03T14:07:30.698Z</time></trkpt><trkpt lat="43.0173569" lon="12.2567115"><ele>208.0</ele><time>2026-04-03T14:07:32.698Z</time></trkpt><trkpt lat="43.017309" lon="12.2568138"><ele>208.0</ele><time>2026-04-03T14:07:35.698Z</time></trkpt><trkpt lat="43.0172776" lon="12.2569792"><ele>208.0</ele><time>2026-04-03T14:07:37.698Z</time></trkpt><trkpt lat="43.0172605" lon="12.2571195"><ele>208.0</ele><time>2026-04-03T14:07:38.699Z</time></trkpt><trkpt lat="43.0172508" lon="12.2572878"><ele>208.0</ele><time>2026-04-03T14:07:39.699Z</time></trkpt><trkpt lat="43.0172354" lon="12.2574815"><ele>208.0</ele><time>2026-04-03T14:07:40.699Z</time></trkpt><trkpt lat="43.0171969" lon="12.2577154"><ele>208.0</ele><time>2026-04-03T14:07:41.699Z</time></trkpt><trkpt lat="43.0171443" lon="12.2580078"><ele>209.0</ele><time>2026-04-03T14:07:42.699Z</time></trkpt><trkpt lat="43.0170772" lon="12.2583383"><ele>210.0</ele><time>2026-04-03T14:07:43.699Z</time></trkpt><trkpt lat="43.0169971" lon="12.2587048"><ele>208.5</ele><time>2026-04-03T14:07:44.698Z</time></trkpt><trkpt lat="43.0169041" lon="12.2591113"><ele>207.0</ele><time>2026-04-03T14:07:45.699Z</time></trkpt><trkpt lat="43.0168014" lon="12.2595418"><ele>207.0</ele><time>2026-04-03T14:07:46.699Z</time></trkpt><trkpt lat="43.0166928" lon="12.2599835"><ele>207.0</ele><time>2026-04-03T14:07:47.698Z</time></trkpt><trkpt lat="43.0165859" lon="12.2603953"><ele>207.5</ele><time>2026-04-03T14:07:48.699Z</time></trkpt><trkpt lat="43.0164835" lon="12.2607466"><ele>208.0</ele><time>2026-04-03T14:07:49.698Z</time></trkpt><trkpt lat="43.0163865" lon="12.2610433"><ele>208.0</ele><time>2026-04-03T14:07:50.699Z</time></trkpt><trkpt lat="43.0162536" lon="12.2613175"><ele>208.0</ele><time>2026-04-03T14:07:51.699Z</time></trkpt><trkpt lat="43.0160818" lon="12.2615979"><ele>207.0</ele><time>2026-04-03T14:07:52.699Z</time></trkpt><trkpt lat="43.0158789" lon="12.2619033"><ele>206.0</ele><time>2026-04-03T14:07:53.698Z</time></trkpt><trkpt lat="43.0156716" lon="12.2622239"><ele>206.5</ele><time>2026-04-03T14:07:54.698Z</time></trkpt><trkpt lat="43.0154723" lon="12.26253"><ele>207.0</ele><time>2026-04-03T14:07:55.699Z</time></trkpt><trkpt lat="43.0152737" lon="12.262826"><ele>207.0</ele><time>2026-04-03T14:07:56.699Z</time></trkpt><trkpt lat="43.0150864" lon="12.2630967"><ele>207.0</ele><time>2026-04-03T14:07:57.698Z</time></trkpt><trkpt lat="43.0149131" lon="12.2633543"><ele>207.33333333333331</ele><time>2026-04-03T14:07:58.698Z</time></trkpt><trkpt lat="43.0147545" lon="12.2635933"><ele>207.66666666666666</ele><time>2026-04-03T14:07:59.699Z</time></trkpt><trkpt lat="43.0146234" lon="12.2638237"><ele>208.0</ele><time>2026-04-03T14:08:00.699Z</time></trkpt><trkpt lat="43.0145453" lon="12.2640434"><ele>208.60000000000002</ele><time>2026-04-03T14:08:01.699Z</time></trkpt><trkpt lat="43.0145052" lon="12.2642203"><ele>209.20000000000002</ele><time>2026-04-03T14:08:02.698Z</time></trkpt><trkpt lat="43.014486" lon="12.2643618"><ele>209.8</ele><time>2026-04-03T14:08:03.699Z</time></trkpt><trkpt lat="43.0144803" lon="12.2644756"><ele>210.4</ele><time>2026-04-03T14:08:04.699Z</time></trkpt><trkpt lat="43.0144794" lon="12.2645814"><ele>211.0</ele><time>2026-04-03T14:08:06.699Z</time></trkpt><trkpt lat="43.0144585" lon="12.2647502"><ele>210.33333333333331</ele><time>2026-04-03T14:08:09.699Z</time></trkpt><trkpt lat="43.0144515" lon="12.2649022"><ele>209.66666666666669</ele><time>2026-04-03T14:08:10.699Z</time></trkpt><trkpt lat="43.014447" lon="12.2650999"><ele>209.0</ele><time>2026-04-03T14:08:11.699Z</time></trkpt><trkpt lat="43.014429" lon="12.2653658"><ele>208.5</ele><time>2026-04-03T14:08:12.699Z</time></trkpt><trkpt lat="43.0144167" lon="12.2656983"><ele>208.0</ele><time>2026-04-03T14:08:13.699Z</time></trkpt><trkpt lat="43.0144005" lon="12.2660477"><ele>208.0</ele><time>2026-04-03T14:08:14.699Z</time></trkpt><trkpt lat="43.0143769" lon="12.2663959"><ele>208.0</ele><time>2026-04-03T14:08:15.699Z</time></trkpt><trkpt lat="43.0143265" lon="12.2667483"><ele>208.5</ele><time>2026-04-03T14:08:16.698Z</time></trkpt><trkpt lat="43.0142218" lon="12.2671269"><ele>209.0</ele><time>2026-04-03T14:08:17.699Z</time></trkpt><trkpt lat="43.0141071" lon="12.2675309"><ele>208.0</ele><time>2026-04-03T14:08:18.698Z</time></trkpt><trkpt lat="43.0139671" lon="12.2679516"><ele>207.0</ele><time>2026-04-03T14:08:19.698Z</time></trkpt><trkpt lat="43.0138254" lon="12.268396"><ele>207.0</ele><time>2026-04-03T14:08:20.699Z</time></trkpt><trkpt lat="43.0136738" lon="12.2688596"><ele>207.0</ele><time>2026-04-03T14:08:21.699Z</time></trkpt><trkpt lat="43.0135197" lon="12.2693338"><ele>206.5</ele><time>2026-04-03T14:08:22.7Z</time></trkpt><trkpt lat="43.0133794" lon="12.2697835"><ele>206.0</ele><time>2026-04-03T14:08:23.699Z</time></trkpt><trkpt lat="43.0132419" lon="12.2701967"><ele>206.0</ele><time>2026-04-03T14:08:24.699Z</time></trkpt><trkpt lat="43.0131128" lon="12.2705858"><ele>206.0</ele><time>2026-04-03T14:08:25.7Z</time></trkpt><trkpt lat="43.0129939" lon="12.2709673"><ele>207.0</ele><time>2026-04-03T14:08:26.699Z</time></trkpt><trkpt lat="43.0128698" lon="12.2713456"><ele>208.0</ele><time>2026-04-03T14:08:27.699Z</time></trkpt><trkpt lat="43.0127477" lon="12.2717277"><ele>209.5</ele><time>2026-04-03T14:08:28.699Z</time></trkpt><trkpt lat="43.0126332" lon="12.2721068"><ele>211.0</ele><time>2026-04-03T14:08:29.7Z</time></trkpt><trkpt lat="43.0125133" lon="12.2724879"><ele>210.5</ele><time>2026-04-03T14:08:30.7Z</time></trkpt><trkpt lat="43.0123902" lon="12.2728492"><ele>210.0</ele><time>2026-04-03T14:08:31.7Z</time></trkpt><trkpt lat="43.0122755" lon="12.2731796"><ele>210.0</ele><time>2026-04-03T14:08:32.7Z</time></trkpt><trkpt lat="43.0121734" lon="12.2734745"><ele>210.0</ele><time>2026-04-03T14:08:33.7Z</time></trkpt><trkpt lat="43.0120678" lon="12.2737314"><ele>210.0</ele><time>2026-04-03T14:08:34.7Z</time></trkpt><trkpt lat="43.0119395" lon="12.2739612"><ele>210.0</ele><time>2026-04-03T14:08:35.7Z</time></trkpt><trkpt lat="43.0117905" lon="12.2741563"><ele>210.0</ele><time>2026-04-03T14:08:36.699Z</time></trkpt><trkpt lat="43.0116393" lon="12.2743352"><ele>210.0</ele><time>2026-04-03T14:08:37.7Z</time></trkpt><trkpt lat="43.0114799" lon="12.2745139"><ele>210.0</ele><time>2026-04-03T14:08:38.699Z</time></trkpt><trkpt lat="43.0113035" lon="12.2746763"><ele>210.0</ele><time>2026-04-03T14:08:39.7Z</time></trkpt><trkpt lat="43.0111073" lon="12.2747981"><ele>211.0</ele><time>2026-04-03T14:08:40.7Z</time></trkpt><trkpt lat="43.0108909" lon="12.2748714"><ele>212.0</ele><time>2026-04-03T14:08:41.7Z</time></trkpt><trkpt lat="43.0106583" lon="12.2749206"><ele>212.5</ele><time>2026-04-03T14:08:42.7Z</time></trkpt><trkpt lat="43.0104089" lon="12.2749643"><ele>213.0</ele><time>2026-04-03T14:08:43.7Z</time></trkpt><trkpt lat="43.0101568" lon="12.275004"><ele>214.0</ele><time>2026-04-03T14:08:44.7Z</time></trkpt><trkpt lat="43.009891" lon="12.2750571"><ele>215.0</ele><time>2026-04-03T14:08:45.7Z</time></trkpt><trkpt lat="43.0096245" lon="12.2751108"><ele>215.0</ele><time>2026-04-03T14:08:46.7Z</time></trkpt><trkpt lat="43.0093716" lon="12.2751636"><ele>215.0</ele><time>2026-04-03T14:08:47.7Z</time></trkpt><trkpt lat="43.0091461" lon="12.2752061"><ele>218.5</ele><time>2026-04-03T14:08:48.699Z</time></trkpt><trkpt lat="43.0089226" lon="12.2752508"><ele>222.0</ele><time>2026-04-03T14:08:49.7Z</time></trkpt><trkpt lat="43.0086915" lon="12.2752954"><ele>222.0</ele><time>2026-04-03T14:08:50.699Z</time></trkpt><trkpt lat="43.0084518" lon="12.2753451"><ele>222.0</ele><time>2026-04-03T14:08:51.7Z</time></trkpt><trkpt lat="43.0082178" lon="12.2753865"><ele>223.66666666666669</ele><time>2026-04-03T14:08:52.7Z</time></trkpt><trkpt lat="43.0080034" lon="12.2753876"><ele>225.33333333333334</ele><time>2026-04-03T14:08:53.699Z</time></trkpt><trkpt lat="43.0077749" lon="12.2753646"><ele>227.0</ele><time>2026-04-03T14:08:54.7Z</time></trkpt><trkpt lat="43.0075444" lon="12.2752734"><ele>232.5</ele><time>2026-04-03T14:08:55.7Z</time></trkpt><trkpt lat="43.0073158" lon="12.2751551"><ele>238.0</ele><time>2026-04-03T14:08:56.699Z</time></trkpt><trkpt lat="43.0070733" lon="12.2750318"><ele>238.0</ele><time>2026-04-03T14:08:57.7Z</time></trkpt><trkpt lat="43.0068386" lon="12.2749173"><ele>238.0</ele><time>2026-04-03T14:08:58.7Z</time></trkpt><trkpt lat="43.0066299" lon="12.2748275"><ele>235.66666666666666</ele><time>2026-04-03T14:08:59.699Z</time></trkpt><trkpt lat="43.0064343" lon="12.2747668"><ele>233.33333333333331</ele><time>2026-04-03T14:09:00.699Z</time></trkpt><trkpt lat="43.0062247" lon="12.2747654"><ele>231.0</ele><time>2026-04-03T14:09:01.699Z</time></trkpt><trkpt lat="43.0059975" lon="12.2748185"><ele>237.5</ele><time>2026-04-03T14:09:02.7Z</time></trkpt><trkpt lat="43.0057567" lon="12.2749229"><ele>244.0</ele><time>2026-04-03T14:09:03.7Z</time></trkpt><trkpt lat="43.0054996" lon="12.2750247"><ele>244.0</ele><time>2026-04-03T14:09:04.699Z</time></trkpt><trkpt lat="43.0052438" lon="12.2751092"><ele>244.0</ele><time>2026-04-03T14:09:05.699Z</time></trkpt><trkpt lat="43.005039" lon="12.2751654"><ele>249.33333333333331</ele><time>2026-04-03T14:09:06.699Z</time></trkpt><trkpt lat="43.0048693" lon="12.2751866"><ele>254.66666666666669</ele><time>2026-04-03T14:09:07.699Z</time></trkpt><trkpt lat="43.0046968" lon="12.2751528"><ele>260.0</ele><time>2026-04-03T14:09:08.7Z</time></trkpt><trkpt lat="43.0045309" lon="12.2750432"><ele>260.0</ele><time>2026-04-03T14:09:09.7Z</time></trkpt><trkpt lat="43.0043611" lon="12.2748722"><ele>260.0</ele><time>2026-04-03T14:09:10.7Z</time></trkpt><trkpt lat="43.0041808" lon="12.274686"><ele>260.0</ele><time>2026-04-03T14:09:11.7Z</time></trkpt><trkpt lat="43.0039925" lon="12.2745173"><ele>257.5</ele><time>2026-04-03T14:09:12.699Z</time></trkpt><trkpt lat="43.0037791" lon="12.2743807"><ele>255.0</ele><time>2026-04-03T14:09:13.7Z</time></trkpt><trkpt lat="43.0035322" lon="12.2742776"><ele>258.0</ele><time>2026-04-03T14:09:14.7Z</time></trkpt><trkpt lat="43.0032637" lon="12.2741941"><ele>261.0</ele><time>2026-04-03T14:09:15.7Z</time></trkpt><trkpt lat="43.0030119" lon="12.2741132"><ele>261.0</ele><time>2026-04-03T14:09:16.7Z</time></trkpt><trkpt lat="43.0028136" lon="12.2740572"><ele>261.0</ele><time>2026-04-03T14:09:17.7Z</time></trkpt><trkpt lat="43.002661" lon="12.2740212"><ele>261.0</ele><time>2026-04-03T14:09:18.7Z</time></trkpt><trkpt lat="43.0025299" lon="12.274035"><ele>259.6666666666667</ele><time>2026-04-03T14:09:19.7Z</time></trkpt><trkpt lat="43.0024018" lon="12.2741232"><ele>258.33333333333337</ele><time>2026-04-03T14:09:20.699Z</time></trkpt><trkpt lat="43.0022411" lon="12.2742898"><ele>257.0</ele><time>2026-04-03T14:09:21.699Z</time></trkpt><trkpt lat="43.0020615" lon="12.2744855"><ele>257.0</ele><time>2026-04-03T14:09:22.7Z</time></trkpt><trkpt lat="43.0018644" lon="12.274667"><ele>257.0</ele><time>2026-04-03T14:09:23.699Z</time></trkpt><trkpt lat="43.001668" lon="12.2747934"><ele>263.0</ele><time>2026-04-03T14:09:24.7Z</time></trkpt><trkpt lat="43.0014662" lon="12.2748456"><ele>269.0</ele><time>2026-04-03T14:09:25.7Z</time></trkpt><trkpt lat="43.000952" lon="12.2748165"><ele>270.0</ele><time>2026-04-03T14:09:27.7Z</time></trkpt><trkpt lat="43.0006509" lon="12.2747888"><ele>271.0</ele><time>2026-04-03T14:09:28.7Z</time></trkpt><trkpt lat="43.0003292" lon="12.2747719"><ele>267.5</ele><time>2026-04-03T14:09:29.7Z</time></trkpt><trkpt lat="43.0000046" lon="12.2747541"><ele>264.0</ele><time>2026-04-03T14:09:30.7Z</time></trkpt><trkpt lat="42.999708" lon="12.2747335"><ele>264.0</ele><time>2026-04-03T14:09:31.699Z</time></trkpt><trkpt lat="42.99946" lon="12.2747153"><ele>264.0</ele><time>2026-04-03T14:09:32.699Z</time></trkpt><trkpt lat="42.9992462" lon="12.2747257"><ele>267.0</ele><time>2026-04-03T14:09:33.7Z</time></trkpt><trkpt lat="42.9990626" lon="12.2747734"><ele>270.0</ele><time>2026-04-03T14:09:34.699Z</time></trkpt><trkpt lat="42.9988909" lon="12.2748771"><ele>273.0</ele><time>2026-04-03T14:09:35.7Z</time></trkpt><trkpt lat="42.9987005" lon="12.2750276"><ele>273.0</ele><time>2026-04-03T14:09:36.7Z</time></trkpt><trkpt lat="42.9984888" lon="12.2752209"><ele>273.0</ele><time>2026-04-03T14:09:37.7Z</time></trkpt><trkpt lat="42.9982579" lon="12.2754273"><ele>274.5</ele><time>2026-04-03T14:09:38.7Z</time></trkpt><trkpt lat="42.9980146" lon="12.275651"><ele>276.0</ele><time>2026-04-03T14:09:39.699Z</time></trkpt><trkpt lat="42.9977568" lon="12.2758905"><ele>277.5</ele><time>2026-04-03T14:09:40.699Z</time></trkpt><trkpt lat="42.9974904" lon="12.2761406"><ele>279.0</ele><time>2026-04-03T14:09:41.699Z</time></trkpt><trkpt lat="42.9972256" lon="12.2763882"><ele>276.0</ele><time>2026-04-03T14:09:42.7Z</time></trkpt><trkpt lat="42.9969607" lon="12.2766296"><ele>273.0</ele><time>2026-04-03T14:09:43.7Z</time></trkpt><trkpt lat="42.9966988" lon="12.276865"><ele>272.0</ele><time>2026-04-03T14:09:44.699Z</time></trkpt><trkpt lat="42.9964532" lon="12.2770895"><ele>271.0</ele><time>2026-04-03T14:09:45.699Z</time></trkpt><trkpt lat="42.9962417" lon="12.2773064"><ele>271.0</ele><time>2026-04-03T14:09:46.699Z</time></trkpt><trkpt lat="42.9960549" lon="12.2775088"><ele>271.0</ele><time>2026-04-03T14:09:47.7Z</time></trkpt><trkpt lat="42.9958822" lon="12.2776879"><ele>273.0</ele><time>2026-04-03T14:09:48.699Z</time></trkpt><trkpt lat="42.9957036" lon="12.2778287"><ele>275.0</ele><time>2026-04-03T14:09:49.699Z</time></trkpt><trkpt lat="42.9955074" lon="12.2779396"><ele>277.0</ele><time>2026-04-03T14:09:50.7Z</time></trkpt><trkpt lat="42.9953015" lon="12.278008"><ele>277.0</ele><time>2026-04-03T14:09:51.7Z</time></trkpt><trkpt lat="42.99509" lon="12.2780358"><ele>277.0</ele><time>2026-04-03T14:09:52.7Z</time></trkpt><trkpt lat="42.9948667" lon="12.2780337"><ele>277.0</ele><time>2026-04-03T14:09:53.7Z</time></trkpt><trkpt lat="42.9946224" lon="12.2780286"><ele>275.5</ele><time>2026-04-03T14:09:54.699Z</time></trkpt><trkpt lat="42.9943709" lon="12.2780213"><ele>274.0</ele><time>2026-04-03T14:09:55.7Z</time></trkpt><trkpt lat="42.9941298" lon="12.2780068"><ele>269.5</ele><time>2026-04-03T14:09:56.7Z</time></trkpt><trkpt lat="42.9938935" lon="12.2780047"><ele>265.0</ele><time>2026-04-03T14:09:57.7Z</time></trkpt><trkpt lat="42.9936495" lon="12.278003"><ele>265.0</ele><time>2026-04-03T14:09:58.7Z</time></trkpt><trkpt lat="42.9934056" lon="12.2779963"><ele>265.0</ele><time>2026-04-03T14:09:59.7Z</time></trkpt><trkpt lat="42.993173" lon="12.2779865"><ele>260.5</ele><time>2026-04-03T14:10:00.699Z</time></trkpt><trkpt lat="42.9929462" lon="12.2779744"><ele>256.0</ele><time>2026-04-03T14:10:01.699Z</time></trkpt><trkpt lat="42.9927175" lon="12.2779656"><ele>252.0</ele><time>2026-04-03T14:10:02.699Z</time></trkpt><trkpt lat="42.9924908" lon="12.2779567"><ele>248.0</ele><time>2026-04-03T14:10:03.699Z</time></trkpt><trkpt lat="42.9922578" lon="12.2779503"><ele>248.0</ele><time>2026-04-03T14:10:04.7Z</time></trkpt><trkpt lat="42.9920223" lon="12.2779467"><ele>248.0</ele><time>2026-04-03T14:10:05.7Z</time></trkpt><trkpt lat="42.9917942" lon="12.2779375"><ele>245.66666666666669</ele><time>2026-04-03T14:10:06.7Z</time></trkpt><trkpt lat="42.9915713" lon="12.2779232"><ele>243.33333333333331</ele><time>2026-04-03T14:10:07.7Z</time></trkpt><trkpt lat="42.9913498" lon="12.2778875"><ele>241.0</ele><time>2026-04-03T14:10:08.7Z</time></trkpt><trkpt lat="42.9911225" lon="12.2778272"><ele>241.0</ele><time>2026-04-03T14:10:09.7Z</time></trkpt><trkpt lat="42.9908941" lon="12.2777577"><ele>241.0</ele><time>2026-04-03T14:10:10.7Z</time></trkpt><trkpt lat="42.9906733" lon="12.2776733"><ele>239.33333333333331</ele><time>2026-04-03T14:10:11.699Z</time></trkpt><trkpt lat="42.9904749" lon="12.2775712"><ele>237.66666666666669</ele><time>2026-04-03T14:10:12.699Z</time></trkpt><trkpt lat="42.9902908" lon="12.2774573"><ele>236.0</ele><time>2026-04-03T14:10:13.7Z</time></trkpt><trkpt lat="42.9901054" lon="12.2773402"><ele>237.33333333333334</ele><time>2026-04-03T14:10:14.699Z</time></trkpt><trkpt lat="42.9899196" lon="12.2772102"><ele>238.66666666666669</ele><time>2026-04-03T14:10:15.7Z</time></trkpt><trkpt lat="42.9897405" lon="12.277058"><ele>240.0</ele><time>2026-04-03T14:10:16.7Z</time></trkpt><trkpt lat="42.9895762" lon="12.2768995"><ele>240.0</ele><time>2026-04-03T14:10:17.7Z</time></trkpt><trkpt lat="42.98942" lon="12.2767265"><ele>240.0</ele><time>2026-04-03T14:10:18.699Z</time></trkpt><trkpt lat="42.9892587" lon="12.2765397"><ele>240.0</ele><time>2026-04-03T14:10:19.7Z</time></trkpt><trkpt lat="42.989099" lon="12.2763483"><ele>241.66666666666669</ele><time>2026-04-03T14:10:20.7Z</time></trkpt><trkpt lat="42.9889374" lon="12.2761591"><ele>243.33333333333334</ele><time>2026-04-03T14:10:21.7Z</time></trkpt><trkpt lat="42.9887779" lon="12.275973"><ele>245.0</ele><time>2026-04-03T14:10:22.7Z</time></trkpt><trkpt lat="42.988618" lon="12.2757915"><ele>245.0</ele><time>2026-04-03T14:10:23.7Z</time></trkpt><trkpt lat="42.9884625" lon="12.2756082"><ele>245.0</ele><time>2026-04-03T14:10:24.7Z</time></trkpt><trkpt lat="42.9883092" lon="12.2754326"><ele>245.0</ele><time>2026-04-03T14:10:25.7Z</time></trkpt><trkpt lat="42.9881673" lon="12.2752667"><ele>248.33333333333334</ele><time>2026-04-03T14:10:26.699Z</time></trkpt><trkpt lat="42.9880347" lon="12.2751168"><ele>251.66666666666669</ele><time>2026-04-03T14:10:27.699Z</time></trkpt><trkpt lat="42.9879041" lon="12.2749698"><ele>255.0</ele><time>2026-04-03T14:10:28.7Z</time></trkpt><trkpt lat="42.9877756" lon="12.2748269"><ele>254.5</ele><time>2026-04-03T14:10:29.699Z</time></trkpt><trkpt lat="42.9876535" lon="12.2746891"><ele>254.0</ele><time>2026-04-03T14:10:30.699Z</time></trkpt><trkpt lat="42.9875503" lon="12.2745707"><ele>253.5</ele><time>2026-04-03T14:10:31.699Z</time></trkpt><trkpt lat="42.9874576" lon="12.2744734"><ele>253.0</ele><time>2026-04-03T14:10:32.7Z</time></trkpt><trkpt lat="42.9873599" lon="12.274381"><ele>254.0</ele><time>2026-04-03T14:10:33.699Z</time></trkpt><trkpt lat="42.9872738" lon="12.2742866"><ele>255.0</ele><time>2026-04-03T14:10:34.699Z</time></trkpt><trkpt lat="42.9872036" lon="12.2741919"><ele>256.0</ele><time>2026-04-03T14:10:35.7Z</time></trkpt><trkpt lat="42.98715" lon="12.2740994"><ele>257.0</ele><time>2026-04-03T14:10:36.699Z</time></trkpt><trkpt lat="42.9871082" lon="12.2740027"><ele>258.0</ele><time>2026-04-03T14:10:37.699Z</time></trkpt><trkpt lat="42.9870759" lon="12.2738993"><ele>258.0</ele><time>2026-04-03T14:10:38.699Z</time></trkpt><trkpt lat="42.9870301" lon="12.273807"><ele>258.0</ele><time>2026-04-03T14:10:39.7Z</time></trkpt><trkpt lat="42.9869836" lon="12.2737355"><ele>258.0</ele><time>2026-04-03T14:10:40.699Z</time></trkpt><trkpt lat="42.9869175" lon="12.2737033"><ele>258.0</ele><time>2026-04-03T14:10:41.699Z</time></trkpt><trkpt lat="42.9868455" lon="12.2737136"><ele>258.0</ele><time>2026-04-03T14:10:42.7Z</time></trkpt><trkpt lat="42.9867726" lon="12.2737567"><ele>258.0</ele><time>2026-04-03T14:10:43.7Z</time></trkpt><trkpt lat="42.9866868" lon="12.2738113"><ele>259.0</ele><time>2026-04-03T14:10:44.7Z</time></trkpt><trkpt lat="42.9865861" lon="12.2738748"><ele>260.0</ele><time>2026-04-03T14:10:45.7Z</time></trkpt><trkpt lat="42.9864535" lon="12.2739181"><ele>261.0</ele><time>2026-04-03T14:10:46.699Z</time></trkpt><trkpt lat="42.9862977" lon="12.2739537"><ele>262.0</ele><time>2026-04-03T14:10:47.7Z</time></trkpt><trkpt lat="42.9861201" lon="12.2739873"><ele>262.3333333333333</ele><time>2026-04-03T14:10:48.7Z</time></trkpt><trkpt lat="42.9859358" lon="12.2740335"><ele>262.6666666666667</ele><time>2026-04-03T14:10:49.699Z</time></trkpt><trkpt lat="42.9857647" lon="12.2740896"><ele>263.0</ele><time>2026-04-03T14:10:50.7Z</time></trkpt><trkpt lat="42.9856036" lon="12.2741501"><ele>261.6666666666667</ele><time>2026-04-03T14:10:51.7Z</time></trkpt><trkpt lat="42.9854419" lon="12.2742137"><ele>260.3333333333333</ele><time>2026-04-03T14:10:52.7Z</time></trkpt><trkpt lat="42.9852862" lon="12.2742746"><ele>259.0</ele><time>2026-04-03T14:10:53.699Z</time></trkpt><trkpt lat="42.9851342" lon="12.2743342"><ele>255.66666666666666</ele><time>2026-04-03T14:10:54.7Z</time></trkpt><trkpt lat="42.9849748" lon="12.2743923"><ele>252.33333333333331</ele><time>2026-04-03T14:10:55.699Z</time></trkpt><trkpt lat="42.9847993" lon="12.2744564"><ele>249.0</ele><time>2026-04-03T14:10:56.7Z</time></trkpt><trkpt lat="42.9846075" lon="12.274536"><ele>249.0</ele><time>2026-04-03T14:10:57.7Z</time></trkpt><trkpt lat="42.9844094" lon="12.2746254"><ele>249.0</ele><time>2026-04-03T14:10:58.699Z</time></trkpt><trkpt lat="42.9841738" lon="12.2747169"><ele>244.5</ele><time>2026-04-03T14:10:59.7Z</time></trkpt><trkpt lat="42.983892" lon="12.2748216"><ele>240.0</ele><time>2026-04-03T14:11:00.7Z</time></trkpt><trkpt lat="42.983607" lon="12.2749146"><ele>235.0</ele><time>2026-04-03T14:11:01.699Z</time></trkpt><trkpt lat="42.9833372" lon="12.2750087"><ele>230.0</ele><time>2026-04-03T14:11:02.7Z</time></trkpt><trkpt lat="42.9830823" lon="12.2750983"><ele>230.0</ele><time>2026-04-03T14:11:03.7Z</time></trkpt><trkpt lat="42.9828297" lon="12.2751872"><ele>230.0</ele><time>2026-04-03T14:11:04.7Z</time></trkpt><trkpt lat="42.9825817" lon="12.2752563"><ele>227.5</ele><time>2026-04-03T14:11:05.7Z</time></trkpt><trkpt lat="42.9823483" lon="12.2752959"><ele>225.0</ele><time>2026-04-03T14:11:06.699Z</time></trkpt><trkpt lat="42.9821027" lon="12.2753196"><ele>225.0</ele><time>2026-04-03T14:11:07.7Z</time></trkpt><trkpt lat="42.9818491" lon="12.2753151"><ele>225.0</ele><time>2026-04-03T14:11:08.7Z</time></trkpt><trkpt lat="42.9815852" lon="12.2752915"><ele>223.5</ele><time>2026-04-03T14:11:09.699Z</time></trkpt><trkpt lat="42.9813177" lon="12.2752353"><ele>222.0</ele><time>2026-04-03T14:11:10.699Z</time></trkpt><trkpt lat="42.9810443" lon="12.2751619"><ele>220.0</ele><time>2026-04-03T14:11:11.7Z</time></trkpt><trkpt lat="42.9807666" lon="12.275075"><ele>218.0</ele><time>2026-04-03T14:11:12.7Z</time></trkpt><trkpt lat="42.980482" lon="12.2749937"><ele>218.0</ele><time>2026-04-03T14:11:13.7Z</time></trkpt><trkpt lat="42.9801894" lon="12.274912"><ele>218.0</ele><time>2026-04-03T14:11:14.7Z</time></trkpt><trkpt lat="42.9798924" lon="12.2748267"><ele>214.5</ele><time>2026-04-03T14:11:15.7Z</time></trkpt><trkpt lat="42.9795943" lon="12.2747358"><ele>211.0</ele><time>2026-04-03T14:11:16.7Z</time></trkpt><trkpt lat="42.9792943" lon="12.2746452"><ele>210.0</ele><time>2026-04-03T14:11:17.7Z</time></trkpt><trkpt lat="42.9789953" lon="12.2745602"><ele>209.0</ele><time>2026-04-03T14:11:18.7Z</time></trkpt><trkpt lat="42.9787197" lon="12.2744768"><ele>209.0</ele><time>2026-04-03T14:11:19.699Z</time></trkpt><trkpt lat="42.9784759" lon="12.2744143"><ele>209.0</ele><time>2026-04-03T14:11:20.7Z</time></trkpt><trkpt lat="42.9782562" lon="12.2743655"><ele>208.33333333333334</ele><time>2026-04-03T14:11:21.7Z</time></trkpt><trkpt lat="42.9780536" lon="12.2743355"><ele>207.66666666666669</ele><time>2026-04-03T14:11:22.7Z</time></trkpt><trkpt lat="42.9778612" lon="12.2743361"><ele>207.0</ele><time>2026-04-03T14:11:23.7Z</time></trkpt><trkpt lat="42.9776831" lon="12.2743655"><ele>205.66666666666669</ele><time>2026-04-03T14:11:24.699Z</time></trkpt><trkpt lat="42.9775121" lon="12.2744252"><ele>204.33333333333334</ele><time>2026-04-03T14:11:25.7Z</time></trkpt><trkpt lat="42.9773451" lon="12.2745097"><ele>203.0</ele><time>2026-04-03T14:11:26.7Z</time></trkpt><trkpt lat="42.9771766" lon="12.2746232"><ele>203.0</ele><time>2026-04-03T14:11:27.699Z</time></trkpt><trkpt lat="42.9770076" lon="12.2747666"><ele>203.0</ele><time>2026-04-03T14:11:28.7Z</time></trkpt><trkpt lat="42.9768481" lon="12.274929"><ele>203.0</ele><time>2026-04-03T14:11:29.7Z</time></trkpt><trkpt lat="42.976682" lon="12.2751138"><ele>203.66666666666669</ele><time>2026-04-03T14:11:30.7Z</time></trkpt><trkpt lat="42.9765193" lon="12.2753"><ele>204.33333333333331</ele><time>2026-04-03T14:11:31.699Z</time></trkpt><trkpt lat="42.9763648" lon="12.2754813"><ele>205.0</ele><time>2026-04-03T14:11:32.7Z</time></trkpt><trkpt lat="42.976218" lon="12.2756625"><ele>205.66666666666666</ele><time>2026-04-03T14:11:33.7Z</time></trkpt><trkpt lat="42.9760757" lon="12.2758332"><ele>206.33333333333331</ele><time>2026-04-03T14:11:34.7Z</time></trkpt><trkpt lat="42.9759545" lon="12.2759921"><ele>207.0</ele><time>2026-04-03T14:11:35.7Z</time></trkpt><trkpt lat="42.9758479" lon="12.2761449"><ele>207.0</ele><time>2026-04-03T14:11:36.7Z</time></trkpt><trkpt lat="42.9757574" lon="12.2762977"><ele>207.0</ele><time>2026-04-03T14:11:37.7Z</time></trkpt><trkpt lat="42.9756936" lon="12.2764728"><ele>207.0</ele><time>2026-04-03T14:11:38.699Z</time></trkpt><trkpt lat="42.9756445" lon="12.2766666"><ele>207.0</ele><time>2026-04-03T14:11:39.699Z</time></trkpt><trkpt lat="42.9756013" lon="12.2768531"><ele>207.0</ele><time>2026-04-03T14:11:40.7Z</time></trkpt><trkpt lat="42.9755543" lon="12.2770329"><ele>207.0</ele><time>2026-04-03T14:11:41.7Z</time></trkpt><trkpt lat="42.9755051" lon="12.2772312"><ele>207.0</ele><time>2026-04-03T14:11:42.7Z</time></trkpt><trkpt lat="42.9754603" lon="12.277432"><ele>207.0</ele><time>2026-04-03T14:11:43.699Z</time></trkpt><trkpt lat="42.9754199" lon="12.2776265"><ele>207.0</ele><time>2026-04-03T14:11:44.699Z</time></trkpt><trkpt lat="42.9753858" lon="12.2778138"><ele>207.0</ele><time>2026-04-03T14:11:45.699Z</time></trkpt><trkpt lat="42.9753598" lon="12.2780081"><ele>207.0</ele><time>2026-04-03T14:11:46.7Z</time></trkpt><trkpt lat="42.9753546" lon="12.2782189"><ele>207.0</ele><time>2026-04-03T14:11:47.699Z</time></trkpt><trkpt lat="42.9753727" lon="12.2784664"><ele>207.0</ele><time>2026-04-03T14:11:48.699Z</time></trkpt><trkpt lat="42.9753943" lon="12.2787396"><ele>207.0</ele><time>2026-04-03T14:11:49.7Z</time></trkpt><trkpt lat="42.9754185" lon="12.2790333"><ele>207.0</ele><time>2026-04-03T14:11:50.699Z</time></trkpt><trkpt lat="42.9754409" lon="12.2793394"><ele>207.5</ele><time>2026-04-03T14:11:51.7Z</time></trkpt><trkpt lat="42.9754605" lon="12.2796544"><ele>208.0</ele><time>2026-04-03T14:11:52.698Z</time></trkpt><trkpt lat="42.9754752" lon="12.2799688"><ele>208.0</ele><time>2026-04-03T14:11:53.698Z</time></trkpt><trkpt lat="42.9754828" lon="12.2802824"><ele>208.0</ele><time>2026-04-03T14:11:54.699Z</time></trkpt><trkpt lat="42.9754712" lon="12.2805932"><ele>208.0</ele><time>2026-04-03T14:11:55.698Z</time></trkpt><trkpt lat="42.9754528" lon="12.280882"><ele>208.0</ele><time>2026-04-03T14:11:56.699Z</time></trkpt><trkpt lat="42.9754264" lon="12.2811409"><ele>208.0</ele><time>2026-04-03T14:11:57.699Z</time></trkpt><trkpt lat="42.975386" lon="12.2813936"><ele>208.33333333333331</ele><time>2026-04-03T14:11:58.699Z</time></trkpt><trkpt lat="42.9753354" lon="12.2816451"><ele>208.66666666666669</ele><time>2026-04-03T14:11:59.699Z</time></trkpt><trkpt lat="42.9752737" lon="12.2819016"><ele>209.0</ele><time>2026-04-03T14:12:00.699Z</time></trkpt><trkpt lat="42.9751979" lon="12.2821405"><ele>208.33333333333334</ele><time>2026-04-03T14:12:01.699Z</time></trkpt><trkpt lat="42.9751271" lon="12.2823594"><ele>207.66666666666669</ele><time>2026-04-03T14:12:02.699Z</time></trkpt><trkpt lat="42.975091" lon="12.282594"><ele>207.0</ele><time>2026-04-03T14:12:03.698Z</time></trkpt><trkpt lat="42.975071" lon="12.2828583"><ele>206.33333333333331</ele><time>2026-04-03T14:12:04.698Z</time></trkpt><trkpt lat="42.975072" lon="12.2831365"><ele>205.66666666666666</ele><time>2026-04-03T14:12:05.699Z</time></trkpt><trkpt lat="42.9750492" lon="12.283434"><ele>205.0</ele><time>2026-04-03T14:12:06.699Z</time></trkpt><trkpt lat="42.9749875" lon="12.283712"><ele>205.0</ele><time>2026-04-03T14:12:07.698Z</time></trkpt><trkpt lat="42.9748702" lon="12.2839936"><ele>205.0</ele><time>2026-04-03T14:12:08.698Z</time></trkpt><trkpt lat="42.9747459" lon="12.2842854"><ele>205.0</ele><time>2026-04-03T14:12:09.699Z</time></trkpt><trkpt lat="42.9746053" lon="12.2845891"><ele>205.0</ele><time>2026-04-03T14:12:10.699Z</time></trkpt><trkpt lat="42.9744697" lon="12.284895"><ele>206.5</ele><time>2026-04-03T14:12:11.699Z</time></trkpt><trkpt lat="42.9743455" lon="12.2851956"><ele>208.0</ele><time>2026-04-03T14:12:12.698Z</time></trkpt><trkpt lat="42.9742337" lon="12.2854957"><ele>208.33333333333331</ele><time>2026-04-03T14:12:13.699Z</time></trkpt><trkpt lat="42.9741363" lon="12.2857817"><ele>208.66666666666669</ele><time>2026-04-03T14:12:14.699Z</time></trkpt><trkpt lat="42.9740529" lon="12.2860502"><ele>209.0</ele><time>2026-04-03T14:12:15.698Z</time></trkpt><trkpt lat="42.9739667" lon="12.2862989"><ele>210.33333333333334</ele><time>2026-04-03T14:12:16.699Z</time></trkpt><trkpt lat="42.9738583" lon="12.2865382"><ele>211.66666666666669</ele><time>2026-04-03T14:12:17.698Z</time></trkpt><trkpt lat="42.9737307" lon="12.2867641"><ele>213.0</ele><time>2026-04-03T14:12:18.698Z</time></trkpt><trkpt lat="42.9736008" lon="12.286986"><ele>213.0</ele><time>2026-04-03T14:12:19.699Z</time></trkpt><trkpt lat="42.9734733" lon="12.2871939"><ele>213.0</ele><time>2026-04-03T14:12:20.698Z</time></trkpt><trkpt lat="42.9733566" lon="12.2873825"><ele>213.0</ele><time>2026-04-03T14:12:21.698Z</time></trkpt><trkpt lat="42.9732423" lon="12.2875704"><ele>212.0</ele><time>2026-04-03T14:12:22.699Z</time></trkpt><trkpt lat="42.9731237" lon="12.2877426"><ele>211.0</ele><time>2026-04-03T14:12:23.699Z</time></trkpt><trkpt lat="42.9729848" lon="12.2878998"><ele>210.0</ele><time>2026-04-03T14:12:24.699Z</time></trkpt><trkpt lat="42.9728119" lon="12.2880327"><ele>211.0</ele><time>2026-04-03T14:12:25.698Z</time></trkpt><trkpt lat="42.9726145" lon="12.288154"><ele>212.0</ele><time>2026-04-03T14:12:26.699Z</time></trkpt><trkpt lat="42.9723999" lon="12.2882892"><ele>208.0</ele><time>2026-04-03T14:12:27.699Z</time></trkpt><trkpt lat="42.9721744" lon="12.2884528"><ele>204.0</ele><time>2026-04-03T14:12:28.699Z</time></trkpt><trkpt lat="42.9719383" lon="12.2886368"><ele>204.0</ele><time>2026-04-03T14:12:29.699Z</time></trkpt><trkpt lat="42.9716915" lon="12.2888491"><ele>204.0</ele><time>2026-04-03T14:12:30.699Z</time></trkpt><trkpt lat="42.9714251" lon="12.2890913"><ele>200.0</ele><time>2026-04-03T14:12:31.699Z</time></trkpt><trkpt lat="42.9711606" lon="12.2893311"><ele>196.0</ele><time>2026-04-03T14:12:32.698Z</time></trkpt><trkpt lat="42.9709172" lon="12.2895606"><ele>195.5</ele><time>2026-04-03T14:12:33.698Z</time></trkpt><trkpt lat="42.9707019" lon="12.2897836"><ele>195.0</ele><time>2026-04-03T14:12:34.699Z</time></trkpt><trkpt lat="42.9704937" lon="12.29001"><ele>195.0</ele><time>2026-04-03T14:12:35.699Z</time></trkpt><trkpt lat="42.9702959" lon="12.2902318"><ele>195.0</ele><time>2026-04-03T14:12:36.699Z</time></trkpt><trkpt lat="42.9701066" lon="12.2904415"><ele>195.33333333333331</ele><time>2026-04-03T14:12:37.699Z</time></trkpt><trkpt lat="42.969938" lon="12.2906368"><ele>195.66666666666666</ele><time>2026-04-03T14:12:38.699Z</time></trkpt><trkpt lat="42.9697812" lon="12.2908217"><ele>196.0</ele><time>2026-04-03T14:12:39.698Z</time></trkpt><trkpt lat="42.9696465" lon="12.2909993"><ele>196.0</ele><time>2026-04-03T14:12:40.699Z</time></trkpt><trkpt lat="42.9695352" lon="12.2911951"><ele>196.0</ele><time>2026-04-03T14:12:41.699Z</time></trkpt><trkpt lat="42.9694506" lon="12.2914102"><ele>196.0</ele><time>2026-04-03T14:12:42.699Z</time></trkpt><trkpt lat="42.9693871" lon="12.2916486"><ele>196.0</ele><time>2026-04-03T14:12:43.698Z</time></trkpt><trkpt lat="42.969318" lon="12.2919053"><ele>196.0</ele><time>2026-04-03T14:12:44.698Z</time></trkpt><trkpt lat="42.9692463" lon="12.2921726"><ele>196.0</ele><time>2026-04-03T14:12:45.699Z</time></trkpt><trkpt lat="42.9691766" lon="12.2924436"><ele>196.0</ele><time>2026-04-03T14:12:46.699Z</time></trkpt><trkpt lat="42.9691042" lon="12.2927151"><ele>196.0</ele><time>2026-04-03T14:12:47.699Z</time></trkpt><trkpt lat="42.9690259" lon="12.2929852"><ele>196.0</ele><time>2026-04-03T14:12:48.699Z</time></trkpt><trkpt lat="42.9689463" lon="12.2932566"><ele>196.0</ele><time>2026-04-03T14:12:49.698Z</time></trkpt><trkpt lat="42.9688709" lon="12.2935225"><ele>196.0</ele><time>2026-04-03T14:12:50.699Z</time></trkpt><trkpt lat="42.9687914" lon="12.2937804"><ele>196.0</ele><time>2026-04-03T14:12:51.699Z</time></trkpt><trkpt lat="42.9687139" lon="12.2940178"><ele>196.0</ele><time>2026-04-03T14:12:52.699Z</time></trkpt><trkpt lat="42.9686296" lon="12.2942488"><ele>196.0</ele><time>2026-04-03T14:12:53.699Z</time></trkpt><trkpt lat="42.9685358" lon="12.2944659"><ele>196.0</ele><time>2026-04-03T14:12:54.699Z</time></trkpt><trkpt lat="42.9684283" lon="12.2946795"><ele>196.66666666666666</ele><time>2026-04-03T14:12:55.699Z</time></trkpt><trkpt lat="42.9683164" lon="12.294898"><ele>197.33333333333331</ele><time>2026-04-03T14:12:56.699Z</time></trkpt><trkpt lat="42.9682059" lon="12.2951069"><ele>198.0</ele><time>2026-04-03T14:12:57.699Z</time></trkpt><trkpt lat="42.9680918" lon="12.2953084"><ele>198.0</ele><time>2026-04-03T14:12:58.698Z</time></trkpt><trkpt lat="42.9679706" lon="12.2954941"><ele>198.0</ele><time>2026-04-03T14:12:59.699Z</time></trkpt><trkpt lat="42.9678311" lon="12.2956539"><ele>198.0</ele><time>2026-04-03T14:13:00.699Z</time></trkpt><trkpt lat="42.9676714" lon="12.2957799"><ele>199.0</ele><time>2026-04-03T14:13:01.698Z</time></trkpt><trkpt lat="42.9675123" lon="12.2958697"><ele>200.0</ele><time>2026-04-03T14:13:02.699Z</time></trkpt><trkpt lat="42.9673601" lon="12.2959432"><ele>201.0</ele><time>2026-04-03T14:13:03.698Z</time></trkpt><trkpt lat="42.9672299" lon="12.2960278"><ele>201.0</ele><time>2026-04-03T14:13:04.698Z</time></trkpt><trkpt lat="42.9671058" lon="12.2961428"><ele>201.0</ele><time>2026-04-03T14:13:05.699Z</time></trkpt><trkpt lat="42.9669843" lon="12.2962689"><ele>201.0</ele><time>2026-04-03T14:13:06.698Z</time></trkpt><trkpt lat="42.9668669" lon="12.296399"><ele>200.66666666666669</ele><time>2026-04-03T14:13:07.699Z</time></trkpt><trkpt lat="42.9667493" lon="12.2965255"><ele>200.33333333333334</ele><time>2026-04-03T14:13:08.699Z</time></trkpt><trkpt lat="42.9666302" lon="12.2966508"><ele>200.0</ele><time>2026-04-03T14:13:09.699Z</time></trkpt><trkpt lat="42.9665049" lon="12.2967817"><ele>201.33333333333334</ele><time>2026-04-03T14:13:10.698Z</time></trkpt><trkpt lat="42.9663768" lon="12.2969166"><ele>202.66666666666669</ele><time>2026-04-03T14:13:11.698Z</time></trkpt><trkpt lat="42.9662482" lon="12.2970492"><ele>204.0</ele><time>2026-04-03T14:13:12.699Z</time></trkpt><trkpt lat="42.9661273" lon="12.2971729"><ele>204.75</ele><time>2026-04-03T14:13:13.699Z</time></trkpt><trkpt lat="42.9660069" lon="12.2972927"><ele>205.5</ele><time>2026-04-03T14:13:14.699Z</time></trkpt><trkpt lat="42.9658864" lon="12.2974134"><ele>206.25</ele><time>2026-04-03T14:13:15.699Z</time></trkpt><trkpt lat="42.9657701" lon="12.2975356"><ele>207.0</ele><time>2026-04-03T14:13:16.699Z</time></trkpt><trkpt lat="42.9656637" lon="12.2976507"><ele>209.0</ele><time>2026-04-03T14:13:17.699Z</time></trkpt><trkpt lat="42.9655518" lon="12.2977661"><ele>211.0</ele><time>2026-04-03T14:13:18.699Z</time></trkpt><trkpt lat="42.9654307" lon="12.2978801"><ele>213.0</ele><time>2026-04-03T14:13:19.699Z</time></trkpt><trkpt lat="42.9653" lon="12.2979889"><ele>215.0</ele><time>2026-04-03T14:13:20.699Z</time></trkpt><trkpt lat="42.965152" lon="12.2980807"><ele>217.33333333333334</ele><time>2026-04-03T14:13:21.698Z</time></trkpt><trkpt lat="42.9649961" lon="12.2981464"><ele>219.66666666666669</ele><time>2026-04-03T14:13:22.699Z</time></trkpt><trkpt lat="42.9648385" lon="12.2981951"><ele>222.0</ele><time>2026-04-03T14:13:23.698Z</time></trkpt><trkpt lat="42.9646708" lon="12.2982334"><ele>222.0</ele><time>2026-04-03T14:13:24.698Z</time></trkpt><trkpt lat="42.9644755" lon="12.298268"><ele>222.0</ele><time>2026-04-03T14:13:25.698Z</time></trkpt><trkpt lat="42.9642581" lon="12.2982796"><ele>222.0</ele><time>2026-04-03T14:13:26.699Z</time></trkpt><trkpt lat="42.9640335" lon="12.2982745"><ele>224.0</ele><time>2026-04-03T14:13:27.699Z</time></trkpt><trkpt lat="42.9638076" lon="12.2982767"><ele>226.0</ele><time>2026-04-03T14:13:28.699Z</time></trkpt><trkpt lat="42.9635899" lon="12.2982968"><ele>228.0</ele><time>2026-04-03T14:13:29.699Z</time></trkpt><trkpt lat="42.9633649" lon="12.2983378"><ele>230.0</ele><time>2026-04-03T14:13:30.698Z</time></trkpt><trkpt lat="42.9631416" lon="12.2983912"><ele>232.0</ele><time>2026-04-03T14:13:31.699Z</time></trkpt><trkpt lat="42.9629368" lon="12.2984467"><ele>234.0</ele><time>2026-04-03T14:13:32.699Z</time></trkpt><trkpt lat="42.9627561" lon="12.2985044"><ele>234.0</ele><time>2026-04-03T14:13:33.698Z</time></trkpt><trkpt lat="42.962602" lon="12.2985664"><ele>234.0</ele><time>2026-04-03T14:13:34.699Z</time></trkpt><trkpt lat="42.9624716" lon="12.29863"><ele>234.0</ele><time>2026-04-03T14:13:35.699Z</time></trkpt><trkpt lat="42.9623484" lon="12.2986871"><ele>234.0</ele><time>2026-04-03T14:13:36.699Z</time></trkpt><trkpt lat="42.962243" lon="12.2987384"><ele>235.5</ele><time>2026-04-03T14:13:37.699Z</time></trkpt><trkpt lat="42.9621483" lon="12.2987796"><ele>237.0</ele><time>2026-04-03T14:13:38.699Z</time></trkpt><trkpt lat="42.96205" lon="12.2988165"><ele>238.5</ele><time>2026-04-03T14:13:39.699Z</time></trkpt><trkpt lat="42.9619352" lon="12.2988582"><ele>240.0</ele><time>2026-04-03T14:13:40.699Z</time></trkpt><trkpt lat="42.9617949" lon="12.2988962"><ele>241.33333333333331</ele><time>2026-04-03T14:13:41.699Z</time></trkpt><trkpt lat="42.9616272" lon="12.2989125"><ele>242.66666666666666</ele><time>2026-04-03T14:13:42.699Z</time></trkpt><trkpt lat="42.9614404" lon="12.2989068"><ele>244.0</ele><time>2026-04-03T14:13:43.698Z</time></trkpt><trkpt lat="42.9612311" lon="12.2989086"><ele>244.0</ele><time>2026-04-03T14:13:44.699Z</time></trkpt><trkpt lat="42.9610133" lon="12.2989172"><ele>244.0</ele><time>2026-04-03T14:13:45.698Z</time></trkpt><trkpt lat="42.9607913" lon="12.2989269"><ele>244.0</ele><time>2026-04-03T14:13:46.698Z</time></trkpt><trkpt lat="42.960579" lon="12.2989378"><ele>247.0</ele><time>2026-04-03T14:13:47.699Z</time></trkpt><trkpt lat="42.9603904" lon="12.2989427"><ele>250.0</ele><time>2026-04-03T14:13:48.698Z</time></trkpt><trkpt lat="42.9602265" lon="12.2989494"><ele>253.0</ele><time>2026-04-03T14:13:49.699Z</time></trkpt><trkpt lat="42.9600848" lon="12.298982"><ele>256.3333333333333</ele><time>2026-04-03T14:13:50.699Z</time></trkpt><trkpt lat="42.9599614" lon="12.2990605"><ele>259.6666666666667</ele><time>2026-04-03T14:13:51.699Z</time></trkpt><trkpt lat="42.9598453" lon="12.2991907"><ele>263.0</ele><time>2026-04-03T14:13:52.699Z</time></trkpt><trkpt lat="42.9597327" lon="12.2993553"><ele>263.0</ele><time>2026-04-03T14:13:53.698Z</time></trkpt><trkpt lat="42.9596092" lon="12.2995205"><ele>263.0</ele><time>2026-04-03T14:13:54.699Z</time></trkpt><trkpt lat="42.9594683" lon="12.2996812"><ele>263.0</ele><time>2026-04-03T14:13:55.698Z</time></trkpt><trkpt lat="42.959326" lon="12.2998418"><ele>267.33333333333337</ele><time>2026-04-03T14:13:56.699Z</time></trkpt><trkpt lat="42.9591763" lon="12.3000033"><ele>271.6666666666667</ele><time>2026-04-03T14:13:57.699Z</time></trkpt><trkpt lat="42.959019" lon="12.3001662"><ele>276.0</ele><time>2026-04-03T14:13:58.698Z</time></trkpt><trkpt lat="42.9588491" lon="12.3003239"><ele>276.0</ele><time>2026-04-03T14:13:59.699Z</time></trkpt><trkpt lat="42.9586793" lon="12.3004865"><ele>276.0</ele><time>2026-04-03T14:14:00.699Z</time></trkpt><trkpt lat="42.9585206" lon="12.3006679"><ele>276.0</ele><time>2026-04-03T14:14:01.699Z</time></trkpt><trkpt lat="42.9583632" lon="12.3008817"><ele>277.0</ele><time>2026-04-03T14:14:02.699Z</time></trkpt><trkpt lat="42.9582094" lon="12.3011054"><ele>278.0</ele><time>2026-04-03T14:14:03.699Z</time></trkpt><trkpt lat="42.9580559" lon="12.3013189"><ele>279.0</ele><time>2026-04-03T14:14:04.699Z</time></trkpt><trkpt lat="42.9578995" lon="12.3015076"><ele>280.0</ele><time>2026-04-03T14:14:05.698Z</time></trkpt><trkpt lat="42.9577373" lon="12.3016904"><ele>281.0</ele><time>2026-04-03T14:14:06.698Z</time></trkpt><trkpt lat="42.9575799" lon="12.3018874"><ele>282.0</ele><time>2026-04-03T14:14:07.699Z</time></trkpt><trkpt lat="42.9574328" lon="12.3021055"><ele>285.0</ele><time>2026-04-03T14:14:08.699Z</time></trkpt><trkpt lat="42.9573032" lon="12.3023505"><ele>288.0</ele><time>2026-04-03T14:14:09.698Z</time></trkpt><trkpt lat="42.9571805" lon="12.3026078"><ele>291.0</ele><time>2026-04-03T14:14:10.698Z</time></trkpt><trkpt lat="42.9570713" lon="12.3028772"><ele>293.3333333333333</ele><time>2026-04-03T14:14:11.699Z</time></trkpt><trkpt lat="42.9569754" lon="12.3031364"><ele>295.66666666666663</ele><time>2026-04-03T14:14:12.698Z</time></trkpt><trkpt lat="42.9568931" lon="12.3033679"><ele>298.0</ele><time>2026-04-03T14:14:13.699Z</time></trkpt><trkpt lat="42.956823" lon="12.3035916"><ele>298.0</ele><time>2026-04-03T14:14:14.699Z</time></trkpt><trkpt lat="42.9567755" lon="12.3038055"><ele>298.0</ele><time>2026-04-03T14:14:15.699Z</time></trkpt><trkpt lat="42.9567496" lon="12.3040178"><ele>298.0</ele><time>2026-04-03T14:14:16.699Z</time></trkpt><trkpt lat="42.9567536" lon="12.3042442"><ele>297.66666666666663</ele><time>2026-04-03T14:14:17.699Z</time></trkpt><trkpt lat="42.9567878" lon="12.3044947"><ele>297.3333333333333</ele><time>2026-04-03T14:14:18.699Z</time></trkpt><trkpt lat="42.9568267" lon="12.3047643"><ele>297.0</ele><time>2026-04-03T14:14:19.699Z</time></trkpt><trkpt lat="42.9568629" lon="12.3050555"><ele>296.3333333333333</ele><time>2026-04-03T14:14:20.699Z</time></trkpt><trkpt lat="42.9568937" lon="12.3053496"><ele>295.66666666666663</ele><time>2026-04-03T14:14:21.699Z</time></trkpt><trkpt lat="42.9569189" lon="12.3056154"><ele>295.0</ele><time>2026-04-03T14:14:22.699Z</time></trkpt><trkpt lat="42.9569049" lon="12.3058744"><ele>295.0</ele><time>2026-04-03T14:14:23.699Z</time></trkpt><trkpt lat="42.9568466" lon="12.3061187"><ele>295.0</ele><time>2026-04-03T14:14:24.698Z</time></trkpt><trkpt lat="42.9567593" lon="12.3063697"><ele>295.0</ele><time>2026-04-03T14:14:25.698Z</time></trkpt><trkpt lat="42.9566383" lon="12.3066169"><ele>291.0</ele><time>2026-04-03T14:14:26.699Z</time></trkpt><trkpt lat="42.9564947" lon="12.3068528"><ele>287.0</ele><time>2026-04-03T14:14:27.699Z</time></trkpt><trkpt lat="42.9563222" lon="12.307091"><ele>288.0</ele><time>2026-04-03T14:14:28.698Z</time></trkpt><trkpt lat="42.9561557" lon="12.3073308"><ele>289.0</ele><time>2026-04-03T14:14:29.699Z</time></trkpt><trkpt lat="42.9559997" lon="12.3075669"><ele>289.0</ele><time>2026-04-03T14:14:30.699Z</time></trkpt><trkpt lat="42.9558717" lon="12.3078026"><ele>289.0</ele><time>2026-04-03T14:14:31.698Z</time></trkpt><trkpt lat="42.9557629" lon="12.3080516"><ele>289.0</ele><time>2026-04-03T14:14:32.699Z</time></trkpt><trkpt lat="42.9556637" lon="12.3083238"><ele>289.0</ele><time>2026-04-03T14:14:33.698Z</time></trkpt><trkpt lat="42.9555498" lon="12.308615"><ele>289.0</ele><time>2026-04-03T14:14:34.699Z</time></trkpt><trkpt lat="42.9554265" lon="12.3089147"><ele>289.0</ele><time>2026-04-03T14:14:35.699Z</time></trkpt><trkpt lat="42.9553015" lon="12.3092219"><ele>289.0</ele><time>2026-04-03T14:14:36.698Z</time></trkpt><trkpt lat="42.9551876" lon="12.3095225"><ele>289.5</ele><time>2026-04-03T14:14:37.698Z</time></trkpt><trkpt lat="42.9550877" lon="12.3098028"><ele>290.0</ele><time>2026-04-03T14:14:38.698Z</time></trkpt><trkpt lat="42.9549882" lon="12.3100775"><ele>290.33333333333337</ele><time>2026-04-03T14:14:39.698Z</time></trkpt><trkpt lat="42.9548984" lon="12.3103538"><ele>290.6666666666667</ele><time>2026-04-03T14:14:40.699Z</time></trkpt><trkpt lat="42.9548142" lon="12.3106327"><ele>291.0</ele><time>2026-04-03T14:14:41.699Z</time></trkpt><trkpt lat="42.9547316" lon="12.310921"><ele>293.5</ele><time>2026-04-03T14:14:42.698Z</time></trkpt><trkpt lat="42.954645" lon="12.3112188"><ele>296.0</ele><time>2026-04-03T14:14:43.698Z</time></trkpt><trkpt lat="42.9545569" lon="12.3115245"><ele>296.0</ele><time>2026-04-03T14:14:44.698Z</time></trkpt><trkpt lat="42.9544647" lon="12.3118361"><ele>296.0</ele><time>2026-04-03T14:14:45.699Z</time></trkpt><trkpt lat="42.9543753" lon="12.3121419"><ele>295.6666666666667</ele><time>2026-04-03T14:14:46.699Z</time></trkpt><trkpt lat="42.9542918" lon="12.312422"><ele>295.3333333333333</ele><time>2026-04-03T14:14:47.698Z</time></trkpt><trkpt lat="42.9542198" lon="12.3126554"><ele>295.0</ele><time>2026-04-03T14:14:48.699Z</time></trkpt><trkpt lat="42.9541526" lon="12.3128775"><ele>297.3333333333333</ele><time>2026-04-03T14:14:49.698Z</time></trkpt><trkpt lat="42.9541116" lon="12.3131033"><ele>299.6666666666667</ele><time>2026-04-03T14:14:50.699Z</time></trkpt><trkpt lat="42.9541101" lon="12.3133519"><ele>302.0</ele><time>2026-04-03T14:14:51.699Z</time></trkpt><trkpt lat="42.95414" lon="12.3136249"><ele>302.5</ele><time>2026-04-03T14:14:52.698Z</time></trkpt><trkpt lat="42.9541918" lon="12.3139204"><ele>303.0</ele><time>2026-04-03T14:14:53.699Z</time></trkpt><trkpt lat="42.9542313" lon="12.3142285"><ele>301.5</ele><time>2026-04-03T14:14:54.698Z</time></trkpt><trkpt lat="42.9542572" lon="12.3145445"><ele>300.0</ele><time>2026-04-03T14:14:55.698Z</time></trkpt><trkpt lat="42.9542555" lon="12.3148685"><ele>300.0</ele><time>2026-04-03T14:14:56.698Z</time></trkpt><trkpt lat="42.9542283" lon="12.3151901"><ele>300.0</ele><time>2026-04-03T14:14:57.698Z</time></trkpt><trkpt lat="42.9541877" lon="12.315481"><ele>304.0</ele><time>2026-04-03T14:14:58.698Z</time></trkpt><trkpt lat="42.9541565" lon="12.3157462"><ele>308.0</ele><time>2026-04-03T14:14:59.698Z</time></trkpt><trkpt lat="42.9541143" lon="12.3159757"><ele>312.0</ele><time>2026-04-03T14:15:00.698Z</time></trkpt><trkpt lat="42.9540581" lon="12.3161584"><ele>312.0</ele><time>2026-04-03T14:15:01.698Z</time></trkpt><trkpt lat="42.9539664" lon="12.3163366"><ele>312.0</ele><time>2026-04-03T14:15:02.697Z</time></trkpt><trkpt lat="42.9538502" lon="12.3165185"><ele>312.0</ele><time>2026-04-03T14:15:03.697Z</time></trkpt><trkpt lat="42.9537342" lon="12.3167244"><ele>313.3333333333333</ele><time>2026-04-03T14:15:04.698Z</time></trkpt><trkpt lat="42.9536267" lon="12.3169352"><ele>314.66666666666663</ele><time>2026-04-03T14:15:05.697Z</time></trkpt><trkpt lat="42.9535319" lon="12.3171327"><ele>316.0</ele><time>2026-04-03T14:15:06.697Z</time></trkpt><trkpt lat="42.9534438" lon="12.3173111"><ele>316.2</ele><time>2026-04-03T14:15:07.697Z</time></trkpt><trkpt lat="42.9533697" lon="12.317448"><ele>316.40000000000003</ele><time>2026-04-03T14:15:08.697Z</time></trkpt><trkpt lat="42.9533123" lon="12.3175551"><ele>316.6</ele><time>2026-04-03T14:15:09.698Z</time></trkpt><trkpt lat="42.95327" lon="12.3176459"><ele>316.8</ele><time>2026-04-03T14:15:10.697Z</time></trkpt><trkpt lat="42.9532404" lon="12.3177469"><ele>317.0</ele><time>2026-04-03T14:15:12.698Z</time></trkpt><trkpt lat="42.9533115" lon="12.3178113"><ele>317.6</ele><time>2026-04-03T14:15:21.697Z</time></trkpt><trkpt lat="42.9534476" lon="12.3178069"><ele>318.2</ele><time>2026-04-03T14:15:23.698Z</time></trkpt><trkpt lat="42.9535295" lon="12.317811"><ele>318.8</ele><time>2026-04-03T14:15:24.698Z</time></trkpt><trkpt lat="42.9536182" lon="12.3178239"><ele>319.4</ele><time>2026-04-03T14:15:25.698Z</time></trkpt><trkpt lat="42.9537144" lon="12.3178516"><ele>320.0</ele><time>2026-04-03T14:15:26.697Z</time></trkpt><trkpt lat="42.9538206" lon="12.3178848"><ele>320.0</ele><time>2026-04-03T14:15:27.698Z</time></trkpt><trkpt lat="42.9539333" lon="12.3179272"><ele>320.0</ele><time>2026-04-03T14:15:28.698Z</time></trkpt><trkpt lat="42.9540499" lon="12.3179705"><ele>320.0</ele><time>2026-04-03T14:15:29.698Z</time></trkpt><trkpt lat="42.9541729" lon="12.3180162"><ele>320.0</ele><time>2026-04-03T14:15:30.698Z</time></trkpt><trkpt lat="42.9542963" lon="12.3180666"><ele>319.5</ele><time>2026-04-03T14:15:31.697Z</time></trkpt><trkpt lat="42.9544245" lon="12.3181181"><ele>319.0</ele><time>2026-04-03T14:15:32.698Z</time></trkpt><trkpt lat="42.954555" lon="12.3181706"><ele>318.5</ele><time>2026-04-03T14:15:33.697Z</time></trkpt><trkpt lat="42.9546832" lon="12.3182194"><ele>318.0</ele><time>2026-04-03T14:15:34.698Z</time></trkpt><trkpt lat="42.9548068" lon="12.3182685"><ele>318.0</ele><time>2026-04-03T14:15:35.697Z</time></trkpt><trkpt lat="42.9549256" lon="12.3183117"><ele>318.0</ele><time>2026-04-03T14:15:36.697Z</time></trkpt><trkpt lat="42.9550445" lon="12.3183662"><ele>318.0</ele><time>2026-04-03T14:15:37.697Z</time></trkpt><trkpt lat="42.9551678" lon="12.3184259"><ele>318.0</ele><time>2026-04-03T14:15:38.698Z</time></trkpt><trkpt lat="42.9552956" lon="12.318498"><ele>316.25</ele><time>2026-04-03T14:15:39.698Z</time></trkpt><trkpt lat="42.9554268" lon="12.3185772"><ele>314.5</ele><time>2026-04-03T14:15:40.697Z</time></trkpt><trkpt lat="42.9555576" lon="12.3186682"><ele>312.75</ele><time>2026-04-03T14:15:41.698Z</time></trkpt><trkpt lat="42.9556927" lon="12.3187652"><ele>311.0</ele><time>2026-04-03T14:15:42.698Z</time></trkpt><trkpt lat="42.9558311" lon="12.3188802"><ele>310.33333333333337</ele><time>2026-04-03T14:15:43.697Z</time></trkpt><trkpt lat="42.955972" lon="12.3189971"><ele>309.6666666666667</ele><time>2026-04-03T14:15:44.698Z</time></trkpt><trkpt lat="42.9561183" lon="12.3191159"><ele>309.0</ele><time>2026-04-03T14:15:45.697Z</time></trkpt><trkpt lat="42.9562638" lon="12.3192309"><ele>309.0</ele><time>2026-04-03T14:15:46.697Z</time></trkpt><trkpt lat="42.9564107" lon="12.3193538"><ele>309.0</ele><time>2026-04-03T14:15:47.698Z</time></trkpt><trkpt lat="42.956561" lon="12.3194788"><ele>309.0</ele><time>2026-04-03T14:15:48.698Z</time></trkpt><trkpt lat="42.9567156" lon="12.319605"><ele>308.0</ele><time>2026-04-03T14:15:49.698Z</time></trkpt><trkpt lat="42.9568705" lon="12.3197323"><ele>307.0</ele><time>2026-04-03T14:15:50.698Z</time></trkpt><trkpt lat="42.9570293" lon="12.3198587"><ele>306.0</ele><time>2026-04-03T14:15:51.697Z</time></trkpt><trkpt lat="42.9571888" lon="12.3199893"><ele>306.0</ele><time>2026-04-03T14:15:52.697Z</time></trkpt><trkpt lat="42.9573487" lon="12.3201208"><ele>306.0</ele><time>2026-04-03T14:15:53.697Z</time></trkpt><trkpt lat="42.9575132" lon="12.3202546"><ele>306.0</ele><time>2026-04-03T14:15:54.697Z</time></trkpt><trkpt lat="42.9576761" lon="12.3203958"><ele>305.0</ele><time>2026-04-03T14:15:55.698Z</time></trkpt><trkpt lat="42.9578431" lon="12.3205308"><ele>304.0</ele><time>2026-04-03T14:15:56.698Z</time></trkpt><trkpt lat="42.958009" lon="12.3206656"><ele>303.0</ele><time>2026-04-03T14:15:57.697Z</time></trkpt><trkpt lat="42.95817" lon="12.3207971"><ele>303.0</ele><time>2026-04-03T14:15:58.698Z</time></trkpt><trkpt lat="42.9583331" lon="12.3209263"><ele>303.0</ele><time>2026-04-03T14:15:59.697Z</time></trkpt><trkpt lat="42.9584946" lon="12.3210599"><ele>303.0</ele><time>2026-04-03T14:16:00.698Z</time></trkpt><trkpt lat="42.9586537" lon="12.3212042"><ele>303.0</ele><time>2026-04-03T14:16:01.698Z</time></trkpt><trkpt lat="42.9588119" lon="12.3213569"><ele>303.0</ele><time>2026-04-03T14:16:02.697Z</time></trkpt><trkpt lat="42.9589744" lon="12.3215196"><ele>303.0</ele><time>2026-04-03T14:16:03.698Z</time></trkpt><trkpt lat="42.9591394" lon="12.321699"><ele>303.0</ele><time>2026-04-03T14:16:04.698Z</time></trkpt><trkpt lat="42.95931" lon="12.3218907"><ele>303.0</ele><time>2026-04-03T14:16:05.698Z</time></trkpt><trkpt lat="42.9594779" lon="12.3220851"><ele>303.0</ele><time>2026-04-03T14:16:06.698Z</time></trkpt><trkpt lat="42.959652" lon="12.3222981"><ele>304.5</ele><time>2026-04-03T14:16:07.698Z</time></trkpt><trkpt lat="42.9598226" lon="12.3225285"><ele>306.0</ele><time>2026-04-03T14:16:08.698Z</time></trkpt><trkpt lat="42.9599852" lon="12.3227787"><ele>307.5</ele><time>2026-04-03T14:16:09.698Z</time></trkpt><trkpt lat="42.9601449" lon="12.3230341"><ele>309.0</ele><time>2026-04-03T14:16:10.698Z</time></trkpt><trkpt lat="42.9603163" lon="12.3232903"><ele>310.5</ele><time>2026-04-03T14:16:11.697Z</time></trkpt><trkpt lat="42.9604878" lon="12.3235537"><ele>312.0</ele><time>2026-04-03T14:16:12.698Z</time></trkpt><trkpt lat="42.9606638" lon="12.3238213"><ele>309.0</ele><time>2026-04-03T14:16:13.698Z</time></trkpt><trkpt lat="42.9608446" lon="12.3240893"><ele>306.0</ele><time>2026-04-03T14:16:14.697Z</time></trkpt><trkpt lat="42.9610232" lon="12.3243641"><ele>308.5</ele><time>2026-04-03T14:16:15.697Z</time></trkpt><trkpt lat="42.9612032" lon="12.3246393"><ele>311.0</ele><time>2026-04-03T14:16:16.697Z</time></trkpt><trkpt lat="42.9613774" lon="12.3248974"><ele>311.0</ele><time>2026-04-03T14:16:17.696Z</time></trkpt><trkpt lat="42.9615302" lon="12.3251228"><ele>311.0</ele><time>2026-04-03T14:16:18.697Z</time></trkpt><trkpt lat="42.9616424" lon="12.3253424"><ele>311.0</ele><time>2026-04-03T14:16:19.697Z</time></trkpt><trkpt lat="42.961738" lon="12.3255579"><ele>307.6666666666667</ele><time>2026-04-03T14:16:20.696Z</time></trkpt><trkpt lat="42.9618073" lon="12.325779"><ele>304.3333333333333</ele><time>2026-04-03T14:16:21.697Z</time></trkpt><trkpt lat="42.9618638" lon="12.3260115"><ele>301.0</ele><time>2026-04-03T14:16:22.696Z</time></trkpt><trkpt lat="42.9619023" lon="12.3262566"><ele>300.0</ele><time>2026-04-03T14:16:23.697Z</time></trkpt><trkpt lat="42.961925" lon="12.3265392"><ele>299.0</ele><time>2026-04-03T14:16:24.697Z</time></trkpt><trkpt lat="42.9619185" lon="12.3268382"><ele>298.0</ele><time>2026-04-03T14:16:25.697Z</time></trkpt><trkpt lat="42.9618918" lon="12.327156"><ele>299.0</ele><time>2026-04-03T14:16:26.697Z</time></trkpt><trkpt lat="42.96186" lon="12.3274837"><ele>300.0</ele><time>2026-04-03T14:16:27.697Z</time></trkpt><trkpt lat="42.961827" lon="12.3278143"><ele>300.0</ele><time>2026-04-03T14:16:28.696Z</time></trkpt><trkpt lat="42.9617988" lon="12.3281394"><ele>300.0</ele><time>2026-04-03T14:16:29.697Z</time></trkpt><trkpt lat="42.9617688" lon="12.3284463"><ele>300.0</ele><time>2026-04-03T14:16:30.697Z</time></trkpt><trkpt lat="42.961744" lon="12.3287315"><ele>300.0</ele><time>2026-04-03T14:16:31.697Z</time></trkpt><trkpt lat="42.9617244" lon="12.3289818"><ele>300.0</ele><time>2026-04-03T14:16:32.697Z</time></trkpt><trkpt lat="42.9617146" lon="12.3292187"><ele>300.75</ele><time>2026-04-03T14:16:33.696Z</time></trkpt><trkpt lat="42.961732" lon="12.3294383"><ele>301.5</ele><time>2026-04-03T14:16:34.697Z</time></trkpt><trkpt lat="42.961773" lon="12.3296193"><ele>302.25</ele><time>2026-04-03T14:16:35.697Z</time></trkpt><trkpt lat="42.9618322" lon="12.3297729"><ele>303.0</ele><time>2026-04-03T14:16:36.697Z</time></trkpt><trkpt lat="42.9618995" lon="12.3299053"><ele>304.0</ele><time>2026-04-03T14:16:37.696Z</time></trkpt><trkpt lat="42.9619953" lon="12.3300323"><ele>305.0</ele><time>2026-04-03T14:16:38.697Z</time></trkpt><trkpt lat="42.9620959" lon="12.3301701"><ele>306.0</ele><time>2026-04-03T14:16:39.696Z</time></trkpt><trkpt lat="42.9622005" lon="12.3303247"><ele>307.0</ele><time>2026-04-03T14:16:40.697Z</time></trkpt><trkpt lat="42.9623308" lon="12.3305"><ele>307.0</ele><time>2026-04-03T14:16:41.696Z</time></trkpt><trkpt lat="42.9624739" lon="12.3306913"><ele>307.0</ele><time>2026-04-03T14:16:42.697Z</time></trkpt><trkpt lat="42.9626276" lon="12.3308947"><ele>307.0</ele><time>2026-04-03T14:16:43.696Z</time></trkpt><trkpt lat="42.9627846" lon="12.3311093"><ele>305.66666666666663</ele><time>2026-04-03T14:16:44.697Z</time></trkpt><trkpt lat="42.9629393" lon="12.3313205"><ele>304.3333333333333</ele><time>2026-04-03T14:16:45.697Z</time></trkpt><trkpt lat="42.9630912" lon="12.3315116"><ele>303.0</ele><time>2026-04-03T14:16:46.696Z</time></trkpt><trkpt lat="42.9632441" lon="12.3316916"><ele>300.3333333333333</ele><time>2026-04-03T14:16:47.697Z</time></trkpt><trkpt lat="42.9634032" lon="12.3318587"><ele>297.66666666666663</ele><time>2026-04-03T14:16:48.697Z</time></trkpt><trkpt lat="42.9635804" lon="12.3319907"><ele>295.0</ele><time>2026-04-03T14:16:49.697Z</time></trkpt><trkpt lat="42.9637636" lon="12.3320869"><ele>295.0</ele><time>2026-04-03T14:16:50.696Z</time></trkpt><trkpt lat="42.9639588" lon="12.3321583"><ele>295.0</ele><time>2026-04-03T14:16:51.697Z</time></trkpt><trkpt lat="42.9641604" lon="12.3322232"><ele>295.0</ele><time>2026-04-03T14:16:52.697Z</time></trkpt><trkpt lat="42.9643668" lon="12.3322907"><ele>297.5</ele><time>2026-04-03T14:16:53.696Z</time></trkpt><trkpt lat="42.9645829" lon="12.3323601"><ele>300.0</ele><time>2026-04-03T14:16:54.697Z</time></trkpt><trkpt lat="42.9648036" lon="12.3324362"><ele>300.0</ele><time>2026-04-03T14:16:55.697Z</time></trkpt><trkpt lat="42.9650242" lon="12.3325094"><ele>300.0</ele><time>2026-04-03T14:16:56.696Z</time></trkpt><trkpt lat="42.9652299" lon="12.3325784"><ele>300.0</ele><time>2026-04-03T14:16:57.696Z</time></trkpt><trkpt lat="42.9654268" lon="12.3326425"><ele>297.3333333333333</ele><time>2026-04-03T14:16:58.696Z</time></trkpt><trkpt lat="42.9656237" lon="12.3327029"><ele>294.66666666666663</ele><time>2026-04-03T14:16:59.697Z</time></trkpt><trkpt lat="42.9658214" lon="12.3327674"><ele>292.0</ele><time>2026-04-03T14:17:00.697Z</time></trkpt><trkpt lat="42.9660146" lon="12.3328303"><ele>290.66666666666663</ele><time>2026-04-03T14:17:01.697Z</time></trkpt><trkpt lat="42.9662123" lon="12.3328949"><ele>289.3333333333333</ele><time>2026-04-03T14:17:02.697Z</time></trkpt><trkpt lat="42.9664047" lon="12.3329584"><ele>288.0</ele><time>2026-04-03T14:17:03.697Z</time></trkpt><trkpt lat="42.9665837" lon="12.3330144"><ele>288.75</ele><time>2026-04-03T14:17:04.696Z</time></trkpt><trkpt lat="42.96675" lon="12.333069"><ele>289.5</ele><time>2026-04-03T14:17:05.697Z</time></trkpt><trkpt lat="42.9668927" lon="12.3331101"><ele>290.25</ele><time>2026-04-03T14:17:06.697Z</time></trkpt><trkpt lat="42.9669978" lon="12.3331456"><ele>291.0</ele><time>2026-04-03T14:17:07.697Z</time></trkpt><trkpt lat="42.967076" lon="12.3331801"><ele>291.0</ele><time>2026-04-03T14:17:08.697Z</time></trkpt><trkpt lat="42.9671374" lon="12.3332225"><ele>291.0</ele><time>2026-04-03T14:17:09.697Z</time></trkpt><trkpt lat="42.9671803" lon="12.3333655"><ele>291.0</ele><time>2026-04-03T14:17:11.696Z</time></trkpt><trkpt lat="42.9671617" lon="12.3334822"><ele>291.0</ele><time>2026-04-03T14:17:12.697Z</time></trkpt><trkpt lat="42.9671261" lon="12.333617"><ele>291.0</ele><time>2026-04-03T14:17:13.697Z</time></trkpt><trkpt lat="42.9670838" lon="12.3337729"><ele>290.75</ele><time>2026-04-03T14:17:14.697Z</time></trkpt><trkpt lat="42.9670578" lon="12.3339514"><ele>290.5</ele><time>2026-04-03T14:17:15.697Z</time></trkpt><trkpt lat="42.9670285" lon="12.3341411"><ele>290.25</ele><time>2026-04-03T14:17:16.696Z</time></trkpt><trkpt lat="42.9669892" lon="12.3343619"><ele>290.0</ele><time>2026-04-03T14:17:17.696Z</time></trkpt><trkpt lat="42.966931" lon="12.3345916"><ele>292.0</ele><time>2026-04-03T14:17:18.697Z</time></trkpt><trkpt lat="42.966861" lon="12.3348173"><ele>294.0</ele><time>2026-04-03T14:17:19.697Z</time></trkpt><trkpt lat="42.9667798" lon="12.3350437"><ele>296.0</ele><time>2026-04-03T14:17:20.696Z</time></trkpt><trkpt lat="42.9666909" lon="12.3352661"><ele>296.0</ele><time>2026-04-03T14:17:21.696Z</time></trkpt><trkpt lat="42.9665922" lon="12.3354627"><ele>296.0</ele><time>2026-04-03T14:17:22.697Z</time></trkpt><trkpt lat="42.9664847" lon="12.33564"><ele>296.0</ele><time>2026-04-03T14:17:23.697Z</time></trkpt><trkpt lat="42.9663484" lon="12.3358245"><ele>293.33333333333337</ele><time>2026-04-03T14:17:24.696Z</time></trkpt><trkpt lat="42.9661992" lon="12.3360139"><ele>290.6666666666667</ele><time>2026-04-03T14:17:25.696Z</time></trkpt><trkpt lat="42.9660432" lon="12.3362157"><ele>288.0</ele><time>2026-04-03T14:17:26.696Z</time></trkpt><trkpt lat="42.9659007" lon="12.3364091"><ele>289.6666666666667</ele><time>2026-04-03T14:17:27.696Z</time></trkpt><trkpt lat="42.9657696" lon="12.3366044"><ele>291.33333333333337</ele><time>2026-04-03T14:17:28.697Z</time></trkpt><trkpt lat="42.965645" lon="12.3368023"><ele>293.0</ele><time>2026-04-03T14:17:29.697Z</time></trkpt><trkpt lat="42.9655258" lon="12.336994"><ele>293.0</ele><time>2026-04-03T14:17:30.696Z</time></trkpt><trkpt lat="42.9654129" lon="12.3372007"><ele>293.0</ele><time>2026-04-03T14:17:31.696Z</time></trkpt><trkpt lat="42.9652891" lon="12.3374326"><ele>293.0</ele><time>2026-04-03T14:17:32.697Z</time></trkpt><trkpt lat="42.9651654" lon="12.3376795"><ele>290.0</ele><time>2026-04-03T14:17:33.697Z</time></trkpt><trkpt lat="42.9650346" lon="12.3379409"><ele>287.0</ele><time>2026-04-03T14:17:34.697Z</time></trkpt><trkpt lat="42.9648952" lon="12.3382121"><ele>286.0</ele><time>2026-04-03T14:17:35.697Z</time></trkpt><trkpt lat="42.9647503" lon="12.3384852"><ele>285.0</ele><time>2026-04-03T14:17:36.697Z</time></trkpt><trkpt lat="42.964606" lon="12.338748"><ele>284.0</ele><time>2026-04-03T14:17:37.697Z</time></trkpt><trkpt lat="42.9644673" lon="12.3390028"><ele>283.0</ele><time>2026-04-03T14:17:38.697Z</time></trkpt><trkpt lat="42.9643313" lon="12.3392447"><ele>283.0</ele><time>2026-04-03T14:17:39.697Z</time></trkpt><trkpt lat="42.9641986" lon="12.339477"><ele>283.0</ele><time>2026-04-03T14:17:40.696Z</time></trkpt><trkpt lat="42.9640576" lon="12.339699"><ele>283.0</ele><time>2026-04-03T14:17:41.697Z</time></trkpt><trkpt lat="42.9638999" lon="12.3399218"><ele>280.0</ele><time>2026-04-03T14:17:42.697Z</time></trkpt><trkpt lat="42.9637355" lon="12.3401423"><ele>277.0</ele><time>2026-04-03T14:17:43.697Z</time></trkpt><trkpt lat="42.9635651" lon="12.3403649"><ele>278.0</ele><time>2026-04-03T14:17:44.697Z</time></trkpt><trkpt lat="42.9634008" lon="12.3405769"><ele>279.0</ele><time>2026-04-03T14:17:45.697Z</time></trkpt><trkpt lat="42.9632431" lon="12.3407817"><ele>280.0</ele><time>2026-04-03T14:17:46.696Z</time></trkpt><trkpt lat="42.9630966" lon="12.3409676"><ele>277.0</ele><time>2026-04-03T14:17:47.696Z</time></trkpt><trkpt lat="42.9629673" lon="12.3411361"><ele>274.0</ele><time>2026-04-03T14:17:48.697Z</time></trkpt><trkpt lat="42.9628473" lon="12.3412978"><ele>271.0</ele><time>2026-04-03T14:17:49.696Z</time></trkpt><trkpt lat="42.9627405" lon="12.3414539"><ele>271.0</ele><time>2026-04-03T14:17:50.697Z</time></trkpt><trkpt lat="42.962663" lon="12.3416058"><ele>271.0</ele><time>2026-04-03T14:17:51.697Z</time></trkpt><trkpt lat="42.9626148" lon="12.3417718"><ele>271.0</ele><time>2026-04-03T14:17:52.697Z</time></trkpt><trkpt lat="42.9626032" lon="12.3419435"><ele>271.0</ele><time>2026-04-03T14:17:53.697Z</time></trkpt><trkpt lat="42.9626119" lon="12.3421099"><ele>270.2</ele><time>2026-04-03T14:17:54.697Z</time></trkpt><trkpt lat="42.9626272" lon="12.3422619"><ele>269.40000000000003</ele><time>2026-04-03T14:17:55.696Z</time></trkpt><trkpt lat="42.962624" lon="12.3423968"><ele>268.6</ele><time>2026-04-03T14:17:56.696Z</time></trkpt><trkpt lat="42.9625857" lon="12.3425227"><ele>267.8</ele><time>2026-04-03T14:17:57.696Z</time></trkpt><trkpt lat="42.9625266" lon="12.3426004"><ele>267.0</ele><time>2026-04-03T14:17:58.696Z</time></trkpt><trkpt lat="42.9624371" lon="12.3426429"><ele>265.6</ele><time>2026-04-03T14:17:59.696Z</time></trkpt><trkpt lat="42.9623463" lon="12.342618"><ele>264.2</ele><time>2026-04-03T14:18:00.697Z</time></trkpt><trkpt lat="42.962284" lon="12.3425477"><ele>262.8</ele><time>2026-04-03T14:18:01.696Z</time></trkpt><trkpt lat="42.9622367" lon="12.3424216"><ele>261.4</ele><time>2026-04-03T14:18:02.697Z</time></trkpt><trkpt lat="42.9622122" lon="12.3422642"><ele>260.0</ele><time>2026-04-03T14:18:03.697Z</time></trkpt><trkpt lat="42.9621808" lon="12.3420827"><ele>260.0</ele><time>2026-04-03T14:18:04.697Z</time></trkpt><trkpt lat="42.9621338" lon="12.3418698"><ele>260.0</ele><time>2026-04-03T14:18:05.696Z</time></trkpt><trkpt lat="42.9620904" lon="12.3416329"><ele>260.0</ele><time>2026-04-03T14:18:06.696Z</time></trkpt><trkpt lat="42.9620479" lon="12.3414021"><ele>259.5</ele><time>2026-04-03T14:18:07.697Z</time></trkpt><trkpt lat="42.9620123" lon="12.3411994"><ele>259.0</ele><time>2026-04-03T14:18:08.697Z</time></trkpt><trkpt lat="42.961985" lon="12.3410148"><ele>258.5</ele><time>2026-04-03T14:18:09.697Z</time></trkpt><trkpt lat="42.9619599" lon="12.3408266"><ele>258.0</ele><time>2026-04-03T14:18:10.696Z</time></trkpt><trkpt lat="42.9619639" lon="12.3406257"><ele>256.75</ele><time>2026-04-03T14:18:11.696Z</time></trkpt><trkpt lat="42.9619904" lon="12.340434"><ele>255.5</ele><time>2026-04-03T14:18:12.697Z</time></trkpt><trkpt lat="42.9620335" lon="12.340248"><ele>254.25</ele><time>2026-04-03T14:18:13.697Z</time></trkpt><trkpt lat="42.9620951" lon="12.3400569"><ele>253.0</ele><time>2026-04-03T14:18:14.696Z</time></trkpt><trkpt lat="42.9621688" lon="12.3398726"><ele>251.0</ele><time>2026-04-03T14:18:15.697Z</time></trkpt><trkpt lat="42.9622313" lon="12.3397168"><ele>249.0</ele><time>2026-04-03T14:18:16.696Z</time></trkpt><trkpt lat="42.9622801" lon="12.339586"><ele>247.0</ele><time>2026-04-03T14:18:17.697Z</time></trkpt><trkpt lat="42.9622904" lon="12.3394719"><ele>245.0</ele><time>2026-04-03T14:18:18.697Z</time></trkpt><trkpt lat="42.9622572" lon="12.3393742"><ele>243.0</ele><time>2026-04-03T14:18:19.697Z</time></trkpt><trkpt lat="42.9622026" lon="12.3393074"><ele>243.0</ele><time>2026-04-03T14:18:20.696Z</time></trkpt><trkpt lat="42.9621246" lon="12.3392745"><ele>243.0</ele><time>2026-04-03T14:18:21.696Z</time></trkpt><trkpt lat="42.9620397" lon="12.3392811"><ele>243.0</ele><time>2026-04-03T14:18:22.697Z</time></trkpt><trkpt lat="42.9619503" lon="12.3393521"><ele>243.0</ele><time>2026-04-03T14:18:23.697Z</time></trkpt><trkpt lat="42.9618379" lon="12.33947"><ele>243.0</ele><time>2026-04-03T14:18:24.696Z</time></trkpt><trkpt lat="42.9617164" lon="12.3396332"><ele>242.0</ele><time>2026-04-03T14:18:25.696Z</time></trkpt><trkpt lat="42.9615832" lon="12.3398047"><ele>241.0</ele><time>2026-04-03T14:18:26.697Z</time></trkpt><trkpt lat="42.9614323" lon="12.3400012"><ele>240.0</ele><time>2026-04-03T14:18:27.697Z</time></trkpt><trkpt lat="42.9612734" lon="12.3402057"><ele>240.0</ele><time>2026-04-03T14:18:28.697Z</time></trkpt><trkpt lat="42.9611265" lon="12.3404048"><ele>240.0</ele><time>2026-04-03T14:18:29.696Z</time></trkpt><trkpt lat="42.9609889" lon="12.3406124"><ele>240.0</ele><time>2026-04-03T14:18:30.697Z</time></trkpt><trkpt lat="42.9608702" lon="12.3408318"><ele>237.0</ele><time>2026-04-03T14:18:31.697Z</time></trkpt><trkpt lat="42.9607715" lon="12.341051"><ele>234.0</ele><time>2026-04-03T14:18:32.697Z</time></trkpt><trkpt lat="42.9606932" lon="12.3412717"><ele>231.0</ele><time>2026-04-03T14:18:33.697Z</time></trkpt><trkpt lat="42.9606373" lon="12.3414805"><ele>231.0</ele><time>2026-04-03T14:18:34.697Z</time></trkpt><trkpt lat="42.9606075" lon="12.3417255"><ele>231.0</ele><time>2026-04-03T14:18:35.697Z</time></trkpt><trkpt lat="42.9605941" lon="12.3419905"><ele>231.0</ele><time>2026-04-03T14:18:36.696Z</time></trkpt><trkpt lat="42.9605872" lon="12.3422693"><ele>230.33333333333331</ele><time>2026-04-03T14:18:37.697Z</time></trkpt><trkpt lat="42.9605807" lon="12.3425652"><ele>229.66666666666666</ele><time>2026-04-03T14:18:38.697Z</time></trkpt><trkpt lat="42.9605747" lon="12.3428502"><ele>229.0</ele><time>2026-04-03T14:18:39.697Z</time></trkpt><trkpt lat="42.9605711" lon="12.3431102"><ele>228.0</ele><time>2026-04-03T14:18:40.697Z</time></trkpt><trkpt lat="42.9605625" lon="12.3433352"><ele>227.0</ele><time>2026-04-03T14:18:41.696Z</time></trkpt><trkpt lat="42.9605522" lon="12.3435409"><ele>226.0</ele><time>2026-04-03T14:18:42.697Z</time></trkpt><trkpt lat="42.9605449" lon="12.3437234"><ele>224.75</ele><time>2026-04-03T14:18:43.696Z</time></trkpt><trkpt lat="42.9605404" lon="12.3439032"><ele>223.5</ele><time>2026-04-03T14:18:44.697Z</time></trkpt><trkpt lat="42.9605346" lon="12.3440705"><ele>222.25</ele><time>2026-04-03T14:18:45.697Z</time></trkpt><trkpt lat="42.9605332" lon="12.3442226"><ele>221.0</ele><time>2026-04-03T14:18:46.696Z</time></trkpt><trkpt lat="42.9605226" lon="12.34435"><ele>221.00000000000003</ele><time>2026-04-03T14:18:47.697Z</time></trkpt><trkpt lat="42.960504" lon="12.3444447"><ele>221.0</ele><time>2026-04-03T14:18:48.697Z</time></trkpt><trkpt lat="42.9604804" lon="12.3445412"><ele>221.0</ele><time>2026-04-03T14:18:49.696Z</time></trkpt><trkpt lat="42.9604615" lon="12.3446599"><ele>221.0</ele><time>2026-04-03T14:18:50.696Z</time></trkpt><trkpt lat="42.9604545" lon="12.3447951"><ele>221.00000000000003</ele><time>2026-04-03T14:18:51.697Z</time></trkpt><trkpt lat="42.9604622" lon="12.3449391"><ele>221.0</ele><time>2026-04-03T14:18:52.697Z</time></trkpt><trkpt lat="42.9604993" lon="12.3450835"><ele>220.0</ele><time>2026-04-03T14:18:53.696Z</time></trkpt><trkpt lat="42.9605615" lon="12.3452235"><ele>219.00000000000003</ele><time>2026-04-03T14:18:54.697Z</time></trkpt><trkpt lat="42.9606258" lon="12.3453453"><ele>218.00000000000003</ele><time>2026-04-03T14:18:55.696Z</time></trkpt><trkpt lat="42.9606917" lon="12.3454417"><ele>217.0</ele><time>2026-04-03T14:18:56.696Z</time></trkpt><trkpt lat="42.960754" lon="12.3455439"><ele>216.0</ele><time>2026-04-03T14:18:57.697Z</time></trkpt><trkpt lat="42.9607998" lon="12.3456702"><ele>215.75</ele><time>2026-04-03T14:18:58.697Z</time></trkpt><trkpt lat="42.9608397" lon="12.3458213"><ele>215.5</ele><time>2026-04-03T14:18:59.696Z</time></trkpt><trkpt lat="42.9608747" lon="12.345998"><ele>215.25</ele><time>2026-04-03T14:19:00.697Z</time></trkpt><trkpt lat="42.9609194" lon="12.3462105"><ele>215.0</ele><time>2026-04-03T14:19:01.697Z</time></trkpt><trkpt lat="42.9609782" lon="12.3464593"><ele>216.0</ele><time>2026-04-03T14:19:02.696Z</time></trkpt><trkpt lat="42.9610474" lon="12.3467397"><ele>217.0</ele><time>2026-04-03T14:19:03.696Z</time></trkpt><trkpt lat="42.9611093" lon="12.3470235"><ele>218.0</ele><time>2026-04-03T14:19:04.697Z</time></trkpt><trkpt lat="42.9611666" lon="12.3472859"><ele>218.0</ele><time>2026-04-03T14:19:05.696Z</time></trkpt><trkpt lat="42.9612127" lon="12.3475271"><ele>218.0</ele><time>2026-04-03T14:19:06.697Z</time></trkpt><trkpt lat="42.9612567" lon="12.3477671"><ele>218.0</ele><time>2026-04-03T14:19:07.696Z</time></trkpt><trkpt lat="42.9612967" lon="12.3480172"><ele>216.0</ele><time>2026-04-03T14:19:08.697Z</time></trkpt><trkpt lat="42.9613259" lon="12.3482884"><ele>214.0</ele><time>2026-04-03T14:19:09.696Z</time></trkpt><trkpt lat="42.9613555" lon="12.3485741"><ele>212.0</ele><time>2026-04-03T14:19:10.697Z</time></trkpt><trkpt lat="42.96138" lon="12.3488724"><ele>212.0</ele><time>2026-04-03T14:19:11.697Z</time></trkpt><trkpt lat="42.961404" lon="12.3491753"><ele>212.0</ele><time>2026-04-03T14:19:12.696Z</time></trkpt><trkpt lat="42.9614344" lon="12.3494864"><ele>211.66666666666669</ele><time>2026-04-03T14:19:13.697Z</time></trkpt><trkpt lat="42.9614648" lon="12.3497891"><ele>211.33333333333331</ele><time>2026-04-03T14:19:14.696Z</time></trkpt><trkpt lat="42.9614957" lon="12.3500894"><ele>211.0</ele><time>2026-04-03T14:19:15.697Z</time></trkpt><trkpt lat="42.9615275" lon="12.3503896"><ele>210.0</ele><time>2026-04-03T14:19:16.697Z</time></trkpt><trkpt lat="42.9615611" lon="12.35069"><ele>209.0</ele><time>2026-04-03T14:19:17.696Z</time></trkpt><trkpt lat="42.96159" lon="12.3509884"><ele>208.0</ele><time>2026-04-03T14:19:18.696Z</time></trkpt><trkpt lat="42.9616145" lon="12.3512657"><ele>207.0</ele><time>2026-04-03T14:19:19.697Z</time></trkpt><trkpt lat="42.9616346" lon="12.351535"><ele>206.0</ele><time>2026-04-03T14:19:20.696Z</time></trkpt><trkpt lat="42.9616572" lon="12.3517909"><ele>205.0</ele><time>2026-04-03T14:19:21.697Z</time></trkpt><trkpt lat="42.9616738" lon="12.3520394"><ele>204.0</ele><time>2026-04-03T14:19:22.697Z</time></trkpt><trkpt lat="42.9616839" lon="12.35229"><ele>203.0</ele><time>2026-04-03T14:19:23.696Z</time></trkpt><trkpt lat="42.9616857" lon="12.3525421"><ele>202.0</ele><time>2026-04-03T14:19:24.696Z</time></trkpt><trkpt lat="42.9616798" lon="12.3528036"><ele>202.0</ele><time>2026-04-03T14:19:25.697Z</time></trkpt><trkpt lat="42.9616601" lon="12.3530621"><ele>202.0</ele><time>2026-04-03T14:19:26.697Z</time></trkpt><trkpt lat="42.9616318" lon="12.353318"><ele>202.0</ele><time>2026-04-03T14:19:27.697Z</time></trkpt><trkpt lat="42.9615846" lon="12.3535766"><ele>202.0</ele><time>2026-04-03T14:19:28.696Z</time></trkpt><trkpt lat="42.9615237" lon="12.3538293"><ele>202.0</ele><time>2026-04-03T14:19:29.697Z</time></trkpt><trkpt lat="42.9614678" lon="12.3540914"><ele>202.0</ele><time>2026-04-03T14:19:30.697Z</time></trkpt><trkpt lat="42.9614053" lon="12.3543635"><ele>201.66666666666666</ele><time>2026-04-03T14:19:31.696Z</time></trkpt><trkpt lat="42.9613399" lon="12.3546403"><ele>201.33333333333331</ele><time>2026-04-03T14:19:32.697Z</time></trkpt><trkpt lat="42.961274" lon="12.3549202"><ele>201.0</ele><time>2026-04-03T14:19:33.697Z</time></trkpt><trkpt lat="42.9612081" lon="12.3551877"><ele>199.66666666666669</ele><time>2026-04-03T14:19:34.696Z</time></trkpt><trkpt lat="42.9611448" lon="12.3554496"><ele>198.33333333333334</ele><time>2026-04-03T14:19:35.697Z</time></trkpt><trkpt lat="42.9610845" lon="12.3556988"><ele>197.0</ele><time>2026-04-03T14:19:36.696Z</time></trkpt><trkpt lat="42.961027" lon="12.3559441"><ele>195.33333333333334</ele><time>2026-04-03T14:19:37.697Z</time></trkpt><trkpt lat="42.9609723" lon="12.3561811"><ele>193.66666666666669</ele><time>2026-04-03T14:19:38.697Z</time></trkpt><trkpt lat="42.960921" lon="12.3563999"><ele>192.0</ele><time>2026-04-03T14:19:39.697Z</time></trkpt><trkpt lat="42.9608696" lon="12.3566171"><ele>193.33333333333331</ele><time>2026-04-03T14:19:40.696Z</time></trkpt><trkpt lat="42.9608205" lon="12.3568393"><ele>194.66666666666666</ele><time>2026-04-03T14:19:41.697Z</time></trkpt><trkpt lat="42.9607726" lon="12.3570621"><ele>196.0</ele><time>2026-04-03T14:19:42.696Z</time></trkpt><trkpt lat="42.9607327" lon="12.3572703"><ele>196.0</ele><time>2026-04-03T14:19:43.696Z</time></trkpt><trkpt lat="42.960695" lon="12.3574837"><ele>196.0</ele><time>2026-04-03T14:19:44.697Z</time></trkpt><trkpt lat="42.9606623" lon="12.3577056"><ele>196.0</ele><time>2026-04-03T14:19:45.696Z</time></trkpt><trkpt lat="42.9606283" lon="12.3579438"><ele>196.33333333333331</ele><time>2026-04-03T14:19:46.697Z</time></trkpt><trkpt lat="42.9605843" lon="12.3581954"><ele>196.66666666666669</ele><time>2026-04-03T14:19:47.697Z</time></trkpt><trkpt lat="42.9605364" lon="12.3584572"><ele>197.0</ele><time>2026-04-03T14:19:48.697Z</time></trkpt><trkpt lat="42.9604838" lon="12.3587036"><ele>195.66666666666669</ele><time>2026-04-03T14:19:49.697Z</time></trkpt><trkpt lat="42.9604302" lon="12.3589303"><ele>194.33333333333331</ele><time>2026-04-03T14:19:50.697Z</time></trkpt><trkpt lat="42.9603589" lon="12.3591451"><ele>193.0</ele><time>2026-04-03T14:19:51.697Z</time></trkpt><trkpt lat="42.9602699" lon="12.3593609"><ele>193.0</ele><time>2026-04-03T14:19:52.696Z</time></trkpt><trkpt lat="42.9601683" lon="12.3595756"><ele>193.0</ele><time>2026-04-03T14:19:53.696Z</time></trkpt><trkpt lat="42.9600502" lon="12.3597995"><ele>193.0</ele><time>2026-04-03T14:19:54.697Z</time></trkpt><trkpt lat="42.9599262" lon="12.3600379"><ele>193.33333333333331</ele><time>2026-04-03T14:19:55.697Z</time></trkpt><trkpt lat="42.9597946" lon="12.3602781"><ele>193.66666666666669</ele><time>2026-04-03T14:19:56.697Z</time></trkpt><trkpt lat="42.9596734" lon="12.360512"><ele>194.0</ele><time>2026-04-03T14:19:57.696Z</time></trkpt><trkpt lat="42.9595462" lon="12.3607433"><ele>193.33333333333334</ele><time>2026-04-03T14:19:58.697Z</time></trkpt><trkpt lat="42.9594169" lon="12.3609838"><ele>192.66666666666669</ele><time>2026-04-03T14:19:59.696Z</time></trkpt><trkpt lat="42.9592893" lon="12.3612348"><ele>192.0</ele><time>2026-04-03T14:20:00.696Z</time></trkpt><trkpt lat="42.9591519" lon="12.3614944"><ele>190.5</ele><time>2026-04-03T14:20:01.697Z</time></trkpt><trkpt lat="42.9590039" lon="12.3617593"><ele>189.0</ele><time>2026-04-03T14:20:02.697Z</time></trkpt><trkpt lat="42.9588527" lon="12.3620187"><ele>189.0</ele><time>2026-04-03T14:20:03.696Z</time></trkpt><trkpt lat="42.9587027" lon="12.3622796"><ele>189.0</ele><time>2026-04-03T14:20:04.696Z</time></trkpt><trkpt lat="42.9585568" lon="12.3625442"><ele>189.0</ele><time>2026-04-03T14:20:05.697Z</time></trkpt><trkpt lat="42.9584138" lon="12.3628034"><ele>189.0</ele><time>2026-04-03T14:20:06.697Z</time></trkpt><trkpt lat="42.9582776" lon="12.3630562"><ele>188.0</ele><time>2026-04-03T14:20:07.697Z</time></trkpt><trkpt lat="42.958141" lon="12.3633055"><ele>187.0</ele><time>2026-04-03T14:20:08.697Z</time></trkpt><trkpt lat="42.9580092" lon="12.3635527"><ele>187.0</ele><time>2026-04-03T14:20:09.697Z</time></trkpt><trkpt lat="42.9578778" lon="12.3637934"><ele>187.0</ele><time>2026-04-03T14:20:10.697Z</time></trkpt><trkpt lat="42.9577489" lon="12.3640351"><ele>187.0</ele><time>2026-04-03T14:20:11.697Z</time></trkpt><trkpt lat="42.957612" lon="12.3642832"><ele>186.33333333333334</ele><time>2026-04-03T14:20:12.696Z</time></trkpt><trkpt lat="42.957474" lon="12.364529"><ele>185.66666666666666</ele><time>2026-04-03T14:20:13.697Z</time></trkpt><trkpt lat="42.9573429" lon="12.364762"><ele>185.0</ele><time>2026-04-03T14:20:14.696Z</time></trkpt><trkpt lat="42.9572234" lon="12.3649725"><ele>184.0</ele><time>2026-04-03T14:20:15.697Z</time></trkpt><trkpt lat="42.9571107" lon="12.3651774"><ele>183.0</ele><time>2026-04-03T14:20:16.696Z</time></trkpt><trkpt lat="42.9570024" lon="12.365385"><ele>182.0</ele><time>2026-04-03T14:20:17.697Z</time></trkpt><trkpt lat="42.9569049" lon="12.3655932"><ele>181.33333333333331</ele><time>2026-04-03T14:20:18.697Z</time></trkpt><trkpt lat="42.9568196" lon="12.3658179"><ele>180.66666666666666</ele><time>2026-04-03T14:20:19.696Z</time></trkpt><trkpt lat="42.9567586" lon="12.3660698"><ele>180.0</ele><time>2026-04-03T14:20:20.697Z</time></trkpt><trkpt lat="42.9567107" lon="12.3663356"><ele>180.0</ele><time>2026-04-03T14:20:21.696Z</time></trkpt><trkpt lat="42.9566665" lon="12.3666219"><ele>180.0</ele><time>2026-04-03T14:20:22.697Z</time></trkpt><trkpt lat="42.9566238" lon="12.3669224"><ele>180.0</ele><time>2026-04-03T14:20:23.696Z</time></trkpt><trkpt lat="42.9565793" lon="12.3672356"><ele>179.5</ele><time>2026-04-03T14:20:24.697Z</time></trkpt><trkpt lat="42.9565306" lon="12.3675637"><ele>179.0</ele><time>2026-04-03T14:20:25.696Z</time></trkpt><trkpt lat="42.9564796" lon="12.3678944"><ele>178.0</ele><time>2026-04-03T14:20:26.697Z</time></trkpt><trkpt lat="42.9564219" lon="12.368233"><ele>177.0</ele><time>2026-04-03T14:20:27.696Z</time></trkpt><trkpt lat="42.9563684" lon="12.3685697"><ele>176.5</ele><time>2026-04-03T14:20:28.697Z</time></trkpt><trkpt lat="42.9563185" lon="12.368889"><ele>176.0</ele><time>2026-04-03T14:20:29.696Z</time></trkpt><trkpt lat="42.9562772" lon="12.3691898"><ele>176.0</ele><time>2026-04-03T14:20:30.697Z</time></trkpt><trkpt lat="42.9562544" lon="12.369482"><ele>176.0</ele><time>2026-04-03T14:20:31.697Z</time></trkpt><trkpt lat="42.9562425" lon="12.3697768"><ele>176.0</ele><time>2026-04-03T14:20:32.697Z</time></trkpt><trkpt lat="42.956245" lon="12.370068"><ele>175.66666666666666</ele><time>2026-04-03T14:20:33.697Z</time></trkpt><trkpt lat="42.9562498" lon="12.370331"><ele>175.33333333333334</ele><time>2026-04-03T14:20:34.697Z</time></trkpt><trkpt lat="42.956251" lon="12.3705857"><ele>175.0</ele><time>2026-04-03T14:20:35.697Z</time></trkpt><trkpt lat="42.9562458" lon="12.3708223"><ele>173.66666666666669</ele><time>2026-04-03T14:20:36.697Z</time></trkpt><trkpt lat="42.9562359" lon="12.3710465"><ele>172.33333333333334</ele><time>2026-04-03T14:20:37.696Z</time></trkpt><trkpt lat="42.9562231" lon="12.3712562"><ele>171.0</ele><time>2026-04-03T14:20:38.697Z</time></trkpt><trkpt lat="42.9562062" lon="12.3714442"><ele>170.4</ele><time>2026-04-03T14:20:39.697Z</time></trkpt><trkpt lat="42.9561867" lon="12.3715915"><ele>169.8</ele><time>2026-04-03T14:20:40.697Z</time></trkpt><trkpt lat="42.9561726" lon="12.3716898"><ele>169.20000000000002</ele><time>2026-04-03T14:20:41.697Z</time></trkpt><trkpt lat="42.956195" lon="12.371811"><ele>168.60000000000002</ele><time>2026-04-03T14:20:44.696Z</time></trkpt><trkpt lat="42.9563294" lon="12.3718761"><ele>168.0</ele><time>2026-04-03T14:20:46.696Z</time></trkpt><trkpt lat="42.9564543" lon="12.3719107"><ele>168.0</ele><time>2026-04-03T14:20:47.696Z</time></trkpt><trkpt lat="42.9566037" lon="12.3719499"><ele>168.0</ele><time>2026-04-03T14:20:48.696Z</time></trkpt><trkpt lat="42.9568039" lon="12.3719986"><ele>168.0</ele><time>2026-04-03T14:20:49.696Z</time></trkpt><trkpt lat="42.9570375" lon="12.3720432"><ele>168.0</ele><time>2026-04-03T14:20:50.697Z</time></trkpt><trkpt lat="42.9572777" lon="12.3720775"><ele>168.0</ele><time>2026-04-03T14:20:51.697Z</time></trkpt><trkpt lat="42.9575097" lon="12.3721159"><ele>168.0</ele><time>2026-04-03T14:20:52.697Z</time></trkpt><trkpt lat="42.9577379" lon="12.3721601"><ele>168.0</ele><time>2026-04-03T14:20:53.697Z</time></trkpt><trkpt lat="42.9579528" lon="12.3721996"><ele>168.0</ele><time>2026-04-03T14:20:54.697Z</time></trkpt><trkpt lat="42.9581684" lon="12.3722325"><ele>168.0</ele><time>2026-04-03T14:20:55.696Z</time></trkpt><trkpt lat="42.9584004" lon="12.372259"><ele>168.0</ele><time>2026-04-03T14:20:56.697Z</time></trkpt><trkpt lat="42.958651" lon="12.3722915"><ele>168.0</ele><time>2026-04-03T14:20:57.697Z</time></trkpt><trkpt lat="42.9589204" lon="12.3723323"><ele>168.0</ele><time>2026-04-03T14:20:58.696Z</time></trkpt><trkpt lat="42.9591938" lon="12.3723767"><ele>168.5</ele><time>2026-04-03T14:20:59.697Z</time></trkpt><trkpt lat="42.9594728" lon="12.3724215"><ele>169.0</ele><time>2026-04-03T14:21:00.697Z</time></trkpt><trkpt lat="42.959745" lon="12.3724633"><ele>169.0</ele><time>2026-04-03T14:21:01.697Z</time></trkpt><trkpt lat="42.9600047" lon="12.3725104"><ele>169.0</ele><time>2026-04-03T14:21:02.697Z</time></trkpt><trkpt lat="42.960245" lon="12.372551"><ele>169.0</ele><time>2026-04-03T14:21:03.697Z</time></trkpt><trkpt lat="42.9604651" lon="12.3725849"><ele>169.0</ele><time>2026-04-03T14:21:04.697Z</time></trkpt><trkpt lat="42.9606689" lon="12.372614"><ele>169.0</ele><time>2026-04-03T14:21:05.697Z</time></trkpt><trkpt lat="42.9608612" lon="12.3726465"><ele>169.66666666666669</ele><time>2026-04-03T14:21:06.697Z</time></trkpt><trkpt lat="42.9610408" lon="12.3726729"><ele>170.33333333333334</ele><time>2026-04-03T14:21:07.696Z</time></trkpt><trkpt lat="42.961214" lon="12.3727026"><ele>171.0</ele><time>2026-04-03T14:21:08.697Z</time></trkpt><trkpt lat="42.9613788" lon="12.3727263"><ele>171.0</ele><time>2026-04-03T14:21:09.697Z</time></trkpt><trkpt lat="42.9615302" lon="12.3727482"><ele>171.0</ele><time>2026-04-03T14:21:10.696Z</time></trkpt><trkpt lat="42.961663" lon="12.3727782"><ele>171.0</ele><time>2026-04-03T14:21:11.697Z</time></trkpt><trkpt lat="42.9617859" lon="12.3727967"><ele>171.0</ele><time>2026-04-03T14:21:12.697Z</time></trkpt><trkpt lat="42.9618951" lon="12.372817"><ele>171.0</ele><time>2026-04-03T14:21:13.696Z</time></trkpt><trkpt lat="42.961976" lon="12.3728508"><ele>171.0</ele><time>2026-04-03T14:21:14.697Z</time></trkpt><trkpt lat="42.9620311" lon="12.3729515"><ele>171.0</ele><time>2026-04-03T14:21:16.696Z</time></trkpt><trkpt lat="42.9619853" lon="12.3730562"><ele>171.0</ele><time>2026-04-03T14:21:18.697Z</time></trkpt><trkpt lat="42.9618852" lon="12.3731826"><ele>171.0</ele><time>2026-04-03T14:21:20.697Z</time></trkpt><trkpt lat="42.9618166" lon="12.3732463"><ele>171.0</ele><time>2026-04-03T14:21:21.697Z</time></trkpt><trkpt lat="42.9617374" lon="12.3732741"><ele>171.0</ele><time>2026-04-03T14:21:22.697Z</time></trkpt><trkpt lat="42.9616425" lon="12.3732666"><ele>171.0</ele><time>2026-04-03T14:21:23.696Z</time></trkpt><trkpt lat="42.9615438" lon="12.3732139"><ele>171.0</ele><time>2026-04-03T14:21:24.697Z</time></trkpt><trkpt lat="42.9614336" lon="12.37312"><ele>171.0</ele><time>2026-04-03T14:21:25.697Z</time></trkpt><trkpt lat="42.9613003" lon="12.3730333"><ele>171.0</ele><time>2026-04-03T14:21:26.696Z</time></trkpt><trkpt lat="42.9611498" lon="12.3729735"><ele>171.0</ele><time>2026-04-03T14:21:27.697Z</time></trkpt><trkpt lat="42.9609783" lon="12.3729406"><ele>171.0</ele><time>2026-04-03T14:21:28.697Z</time></trkpt><trkpt lat="42.9607892" lon="12.3729116"><ele>170.33333333333334</ele><time>2026-04-03T14:21:29.696Z</time></trkpt><trkpt lat="42.9605891" lon="12.3728833"><ele>169.66666666666669</ele><time>2026-04-03T14:21:30.697Z</time></trkpt><trkpt lat="42.9603782" lon="12.3728548"><ele>169.0</ele><time>2026-04-03T14:21:31.696Z</time></trkpt><trkpt lat="42.9601793" lon="12.3728319"><ele>169.0</ele><time>2026-04-03T14:21:32.697Z</time></trkpt><trkpt lat="42.9600069" lon="12.3728102"><ele>169.0</ele><time>2026-04-03T14:21:33.697Z</time></trkpt><trkpt lat="42.9598671" lon="12.3727939"><ele>169.0</ele><time>2026-04-03T14:21:34.697Z</time></trkpt><trkpt lat="42.9597581" lon="12.3727966"><ele>169.0</ele><time>2026-04-03T14:21:35.696Z</time></trkpt><trkpt lat="42.9596871" lon="12.3728258"><ele>169.0</ele><time>2026-04-03T14:21:36.697Z</time></trkpt><trkpt lat="42.9596349" lon="12.3728923"><ele>169.0</ele><time>2026-04-03T14:21:37.696Z</time></trkpt><trkpt lat="42.959589" lon="12.3730076"><ele>169.0</ele><time>2026-04-03T14:21:38.697Z</time></trkpt><trkpt lat="42.9595522" lon="12.373178"><ele>169.0</ele><time>2026-04-03T14:21:39.696Z</time></trkpt><trkpt lat="42.9595035" lon="12.3733728"><ele>169.0</ele><time>2026-04-03T14:21:40.697Z</time></trkpt><trkpt lat="42.9594444" lon="12.3735944"><ele>168.66666666666669</ele><time>2026-04-03T14:21:41.697Z</time></trkpt><trkpt lat="42.9593903" lon="12.3738068"><ele>168.33333333333334</ele><time>2026-04-03T14:21:42.697Z</time></trkpt><trkpt lat="42.9593416" lon="12.3740022"><ele>168.0</ele><time>2026-04-03T14:21:43.697Z</time></trkpt><trkpt lat="42.9592951" lon="12.3741869"><ele>167.0</ele><time>2026-04-03T14:21:44.697Z</time></trkpt><trkpt lat="42.9592379" lon="12.3743882"><ele>166.0</ele><time>2026-04-03T14:21:45.697Z</time></trkpt><trkpt lat="42.9591762" lon="12.3746141"><ele>165.0</ele><time>2026-04-03T14:21:46.697Z</time></trkpt><trkpt lat="42.959115" lon="12.3748457"><ele>164.66666666666666</ele><time>2026-04-03T14:21:47.696Z</time></trkpt><trkpt lat="42.9590415" lon="12.3750808"><ele>164.33333333333331</ele><time>2026-04-03T14:21:48.697Z</time></trkpt><trkpt lat="42.9589569" lon="12.3753316"><ele>164.0</ele><time>2026-04-03T14:21:49.696Z</time></trkpt><trkpt lat="42.9588524" lon="12.3755899"><ele>164.0</ele><time>2026-04-03T14:21:50.697Z</time></trkpt><trkpt lat="42.9587351" lon="12.3758503"><ele>164.0</ele><time>2026-04-03T14:21:51.697Z</time></trkpt><trkpt lat="42.9586121" lon="12.3761176"><ele>164.0</ele><time>2026-04-03T14:21:52.696Z</time></trkpt><trkpt lat="42.9584851" lon="12.3763979"><ele>164.0</ele><time>2026-04-03T14:21:53.697Z</time></trkpt><trkpt lat="42.9583591" lon="12.376685"><ele>164.0</ele><time>2026-04-03T14:21:54.697Z</time></trkpt><trkpt lat="42.9582371" lon="12.3769579"><ele>164.0</ele><time>2026-04-03T14:21:55.697Z</time></trkpt><trkpt lat="42.9581333" lon="12.3772013"><ele>164.0</ele><time>2026-04-03T14:21:56.697Z</time></trkpt><trkpt lat="42.9580383" lon="12.3774184"><ele>163.75</ele><time>2026-04-03T14:21:57.697Z</time></trkpt><trkpt lat="42.9579555" lon="12.3776023"><ele>163.5</ele><time>2026-04-03T14:21:58.697Z</time></trkpt><trkpt lat="42.9578824" lon="12.3777622"><ele>163.25</ele><time>2026-04-03T14:21:59.696Z</time></trkpt><trkpt lat="42.9578338" lon="12.3778936"><ele>163.0</ele><time>2026-04-03T14:22:00.697Z</time></trkpt><trkpt lat="42.9578141" lon="12.3780159"><ele>163.0</ele><time>2026-04-03T14:22:01.697Z</time></trkpt><trkpt lat="42.9578265" lon="12.3781362"><ele>163.0</ele><time>2026-04-03T14:22:02.697Z</time></trkpt><trkpt lat="42.9578756" lon="12.3782478"><ele>163.0</ele><time>2026-04-03T14:22:03.696Z</time></trkpt><trkpt lat="42.9579396" lon="12.3783617"><ele>163.0</ele><time>2026-04-03T14:22:04.697Z</time></trkpt><trkpt lat="42.9579861" lon="12.3784982"><ele>163.0</ele><time>2026-04-03T14:22:05.697Z</time></trkpt><trkpt lat="42.9579878" lon="12.3786611"><ele>163.0</ele><time>2026-04-03T14:22:06.696Z</time></trkpt><trkpt lat="42.9579496" lon="12.3788441"><ele>163.0</ele><time>2026-04-03T14:22:07.697Z</time></trkpt><trkpt lat="42.9578956" lon="12.3790403"><ele>163.0</ele><time>2026-04-03T14:22:08.697Z</time></trkpt><trkpt lat="42.9578194" lon="12.3792747"><ele>162.33333333333334</ele><time>2026-04-03T14:22:09.697Z</time></trkpt><trkpt lat="42.9577274" lon="12.3795361"><ele>161.66666666666666</ele><time>2026-04-03T14:22:10.697Z</time></trkpt><trkpt lat="42.9576348" lon="12.379822"><ele>161.0</ele><time>2026-04-03T14:22:11.697Z</time></trkpt><trkpt lat="42.9575376" lon="12.3801247"><ele>161.0</ele><time>2026-04-03T14:22:12.697Z</time></trkpt><trkpt lat="42.9574443" lon="12.3804431"><ele>161.0</ele><time>2026-04-03T14:22:13.697Z</time></trkpt><trkpt lat="42.9573388" lon="12.3807756"><ele>161.0</ele><time>2026-04-03T14:22:14.696Z</time></trkpt><trkpt lat="42.9572357" lon="12.3811217"><ele>161.0</ele><time>2026-04-03T14:22:15.696Z</time></trkpt><trkpt lat="42.9571256" lon="12.3814874"><ele>160.5</ele><time>2026-04-03T14:22:16.696Z</time></trkpt><trkpt lat="42.9570081" lon="12.381874"><ele>160.0</ele><time>2026-04-03T14:22:17.697Z</time></trkpt><trkpt lat="42.956884" lon="12.3822649"><ele>160.0</ele><time>2026-04-03T14:22:18.696Z</time></trkpt><trkpt lat="42.9567606" lon="12.3826535"><ele>160.0</ele><time>2026-04-03T14:22:19.697Z</time></trkpt><trkpt lat="42.9566438" lon="12.3830301"><ele>160.0</ele><time>2026-04-03T14:22:20.697Z</time></trkpt><trkpt lat="42.9565307" lon="12.3833988"><ele>160.0</ele><time>2026-04-03T14:22:21.696Z</time></trkpt><trkpt lat="42.9564131" lon="12.3837683"><ele>159.0</ele><time>2026-04-03T14:22:22.696Z</time></trkpt><trkpt lat="42.9562997" lon="12.3841316"><ele>158.0</ele><time>2026-04-03T14:22:23.697Z</time></trkpt><trkpt lat="42.956194" lon="12.3844812"><ele>159.0</ele><time>2026-04-03T14:22:24.697Z</time></trkpt><trkpt lat="42.9560876" lon="12.3848114"><ele>160.0</ele><time>2026-04-03T14:22:25.696Z</time></trkpt><trkpt lat="42.9559853" lon="12.3851378"><ele>160.0</ele><time>2026-04-03T14:22:26.697Z</time></trkpt><trkpt lat="42.9558949" lon="12.3854666"><ele>160.0</ele><time>2026-04-03T14:22:27.696Z</time></trkpt><trkpt lat="42.9558202" lon="12.3857976"><ele>159.5</ele><time>2026-04-03T14:22:28.697Z</time></trkpt><trkpt lat="42.9557563" lon="12.3861259"><ele>159.0</ele><time>2026-04-03T14:22:29.697Z</time></trkpt><trkpt lat="42.955692" lon="12.3864609"><ele>159.0</ele><time>2026-04-03T14:22:30.697Z</time></trkpt><trkpt lat="42.9556254" lon="12.3868036"><ele>159.0</ele><time>2026-04-03T14:22:31.696Z</time></trkpt><trkpt lat="42.955559" lon="12.3871488"><ele>159.5</ele><time>2026-04-03T14:22:32.697Z</time></trkpt><trkpt lat="42.9554911" lon="12.387491"><ele>160.0</ele><time>2026-04-03T14:22:33.697Z</time></trkpt><trkpt lat="42.9554254" lon="12.387825"><ele>159.0</ele><time>2026-04-03T14:22:34.697Z</time></trkpt><trkpt lat="42.9553675" lon="12.3881396"><ele>158.0</ele><time>2026-04-03T14:22:35.697Z</time></trkpt><trkpt lat="42.9553153" lon="12.3884406"><ele>158.0</ele><time>2026-04-03T14:22:36.697Z</time></trkpt><trkpt lat="42.955267" lon="12.3887472"><ele>158.0</ele><time>2026-04-03T14:22:37.696Z</time></trkpt><trkpt lat="42.955216" lon="12.3890561"><ele>158.5</ele><time>2026-04-03T14:22:38.697Z</time></trkpt><trkpt lat="42.9551593" lon="12.3893665"><ele>159.0</ele><time>2026-04-03T14:22:39.697Z</time></trkpt><trkpt lat="42.9551036" lon="12.389692"><ele>159.0</ele><time>2026-04-03T14:22:40.696Z</time></trkpt><trkpt lat="42.9550503" lon="12.3900256"><ele>159.0</ele><time>2026-04-03T14:22:41.697Z</time></trkpt><trkpt lat="42.9549973" lon="12.3903659"><ele>159.5</ele><time>2026-04-03T14:22:42.697Z</time></trkpt><trkpt lat="42.9549451" lon="12.3907101"><ele>160.0</ele><time>2026-04-03T14:22:43.697Z</time></trkpt><trkpt lat="42.9548923" lon="12.3910595"><ele>160.0</ele><time>2026-04-03T14:22:44.696Z</time></trkpt><trkpt lat="42.9548384" lon="12.3914138"><ele>160.0</ele><time>2026-04-03T14:22:45.697Z</time></trkpt><trkpt lat="42.9547828" lon="12.3917713"><ele>160.0</ele><time>2026-04-03T14:22:46.697Z</time></trkpt><trkpt lat="42.9547284" lon="12.3921311"><ele>160.0</ele><time>2026-04-03T14:22:47.696Z</time></trkpt><trkpt lat="42.9546752" lon="12.392492"><ele>160.0</ele><time>2026-04-03T14:22:48.697Z</time></trkpt><trkpt lat="42.9546172" lon="12.3928585"><ele>160.0</ele><time>2026-04-03T14:22:49.697Z</time></trkpt><trkpt lat="42.9545573" lon="12.3932249"><ele>160.0</ele><time>2026-04-03T14:22:50.697Z</time></trkpt><trkpt lat="42.9544969" lon="12.3935914"><ele>160.0</ele><time>2026-04-03T14:22:51.697Z</time></trkpt><trkpt lat="42.9544414" lon="12.393932"><ele>160.33333333333334</ele><time>2026-04-03T14:22:52.697Z</time></trkpt><trkpt lat="42.9543966" lon="12.3942335"><ele>160.66666666666666</ele><time>2026-04-03T14:22:53.697Z</time></trkpt><trkpt lat="42.9543591" lon="12.3944879"><ele>161.0</ele><time>2026-04-03T14:22:54.697Z</time></trkpt><trkpt lat="42.9543216" lon="12.394684"><ele>161.0</ele><time>2026-04-03T14:22:55.697Z</time></trkpt><trkpt lat="42.9542858" lon="12.394843"><ele>161.0</ele><time>2026-04-03T14:22:56.696Z</time></trkpt><trkpt lat="42.954255" lon="12.3949504"><ele>161.0</ele><time>2026-04-03T14:22:57.697Z</time></trkpt><trkpt lat="42.95419" lon="12.3950552"><ele>161.0</ele><time>2026-04-03T14:22:58.697Z</time></trkpt><trkpt lat="42.9540877" lon="12.3951653"><ele>161.0</ele><time>2026-04-03T14:22:59.697Z</time></trkpt><trkpt lat="42.9539631" lon="12.3952751"><ele>160.0</ele><time>2026-04-03T14:23:00.697Z</time></trkpt><trkpt lat="42.9538404" lon="12.3953906"><ele>159.0</ele><time>2026-04-03T14:23:01.697Z</time></trkpt><trkpt lat="42.9537215" lon="12.3955059"><ele>158.0</ele><time>2026-04-03T14:23:02.697Z</time></trkpt><trkpt lat="42.9536068" lon="12.3956213"><ele>157.0</ele><time>2026-04-03T14:23:03.697Z</time></trkpt><trkpt lat="42.9534917" lon="12.3957356"><ele>157.0</ele><time>2026-04-03T14:23:04.696Z</time></trkpt><trkpt lat="42.9533897" lon="12.3958481"><ele>157.0</ele><time>2026-04-03T14:23:05.697Z</time></trkpt><trkpt lat="42.9533131" lon="12.3959586"><ele>157.0</ele><time>2026-04-03T14:23:06.697Z</time></trkpt><trkpt lat="42.9532682" lon="12.396074"><ele>157.0</ele><time>2026-04-03T14:23:07.697Z</time></trkpt><trkpt lat="42.9532498" lon="12.3962009"><ele>157.0</ele><time>2026-04-03T14:23:08.696Z</time></trkpt><trkpt lat="42.9532592" lon="12.3963542"><ele>158.66666666666669</ele><time>2026-04-03T14:23:09.696Z</time></trkpt><trkpt lat="42.9532823" lon="12.3965401"><ele>160.33333333333334</ele><time>2026-04-03T14:23:10.697Z</time></trkpt><trkpt lat="42.9533071" lon="12.3967647"><ele>162.0</ele><time>2026-04-03T14:23:11.697Z</time></trkpt><trkpt lat="42.9533366" lon="12.3970239"><ele>162.5</ele><time>2026-04-03T14:23:12.697Z</time></trkpt><trkpt lat="42.9533654" lon="12.3973265"><ele>163.0</ele><time>2026-04-03T14:23:13.697Z</time></trkpt><trkpt lat="42.9533971" lon="12.3976368"><ele>163.0</ele><time>2026-04-03T14:23:14.696Z</time></trkpt><trkpt lat="42.9534252" lon="12.3979375"><ele>163.0</ele><time>2026-04-03T14:23:15.696Z</time></trkpt><trkpt lat="42.9534563" lon="12.3982243"><ele>163.0</ele><time>2026-04-03T14:23:16.696Z</time></trkpt><trkpt lat="42.9534844" lon="12.3984871"><ele>163.33333333333334</ele><time>2026-04-03T14:23:17.697Z</time></trkpt><trkpt lat="42.9535068" lon="12.398732"><ele>163.66666666666666</ele><time>2026-04-03T14:23:18.697Z</time></trkpt><trkpt lat="42.9535293" lon="12.3989495"><ele>164.0</ele><time>2026-04-03T14:23:19.697Z</time></trkpt><trkpt lat="42.9535428" lon="12.399136"><ele>164.79999999999998</ele><time>2026-04-03T14:23:20.697Z</time></trkpt><trkpt lat="42.9535535" lon="12.3992919"><ele>165.6</ele><time>2026-04-03T14:23:21.696Z</time></trkpt><trkpt lat="42.9535396" lon="12.399423"><ele>166.4</ele><time>2026-04-03T14:23:22.697Z</time></trkpt><trkpt lat="42.9535096" lon="12.3995167"><ele>167.2</ele><time>2026-04-03T14:23:23.697Z</time></trkpt><trkpt lat="42.9534608" lon="12.3995858"><ele>168.0</ele><time>2026-04-03T14:23:24.697Z</time></trkpt><trkpt lat="42.953374" lon="12.3996331"><ele>167.25</ele><time>2026-04-03T14:23:25.697Z</time></trkpt><trkpt lat="42.9532543" lon="12.3996528"><ele>166.5</ele><time>2026-04-03T14:23:26.696Z</time></trkpt><trkpt lat="42.9531225" lon="12.399657"><ele>165.75</ele><time>2026-04-03T14:23:27.697Z</time></trkpt><trkpt lat="42.9529709" lon="12.399664"><ele>165.0</ele><time>2026-04-03T14:23:28.697Z</time></trkpt><trkpt lat="42.9528032" lon="12.3996591"><ele>165.0</ele><time>2026-04-03T14:23:29.697Z</time></trkpt><trkpt lat="42.9526267" lon="12.3996556"><ele>165.0</ele><time>2026-04-03T14:23:30.697Z</time></trkpt><trkpt lat="42.9524421" lon="12.399657"><ele>165.0</ele><time>2026-04-03T14:23:31.697Z</time></trkpt><trkpt lat="42.9522506" lon="12.3996537"><ele>165.33333333333334</ele><time>2026-04-03T14:23:32.697Z</time></trkpt><trkpt lat="42.9520577" lon="12.3996402"><ele>165.66666666666669</ele><time>2026-04-03T14:23:33.697Z</time></trkpt><trkpt lat="42.9518652" lon="12.3996234"><ele>166.0</ele><time>2026-04-03T14:23:34.697Z</time></trkpt><trkpt lat="42.9516697" lon="12.3996181"><ele>166.0</ele><time>2026-04-03T14:23:35.697Z</time></trkpt><trkpt lat="42.9514802" lon="12.3996128"><ele>166.0</ele><time>2026-04-03T14:23:36.697Z</time></trkpt><trkpt lat="42.9513102" lon="12.3996132"><ele>166.0</ele><time>2026-04-03T14:23:37.697Z</time></trkpt><trkpt lat="42.9511513" lon="12.399604"><ele>166.0</ele><time>2026-04-03T14:23:38.696Z</time></trkpt><trkpt lat="42.9510042" lon="12.3996016"><ele>166.0</ele><time>2026-04-03T14:23:39.697Z</time></trkpt><trkpt lat="42.9508722" lon="12.3995991"><ele>166.0</ele><time>2026-04-03T14:23:40.696Z</time></trkpt><trkpt lat="42.9507366" lon="12.3995961"><ele>166.0</ele><time>2026-04-03T14:23:41.697Z</time></trkpt><trkpt lat="42.9505902" lon="12.3995893"><ele>166.0</ele><time>2026-04-03T14:23:42.697Z</time></trkpt><trkpt lat="42.9504428" lon="12.399581"><ele>166.0</ele><time>2026-04-03T14:23:43.697Z</time></trkpt><trkpt lat="42.950284" lon="12.3995641"><ele>166.0</ele><time>2026-04-03T14:23:44.697Z</time></trkpt><trkpt lat="42.9501216" lon="12.3995148"><ele>166.25</ele><time>2026-04-03T14:23:45.697Z</time></trkpt><trkpt lat="42.9499735" lon="12.39946"><ele>166.5</ele><time>2026-04-03T14:23:46.697Z</time></trkpt><trkpt lat="42.9498328" lon="12.3994152"><ele>166.75</ele><time>2026-04-03T14:23:47.697Z</time></trkpt><trkpt lat="42.9497037" lon="12.399386"><ele>167.0</ele><time>2026-04-03T14:23:48.697Z</time></trkpt><trkpt lat="42.9495898" lon="12.3993671"><ele>167.0</ele><time>2026-04-03T14:23:49.696Z</time></trkpt><trkpt lat="42.9494756" lon="12.399353"><ele>167.0</ele><time>2026-04-03T14:23:50.697Z</time></trkpt><trkpt lat="42.9493523" lon="12.3993326"><ele>167.0</ele><time>2026-04-03T14:23:51.697Z</time></trkpt><trkpt lat="42.9492123" lon="12.3993143"><ele>167.0</ele><time>2026-04-03T14:23:52.696Z</time></trkpt><trkpt lat="42.9490633" lon="12.3992941"><ele>168.0</ele><time>2026-04-03T14:23:53.697Z</time></trkpt><trkpt lat="42.9489027" lon="12.3992735"><ele>169.0</ele><time>2026-04-03T14:23:54.697Z</time></trkpt><trkpt lat="42.9487399" lon="12.3992515"><ele>170.0</ele><time>2026-04-03T14:23:55.696Z</time></trkpt><trkpt lat="42.9485667" lon="12.399232"><ele>170.0</ele><time>2026-04-03T14:23:56.696Z</time></trkpt><trkpt lat="42.9483878" lon="12.3992089"><ele>170.0</ele><time>2026-04-03T14:23:57.696Z</time></trkpt><trkpt lat="42.9482031" lon="12.3991881"><ele>170.0</ele><time>2026-04-03T14:23:58.696Z</time></trkpt><trkpt lat="42.9480123" lon="12.3991714"><ele>169.66666666666666</ele><time>2026-04-03T14:23:59.697Z</time></trkpt><trkpt lat="42.9478148" lon="12.3991511"><ele>169.33333333333334</ele><time>2026-04-03T14:24:00.696Z</time></trkpt><trkpt lat="42.947616" lon="12.3991292"><ele>169.0</ele><time>2026-04-03T14:24:01.696Z</time></trkpt><trkpt lat="42.947417" lon="12.3991038"><ele>169.0</ele><time>2026-04-03T14:24:02.697Z</time></trkpt><trkpt lat="42.9472104" lon="12.3990798"><ele>169.0</ele><time>2026-04-03T14:24:03.697Z</time></trkpt><trkpt lat="42.9470145" lon="12.3990582"><ele>169.0</ele><time>2026-04-03T14:24:04.696Z</time></trkpt><trkpt lat="42.9468314" lon="12.3990345"><ele>168.66666666666669</ele><time>2026-04-03T14:24:05.696Z</time></trkpt><trkpt lat="42.9466488" lon="12.3990295"><ele>168.33333333333334</ele><time>2026-04-03T14:24:06.695Z</time></trkpt><trkpt lat="42.9464441" lon="12.3990521"><ele>168.0</ele><time>2026-04-03T14:24:07.695Z</time></trkpt><trkpt lat="42.946238" lon="12.3990699"><ele>168.0</ele><time>2026-04-03T14:24:08.695Z</time></trkpt><trkpt lat="42.9460398" lon="12.3990904"><ele>168.0</ele><time>2026-04-03T14:24:09.696Z</time></trkpt><trkpt lat="42.9458518" lon="12.3991148"><ele>168.0</ele><time>2026-04-03T14:24:10.696Z</time></trkpt><trkpt lat="42.9456597" lon="12.3991365"><ele>168.0</ele><time>2026-04-03T14:24:11.696Z</time></trkpt><trkpt lat="42.9454543" lon="12.3991605"><ele>168.0</ele><time>2026-04-03T14:24:12.696Z</time></trkpt><trkpt lat="42.9452374" lon="12.3991826"><ele>168.0</ele><time>2026-04-03T14:24:13.696Z</time></trkpt><trkpt lat="42.945027" lon="12.3992117"><ele>168.0</ele><time>2026-04-03T14:24:14.696Z</time></trkpt><trkpt lat="42.9448402" lon="12.3992489"><ele>168.0</ele><time>2026-04-03T14:24:15.696Z</time></trkpt><trkpt lat="42.9446534" lon="12.3993042"><ele>168.0</ele><time>2026-04-03T14:24:16.696Z</time></trkpt><trkpt lat="42.9444672" lon="12.3993946"><ele>168.0</ele><time>2026-04-03T14:24:17.695Z</time></trkpt><trkpt lat="42.9442836" lon="12.3995015"><ele>168.0</ele><time>2026-04-03T14:24:18.695Z</time></trkpt><trkpt lat="42.9441019" lon="12.3996213"><ele>168.0</ele><time>2026-04-03T14:24:19.695Z</time></trkpt><trkpt lat="42.9439332" lon="12.3997787"><ele>171.66666666666666</ele><time>2026-04-03T14:24:20.696Z</time></trkpt><trkpt lat="42.9437807" lon="12.3999725"><ele>175.33333333333331</ele><time>2026-04-03T14:24:21.696Z</time></trkpt><trkpt lat="42.9436373" lon="12.4001904"><ele>179.0</ele><time>2026-04-03T14:24:22.696Z</time></trkpt><trkpt lat="42.9434853" lon="12.400434"><ele>179.66666666666666</ele><time>2026-04-03T14:24:23.696Z</time></trkpt><trkpt lat="42.943332" lon="12.4006833"><ele>180.33333333333334</ele><time>2026-04-03T14:24:24.695Z</time></trkpt><trkpt lat="42.9432006" lon="12.4009088"><ele>181.0</ele><time>2026-04-03T14:24:25.696Z</time></trkpt><trkpt lat="42.9430697" lon="12.4011087"><ele>181.0</ele><time>2026-04-03T14:24:26.696Z</time></trkpt><trkpt lat="42.9429409" lon="12.4012609"><ele>181.0</ele><time>2026-04-03T14:24:27.695Z</time></trkpt><trkpt lat="42.9427866" lon="12.4013759"><ele>181.0</ele><time>2026-04-03T14:24:28.696Z</time></trkpt><trkpt lat="42.9426148" lon="12.4014437"><ele>186.0</ele><time>2026-04-03T14:24:29.695Z</time></trkpt><trkpt lat="42.9424056" lon="12.4015085"><ele>191.0</ele><time>2026-04-03T14:24:30.696Z</time></trkpt><trkpt lat="42.9421662" lon="12.4015931"><ele>191.0</ele><time>2026-04-03T14:24:31.695Z</time></trkpt><trkpt lat="42.9419316" lon="12.4016865"><ele>191.0</ele><time>2026-04-03T14:24:32.695Z</time></trkpt><trkpt lat="42.9417243" lon="12.4017889"><ele>190.66666666666666</ele><time>2026-04-03T14:24:33.696Z</time></trkpt><trkpt lat="42.9415384" lon="12.4018846"><ele>190.33333333333334</ele><time>2026-04-03T14:24:34.696Z</time></trkpt><trkpt lat="42.9413561" lon="12.4019682"><ele>190.0</ele><time>2026-04-03T14:24:35.696Z</time></trkpt><trkpt lat="42.9411759" lon="12.4020237"><ele>190.0</ele><time>2026-04-03T14:24:36.696Z</time></trkpt><trkpt lat="42.9409884" lon="12.4020496"><ele>190.0</ele><time>2026-04-03T14:24:37.696Z</time></trkpt><trkpt lat="42.9407847" lon="12.4020526"><ele>190.0</ele><time>2026-04-03T14:24:38.696Z</time></trkpt><trkpt lat="42.940595" lon="12.402028"><ele>190.75</ele><time>2026-04-03T14:24:39.696Z</time></trkpt><trkpt lat="42.9404214" lon="12.4019972"><ele>191.5</ele><time>2026-04-03T14:24:40.696Z</time></trkpt><trkpt lat="42.9402773" lon="12.4019714"><ele>192.25</ele><time>2026-04-03T14:24:41.695Z</time></trkpt><trkpt lat="42.9401664" lon="12.4019405"><ele>193.0</ele><time>2026-04-03T14:24:42.696Z</time></trkpt><trkpt lat="42.9400855" lon="12.4019013"><ele>194.0</ele><time>2026-04-03T14:24:43.695Z</time></trkpt><trkpt lat="42.9400103" lon="12.4018363"><ele>195.0</ele><time>2026-04-03T14:24:44.696Z</time></trkpt><trkpt lat="42.9399344" lon="12.4017422"><ele>196.0</ele><time>2026-04-03T14:24:45.695Z</time></trkpt><trkpt lat="42.9398473" lon="12.4016326"><ele>197.0</ele><time>2026-04-03T14:24:46.695Z</time></trkpt><trkpt lat="42.9397531" lon="12.4015173"><ele>198.0</ele><time>2026-04-03T14:24:47.696Z</time></trkpt><trkpt lat="42.9396507" lon="12.4014106"><ele>196.5</ele><time>2026-04-03T14:24:48.696Z</time></trkpt><trkpt lat="42.9395445" lon="12.4012925"><ele>195.0</ele><time>2026-04-03T14:24:49.696Z</time></trkpt><trkpt lat="42.9394355" lon="12.4011738"><ele>193.5</ele><time>2026-04-03T14:24:50.695Z</time></trkpt><trkpt lat="42.9393319" lon="12.4010516"><ele>192.0</ele><time>2026-04-03T14:24:51.696Z</time></trkpt><trkpt lat="42.9392317" lon="12.4009323"><ele>194.39999999999998</ele><time>2026-04-03T14:24:52.695Z</time></trkpt><trkpt lat="42.9391284" lon="12.4008413"><ele>196.79999999999998</ele><time>2026-04-03T14:24:53.695Z</time></trkpt><trkpt lat="42.9390202" lon="12.4007886"><ele>199.2</ele><time>2026-04-03T14:24:54.695Z</time></trkpt><trkpt lat="42.9389085" lon="12.4007885"><ele>201.6</ele><time>2026-04-03T14:24:55.695Z</time></trkpt><trkpt lat="42.9388159" lon="12.4008358"><ele>204.0</ele><time>2026-04-03T14:24:56.696Z</time></trkpt><trkpt lat="42.9387169" lon="12.4009423"><ele>204.0</ele><time>2026-04-03T14:24:57.696Z</time></trkpt><trkpt lat="42.9386239" lon="12.4010765"><ele>204.0</ele><time>2026-04-03T14:24:58.696Z</time></trkpt><trkpt lat="42.9385281" lon="12.4012091"><ele>204.0</ele><time>2026-04-03T14:24:59.696Z</time></trkpt><trkpt lat="42.9384841" lon="12.4013588"><ele>204.0</ele><time>2026-04-03T14:25:00.696Z</time></trkpt><trkpt lat="42.9384501" lon="12.4015608"><ele>204.0</ele><time>2026-04-03T14:25:01.696Z</time></trkpt><trkpt lat="42.9384135" lon="12.4017774"><ele>204.0</ele><time>2026-04-03T14:25:02.696Z</time></trkpt><trkpt lat="42.9383801" lon="12.4019694"><ele>204.0</ele><time>2026-04-03T14:25:03.695Z</time></trkpt><trkpt lat="42.9383447" lon="12.4021584"><ele>203.75</ele><time>2026-04-03T14:25:04.696Z</time></trkpt><trkpt lat="42.9383148" lon="12.4023296"><ele>203.5</ele><time>2026-04-03T14:25:05.696Z</time></trkpt><trkpt lat="42.9383157" lon="12.4025305"><ele>203.25</ele><time>2026-04-03T14:25:06.696Z</time></trkpt><trkpt lat="42.9383323" lon="12.4027567"><ele>203.0</ele><time>2026-04-03T14:25:07.696Z</time></trkpt><trkpt lat="42.9383573" lon="12.4030066"><ele>202.5</ele><time>2026-04-03T14:25:08.696Z</time></trkpt><trkpt lat="42.9383752" lon="12.4032358"><ele>202.0</ele><time>2026-04-03T14:25:09.695Z</time></trkpt><trkpt lat="42.9383678" lon="12.4034334"><ele>201.5</ele><time>2026-04-03T14:25:10.696Z</time></trkpt><trkpt lat="42.9383231" lon="12.4036017"><ele>201.0</ele><time>2026-04-03T14:25:11.696Z</time></trkpt><trkpt lat="42.9382427" lon="12.4037297"><ele>201.0</ele><time>2026-04-03T14:25:12.695Z</time></trkpt><trkpt lat="42.9381327" lon="12.4037954"><ele>201.0</ele><time>2026-04-03T14:25:13.695Z</time></trkpt><trkpt lat="42.937997" lon="12.4038086"><ele>201.0</ele><time>2026-04-03T14:25:14.696Z</time></trkpt><trkpt lat="42.9378232" lon="12.4037501"><ele>201.0</ele><time>2026-04-03T14:25:15.696Z</time></trkpt><trkpt lat="42.9376317" lon="12.4036643"><ele>199.0</ele><time>2026-04-03T14:25:16.696Z</time></trkpt><trkpt lat="42.9374229" lon="12.4035703"><ele>197.0</ele><time>2026-04-03T14:25:17.695Z</time></trkpt><trkpt lat="42.9372039" lon="12.4034761"><ele>195.0</ele><time>2026-04-03T14:25:18.696Z</time></trkpt><trkpt lat="42.9369966" lon="12.4033883"><ele>195.0</ele><time>2026-04-03T14:25:19.696Z</time></trkpt><trkpt lat="42.9368038" lon="12.4032951"><ele>195.0</ele><time>2026-04-03T14:25:20.696Z</time></trkpt><trkpt lat="42.9366235" lon="12.4031817"><ele>195.0</ele><time>2026-04-03T14:25:21.695Z</time></trkpt><trkpt lat="42.936448" lon="12.403034"><ele>192.66666666666666</ele><time>2026-04-03T14:25:22.696Z</time></trkpt><trkpt lat="42.936272" lon="12.4028587"><ele>190.33333333333331</ele><time>2026-04-03T14:25:23.695Z</time></trkpt><trkpt lat="42.9360944" lon="12.4026714"><ele>188.0</ele><time>2026-04-03T14:25:24.696Z</time></trkpt><trkpt lat="42.9359249" lon="12.4024843"><ele>188.33333333333331</ele><time>2026-04-03T14:25:25.695Z</time></trkpt><trkpt lat="42.9357631" lon="12.402298"><ele>188.66666666666666</ele><time>2026-04-03T14:25:26.696Z</time></trkpt><trkpt lat="42.935598" lon="12.402109"><ele>189.0</ele><time>2026-04-03T14:25:27.696Z</time></trkpt><trkpt lat="42.9354337" lon="12.4019182"><ele>188.33333333333334</ele><time>2026-04-03T14:25:28.695Z</time></trkpt><trkpt lat="42.9352653" lon="12.4017313"><ele>187.66666666666669</ele><time>2026-04-03T14:25:29.695Z</time></trkpt><trkpt lat="42.9350995" lon="12.4015524"><ele>187.0</ele><time>2026-04-03T14:25:30.696Z</time></trkpt><trkpt lat="42.9349143" lon="12.4013951"><ele>186.66666666666669</ele><time>2026-04-03T14:25:31.696Z</time></trkpt><trkpt lat="42.9347245" lon="12.4012662"><ele>186.33333333333334</ele><time>2026-04-03T14:25:32.696Z</time></trkpt><trkpt lat="42.9345441" lon="12.4011625"><ele>186.0</ele><time>2026-04-03T14:25:33.696Z</time></trkpt><trkpt lat="42.9343939" lon="12.4010671"><ele>186.0</ele><time>2026-04-03T14:25:34.696Z</time></trkpt><trkpt lat="42.9342704" lon="12.4009896"><ele>186.0</ele><time>2026-04-03T14:25:35.696Z</time></trkpt><trkpt lat="42.9341558" lon="12.4009204"><ele>186.0</ele><time>2026-04-03T14:25:36.695Z</time></trkpt><trkpt lat="42.9340348" lon="12.4008723"><ele>186.0</ele><time>2026-04-03T14:25:37.695Z</time></trkpt><trkpt lat="42.9339142" lon="12.4008614"><ele>185.75</ele><time>2026-04-03T14:25:38.695Z</time></trkpt><trkpt lat="42.9337944" lon="12.4008796"><ele>185.5</ele><time>2026-04-03T14:25:39.695Z</time></trkpt><trkpt lat="42.9336722" lon="12.4008985"><ele>185.25</ele><time>2026-04-03T14:25:40.696Z</time></trkpt><trkpt lat="42.933559" lon="12.4009183"><ele>185.0</ele><time>2026-04-03T14:25:41.696Z</time></trkpt><trkpt lat="42.9334447" lon="12.4009376"><ele>184.25</ele><time>2026-04-03T14:25:42.696Z</time></trkpt><trkpt lat="42.9333308" lon="12.400951"><ele>183.5</ele><time>2026-04-03T14:25:43.695Z</time></trkpt><trkpt lat="42.9332115" lon="12.4009633"><ele>182.75</ele><time>2026-04-03T14:25:44.696Z</time></trkpt><trkpt lat="42.9330897" lon="12.4009631"><ele>182.0</ele><time>2026-04-03T14:25:45.696Z</time></trkpt><trkpt lat="42.9329736" lon="12.4009614"><ele>182.0</ele><time>2026-04-03T14:25:46.696Z</time></trkpt><trkpt lat="42.9328631" lon="12.4009579"><ele>182.0</ele><time>2026-04-03T14:25:47.696Z</time></trkpt><trkpt lat="42.9327557" lon="12.4009588"><ele>182.0</ele><time>2026-04-03T14:25:48.695Z</time></trkpt><trkpt lat="42.9326425" lon="12.4009588"><ele>182.0</ele><time>2026-04-03T14:25:49.696Z</time></trkpt><trkpt lat="42.9325214" lon="12.4009666"><ele>180.5</ele><time>2026-04-03T14:25:50.696Z</time></trkpt><trkpt lat="42.9323927" lon="12.4009712"><ele>179.0</ele><time>2026-04-03T14:25:51.696Z</time></trkpt><trkpt lat="42.9322643" lon="12.4009796"><ele>177.5</ele><time>2026-04-03T14:25:52.695Z</time></trkpt><trkpt lat="42.9321362" lon="12.4009926"><ele>176.0</ele><time>2026-04-03T14:25:53.696Z</time></trkpt><trkpt lat="42.9320141" lon="12.4010061"><ele>176.0</ele><time>2026-04-03T14:25:54.696Z</time></trkpt><trkpt lat="42.9318965" lon="12.4010219"><ele>176.0</ele><time>2026-04-03T14:25:55.695Z</time></trkpt><trkpt lat="42.931782" lon="12.4010369"><ele>176.0</ele><time>2026-04-03T14:25:56.696Z</time></trkpt><trkpt lat="42.9316736" lon="12.4010456"><ele>176.0</ele><time>2026-04-03T14:25:57.696Z</time></trkpt><trkpt lat="42.9315785" lon="12.4010462"><ele>176.0</ele><time>2026-04-03T14:25:58.695Z</time></trkpt><trkpt lat="42.931505" lon="12.4010438"><ele>174.66666666666666</ele><time>2026-04-03T14:25:59.695Z</time></trkpt><trkpt lat="42.9314369" lon="12.4010395"><ele>173.33333333333331</ele><time>2026-04-03T14:26:00.696Z</time></trkpt><trkpt lat="42.9313701" lon="12.4010273"><ele>172.0</ele><time>2026-04-03T14:26:01.696Z</time></trkpt><trkpt lat="42.9313041" lon="12.4010037"><ele>170.66666666666666</ele><time>2026-04-03T14:26:02.696Z</time></trkpt><trkpt lat="42.9312412" lon="12.4009877"><ele>169.33333333333334</ele><time>2026-04-03T14:26:03.695Z</time></trkpt><trkpt lat="42.931152" lon="12.4010491"><ele>168.0</ele><time>2026-04-03T14:26:05.695Z</time></trkpt><trkpt lat="42.9311909" lon="12.4012237"><ele>168.0</ele><time>2026-04-03T14:26:07.696Z</time></trkpt><trkpt lat="42.9312503" lon="12.4013386"><ele>168.0</ele><time>2026-04-03T14:26:08.695Z</time></trkpt><trkpt lat="42.9313165" lon="12.4014712"><ele>168.0</ele><time>2026-04-03T14:26:09.695Z</time></trkpt><trkpt lat="42.9313837" lon="12.4016356"><ele>168.0</ele><time>2026-04-03T14:26:10.696Z</time></trkpt><trkpt lat="42.9314494" lon="12.4018459"><ele>168.0</ele><time>2026-04-03T14:26:11.696Z</time></trkpt><trkpt lat="42.9315135" lon="12.4020685"><ele>168.0</ele><time>2026-04-03T14:26:12.695Z</time></trkpt><trkpt lat="42.9315881" lon="12.4023146"><ele>168.0</ele><time>2026-04-03T14:26:13.696Z</time></trkpt><trkpt lat="42.9316521" lon="12.4025906"><ele>168.0</ele><time>2026-04-03T14:26:14.695Z</time></trkpt><trkpt lat="42.9317149" lon="12.4028807"><ele>168.0</ele><time>2026-04-03T14:26:15.695Z</time></trkpt><trkpt lat="42.931788" lon="12.4031807"><ele>170.0</ele><time>2026-04-03T14:26:16.696Z</time></trkpt><trkpt lat="42.9318669" lon="12.4034859"><ele>172.0</ele><time>2026-04-03T14:26:17.695Z</time></trkpt><trkpt lat="42.9319452" lon="12.403813"><ele>170.5</ele><time>2026-04-03T14:26:18.696Z</time></trkpt><trkpt lat="42.9320301" lon="12.4041452"><ele>169.0</ele><time>2026-04-03T14:26:19.695Z</time></trkpt><trkpt lat="42.9321135" lon="12.4044858"><ele>167.5</ele><time>2026-04-03T14:26:20.696Z</time></trkpt><trkpt lat="42.9321991" lon="12.4048358"><ele>166.0</ele><time>2026-04-03T14:26:21.696Z</time></trkpt><trkpt lat="42.932287" lon="12.4051938"><ele>165.5</ele><time>2026-04-03T14:26:22.696Z</time></trkpt><trkpt lat="42.932376" lon="12.4055573"><ele>165.0</ele><time>2026-04-03T14:26:23.695Z</time></trkpt><trkpt lat="42.932467" lon="12.4059279"><ele>167.0</ele><time>2026-04-03T14:26:24.696Z</time></trkpt><trkpt lat="42.9325639" lon="12.4062964"><ele>169.0</ele><time>2026-04-03T14:26:25.696Z</time></trkpt><trkpt lat="42.9326577" lon="12.4066679"><ele>169.0</ele><time>2026-04-03T14:26:26.696Z</time></trkpt><trkpt lat="42.9327534" lon="12.4070397"><ele>169.0</ele><time>2026-04-03T14:26:27.695Z</time></trkpt><trkpt lat="42.9328457" lon="12.4074155"><ele>169.5</ele><time>2026-04-03T14:26:28.696Z</time></trkpt><trkpt lat="42.9329438" lon="12.407794"><ele>170.0</ele><time>2026-04-03T14:26:29.695Z</time></trkpt><trkpt lat="42.9330425" lon="12.4081827"><ele>169.0</ele><time>2026-04-03T14:26:30.695Z</time></trkpt><trkpt lat="42.9331404" lon="12.4085789"><ele>168.0</ele><time>2026-04-03T14:26:31.696Z</time></trkpt><trkpt lat="42.9332414" lon="12.4089762"><ele>167.5</ele><time>2026-04-03T14:26:32.696Z</time></trkpt><trkpt lat="42.9333428" lon="12.409377"><ele>167.0</ele><time>2026-04-03T14:26:33.696Z</time></trkpt><trkpt lat="42.9334429" lon="12.4097755"><ele>169.5</ele><time>2026-04-03T14:26:34.696Z</time></trkpt><trkpt lat="42.9335434" lon="12.4101753"><ele>172.0</ele><time>2026-04-03T14:26:35.695Z</time></trkpt><trkpt lat="42.9336475" lon="12.4105839"><ele>172.0</ele><time>2026-04-03T14:26:36.696Z</time></trkpt><trkpt lat="42.9337526" lon="12.4110041"><ele>172.0</ele><time>2026-04-03T14:26:37.695Z</time></trkpt><trkpt lat="42.9338586" lon="12.4114287"><ele>172.0</ele><time>2026-04-03T14:26:38.695Z</time></trkpt><trkpt lat="42.9339622" lon="12.4118509"><ele>172.0</ele><time>2026-04-03T14:26:39.695Z</time></trkpt><trkpt lat="42.9340639" lon="12.4122616"><ele>172.0</ele><time>2026-04-03T14:26:40.696Z</time></trkpt><trkpt lat="42.9341635" lon="12.4126657"><ele>172.0</ele><time>2026-04-03T14:26:41.695Z</time></trkpt><trkpt lat="42.9342656" lon="12.4130673"><ele>172.0</ele><time>2026-04-03T14:26:42.695Z</time></trkpt><trkpt lat="42.9343696" lon="12.4134692"><ele>172.0</ele><time>2026-04-03T14:26:43.695Z</time></trkpt><trkpt lat="42.9344709" lon="12.413876"><ele>172.0</ele><time>2026-04-03T14:26:44.696Z</time></trkpt><trkpt lat="42.9345733" lon="12.4142792"><ele>172.0</ele><time>2026-04-03T14:26:45.696Z</time></trkpt><trkpt lat="42.9346754" lon="12.4146818"><ele>172.0</ele><time>2026-04-03T14:26:46.696Z</time></trkpt><trkpt lat="42.9347745" lon="12.4150583"><ele>172.0</ele><time>2026-04-03T14:26:47.696Z</time></trkpt><trkpt lat="42.9348656" lon="12.4154156"><ele>172.5</ele><time>2026-04-03T14:26:48.696Z</time></trkpt><trkpt lat="42.9349505" lon="12.4157583"><ele>173.0</ele><time>2026-04-03T14:26:49.696Z</time></trkpt><trkpt lat="42.935035" lon="12.4160956"><ele>178.0</ele><time>2026-04-03T14:26:50.695Z</time></trkpt><trkpt lat="42.9351098" lon="12.4164357"><ele>183.0</ele><time>2026-04-03T14:26:51.696Z</time></trkpt><trkpt lat="42.9351775" lon="12.416782"><ele>183.0</ele><time>2026-04-03T14:26:52.696Z</time></trkpt><trkpt lat="42.9352285" lon="12.417136"><ele>183.0</ele><time>2026-04-03T14:26:53.695Z</time></trkpt><trkpt lat="42.9352717" lon="12.4174921"><ele>181.5</ele><time>2026-04-03T14:26:54.695Z</time></trkpt><trkpt lat="42.9353054" lon="12.4178512"><ele>180.0</ele><time>2026-04-03T14:26:55.696Z</time></trkpt><trkpt lat="42.9353311" lon="12.4182156"><ele>180.0</ele><time>2026-04-03T14:26:56.695Z</time></trkpt><trkpt lat="42.9353543" lon="12.4185805"><ele>180.0</ele><time>2026-04-03T14:26:57.695Z</time></trkpt><trkpt lat="42.9353641" lon="12.4189461"><ele>179.5</ele><time>2026-04-03T14:26:58.695Z</time></trkpt><trkpt lat="42.9353525" lon="12.419322"><ele>179.0</ele><time>2026-04-03T14:26:59.696Z</time></trkpt><trkpt lat="42.9353167" lon="12.4196944"><ele>178.0</ele><time>2026-04-03T14:27:00.696Z</time></trkpt><trkpt lat="42.9352711" lon="12.4200652"><ele>177.0</ele><time>2026-04-03T14:27:01.695Z</time></trkpt><trkpt lat="42.9352277" lon="12.4204284"><ele>177.5</ele><time>2026-04-03T14:27:02.695Z</time></trkpt><trkpt lat="42.9351877" lon="12.4207862"><ele>178.0</ele><time>2026-04-03T14:27:03.696Z</time></trkpt><trkpt lat="42.9351481" lon="12.4211366"><ele>178.5</ele><time>2026-04-03T14:27:04.695Z</time></trkpt><trkpt lat="42.935107" lon="12.421483"><ele>179.0</ele><time>2026-04-03T14:27:05.696Z</time></trkpt><trkpt lat="42.9350627" lon="12.4218053"><ele>177.33333333333331</ele><time>2026-04-03T14:27:06.695Z</time></trkpt><trkpt lat="42.9350198" lon="12.4221023"><ele>175.66666666666666</ele><time>2026-04-03T14:27:07.695Z</time></trkpt><trkpt lat="42.9349811" lon="12.4223868"><ele>174.0</ele><time>2026-04-03T14:27:08.695Z</time></trkpt><trkpt lat="42.9349386" lon="12.422677"><ele>174.0</ele><time>2026-04-03T14:27:09.696Z</time></trkpt><trkpt lat="42.9348924" lon="12.422972"><ele>174.0</ele><time>2026-04-03T14:27:10.696Z</time></trkpt><trkpt lat="42.9348396" lon="12.4232723"><ele>174.0</ele><time>2026-04-03T14:27:11.696Z</time></trkpt><trkpt lat="42.9347867" lon="12.4235858"><ele>175.0</ele><time>2026-04-03T14:27:12.695Z</time></trkpt><trkpt lat="42.9347404" lon="12.4239135"><ele>176.0</ele><time>2026-04-03T14:27:13.695Z</time></trkpt><trkpt lat="42.9346843" lon="12.4242669"><ele>176.0</ele><time>2026-04-03T14:27:14.696Z</time></trkpt><trkpt lat="42.9346193" lon="12.4246367"><ele>176.0</ele><time>2026-04-03T14:27:15.695Z</time></trkpt><trkpt lat="42.9345537" lon="12.4250128"><ele>176.0</ele><time>2026-04-03T14:27:16.695Z</time></trkpt><trkpt lat="42.9344877" lon="12.4253884"><ele>176.0</ele><time>2026-04-03T14:27:17.696Z</time></trkpt><trkpt lat="42.9344184" lon="12.4257642"><ele>176.0</ele><time>2026-04-03T14:27:18.696Z</time></trkpt><trkpt lat="42.9343471" lon="12.4261396"><ele>176.0</ele><time>2026-04-03T14:27:19.696Z</time></trkpt><trkpt lat="42.9342738" lon="12.4265076"><ele>176.5</ele><time>2026-04-03T14:27:20.696Z</time></trkpt><trkpt lat="42.934207" lon="12.426855"><ele>177.0</ele><time>2026-04-03T14:27:21.696Z</time></trkpt><trkpt lat="42.9341429" lon="12.4271921"><ele>179.5</ele><time>2026-04-03T14:27:22.696Z</time></trkpt><trkpt lat="42.9340771" lon="12.4275278"><ele>182.0</ele><time>2026-04-03T14:27:23.695Z</time></trkpt><trkpt lat="42.9340182" lon="12.4278567"><ele>182.5</ele><time>2026-04-03T14:27:24.696Z</time></trkpt><trkpt lat="42.9339581" lon="12.4281756"><ele>183.0</ele><time>2026-04-03T14:27:25.696Z</time></trkpt><trkpt lat="42.9338978" lon="12.4284878"><ele>183.0</ele><time>2026-04-03T14:27:26.695Z</time></trkpt><trkpt lat="42.9338272" lon="12.4287916"><ele>183.0</ele><time>2026-04-03T14:27:27.695Z</time></trkpt><trkpt lat="42.933743" lon="12.4290978"><ele>183.5</ele><time>2026-04-03T14:27:28.696Z</time></trkpt><trkpt lat="42.9336556" lon="12.4294113"><ele>184.0</ele><time>2026-04-03T14:27:29.695Z</time></trkpt><trkpt lat="42.9335614" lon="12.4297283"><ele>184.5</ele><time>2026-04-03T14:27:30.696Z</time></trkpt><trkpt lat="42.9334633" lon="12.4300518"><ele>185.0</ele><time>2026-04-03T14:27:31.696Z</time></trkpt><trkpt lat="42.9333616" lon="12.4303759"><ele>183.5</ele><time>2026-04-03T14:27:32.696Z</time></trkpt><trkpt lat="42.9332608" lon="12.4307053"><ele>182.0</ele><time>2026-04-03T14:27:33.695Z</time></trkpt><trkpt lat="42.9331542" lon="12.4310423"><ele>183.5</ele><time>2026-04-03T14:27:34.696Z</time></trkpt><trkpt lat="42.933049" lon="12.4313895"><ele>185.0</ele><time>2026-04-03T14:27:35.696Z</time></trkpt><trkpt lat="42.9329404" lon="12.4317375"><ele>185.0</ele><time>2026-04-03T14:27:36.696Z</time></trkpt><trkpt lat="42.9328244" lon="12.4320809"><ele>185.0</ele><time>2026-04-03T14:27:37.695Z</time></trkpt><trkpt lat="42.932689" lon="12.4324165"><ele>186.5</ele><time>2026-04-03T14:27:38.696Z</time></trkpt><trkpt lat="42.9325424" lon="12.4327299"><ele>188.0</ele><time>2026-04-03T14:27:39.696Z</time></trkpt><trkpt lat="42.9323919" lon="12.4330422"><ele>188.0</ele><time>2026-04-03T14:27:40.696Z</time></trkpt><trkpt lat="42.9322443" lon="12.4333533"><ele>188.0</ele><time>2026-04-03T14:27:41.695Z</time></trkpt><trkpt lat="42.9321046" lon="12.4336705"><ele>192.0</ele><time>2026-04-03T14:27:42.696Z</time></trkpt><trkpt lat="42.9319713" lon="12.4339944"><ele>196.0</ele><time>2026-04-03T14:27:43.696Z</time></trkpt><trkpt lat="42.9318564" lon="12.4343322"><ele>194.5</ele><time>2026-04-03T14:27:44.696Z</time></trkpt><trkpt lat="42.9317497" lon="12.4346733"><ele>193.0</ele><time>2026-04-03T14:27:45.696Z</time></trkpt><trkpt lat="42.9316484" lon="12.4350129"><ele>193.0</ele><time>2026-04-03T14:27:46.696Z</time></trkpt><trkpt lat="42.9315427" lon="12.4353546"><ele>193.0</ele><time>2026-04-03T14:27:47.696Z</time></trkpt><trkpt lat="42.931437" lon="12.4356939"><ele>195.0</ele><time>2026-04-03T14:27:48.696Z</time></trkpt><trkpt lat="42.9313226" lon="12.4360317"><ele>197.0</ele><time>2026-04-03T14:27:49.696Z</time></trkpt><trkpt lat="42.9312009" lon="12.4363708"><ele>200.5</ele><time>2026-04-03T14:27:50.695Z</time></trkpt><trkpt lat="42.9310702" lon="12.4366994"><ele>204.0</ele><time>2026-04-03T14:27:51.696Z</time></trkpt><trkpt lat="42.9309395" lon="12.4370124"><ele>199.0</ele><time>2026-04-03T14:27:52.696Z</time></trkpt><trkpt lat="42.9307988" lon="12.4373162"><ele>194.0</ele><time>2026-04-03T14:27:53.695Z</time></trkpt><trkpt lat="42.9306477" lon="12.4376122"><ele>194.0</ele><time>2026-04-03T14:27:54.696Z</time></trkpt><trkpt lat="42.9304929" lon="12.4379022"><ele>194.0</ele><time>2026-04-03T14:27:55.696Z</time></trkpt><trkpt lat="42.930339" lon="12.4381887"><ele>196.5</ele><time>2026-04-03T14:27:56.696Z</time></trkpt><trkpt lat="42.9301815" lon="12.4384731"><ele>199.0</ele><time>2026-04-03T14:27:57.696Z</time></trkpt><trkpt lat="42.9300186" lon="12.4387611"><ele>193.5</ele><time>2026-04-03T14:27:58.695Z</time></trkpt><trkpt lat="42.9298578" lon="12.4390419"><ele>188.0</ele><time>2026-04-03T14:27:59.696Z</time></trkpt><trkpt lat="42.9296941" lon="12.4393291"><ele>188.0</ele><time>2026-04-03T14:28:00.695Z</time></trkpt><trkpt lat="42.929533" lon="12.4396195"><ele>188.0</ele><time>2026-04-03T14:28:01.696Z</time></trkpt><trkpt lat="42.9293767" lon="12.4399178"><ele>189.0</ele><time>2026-04-03T14:28:02.696Z</time></trkpt><trkpt lat="42.9292328" lon="12.4402151"><ele>190.0</ele><time>2026-04-03T14:28:03.696Z</time></trkpt><trkpt lat="42.9290968" lon="12.4405217"><ele>190.0</ele><time>2026-04-03T14:28:04.695Z</time></trkpt><trkpt lat="42.9289725" lon="12.4408363"><ele>190.0</ele><time>2026-04-03T14:28:05.696Z</time></trkpt><trkpt lat="42.928852" lon="12.4411571"><ele>190.5</ele><time>2026-04-03T14:28:06.695Z</time></trkpt><trkpt lat="42.9287408" lon="12.4414747"><ele>191.0</ele><time>2026-04-03T14:28:07.696Z</time></trkpt><trkpt lat="42.928634" lon="12.4417895"><ele>191.0</ele><time>2026-04-03T14:28:08.696Z</time></trkpt><trkpt lat="42.9285246" lon="12.4421082"><ele>191.0</ele><time>2026-04-03T14:28:09.695Z</time></trkpt><trkpt lat="42.9284185" lon="12.4424315"><ele>191.0</ele><time>2026-04-03T14:28:10.695Z</time></trkpt><trkpt lat="42.9283103" lon="12.4427563"><ele>191.0</ele><time>2026-04-03T14:28:11.696Z</time></trkpt><trkpt lat="42.9282012" lon="12.4430845"><ele>191.0</ele><time>2026-04-03T14:28:12.695Z</time></trkpt><trkpt lat="42.9280847" lon="12.4434153"><ele>191.0</ele><time>2026-04-03T14:28:13.695Z</time></trkpt><trkpt lat="42.9279746" lon="12.4437511"><ele>191.0</ele><time>2026-04-03T14:28:14.695Z</time></trkpt><trkpt lat="42.9278655" lon="12.4440706"><ele>191.0</ele><time>2026-04-03T14:28:15.696Z</time></trkpt><trkpt lat="42.9277617" lon="12.4443638"><ele>191.0</ele><time>2026-04-03T14:28:16.695Z</time></trkpt><trkpt lat="42.9276436" lon="12.4446227"><ele>191.0</ele><time>2026-04-03T14:28:17.696Z</time></trkpt><trkpt lat="42.9275026" lon="12.4448492"><ele>191.0</ele><time>2026-04-03T14:28:18.695Z</time></trkpt><trkpt lat="42.927333" lon="12.4450695"><ele>191.0</ele><time>2026-04-03T14:28:19.695Z</time></trkpt><trkpt lat="42.9271455" lon="12.4452825"><ele>191.0</ele><time>2026-04-03T14:28:20.695Z</time></trkpt><trkpt lat="42.9269549" lon="12.4455031"><ele>191.5</ele><time>2026-04-03T14:28:21.695Z</time></trkpt><trkpt lat="42.9267658" lon="12.4457312"><ele>192.0</ele><time>2026-04-03T14:28:22.696Z</time></trkpt><trkpt lat="42.926575" lon="12.4459584"><ele>192.0</ele><time>2026-04-03T14:28:23.696Z</time></trkpt><trkpt lat="42.9263809" lon="12.4461795"><ele>192.0</ele><time>2026-04-03T14:28:24.695Z</time></trkpt><trkpt lat="42.926193" lon="12.4464013"><ele>192.5</ele><time>2026-04-03T14:28:25.696Z</time></trkpt><trkpt lat="42.9260161" lon="12.4466122"><ele>193.0</ele><time>2026-04-03T14:28:26.695Z</time></trkpt><trkpt lat="42.9258471" lon="12.4468015"><ele>191.66666666666666</ele><time>2026-04-03T14:28:27.696Z</time></trkpt><trkpt lat="42.9256918" lon="12.4469825"><ele>190.33333333333331</ele><time>2026-04-03T14:28:28.696Z</time></trkpt><trkpt lat="42.9255435" lon="12.4471583"><ele>189.0</ele><time>2026-04-03T14:28:29.696Z</time></trkpt><trkpt lat="42.9254072" lon="12.4473373"><ele>189.0</ele><time>2026-04-03T14:28:30.695Z</time></trkpt><trkpt lat="42.9252861" lon="12.4475487"><ele>189.0</ele><time>2026-04-03T14:28:31.695Z</time></trkpt><trkpt lat="42.9251806" lon="12.4477918"><ele>189.0</ele><time>2026-04-03T14:28:32.696Z</time></trkpt><trkpt lat="42.925107" lon="12.4480556"><ele>190.5</ele><time>2026-04-03T14:28:33.695Z</time></trkpt><trkpt lat="42.9250367" lon="12.4483532"><ele>192.0</ele><time>2026-04-03T14:28:34.696Z</time></trkpt><trkpt lat="42.9249748" lon="12.4486678"><ele>191.5</ele><time>2026-04-03T14:28:35.696Z</time></trkpt><trkpt lat="42.9249153" lon="12.4489805"><ele>191.0</ele><time>2026-04-03T14:28:36.695Z</time></trkpt><trkpt lat="42.9248557" lon="12.4492884"><ele>191.0</ele><time>2026-04-03T14:28:37.695Z</time></trkpt><trkpt lat="42.9247964" lon="12.4495881"><ele>191.0</ele><time>2026-04-03T14:28:38.695Z</time></trkpt><trkpt lat="42.9247383" lon="12.4498854"><ele>192.33333333333331</ele><time>2026-04-03T14:28:39.695Z</time></trkpt><trkpt lat="42.9246847" lon="12.4501648"><ele>193.66666666666666</ele><time>2026-04-03T14:28:40.696Z</time></trkpt><trkpt lat="42.9246311" lon="12.4504366"><ele>195.0</ele><time>2026-04-03T14:28:41.695Z</time></trkpt><trkpt lat="42.9245772" lon="12.4507"><ele>195.33333333333331</ele><time>2026-04-03T14:28:42.695Z</time></trkpt><trkpt lat="42.9245238" lon="12.4509573"><ele>195.66666666666666</ele><time>2026-04-03T14:28:43.695Z</time></trkpt><trkpt lat="42.924472" lon="12.4512147"><ele>196.0</ele><time>2026-04-03T14:28:44.695Z</time></trkpt><trkpt lat="42.9244177" lon="12.451478"><ele>196.66666666666666</ele><time>2026-04-03T14:28:45.695Z</time></trkpt><trkpt lat="42.9243677" lon="12.4517347"><ele>197.33333333333331</ele><time>2026-04-03T14:28:46.696Z</time></trkpt><trkpt lat="42.9243257" lon="12.451996"><ele>198.0</ele><time>2026-04-03T14:28:47.696Z</time></trkpt><trkpt lat="42.9243101" lon="12.4522603"><ele>197.66666666666669</ele><time>2026-04-03T14:28:48.696Z</time></trkpt><trkpt lat="42.9243192" lon="12.4525107"><ele>197.33333333333334</ele><time>2026-04-03T14:28:49.695Z</time></trkpt><trkpt lat="42.9243568" lon="12.4527648"><ele>197.0</ele><time>2026-04-03T14:28:50.696Z</time></trkpt><trkpt lat="42.9244245" lon="12.4530139"><ele>197.0</ele><time>2026-04-03T14:28:51.695Z</time></trkpt><trkpt lat="42.9245227" lon="12.453248"><ele>197.0</ele><time>2026-04-03T14:28:52.696Z</time></trkpt><trkpt lat="42.9246391" lon="12.4534763"><ele>197.0</ele><time>2026-04-03T14:28:53.695Z</time></trkpt><trkpt lat="42.9247584" lon="12.4537108"><ele>197.66666666666669</ele><time>2026-04-03T14:28:54.695Z</time></trkpt><trkpt lat="42.9248708" lon="12.4539452"><ele>198.33333333333331</ele><time>2026-04-03T14:28:55.695Z</time></trkpt><trkpt lat="42.9249802" lon="12.4541794"><ele>199.0</ele><time>2026-04-03T14:28:56.696Z</time></trkpt><trkpt lat="42.9250847" lon="12.4544251"><ele>197.66666666666666</ele><time>2026-04-03T14:28:57.696Z</time></trkpt><trkpt lat="42.9251846" lon="12.4546913"><ele>196.33333333333331</ele><time>2026-04-03T14:28:58.695Z</time></trkpt><trkpt lat="42.9252787" lon="12.4549661"><ele>195.0</ele><time>2026-04-03T14:28:59.696Z</time></trkpt><trkpt lat="42.9253677" lon="12.455244"><ele>195.0</ele><time>2026-04-03T14:29:00.696Z</time></trkpt><trkpt lat="42.9254549" lon="12.4555202"><ele>195.0</ele><time>2026-04-03T14:29:01.695Z</time></trkpt><trkpt lat="42.9255446" lon="12.455799"><ele>195.0</ele><time>2026-04-03T14:29:02.696Z</time></trkpt><trkpt lat="42.9256484" lon="12.4560805"><ele>195.0</ele><time>2026-04-03T14:29:03.696Z</time></trkpt><trkpt lat="42.9257676" lon="12.4563741"><ele>195.0</ele><time>2026-04-03T14:29:04.696Z</time></trkpt><trkpt lat="42.9259007" lon="12.4566954"><ele>195.0</ele><time>2026-04-03T14:29:05.696Z</time></trkpt><trkpt lat="42.9260395" lon="12.4570164"><ele>195.0</ele><time>2026-04-03T14:29:06.695Z</time></trkpt><trkpt lat="42.9261767" lon="12.457339"><ele>195.0</ele><time>2026-04-03T14:29:07.696Z</time></trkpt><trkpt lat="42.9263176" lon="12.4576611"><ele>195.0</ele><time>2026-04-03T14:29:08.696Z</time></trkpt><trkpt lat="42.9264641" lon="12.457985"><ele>194.0</ele><time>2026-04-03T14:29:09.696Z</time></trkpt><trkpt lat="42.9266038" lon="12.4583018"><ele>193.0</ele><time>2026-04-03T14:29:10.696Z</time></trkpt><trkpt lat="42.9267406" lon="12.4585949"><ele>194.5</ele><time>2026-04-03T14:29:11.696Z</time></trkpt><trkpt lat="42.9268788" lon="12.4588763"><ele>196.0</ele><time>2026-04-03T14:29:12.695Z</time></trkpt><trkpt lat="42.9270374" lon="12.4591329"><ele>196.0</ele><time>2026-04-03T14:29:13.696Z</time></trkpt><trkpt lat="42.9272091" lon="12.459351"><ele>196.0</ele><time>2026-04-03T14:29:14.696Z</time></trkpt><trkpt lat="42.927379" lon="12.459536"><ele>196.66666666666666</ele><time>2026-04-03T14:29:15.696Z</time></trkpt><trkpt lat="42.9275407" lon="12.4596777"><ele>197.33333333333331</ele><time>2026-04-03T14:29:16.696Z</time></trkpt><trkpt lat="42.927723" lon="12.4597882"><ele>198.0</ele><time>2026-04-03T14:29:17.696Z</time></trkpt><trkpt lat="42.927911" lon="12.45988"><ele>198.0</ele><time>2026-04-03T14:29:18.696Z</time></trkpt><trkpt lat="42.928099" lon="12.4599597"><ele>198.0</ele><time>2026-04-03T14:29:19.696Z</time></trkpt><trkpt lat="42.9282766" lon="12.4600383"><ele>198.0</ele><time>2026-04-03T14:29:20.696Z</time></trkpt><trkpt lat="42.9284454" lon="12.4601139"><ele>198.0</ele><time>2026-04-03T14:29:21.695Z</time></trkpt><trkpt lat="42.928596" lon="12.460183"><ele>198.0</ele><time>2026-04-03T14:29:22.695Z</time></trkpt><trkpt lat="42.928739" lon="12.4602475"><ele>198.0</ele><time>2026-04-03T14:29:23.695Z</time></trkpt><trkpt lat="42.928865" lon="12.4603168"><ele>198.0</ele><time>2026-04-03T14:29:24.696Z</time></trkpt><trkpt lat="42.9289854" lon="12.4604162"><ele>198.25</ele><time>2026-04-03T14:29:25.695Z</time></trkpt><trkpt lat="42.9290878" lon="12.4605539"><ele>198.5</ele><time>2026-04-03T14:29:26.695Z</time></trkpt><trkpt lat="42.9291605" lon="12.4607288"><ele>198.75</ele><time>2026-04-03T14:29:27.696Z</time></trkpt><trkpt lat="42.9292015" lon="12.4609373"><ele>199.0</ele><time>2026-04-03T14:29:28.696Z</time></trkpt><trkpt lat="42.9292193" lon="12.4611591"><ele>203.0</ele><time>2026-04-03T14:29:29.695Z</time></trkpt><trkpt lat="42.9292393" lon="12.4614001"><ele>207.0</ele><time>2026-04-03T14:29:30.696Z</time></trkpt><trkpt lat="42.9292645" lon="12.4616958"><ele>211.0</ele><time>2026-04-03T14:29:31.696Z</time></trkpt><trkpt lat="42.9292875" lon="12.4620224"><ele>212.0</ele><time>2026-04-03T14:29:32.695Z</time></trkpt><trkpt lat="42.9292952" lon="12.4623745"><ele>213.0</ele><time>2026-04-03T14:29:33.695Z</time></trkpt><trkpt lat="42.9293025" lon="12.4627464"><ele>216.5</ele><time>2026-04-03T14:29:34.696Z</time></trkpt><trkpt lat="42.9293149" lon="12.463119"><ele>220.0</ele><time>2026-04-03T14:29:35.695Z</time></trkpt><trkpt lat="42.9293328" lon="12.4634882"><ele>222.0</ele><time>2026-04-03T14:29:36.695Z</time></trkpt><trkpt lat="42.929359" lon="12.4638553"><ele>224.0</ele><time>2026-04-03T14:29:37.695Z</time></trkpt><trkpt lat="42.9293968" lon="12.4642197"><ele>224.0</ele><time>2026-04-03T14:29:38.696Z</time></trkpt><trkpt lat="42.929437" lon="12.4645841"><ele>224.0</ele><time>2026-04-03T14:29:39.695Z</time></trkpt><trkpt lat="42.9294919" lon="12.4649461"><ele>222.0</ele><time>2026-04-03T14:29:40.695Z</time></trkpt><trkpt lat="42.9295516" lon="12.4652906"><ele>220.0</ele><time>2026-04-03T14:29:41.695Z</time></trkpt><trkpt lat="42.9296003" lon="12.4656195"><ele>218.0</ele><time>2026-04-03T14:29:42.696Z</time></trkpt><trkpt lat="42.9296374" lon="12.4659396"><ele>216.0</ele><time>2026-04-03T14:29:43.696Z</time></trkpt><trkpt lat="42.9296453" lon="12.4662512"><ele>217.5</ele><time>2026-04-03T14:29:44.696Z</time></trkpt><trkpt lat="42.9296302" lon="12.4665649"><ele>219.0</ele><time>2026-04-03T14:29:45.696Z</time></trkpt><trkpt lat="42.9295889" lon="12.4668912"><ele>218.0</ele><time>2026-04-03T14:29:46.696Z</time></trkpt><trkpt lat="42.9295225" lon="12.4672087"><ele>217.0</ele><time>2026-04-03T14:29:47.695Z</time></trkpt><trkpt lat="42.9294624" lon="12.4675061"><ele>217.0</ele><time>2026-04-03T14:29:48.695Z</time></trkpt><trkpt lat="42.9294169" lon="12.467774"><ele>217.0</ele><time>2026-04-03T14:29:49.696Z</time></trkpt><trkpt lat="42.9293961" lon="12.4680125"><ele>217.0</ele><time>2026-04-03T14:29:50.695Z</time></trkpt><trkpt lat="42.9293791" lon="12.4682111"><ele>217.33333333333331</ele><time>2026-04-03T14:29:51.696Z</time></trkpt><trkpt lat="42.9293618" lon="12.4684009"><ele>217.66666666666669</ele><time>2026-04-03T14:29:52.696Z</time></trkpt><trkpt lat="42.9293473" lon="12.4686147"><ele>218.0</ele><time>2026-04-03T14:29:53.696Z</time></trkpt><trkpt lat="42.9293328" lon="12.4688591"><ele>218.0</ele><time>2026-04-03T14:29:54.695Z</time></trkpt><trkpt lat="42.9293282" lon="12.4691252"><ele>218.0</ele><time>2026-04-03T14:29:55.696Z</time></trkpt><trkpt lat="42.9293281" lon="12.4694147"><ele>218.0</ele><time>2026-04-03T14:29:56.695Z</time></trkpt><trkpt lat="42.9293364" lon="12.4697245"><ele>218.0</ele><time>2026-04-03T14:29:57.695Z</time></trkpt><trkpt lat="42.9293507" lon="12.4700567"><ele>218.0</ele><time>2026-04-03T14:29:58.696Z</time></trkpt><trkpt lat="42.9293682" lon="12.4704148"><ele>216.0</ele><time>2026-04-03T14:29:59.696Z</time></trkpt><trkpt lat="42.9293879" lon="12.4707834"><ele>214.0</ele><time>2026-04-03T14:30:00.695Z</time></trkpt><trkpt lat="42.9294121" lon="12.471124"><ele>212.0</ele><time>2026-04-03T14:30:01.696Z</time></trkpt><trkpt lat="42.9294339" lon="12.4714466"><ele>210.0</ele><time>2026-04-03T14:30:02.696Z</time></trkpt><trkpt lat="42.9294396" lon="12.4717725"><ele>210.0</ele><time>2026-04-03T14:30:03.695Z</time></trkpt><trkpt lat="42.9294049" lon="12.472091"><ele>210.0</ele><time>2026-04-03T14:30:04.696Z</time></trkpt><trkpt lat="42.9293364" lon="12.4724154"><ele>209.5</ele><time>2026-04-03T14:30:05.695Z</time></trkpt><trkpt lat="42.929232" lon="12.4727497"><ele>209.0</ele><time>2026-04-03T14:30:06.696Z</time></trkpt><trkpt lat="42.9291097" lon="12.4730926"><ele>207.5</ele><time>2026-04-03T14:30:07.696Z</time></trkpt><trkpt lat="42.9289966" lon="12.4734352"><ele>206.0</ele><time>2026-04-03T14:30:08.695Z</time></trkpt><trkpt lat="42.9288953" lon="12.4737626"><ele>209.5</ele><time>2026-04-03T14:30:09.696Z</time></trkpt><trkpt lat="42.9287889" lon="12.474082"><ele>213.0</ele><time>2026-04-03T14:30:10.696Z</time></trkpt><trkpt lat="42.928677" lon="12.4744015"><ele>217.0</ele><time>2026-04-03T14:30:11.696Z</time></trkpt><trkpt lat="42.9285766" lon="12.4747172"><ele>221.0</ele><time>2026-04-03T14:30:12.696Z</time></trkpt><trkpt lat="42.9284861" lon="12.4750369"><ele>221.0</ele><time>2026-04-03T14:30:13.696Z</time></trkpt><trkpt lat="42.9284225" lon="12.4753662"><ele>221.0</ele><time>2026-04-03T14:30:14.695Z</time></trkpt><trkpt lat="42.9283926" lon="12.4757113"><ele>215.5</ele><time>2026-04-03T14:30:15.695Z</time></trkpt><trkpt lat="42.9283729" lon="12.4760755"><ele>210.0</ele><time>2026-04-03T14:30:16.696Z</time></trkpt><trkpt lat="42.9283553" lon="12.4764464"><ele>210.0</ele><time>2026-04-03T14:30:17.696Z</time></trkpt><trkpt lat="42.9283411" lon="12.4768206"><ele>210.0</ele><time>2026-04-03T14:30:18.696Z</time></trkpt><trkpt lat="42.9283254" lon="12.4771858"><ele>211.0</ele><time>2026-04-03T14:30:19.695Z</time></trkpt><trkpt lat="42.9283069" lon="12.4775472"><ele>212.0</ele><time>2026-04-03T14:30:20.696Z</time></trkpt><trkpt lat="42.928296" lon="12.4779067"><ele>214.0</ele><time>2026-04-03T14:30:21.696Z</time></trkpt><trkpt lat="42.9282961" lon="12.4782608"><ele>216.0</ele><time>2026-04-03T14:30:22.696Z</time></trkpt><trkpt lat="42.928312" lon="12.4786245"><ele>216.5</ele><time>2026-04-03T14:30:23.696Z</time></trkpt><trkpt lat="42.9283469" lon="12.4789948"><ele>217.0</ele><time>2026-04-03T14:30:24.696Z</time></trkpt><trkpt lat="42.928392" lon="12.4793762"><ele>225.5</ele><time>2026-04-03T14:30:25.696Z</time></trkpt><trkpt lat="42.92844" lon="12.4797626"><ele>234.0</ele><time>2026-04-03T14:30:26.696Z</time></trkpt><trkpt lat="42.9284891" lon="12.4801434"><ele>226.0</ele><time>2026-04-03T14:30:27.696Z</time></trkpt><trkpt lat="42.9285544" lon="12.4805273"><ele>218.0</ele><time>2026-04-03T14:30:28.696Z</time></trkpt><trkpt lat="42.928635" lon="12.4809038"><ele>214.0</ele><time>2026-04-03T14:30:29.696Z</time></trkpt><trkpt lat="42.9287354" lon="12.4812748"><ele>210.0</ele><time>2026-04-03T14:30:30.696Z</time></trkpt><trkpt lat="42.9288311" lon="12.4816319"><ele>210.0</ele><time>2026-04-03T14:30:31.695Z</time></trkpt><trkpt lat="42.9289197" lon="12.4819745"><ele>210.0</ele><time>2026-04-03T14:30:32.696Z</time></trkpt><trkpt lat="42.9289799" lon="12.4823237"><ele>210.0</ele><time>2026-04-03T14:30:33.695Z</time></trkpt><trkpt lat="42.9289984" lon="12.4826871"><ele>210.0</ele><time>2026-04-03T14:30:34.696Z</time></trkpt><trkpt lat="42.928971" lon="12.4830541"><ele>210.0</ele><time>2026-04-03T14:30:35.695Z</time></trkpt><trkpt lat="42.9288984" lon="12.4834334"><ele>210.0</ele><time>2026-04-03T14:30:36.696Z</time></trkpt><trkpt lat="42.9288101" lon="12.4838207"><ele>212.0</ele><time>2026-04-03T14:30:37.695Z</time></trkpt><trkpt lat="42.9287172" lon="12.4842088"><ele>214.0</ele><time>2026-04-03T14:30:38.696Z</time></trkpt><trkpt lat="42.9286342" lon="12.484573"><ele>219.0</ele><time>2026-04-03T14:30:39.696Z</time></trkpt><trkpt lat="42.9285621" lon="12.4849098"><ele>224.0</ele><time>2026-04-03T14:30:40.696Z</time></trkpt><trkpt lat="42.9284851" lon="12.4852309"><ele>225.33333333333334</ele><time>2026-04-03T14:30:41.696Z</time></trkpt><trkpt lat="42.9284167" lon="12.4855307"><ele>226.66666666666669</ele><time>2026-04-03T14:30:42.695Z</time></trkpt><trkpt lat="42.9283486" lon="12.4858074"><ele>228.0</ele><time>2026-04-03T14:30:43.696Z</time></trkpt><trkpt lat="42.9282892" lon="12.4860534"><ele>224.66666666666669</ele><time>2026-04-03T14:30:44.695Z</time></trkpt><trkpt lat="42.92824" lon="12.4862827"><ele>221.33333333333334</ele><time>2026-04-03T14:30:45.695Z</time></trkpt><trkpt lat="42.9282112" lon="12.486501"><ele>218.0</ele><time>2026-04-03T14:30:46.695Z</time></trkpt><trkpt lat="42.9281958" lon="12.4867165"><ele>218.0</ele><time>2026-04-03T14:30:47.696Z</time></trkpt><trkpt lat="42.9282009" lon="12.4869364"><ele>218.0</ele><time>2026-04-03T14:30:48.696Z</time></trkpt><trkpt lat="42.9282276" lon="12.4871616"><ele>218.0</ele><time>2026-04-03T14:30:49.695Z</time></trkpt><trkpt lat="42.9282741" lon="12.4873957"><ele>217.66666666666669</ele><time>2026-04-03T14:30:50.696Z</time></trkpt><trkpt lat="42.9283263" lon="12.4876433"><ele>217.33333333333331</ele><time>2026-04-03T14:30:51.696Z</time></trkpt><trkpt lat="42.9283748" lon="12.4879162"><ele>217.0</ele><time>2026-04-03T14:30:52.695Z</time></trkpt><trkpt lat="42.9284185" lon="12.4882052"><ele>218.0</ele><time>2026-04-03T14:30:53.695Z</time></trkpt><trkpt lat="42.928464" lon="12.4885054"><ele>219.0</ele><time>2026-04-03T14:30:54.695Z</time></trkpt><trkpt lat="42.9285024" lon="12.488812"><ele>219.0</ele><time>2026-04-03T14:30:55.696Z</time></trkpt><trkpt lat="42.9285377" lon="12.4891257"><ele>219.0</ele><time>2026-04-03T14:30:56.696Z</time></trkpt><trkpt lat="42.9285663" lon="12.4894415"><ele>219.33333333333331</ele><time>2026-04-03T14:30:57.695Z</time></trkpt><trkpt lat="42.9285777" lon="12.4897508"><ele>219.66666666666666</ele><time>2026-04-03T14:30:58.696Z</time></trkpt><trkpt lat="42.9285637" lon="12.4900452"><ele>220.0</ele><time>2026-04-03T14:30:59.695Z</time></trkpt><trkpt lat="42.9285041" lon="12.4903181"><ele>220.0</ele><time>2026-04-03T14:31:00.696Z</time></trkpt><trkpt lat="42.9284063" lon="12.4905659"><ele>220.0</ele><time>2026-04-03T14:31:01.695Z</time></trkpt><trkpt lat="42.9282763" lon="12.490789"><ele>220.0</ele><time>2026-04-03T14:31:02.696Z</time></trkpt><trkpt lat="42.9281111" lon="12.490998"><ele>220.0</ele><time>2026-04-03T14:31:03.696Z</time></trkpt><trkpt lat="42.9279206" lon="12.4912196"><ele>220.0</ele><time>2026-04-03T14:31:04.695Z</time></trkpt><trkpt lat="42.9277174" lon="12.491461"><ele>219.0</ele><time>2026-04-03T14:31:05.696Z</time></trkpt><trkpt lat="42.9274983" lon="12.4917327"><ele>218.0</ele><time>2026-04-03T14:31:06.696Z</time></trkpt><trkpt lat="42.9272578" lon="12.4920219"><ele>220.5</ele><time>2026-04-03T14:31:07.695Z</time></trkpt><trkpt lat="42.9270214" lon="12.492297"><ele>223.0</ele><time>2026-04-03T14:31:08.696Z</time></trkpt><trkpt lat="42.9268049" lon="12.4925481"><ele>221.0</ele><time>2026-04-03T14:31:09.695Z</time></trkpt><trkpt lat="42.9265866" lon="12.4927995"><ele>219.0</ele><time>2026-04-03T14:31:10.695Z</time></trkpt><trkpt lat="42.9263674" lon="12.4930491"><ele>223.5</ele><time>2026-04-03T14:31:11.695Z</time></trkpt><trkpt lat="42.9261519" lon="12.4932931"><ele>228.0</ele><time>2026-04-03T14:31:12.695Z</time></trkpt><trkpt lat="42.9259445" lon="12.4935345"><ele>227.5</ele><time>2026-04-03T14:31:13.695Z</time></trkpt><trkpt lat="42.9257657" lon="12.4937553"><ele>227.0</ele><time>2026-04-03T14:31:14.696Z</time></trkpt><trkpt lat="42.9256105" lon="12.4939848"><ele>227.0</ele><time>2026-04-03T14:31:15.696Z</time></trkpt><trkpt lat="42.9254878" lon="12.494264"><ele>227.0</ele><time>2026-04-03T14:31:16.696Z</time></trkpt><trkpt lat="42.925391" lon="12.4945782"><ele>225.5</ele><time>2026-04-03T14:31:17.696Z</time></trkpt><trkpt lat="42.9253058" lon="12.4949199"><ele>224.0</ele><time>2026-04-03T14:31:18.695Z</time></trkpt><trkpt lat="42.9252085" lon="12.4952821"><ele>221.0</ele><time>2026-04-03T14:31:19.695Z</time></trkpt><trkpt lat="42.9251076" lon="12.4956495"><ele>218.0</ele><time>2026-04-03T14:31:20.696Z</time></trkpt><trkpt lat="42.9250053" lon="12.4960283"><ele>219.0</ele><time>2026-04-03T14:31:21.696Z</time></trkpt><trkpt lat="42.9249017" lon="12.496417"><ele>220.0</ele><time>2026-04-03T14:31:22.696Z</time></trkpt><trkpt lat="42.9247968" lon="12.4968042"><ele>221.0</ele><time>2026-04-03T14:31:23.696Z</time></trkpt><trkpt lat="42.9247013" lon="12.497166"><ele>222.0</ele><time>2026-04-03T14:31:24.696Z</time></trkpt><trkpt lat="42.9246254" lon="12.4975109"><ele>222.0</ele><time>2026-04-03T14:31:25.696Z</time></trkpt><trkpt lat="42.9245849" lon="12.4978331"><ele>222.0</ele><time>2026-04-03T14:31:26.696Z</time></trkpt><trkpt lat="42.9245677" lon="12.4981457"><ele>221.5</ele><time>2026-04-03T14:31:27.695Z</time></trkpt><trkpt lat="42.9245654" lon="12.4984665"><ele>221.0</ele><time>2026-04-03T14:31:28.696Z</time></trkpt><trkpt lat="42.9245593" lon="12.4988015"><ele>221.0</ele><time>2026-04-03T14:31:29.696Z</time></trkpt><trkpt lat="42.9245362" lon="12.4991362"><ele>221.0</ele><time>2026-04-03T14:31:30.696Z</time></trkpt><trkpt lat="42.9244935" lon="12.4994685"><ele>220.0</ele><time>2026-04-03T14:31:31.695Z</time></trkpt><trkpt lat="42.9244044" lon="12.4997855"><ele>219.0</ele><time>2026-04-03T14:31:32.696Z</time></trkpt><trkpt lat="42.9242801" lon="12.5000763"><ele>219.5</ele><time>2026-04-03T14:31:33.695Z</time></trkpt><trkpt lat="42.9241291" lon="12.5003739"><ele>220.0</ele><time>2026-04-03T14:31:34.696Z</time></trkpt><trkpt lat="42.9239631" lon="12.5006833"><ele>220.0</ele><time>2026-04-03T14:31:35.695Z</time></trkpt><trkpt lat="42.9237988" lon="12.5010129"><ele>220.0</ele><time>2026-04-03T14:31:36.695Z</time></trkpt><trkpt lat="42.9236295" lon="12.5013528"><ele>221.5</ele><time>2026-04-03T14:31:37.696Z</time></trkpt><trkpt lat="42.9234505" lon="12.5016968"><ele>223.0</ele><time>2026-04-03T14:31:38.696Z</time></trkpt><trkpt lat="42.9232789" lon="12.502024"><ele>223.5</ele><time>2026-04-03T14:31:39.696Z</time></trkpt><trkpt lat="42.9231168" lon="12.5023361"><ele>224.0</ele><time>2026-04-03T14:31:40.695Z</time></trkpt><trkpt lat="42.9229584" lon="12.5026465"><ele>225.0</ele><time>2026-04-03T14:31:41.696Z</time></trkpt><trkpt lat="42.9228132" lon="12.5029275"><ele>226.0</ele><time>2026-04-03T14:31:42.695Z</time></trkpt><trkpt lat="42.922682" lon="12.503185"><ele>224.0</ele><time>2026-04-03T14:31:43.696Z</time></trkpt><trkpt lat="42.9225432" lon="12.5034428"><ele>222.0</ele><time>2026-04-03T14:31:44.696Z</time></trkpt><trkpt lat="42.9224" lon="12.5037201"><ele>223.5</ele><time>2026-04-03T14:31:45.696Z</time></trkpt><trkpt lat="42.9222487" lon="12.5040169"><ele>225.0</ele><time>2026-04-03T14:31:46.695Z</time></trkpt><trkpt lat="42.9221006" lon="12.5043153"><ele>225.5</ele><time>2026-04-03T14:31:47.696Z</time></trkpt><trkpt lat="42.9219495" lon="12.5046195"><ele>226.0</ele><time>2026-04-03T14:31:48.695Z</time></trkpt><trkpt lat="42.9217899" lon="12.5049295"><ele>225.0</ele><time>2026-04-03T14:31:49.695Z</time></trkpt><trkpt lat="42.9216264" lon="12.5052447"><ele>224.0</ele><time>2026-04-03T14:31:50.696Z</time></trkpt><trkpt lat="42.9214645" lon="12.5055637"><ele>224.0</ele><time>2026-04-03T14:31:51.695Z</time></trkpt><trkpt lat="42.9213143" lon="12.5058754"><ele>224.0</ele><time>2026-04-03T14:31:52.696Z</time></trkpt><trkpt lat="42.9211575" lon="12.5061755"><ele>224.5</ele><time>2026-04-03T14:31:53.695Z</time></trkpt><trkpt lat="42.9209949" lon="12.5064772"><ele>225.0</ele><time>2026-04-03T14:31:54.696Z</time></trkpt><trkpt lat="42.9208217" lon="12.5067793"><ele>225.5</ele><time>2026-04-03T14:31:55.696Z</time></trkpt><trkpt lat="42.9206404" lon="12.5070791"><ele>226.0</ele><time>2026-04-03T14:31:56.696Z</time></trkpt><trkpt lat="42.9204542" lon="12.5073815"><ele>226.0</ele><time>2026-04-03T14:31:57.696Z</time></trkpt><trkpt lat="42.9202693" lon="12.5076899"><ele>226.0</ele><time>2026-04-03T14:31:58.696Z</time></trkpt><trkpt lat="42.920093" lon="12.5080015"><ele>227.0</ele><time>2026-04-03T14:31:59.695Z</time></trkpt><trkpt lat="42.919919" lon="12.5083216"><ele>228.0</ele><time>2026-04-03T14:32:00.696Z</time></trkpt><trkpt lat="42.9197535" lon="12.5086473"><ele>227.0</ele><time>2026-04-03T14:32:01.696Z</time></trkpt><trkpt lat="42.9195898" lon="12.5089771"><ele>226.0</ele><time>2026-04-03T14:32:02.696Z</time></trkpt><trkpt lat="42.9194264" lon="12.5093048"><ele>229.5</ele><time>2026-04-03T14:32:03.696Z</time></trkpt><trkpt lat="42.9192616" lon="12.5096369"><ele>233.0</ele><time>2026-04-03T14:32:04.695Z</time></trkpt><trkpt lat="42.9190974" lon="12.5099685"><ele>233.0</ele><time>2026-04-03T14:32:05.696Z</time></trkpt><trkpt lat="42.9189413" lon="12.5102927"><ele>233.0</ele><time>2026-04-03T14:32:06.696Z</time></trkpt><trkpt lat="42.9188037" lon="12.5106151"><ele>236.5</ele><time>2026-04-03T14:32:07.695Z</time></trkpt><trkpt lat="42.9186943" lon="12.5109442"><ele>240.0</ele><time>2026-04-03T14:32:08.696Z</time></trkpt><trkpt lat="42.9186048" lon="12.5112955"><ele>240.5</ele><time>2026-04-03T14:32:09.695Z</time></trkpt><trkpt lat="42.9185246" lon="12.5116596"><ele>241.0</ele><time>2026-04-03T14:32:10.695Z</time></trkpt><trkpt lat="42.9184326" lon="12.5120203"><ele>237.0</ele><time>2026-04-03T14:32:11.695Z</time></trkpt><trkpt lat="42.9183255" lon="12.5123735"><ele>233.0</ele><time>2026-04-03T14:32:12.696Z</time></trkpt><trkpt lat="42.9181936" lon="12.5127049"><ele>234.5</ele><time>2026-04-03T14:32:13.696Z</time></trkpt><trkpt lat="42.9180371" lon="12.5130189"><ele>236.0</ele><time>2026-04-03T14:32:14.696Z</time></trkpt><trkpt lat="42.9178633" lon="12.5133271"><ele>236.0</ele><time>2026-04-03T14:32:15.695Z</time></trkpt><trkpt lat="42.9176843" lon="12.5136381"><ele>236.0</ele><time>2026-04-03T14:32:16.696Z</time></trkpt><trkpt lat="42.9174937" lon="12.5139646"><ele>235.5</ele><time>2026-04-03T14:32:17.696Z</time></trkpt><trkpt lat="42.9173078" lon="12.5142996"><ele>235.0</ele><time>2026-04-03T14:32:18.695Z</time></trkpt><trkpt lat="42.9171166" lon="12.5146401"><ele>241.0</ele><time>2026-04-03T14:32:19.696Z</time></trkpt><trkpt lat="42.9169329" lon="12.5149698"><ele>247.0</ele><time>2026-04-03T14:32:20.696Z</time></trkpt><trkpt lat="42.9167555" lon="12.5152801"><ele>244.5</ele><time>2026-04-03T14:32:21.695Z</time></trkpt><trkpt lat="42.9165921" lon="12.515568"><ele>242.0</ele><time>2026-04-03T14:32:22.695Z</time></trkpt><trkpt lat="42.9164493" lon="12.5158333"><ele>242.0</ele><time>2026-04-03T14:32:23.695Z</time></trkpt><trkpt lat="42.9163177" lon="12.5161057"><ele>242.0</ele><time>2026-04-03T14:32:24.695Z</time></trkpt><trkpt lat="42.9162059" lon="12.516412"><ele>243.5</ele><time>2026-04-03T14:32:25.694Z</time></trkpt><trkpt lat="42.9161152" lon="12.5167549"><ele>245.0</ele><time>2026-04-03T14:32:26.695Z</time></trkpt><trkpt lat="42.9160092" lon="12.5171041"><ele>242.0</ele><time>2026-04-03T14:32:27.695Z</time></trkpt><trkpt lat="42.9158901" lon="12.5174657"><ele>239.0</ele><time>2026-04-03T14:32:28.695Z</time></trkpt><trkpt lat="42.915755" lon="12.5178288"><ele>242.0</ele><time>2026-04-03T14:32:29.694Z</time></trkpt><trkpt lat="42.9156107" lon="12.5181942"><ele>245.0</ele><time>2026-04-03T14:32:30.694Z</time></trkpt><trkpt lat="42.9154681" lon="12.5185634"><ele>250.5</ele><time>2026-04-03T14:32:31.695Z</time></trkpt><trkpt lat="42.9153198" lon="12.518935"><ele>256.0</ele><time>2026-04-03T14:32:32.695Z</time></trkpt><trkpt lat="42.9151691" lon="12.5193145"><ele>249.0</ele><time>2026-04-03T14:32:33.694Z</time></trkpt><trkpt lat="42.9150167" lon="12.5196963"><ele>242.0</ele><time>2026-04-03T14:32:34.695Z</time></trkpt><trkpt lat="42.9148666" lon="12.5200773"><ele>245.0</ele><time>2026-04-03T14:32:35.695Z</time></trkpt><trkpt lat="42.9147281" lon="12.520431"><ele>248.0</ele><time>2026-04-03T14:32:36.694Z</time></trkpt><trkpt lat="42.9145882" lon="12.520746"><ele>248.0</ele><time>2026-04-03T14:32:37.695Z</time></trkpt><trkpt lat="42.9144537" lon="12.5210077"><ele>248.0</ele><time>2026-04-03T14:32:38.694Z</time></trkpt><trkpt lat="42.9142733" lon="12.5212324"><ele>246.5</ele><time>2026-04-03T14:32:39.694Z</time></trkpt><trkpt lat="42.9140652" lon="12.5214258"><ele>245.0</ele><time>2026-04-03T14:32:40.694Z</time></trkpt><trkpt lat="42.9138454" lon="12.5216101"><ele>245.0</ele><time>2026-04-03T14:32:41.695Z</time></trkpt><trkpt lat="42.913641" lon="12.5218079"><ele>245.0</ele><time>2026-04-03T14:32:42.695Z</time></trkpt><trkpt lat="42.9134609" lon="12.5220285"><ele>244.0</ele><time>2026-04-03T14:32:43.695Z</time></trkpt><trkpt lat="42.9133069" lon="12.5222984"><ele>243.0</ele><time>2026-04-03T14:32:44.695Z</time></trkpt><trkpt lat="42.913169" lon="12.5225857"><ele>243.0</ele><time>2026-04-03T14:32:45.695Z</time></trkpt><trkpt lat="42.9130345" lon="12.5228808"><ele>243.0</ele><time>2026-04-03T14:32:46.695Z</time></trkpt><trkpt lat="42.9129048" lon="12.5232013"><ele>247.0</ele><time>2026-04-03T14:32:47.695Z</time></trkpt><trkpt lat="42.912797" lon="12.5235374"><ele>251.0</ele><time>2026-04-03T14:32:48.694Z</time></trkpt><trkpt lat="42.9127017" lon="12.5238843"><ele>253.0</ele><time>2026-04-03T14:32:49.695Z</time></trkpt><trkpt lat="42.9126117" lon="12.5242441"><ele>255.0</ele><time>2026-04-03T14:32:50.694Z</time></trkpt><trkpt lat="42.9125192" lon="12.5246177"><ele>250.5</ele><time>2026-04-03T14:32:51.695Z</time></trkpt><trkpt lat="42.9124314" lon="12.5249982"><ele>246.0</ele><time>2026-04-03T14:32:52.695Z</time></trkpt><trkpt lat="42.9123488" lon="12.5253775"><ele>248.5</ele><time>2026-04-03T14:32:53.695Z</time></trkpt><trkpt lat="42.9122798" lon="12.5257428"><ele>251.0</ele><time>2026-04-03T14:32:54.695Z</time></trkpt><trkpt lat="42.9122132" lon="12.5260928"><ele>253.5</ele><time>2026-04-03T14:32:55.694Z</time></trkpt><trkpt lat="42.912119" lon="12.5264242"><ele>256.0</ele><time>2026-04-03T14:32:56.695Z</time></trkpt><trkpt lat="42.9119886" lon="12.5267393"><ele>256.0</ele><time>2026-04-03T14:32:57.694Z</time></trkpt><trkpt lat="42.9118212" lon="12.5270492"><ele>256.0</ele><time>2026-04-03T14:32:58.695Z</time></trkpt><trkpt lat="42.9116377" lon="12.5273658"><ele>254.0</ele><time>2026-04-03T14:32:59.694Z</time></trkpt><trkpt lat="42.9114541" lon="12.5276837"><ele>252.0</ele><time>2026-04-03T14:33:00.694Z</time></trkpt><trkpt lat="42.9112719" lon="12.5280019"><ele>252.0</ele><time>2026-04-03T14:33:01.695Z</time></trkpt><trkpt lat="42.91109" lon="12.5283208"><ele>252.0</ele><time>2026-04-03T14:33:02.695Z</time></trkpt><trkpt lat="42.9109084" lon="12.528645"><ele>249.5</ele><time>2026-04-03T14:33:03.694Z</time></trkpt><trkpt lat="42.9107219" lon="12.5289693"><ele>247.0</ele><time>2026-04-03T14:33:04.695Z</time></trkpt><trkpt lat="42.9105372" lon="12.5292918"><ele>250.0</ele><time>2026-04-03T14:33:05.694Z</time></trkpt><trkpt lat="42.9103459" lon="12.5296194"><ele>253.0</ele><time>2026-04-03T14:33:06.695Z</time></trkpt><trkpt lat="42.9101642" lon="12.5299376"><ele>249.0</ele><time>2026-04-03T14:33:07.695Z</time></trkpt><trkpt lat="42.9099993" lon="12.5302259"><ele>245.0</ele><time>2026-04-03T14:33:08.694Z</time></trkpt><trkpt lat="42.9098186" lon="12.530494"><ele>245.0</ele><time>2026-04-03T14:33:09.695Z</time></trkpt><trkpt lat="42.909605" lon="12.5307275"><ele>245.0</ele><time>2026-04-03T14:33:10.695Z</time></trkpt><trkpt lat="42.9093698" lon="12.5309366"><ele>245.5</ele><time>2026-04-03T14:33:11.695Z</time></trkpt><trkpt lat="42.9091128" lon="12.5311369"><ele>246.0</ele><time>2026-04-03T14:33:12.695Z</time></trkpt><trkpt lat="42.908854" lon="12.5313397"><ele>247.5</ele><time>2026-04-03T14:33:13.695Z</time></trkpt><trkpt lat="42.9085956" lon="12.531545"><ele>249.0</ele><time>2026-04-03T14:33:14.695Z</time></trkpt><trkpt lat="42.9083412" lon="12.5317465"><ele>249.0</ele><time>2026-04-03T14:33:15.695Z</time></trkpt><trkpt lat="42.9080884" lon="12.5319492"><ele>249.0</ele><time>2026-04-03T14:33:16.695Z</time></trkpt><trkpt lat="42.9078238" lon="12.5321313"><ele>252.5</ele><time>2026-04-03T14:33:17.694Z</time></trkpt><trkpt lat="42.9075528" lon="12.5322697"><ele>256.0</ele><time>2026-04-03T14:33:18.695Z</time></trkpt><trkpt lat="42.9072774" lon="12.5323662"><ele>256.0</ele><time>2026-04-03T14:33:19.695Z</time></trkpt><trkpt lat="42.9069986" lon="12.5324421"><ele>256.0</ele><time>2026-04-03T14:33:20.695Z</time></trkpt><trkpt lat="42.9067236" lon="12.5324925"><ele>254.5</ele><time>2026-04-03T14:33:21.695Z</time></trkpt><trkpt lat="42.9064473" lon="12.5325118"><ele>253.0</ele><time>2026-04-03T14:33:22.695Z</time></trkpt><trkpt lat="42.9061707" lon="12.5325018"><ele>252.0</ele><time>2026-04-03T14:33:23.695Z</time></trkpt><trkpt lat="42.9058965" lon="12.5324595"><ele>251.0</ele><time>2026-04-03T14:33:24.694Z</time></trkpt><trkpt lat="42.9056271" lon="12.5324032"><ele>251.0</ele><time>2026-04-03T14:33:25.695Z</time></trkpt><trkpt lat="42.9053689" lon="12.5323504"><ele>251.0</ele><time>2026-04-03T14:33:26.695Z</time></trkpt><trkpt lat="42.9051206" lon="12.5323043"><ele>252.33333333333334</ele><time>2026-04-03T14:33:27.695Z</time></trkpt><trkpt lat="42.9048961" lon="12.5322651"><ele>253.66666666666669</ele><time>2026-04-03T14:33:28.694Z</time></trkpt><trkpt lat="42.9047073" lon="12.5322423"><ele>255.0</ele><time>2026-04-03T14:33:29.694Z</time></trkpt><trkpt lat="42.904541" lon="12.532248"><ele>255.0</ele><time>2026-04-03T14:33:30.694Z</time></trkpt><trkpt lat="42.9043692" lon="12.5322867"><ele>255.0</ele><time>2026-04-03T14:33:31.695Z</time></trkpt><trkpt lat="42.9042" lon="12.5323616"><ele>255.0</ele><time>2026-04-03T14:33:32.695Z</time></trkpt><trkpt lat="42.904022" lon="12.5324634"><ele>255.33333333333331</ele><time>2026-04-03T14:33:33.695Z</time></trkpt><trkpt lat="42.9038395" lon="12.5325788"><ele>255.66666666666666</ele><time>2026-04-03T14:33:34.694Z</time></trkpt><trkpt lat="42.9036602" lon="12.532693"><ele>256.0</ele><time>2026-04-03T14:33:35.694Z</time></trkpt><trkpt lat="42.9034968" lon="12.5327959"><ele>255.25</ele><time>2026-04-03T14:33:36.695Z</time></trkpt><trkpt lat="42.9033602" lon="12.5328921"><ele>254.5</ele><time>2026-04-03T14:33:37.695Z</time></trkpt><trkpt lat="42.9032468" lon="12.5329658"><ele>253.75</ele><time>2026-04-03T14:33:38.695Z</time></trkpt><trkpt lat="42.9031554" lon="12.533024"><ele>253.0</ele><time>2026-04-03T14:33:39.694Z</time></trkpt><trkpt lat="42.9030772" lon="12.5330646"><ele>253.0</ele><time>2026-04-03T14:33:40.694Z</time></trkpt><trkpt lat="42.9030177" lon="12.5330962"><ele>253.0</ele><time>2026-04-03T14:33:41.694Z</time></trkpt><trkpt lat="42.9029427" lon="12.5331286"><ele>253.0</ele><time>2026-04-03T14:33:43.695Z</time></trkpt><trkpt lat="42.9029005" lon="12.533194"><ele>253.0</ele><time>2026-04-03T14:33:46.695Z</time></trkpt><trkpt lat="42.9027731" lon="12.5332737"><ele>253.0</ele><time>2026-04-03T14:34:00.694Z</time></trkpt><trkpt lat="42.9026652" lon="12.5333337"><ele>252.0</ele><time>2026-04-03T14:34:01.694Z</time></trkpt><trkpt lat="42.9025327" lon="12.5334214"><ele>251.0</ele><time>2026-04-03T14:34:02.694Z</time></trkpt><trkpt lat="42.9023821" lon="12.5335279"><ele>250.0</ele><time>2026-04-03T14:34:03.695Z</time></trkpt><trkpt lat="42.9022026" lon="12.5336706"><ele>252.0</ele><time>2026-04-03T14:34:04.694Z</time></trkpt><trkpt lat="42.9019988" lon="12.5338249"><ele>254.0</ele><time>2026-04-03T14:34:05.694Z</time></trkpt><trkpt lat="42.9017955" lon="12.5339796"><ele>252.0</ele><time>2026-04-03T14:34:06.694Z</time></trkpt><trkpt lat="42.9015866" lon="12.5341449"><ele>250.0</ele><time>2026-04-03T14:34:07.694Z</time></trkpt><trkpt lat="42.9013645" lon="12.5343247"><ele>250.0</ele><time>2026-04-03T14:34:08.695Z</time></trkpt><trkpt lat="42.9011438" lon="12.5345235"><ele>250.0</ele><time>2026-04-03T14:34:09.695Z</time></trkpt><trkpt lat="42.9009313" lon="12.5347427"><ele>251.5</ele><time>2026-04-03T14:34:10.694Z</time></trkpt><trkpt lat="42.9007267" lon="12.5349813"><ele>253.0</ele><time>2026-04-03T14:34:11.695Z</time></trkpt><trkpt lat="42.9005274" lon="12.5352192"><ele>256.0</ele><time>2026-04-03T14:34:12.695Z</time></trkpt><trkpt lat="42.9003386" lon="12.5354503"><ele>259.0</ele><time>2026-04-03T14:34:13.694Z</time></trkpt><trkpt lat="42.9001748" lon="12.535684"><ele>258.5</ele><time>2026-04-03T14:34:14.695Z</time></trkpt><trkpt lat="42.9000347" lon="12.535958"><ele>258.0</ele><time>2026-04-03T14:34:15.695Z</time></trkpt><trkpt lat="42.8999118" lon="12.5362548"><ele>258.0</ele><time>2026-04-03T14:34:16.694Z</time></trkpt><trkpt lat="42.8998095" lon="12.536587"><ele>258.0</ele><time>2026-04-03T14:34:17.695Z</time></trkpt><trkpt lat="42.8997144" lon="12.5368988"><ele>258.5</ele><time>2026-04-03T14:34:18.695Z</time></trkpt><trkpt lat="42.8996216" lon="12.537197"><ele>259.0</ele><time>2026-04-03T14:34:19.695Z</time></trkpt><trkpt lat="42.8995217" lon="12.537476"><ele>259.0</ele><time>2026-04-03T14:34:20.695Z</time></trkpt><trkpt lat="42.899398" lon="12.5377174"><ele>259.0</ele><time>2026-04-03T14:34:21.695Z</time></trkpt><trkpt lat="42.8992372" lon="12.5379244"><ele>259.0</ele><time>2026-04-03T14:34:22.694Z</time></trkpt><trkpt lat="42.8990416" lon="12.5381165"><ele>257.5</ele><time>2026-04-03T14:34:23.695Z</time></trkpt><trkpt lat="42.8988348" lon="12.5383087"><ele>256.0</ele><time>2026-04-03T14:34:24.694Z</time></trkpt><trkpt lat="42.8986364" lon="12.5385027"><ele>256.0</ele><time>2026-04-03T14:34:25.695Z</time></trkpt><trkpt lat="42.8984431" lon="12.5387019"><ele>256.0</ele><time>2026-04-03T14:34:26.695Z</time></trkpt><trkpt lat="42.8982448" lon="12.538911"><ele>256.0</ele><time>2026-04-03T14:34:27.695Z</time></trkpt><trkpt lat="42.898038" lon="12.5391619"><ele>256.0</ele><time>2026-04-03T14:34:28.695Z</time></trkpt><trkpt lat="42.8978452" lon="12.5394582"><ele>257.0</ele><time>2026-04-03T14:34:29.694Z</time></trkpt><trkpt lat="42.8976612" lon="12.5397718"><ele>258.0</ele><time>2026-04-03T14:34:30.694Z</time></trkpt><trkpt lat="42.8974885" lon="12.5400796"><ele>258.0</ele><time>2026-04-03T14:34:31.695Z</time></trkpt><trkpt lat="42.8973188" lon="12.540369"><ele>258.0</ele><time>2026-04-03T14:34:32.694Z</time></trkpt><trkpt lat="42.8971475" lon="12.5406606"><ele>257.5</ele><time>2026-04-03T14:34:33.695Z</time></trkpt><trkpt lat="42.8969746" lon="12.5409594"><ele>257.0</ele><time>2026-04-03T14:34:34.695Z</time></trkpt><trkpt lat="42.8968071" lon="12.5412577"><ele>257.5</ele><time>2026-04-03T14:34:35.694Z</time></trkpt><trkpt lat="42.8966426" lon="12.5415487"><ele>258.0</ele><time>2026-04-03T14:34:36.695Z</time></trkpt><trkpt lat="42.8964783" lon="12.5418305"><ele>259.5</ele><time>2026-04-03T14:34:37.695Z</time></trkpt><trkpt lat="42.8963208" lon="12.5421025"><ele>261.0</ele><time>2026-04-03T14:34:38.694Z</time></trkpt><trkpt lat="42.8961729" lon="12.5423746"><ele>261.0</ele><time>2026-04-03T14:34:39.695Z</time></trkpt><trkpt lat="42.8960186" lon="12.542652"><ele>261.0</ele><time>2026-04-03T14:34:40.695Z</time></trkpt><trkpt lat="42.8958537" lon="12.5429333"><ele>260.0</ele><time>2026-04-03T14:34:41.694Z</time></trkpt><trkpt lat="42.8956818" lon="12.5432136"><ele>259.0</ele><time>2026-04-03T14:34:42.694Z</time></trkpt><trkpt lat="42.8955213" lon="12.543482"><ele>261.5</ele><time>2026-04-03T14:34:43.694Z</time></trkpt><trkpt lat="42.8953677" lon="12.5437369"><ele>264.0</ele><time>2026-04-03T14:34:44.695Z</time></trkpt><trkpt lat="42.8952255" lon="12.5439804"><ele>264.0</ele><time>2026-04-03T14:34:45.694Z</time></trkpt><trkpt lat="42.8950931" lon="12.5442087"><ele>264.0</ele><time>2026-04-03T14:34:46.695Z</time></trkpt><trkpt lat="42.894974" lon="12.544436"><ele>264.0</ele><time>2026-04-03T14:34:47.694Z</time></trkpt><trkpt lat="42.8948793" lon="12.5446829"><ele>264.0</ele><time>2026-04-03T14:34:48.694Z</time></trkpt><trkpt lat="42.8948046" lon="12.5449398"><ele>264.0</ele><time>2026-04-03T14:34:49.695Z</time></trkpt><trkpt lat="42.8947484" lon="12.545194"><ele>264.0</ele><time>2026-04-03T14:34:50.694Z</time></trkpt><trkpt lat="42.8947047" lon="12.5454229"><ele>264.0</ele><time>2026-04-03T14:34:51.695Z</time></trkpt><trkpt lat="42.8946467" lon="12.5456334"><ele>264.0</ele><time>2026-04-03T14:34:52.695Z</time></trkpt><trkpt lat="42.8945584" lon="12.5458264"><ele>264.0</ele><time>2026-04-03T14:34:53.695Z</time></trkpt><trkpt lat="42.8944437" lon="12.5460046"><ele>264.0</ele><time>2026-04-03T14:34:54.695Z</time></trkpt><trkpt lat="42.8943193" lon="12.5461637"><ele>264.0</ele><time>2026-04-03T14:34:55.695Z</time></trkpt><trkpt lat="42.8942024" lon="12.5463046"><ele>264.0</ele><time>2026-04-03T14:34:56.695Z</time></trkpt><trkpt lat="42.8940985" lon="12.5464321"><ele>262.75</ele><time>2026-04-03T14:34:57.695Z</time></trkpt><trkpt lat="42.8940071" lon="12.546558"><ele>261.5</ele><time>2026-04-03T14:34:58.695Z</time></trkpt><trkpt lat="42.8939139" lon="12.5466889"><ele>260.25</ele><time>2026-04-03T14:34:59.695Z</time></trkpt><trkpt lat="42.893819" lon="12.5468403"><ele>259.0</ele><time>2026-04-03T14:35:00.694Z</time></trkpt><trkpt lat="42.8937382" lon="12.5470216"><ele>259.66666666666663</ele><time>2026-04-03T14:35:01.695Z</time></trkpt><trkpt lat="42.8936772" lon="12.547225"><ele>260.3333333333333</ele><time>2026-04-03T14:35:02.694Z</time></trkpt><trkpt lat="42.8936302" lon="12.547444"><ele>261.0</ele><time>2026-04-03T14:35:03.695Z</time></trkpt><trkpt lat="42.8935836" lon="12.5476729"><ele>261.6666666666667</ele><time>2026-04-03T14:35:04.694Z</time></trkpt><trkpt lat="42.8935362" lon="12.5478951"><ele>262.33333333333337</ele><time>2026-04-03T14:35:05.694Z</time></trkpt><trkpt lat="42.8934912" lon="12.5481036"><ele>263.0</ele><time>2026-04-03T14:35:06.694Z</time></trkpt><trkpt lat="42.8934284" lon="12.5483266"><ele>262.6666666666667</ele><time>2026-04-03T14:35:07.695Z</time></trkpt><trkpt lat="42.8933439" lon="12.5485633"><ele>262.3333333333333</ele><time>2026-04-03T14:35:08.695Z</time></trkpt><trkpt lat="42.8932434" lon="12.5487947"><ele>262.0</ele><time>2026-04-03T14:35:09.694Z</time></trkpt><trkpt lat="42.8931557" lon="12.5490042"><ele>262.0</ele><time>2026-04-03T14:35:10.695Z</time></trkpt><trkpt lat="42.8930952" lon="12.5492145"><ele>262.0</ele><time>2026-04-03T14:35:11.695Z</time></trkpt><trkpt lat="42.8930617" lon="12.54944"><ele>262.0</ele><time>2026-04-03T14:35:12.695Z</time></trkpt><trkpt lat="42.8930506" lon="12.5496783"><ele>262.0</ele><time>2026-04-03T14:35:13.694Z</time></trkpt><trkpt lat="42.8930513" lon="12.5499162"><ele>262.0</ele><time>2026-04-03T14:35:14.695Z</time></trkpt><trkpt lat="42.8930505" lon="12.5501719"><ele>262.0</ele><time>2026-04-03T14:35:15.694Z</time></trkpt><trkpt lat="42.8930451" lon="12.5504709"><ele>262.0</ele><time>2026-04-03T14:35:16.694Z</time></trkpt><trkpt lat="42.8930229" lon="12.5508036"><ele>262.0</ele><time>2026-04-03T14:35:17.695Z</time></trkpt><trkpt lat="42.8929528" lon="12.5511285"><ele>264.5</ele><time>2026-04-03T14:35:18.695Z</time></trkpt><trkpt lat="42.8928491" lon="12.5514397"><ele>267.0</ele><time>2026-04-03T14:35:19.694Z</time></trkpt><trkpt lat="42.8927327" lon="12.5517346"><ele>267.0</ele><time>2026-04-03T14:35:20.695Z</time></trkpt><trkpt lat="42.8925973" lon="12.552021"><ele>267.0</ele><time>2026-04-03T14:35:21.694Z</time></trkpt><trkpt lat="42.8924534" lon="12.5523039"><ele>266.0</ele><time>2026-04-03T14:35:22.695Z</time></trkpt><trkpt lat="42.8923141" lon="12.5525906"><ele>265.0</ele><time>2026-04-03T14:35:23.695Z</time></trkpt><trkpt lat="42.8921712" lon="12.5528875"><ele>265.0</ele><time>2026-04-03T14:35:24.695Z</time></trkpt><trkpt lat="42.8920251" lon="12.5531836"><ele>265.0</ele><time>2026-04-03T14:35:25.695Z</time></trkpt><trkpt lat="42.8918806" lon="12.5534894"><ele>263.5</ele><time>2026-04-03T14:35:26.695Z</time></trkpt><trkpt lat="42.8917362" lon="12.5537987"><ele>262.0</ele><time>2026-04-03T14:35:27.695Z</time></trkpt><trkpt lat="42.8915978" lon="12.5541197"><ele>262.0</ele><time>2026-04-03T14:35:28.695Z</time></trkpt><trkpt lat="42.891457" lon="12.5544452"><ele>262.0</ele><time>2026-04-03T14:35:29.694Z</time></trkpt><trkpt lat="42.8913221" lon="12.5547715"><ele>263.0</ele><time>2026-04-03T14:35:30.695Z</time></trkpt><trkpt lat="42.8911836" lon="12.5551"><ele>264.0</ele><time>2026-04-03T14:35:31.695Z</time></trkpt><trkpt lat="42.8910461" lon="12.5554328"><ele>263.5</ele><time>2026-04-03T14:35:32.695Z</time></trkpt><trkpt lat="42.890902" lon="12.5557634"><ele>263.0</ele><time>2026-04-03T14:35:33.695Z</time></trkpt><trkpt lat="42.8907644" lon="12.5560934"><ele>266.0</ele><time>2026-04-03T14:35:34.694Z</time></trkpt><trkpt lat="42.8906332" lon="12.556427"><ele>269.0</ele><time>2026-04-03T14:35:35.694Z</time></trkpt><trkpt lat="42.8905121" lon="12.5567605"><ele>271.5</ele><time>2026-04-03T14:35:36.694Z</time></trkpt><trkpt lat="42.8903934" lon="12.5570924"><ele>274.0</ele><time>2026-04-03T14:35:37.694Z</time></trkpt><trkpt lat="42.8902824" lon="12.5574171"><ele>274.0</ele><time>2026-04-03T14:35:38.694Z</time></trkpt><trkpt lat="42.8901817" lon="12.5577219"><ele>274.0</ele><time>2026-04-03T14:35:39.695Z</time></trkpt><trkpt lat="42.8900894" lon="12.5580129"><ele>271.66666666666663</ele><time>2026-04-03T14:35:40.695Z</time></trkpt><trkpt lat="42.8900059" lon="12.5582921"><ele>269.3333333333333</ele><time>2026-04-03T14:35:41.695Z</time></trkpt><trkpt lat="42.8899263" lon="12.5585533"><ele>267.0</ele><time>2026-04-03T14:35:42.694Z</time></trkpt><trkpt lat="42.8898409" lon="12.5588047"><ele>267.0</ele><time>2026-04-03T14:35:43.695Z</time></trkpt><trkpt lat="42.889761" lon="12.5590527"><ele>267.0</ele><time>2026-04-03T14:35:44.695Z</time></trkpt><trkpt lat="42.8896746" lon="12.5593166"><ele>267.0</ele><time>2026-04-03T14:35:45.695Z</time></trkpt><trkpt lat="42.8895716" lon="12.5595878"><ele>270.0</ele><time>2026-04-03T14:35:46.695Z</time></trkpt><trkpt lat="42.8894391" lon="12.5598559"><ele>273.0</ele><time>2026-04-03T14:35:47.695Z</time></trkpt><trkpt lat="42.8892819" lon="12.5601159"><ele>271.0</ele><time>2026-04-03T14:35:48.695Z</time></trkpt><trkpt lat="42.8890868" lon="12.5603688"><ele>269.0</ele><time>2026-04-03T14:35:49.695Z</time></trkpt><trkpt lat="42.8888725" lon="12.5606161"><ele>269.0</ele><time>2026-04-03T14:35:50.695Z</time></trkpt><trkpt lat="42.8886638" lon="12.5608612"><ele>269.0</ele><time>2026-04-03T14:35:51.695Z</time></trkpt><trkpt lat="42.888454" lon="12.5611092"><ele>268.5</ele><time>2026-04-03T14:35:52.694Z</time></trkpt><trkpt lat="42.8882431" lon="12.5613627"><ele>268.0</ele><time>2026-04-03T14:35:53.695Z</time></trkpt><trkpt lat="42.8880321" lon="12.5616212"><ele>268.0</ele><time>2026-04-03T14:35:54.695Z</time></trkpt><trkpt lat="42.8878201" lon="12.5618794"><ele>268.0</ele><time>2026-04-03T14:35:55.695Z</time></trkpt><trkpt lat="42.8876074" lon="12.5621377"><ele>268.0</ele><time>2026-04-03T14:35:56.694Z</time></trkpt><trkpt lat="42.8873943" lon="12.5623968"><ele>268.0</ele><time>2026-04-03T14:35:57.694Z</time></trkpt><trkpt lat="42.8871852" lon="12.5626498"><ele>268.0</ele><time>2026-04-03T14:35:58.695Z</time></trkpt><trkpt lat="42.8869741" lon="12.5629023"><ele>268.0</ele><time>2026-04-03T14:35:59.694Z</time></trkpt><trkpt lat="42.8867562" lon="12.5631619"><ele>268.0</ele><time>2026-04-03T14:36:00.694Z</time></trkpt><trkpt lat="42.8865384" lon="12.5634227"><ele>268.0</ele><time>2026-04-03T14:36:01.695Z</time></trkpt><trkpt lat="42.8863173" lon="12.5636829"><ele>267.5</ele><time>2026-04-03T14:36:02.695Z</time></trkpt><trkpt lat="42.8860992" lon="12.5639471"><ele>267.0</ele><time>2026-04-03T14:36:03.695Z</time></trkpt><trkpt lat="42.8858833" lon="12.5642099"><ele>267.0</ele><time>2026-04-03T14:36:04.695Z</time></trkpt><trkpt lat="42.8856674" lon="12.5644723"><ele>267.0</ele><time>2026-04-03T14:36:05.695Z</time></trkpt><trkpt lat="42.8854547" lon="12.5647297"><ele>267.0</ele><time>2026-04-03T14:36:06.694Z</time></trkpt><trkpt lat="42.8852414" lon="12.5649867"><ele>267.0</ele><time>2026-04-03T14:36:07.694Z</time></trkpt><trkpt lat="42.8850358" lon="12.5652344"><ele>268.0</ele><time>2026-04-03T14:36:08.695Z</time></trkpt><trkpt lat="42.8848348" lon="12.5654759"><ele>269.0</ele><time>2026-04-03T14:36:09.695Z</time></trkpt><trkpt lat="42.8846488" lon="12.5657099"><ele>269.0</ele><time>2026-04-03T14:36:10.694Z</time></trkpt><trkpt lat="42.8844903" lon="12.5659374"><ele>269.0</ele><time>2026-04-03T14:36:11.695Z</time></trkpt><trkpt lat="42.8843573" lon="12.5661696"><ele>269.0</ele><time>2026-04-03T14:36:12.695Z</time></trkpt><trkpt lat="42.8842462" lon="12.5664123"><ele>271.0</ele><time>2026-04-03T14:36:13.695Z</time></trkpt><trkpt lat="42.8841416" lon="12.5666399"><ele>273.0</ele><time>2026-04-03T14:36:14.695Z</time></trkpt><trkpt lat="42.8840432" lon="12.566843"><ele>275.0</ele><time>2026-04-03T14:36:15.695Z</time></trkpt><trkpt lat="42.8839319" lon="12.5670143"><ele>276.6666666666667</ele><time>2026-04-03T14:36:16.694Z</time></trkpt><trkpt lat="42.883795" lon="12.567148"><ele>278.3333333333333</ele><time>2026-04-03T14:36:17.694Z</time></trkpt><trkpt lat="42.8836493" lon="12.5672531"><ele>280.0</ele><time>2026-04-03T14:36:18.695Z</time></trkpt><trkpt lat="42.8834744" lon="12.5673293"><ele>282.3333333333333</ele><time>2026-04-03T14:36:19.695Z</time></trkpt><trkpt lat="42.8832657" lon="12.5673903"><ele>284.6666666666667</ele><time>2026-04-03T14:36:20.695Z</time></trkpt><trkpt lat="42.883041" lon="12.567449"><ele>287.0</ele><time>2026-04-03T14:36:21.695Z</time></trkpt><trkpt lat="42.8828403" lon="12.567501"><ele>287.0</ele><time>2026-04-03T14:36:22.694Z</time></trkpt><trkpt lat="42.8826515" lon="12.5675659"><ele>287.0</ele><time>2026-04-03T14:36:23.695Z</time></trkpt><trkpt lat="42.8824943" lon="12.5676132"><ele>287.0</ele><time>2026-04-03T14:36:24.695Z</time></trkpt><trkpt lat="42.8823744" lon="12.5676545"><ele>288.2</ele><time>2026-04-03T14:36:25.695Z</time></trkpt><trkpt lat="42.8822718" lon="12.5676766"><ele>289.4</ele><time>2026-04-03T14:36:26.694Z</time></trkpt><trkpt lat="42.8821794" lon="12.5676704"><ele>290.6</ele><time>2026-04-03T14:36:27.695Z</time></trkpt><trkpt lat="42.8820645" lon="12.5676368"><ele>291.8</ele><time>2026-04-03T14:36:28.694Z</time></trkpt><trkpt lat="42.8819484" lon="12.5675587"><ele>293.0</ele><time>2026-04-03T14:36:29.695Z</time></trkpt><trkpt lat="42.8818314" lon="12.5674661"><ele>294.0</ele><time>2026-04-03T14:36:30.695Z</time></trkpt><trkpt lat="42.8816837" lon="12.5673726"><ele>295.0</ele><time>2026-04-03T14:36:31.695Z</time></trkpt><trkpt lat="42.881523" lon="12.5672718"><ele>296.0</ele><time>2026-04-03T14:36:32.695Z</time></trkpt><trkpt lat="42.8813546" lon="12.5671619"><ele>296.0</ele><time>2026-04-03T14:36:33.694Z</time></trkpt><trkpt lat="42.8811766" lon="12.5670412"><ele>296.0</ele><time>2026-04-03T14:36:34.695Z</time></trkpt><trkpt lat="42.8810006" lon="12.5669303"><ele>296.0</ele><time>2026-04-03T14:36:35.695Z</time></trkpt><trkpt lat="42.8808282" lon="12.5668316"><ele>294.0</ele><time>2026-04-03T14:36:36.695Z</time></trkpt><trkpt lat="42.8806514" lon="12.566763"><ele>292.0</ele><time>2026-04-03T14:36:37.695Z</time></trkpt><trkpt lat="42.8804501" lon="12.5667375"><ele>290.0</ele><time>2026-04-03T14:36:38.695Z</time></trkpt><trkpt lat="42.8802338" lon="12.5667424"><ele>289.0</ele><time>2026-04-03T14:36:39.695Z</time></trkpt><trkpt lat="42.880003" lon="12.5667586"><ele>288.0</ele><time>2026-04-03T14:36:40.695Z</time></trkpt><trkpt lat="42.8797769" lon="12.5667863"><ele>288.0</ele><time>2026-04-03T14:36:41.695Z</time></trkpt><trkpt lat="42.8795558" lon="12.5668075"><ele>288.0</ele><time>2026-04-03T14:36:42.695Z</time></trkpt><trkpt lat="42.8793508" lon="12.5668168"><ele>288.0</ele><time>2026-04-03T14:36:43.694Z</time></trkpt><trkpt lat="42.8791487" lon="12.5668269"><ele>287.3333333333333</ele><time>2026-04-03T14:36:44.695Z</time></trkpt><trkpt lat="42.8789559" lon="12.5668436"><ele>286.66666666666663</ele><time>2026-04-03T14:36:45.695Z</time></trkpt><trkpt lat="42.8787723" lon="12.5668617"><ele>286.0</ele><time>2026-04-03T14:36:46.694Z</time></trkpt><trkpt lat="42.878597" lon="12.5668798"><ele>285.3333333333333</ele><time>2026-04-03T14:36:47.694Z</time></trkpt><trkpt lat="42.8784273" lon="12.5668929"><ele>284.6666666666667</ele><time>2026-04-03T14:36:48.695Z</time></trkpt><trkpt lat="42.8782627" lon="12.5668978"><ele>284.0</ele><time>2026-04-03T14:36:49.695Z</time></trkpt><trkpt lat="42.878096" lon="12.5669034"><ele>284.0</ele><time>2026-04-03T14:36:50.695Z</time></trkpt><trkpt lat="42.8779362" lon="12.5669007"><ele>284.0</ele><time>2026-04-03T14:36:51.695Z</time></trkpt><trkpt lat="42.8777828" lon="12.5668655"><ele>284.0</ele><time>2026-04-03T14:36:52.695Z</time></trkpt><trkpt lat="42.8776248" lon="12.5667581"><ele>283.0</ele><time>2026-04-03T14:36:53.695Z</time></trkpt><trkpt lat="42.8774936" lon="12.5665996"><ele>282.0</ele><time>2026-04-03T14:36:54.694Z</time></trkpt><trkpt lat="42.8773552" lon="12.5664065"><ele>281.0</ele><time>2026-04-03T14:36:55.695Z</time></trkpt><trkpt lat="42.8772041" lon="12.5662047"><ele>279.0</ele><time>2026-04-03T14:36:56.695Z</time></trkpt><trkpt lat="42.8770424" lon="12.5659854"><ele>277.0</ele><time>2026-04-03T14:36:57.695Z</time></trkpt><trkpt lat="42.8768817" lon="12.5657617"><ele>278.5</ele><time>2026-04-03T14:36:58.695Z</time></trkpt><trkpt lat="42.8767197" lon="12.5655307"><ele>280.0</ele><time>2026-04-03T14:36:59.694Z</time></trkpt><trkpt lat="42.8765587" lon="12.5653035"><ele>280.0</ele><time>2026-04-03T14:37:00.694Z</time></trkpt><trkpt lat="42.8764002" lon="12.5650811"><ele>280.0</ele><time>2026-04-03T14:37:01.695Z</time></trkpt><trkpt lat="42.8762393" lon="12.564861"><ele>280.0</ele><time>2026-04-03T14:37:02.694Z</time></trkpt><trkpt lat="42.8760826" lon="12.5646344"><ele>280.0</ele><time>2026-04-03T14:37:03.695Z</time></trkpt><trkpt lat="42.8759261" lon="12.5644197"><ele>279.66666666666663</ele><time>2026-04-03T14:37:04.695Z</time></trkpt><trkpt lat="42.8757885" lon="12.564217"><ele>279.3333333333333</ele><time>2026-04-03T14:37:05.695Z</time></trkpt><trkpt lat="42.8756592" lon="12.5640415"><ele>279.0</ele><time>2026-04-03T14:37:06.695Z</time></trkpt><trkpt lat="42.8755459" lon="12.5638813"><ele>279.0</ele><time>2026-04-03T14:37:07.695Z</time></trkpt><trkpt lat="42.8754538" lon="12.5637461"><ele>279.0</ele><time>2026-04-03T14:37:08.695Z</time></trkpt><trkpt lat="42.8753804" lon="12.5636244"><ele>279.0</ele><time>2026-04-03T14:37:09.694Z</time></trkpt><trkpt lat="42.8753339" lon="12.5635127"><ele>279.0</ele><time>2026-04-03T14:37:10.694Z</time></trkpt><trkpt lat="42.8753038" lon="12.5634226"><ele>279.0</ele><time>2026-04-03T14:37:11.695Z</time></trkpt><trkpt lat="42.8752525" lon="12.5632908"><ele>279.1666666666667</ele><time>2026-04-03T14:37:13.695Z</time></trkpt><trkpt lat="42.87519" lon="12.5632425"><ele>279.3333333333333</ele><time>2026-04-03T14:37:15.695Z</time></trkpt><trkpt lat="42.875131" lon="12.5632086"><ele>279.5</ele><time>2026-04-03T14:37:17.695Z</time></trkpt><trkpt lat="42.8750537" lon="12.5631411"><ele>279.66666666666663</ele><time>2026-04-03T14:37:19.694Z</time></trkpt><trkpt lat="42.8749845" lon="12.5630495"><ele>279.8333333333333</ele><time>2026-04-03T14:37:21.694Z</time></trkpt><trkpt lat="42.8749345" lon="12.5629827"><ele>280.0</ele><time>2026-04-03T14:38:02.694Z</time></trkpt><trkpt lat="42.8748485" lon="12.5628785"><ele>280.3333333333333</ele><time>2026-04-03T14:38:04.694Z</time></trkpt><trkpt lat="42.8747907" lon="12.5628105"><ele>280.66666666666663</ele><time>2026-04-03T14:38:05.695Z</time></trkpt><trkpt lat="42.8747329" lon="12.5627411"><ele>281.0</ele><time>2026-04-03T14:38:06.694Z</time></trkpt><trkpt lat="42.8746803" lon="12.5626785"><ele>281.3333333333333</ele><time>2026-04-03T14:38:07.695Z</time></trkpt><trkpt lat="42.8746281" lon="12.5626206"><ele>281.6666666666667</ele><time>2026-04-03T14:38:08.695Z</time></trkpt><trkpt lat="42.8745413" lon="12.5625416"><ele>282.0</ele><time>2026-04-03T14:38:10.695Z</time></trkpt><trkpt lat="42.8744724" lon="12.5625703"><ele>282.0</ele><time>2026-04-03T14:38:16.694Z</time></trkpt><trkpt lat="42.8745272" lon="12.5626201"><ele>282.0</ele><time>2026-04-03T14:38:18.695Z</time></trkpt><trkpt lat="42.8746305" lon="12.5626922"><ele>282.0</ele><time>2026-04-03T14:38:20.695Z</time></trkpt><trkpt lat="42.8747024" lon="12.5627541"><ele>282.0</ele><time>2026-04-03T14:38:21.694Z</time></trkpt><trkpt lat="42.874786" lon="12.562856"><ele>282.0</ele><time>2026-04-03T14:38:22.694Z</time></trkpt><trkpt lat="42.8748639" lon="12.562966"><ele>281.6</ele><time>2026-04-03T14:38:23.695Z</time></trkpt><trkpt lat="42.8749315" lon="12.5630836"><ele>281.2</ele><time>2026-04-03T14:38:24.695Z</time></trkpt><trkpt lat="42.874983" lon="12.5631886"><ele>280.8</ele><time>2026-04-03T14:38:25.694Z</time></trkpt><trkpt lat="42.8750055" lon="12.5632896"><ele>280.4</ele><time>2026-04-03T14:38:26.694Z</time></trkpt><trkpt lat="42.8750099" lon="12.5633943"><ele>280.0</ele><time>2026-04-03T14:38:27.695Z</time></trkpt><trkpt lat="42.8749857" lon="12.56352"><ele>280.0</ele><time>2026-04-03T14:38:28.694Z</time></trkpt><trkpt lat="42.8749276" lon="12.56366"><ele>280.0</ele><time>2026-04-03T14:38:29.695Z</time></trkpt><trkpt lat="42.8748376" lon="12.563807"><ele>280.0</ele><time>2026-04-03T14:38:30.695Z</time></trkpt><trkpt lat="42.8747283" lon="12.5639573"><ele>280.0</ele><time>2026-04-03T14:38:31.695Z</time></trkpt><trkpt lat="42.8746058" lon="12.5641193"><ele>280.0</ele><time>2026-04-03T14:38:32.694Z</time></trkpt><trkpt lat="42.8744727" lon="12.5642969"><ele>280.0</ele><time>2026-04-03T14:38:33.695Z</time></trkpt><trkpt lat="42.8743407" lon="12.5644817"><ele>280.0</ele><time>2026-04-03T14:38:34.695Z</time></trkpt><trkpt lat="42.8742103" lon="12.5646826"><ele>280.0</ele><time>2026-04-03T14:38:35.695Z</time></trkpt><trkpt lat="42.8740769" lon="12.5648482"><ele>280.0</ele><time>2026-04-03T14:38:36.695Z</time></trkpt><trkpt lat="42.8739346" lon="12.5650146"><ele>280.0</ele><time>2026-04-03T14:38:37.695Z</time></trkpt><trkpt lat="42.8737785" lon="12.5652134"><ele>282.5</ele><time>2026-04-03T14:38:38.694Z</time></trkpt><trkpt lat="42.873614" lon="12.5654305"><ele>285.0</ele><time>2026-04-03T14:38:39.695Z</time></trkpt><trkpt lat="42.8734318" lon="12.5656156"><ele>285.0</ele><time>2026-04-03T14:38:40.695Z</time></trkpt><trkpt lat="42.8732155" lon="12.5657688"><ele>285.0</ele><time>2026-04-03T14:38:41.694Z</time></trkpt><trkpt lat="42.8729979" lon="12.5658845"><ele>285.0</ele><time>2026-04-03T14:38:42.694Z</time></trkpt><trkpt lat="42.8727676" lon="12.565977"><ele>285.0</ele><time>2026-04-03T14:38:43.695Z</time></trkpt><trkpt lat="42.8725248" lon="12.5660436"><ele>284.5</ele><time>2026-04-03T14:38:44.695Z</time></trkpt><trkpt lat="42.872276" lon="12.5660641"><ele>284.0</ele><time>2026-04-03T14:38:45.695Z</time></trkpt><trkpt lat="42.8720178" lon="12.5660605"><ele>283.5</ele><time>2026-04-03T14:38:46.694Z</time></trkpt><trkpt lat="42.8717579" lon="12.5660741"><ele>283.0</ele><time>2026-04-03T14:38:47.694Z</time></trkpt><trkpt lat="42.8715096" lon="12.5661133"><ele>283.0</ele><time>2026-04-03T14:38:48.694Z</time></trkpt><trkpt lat="42.8712661" lon="12.5661896"><ele>283.0</ele><time>2026-04-03T14:38:49.695Z</time></trkpt><trkpt lat="42.8710264" lon="12.5663069"><ele>284.5</ele><time>2026-04-03T14:38:50.695Z</time></trkpt><trkpt lat="42.8708112" lon="12.5664685"><ele>286.0</ele><time>2026-04-03T14:38:51.695Z</time></trkpt><trkpt lat="42.8706179" lon="12.5666729"><ele>286.0</ele><time>2026-04-03T14:38:52.695Z</time></trkpt><trkpt lat="42.870459" lon="12.566921"><ele>286.0</ele><time>2026-04-03T14:38:53.695Z</time></trkpt><trkpt lat="42.8703233" lon="12.5672168"><ele>289.5</ele><time>2026-04-03T14:38:54.694Z</time></trkpt><trkpt lat="42.8702133" lon="12.5675328"><ele>293.0</ele><time>2026-04-03T14:38:55.694Z</time></trkpt><trkpt lat="42.8701273" lon="12.5678817"><ele>292.5</ele><time>2026-04-03T14:38:56.695Z</time></trkpt><trkpt lat="42.8700611" lon="12.5682446"><ele>292.0</ele><time>2026-04-03T14:38:57.695Z</time></trkpt><trkpt lat="42.8700064" lon="12.5686247"><ele>293.5</ele><time>2026-04-03T14:38:58.694Z</time></trkpt><trkpt lat="42.8699521" lon="12.5690096"><ele>295.0</ele><time>2026-04-03T14:38:59.694Z</time></trkpt><trkpt lat="42.8698922" lon="12.5693872"><ele>296.0</ele><time>2026-04-03T14:39:00.695Z</time></trkpt><trkpt lat="42.869819" lon="12.5697577"><ele>297.0</ele><time>2026-04-03T14:39:01.694Z</time></trkpt><trkpt lat="42.8697308" lon="12.5700829"><ele>299.0</ele><time>2026-04-03T14:39:02.695Z</time></trkpt><trkpt lat="42.8696252" lon="12.5703704"><ele>301.0</ele><time>2026-04-03T14:39:03.694Z</time></trkpt><trkpt lat="42.8694969" lon="12.5706343"><ele>301.0</ele><time>2026-04-03T14:39:04.695Z</time></trkpt><trkpt lat="42.8693434" lon="12.5708824"><ele>301.0</ele><time>2026-04-03T14:39:05.695Z</time></trkpt><trkpt lat="42.8691706" lon="12.5711194"><ele>297.0</ele><time>2026-04-03T14:39:06.694Z</time></trkpt><trkpt lat="42.8689933" lon="12.5713344"><ele>293.0</ele><time>2026-04-03T14:39:07.695Z</time></trkpt><trkpt lat="42.868823" lon="12.5715369"><ele>293.0</ele><time>2026-04-03T14:39:08.694Z</time></trkpt><trkpt lat="42.8686694" lon="12.5717193"><ele>293.0</ele><time>2026-04-03T14:39:09.695Z</time></trkpt><trkpt lat="42.8685433" lon="12.5718788"><ele>293.0</ele><time>2026-04-03T14:39:10.694Z</time></trkpt><trkpt lat="42.8684386" lon="12.5719867"><ele>292.8</ele><time>2026-04-03T14:39:11.695Z</time></trkpt><trkpt lat="42.868343" lon="12.572059"><ele>292.6</ele><time>2026-04-03T14:39:12.695Z</time></trkpt><trkpt lat="42.8682492" lon="12.5720828"><ele>292.4</ele><time>2026-04-03T14:39:13.695Z</time></trkpt><trkpt lat="42.8681552" lon="12.5720912"><ele>292.2</ele><time>2026-04-03T14:39:14.695Z</time></trkpt><trkpt lat="42.8680776" lon="12.5721314"><ele>292.0</ele><time>2026-04-03T14:39:15.694Z</time></trkpt><trkpt lat="42.8680279" lon="12.5722143"><ele>292.0</ele><time>2026-04-03T14:39:16.695Z</time></trkpt><trkpt lat="42.868022" lon="12.5723321"><ele>292.0</ele><time>2026-04-03T14:39:17.695Z</time></trkpt><trkpt lat="42.8680558" lon="12.5724554"><ele>292.0</ele><time>2026-04-03T14:39:18.694Z</time></trkpt><trkpt lat="42.868075" lon="12.5726292"><ele>292.0</ele><time>2026-04-03T14:39:19.694Z</time></trkpt><trkpt lat="42.868054" lon="12.5728534"><ele>293.0</ele><time>2026-04-03T14:39:20.694Z</time></trkpt><trkpt lat="42.8679985" lon="12.5730977"><ele>294.0</ele><time>2026-04-03T14:39:21.694Z</time></trkpt><trkpt lat="42.8679313" lon="12.5733831"><ele>295.0</ele><time>2026-04-03T14:39:22.694Z</time></trkpt><trkpt lat="42.867867" lon="12.5736828"><ele>296.0</ele><time>2026-04-03T14:39:23.693Z</time></trkpt><trkpt lat="42.8677999" lon="12.573992"><ele>297.0</ele><time>2026-04-03T14:39:24.693Z</time></trkpt><trkpt lat="42.86773" lon="12.5743115"><ele>296.0</ele><time>2026-04-03T14:39:25.694Z</time></trkpt><trkpt lat="42.8676601" lon="12.5746424"><ele>295.0</ele><time>2026-04-03T14:39:26.693Z</time></trkpt><trkpt lat="42.8675863" lon="12.5749816"><ele>295.0</ele><time>2026-04-03T14:39:27.694Z</time></trkpt><trkpt lat="42.8675124" lon="12.5753165"><ele>295.0</ele><time>2026-04-03T14:39:28.694Z</time></trkpt><trkpt lat="42.867439" lon="12.5756479"><ele>296.5</ele><time>2026-04-03T14:39:29.694Z</time></trkpt><trkpt lat="42.86737" lon="12.5759665"><ele>298.0</ele><time>2026-04-03T14:39:30.693Z</time></trkpt><trkpt lat="42.8673042" lon="12.5762779"><ele>299.0</ele><time>2026-04-03T14:39:31.694Z</time></trkpt><trkpt lat="42.8672412" lon="12.5765819"><ele>300.0</ele><time>2026-04-03T14:39:32.693Z</time></trkpt><trkpt lat="42.8671845" lon="12.5768796"><ele>300.5</ele><time>2026-04-03T14:39:33.693Z</time></trkpt><trkpt lat="42.8671515" lon="12.5771823"><ele>301.0</ele><time>2026-04-03T14:39:34.694Z</time></trkpt><trkpt lat="42.8671397" lon="12.5774964"><ele>301.0</ele><time>2026-04-03T14:39:35.694Z</time></trkpt><trkpt lat="42.8671448" lon="12.5778234"><ele>301.0</ele><time>2026-04-03T14:39:36.694Z</time></trkpt><trkpt lat="42.8671589" lon="12.57816"><ele>300.5</ele><time>2026-04-03T14:39:37.694Z</time></trkpt><trkpt lat="42.867173" lon="12.5785047"><ele>300.0</ele><time>2026-04-03T14:39:38.694Z</time></trkpt><trkpt lat="42.8671949" lon="12.5788476"><ele>300.0</ele><time>2026-04-03T14:39:39.693Z</time></trkpt><trkpt lat="42.8672138" lon="12.5791978"><ele>300.0</ele><time>2026-04-03T14:39:40.694Z</time></trkpt><trkpt lat="42.8672353" lon="12.5795545"><ele>302.0</ele><time>2026-04-03T14:39:41.694Z</time></trkpt><trkpt lat="42.8672606" lon="12.5799193"><ele>304.0</ele><time>2026-04-03T14:39:42.694Z</time></trkpt><trkpt lat="42.8672861" lon="12.5802841"><ele>304.0</ele><time>2026-04-03T14:39:43.693Z</time></trkpt><trkpt lat="42.867314" lon="12.5806521"><ele>304.0</ele><time>2026-04-03T14:39:44.694Z</time></trkpt><trkpt lat="42.8673501" lon="12.5810103"><ele>305.0</ele><time>2026-04-03T14:39:45.693Z</time></trkpt><trkpt lat="42.8673842" lon="12.5813707"><ele>306.0</ele><time>2026-04-03T14:39:46.694Z</time></trkpt><trkpt lat="42.8674138" lon="12.5817324"><ele>306.5</ele><time>2026-04-03T14:39:47.693Z</time></trkpt><trkpt lat="42.8674369" lon="12.5820872"><ele>307.0</ele><time>2026-04-03T14:39:48.694Z</time></trkpt><trkpt lat="42.8674609" lon="12.5824339"><ele>307.0</ele><time>2026-04-03T14:39:49.694Z</time></trkpt><trkpt lat="42.8674696" lon="12.5827729"><ele>307.0</ele><time>2026-04-03T14:39:50.693Z</time></trkpt><trkpt lat="42.8674575" lon="12.5831097"><ele>307.5</ele><time>2026-04-03T14:39:51.694Z</time></trkpt><trkpt lat="42.8674089" lon="12.5834517"><ele>308.0</ele><time>2026-04-03T14:39:52.694Z</time></trkpt><trkpt lat="42.86734" lon="12.5837987"><ele>309.5</ele><time>2026-04-03T14:39:53.693Z</time></trkpt><trkpt lat="42.8672599" lon="12.5841567"><ele>311.0</ele><time>2026-04-03T14:39:54.694Z</time></trkpt><trkpt lat="42.8671743" lon="12.5845076"><ele>313.5</ele><time>2026-04-03T14:39:55.693Z</time></trkpt><trkpt lat="42.8670931" lon="12.5848696"><ele>316.0</ele><time>2026-04-03T14:39:56.694Z</time></trkpt><trkpt lat="42.8670177" lon="12.5852275"><ele>319.0</ele><time>2026-04-03T14:39:57.693Z</time></trkpt><trkpt lat="42.8669389" lon="12.5855921"><ele>322.0</ele><time>2026-04-03T14:39:58.693Z</time></trkpt><trkpt lat="42.8668583" lon="12.5859548"><ele>323.0</ele><time>2026-04-03T14:39:59.694Z</time></trkpt><trkpt lat="42.866778" lon="12.5863234"><ele>324.0</ele><time>2026-04-03T14:40:00.693Z</time></trkpt><trkpt lat="42.8666998" lon="12.5866877"><ele>322.0</ele><time>2026-04-03T14:40:01.694Z</time></trkpt><trkpt lat="42.8666207" lon="12.5870405"><ele>320.0</ele><time>2026-04-03T14:40:02.694Z</time></trkpt><trkpt lat="42.8665434" lon="12.5873734"><ele>320.0</ele><time>2026-04-03T14:40:03.694Z</time></trkpt><trkpt lat="42.866471" lon="12.5876946"><ele>320.0</ele><time>2026-04-03T14:40:04.693Z</time></trkpt><trkpt lat="42.8663952" lon="12.5879914"><ele>320.0</ele><time>2026-04-03T14:40:05.694Z</time></trkpt><trkpt lat="42.8663176" lon="12.5882815"><ele>320.0</ele><time>2026-04-03T14:40:06.694Z</time></trkpt><trkpt lat="42.8662329" lon="12.5885735"><ele>320.0</ele><time>2026-04-03T14:40:07.693Z</time></trkpt><trkpt lat="42.8661434" lon="12.5888731"><ele>320.0</ele><time>2026-04-03T14:40:08.694Z</time></trkpt><trkpt lat="42.8660453" lon="12.5891776"><ele>322.0</ele><time>2026-04-03T14:40:09.694Z</time></trkpt><trkpt lat="42.8659377" lon="12.5894829"><ele>324.0</ele><time>2026-04-03T14:40:10.694Z</time></trkpt><trkpt lat="42.8658325" lon="12.5897965"><ele>324.0</ele><time>2026-04-03T14:40:11.694Z</time></trkpt><trkpt lat="42.8657281" lon="12.5901231"><ele>324.0</ele><time>2026-04-03T14:40:12.693Z</time></trkpt><trkpt lat="42.8656189" lon="12.5904625"><ele>323.5</ele><time>2026-04-03T14:40:13.694Z</time></trkpt><trkpt lat="42.8655064" lon="12.5908028"><ele>323.0</ele><time>2026-04-03T14:40:14.694Z</time></trkpt><trkpt lat="42.8653856" lon="12.5911351"><ele>322.5</ele><time>2026-04-03T14:40:15.693Z</time></trkpt><trkpt lat="42.8652718" lon="12.5914702"><ele>322.0</ele><time>2026-04-03T14:40:16.693Z</time></trkpt><trkpt lat="42.865159" lon="12.5918088"><ele>324.5</ele><time>2026-04-03T14:40:17.694Z</time></trkpt><trkpt lat="42.8650418" lon="12.5921525"><ele>327.0</ele><time>2026-04-03T14:40:18.694Z</time></trkpt><trkpt lat="42.8649184" lon="12.5924899"><ele>327.0</ele><time>2026-04-03T14:40:19.693Z</time></trkpt><trkpt lat="42.8647866" lon="12.5928209"><ele>327.0</ele><time>2026-04-03T14:40:20.693Z</time></trkpt><trkpt lat="42.8646616" lon="12.5931593"><ele>327.0</ele><time>2026-04-03T14:40:21.693Z</time></trkpt><trkpt lat="42.8645416" lon="12.5934973"><ele>327.0</ele><time>2026-04-03T14:40:22.694Z</time></trkpt><trkpt lat="42.8644282" lon="12.5938446"><ele>327.0</ele><time>2026-04-03T14:40:23.694Z</time></trkpt><trkpt lat="42.8643131" lon="12.5941896"><ele>327.0</ele><time>2026-04-03T14:40:24.694Z</time></trkpt><trkpt lat="42.8641985" lon="12.5945261"><ele>328.5</ele><time>2026-04-03T14:40:25.694Z</time></trkpt><trkpt lat="42.8640881" lon="12.5948349"><ele>330.0</ele><time>2026-04-03T14:40:26.694Z</time></trkpt><trkpt lat="42.8639828" lon="12.5951123"><ele>329.3333333333333</ele><time>2026-04-03T14:40:27.694Z</time></trkpt><trkpt lat="42.8638607" lon="12.5953609"><ele>328.66666666666663</ele><time>2026-04-03T14:40:28.694Z</time></trkpt><trkpt lat="42.8637157" lon="12.5955889"><ele>328.0</ele><time>2026-04-03T14:40:29.694Z</time></trkpt><trkpt lat="42.863544" lon="12.595795"><ele>327.5</ele><time>2026-04-03T14:40:30.694Z</time></trkpt><trkpt lat="42.8633588" lon="12.5959967"><ele>327.0</ele><time>2026-04-03T14:40:31.694Z</time></trkpt><trkpt lat="42.8631643" lon="12.5962106"><ele>327.0</ele><time>2026-04-03T14:40:32.694Z</time></trkpt><trkpt lat="42.8629651" lon="12.5964414"><ele>327.0</ele><time>2026-04-03T14:40:33.694Z</time></trkpt><trkpt lat="42.8627662" lon="12.5966842"><ele>327.0</ele><time>2026-04-03T14:40:34.694Z</time></trkpt><trkpt lat="42.8625853" lon="12.5969274"><ele>327.0</ele><time>2026-04-03T14:40:35.694Z</time></trkpt><trkpt lat="42.8624279" lon="12.5971717"><ele>327.0</ele><time>2026-04-03T14:40:36.694Z</time></trkpt><trkpt lat="42.8622852" lon="12.5974191"><ele>327.0</ele><time>2026-04-03T14:40:37.693Z</time></trkpt><trkpt lat="42.8621477" lon="12.5976587"><ele>328.0</ele><time>2026-04-03T14:40:38.694Z</time></trkpt><trkpt lat="42.8620115" lon="12.5978874"><ele>329.0</ele><time>2026-04-03T14:40:39.694Z</time></trkpt><trkpt lat="42.8618813" lon="12.5981008"><ele>330.0</ele><time>2026-04-03T14:40:40.694Z</time></trkpt><trkpt lat="42.8617599" lon="12.598306"><ele>331.3333333333333</ele><time>2026-04-03T14:40:41.694Z</time></trkpt><trkpt lat="42.8616392" lon="12.5984926"><ele>332.66666666666663</ele><time>2026-04-03T14:40:42.694Z</time></trkpt><trkpt lat="42.8615224" lon="12.598689"><ele>334.0</ele><time>2026-04-03T14:40:43.694Z</time></trkpt><trkpt lat="42.8613954" lon="12.598904"><ele>334.0</ele><time>2026-04-03T14:40:44.694Z</time></trkpt><trkpt lat="42.8612624" lon="12.5991289"><ele>334.0</ele><time>2026-04-03T14:40:45.694Z</time></trkpt><trkpt lat="42.8611144" lon="12.5993647"><ele>334.0</ele><time>2026-04-03T14:40:46.693Z</time></trkpt><trkpt lat="42.8609605" lon="12.5996131"><ele>334.5</ele><time>2026-04-03T14:40:47.693Z</time></trkpt><trkpt lat="42.860795" lon="12.5998638"><ele>335.0</ele><time>2026-04-03T14:40:48.693Z</time></trkpt><trkpt lat="42.8606296" lon="12.6001306"><ele>334.5</ele><time>2026-04-03T14:40:49.694Z</time></trkpt><trkpt lat="42.8604659" lon="12.600403"><ele>334.0</ele><time>2026-04-03T14:40:50.694Z</time></trkpt><trkpt lat="42.8603" lon="12.6006791"><ele>334.0</ele><time>2026-04-03T14:40:51.693Z</time></trkpt><trkpt lat="42.8601272" lon="12.6009564"><ele>334.0</ele><time>2026-04-03T14:40:52.693Z</time></trkpt><trkpt lat="42.8599523" lon="12.6012355"><ele>335.0</ele><time>2026-04-03T14:40:53.694Z</time></trkpt><trkpt lat="42.859769" lon="12.6015178"><ele>336.0</ele><time>2026-04-03T14:40:54.694Z</time></trkpt><trkpt lat="42.8595839" lon="12.6018172"><ele>336.0</ele><time>2026-04-03T14:40:55.694Z</time></trkpt><trkpt lat="42.8593939" lon="12.6021232"><ele>336.0</ele><time>2026-04-03T14:40:56.693Z</time></trkpt><trkpt lat="42.8592078" lon="12.6024325"><ele>336.0</ele><time>2026-04-03T14:40:57.694Z</time></trkpt><trkpt lat="42.859016" lon="12.6027421"><ele>336.0</ele><time>2026-04-03T14:40:58.693Z</time></trkpt><trkpt lat="42.858827" lon="12.6030508"><ele>335.5</ele><time>2026-04-03T14:40:59.694Z</time></trkpt><trkpt lat="42.8586602" lon="12.603337"><ele>335.0</ele><time>2026-04-03T14:41:00.694Z</time></trkpt><trkpt lat="42.8585006" lon="12.6036015"><ele>336.5</ele><time>2026-04-03T14:41:01.694Z</time></trkpt><trkpt lat="42.8583485" lon="12.6038349"><ele>338.0</ele><time>2026-04-03T14:41:02.694Z</time></trkpt><trkpt lat="42.8580145" lon="12.604245"><ele>338.0</ele><time>2026-04-03T14:41:04.693Z</time></trkpt><trkpt lat="42.8578173" lon="12.60441"><ele>338.0</ele><time>2026-04-03T14:41:05.694Z</time></trkpt><trkpt lat="42.8576088" lon="12.604541"><ele>337.5</ele><time>2026-04-03T14:41:06.694Z</time></trkpt><trkpt lat="42.8573939" lon="12.6046306"><ele>337.0</ele><time>2026-04-03T14:41:07.694Z</time></trkpt><trkpt lat="42.8571549" lon="12.6046746"><ele>337.0</ele><time>2026-04-03T14:41:08.694Z</time></trkpt><trkpt lat="42.8569227" lon="12.6046844"><ele>337.0</ele><time>2026-04-03T14:41:09.694Z</time></trkpt><trkpt lat="42.8566845" lon="12.604644"><ele>336.0</ele><time>2026-04-03T14:41:10.693Z</time></trkpt><trkpt lat="42.8564364" lon="12.6045782"><ele>335.0</ele><time>2026-04-03T14:41:11.694Z</time></trkpt><trkpt lat="42.8561903" lon="12.6045262"><ele>336.33333333333337</ele><time>2026-04-03T14:41:12.694Z</time></trkpt><trkpt lat="42.8559599" lon="12.6044806"><ele>337.6666666666667</ele><time>2026-04-03T14:41:13.694Z</time></trkpt><trkpt lat="42.8557497" lon="12.6044528"><ele>339.0</ele><time>2026-04-03T14:41:14.694Z</time></trkpt><trkpt lat="42.8555774" lon="12.6044653"><ele>338.6666666666667</ele><time>2026-04-03T14:41:15.694Z</time></trkpt><trkpt lat="42.8553955" lon="12.6045351"><ele>338.33333333333337</ele><time>2026-04-03T14:41:16.694Z</time></trkpt><trkpt lat="42.8552079" lon="12.604658"><ele>338.0</ele><time>2026-04-03T14:41:17.694Z</time></trkpt><trkpt lat="42.8550435" lon="12.604834"><ele>338.0</ele><time>2026-04-03T14:41:18.693Z</time></trkpt><trkpt lat="42.8549001" lon="12.6050599"><ele>338.0</ele><time>2026-04-03T14:41:19.693Z</time></trkpt><trkpt lat="42.8547625" lon="12.6053068"><ele>338.0</ele><time>2026-04-03T14:41:20.693Z</time></trkpt><trkpt lat="42.8546028" lon="12.605559"><ele>338.5</ele><time>2026-04-03T14:41:21.694Z</time></trkpt><trkpt lat="42.8544254" lon="12.6058121"><ele>339.0</ele><time>2026-04-03T14:41:22.694Z</time></trkpt><trkpt lat="42.8542516" lon="12.6060352"><ele>340.0</ele><time>2026-04-03T14:41:23.693Z</time></trkpt><trkpt lat="42.8540967" lon="12.6062343"><ele>341.0</ele><time>2026-04-03T14:41:24.694Z</time></trkpt><trkpt lat="42.8539512" lon="12.6064159"><ele>342.0</ele><time>2026-04-03T14:41:25.694Z</time></trkpt><trkpt lat="42.8538075" lon="12.6065908"><ele>342.0</ele><time>2026-04-03T14:41:26.694Z</time></trkpt><trkpt lat="42.8536568" lon="12.6067681"><ele>342.0</ele><time>2026-04-03T14:41:27.694Z</time></trkpt><trkpt lat="42.853502" lon="12.6069471"><ele>342.0</ele><time>2026-04-03T14:41:28.693Z</time></trkpt><trkpt lat="42.8533437" lon="12.6071344"><ele>339.6666666666667</ele><time>2026-04-03T14:41:29.693Z</time></trkpt><trkpt lat="42.8531954" lon="12.6073104"><ele>337.33333333333337</ele><time>2026-04-03T14:41:30.694Z</time></trkpt><trkpt lat="42.8530551" lon="12.6074879"><ele>335.0</ele><time>2026-04-03T14:41:31.694Z</time></trkpt><trkpt lat="42.8529278" lon="12.6076871"><ele>334.0</ele><time>2026-04-03T14:41:32.694Z</time></trkpt><trkpt lat="42.8528249" lon="12.6078887"><ele>333.0</ele><time>2026-04-03T14:41:33.694Z</time></trkpt><trkpt lat="42.8527652" lon="12.6081201"><ele>332.0</ele><time>2026-04-03T14:41:34.693Z</time></trkpt><trkpt lat="42.8527092" lon="12.6083478"><ele>332.0</ele><time>2026-04-03T14:41:35.694Z</time></trkpt><trkpt lat="42.8526625" lon="12.6085799"><ele>332.0</ele><time>2026-04-03T14:41:36.693Z</time></trkpt><trkpt lat="42.8526163" lon="12.6088133"><ele>332.0</ele><time>2026-04-03T14:41:37.694Z</time></trkpt><trkpt lat="42.8525789" lon="12.6090256"><ele>332.33333333333337</ele><time>2026-04-03T14:41:38.694Z</time></trkpt><trkpt lat="42.8525472" lon="12.6092358"><ele>332.6666666666667</ele><time>2026-04-03T14:41:39.694Z</time></trkpt><trkpt lat="42.8525411" lon="12.6094557"><ele>333.0</ele><time>2026-04-03T14:41:40.693Z</time></trkpt><trkpt lat="42.8525596" lon="12.6096799"><ele>333.0</ele><time>2026-04-03T14:41:41.694Z</time></trkpt><trkpt lat="42.852593" lon="12.6098926"><ele>333.0</ele><time>2026-04-03T14:41:42.694Z</time></trkpt><trkpt lat="42.8526314" lon="12.6100915"><ele>333.0</ele><time>2026-04-03T14:41:43.693Z</time></trkpt><trkpt lat="42.8526698" lon="12.6102878"><ele>333.6666666666667</ele><time>2026-04-03T14:41:44.694Z</time></trkpt><trkpt lat="42.8527118" lon="12.6104839"><ele>334.33333333333337</ele><time>2026-04-03T14:41:45.694Z</time></trkpt><trkpt lat="42.8527473" lon="12.6106815"><ele>335.0</ele><time>2026-04-03T14:41:46.694Z</time></trkpt><trkpt lat="42.8527935" lon="12.610887"><ele>335.0</ele><time>2026-04-03T14:41:47.694Z</time></trkpt><trkpt lat="42.8528373" lon="12.6111012"><ele>335.0</ele><time>2026-04-03T14:41:48.694Z</time></trkpt><trkpt lat="42.8528774" lon="12.6113115"><ele>335.0</ele><time>2026-04-03T14:41:49.694Z</time></trkpt><trkpt lat="42.8528997" lon="12.611485"><ele>335.8</ele><time>2026-04-03T14:41:50.694Z</time></trkpt><trkpt lat="42.8529023" lon="12.6116153"><ele>336.6</ele><time>2026-04-03T14:41:51.694Z</time></trkpt><trkpt lat="42.852904" lon="12.611707"><ele>337.4</ele><time>2026-04-03T14:41:52.694Z</time></trkpt><trkpt lat="42.8528953" lon="12.6118375"><ele>338.2</ele><time>2026-04-03T14:41:54.693Z</time></trkpt><trkpt lat="42.8528897" lon="12.6119544"><ele>339.0</ele><time>2026-04-03T14:41:56.694Z</time></trkpt><trkpt lat="42.8528551" lon="12.6121067"><ele>340.0</ele><time>2026-04-03T14:42:10.694Z</time></trkpt><trkpt lat="42.8528318" lon="12.6122396"><ele>341.0</ele><time>2026-04-03T14:42:11.694Z</time></trkpt><trkpt lat="42.8528094" lon="12.6124072"><ele>342.0</ele><time>2026-04-03T14:42:12.693Z</time></trkpt><trkpt lat="42.8527832" lon="12.6126119"><ele>343.0</ele><time>2026-04-03T14:42:13.694Z</time></trkpt><trkpt lat="42.8527497" lon="12.6128609"><ele>343.3333333333333</ele><time>2026-04-03T14:42:14.693Z</time></trkpt><trkpt lat="42.8526985" lon="12.6131207"><ele>343.6666666666667</ele><time>2026-04-03T14:42:15.694Z</time></trkpt><trkpt lat="42.8526394" lon="12.6133933"><ele>344.0</ele><time>2026-04-03T14:42:16.694Z</time></trkpt><trkpt lat="42.8525607" lon="12.6136596"><ele>343.33333333333337</ele><time>2026-04-03T14:42:17.694Z</time></trkpt><trkpt lat="42.8524519" lon="12.613908"><ele>342.6666666666667</ele><time>2026-04-03T14:42:18.694Z</time></trkpt><trkpt lat="42.8523173" lon="12.6141256"><ele>342.0</ele><time>2026-04-03T14:42:19.693Z</time></trkpt><trkpt lat="42.8521682" lon="12.6143091"><ele>342.0</ele><time>2026-04-03T14:42:20.694Z</time></trkpt><trkpt lat="42.8519953" lon="12.6144559"><ele>342.0</ele><time>2026-04-03T14:42:21.694Z</time></trkpt><trkpt lat="42.8518092" lon="12.6145849"><ele>342.0</ele><time>2026-04-03T14:42:22.694Z</time></trkpt><trkpt lat="42.8516326" lon="12.6147149"><ele>341.6666666666667</ele><time>2026-04-03T14:42:23.694Z</time></trkpt><trkpt lat="42.8514827" lon="12.6148651"><ele>341.33333333333337</ele><time>2026-04-03T14:42:24.694Z</time></trkpt><trkpt lat="42.8513666" lon="12.6150535"><ele>341.0</ele><time>2026-04-03T14:42:25.694Z</time></trkpt><trkpt lat="42.8512806" lon="12.6152739"><ele>341.0</ele><time>2026-04-03T14:42:26.694Z</time></trkpt><trkpt lat="42.8512287" lon="12.615533"><ele>341.0</ele><time>2026-04-03T14:42:27.694Z</time></trkpt><trkpt lat="42.8511739" lon="12.6158428"><ele>341.0</ele><time>2026-04-03T14:42:28.693Z</time></trkpt><trkpt lat="42.8511115" lon="12.6161576"><ele>341.5</ele><time>2026-04-03T14:42:29.694Z</time></trkpt><trkpt lat="42.8510333" lon="12.6164681"><ele>342.0</ele><time>2026-04-03T14:42:30.693Z</time></trkpt><trkpt lat="42.8509315" lon="12.6167602"><ele>343.0</ele><time>2026-04-03T14:42:31.693Z</time></trkpt><trkpt lat="42.8508025" lon="12.6170481"><ele>344.0</ele><time>2026-04-03T14:42:32.694Z</time></trkpt><trkpt lat="42.8506507" lon="12.6173547"><ele>344.0</ele><time>2026-04-03T14:42:33.694Z</time></trkpt><trkpt lat="42.8505049" lon="12.6176803"><ele>344.0</ele><time>2026-04-03T14:42:34.694Z</time></trkpt><trkpt lat="42.8503619" lon="12.6179916"><ele>344.0</ele><time>2026-04-03T14:42:35.694Z</time></trkpt><trkpt lat="42.8502228" lon="12.618297"><ele>344.0</ele><time>2026-04-03T14:42:36.694Z</time></trkpt><trkpt lat="42.8500862" lon="12.618605"><ele>344.0</ele><time>2026-04-03T14:42:37.694Z</time></trkpt><trkpt lat="42.8499612" lon="12.6189179"><ele>344.0</ele><time>2026-04-03T14:42:38.693Z</time></trkpt><trkpt lat="42.8498671" lon="12.6192369"><ele>343.5</ele><time>2026-04-03T14:42:39.694Z</time></trkpt><trkpt lat="42.8498018" lon="12.6195585"><ele>343.0</ele><time>2026-04-03T14:42:40.693Z</time></trkpt><trkpt lat="42.8497618" lon="12.6198914"><ele>343.0</ele><time>2026-04-03T14:42:41.693Z</time></trkpt><trkpt lat="42.849743" lon="12.6202463"><ele>343.0</ele><time>2026-04-03T14:42:42.693Z</time></trkpt><trkpt lat="42.849741" lon="12.6206173"><ele>343.0</ele><time>2026-04-03T14:42:43.694Z</time></trkpt><trkpt lat="42.8497484" lon="12.6209782"><ele>343.0</ele><time>2026-04-03T14:42:44.694Z</time></trkpt><trkpt lat="42.8497676" lon="12.6213043"><ele>342.5</ele><time>2026-04-03T14:42:45.693Z</time></trkpt><trkpt lat="42.8497849" lon="12.6216258"><ele>342.0</ele><time>2026-04-03T14:42:46.694Z</time></trkpt><trkpt lat="42.8498143" lon="12.6219409"><ele>340.5</ele><time>2026-04-03T14:42:47.693Z</time></trkpt><trkpt lat="42.8498576" lon="12.6222627"><ele>339.0</ele><time>2026-04-03T14:42:48.693Z</time></trkpt><trkpt lat="42.8499229" lon="12.622591"><ele>337.0</ele><time>2026-04-03T14:42:49.694Z</time></trkpt><trkpt lat="42.8499999" lon="12.622927"><ele>335.0</ele><time>2026-04-03T14:42:50.694Z</time></trkpt><trkpt lat="42.8500739" lon="12.6232525"><ele>335.0</ele><time>2026-04-03T14:42:51.694Z</time></trkpt><trkpt lat="42.8501415" lon="12.6235315"><ele>335.0</ele><time>2026-04-03T14:42:52.694Z</time></trkpt><trkpt lat="42.8502024" lon="12.6237892"><ele>335.0</ele><time>2026-04-03T14:42:53.693Z</time></trkpt><trkpt lat="42.8502571" lon="12.6240209"><ele>334.0</ele><time>2026-04-03T14:42:54.693Z</time></trkpt><trkpt lat="42.8502919" lon="12.6242553"><ele>333.0</ele><time>2026-04-03T14:42:55.693Z</time></trkpt><trkpt lat="42.8502948" lon="12.6244895"><ele>332.0</ele><time>2026-04-03T14:42:56.694Z</time></trkpt><trkpt lat="42.8502654" lon="12.6247223"><ele>332.0</ele><time>2026-04-03T14:42:57.693Z</time></trkpt><trkpt lat="42.8501916" lon="12.6249491"><ele>332.0</ele><time>2026-04-03T14:42:58.694Z</time></trkpt><trkpt lat="42.8501035" lon="12.6251576"><ele>332.0</ele><time>2026-04-03T14:42:59.693Z</time></trkpt><trkpt lat="42.849993" lon="12.6253484"><ele>332.0</ele><time>2026-04-03T14:43:00.694Z</time></trkpt><trkpt lat="42.8498535" lon="12.625519"><ele>332.0</ele><time>2026-04-03T14:43:01.694Z</time></trkpt><trkpt lat="42.8496812" lon="12.6256627"><ele>332.0</ele><time>2026-04-03T14:43:02.694Z</time></trkpt><trkpt lat="42.8494759" lon="12.6257602"><ele>333.5</ele><time>2026-04-03T14:43:03.694Z</time></trkpt><trkpt lat="42.8492401" lon="12.6258247"><ele>335.0</ele><time>2026-04-03T14:43:04.694Z</time></trkpt><trkpt lat="42.8489808" lon="12.6258818"><ele>335.0</ele><time>2026-04-03T14:43:05.694Z</time></trkpt><trkpt lat="42.8487049" lon="12.6259485"><ele>335.0</ele><time>2026-04-03T14:43:06.693Z</time></trkpt><trkpt lat="42.8484243" lon="12.6260268"><ele>335.0</ele><time>2026-04-03T14:43:07.694Z</time></trkpt><trkpt lat="42.8481676" lon="12.6260924"><ele>335.0</ele><time>2026-04-03T14:43:08.694Z</time></trkpt><trkpt lat="42.8479471" lon="12.6261495"><ele>337.0</ele><time>2026-04-03T14:43:09.694Z</time></trkpt><trkpt lat="42.8477629" lon="12.626207"><ele>339.0</ele><time>2026-04-03T14:43:10.693Z</time></trkpt><trkpt lat="42.8476208" lon="12.626268"><ele>341.0</ele><time>2026-04-03T14:43:11.694Z</time></trkpt><trkpt lat="42.8475086" lon="12.6263658"><ele>341.0</ele><time>2026-04-03T14:43:12.693Z</time></trkpt><trkpt lat="42.8474443" lon="12.6265112"><ele>341.0</ele><time>2026-04-03T14:43:13.693Z</time></trkpt><trkpt lat="42.8474175" lon="12.626687"><ele>341.0</ele><time>2026-04-03T14:43:14.694Z</time></trkpt><trkpt lat="42.8474304" lon="12.6268761"><ele>341.0</ele><time>2026-04-03T14:43:15.694Z</time></trkpt><trkpt lat="42.8474986" lon="12.6271057"><ele>342.0</ele><time>2026-04-03T14:43:16.693Z</time></trkpt><trkpt lat="42.847601" lon="12.6273458"><ele>343.0</ele><time>2026-04-03T14:43:17.693Z</time></trkpt><trkpt lat="42.8476923" lon="12.6276035"><ele>344.0</ele><time>2026-04-03T14:43:18.694Z</time></trkpt><trkpt lat="42.8477335" lon="12.6278496"><ele>344.33333333333337</ele><time>2026-04-03T14:43:19.694Z</time></trkpt><trkpt lat="42.8477341" lon="12.6281125"><ele>344.6666666666667</ele><time>2026-04-03T14:43:20.693Z</time></trkpt><trkpt lat="42.847697" lon="12.628395"><ele>345.0</ele><time>2026-04-03T14:43:21.693Z</time></trkpt><trkpt lat="42.8476225" lon="12.6287155"><ele>347.0</ele><time>2026-04-03T14:43:22.694Z</time></trkpt><trkpt lat="42.8475272" lon="12.6290652"><ele>349.0</ele><time>2026-04-03T14:43:23.694Z</time></trkpt><trkpt lat="42.8474264" lon="12.6294366"><ele>347.0</ele><time>2026-04-03T14:43:24.693Z</time></trkpt><trkpt lat="42.847329" lon="12.6298229"><ele>345.0</ele><time>2026-04-03T14:43:25.694Z</time></trkpt><trkpt lat="42.8472303" lon="12.6302058"><ele>344.0</ele><time>2026-04-03T14:43:26.693Z</time></trkpt><trkpt lat="42.8471333" lon="12.6305775"><ele>343.0</ele><time>2026-04-03T14:43:27.694Z</time></trkpt><trkpt lat="42.8470422" lon="12.6309295"><ele>341.5</ele><time>2026-04-03T14:43:28.694Z</time></trkpt><trkpt lat="42.8469558" lon="12.6312695"><ele>340.0</ele><time>2026-04-03T14:43:29.694Z</time></trkpt><trkpt lat="42.8468657" lon="12.631623"><ele>340.5</ele><time>2026-04-03T14:43:30.694Z</time></trkpt><trkpt lat="42.8467767" lon="12.6319838"><ele>341.0</ele><time>2026-04-03T14:43:31.694Z</time></trkpt><trkpt lat="42.8466889" lon="12.6323478"><ele>341.0</ele><time>2026-04-03T14:43:32.693Z</time></trkpt><trkpt lat="42.8466015" lon="12.6327057"><ele>341.0</ele><time>2026-04-03T14:43:33.694Z</time></trkpt><trkpt lat="42.8465155" lon="12.633044"><ele>340.0</ele><time>2026-04-03T14:43:34.694Z</time></trkpt><trkpt lat="42.8464291" lon="12.6333859"><ele>339.0</ele><time>2026-04-03T14:43:35.693Z</time></trkpt><trkpt lat="42.8463432" lon="12.6337259"><ele>338.3333333333333</ele><time>2026-04-03T14:43:36.694Z</time></trkpt><trkpt lat="42.8462642" lon="12.6340261"><ele>337.66666666666663</ele><time>2026-04-03T14:43:37.694Z</time></trkpt><trkpt lat="42.8461924" lon="12.6342973"><ele>337.0</ele><time>2026-04-03T14:43:38.693Z</time></trkpt><trkpt lat="42.8461101" lon="12.6345556"><ele>336.66666666666663</ele><time>2026-04-03T14:43:39.694Z</time></trkpt><trkpt lat="42.8459974" lon="12.6347828"><ele>336.3333333333333</ele><time>2026-04-03T14:43:40.693Z</time></trkpt><trkpt lat="42.8458645" lon="12.6349763"><ele>336.0</ele><time>2026-04-03T14:43:41.693Z</time></trkpt><trkpt lat="42.8457104" lon="12.6351129"><ele>335.6666666666667</ele><time>2026-04-03T14:43:42.694Z</time></trkpt><trkpt lat="42.8455476" lon="12.6352114"><ele>335.33333333333337</ele><time>2026-04-03T14:43:43.693Z</time></trkpt><trkpt lat="42.8453614" lon="12.6352597"><ele>335.0</ele><time>2026-04-03T14:43:44.694Z</time></trkpt><trkpt lat="42.8451616" lon="12.6352595"><ele>334.6666666666667</ele><time>2026-04-03T14:43:45.694Z</time></trkpt><trkpt lat="42.8449698" lon="12.6352608"><ele>334.3333333333333</ele><time>2026-04-03T14:43:46.693Z</time></trkpt><trkpt lat="42.8447764" lon="12.6353027"><ele>334.0</ele><time>2026-04-03T14:43:47.694Z</time></trkpt><trkpt lat="42.8445742" lon="12.6353833"><ele>335.0</ele><time>2026-04-03T14:43:48.694Z</time></trkpt><trkpt lat="42.8443654" lon="12.6355211"><ele>336.0</ele><time>2026-04-03T14:43:49.694Z</time></trkpt><trkpt lat="42.8441346" lon="12.6357032"><ele>336.0</ele><time>2026-04-03T14:43:50.693Z</time></trkpt><trkpt lat="42.8438971" lon="12.6359047"><ele>336.0</ele><time>2026-04-03T14:43:51.694Z</time></trkpt><trkpt lat="42.8436778" lon="12.6360779"><ele>336.5</ele><time>2026-04-03T14:43:52.694Z</time></trkpt><trkpt lat="42.8434802" lon="12.6362431"><ele>337.0</ele><time>2026-04-03T14:43:53.694Z</time></trkpt><trkpt lat="42.8432889" lon="12.6364011"><ele>337.5</ele><time>2026-04-03T14:43:54.694Z</time></trkpt><trkpt lat="42.8431053" lon="12.6365996"><ele>338.0</ele><time>2026-04-03T14:43:55.694Z</time></trkpt><trkpt lat="42.8429312" lon="12.6368339"><ele>338.5</ele><time>2026-04-03T14:43:56.694Z</time></trkpt><trkpt lat="42.8427623" lon="12.6371072"><ele>339.0</ele><time>2026-04-03T14:43:57.693Z</time></trkpt><trkpt lat="42.8425985" lon="12.6374035"><ele>339.0</ele><time>2026-04-03T14:43:58.694Z</time></trkpt><trkpt lat="42.8424434" lon="12.6377448"><ele>339.0</ele><time>2026-04-03T14:43:59.694Z</time></trkpt><trkpt lat="42.8423066" lon="12.6381069"><ele>338.5</ele><time>2026-04-03T14:44:00.694Z</time></trkpt><trkpt lat="42.8421891" lon="12.6384738"><ele>338.0</ele><time>2026-04-03T14:44:01.694Z</time></trkpt><trkpt lat="42.8420788" lon="12.6388453"><ele>337.0</ele><time>2026-04-03T14:44:02.693Z</time></trkpt><trkpt lat="42.8419632" lon="12.639219"><ele>336.0</ele><time>2026-04-03T14:44:03.694Z</time></trkpt><trkpt lat="42.8418606" lon="12.639581"><ele>337.0</ele><time>2026-04-03T14:44:04.694Z</time></trkpt><trkpt lat="42.8417662" lon="12.6399381"><ele>338.0</ele><time>2026-04-03T14:44:05.693Z</time></trkpt><trkpt lat="42.8416964" lon="12.6402785"><ele>339.0</ele><time>2026-04-03T14:44:06.694Z</time></trkpt><trkpt lat="42.8416396" lon="12.6406247"><ele>340.0</ele><time>2026-04-03T14:44:07.694Z</time></trkpt><trkpt lat="42.841603" lon="12.6409649"><ele>339.5</ele><time>2026-04-03T14:44:08.694Z</time></trkpt><trkpt lat="42.8415813" lon="12.6413022"><ele>339.0</ele><time>2026-04-03T14:44:09.693Z</time></trkpt><trkpt lat="42.8415773" lon="12.641622"><ele>339.0</ele><time>2026-04-03T14:44:10.694Z</time></trkpt><trkpt lat="42.8415954" lon="12.6419272"><ele>339.0</ele><time>2026-04-03T14:44:11.694Z</time></trkpt><trkpt lat="42.8416436" lon="12.6422315"><ele>339.5</ele><time>2026-04-03T14:44:12.693Z</time></trkpt><trkpt lat="42.8417333" lon="12.6425616"><ele>340.0</ele><time>2026-04-03T14:44:13.694Z</time></trkpt><trkpt lat="42.8418624" lon="12.6428954"><ele>340.0</ele><time>2026-04-03T14:44:14.693Z</time></trkpt><trkpt lat="42.8420189" lon="12.6432271"><ele>340.0</ele><time>2026-04-03T14:44:15.693Z</time></trkpt><trkpt lat="42.8421819" lon="12.6435301"><ele>341.0</ele><time>2026-04-03T14:44:16.693Z</time></trkpt><trkpt lat="42.8423265" lon="12.6437969"><ele>342.0</ele><time>2026-04-03T14:44:17.693Z</time></trkpt><trkpt lat="42.8424552" lon="12.6440449"><ele>342.0</ele><time>2026-04-03T14:44:18.694Z</time></trkpt><trkpt lat="42.8425776" lon="12.6442841"><ele>342.0</ele><time>2026-04-03T14:44:19.693Z</time></trkpt><trkpt lat="42.8427031" lon="12.6445245"><ele>342.0</ele><time>2026-04-03T14:44:20.693Z</time></trkpt><trkpt lat="42.8428267" lon="12.6447783"><ele>342.5</ele><time>2026-04-03T14:44:21.693Z</time></trkpt><trkpt lat="42.8429493" lon="12.6450377"><ele>343.0</ele><time>2026-04-03T14:44:22.693Z</time></trkpt><trkpt lat="42.8430717" lon="12.6452995"><ele>342.0</ele><time>2026-04-03T14:44:23.694Z</time></trkpt><trkpt lat="42.8431942" lon="12.6455501"><ele>341.0</ele><time>2026-04-03T14:44:24.694Z</time></trkpt><trkpt lat="42.8433232" lon="12.6457897"><ele>340.0</ele><time>2026-04-03T14:44:25.694Z</time></trkpt><trkpt lat="42.8434816" lon="12.6460172"><ele>337.5</ele><time>2026-04-03T14:44:26.693Z</time></trkpt><trkpt lat="42.8436513" lon="12.6462272"><ele>335.0</ele><time>2026-04-03T14:44:27.693Z</time></trkpt><trkpt lat="42.843837" lon="12.6464109"><ele>335.0</ele><time>2026-04-03T14:44:28.694Z</time></trkpt><trkpt lat="42.8440366" lon="12.6465603"><ele>335.0</ele><time>2026-04-03T14:44:29.693Z</time></trkpt><trkpt lat="42.844238" lon="12.6466821"><ele>335.0</ele><time>2026-04-03T14:44:30.693Z</time></trkpt><trkpt lat="42.8444341" lon="12.6467665"><ele>331.33333333333337</ele><time>2026-04-03T14:44:31.694Z</time></trkpt><trkpt lat="42.8446264" lon="12.6468152"><ele>327.6666666666667</ele><time>2026-04-03T14:44:32.693Z</time></trkpt><trkpt lat="42.8448205" lon="12.6468351"><ele>324.0</ele><time>2026-04-03T14:44:33.694Z</time></trkpt><trkpt lat="42.8450047" lon="12.6468511"><ele>323.0</ele><time>2026-04-03T14:44:34.693Z</time></trkpt><trkpt lat="42.845169" lon="12.6468963"><ele>322.0</ele><time>2026-04-03T14:44:35.694Z</time></trkpt><trkpt lat="42.8453305" lon="12.6469825"><ele>321.0</ele><time>2026-04-03T14:44:36.694Z</time></trkpt><trkpt lat="42.8454829" lon="12.6471235"><ele>321.0</ele><time>2026-04-03T14:44:37.694Z</time></trkpt><trkpt lat="42.8456135" lon="12.6473003"><ele>321.0</ele><time>2026-04-03T14:44:38.693Z</time></trkpt><trkpt lat="42.8457316" lon="12.6475144"><ele>321.0</ele><time>2026-04-03T14:44:39.694Z</time></trkpt><trkpt lat="42.8458362" lon="12.6477659"><ele>320.0</ele><time>2026-04-03T14:44:40.694Z</time></trkpt><trkpt lat="42.8459548" lon="12.6480466"><ele>319.0</ele><time>2026-04-03T14:44:41.694Z</time></trkpt><trkpt lat="42.846111" lon="12.6483047"><ele>315.0</ele><time>2026-04-03T14:44:42.694Z</time></trkpt><trkpt lat="42.8462877" lon="12.6485366"><ele>311.0</ele><time>2026-04-03T14:44:43.694Z</time></trkpt><trkpt lat="42.8464598" lon="12.6487485"><ele>311.0</ele><time>2026-04-03T14:44:44.694Z</time></trkpt><trkpt lat="42.8466057" lon="12.6489668"><ele>311.0</ele><time>2026-04-03T14:44:45.693Z</time></trkpt><trkpt lat="42.8467223" lon="12.6492104"><ele>311.0</ele><time>2026-04-03T14:44:46.694Z</time></trkpt><trkpt lat="42.8468164" lon="12.6494883"><ele>309.0</ele><time>2026-04-03T14:44:47.694Z</time></trkpt><trkpt lat="42.8469037" lon="12.6498087"><ele>307.0</ele><time>2026-04-03T14:44:48.694Z</time></trkpt><trkpt lat="42.8469846" lon="12.6501624"><ele>307.5</ele><time>2026-04-03T14:44:49.693Z</time></trkpt><trkpt lat="42.8470817" lon="12.6505463"><ele>308.0</ele><time>2026-04-03T14:44:50.693Z</time></trkpt><trkpt lat="42.8471837" lon="12.6509346"><ele>306.5</ele><time>2026-04-03T14:44:51.694Z</time></trkpt><trkpt lat="42.8472832" lon="12.6513064"><ele>305.0</ele><time>2026-04-03T14:44:52.693Z</time></trkpt><trkpt lat="42.8473756" lon="12.6516723"><ele>303.5</ele><time>2026-04-03T14:44:53.693Z</time></trkpt><trkpt lat="42.8474623" lon="12.652043"><ele>302.0</ele><time>2026-04-03T14:44:54.694Z</time></trkpt><trkpt lat="42.8475533" lon="12.6524066"><ele>299.5</ele><time>2026-04-03T14:44:55.694Z</time></trkpt><trkpt lat="42.8476542" lon="12.6527547"><ele>297.0</ele><time>2026-04-03T14:44:56.694Z</time></trkpt><trkpt lat="42.847772" lon="12.6530908"><ele>297.0</ele><time>2026-04-03T14:44:57.694Z</time></trkpt><trkpt lat="42.8479144" lon="12.6534236"><ele>297.0</ele><time>2026-04-03T14:44:58.694Z</time></trkpt><trkpt lat="42.8480769" lon="12.6537628"><ele>300.0</ele><time>2026-04-03T14:44:59.693Z</time></trkpt><trkpt lat="42.8482392" lon="12.6540996"><ele>303.0</ele><time>2026-04-03T14:45:00.694Z</time></trkpt><trkpt lat="42.8483801" lon="12.6544008"><ele>303.3333333333333</ele><time>2026-04-03T14:45:01.693Z</time></trkpt><trkpt lat="42.8485" lon="12.6546737"><ele>303.66666666666663</ele><time>2026-04-03T14:45:02.694Z</time></trkpt><trkpt lat="42.8485937" lon="12.6549252"><ele>304.0</ele><time>2026-04-03T14:45:03.694Z</time></trkpt><trkpt lat="42.8486513" lon="12.6551831"><ele>304.66666666666663</ele><time>2026-04-03T14:45:04.694Z</time></trkpt><trkpt lat="42.8486857" lon="12.6554668"><ele>305.3333333333333</ele><time>2026-04-03T14:45:05.694Z</time></trkpt><trkpt lat="42.8486885" lon="12.655762"><ele>306.0</ele><time>2026-04-03T14:45:06.694Z</time></trkpt><trkpt lat="42.8486544" lon="12.6560561"><ele>304.5</ele><time>2026-04-03T14:45:07.694Z</time></trkpt><trkpt lat="42.8485837" lon="12.6563532"><ele>303.0</ele><time>2026-04-03T14:45:08.694Z</time></trkpt><trkpt lat="42.8484837" lon="12.6566422"><ele>298.0</ele><time>2026-04-03T14:45:09.694Z</time></trkpt><trkpt lat="42.8483612" lon="12.6569295"><ele>293.0</ele><time>2026-04-03T14:45:10.694Z</time></trkpt><trkpt lat="42.848221" lon="12.6572209"><ele>293.0</ele><time>2026-04-03T14:45:11.693Z</time></trkpt><trkpt lat="42.8480754" lon="12.6574861"><ele>293.0</ele><time>2026-04-03T14:45:12.694Z</time></trkpt><trkpt lat="42.8479077" lon="12.6577185"><ele>293.6666666666667</ele><time>2026-04-03T14:45:13.693Z</time></trkpt><trkpt lat="42.8477334" lon="12.6579242"><ele>294.3333333333333</ele><time>2026-04-03T14:45:14.694Z</time></trkpt><trkpt lat="42.8475747" lon="12.6581087"><ele>295.0</ele><time>2026-04-03T14:45:15.694Z</time></trkpt><trkpt lat="42.8474483" lon="12.6582951"><ele>291.3333333333333</ele><time>2026-04-03T14:45:16.693Z</time></trkpt><trkpt lat="42.8473389" lon="12.6584967"><ele>287.6666666666667</ele><time>2026-04-03T14:45:17.694Z</time></trkpt><trkpt lat="42.8472752" lon="12.6587212"><ele>284.0</ele><time>2026-04-03T14:45:18.694Z</time></trkpt><trkpt lat="42.8472335" lon="12.6589474"><ele>284.0</ele><time>2026-04-03T14:45:19.694Z</time></trkpt><trkpt lat="42.8472456" lon="12.6592273"><ele>284.0</ele><time>2026-04-03T14:45:20.694Z</time></trkpt><trkpt lat="42.8472939" lon="12.6595122"><ele>284.0</ele><time>2026-04-03T14:45:21.694Z</time></trkpt><trkpt lat="42.8473395" lon="12.6598373"><ele>283.0</ele><time>2026-04-03T14:45:22.694Z</time></trkpt><trkpt lat="42.8473724" lon="12.66017"><ele>282.0</ele><time>2026-04-03T14:45:23.694Z</time></trkpt><trkpt lat="42.8473675" lon="12.6604916"><ele>281.0</ele><time>2026-04-03T14:45:24.693Z</time></trkpt><trkpt lat="42.8473479" lon="12.6608236"><ele>280.0</ele><time>2026-04-03T14:45:25.693Z</time></trkpt><trkpt lat="42.8473102" lon="12.6611322"><ele>278.5</ele><time>2026-04-03T14:45:26.694Z</time></trkpt><trkpt lat="42.8472515" lon="12.661432"><ele>277.0</ele><time>2026-04-03T14:45:27.693Z</time></trkpt><trkpt lat="42.8471574" lon="12.6617199"><ele>277.5</ele><time>2026-04-03T14:45:28.694Z</time></trkpt><trkpt lat="42.8470397" lon="12.6619795"><ele>278.0</ele><time>2026-04-03T14:45:29.693Z</time></trkpt><trkpt lat="42.846888" lon="12.6622398"><ele>272.5</ele><time>2026-04-03T14:45:30.694Z</time></trkpt><trkpt lat="42.8467402" lon="12.6625018"><ele>267.0</ele><time>2026-04-03T14:45:31.694Z</time></trkpt><trkpt lat="42.8465907" lon="12.6627951"><ele>267.0</ele><time>2026-04-03T14:45:32.694Z</time></trkpt><trkpt lat="42.8464457" lon="12.6631077"><ele>267.0</ele><time>2026-04-03T14:45:33.694Z</time></trkpt><trkpt lat="42.8462975" lon="12.6634335"><ele>266.5</ele><time>2026-04-03T14:45:34.694Z</time></trkpt><trkpt lat="42.8461642" lon="12.6637657"><ele>266.0</ele><time>2026-04-03T14:45:35.694Z</time></trkpt><trkpt lat="42.8460376" lon="12.6640909"><ele>261.0</ele><time>2026-04-03T14:45:36.693Z</time></trkpt><trkpt lat="42.8459248" lon="12.6644076"><ele>256.0</ele><time>2026-04-03T14:45:37.693Z</time></trkpt><trkpt lat="42.8458114" lon="12.6647201"><ele>256.0</ele><time>2026-04-03T14:45:38.694Z</time></trkpt><trkpt lat="42.8457122" lon="12.6650011"><ele>256.0</ele><time>2026-04-03T14:45:39.694Z</time></trkpt><trkpt lat="42.8456231" lon="12.6652674"><ele>256.0</ele><time>2026-04-03T14:45:40.694Z</time></trkpt><trkpt lat="42.8455436" lon="12.6655207"><ele>256.0</ele><time>2026-04-03T14:45:41.693Z</time></trkpt><trkpt lat="42.8454692" lon="12.6657633"><ele>256.0</ele><time>2026-04-03T14:45:42.694Z</time></trkpt><trkpt lat="42.845417" lon="12.665992"><ele>256.0</ele><time>2026-04-03T14:45:43.693Z</time></trkpt><trkpt lat="42.8453794" lon="12.6662064"><ele>255.25</ele><time>2026-04-03T14:45:44.694Z</time></trkpt><trkpt lat="42.8453559" lon="12.6664154"><ele>254.5</ele><time>2026-04-03T14:45:45.693Z</time></trkpt><trkpt lat="42.845347" lon="12.6666138"><ele>253.75</ele><time>2026-04-03T14:45:46.693Z</time></trkpt><trkpt lat="42.8453538" lon="12.6668083"><ele>253.0</ele><time>2026-04-03T14:45:47.694Z</time></trkpt><trkpt lat="42.8453738" lon="12.6669763"><ele>251.5</ele><time>2026-04-03T14:45:48.693Z</time></trkpt><trkpt lat="42.8453966" lon="12.6671333"><ele>250.0</ele><time>2026-04-03T14:45:49.693Z</time></trkpt><trkpt lat="42.8454187" lon="12.6672782"><ele>248.5</ele><time>2026-04-03T14:45:50.694Z</time></trkpt><trkpt lat="42.8454496" lon="12.6674401"><ele>247.0</ele><time>2026-04-03T14:45:51.693Z</time></trkpt><trkpt lat="42.8454798" lon="12.6676269"><ele>246.5</ele><time>2026-04-03T14:45:52.693Z</time></trkpt><trkpt lat="42.845491" lon="12.667814"><ele>246.0</ele><time>2026-04-03T14:45:53.694Z</time></trkpt><trkpt lat="42.845475" lon="12.6679975"><ele>245.5</ele><time>2026-04-03T14:45:54.693Z</time></trkpt><trkpt lat="42.8454495" lon="12.6681665"><ele>245.0</ele><time>2026-04-03T14:45:55.694Z</time></trkpt><trkpt lat="42.8454157" lon="12.6683133"><ele>245.0</ele><time>2026-04-03T14:45:56.694Z</time></trkpt><trkpt lat="42.8453696" lon="12.6684587"><ele>245.0</ele><time>2026-04-03T14:45:57.694Z</time></trkpt><trkpt lat="42.8453121" lon="12.6686033"><ele>245.0</ele><time>2026-04-03T14:45:58.694Z</time></trkpt><trkpt lat="42.8452467" lon="12.6687467"><ele>245.0</ele><time>2026-04-03T14:45:59.694Z</time></trkpt><trkpt lat="42.8451621" lon="12.6688904"><ele>243.5</ele><time>2026-04-03T14:46:00.694Z</time></trkpt><trkpt lat="42.8450673" lon="12.6690238"><ele>242.0</ele><time>2026-04-03T14:46:01.694Z</time></trkpt><trkpt lat="42.8449613" lon="12.6691404"><ele>240.5</ele><time>2026-04-03T14:46:02.694Z</time></trkpt><trkpt lat="42.8448481" lon="12.6692093"><ele>239.0</ele><time>2026-04-03T14:46:03.694Z</time></trkpt><trkpt lat="42.8447301" lon="12.6692769"><ele>239.0</ele><time>2026-04-03T14:46:04.693Z</time></trkpt><trkpt lat="42.8446053" lon="12.6693456"><ele>239.0</ele><time>2026-04-03T14:46:05.694Z</time></trkpt><trkpt lat="42.844488" lon="12.6694191"><ele>239.0</ele><time>2026-04-03T14:46:06.694Z</time></trkpt><trkpt lat="42.8443726" lon="12.6694967"><ele>239.0</ele><time>2026-04-03T14:46:07.694Z</time></trkpt><trkpt lat="42.8442479" lon="12.6695877"><ele>239.33333333333334</ele><time>2026-04-03T14:46:08.694Z</time></trkpt><trkpt lat="42.8440839" lon="12.6697033"><ele>239.66666666666669</ele><time>2026-04-03T14:46:09.694Z</time></trkpt><trkpt lat="42.8438904" lon="12.6698373"><ele>240.0</ele><time>2026-04-03T14:46:10.694Z</time></trkpt><trkpt lat="42.8436979" lon="12.6699962"><ele>240.0</ele><time>2026-04-03T14:46:11.694Z</time></trkpt><trkpt lat="42.8435321" lon="12.6702019"><ele>240.0</ele><time>2026-04-03T14:46:12.693Z</time></trkpt><trkpt lat="42.8433763" lon="12.6704914"><ele>240.5</ele><time>2026-04-03T14:46:13.693Z</time></trkpt><trkpt lat="42.8432085" lon="12.6708545"><ele>241.0</ele><time>2026-04-03T14:46:14.693Z</time></trkpt><trkpt lat="42.8430695" lon="12.6712357"><ele>241.0</ele><time>2026-04-03T14:46:15.694Z</time></trkpt><trkpt lat="42.8429292" lon="12.6716089"><ele>241.0</ele><time>2026-04-03T14:46:16.693Z</time></trkpt><trkpt lat="42.8428094" lon="12.6719319"><ele>240.5</ele><time>2026-04-03T14:46:17.693Z</time></trkpt><trkpt lat="42.8426937" lon="12.672219"><ele>240.0</ele><time>2026-04-03T14:46:18.694Z</time></trkpt><trkpt lat="42.8425876" lon="12.6724681"><ele>242.0</ele><time>2026-04-03T14:46:19.693Z</time></trkpt><trkpt lat="42.8424635" lon="12.6726771"><ele>244.0</ele><time>2026-04-03T14:46:20.693Z</time></trkpt><trkpt lat="42.842312" lon="12.6728417"><ele>246.0</ele><time>2026-04-03T14:46:21.693Z</time></trkpt><trkpt lat="42.8421515" lon="12.6729732"><ele>246.0</ele><time>2026-04-03T14:46:22.694Z</time></trkpt><trkpt lat="42.8419759" lon="12.6730665"><ele>246.0</ele><time>2026-04-03T14:46:23.694Z</time></trkpt><trkpt lat="42.8417777" lon="12.6731405"><ele>246.0</ele><time>2026-04-03T14:46:24.693Z</time></trkpt><trkpt lat="42.8415439" lon="12.6731902"><ele>247.5</ele><time>2026-04-03T14:46:25.693Z</time></trkpt><trkpt lat="42.8412884" lon="12.6732444"><ele>249.0</ele><time>2026-04-03T14:46:26.693Z</time></trkpt><trkpt lat="42.8410489" lon="12.6732959"><ele>250.0</ele><time>2026-04-03T14:46:27.693Z</time></trkpt><trkpt lat="42.8408402" lon="12.6733389"><ele>251.0</ele><time>2026-04-03T14:46:28.694Z</time></trkpt><trkpt lat="42.8406382" lon="12.6734"><ele>252.0</ele><time>2026-04-03T14:46:29.694Z</time></trkpt><trkpt lat="42.8404395" lon="12.6734947"><ele>250.66666666666669</ele><time>2026-04-03T14:46:30.694Z</time></trkpt><trkpt lat="42.8402577" lon="12.6736447"><ele>249.33333333333334</ele><time>2026-04-03T14:46:31.693Z</time></trkpt><trkpt lat="42.8400716" lon="12.6738333"><ele>248.0</ele><time>2026-04-03T14:46:32.693Z</time></trkpt><trkpt lat="42.8398831" lon="12.6740398"><ele>248.0</ele><time>2026-04-03T14:46:33.694Z</time></trkpt><trkpt lat="42.8396819" lon="12.674264"><ele>248.0</ele><time>2026-04-03T14:46:34.693Z</time></trkpt><trkpt lat="42.8394742" lon="12.6744881"><ele>245.0</ele><time>2026-04-03T14:46:35.694Z</time></trkpt><trkpt lat="42.8392653" lon="12.6747101"><ele>242.0</ele><time>2026-04-03T14:46:36.693Z</time></trkpt><trkpt lat="42.8390651" lon="12.6749256"><ele>242.0</ele><time>2026-04-03T14:46:37.693Z</time></trkpt><trkpt lat="42.8388797" lon="12.6751304"><ele>242.0</ele><time>2026-04-03T14:46:38.693Z</time></trkpt><trkpt lat="42.8386987" lon="12.6753288"><ele>240.66666666666669</ele><time>2026-04-03T14:46:39.694Z</time></trkpt><trkpt lat="42.8385247" lon="12.6755192"><ele>239.33333333333331</ele><time>2026-04-03T14:46:40.693Z</time></trkpt><trkpt lat="42.8383579" lon="12.6756932"><ele>238.0</ele><time>2026-04-03T14:46:41.694Z</time></trkpt><trkpt lat="42.8382004" lon="12.6758641"><ele>238.0</ele><time>2026-04-03T14:46:42.693Z</time></trkpt><trkpt lat="42.8380457" lon="12.6760315"><ele>238.0</ele><time>2026-04-03T14:46:43.693Z</time></trkpt><trkpt lat="42.837889" lon="12.6761969"><ele>238.0</ele><time>2026-04-03T14:46:44.694Z</time></trkpt><trkpt lat="42.8377322" lon="12.6763636"><ele>237.66666666666666</ele><time>2026-04-03T14:46:45.693Z</time></trkpt><trkpt lat="42.8375746" lon="12.6765273"><ele>237.33333333333331</ele><time>2026-04-03T14:46:46.694Z</time></trkpt><trkpt lat="42.8374176" lon="12.6766907"><ele>237.0</ele><time>2026-04-03T14:46:47.693Z</time></trkpt><trkpt lat="42.8372681" lon="12.6768413"><ele>237.0</ele><time>2026-04-03T14:46:48.693Z</time></trkpt><trkpt lat="42.837116" lon="12.6769911"><ele>237.0</ele><time>2026-04-03T14:46:49.694Z</time></trkpt><trkpt lat="42.836955" lon="12.677152"><ele>237.0</ele><time>2026-04-03T14:46:50.694Z</time></trkpt><trkpt lat="42.8367789" lon="12.6773233"><ele>237.0</ele><time>2026-04-03T14:46:51.694Z</time></trkpt><trkpt lat="42.8366041" lon="12.67749"><ele>237.0</ele><time>2026-04-03T14:46:52.693Z</time></trkpt><trkpt lat="42.8364443" lon="12.6776446"><ele>237.0</ele><time>2026-04-03T14:46:53.694Z</time></trkpt><trkpt lat="42.8362868" lon="12.6777957"><ele>237.0</ele><time>2026-04-03T14:46:54.693Z</time></trkpt><trkpt lat="42.8361493" lon="12.6779242"><ele>237.0</ele><time>2026-04-03T14:46:55.693Z</time></trkpt><trkpt lat="42.8360261" lon="12.6780401"><ele>237.0</ele><time>2026-04-03T14:46:56.693Z</time></trkpt><trkpt lat="42.8359135" lon="12.6781476"><ele>237.0</ele><time>2026-04-03T14:46:57.694Z</time></trkpt><trkpt lat="42.835805" lon="12.6782509"><ele>237.0</ele><time>2026-04-03T14:46:58.693Z</time></trkpt><trkpt lat="42.8356973" lon="12.6783612"><ele>237.0</ele><time>2026-04-03T14:46:59.694Z</time></trkpt><trkpt lat="42.8355896" lon="12.6784592"><ele>237.0</ele><time>2026-04-03T14:47:00.694Z</time></trkpt><trkpt lat="42.835485" lon="12.6785676"><ele>237.0</ele><time>2026-04-03T14:47:01.694Z</time></trkpt><trkpt lat="42.8353671" lon="12.6786629"><ele>237.0</ele><time>2026-04-03T14:47:02.694Z</time></trkpt><trkpt lat="42.8352417" lon="12.6787739"><ele>237.0</ele><time>2026-04-03T14:47:03.693Z</time></trkpt><trkpt lat="42.8351191" lon="12.6788953"><ele>237.0</ele><time>2026-04-03T14:47:04.694Z</time></trkpt><trkpt lat="42.8349887" lon="12.6790231"><ele>237.0</ele><time>2026-04-03T14:47:05.694Z</time></trkpt><trkpt lat="42.83485" lon="12.6791613"><ele>237.0</ele><time>2026-04-03T14:47:06.693Z</time></trkpt><trkpt lat="42.8347044" lon="12.6793033"><ele>237.0</ele><time>2026-04-03T14:47:07.694Z</time></trkpt><trkpt lat="42.8345543" lon="12.6794464"><ele>237.0</ele><time>2026-04-03T14:47:08.693Z</time></trkpt><trkpt lat="42.834402" lon="12.6795818"><ele>237.0</ele><time>2026-04-03T14:47:09.693Z</time></trkpt><trkpt lat="42.8342457" lon="12.6796959"><ele>237.0</ele><time>2026-04-03T14:47:10.694Z</time></trkpt><trkpt lat="42.8340736" lon="12.679795"><ele>237.0</ele><time>2026-04-03T14:47:11.693Z</time></trkpt><trkpt lat="42.8338938" lon="12.6798701"><ele>237.0</ele><time>2026-04-03T14:47:12.693Z</time></trkpt><trkpt lat="42.8337092" lon="12.6799269"><ele>237.0</ele><time>2026-04-03T14:47:13.693Z</time></trkpt><trkpt lat="42.8335219" lon="12.6799556"><ele>237.66666666666669</ele><time>2026-04-03T14:47:14.693Z</time></trkpt><trkpt lat="42.8333279" lon="12.6799703"><ele>238.33333333333334</ele><time>2026-04-03T14:47:15.694Z</time></trkpt><trkpt lat="42.8331297" lon="12.6799913"><ele>239.0</ele><time>2026-04-03T14:47:16.693Z</time></trkpt><trkpt lat="42.8329255" lon="12.680014"><ele>239.0</ele><time>2026-04-03T14:47:17.694Z</time></trkpt><trkpt lat="42.8327178" lon="12.6800413"><ele>239.0</ele><time>2026-04-03T14:47:18.694Z</time></trkpt><trkpt lat="42.8325207" lon="12.6800597"><ele>239.0</ele><time>2026-04-03T14:47:19.693Z</time></trkpt><trkpt lat="42.8323279" lon="12.6800768"><ele>238.33333333333334</ele><time>2026-04-03T14:47:20.694Z</time></trkpt><trkpt lat="42.8321332" lon="12.6800978"><ele>237.66666666666669</ele><time>2026-04-03T14:47:21.693Z</time></trkpt><trkpt lat="42.8319381" lon="12.6801195"><ele>237.0</ele><time>2026-04-03T14:47:22.693Z</time></trkpt><trkpt lat="42.8317346" lon="12.6801393"><ele>237.0</ele><time>2026-04-03T14:47:23.693Z</time></trkpt><trkpt lat="42.8315295" lon="12.6801611"><ele>237.0</ele><time>2026-04-03T14:47:24.692Z</time></trkpt><trkpt lat="42.8313256" lon="12.6801833"><ele>237.0</ele><time>2026-04-03T14:47:25.692Z</time></trkpt><trkpt lat="42.8309078" lon="12.6802271"><ele>237.0</ele><time>2026-04-03T14:47:27.693Z</time></trkpt><trkpt lat="42.8306961" lon="12.6802518"><ele>237.0</ele><time>2026-04-03T14:47:28.692Z</time></trkpt><trkpt lat="42.8304895" lon="12.6802771"><ele>237.0</ele><time>2026-04-03T14:47:29.693Z</time></trkpt><trkpt lat="42.8302872" lon="12.6802978"><ele>236.66666666666669</ele><time>2026-04-03T14:47:30.692Z</time></trkpt><trkpt lat="42.8300872" lon="12.6803188"><ele>236.33333333333334</ele><time>2026-04-03T14:47:31.692Z</time></trkpt><trkpt lat="42.8298889" lon="12.6803397"><ele>236.0</ele><time>2026-04-03T14:47:32.693Z</time></trkpt><trkpt lat="42.8296969" lon="12.6803577"><ele>236.0</ele><time>2026-04-03T14:47:33.693Z</time></trkpt><trkpt lat="42.8295007" lon="12.6803783"><ele>236.0</ele><time>2026-04-03T14:47:34.692Z</time></trkpt><trkpt lat="42.8293014" lon="12.6804021"><ele>236.0</ele><time>2026-04-03T14:47:35.693Z</time></trkpt><trkpt lat="42.8291048" lon="12.6804419"><ele>235.66666666666669</ele><time>2026-04-03T14:47:36.693Z</time></trkpt><trkpt lat="42.8289105" lon="12.680505"><ele>235.33333333333331</ele><time>2026-04-03T14:47:37.692Z</time></trkpt><trkpt lat="42.828727" lon="12.6805969"><ele>235.0</ele><time>2026-04-03T14:47:38.693Z</time></trkpt><trkpt lat="42.8285429" lon="12.6807138"><ele>235.33333333333331</ele><time>2026-04-03T14:47:39.693Z</time></trkpt><trkpt lat="42.8283584" lon="12.6808457"><ele>235.66666666666669</ele><time>2026-04-03T14:47:40.693Z</time></trkpt><trkpt lat="42.8281755" lon="12.6809882"><ele>236.0</ele><time>2026-04-03T14:47:41.693Z</time></trkpt><trkpt lat="42.827986" lon="12.6811301"><ele>236.0</ele><time>2026-04-03T14:47:42.693Z</time></trkpt><trkpt lat="42.8277904" lon="12.6812778"><ele>236.0</ele><time>2026-04-03T14:47:43.693Z</time></trkpt><trkpt lat="42.8275902" lon="12.6814249"><ele>236.33333333333334</ele><time>2026-04-03T14:47:44.693Z</time></trkpt><trkpt lat="42.8273945" lon="12.6815698"><ele>236.66666666666669</ele><time>2026-04-03T14:47:45.692Z</time></trkpt><trkpt lat="42.8271969" lon="12.6817154"><ele>237.0</ele><time>2026-04-03T14:47:46.693Z</time></trkpt><trkpt lat="42.8270007" lon="12.6818635"><ele>237.0</ele><time>2026-04-03T14:47:47.692Z</time></trkpt><trkpt lat="42.8268024" lon="12.682014"><ele>237.0</ele><time>2026-04-03T14:47:48.693Z</time></trkpt><trkpt lat="42.8266015" lon="12.6821627"><ele>237.0</ele><time>2026-04-03T14:47:49.692Z</time></trkpt><trkpt lat="42.8264021" lon="12.6823103"><ele>237.0</ele><time>2026-04-03T14:47:50.693Z</time></trkpt><trkpt lat="42.8261991" lon="12.6824592"><ele>237.0</ele><time>2026-04-03T14:47:51.693Z</time></trkpt><trkpt lat="42.8259964" lon="12.6826056"><ele>237.0</ele><time>2026-04-03T14:47:52.692Z</time></trkpt><trkpt lat="42.8257927" lon="12.682756"><ele>235.5</ele><time>2026-04-03T14:47:53.693Z</time></trkpt><trkpt lat="42.8255912" lon="12.6829041"><ele>234.0</ele><time>2026-04-03T14:47:54.693Z</time></trkpt><trkpt lat="42.8253903" lon="12.683053"><ele>234.0</ele><time>2026-04-03T14:47:55.693Z</time></trkpt><trkpt lat="42.8251874" lon="12.6832026"><ele>234.0</ele><time>2026-04-03T14:47:56.692Z</time></trkpt><trkpt lat="42.8249863" lon="12.6833579"><ele>234.0</ele><time>2026-04-03T14:47:57.693Z</time></trkpt><trkpt lat="42.8247793" lon="12.68351"><ele>234.0</ele><time>2026-04-03T14:47:58.692Z</time></trkpt><trkpt lat="42.8245752" lon="12.6836603"><ele>234.0</ele><time>2026-04-03T14:47:59.693Z</time></trkpt><trkpt lat="42.8243717" lon="12.6838132"><ele>234.0</ele><time>2026-04-03T14:48:00.693Z</time></trkpt><trkpt lat="42.8241699" lon="12.683962"><ele>234.33333333333331</ele><time>2026-04-03T14:48:01.692Z</time></trkpt><trkpt lat="42.823971" lon="12.6841121"><ele>234.66666666666666</ele><time>2026-04-03T14:48:02.693Z</time></trkpt><trkpt lat="42.8237785" lon="12.6842622"><ele>235.0</ele><time>2026-04-03T14:48:03.693Z</time></trkpt><trkpt lat="42.8235955" lon="12.6844088"><ele>235.0</ele><time>2026-04-03T14:48:04.693Z</time></trkpt><trkpt lat="42.8234246" lon="12.6845545"><ele>235.0</ele><time>2026-04-03T14:48:05.693Z</time></trkpt><trkpt lat="42.8232601" lon="12.6846981"><ele>235.0</ele><time>2026-04-03T14:48:06.693Z</time></trkpt><trkpt lat="42.8231004" lon="12.6848351"><ele>235.0</ele><time>2026-04-03T14:48:07.692Z</time></trkpt><trkpt lat="42.8229403" lon="12.6849719"><ele>235.0</ele><time>2026-04-03T14:48:08.692Z</time></trkpt><trkpt lat="42.8227786" lon="12.6851086"><ele>235.0</ele><time>2026-04-03T14:48:09.693Z</time></trkpt><trkpt lat="42.8226172" lon="12.6852491"><ele>235.33333333333331</ele><time>2026-04-03T14:48:10.693Z</time></trkpt><trkpt lat="42.8224523" lon="12.6853917"><ele>235.66666666666669</ele><time>2026-04-03T14:48:11.693Z</time></trkpt><trkpt lat="42.8222867" lon="12.6855341"><ele>236.0</ele><time>2026-04-03T14:48:12.692Z</time></trkpt><trkpt lat="42.8221257" lon="12.6856759"><ele>236.0</ele><time>2026-04-03T14:48:13.693Z</time></trkpt><trkpt lat="42.8219722" lon="12.685805"><ele>236.0</ele><time>2026-04-03T14:48:14.693Z</time></trkpt><trkpt lat="42.8218277" lon="12.6859286"><ele>236.0</ele><time>2026-04-03T14:48:15.692Z</time></trkpt><trkpt lat="42.8216941" lon="12.6860389"><ele>236.5</ele><time>2026-04-03T14:48:16.693Z</time></trkpt><trkpt lat="42.8215704" lon="12.6861397"><ele>237.0</ele><time>2026-04-03T14:48:17.693Z</time></trkpt><trkpt lat="42.8214468" lon="12.6862451"><ele>237.5</ele><time>2026-04-03T14:48:18.693Z</time></trkpt><trkpt lat="42.821325" lon="12.6863468"><ele>238.0</ele><time>2026-04-03T14:48:19.693Z</time></trkpt><trkpt lat="42.8212021" lon="12.6864524"><ele>238.0</ele><time>2026-04-03T14:48:20.693Z</time></trkpt><trkpt lat="42.8210822" lon="12.6865512"><ele>238.0</ele><time>2026-04-03T14:48:21.692Z</time></trkpt><trkpt lat="42.8209755" lon="12.6866494"><ele>238.0</ele><time>2026-04-03T14:48:22.692Z</time></trkpt><trkpt lat="42.8208669" lon="12.686738"><ele>238.0</ele><time>2026-04-03T14:48:23.693Z</time></trkpt><trkpt lat="42.8207636" lon="12.6868211"><ele>238.75</ele><time>2026-04-03T14:48:24.692Z</time></trkpt><trkpt lat="42.8205756" lon="12.6869893"><ele>239.5</ele><time>2026-04-03T14:48:26.693Z</time></trkpt><trkpt lat="42.820489" lon="12.6870694"><ele>240.25</ele><time>2026-04-03T14:48:27.692Z</time></trkpt><trkpt lat="42.8203964" lon="12.6871577"><ele>241.0</ele><time>2026-04-03T14:48:28.693Z</time></trkpt><trkpt lat="42.8203143" lon="12.6872825"><ele>241.0</ele><time>2026-04-03T14:48:29.692Z</time></trkpt><trkpt lat="42.8202431" lon="12.6874257"><ele>241.00000000000003</ele><time>2026-04-03T14:48:30.693Z</time></trkpt><trkpt lat="42.8201855" lon="12.6875599"><ele>241.00000000000003</ele><time>2026-04-03T14:48:31.693Z</time></trkpt><trkpt lat="42.8201512" lon="12.6876654"><ele>241.0</ele><time>2026-04-03T14:48:32.693Z</time></trkpt><trkpt lat="42.8201171" lon="12.6877738"><ele>241.0</ele><time>2026-04-03T14:48:33.692Z</time></trkpt><trkpt lat="42.8200926" lon="12.6878994"><ele>241.16666666666666</ele><time>2026-04-03T14:48:34.693Z</time></trkpt><trkpt lat="42.8200714" lon="12.688023"><ele>241.33333333333331</ele><time>2026-04-03T14:48:35.693Z</time></trkpt><trkpt lat="42.8200569" lon="12.6881386"><ele>241.5</ele><time>2026-04-03T14:48:36.692Z</time></trkpt><trkpt lat="42.8200441" lon="12.6882321"><ele>241.66666666666669</ele><time>2026-04-03T14:48:37.693Z</time></trkpt><trkpt lat="42.8200222" lon="12.6883518"><ele>241.83333333333334</ele><time>2026-04-03T14:48:39.692Z</time></trkpt><trkpt lat="42.8200078" lon="12.6884718"><ele>242.0</ele><time>2026-04-03T14:48:41.692Z</time></trkpt><trkpt lat="42.8199767" lon="12.6886357"><ele>242.2</ele><time>2026-04-03T14:48:43.693Z</time></trkpt><trkpt lat="42.8199491" lon="12.6887358"><ele>242.39999999999998</ele><time>2026-04-03T14:48:44.693Z</time></trkpt><trkpt lat="42.8199099" lon="12.6888383"><ele>242.60000000000002</ele><time>2026-04-03T14:48:45.693Z</time></trkpt><trkpt lat="42.8198603" lon="12.6889405"><ele>242.8</ele><time>2026-04-03T14:48:46.693Z</time></trkpt><trkpt lat="42.8198055" lon="12.6890471"><ele>243.0</ele><time>2026-04-03T14:48:47.693Z</time></trkpt><trkpt lat="42.819739" lon="12.6891552"><ele>243.0</ele><time>2026-04-03T14:48:48.692Z</time></trkpt><trkpt lat="42.8196703" lon="12.6892601"><ele>243.0</ele><time>2026-04-03T14:48:49.693Z</time></trkpt><trkpt lat="42.8195959" lon="12.6893641"><ele>243.0</ele><time>2026-04-03T14:48:50.693Z</time></trkpt><trkpt lat="42.8195203" lon="12.6894545"><ele>243.0</ele><time>2026-04-03T14:48:51.692Z</time></trkpt><trkpt lat="42.8194488" lon="12.6895489"><ele>243.0</ele><time>2026-04-03T14:48:52.692Z</time></trkpt><trkpt lat="42.8193714" lon="12.6896429"><ele>242.2</ele><time>2026-04-03T14:48:53.693Z</time></trkpt><trkpt lat="42.8192978" lon="12.689737"><ele>241.4</ele><time>2026-04-03T14:48:54.693Z</time></trkpt><trkpt lat="42.8192202" lon="12.6898297"><ele>240.59999999999997</ele><time>2026-04-03T14:48:55.693Z</time></trkpt><trkpt lat="42.8191379" lon="12.6899261"><ele>239.79999999999998</ele><time>2026-04-03T14:48:56.693Z</time></trkpt><trkpt lat="42.8190526" lon="12.6900341"><ele>239.0</ele><time>2026-04-03T14:48:57.692Z</time></trkpt><trkpt lat="42.8189627" lon="12.6901455"><ele>239.0</ele><time>2026-04-03T14:48:58.692Z</time></trkpt><trkpt lat="42.8188685" lon="12.6902526"><ele>239.0</ele><time>2026-04-03T14:48:59.693Z</time></trkpt><trkpt lat="42.8187748" lon="12.690363"><ele>239.0</ele><time>2026-04-03T14:49:00.692Z</time></trkpt><trkpt lat="42.8186855" lon="12.6904835"><ele>239.0</ele><time>2026-04-03T14:49:01.692Z</time></trkpt><trkpt lat="42.8185913" lon="12.6905983"><ele>238.75</ele><time>2026-04-03T14:49:02.692Z</time></trkpt><trkpt lat="42.818493" lon="12.6907151"><ele>238.5</ele><time>2026-04-03T14:49:03.693Z</time></trkpt><trkpt lat="42.8183945" lon="12.690829"><ele>238.25</ele><time>2026-04-03T14:49:04.692Z</time></trkpt><trkpt lat="42.8182998" lon="12.6909452"><ele>238.0</ele><time>2026-04-03T14:49:05.693Z</time></trkpt><trkpt lat="42.818199" lon="12.6910629"><ele>237.5</ele><time>2026-04-03T14:49:06.693Z</time></trkpt><trkpt lat="42.8181082" lon="12.6911904"><ele>237.0</ele><time>2026-04-03T14:49:07.692Z</time></trkpt><trkpt lat="42.8180111" lon="12.6913091"><ele>236.5</ele><time>2026-04-03T14:49:08.693Z</time></trkpt><trkpt lat="42.8179171" lon="12.6914286"><ele>236.0</ele><time>2026-04-03T14:49:09.693Z</time></trkpt><trkpt lat="42.8178271" lon="12.6915506"><ele>236.0</ele><time>2026-04-03T14:49:10.692Z</time></trkpt><trkpt lat="42.8177386" lon="12.691662"><ele>236.00000000000003</ele><time>2026-04-03T14:49:11.692Z</time></trkpt><trkpt lat="42.81765" lon="12.6917717"><ele>236.00000000000003</ele><time>2026-04-03T14:49:12.692Z</time></trkpt><trkpt lat="42.8175675" lon="12.6918685"><ele>236.0</ele><time>2026-04-03T14:49:13.692Z</time></trkpt><trkpt lat="42.8175025" lon="12.6919527"><ele>236.0</ele><time>2026-04-03T14:49:14.693Z</time></trkpt><trkpt lat="42.8174464" lon="12.6920133"><ele>236.00000000000003</ele><time>2026-04-03T14:49:15.693Z</time></trkpt><trkpt lat="42.8173981" lon="12.6920826"><ele>236.0</ele><time>2026-04-03T14:49:17.692Z</time></trkpt><trkpt lat="42.8173237" lon="12.6920953"><ele>236.0</ele><time>2026-04-03T14:49:26.693Z</time></trkpt><trkpt lat="42.8172603" lon="12.6921216"><ele>236.0</ele><time>2026-04-03T14:49:27.693Z</time></trkpt><trkpt lat="42.8171818" lon="12.6921851"><ele>236.00000000000003</ele><time>2026-04-03T14:49:29.693Z</time></trkpt><trkpt lat="42.8171369" lon="12.692285"><ele>236.0</ele><time>2026-04-03T14:59:01.692Z</time></trkpt><trkpt lat="42.8171278" lon="12.6924442"><ele>236.0</ele><time>2026-04-03T14:59:03.692Z</time></trkpt><trkpt lat="42.817096" lon="12.6925832"><ele>236.00000000000003</ele><time>2026-04-03T14:59:05.692Z</time></trkpt><trkpt lat="42.8170565" lon="12.6926823"><ele>236.00000000000003</ele><time>2026-04-03T14:59:06.691Z</time></trkpt><trkpt lat="42.8169944" lon="12.6928016"><ele>236.0</ele><time>2026-04-03T14:59:07.691Z</time></trkpt><trkpt lat="42.8169158" lon="12.6929376"><ele>236.0</ele><time>2026-04-03T14:59:08.692Z</time></trkpt><trkpt lat="42.8168227" lon="12.6930928"><ele>236.0</ele><time>2026-04-03T14:59:09.692Z</time></trkpt><trkpt lat="42.8167232" lon="12.6932658"><ele>236.0</ele><time>2026-04-03T14:59:10.692Z</time></trkpt><trkpt lat="42.8166139" lon="12.6934583"><ele>236.0</ele><time>2026-04-03T14:59:11.692Z</time></trkpt><trkpt lat="42.8165004" lon="12.693663"><ele>236.0</ele><time>2026-04-03T14:59:12.692Z</time></trkpt><trkpt lat="42.8163754" lon="12.6938687"><ele>236.0</ele><time>2026-04-03T14:59:13.692Z</time></trkpt><trkpt lat="42.8162475" lon="12.6940773"><ele>236.0</ele><time>2026-04-03T14:59:14.692Z</time></trkpt><trkpt lat="42.8161219" lon="12.6942926"><ele>235.33333333333334</ele><time>2026-04-03T14:59:15.691Z</time></trkpt><trkpt lat="42.8159937" lon="12.6945219"><ele>234.66666666666669</ele><time>2026-04-03T14:59:16.691Z</time></trkpt><trkpt lat="42.8158659" lon="12.6947572"><ele>234.0</ele><time>2026-04-03T14:59:17.691Z</time></trkpt><trkpt lat="42.8157276" lon="12.6949958"><ele>234.0</ele><time>2026-04-03T14:59:18.691Z</time></trkpt><trkpt lat="42.8155853" lon="12.6952402"><ele>234.0</ele><time>2026-04-03T14:59:19.692Z</time></trkpt><trkpt lat="42.8154393" lon="12.6954857"><ele>234.0</ele><time>2026-04-03T14:59:20.692Z</time></trkpt><trkpt lat="42.8152926" lon="12.6957387"><ele>234.0</ele><time>2026-04-03T14:59:21.692Z</time></trkpt><trkpt lat="42.8151469" lon="12.6959915"><ele>234.0</ele><time>2026-04-03T14:59:22.691Z</time></trkpt><trkpt lat="42.8150008" lon="12.6962442"><ele>234.0</ele><time>2026-04-03T14:59:23.691Z</time></trkpt><trkpt lat="42.8148569" lon="12.6964933"><ele>234.0</ele><time>2026-04-03T14:59:24.692Z</time></trkpt><trkpt lat="42.814713" lon="12.696744"><ele>234.0</ele><time>2026-04-03T14:59:25.692Z</time></trkpt><trkpt lat="42.8145684" lon="12.6969918"><ele>234.0</ele><time>2026-04-03T14:59:26.692Z</time></trkpt><trkpt lat="42.8144255" lon="12.6972425"><ele>234.0</ele><time>2026-04-03T14:59:27.692Z</time></trkpt><trkpt lat="42.8142835" lon="12.6974889"><ele>234.5</ele><time>2026-04-03T14:59:28.691Z</time></trkpt><trkpt lat="42.8141419" lon="12.6977338"><ele>235.0</ele><time>2026-04-03T14:59:29.692Z</time></trkpt><trkpt lat="42.8139991" lon="12.6979819"><ele>233.5</ele><time>2026-04-03T14:59:30.692Z</time></trkpt><trkpt lat="42.8138568" lon="12.6982283"><ele>232.0</ele><time>2026-04-03T14:59:31.692Z</time></trkpt><trkpt lat="42.8137128" lon="12.6984753"><ele>232.0</ele><time>2026-04-03T14:59:32.692Z</time></trkpt><trkpt lat="42.8135672" lon="12.6987284"><ele>232.0</ele><time>2026-04-03T14:59:33.692Z</time></trkpt><trkpt lat="42.8134203" lon="12.6989834"><ele>232.5</ele><time>2026-04-03T14:59:34.692Z</time></trkpt><trkpt lat="42.8132747" lon="12.6992355"><ele>233.0</ele><time>2026-04-03T14:59:35.691Z</time></trkpt><trkpt lat="42.8131305" lon="12.6994877"><ele>233.0</ele><time>2026-04-03T14:59:36.692Z</time></trkpt><trkpt lat="42.8129833" lon="12.6997412"><ele>233.0</ele><time>2026-04-03T14:59:37.691Z</time></trkpt><trkpt lat="42.8128389" lon="12.6999959"><ele>233.0</ele><time>2026-04-03T14:59:38.691Z</time></trkpt><trkpt lat="42.8126955" lon="12.7002537"><ele>233.0</ele><time>2026-04-03T14:59:39.692Z</time></trkpt><trkpt lat="42.8125466" lon="12.700513"><ele>233.5</ele><time>2026-04-03T14:59:40.692Z</time></trkpt><trkpt lat="42.8124041" lon="12.7007657"><ele>234.0</ele><time>2026-04-03T14:59:41.691Z</time></trkpt><trkpt lat="42.8122581" lon="12.7010131"><ele>233.5</ele><time>2026-04-03T14:59:42.691Z</time></trkpt><trkpt lat="42.8121116" lon="12.7012681"><ele>233.0</ele><time>2026-04-03T14:59:43.692Z</time></trkpt><trkpt lat="42.8119634" lon="12.7015272"><ele>233.5</ele><time>2026-04-03T14:59:44.692Z</time></trkpt><trkpt lat="42.8118129" lon="12.7017877"><ele>234.0</ele><time>2026-04-03T14:59:45.691Z</time></trkpt><trkpt lat="42.8116655" lon="12.702047"><ele>234.0</ele><time>2026-04-03T14:59:46.692Z</time></trkpt><trkpt lat="42.8115153" lon="12.7023077"><ele>234.0</ele><time>2026-04-03T14:59:47.692Z</time></trkpt><trkpt lat="42.8113636" lon="12.7025668"><ele>233.0</ele><time>2026-04-03T14:59:48.692Z</time></trkpt><trkpt lat="42.8112141" lon="12.7028251"><ele>232.0</ele><time>2026-04-03T14:59:49.692Z</time></trkpt><trkpt lat="42.8110631" lon="12.7030847"><ele>232.0</ele><time>2026-04-03T14:59:50.692Z</time></trkpt><trkpt lat="42.8109071" lon="12.7033452"><ele>232.0</ele><time>2026-04-03T14:59:51.692Z</time></trkpt><trkpt lat="42.8107577" lon="12.7036039"><ele>232.0</ele><time>2026-04-03T14:59:52.692Z</time></trkpt><trkpt lat="42.8106093" lon="12.7038657"><ele>232.0</ele><time>2026-04-03T14:59:53.691Z</time></trkpt><trkpt lat="42.8104591" lon="12.7041273"><ele>232.0</ele><time>2026-04-03T14:59:54.691Z</time></trkpt><trkpt lat="42.8103075" lon="12.7043963"><ele>232.0</ele><time>2026-04-03T14:59:55.691Z</time></trkpt><trkpt lat="42.8101581" lon="12.7046667"><ele>233.5</ele><time>2026-04-03T14:59:56.692Z</time></trkpt><trkpt lat="42.8100053" lon="12.7049299"><ele>235.0</ele><time>2026-04-03T14:59:57.692Z</time></trkpt><trkpt lat="42.8098538" lon="12.7051946"><ele>234.5</ele><time>2026-04-03T14:59:58.691Z</time></trkpt><trkpt lat="42.8096998" lon="12.705457"><ele>234.0</ele><time>2026-04-03T14:59:59.692Z</time></trkpt><trkpt lat="42.8095493" lon="12.7057202"><ele>234.0</ele><time>2026-04-03T15:00:00.691Z</time></trkpt><trkpt lat="42.8093974" lon="12.7059806"><ele>234.0</ele><time>2026-04-03T15:00:01.692Z</time></trkpt><trkpt lat="42.8092498" lon="12.7062387"><ele>235.0</ele><time>2026-04-03T15:00:02.691Z</time></trkpt><trkpt lat="42.8091026" lon="12.7064933"><ele>236.0</ele><time>2026-04-03T15:00:03.692Z</time></trkpt><trkpt lat="42.8089563" lon="12.7067439"><ele>235.0</ele><time>2026-04-03T15:00:04.691Z</time></trkpt><trkpt lat="42.8088138" lon="12.7069918"><ele>234.0</ele><time>2026-04-03T15:00:05.692Z</time></trkpt><trkpt lat="42.8086689" lon="12.7072416"><ele>234.0</ele><time>2026-04-03T15:00:06.691Z</time></trkpt><trkpt lat="42.808522" lon="12.7074927"><ele>234.0</ele><time>2026-04-03T15:00:07.692Z</time></trkpt><trkpt lat="42.8083733" lon="12.7077511"><ele>233.5</ele><time>2026-04-03T15:00:08.692Z</time></trkpt><trkpt lat="42.8082219" lon="12.7080124"><ele>233.0</ele><time>2026-04-03T15:00:09.692Z</time></trkpt><trkpt lat="42.8080721" lon="12.7082766"><ele>233.0</ele><time>2026-04-03T15:00:10.692Z</time></trkpt><trkpt lat="42.8079195" lon="12.7085463"><ele>233.0</ele><time>2026-04-03T15:00:11.691Z</time></trkpt><trkpt lat="42.8077636" lon="12.7088206"><ele>233.0</ele><time>2026-04-03T15:00:12.692Z</time></trkpt><trkpt lat="42.8076092" lon="12.7090922"><ele>233.0</ele><time>2026-04-03T15:00:13.691Z</time></trkpt><trkpt lat="42.807452" lon="12.7093582"><ele>232.5</ele><time>2026-04-03T15:00:14.692Z</time></trkpt><trkpt lat="42.8072956" lon="12.7096271"><ele>232.0</ele><time>2026-04-03T15:00:15.692Z</time></trkpt><trkpt lat="42.8071418" lon="12.7098873"><ele>232.0</ele><time>2026-04-03T15:00:16.692Z</time></trkpt><trkpt lat="42.8069852" lon="12.7101263"><ele>232.0</ele><time>2026-04-03T15:00:17.692Z</time></trkpt><trkpt lat="42.8068124" lon="12.7103268"><ele>232.0</ele><time>2026-04-03T15:00:18.691Z</time></trkpt><trkpt lat="42.8066086" lon="12.7104915"><ele>232.0</ele><time>2026-04-03T15:00:19.692Z</time></trkpt><trkpt lat="42.8063958" lon="12.7106126"><ele>232.0</ele><time>2026-04-03T15:00:20.691Z</time></trkpt><trkpt lat="42.8061637" lon="12.7107074"><ele>232.0</ele><time>2026-04-03T15:00:21.692Z</time></trkpt><trkpt lat="42.8059223" lon="12.710791"><ele>232.0</ele><time>2026-04-03T15:00:22.691Z</time></trkpt><trkpt lat="42.8056734" lon="12.7108787"><ele>232.0</ele><time>2026-04-03T15:00:23.691Z</time></trkpt><trkpt lat="42.8054217" lon="12.7109715"><ele>232.0</ele><time>2026-04-03T15:00:24.692Z</time></trkpt><trkpt lat="42.8051686" lon="12.7110644"><ele>232.0</ele><time>2026-04-03T15:00:25.692Z</time></trkpt><trkpt lat="42.8049238" lon="12.7111511"><ele>232.5</ele><time>2026-04-03T15:00:26.691Z</time></trkpt><trkpt lat="42.804681" lon="12.7112407"><ele>233.0</ele><time>2026-04-03T15:00:27.692Z</time></trkpt><trkpt lat="42.8044324" lon="12.71133"><ele>233.5</ele><time>2026-04-03T15:00:28.692Z</time></trkpt><trkpt lat="42.8041852" lon="12.7114219"><ele>234.0</ele><time>2026-04-03T15:00:29.691Z</time></trkpt><trkpt lat="42.8039364" lon="12.7115123"><ele>234.0</ele><time>2026-04-03T15:00:30.692Z</time></trkpt><trkpt lat="42.8036871" lon="12.7115986"><ele>234.0</ele><time>2026-04-03T15:00:31.691Z</time></trkpt><trkpt lat="42.8034443" lon="12.7116843"><ele>235.5</ele><time>2026-04-03T15:00:32.692Z</time></trkpt><trkpt lat="42.8032141" lon="12.7117716"><ele>237.0</ele><time>2026-04-03T15:00:33.692Z</time></trkpt><trkpt lat="42.8029976" lon="12.711853"><ele>236.66666666666669</ele><time>2026-04-03T15:00:34.692Z</time></trkpt><trkpt lat="42.8027886" lon="12.7119276"><ele>236.33333333333334</ele><time>2026-04-03T15:00:35.691Z</time></trkpt><trkpt lat="42.8025773" lon="12.712001"><ele>236.0</ele><time>2026-04-03T15:00:36.691Z</time></trkpt><trkpt lat="42.8023769" lon="12.712075"><ele>236.0</ele><time>2026-04-03T15:00:37.692Z</time></trkpt><trkpt lat="42.802185" lon="12.7121406"><ele>236.0</ele><time>2026-04-03T15:00:38.692Z</time></trkpt><trkpt lat="42.8020011" lon="12.7122078"><ele>236.0</ele><time>2026-04-03T15:00:39.692Z</time></trkpt><trkpt lat="42.8018174" lon="12.712273"><ele>236.33333333333334</ele><time>2026-04-03T15:00:40.691Z</time></trkpt><trkpt lat="42.8016267" lon="12.7123459"><ele>236.66666666666669</ele><time>2026-04-03T15:00:41.691Z</time></trkpt><trkpt lat="42.8014224" lon="12.7124283"><ele>237.0</ele><time>2026-04-03T15:00:42.692Z</time></trkpt><trkpt lat="42.8012105" lon="12.7125124"><ele>237.0</ele><time>2026-04-03T15:00:43.692Z</time></trkpt><trkpt lat="42.8009895" lon="12.7125923"><ele>237.0</ele><time>2026-04-03T15:00:44.691Z</time></trkpt><trkpt lat="42.8007666" lon="12.7126666"><ele>237.0</ele><time>2026-04-03T15:00:45.691Z</time></trkpt><trkpt lat="42.8005444" lon="12.7127356"><ele>237.0</ele><time>2026-04-03T15:00:46.692Z</time></trkpt><trkpt lat="42.8003208" lon="12.7128121"><ele>236.5</ele><time>2026-04-03T15:00:47.692Z</time></trkpt><trkpt lat="42.8000989" lon="12.7128888"><ele>236.0</ele><time>2026-04-03T15:00:48.691Z</time></trkpt><trkpt lat="42.7998808" lon="12.7129635"><ele>236.0</ele><time>2026-04-03T15:00:49.692Z</time></trkpt><trkpt lat="42.7996616" lon="12.7130428"><ele>236.0</ele><time>2026-04-03T15:00:50.692Z</time></trkpt><trkpt lat="42.7994368" lon="12.7131235"><ele>238.0</ele><time>2026-04-03T15:00:51.692Z</time></trkpt><trkpt lat="42.7992157" lon="12.7132002"><ele>240.0</ele><time>2026-04-03T15:00:52.691Z</time></trkpt><trkpt lat="42.7989932" lon="12.7132784"><ele>240.0</ele><time>2026-04-03T15:00:53.692Z</time></trkpt><trkpt lat="42.798773" lon="12.7133589"><ele>240.0</ele><time>2026-04-03T15:00:54.691Z</time></trkpt><trkpt lat="42.7985847" lon="12.7133272"><ele>240.0</ele><time>2026-04-03T15:00:55.692Z</time></trkpt><trkpt lat="42.7983625" lon="12.713409"><ele>239.0</ele><time>2026-04-03T15:00:56.691Z</time></trkpt><trkpt lat="42.7981398" lon="12.713501"><ele>238.0</ele><time>2026-04-03T15:00:57.691Z</time></trkpt><trkpt lat="42.7979163" lon="12.7135894"><ele>238.0</ele><time>2026-04-03T15:00:58.692Z</time></trkpt><trkpt lat="42.7977063" lon="12.7136694"><ele>238.0</ele><time>2026-04-03T15:00:59.691Z</time></trkpt><trkpt lat="42.7974995" lon="12.7137574"><ele>238.0</ele><time>2026-04-03T15:01:00.691Z</time></trkpt><trkpt lat="42.7972993" lon="12.7138408"><ele>238.33333333333331</ele><time>2026-04-03T15:01:01.691Z</time></trkpt><trkpt lat="42.7970992" lon="12.7139169"><ele>238.66666666666669</ele><time>2026-04-03T15:01:02.692Z</time></trkpt><trkpt lat="42.796905" lon="12.7139923"><ele>239.0</ele><time>2026-04-03T15:01:03.691Z</time></trkpt><trkpt lat="42.7967098" lon="12.7140635"><ele>239.33333333333334</ele><time>2026-04-03T15:01:04.691Z</time></trkpt><trkpt lat="42.7965141" lon="12.7141431"><ele>239.66666666666669</ele><time>2026-04-03T15:01:05.692Z</time></trkpt><trkpt lat="42.7963164" lon="12.7142126"><ele>240.0</ele><time>2026-04-03T15:01:06.691Z</time></trkpt><trkpt lat="42.7961156" lon="12.7142821"><ele>240.33333333333331</ele><time>2026-04-03T15:01:07.691Z</time></trkpt><trkpt lat="42.795915" lon="12.7143621"><ele>240.66666666666666</ele><time>2026-04-03T15:01:08.692Z</time></trkpt><trkpt lat="42.7957187" lon="12.7144375"><ele>241.0</ele><time>2026-04-03T15:01:09.692Z</time></trkpt><trkpt lat="42.7955318" lon="12.7145067"><ele>241.0</ele><time>2026-04-03T15:01:10.692Z</time></trkpt><trkpt lat="42.7953441" lon="12.7145854"><ele>241.0</ele><time>2026-04-03T15:01:11.691Z</time></trkpt><trkpt lat="42.7951721" lon="12.7146445"><ele>241.0</ele><time>2026-04-03T15:01:12.692Z</time></trkpt><trkpt lat="42.7950105" lon="12.7147063"><ele>242.0</ele><time>2026-04-03T15:01:13.691Z</time></trkpt><trkpt lat="42.7948438" lon="12.7147636"><ele>243.0</ele><time>2026-04-03T15:01:14.691Z</time></trkpt><trkpt lat="42.7946821" lon="12.7148243"><ele>244.0</ele><time>2026-04-03T15:01:15.692Z</time></trkpt><trkpt lat="42.7945087" lon="12.7148873"><ele>244.33333333333331</ele><time>2026-04-03T15:01:16.692Z</time></trkpt><trkpt lat="42.7943341" lon="12.7149514"><ele>244.66666666666669</ele><time>2026-04-03T15:01:17.692Z</time></trkpt><trkpt lat="42.7941547" lon="12.7150191"><ele>245.0</ele><time>2026-04-03T15:01:18.692Z</time></trkpt><trkpt lat="42.7939778" lon="12.7150881"><ele>245.0</ele><time>2026-04-03T15:01:19.691Z</time></trkpt><trkpt lat="42.7938032" lon="12.7151575"><ele>245.0</ele><time>2026-04-03T15:01:20.691Z</time></trkpt><trkpt lat="42.7936394" lon="12.7152166"><ele>245.0</ele><time>2026-04-03T15:01:21.692Z</time></trkpt><trkpt lat="42.7934696" lon="12.7152833"><ele>245.66666666666669</ele><time>2026-04-03T15:01:22.692Z</time></trkpt><trkpt lat="42.7932832" lon="12.715358"><ele>246.33333333333331</ele><time>2026-04-03T15:01:23.692Z</time></trkpt><trkpt lat="42.7930814" lon="12.7154267"><ele>247.0</ele><time>2026-04-03T15:01:24.692Z</time></trkpt><trkpt lat="42.7928739" lon="12.7155043"><ele>247.5</ele><time>2026-04-03T15:01:25.692Z</time></trkpt><trkpt lat="42.7926279" lon="12.7155858"><ele>248.0</ele><time>2026-04-03T15:01:26.691Z</time></trkpt><trkpt lat="42.7923973" lon="12.7156677"><ele>248.0</ele><time>2026-04-03T15:01:27.691Z</time></trkpt><trkpt lat="42.792163" lon="12.7157488"><ele>248.0</ele><time>2026-04-03T15:01:28.692Z</time></trkpt><trkpt lat="42.7919308" lon="12.715829"><ele>248.5</ele><time>2026-04-03T15:01:29.692Z</time></trkpt><trkpt lat="42.7917068" lon="12.7159084"><ele>249.0</ele><time>2026-04-03T15:01:30.692Z</time></trkpt><trkpt lat="42.7914803" lon="12.7159954"><ele>249.0</ele><time>2026-04-03T15:01:31.691Z</time></trkpt><trkpt lat="42.7912437" lon="12.7160847"><ele>249.0</ele><time>2026-04-03T15:01:32.692Z</time></trkpt><trkpt lat="42.7909989" lon="12.716168"><ele>249.0</ele><time>2026-04-03T15:01:33.692Z</time></trkpt><trkpt lat="42.7907494" lon="12.7162535"><ele>249.0</ele><time>2026-04-03T15:01:34.691Z</time></trkpt><trkpt lat="42.7905064" lon="12.7163363"><ele>249.0</ele><time>2026-04-03T15:01:35.691Z</time></trkpt><trkpt lat="42.790273" lon="12.7164228"><ele>249.0</ele><time>2026-04-03T15:01:36.691Z</time></trkpt><trkpt lat="42.7900534" lon="12.7165116"><ele>249.66666666666669</ele><time>2026-04-03T15:01:37.691Z</time></trkpt><trkpt lat="42.7898369" lon="12.7165978"><ele>250.33333333333334</ele><time>2026-04-03T15:01:38.691Z</time></trkpt><trkpt lat="42.7896304" lon="12.7166871"><ele>251.0</ele><time>2026-04-03T15:01:39.692Z</time></trkpt><trkpt lat="42.7894384" lon="12.7167675"><ele>250.0</ele><time>2026-04-03T15:01:40.692Z</time></trkpt><trkpt lat="42.789268" lon="12.7168335"><ele>249.0</ele><time>2026-04-03T15:01:41.692Z</time></trkpt><trkpt lat="42.7891142" lon="12.7168958"><ele>248.0</ele><time>2026-04-03T15:01:42.692Z</time></trkpt><trkpt lat="42.7889583" lon="12.7169595"><ele>247.66666666666669</ele><time>2026-04-03T15:01:43.691Z</time></trkpt><trkpt lat="42.788806" lon="12.7170181"><ele>247.33333333333331</ele><time>2026-04-03T15:01:44.692Z</time></trkpt><trkpt lat="42.7886548" lon="12.7170767"><ele>247.0</ele><time>2026-04-03T15:01:45.692Z</time></trkpt><trkpt lat="42.7885149" lon="12.7171314"><ele>247.25</ele><time>2026-04-03T15:01:46.692Z</time></trkpt><trkpt lat="42.7883908" lon="12.7171852"><ele>247.5</ele><time>2026-04-03T15:01:47.692Z</time></trkpt><trkpt lat="42.7882807" lon="12.7172304"><ele>247.75</ele><time>2026-04-03T15:01:48.692Z</time></trkpt><trkpt lat="42.7881681" lon="12.7172794"><ele>248.0</ele><time>2026-04-03T15:01:49.692Z</time></trkpt><trkpt lat="42.7880438" lon="12.7173325"><ele>248.0</ele><time>2026-04-03T15:01:50.692Z</time></trkpt><trkpt lat="42.7879057" lon="12.717397"><ele>248.0</ele><time>2026-04-03T15:01:51.692Z</time></trkpt><trkpt lat="42.7877879" lon="12.7174442"><ele>248.0</ele><time>2026-04-03T15:01:52.692Z</time></trkpt><trkpt lat="42.7876674" lon="12.7174798"><ele>248.0</ele><time>2026-04-03T15:01:53.692Z</time></trkpt><trkpt lat="42.7875532" lon="12.7175263"><ele>248.0</ele><time>2026-04-03T15:01:54.692Z</time></trkpt><trkpt lat="42.7874239" lon="12.7175853"><ele>248.0</ele><time>2026-04-03T15:01:55.692Z</time></trkpt><trkpt lat="42.7872767" lon="12.717651"><ele>248.0</ele><time>2026-04-03T15:01:56.692Z</time></trkpt><trkpt lat="42.7871168" lon="12.7177171"><ele>248.0</ele><time>2026-04-03T15:01:57.692Z</time></trkpt><trkpt lat="42.7869668" lon="12.7177126"><ele>248.0</ele><time>2026-04-03T15:01:58.692Z</time></trkpt><trkpt lat="42.786822" lon="12.7177744"><ele>248.0</ele><time>2026-04-03T15:01:59.692Z</time></trkpt><trkpt lat="42.7866843" lon="12.7178389"><ele>248.0</ele><time>2026-04-03T15:02:00.692Z</time></trkpt><trkpt lat="42.7865285" lon="12.7179098"><ele>248.33333333333334</ele><time>2026-04-03T15:02:01.692Z</time></trkpt><trkpt lat="42.786374" lon="12.7179862"><ele>248.66666666666669</ele><time>2026-04-03T15:02:02.691Z</time></trkpt><trkpt lat="42.7862218" lon="12.7180667"><ele>249.0</ele><time>2026-04-03T15:02:03.692Z</time></trkpt><trkpt lat="42.7860576" lon="12.7181643"><ele>250.0</ele><time>2026-04-03T15:02:04.691Z</time></trkpt><trkpt lat="42.785888" lon="12.7182721"><ele>251.0</ele><time>2026-04-03T15:02:05.692Z</time></trkpt><trkpt lat="42.7857181" lon="12.7184007"><ele>252.0</ele><time>2026-04-03T15:02:06.692Z</time></trkpt><trkpt lat="42.7855634" lon="12.7185445"><ele>251.33333333333331</ele><time>2026-04-03T15:02:07.692Z</time></trkpt><trkpt lat="42.7854221" lon="12.7187005"><ele>250.66666666666666</ele><time>2026-04-03T15:02:08.691Z</time></trkpt><trkpt lat="42.7852924" lon="12.7188497"><ele>250.0</ele><time>2026-04-03T15:02:09.692Z</time></trkpt><trkpt lat="42.7851797" lon="12.7189994"><ele>250.0</ele><time>2026-04-03T15:02:10.691Z</time></trkpt><trkpt lat="42.785064" lon="12.7191437"><ele>250.0</ele><time>2026-04-03T15:02:11.691Z</time></trkpt><trkpt lat="42.7849536" lon="12.7192857"><ele>250.0</ele><time>2026-04-03T15:02:12.692Z</time></trkpt><trkpt lat="42.78485" lon="12.7194418"><ele>250.0</ele><time>2026-04-03T15:02:13.692Z</time></trkpt><trkpt lat="42.7847261" lon="12.7196037"><ele>250.0</ele><time>2026-04-03T15:02:14.692Z</time></trkpt><trkpt lat="42.784607" lon="12.7197757"><ele>250.0</ele><time>2026-04-03T15:02:15.692Z</time></trkpt><trkpt lat="42.7844727" lon="12.7199592"><ele>250.0</ele><time>2026-04-03T15:02:16.692Z</time></trkpt><trkpt lat="42.7843651" lon="12.7201063"><ele>250.0</ele><time>2026-04-03T15:02:17.691Z</time></trkpt><trkpt lat="42.7844128" lon="12.7201677"><ele>250.0</ele><time>2026-04-03T15:02:18.691Z</time></trkpt><trkpt lat="42.7842969" lon="12.7203173"><ele>250.0</ele><time>2026-04-03T15:02:19.691Z</time></trkpt><trkpt lat="42.7841771" lon="12.7204667"><ele>250.66666666666666</ele><time>2026-04-03T15:02:20.692Z</time></trkpt><trkpt lat="42.7840538" lon="12.7206144"><ele>251.33333333333331</ele><time>2026-04-03T15:02:21.692Z</time></trkpt><trkpt lat="42.7839368" lon="12.7207703"><ele>252.0</ele><time>2026-04-03T15:02:22.692Z</time></trkpt><trkpt lat="42.7838216" lon="12.7209209"><ele>251.66666666666669</ele><time>2026-04-03T15:02:23.692Z</time></trkpt><trkpt lat="42.7837064" lon="12.7210702"><ele>251.33333333333334</ele><time>2026-04-03T15:02:24.692Z</time></trkpt><trkpt lat="42.7835924" lon="12.7212152"><ele>251.0</ele><time>2026-04-03T15:02:25.692Z</time></trkpt><trkpt lat="42.7834825" lon="12.7213512"><ele>251.66666666666669</ele><time>2026-04-03T15:02:26.692Z</time></trkpt><trkpt lat="42.7833685" lon="12.7214818"><ele>252.33333333333331</ele><time>2026-04-03T15:02:27.692Z</time></trkpt><trkpt lat="42.7832468" lon="12.7215951"><ele>253.0</ele><time>2026-04-03T15:02:28.691Z</time></trkpt><trkpt lat="42.7831084" lon="12.7216919"><ele>253.0</ele><time>2026-04-03T15:02:29.692Z</time></trkpt><trkpt lat="42.7829575" lon="12.7217519"><ele>253.0</ele><time>2026-04-03T15:02:30.692Z</time></trkpt><trkpt lat="42.7828015" lon="12.721785"><ele>253.0</ele><time>2026-04-03T15:02:31.691Z</time></trkpt><trkpt lat="42.7826438" lon="12.7218065"><ele>253.0</ele><time>2026-04-03T15:02:32.692Z</time></trkpt><trkpt lat="42.7824749" lon="12.7218129"><ele>253.0</ele><time>2026-04-03T15:02:33.692Z</time></trkpt><trkpt lat="42.7822931" lon="12.7218215"><ele>253.0</ele><time>2026-04-03T15:02:34.692Z</time></trkpt><trkpt lat="42.7821036" lon="12.7218192"><ele>253.0</ele><time>2026-04-03T15:02:35.691Z</time></trkpt><trkpt lat="42.7819088" lon="12.7218173"><ele>253.0</ele><time>2026-04-03T15:02:36.691Z</time></trkpt><trkpt lat="42.781716" lon="12.7218153"><ele>253.0</ele><time>2026-04-03T15:02:37.691Z</time></trkpt><trkpt lat="42.7815171" lon="12.7218245"><ele>253.0</ele><time>2026-04-03T15:02:38.691Z</time></trkpt><trkpt lat="42.7813096" lon="12.7218334"><ele>253.0</ele><time>2026-04-03T15:02:39.691Z</time></trkpt><trkpt lat="42.7811042" lon="12.7218304"><ele>253.0</ele><time>2026-04-03T15:02:40.692Z</time></trkpt><trkpt lat="42.7808955" lon="12.7218195"><ele>254.0</ele><time>2026-04-03T15:02:41.692Z</time></trkpt><trkpt lat="42.7806879" lon="12.7218101"><ele>255.0</ele><time>2026-04-03T15:02:42.691Z</time></trkpt><trkpt lat="42.7804736" lon="12.7218075"><ele>256.0</ele><time>2026-04-03T15:02:43.692Z</time></trkpt><trkpt lat="42.7802601" lon="12.7218013"><ele>255.33333333333331</ele><time>2026-04-03T15:02:44.692Z</time></trkpt><trkpt lat="42.7800437" lon="12.7217984"><ele>254.66666666666669</ele><time>2026-04-03T15:02:45.692Z</time></trkpt><trkpt lat="42.7798279" lon="12.7217963"><ele>254.0</ele><time>2026-04-03T15:02:46.692Z</time></trkpt><trkpt lat="42.77961" lon="12.7217938"><ele>254.0</ele><time>2026-04-03T15:02:47.692Z</time></trkpt><trkpt lat="42.7793875" lon="12.7217917"><ele>254.0</ele><time>2026-04-03T15:02:48.692Z</time></trkpt><trkpt lat="42.779164" lon="12.72179"><ele>254.0</ele><time>2026-04-03T15:02:49.691Z</time></trkpt><trkpt lat="42.7789429" lon="12.7217854"><ele>254.0</ele><time>2026-04-03T15:02:50.692Z</time></trkpt><trkpt lat="42.7787223" lon="12.7217855"><ele>254.0</ele><time>2026-04-03T15:02:51.692Z</time></trkpt><trkpt lat="42.778503" lon="12.7217856"><ele>254.0</ele><time>2026-04-03T15:02:52.692Z</time></trkpt><trkpt lat="42.7782839" lon="12.7217875"><ele>254.33333333333334</ele><time>2026-04-03T15:02:53.692Z</time></trkpt><trkpt lat="42.7780672" lon="12.7217906"><ele>254.66666666666669</ele><time>2026-04-03T15:02:54.692Z</time></trkpt><trkpt lat="42.7778513" lon="12.7217903"><ele>255.0</ele><time>2026-04-03T15:02:55.691Z</time></trkpt><trkpt lat="42.7776328" lon="12.7217871"><ele>255.0</ele><time>2026-04-03T15:02:56.692Z</time></trkpt><trkpt lat="42.7774191" lon="12.7217876"><ele>255.0</ele><time>2026-04-03T15:02:57.692Z</time></trkpt><trkpt lat="42.7772054" lon="12.7217883"><ele>255.0</ele><time>2026-04-03T15:02:58.691Z</time></trkpt><trkpt lat="42.7769894" lon="12.7217867"><ele>255.66666666666669</ele><time>2026-04-03T15:02:59.691Z</time></trkpt><trkpt lat="42.776777" lon="12.721787"><ele>256.33333333333337</ele><time>2026-04-03T15:03:00.692Z</time></trkpt><trkpt lat="42.7765714" lon="12.7217852"><ele>257.0</ele><time>2026-04-03T15:03:01.691Z</time></trkpt><trkpt lat="42.77637" lon="12.7217839"><ele>257.0</ele><time>2026-04-03T15:03:02.692Z</time></trkpt><trkpt lat="42.7761663" lon="12.7217863"><ele>257.0</ele><time>2026-04-03T15:03:03.692Z</time></trkpt><trkpt lat="42.7759661" lon="12.7217884"><ele>257.0</ele><time>2026-04-03T15:03:04.691Z</time></trkpt><trkpt lat="42.7757687" lon="12.7217855"><ele>257.0</ele><time>2026-04-03T15:03:05.692Z</time></trkpt><trkpt lat="42.7755752" lon="12.7217761"><ele>257.0</ele><time>2026-04-03T15:03:06.691Z</time></trkpt><trkpt lat="42.7753858" lon="12.721777"><ele>257.0</ele><time>2026-04-03T15:03:07.692Z</time></trkpt><trkpt lat="42.7752005" lon="12.7217781"><ele>257.6666666666667</ele><time>2026-04-03T15:03:08.692Z</time></trkpt><trkpt lat="42.7750207" lon="12.721778"><ele>258.3333333333333</ele><time>2026-04-03T15:03:09.691Z</time></trkpt><trkpt lat="42.7748408" lon="12.7217772"><ele>259.0</ele><time>2026-04-03T15:03:10.692Z</time></trkpt><trkpt lat="42.7746653" lon="12.7217791"><ele>259.0</ele><time>2026-04-03T15:03:11.692Z</time></trkpt><trkpt lat="42.7745107" lon="12.7217775"><ele>259.0</ele><time>2026-04-03T15:03:12.692Z</time></trkpt><trkpt lat="42.7743689" lon="12.7217803"><ele>259.0</ele><time>2026-04-03T15:03:13.692Z</time></trkpt><trkpt lat="42.7742291" lon="12.7217817"><ele>259.0</ele><time>2026-04-03T15:03:14.692Z</time></trkpt><trkpt lat="42.7740927" lon="12.7217785"><ele>259.25</ele><time>2026-04-03T15:03:15.692Z</time></trkpt><trkpt lat="42.7739626" lon="12.7217806"><ele>259.5</ele><time>2026-04-03T15:03:16.692Z</time></trkpt><trkpt lat="42.773831" lon="12.7217813"><ele>259.75</ele><time>2026-04-03T15:03:17.691Z</time></trkpt><trkpt lat="42.7736945" lon="12.7217837"><ele>260.0</ele><time>2026-04-03T15:03:18.692Z</time></trkpt><trkpt lat="42.7735632" lon="12.7217838"><ele>260.2</ele><time>2026-04-03T15:03:19.691Z</time></trkpt><trkpt lat="42.7734405" lon="12.7217875"><ele>260.4</ele><time>2026-04-03T15:03:20.692Z</time></trkpt><trkpt lat="42.7733384" lon="12.7217832"><ele>260.6</ele><time>2026-04-03T15:03:21.692Z</time></trkpt><trkpt lat="42.7732414" lon="12.7217829"><ele>260.8</ele><time>2026-04-03T15:03:22.692Z</time></trkpt><trkpt lat="42.7731477" lon="12.7217806"><ele>261.0</ele><time>2026-04-03T15:03:23.691Z</time></trkpt><trkpt lat="42.7730431" lon="12.7217774"><ele>261.0</ele><time>2026-04-03T15:03:24.692Z</time></trkpt><trkpt lat="42.7729331" lon="12.7217806"><ele>261.0</ele><time>2026-04-03T15:03:25.691Z</time></trkpt><trkpt lat="42.7728339" lon="12.7217794"><ele>261.0</ele><time>2026-04-03T15:03:26.691Z</time></trkpt><trkpt lat="42.772739" lon="12.721777"><ele>261.0</ele><time>2026-04-03T15:03:27.691Z</time></trkpt><trkpt lat="42.7726504" lon="12.7217837"><ele>261.0</ele><time>2026-04-03T15:03:28.691Z</time></trkpt><trkpt lat="42.7725593" lon="12.7217831"><ele>260.6</ele><time>2026-04-03T15:03:29.692Z</time></trkpt><trkpt lat="42.7724666" lon="12.7217881"><ele>260.20000000000005</ele><time>2026-04-03T15:03:30.691Z</time></trkpt><trkpt lat="42.7723654" lon="12.721788"><ele>259.79999999999995</ele><time>2026-04-03T15:03:31.691Z</time></trkpt><trkpt lat="42.7722504" lon="12.721797"><ele>259.4</ele><time>2026-04-03T15:03:32.692Z</time></trkpt><trkpt lat="42.7721136" lon="12.7218013"><ele>259.0</ele><time>2026-04-03T15:03:33.691Z</time></trkpt><trkpt lat="42.771954" lon="12.7218101"><ele>259.25</ele><time>2026-04-03T15:03:34.692Z</time></trkpt><trkpt lat="42.771796" lon="12.7218031"><ele>259.5</ele><time>2026-04-03T15:03:35.691Z</time></trkpt><trkpt lat="42.7716555" lon="12.721799"><ele>259.75</ele><time>2026-04-03T15:03:36.691Z</time></trkpt><trkpt lat="42.7715341" lon="12.7218158"><ele>260.0</ele><time>2026-04-03T15:03:37.691Z</time></trkpt><trkpt lat="42.7714131" lon="12.7218063"><ele>260.0</ele><time>2026-04-03T15:03:38.691Z</time></trkpt><trkpt lat="42.7713104" lon="12.7217987"><ele>260.0</ele><time>2026-04-03T15:03:39.691Z</time></trkpt><trkpt lat="42.7712111" lon="12.721797"><ele>260.0</ele><time>2026-04-03T15:03:40.69Z</time></trkpt><trkpt lat="42.7711143" lon="12.7217941"><ele>260.0</ele><time>2026-04-03T15:03:41.69Z</time></trkpt><trkpt lat="42.7710223" lon="12.721788"><ele>260.0</ele><time>2026-04-03T15:03:42.69Z</time></trkpt><trkpt lat="42.7709395" lon="12.7217804"><ele>260.28571428571433</ele><time>2026-04-03T15:03:43.69Z</time></trkpt><trkpt lat="42.7708619" lon="12.7217749"><ele>260.57142857142856</ele><time>2026-04-03T15:03:44.691Z</time></trkpt><trkpt lat="42.7707863" lon="12.7217751"><ele>260.8571428571429</ele><time>2026-04-03T15:03:45.691Z</time></trkpt><trkpt lat="42.7707167" lon="12.7217791"><ele>261.14285714285717</ele><time>2026-04-03T15:03:46.69Z</time></trkpt><trkpt lat="42.7706469" lon="12.721777"><ele>261.42857142857144</ele><time>2026-04-03T15:03:47.691Z</time></trkpt><trkpt lat="42.770579" lon="12.7217765"><ele>261.7142857142857</ele><time>2026-04-03T15:03:48.691Z</time></trkpt><trkpt lat="42.7705059" lon="12.7217758"><ele>262.0</ele><time>2026-04-03T15:03:49.691Z</time></trkpt><trkpt lat="42.7704281" lon="12.721779"><ele>262.0</ele><time>2026-04-03T15:03:50.69Z</time></trkpt><trkpt lat="42.7703482" lon="12.7217811"><ele>262.0</ele><time>2026-04-03T15:03:51.69Z</time></trkpt><trkpt lat="42.7702734" lon="12.721781"><ele>262.0</ele><time>2026-04-03T15:03:52.691Z</time></trkpt><trkpt lat="42.7702034" lon="12.7217806"><ele>262.0</ele><time>2026-04-03T15:03:53.69Z</time></trkpt><trkpt lat="42.7700885" lon="12.7217812"><ele>262.0</ele><time>2026-04-03T15:03:55.691Z</time></trkpt><trkpt lat="42.7699952" lon="12.7217813"><ele>262.0</ele><time>2026-04-03T15:03:57.691Z</time></trkpt><trkpt lat="42.7699294" lon="12.7217901"><ele>262.0</ele><time>2026-04-03T15:03:59.691Z</time></trkpt><trkpt lat="42.7698511" lon="12.7217949"><ele>262.0</ele><time>2026-04-03T15:04:04.69Z</time></trkpt><trkpt lat="42.769768" lon="12.7217783"><ele>262.0</ele><time>2026-04-03T15:04:06.691Z</time></trkpt><trkpt lat="42.7696993" lon="12.7217537"><ele>262.0</ele><time>2026-04-03T15:04:10.691Z</time></trkpt><trkpt lat="42.7696337" lon="12.7216734"><ele>262.0</ele><time>2026-04-03T15:04:12.691Z</time></trkpt><trkpt lat="42.769515" lon="12.7216956"><ele>262.0</ele><time>2026-04-03T15:04:14.691Z</time></trkpt><trkpt lat="42.7694448" lon="12.7217411"><ele>262.0</ele><time>2026-04-03T15:04:15.691Z</time></trkpt><trkpt lat="42.7693601" lon="12.7218132"><ele>262.0</ele><time>2026-04-03T15:04:16.69Z</time></trkpt><trkpt lat="42.7692655" lon="12.7219018"><ele>262.0</ele><time>2026-04-03T15:04:17.691Z</time></trkpt><trkpt lat="42.7691752" lon="12.7220087"><ele>262.0</ele><time>2026-04-03T15:04:18.691Z</time></trkpt><trkpt lat="42.7690847" lon="12.7221379"><ele>261.6</ele><time>2026-04-03T15:04:19.69Z</time></trkpt><trkpt lat="42.7690016" lon="12.7222608"><ele>261.2</ele><time>2026-04-03T15:04:20.691Z</time></trkpt><trkpt lat="42.7689251" lon="12.7223732"><ele>260.8</ele><time>2026-04-03T15:04:21.691Z</time></trkpt><trkpt lat="42.7688562" lon="12.7224687"><ele>260.4</ele><time>2026-04-03T15:04:22.69Z</time></trkpt><trkpt lat="42.7687864" lon="12.7225646"><ele>260.0</ele><time>2026-04-03T15:04:23.691Z</time></trkpt><trkpt lat="42.7687195" lon="12.7226637"><ele>260.4</ele><time>2026-04-03T15:04:24.691Z</time></trkpt><trkpt lat="42.7686562" lon="12.7227628"><ele>260.8</ele><time>2026-04-03T15:04:25.691Z</time></trkpt><trkpt lat="42.7685956" lon="12.7228667"><ele>261.2</ele><time>2026-04-03T15:04:26.691Z</time></trkpt><trkpt lat="42.768535" lon="12.72297"><ele>261.6</ele><time>2026-04-03T15:04:27.69Z</time></trkpt><trkpt lat="42.7684866" lon="12.7230826"><ele>262.0</ele><time>2026-04-03T15:04:28.691Z</time></trkpt><trkpt lat="42.7684413" lon="12.7232048"><ele>262.6</ele><time>2026-04-03T15:04:29.691Z</time></trkpt><trkpt lat="42.7683943" lon="12.7233355"><ele>263.2</ele><time>2026-04-03T15:04:30.691Z</time></trkpt><trkpt lat="42.7683545" lon="12.7234646"><ele>263.8</ele><time>2026-04-03T15:04:31.691Z</time></trkpt><trkpt lat="42.7683106" lon="12.7235812"><ele>264.4</ele><time>2026-04-03T15:04:32.691Z</time></trkpt><trkpt lat="42.7682712" lon="12.7236893"><ele>265.0</ele><time>2026-04-03T15:04:33.691Z</time></trkpt><trkpt lat="42.768229" lon="12.7238005"><ele>265.0</ele><time>2026-04-03T15:04:34.691Z</time></trkpt><trkpt lat="42.7681673" lon="12.7238998"><ele>265.0</ele><time>2026-04-03T15:04:35.691Z</time></trkpt><trkpt lat="42.7680796" lon="12.7239774"><ele>265.0</ele><time>2026-04-03T15:04:36.691Z</time></trkpt><trkpt lat="42.7679873" lon="12.7240215"><ele>265.0</ele><time>2026-04-03T15:04:37.691Z</time></trkpt><trkpt lat="42.7678817" lon="12.7240231"><ele>265.0</ele><time>2026-04-03T15:04:38.691Z</time></trkpt><trkpt lat="42.767773" lon="12.7240008"><ele>265.25</ele><time>2026-04-03T15:04:39.69Z</time></trkpt><trkpt lat="42.7676592" lon="12.7239652"><ele>265.5</ele><time>2026-04-03T15:04:40.691Z</time></trkpt><trkpt lat="42.767542" lon="12.7239299"><ele>265.75</ele><time>2026-04-03T15:04:41.69Z</time></trkpt><trkpt lat="42.7674275" lon="12.7238961"><ele>266.0</ele><time>2026-04-03T15:04:42.69Z</time></trkpt><trkpt lat="42.7673183" lon="12.7238512"><ele>266.0</ele><time>2026-04-03T15:04:43.691Z</time></trkpt><trkpt lat="42.7672198" lon="12.723812"><ele>266.0</ele><time>2026-04-03T15:04:44.69Z</time></trkpt><trkpt lat="42.7671286" lon="12.7237742"><ele>266.0</ele><time>2026-04-03T15:04:45.691Z</time></trkpt><trkpt lat="42.7670412" lon="12.7237315"><ele>266.0</ele><time>2026-04-03T15:04:46.691Z</time></trkpt><trkpt lat="42.7669503" lon="12.7236908"><ele>266.0</ele><time>2026-04-03T15:04:47.69Z</time></trkpt><trkpt lat="42.7668665" lon="12.723658"><ele>265.75</ele><time>2026-04-03T15:04:48.691Z</time></trkpt><trkpt lat="42.7667732" lon="12.7236309"><ele>265.5</ele><time>2026-04-03T15:04:49.691Z</time></trkpt><trkpt lat="42.766658" lon="12.7235983"><ele>265.25</ele><time>2026-04-03T15:04:50.69Z</time></trkpt><trkpt lat="42.766531" lon="12.7235664"><ele>265.0</ele><time>2026-04-03T15:04:51.69Z</time></trkpt><trkpt lat="42.7663728" lon="12.7235145"><ele>264.66666666666663</ele><time>2026-04-03T15:04:52.691Z</time></trkpt><trkpt lat="42.7662042" lon="12.7234614"><ele>264.3333333333333</ele><time>2026-04-03T15:04:53.691Z</time></trkpt><trkpt lat="42.7660213" lon="12.7234271"><ele>264.0</ele><time>2026-04-03T15:04:54.691Z</time></trkpt><trkpt lat="42.7658373" lon="12.7234059"><ele>264.6666666666667</ele><time>2026-04-03T15:04:55.69Z</time></trkpt><trkpt lat="42.7656665" lon="12.7234139"><ele>265.33333333333337</ele><time>2026-04-03T15:04:56.69Z</time></trkpt><trkpt lat="42.7655081" lon="12.7234387"><ele>266.0</ele><time>2026-04-03T15:04:57.691Z</time></trkpt><trkpt lat="42.7653588" lon="12.7234838"><ele>266.0</ele><time>2026-04-03T15:04:58.69Z</time></trkpt><trkpt lat="42.7651978" lon="12.7235515"><ele>266.0</ele><time>2026-04-03T15:04:59.691Z</time></trkpt><trkpt lat="42.7650304" lon="12.7236175"><ele>266.0</ele><time>2026-04-03T15:05:00.69Z</time></trkpt><trkpt lat="42.7648544" lon="12.7236967"><ele>266.6666666666667</ele><time>2026-04-03T15:05:01.69Z</time></trkpt><trkpt lat="42.7646722" lon="12.7237466"><ele>267.3333333333333</ele><time>2026-04-03T15:05:02.691Z</time></trkpt><trkpt lat="42.7644952" lon="12.723804"><ele>268.0</ele><time>2026-04-03T15:05:03.691Z</time></trkpt><trkpt lat="42.7643323" lon="12.7238597"><ele>268.4</ele><time>2026-04-03T15:05:04.69Z</time></trkpt><trkpt lat="42.7641968" lon="12.7239075"><ele>268.8</ele><time>2026-04-03T15:05:05.691Z</time></trkpt><trkpt lat="42.7641086" lon="12.7239544"><ele>269.2</ele><time>2026-04-03T15:05:06.691Z</time></trkpt><trkpt lat="42.7640508" lon="12.7239985"><ele>269.6</ele><time>2026-04-03T15:05:07.69Z</time></trkpt><trkpt lat="42.7640205" lon="12.7241391"><ele>270.0</ele><time>2026-04-03T15:05:09.69Z</time></trkpt><trkpt lat="42.7641174" lon="12.7242628"><ele>270.0</ele><time>2026-04-03T15:05:11.691Z</time></trkpt><trkpt lat="42.7641874" lon="12.7243387"><ele>270.0</ele><time>2026-04-03T15:05:12.691Z</time></trkpt><trkpt lat="42.7642662" lon="12.7244344"><ele>270.0</ele><time>2026-04-03T15:05:13.691Z</time></trkpt><trkpt lat="42.7643505" lon="12.7245376"><ele>270.0</ele><time>2026-04-03T15:05:14.691Z</time></trkpt><trkpt lat="42.7644272" lon="12.7246363"><ele>270.0</ele><time>2026-04-03T15:05:15.691Z</time></trkpt><trkpt lat="42.7644837" lon="12.724713"><ele>269.4</ele><time>2026-04-03T15:05:16.691Z</time></trkpt><trkpt lat="42.7645571" lon="12.7247922"><ele>268.8</ele><time>2026-04-03T15:05:18.691Z</time></trkpt><trkpt lat="42.7646076" lon="12.7248456"><ele>268.2</ele><time>2026-04-03T15:05:19.69Z</time></trkpt><trkpt lat="42.7646717" lon="12.7249264"><ele>267.6</ele><time>2026-04-03T15:05:20.691Z</time></trkpt><trkpt lat="42.7647441" lon="12.7250341"><ele>267.0</ele><time>2026-04-03T15:05:21.69Z</time></trkpt><trkpt lat="42.7648212" lon="12.7251552"><ele>267.4</ele><time>2026-04-03T15:05:22.69Z</time></trkpt><trkpt lat="42.7649001" lon="12.7252732"><ele>267.79999999999995</ele><time>2026-04-03T15:05:23.69Z</time></trkpt><trkpt lat="42.7649699" lon="12.7253811"><ele>268.2</ele><time>2026-04-03T15:05:24.691Z</time></trkpt><trkpt lat="42.7650255" lon="12.7255066"><ele>268.59999999999997</ele><time>2026-04-03T15:05:25.691Z</time></trkpt><trkpt lat="42.7650783" lon="12.7256472"><ele>269.0</ele><time>2026-04-03T15:05:26.691Z</time></trkpt><trkpt lat="42.7651254" lon="12.7257926"><ele>269.0</ele><time>2026-04-03T15:05:27.691Z</time></trkpt><trkpt lat="42.7651653" lon="12.7259309"><ele>269.0</ele><time>2026-04-03T15:05:28.691Z</time></trkpt><trkpt lat="42.7652063" lon="12.7260446"><ele>269.0</ele><time>2026-04-03T15:05:29.691Z</time></trkpt><trkpt lat="42.7652413" lon="12.7261269"><ele>269.0</ele><time>2026-04-03T15:05:30.691Z</time></trkpt><trkpt lat="42.7652685" lon="12.7262267"><ele>269.0</ele><time>2026-04-03T15:05:32.69Z</time></trkpt><trkpt lat="42.7652159" lon="12.726336"><ele>269.0</ele><time>2026-04-03T15:05:34.691Z</time></trkpt><trkpt lat="42.7651647" lon="12.7264001"><ele>269.25</ele><time>2026-04-03T15:05:35.691Z</time></trkpt><trkpt lat="42.7650879" lon="12.7264684"><ele>269.5</ele><time>2026-04-03T15:05:36.691Z</time></trkpt><trkpt lat="42.7649987" lon="12.7265525"><ele>269.75</ele><time>2026-04-03T15:05:37.691Z</time></trkpt><trkpt lat="42.7649001" lon="12.726654"><ele>270.0</ele><time>2026-04-03T15:05:38.691Z</time></trkpt><trkpt lat="42.7647925" lon="12.7267743"><ele>269.3333333333333</ele><time>2026-04-03T15:05:39.69Z</time></trkpt><trkpt lat="42.7646649" lon="12.7269067"><ele>268.66666666666663</ele><time>2026-04-03T15:05:40.691Z</time></trkpt><trkpt lat="42.7645289" lon="12.7270577"><ele>268.0</ele><time>2026-04-03T15:05:41.691Z</time></trkpt><trkpt lat="42.7643872" lon="12.7272119"><ele>268.66666666666663</ele><time>2026-04-03T15:05:42.691Z</time></trkpt><trkpt lat="42.7642511" lon="12.7273536"><ele>269.3333333333333</ele><time>2026-04-03T15:05:43.69Z</time></trkpt><trkpt lat="42.764117" lon="12.7274818"><ele>270.0</ele><time>2026-04-03T15:05:44.691Z</time></trkpt><trkpt lat="42.7639901" lon="12.7276113"><ele>269.6666666666667</ele><time>2026-04-03T15:05:45.691Z</time></trkpt><trkpt lat="42.7638696" lon="12.7277467"><ele>269.33333333333337</ele><time>2026-04-03T15:05:46.691Z</time></trkpt><trkpt lat="42.7637401" lon="12.7278895"><ele>269.0</ele><time>2026-04-03T15:05:47.691Z</time></trkpt><trkpt lat="42.7636036" lon="12.7280391"><ele>270.33333333333337</ele><time>2026-04-03T15:05:48.691Z</time></trkpt><trkpt lat="42.7634555" lon="12.7281972"><ele>271.6666666666667</ele><time>2026-04-03T15:05:49.691Z</time></trkpt><trkpt lat="42.7633004" lon="12.7283562"><ele>273.0</ele><time>2026-04-03T15:05:50.69Z</time></trkpt><trkpt lat="42.7631411" lon="12.7285199"><ele>272.6666666666667</ele><time>2026-04-03T15:05:51.69Z</time></trkpt><trkpt lat="42.7629778" lon="12.7286865"><ele>272.33333333333337</ele><time>2026-04-03T15:05:52.69Z</time></trkpt><trkpt lat="42.7628094" lon="12.7288538"><ele>272.0</ele><time>2026-04-03T15:05:53.69Z</time></trkpt><trkpt lat="42.7626408" lon="12.7290255"><ele>272.0</ele><time>2026-04-03T15:05:54.69Z</time></trkpt><trkpt lat="42.7624709" lon="12.7292052"><ele>272.0</ele><time>2026-04-03T15:05:55.691Z</time></trkpt><trkpt lat="42.7622971" lon="12.7293881"><ele>272.0</ele><time>2026-04-03T15:05:56.691Z</time></trkpt><trkpt lat="42.7621191" lon="12.7295707"><ele>273.0</ele><time>2026-04-03T15:05:57.691Z</time></trkpt><trkpt lat="42.7617669" lon="12.7299328"><ele>274.0</ele><time>2026-04-03T15:05:59.691Z</time></trkpt><trkpt lat="42.7615873" lon="12.7301146"><ele>273.0</ele><time>2026-04-03T15:06:00.691Z</time></trkpt><trkpt lat="42.761409" lon="12.7302934"><ele>272.0</ele><time>2026-04-03T15:06:01.69Z</time></trkpt><trkpt lat="42.7612356" lon="12.7304733"><ele>271.0</ele><time>2026-04-03T15:06:02.691Z</time></trkpt><trkpt lat="42.7610674" lon="12.7306493"><ele>272.3333333333333</ele><time>2026-04-03T15:06:03.69Z</time></trkpt><trkpt lat="42.7609121" lon="12.7308171"><ele>273.6666666666667</ele><time>2026-04-03T15:06:04.691Z</time></trkpt><trkpt lat="42.7607738" lon="12.7309774"><ele>275.0</ele><time>2026-04-03T15:06:05.691Z</time></trkpt><trkpt lat="42.7606454" lon="12.7311182"><ele>275.25</ele><time>2026-04-03T15:06:06.69Z</time></trkpt><trkpt lat="42.7605382" lon="12.731249"><ele>275.5</ele><time>2026-04-03T15:06:07.691Z</time></trkpt><trkpt lat="42.760449" lon="12.731376"><ele>275.75</ele><time>2026-04-03T15:06:08.69Z</time></trkpt><trkpt lat="42.7603669" lon="12.7314959"><ele>276.0</ele><time>2026-04-03T15:06:09.691Z</time></trkpt><trkpt lat="42.7602906" lon="12.7316057"><ele>276.0</ele><time>2026-04-03T15:06:10.69Z</time></trkpt><trkpt lat="42.7602053" lon="12.7317159"><ele>276.0</ele><time>2026-04-03T15:06:11.691Z</time></trkpt><trkpt lat="42.7601131" lon="12.7318164"><ele>276.0</ele><time>2026-04-03T15:06:12.691Z</time></trkpt><trkpt lat="42.7600207" lon="12.7319132"><ele>276.0</ele><time>2026-04-03T15:06:13.691Z</time></trkpt><trkpt lat="42.7599217" lon="12.7320011"><ele>276.5</ele><time>2026-04-03T15:06:14.691Z</time></trkpt><trkpt lat="42.7598179" lon="12.7320902"><ele>277.0</ele><time>2026-04-03T15:06:15.691Z</time></trkpt><trkpt lat="42.759713" lon="12.7321838"><ele>277.5</ele><time>2026-04-03T15:06:16.691Z</time></trkpt><trkpt lat="42.7596133" lon="12.7322715"><ele>278.0</ele><time>2026-04-03T15:06:17.691Z</time></trkpt><trkpt lat="42.7595239" lon="12.7323511"><ele>278.0</ele><time>2026-04-03T15:06:18.69Z</time></trkpt><trkpt lat="42.7594576" lon="12.732416"><ele>278.0</ele><time>2026-04-03T15:06:19.691Z</time></trkpt><trkpt lat="42.7593686" lon="12.7324885"><ele>278.0</ele><time>2026-04-03T15:06:21.691Z</time></trkpt><trkpt lat="42.7592776" lon="12.7325373"><ele>278.0</ele><time>2026-04-03T15:06:24.69Z</time></trkpt><trkpt lat="42.7592183" lon="12.7325817"><ele>278.0</ele><time>2026-04-03T15:06:26.691Z</time></trkpt><trkpt lat="42.759134" lon="12.7326743"><ele>278.2</ele><time>2026-04-03T15:06:29.69Z</time></trkpt><trkpt lat="42.759065" lon="12.7326936"><ele>278.4</ele><time>2026-04-03T15:06:30.69Z</time></trkpt><trkpt lat="42.7589715" lon="12.732716"><ele>278.59999999999997</ele><time>2026-04-03T15:06:31.691Z</time></trkpt><trkpt lat="42.7588587" lon="12.7327432"><ele>278.8</ele><time>2026-04-03T15:06:32.691Z</time></trkpt><trkpt lat="42.7587276" lon="12.7327761"><ele>279.0</ele><time>2026-04-03T15:06:33.69Z</time></trkpt><trkpt lat="42.7585803" lon="12.7328153"><ele>279.3333333333333</ele><time>2026-04-03T15:06:34.69Z</time></trkpt><trkpt lat="42.7584219" lon="12.7328556"><ele>279.66666666666663</ele><time>2026-04-03T15:06:35.69Z</time></trkpt><trkpt lat="42.7582587" lon="12.7329012"><ele>280.0</ele><time>2026-04-03T15:06:36.69Z</time></trkpt><trkpt lat="42.7580905" lon="12.7329478"><ele>280.0</ele><time>2026-04-03T15:06:37.691Z</time></trkpt><trkpt lat="42.7579158" lon="12.7329937"><ele>280.0</ele><time>2026-04-03T15:06:38.691Z</time></trkpt><trkpt lat="42.757742" lon="12.7330468"><ele>280.0</ele><time>2026-04-03T15:06:39.691Z</time></trkpt><trkpt lat="42.7575819" lon="12.7330969"><ele>280.5</ele><time>2026-04-03T15:06:40.69Z</time></trkpt><trkpt lat="42.757427" lon="12.7331398"><ele>281.0</ele><time>2026-04-03T15:06:41.691Z</time></trkpt><trkpt lat="42.7572886" lon="12.7331799"><ele>281.5</ele><time>2026-04-03T15:06:42.691Z</time></trkpt><trkpt lat="42.7571589" lon="12.7332134"><ele>282.0</ele><time>2026-04-03T15:06:43.69Z</time></trkpt><trkpt lat="42.7570564" lon="12.7332592"><ele>282.0</ele><time>2026-04-03T15:06:44.69Z</time></trkpt><trkpt lat="42.7569658" lon="12.7332783"><ele>282.0</ele><time>2026-04-03T15:06:45.691Z</time></trkpt><trkpt lat="42.7568902" lon="12.7332918"><ele>282.0</ele><time>2026-04-03T15:06:46.69Z</time></trkpt><trkpt lat="42.7567679" lon="12.7332623"><ele>282.0</ele><time>2026-04-03T15:06:48.691Z</time></trkpt><trkpt lat="42.7566997" lon="12.7332044"><ele>282.0</ele><time>2026-04-03T15:06:49.69Z</time></trkpt><trkpt lat="42.7566334" lon="12.7331762"><ele>282.0</ele><time>2026-04-03T15:06:50.691Z</time></trkpt><trkpt lat="42.7565646" lon="12.7331735"><ele>282.2857142857143</ele><time>2026-04-03T15:06:51.69Z</time></trkpt><trkpt lat="42.7565017" lon="12.7332051"><ele>282.57142857142856</ele><time>2026-04-03T15:06:52.691Z</time></trkpt><trkpt lat="42.7564562" lon="12.7332673"><ele>282.85714285714283</ele><time>2026-04-03T15:06:53.691Z</time></trkpt><trkpt lat="42.7564318" lon="12.7333514"><ele>283.1428571428571</ele><time>2026-04-03T15:06:54.691Z</time></trkpt><trkpt lat="42.7564222" lon="12.7334575"><ele>283.4285714285714</ele><time>2026-04-03T15:06:55.69Z</time></trkpt><trkpt lat="42.7564104" lon="12.7335724"><ele>283.7142857142857</ele><time>2026-04-03T15:06:56.691Z</time></trkpt><trkpt lat="42.756362" lon="12.7336713"><ele>284.0</ele><time>2026-04-03T15:06:57.691Z</time></trkpt><trkpt lat="42.7562847" lon="12.7337781"><ele>284.75</ele><time>2026-04-03T15:06:58.691Z</time></trkpt><trkpt lat="42.7562037" lon="12.7338782"><ele>285.5</ele><time>2026-04-03T15:06:59.691Z</time></trkpt><trkpt lat="42.7561059" lon="12.7339865"><ele>286.25</ele><time>2026-04-03T15:07:00.69Z</time></trkpt><trkpt lat="42.7559851" lon="12.7340917"><ele>287.0</ele><time>2026-04-03T15:07:01.69Z</time></trkpt><trkpt lat="42.7558447" lon="12.7341958"><ele>287.33333333333337</ele><time>2026-04-03T15:07:02.69Z</time></trkpt><trkpt lat="42.7556968" lon="12.7343092"><ele>287.6666666666667</ele><time>2026-04-03T15:07:03.69Z</time></trkpt><trkpt lat="42.7555493" lon="12.734433"><ele>288.0</ele><time>2026-04-03T15:07:04.691Z</time></trkpt><trkpt lat="42.7554027" lon="12.7345634"><ele>288.6666666666667</ele><time>2026-04-03T15:07:05.69Z</time></trkpt><trkpt lat="42.7552544" lon="12.7347025"><ele>289.33333333333337</ele><time>2026-04-03T15:07:06.691Z</time></trkpt><trkpt lat="42.7551047" lon="12.7348398"><ele>290.0</ele><time>2026-04-03T15:07:07.691Z</time></trkpt><trkpt lat="42.7549445" lon="12.7349753"><ele>290.0</ele><time>2026-04-03T15:07:08.691Z</time></trkpt><trkpt lat="42.7547821" lon="12.7351087"><ele>290.0</ele><time>2026-04-03T15:07:09.691Z</time></trkpt><trkpt lat="42.7546199" lon="12.7352294"><ele>290.0</ele><time>2026-04-03T15:07:10.691Z</time></trkpt><trkpt lat="42.7544501" lon="12.7353383"><ele>293.0</ele><time>2026-04-03T15:07:11.69Z</time></trkpt><trkpt lat="42.7542679" lon="12.7354292"><ele>296.0</ele><time>2026-04-03T15:07:12.69Z</time></trkpt><trkpt lat="42.7540853" lon="12.7355186"><ele>299.0</ele><time>2026-04-03T15:07:13.691Z</time></trkpt><trkpt lat="42.7539044" lon="12.7356121"><ele>299.0</ele><time>2026-04-03T15:07:14.69Z</time></trkpt><trkpt lat="42.7537225" lon="12.7357107"><ele>299.0</ele><time>2026-04-03T15:07:15.69Z</time></trkpt><trkpt lat="42.7535372" lon="12.7358144"><ele>299.0</ele><time>2026-04-03T15:07:16.691Z</time></trkpt><trkpt lat="42.753348" lon="12.735914"><ele>299.6666666666667</ele><time>2026-04-03T15:07:17.69Z</time></trkpt><trkpt lat="42.7531564" lon="12.7360195"><ele>300.3333333333333</ele><time>2026-04-03T15:07:18.69Z</time></trkpt><trkpt lat="42.7529672" lon="12.7361496"><ele>301.0</ele><time>2026-04-03T15:07:19.691Z</time></trkpt><trkpt lat="42.7527852" lon="12.7363064"><ele>303.0</ele><time>2026-04-03T15:07:20.691Z</time></trkpt><trkpt lat="42.7526091" lon="12.7364748"><ele>305.0</ele><time>2026-04-03T15:07:21.691Z</time></trkpt><trkpt lat="42.7524411" lon="12.7366496"><ele>307.0</ele><time>2026-04-03T15:07:22.69Z</time></trkpt><trkpt lat="42.7522754" lon="12.7368253"><ele>308.0</ele><time>2026-04-03T15:07:23.69Z</time></trkpt><trkpt lat="42.7521085" lon="12.7370001"><ele>309.0</ele><time>2026-04-03T15:07:24.691Z</time></trkpt><trkpt lat="42.7519479" lon="12.7371705"><ele>310.0</ele><time>2026-04-03T15:07:25.69Z</time></trkpt><trkpt lat="42.7517861" lon="12.7373359"><ele>310.0</ele><time>2026-04-03T15:07:26.691Z</time></trkpt><trkpt lat="42.7516258" lon="12.7375027"><ele>310.0</ele><time>2026-04-03T15:07:27.691Z</time></trkpt><trkpt lat="42.7514669" lon="12.7376674"><ele>310.0</ele><time>2026-04-03T15:07:28.69Z</time></trkpt><trkpt lat="42.7513109" lon="12.7378297"><ele>310.3333333333333</ele><time>2026-04-03T15:07:29.691Z</time></trkpt><trkpt lat="42.7511586" lon="12.7379876"><ele>310.6666666666667</ele><time>2026-04-03T15:07:30.69Z</time></trkpt><trkpt lat="42.7510117" lon="12.7381352"><ele>311.0</ele><time>2026-04-03T15:07:31.69Z</time></trkpt><trkpt lat="42.7508701" lon="12.7382759"><ele>311.0</ele><time>2026-04-03T15:07:32.691Z</time></trkpt><trkpt lat="42.7507321" lon="12.7384154"><ele>311.0</ele><time>2026-04-03T15:07:33.691Z</time></trkpt><trkpt lat="42.7505994" lon="12.7385393"><ele>311.0</ele><time>2026-04-03T15:07:34.69Z</time></trkpt><trkpt lat="42.750465" lon="12.7386501"><ele>311.75</ele><time>2026-04-03T15:07:35.69Z</time></trkpt><trkpt lat="42.7503381" lon="12.7387547"><ele>312.5</ele><time>2026-04-03T15:07:36.691Z</time></trkpt><trkpt lat="42.750222" lon="12.7388467"><ele>313.25</ele><time>2026-04-03T15:07:37.691Z</time></trkpt><trkpt lat="42.7501086" lon="12.7389302"><ele>314.0</ele><time>2026-04-03T15:07:38.691Z</time></trkpt><trkpt lat="42.7499994" lon="12.7390029"><ele>314.0</ele><time>2026-04-03T15:07:39.691Z</time></trkpt><trkpt lat="42.7498874" lon="12.7390765"><ele>314.0</ele><time>2026-04-03T15:07:40.691Z</time></trkpt><trkpt lat="42.7497778" lon="12.7391446"><ele>314.0</ele><time>2026-04-03T15:07:41.691Z</time></trkpt><trkpt lat="42.7496684" lon="12.7392077"><ele>314.0</ele><time>2026-04-03T15:07:42.691Z</time></trkpt><trkpt lat="42.7495521" lon="12.739269"><ele>314.0</ele><time>2026-04-03T15:07:43.691Z</time></trkpt><trkpt lat="42.7494348" lon="12.7393307"><ele>314.0</ele><time>2026-04-03T15:07:44.69Z</time></trkpt><trkpt lat="42.7493135" lon="12.7393908"><ele>314.0</ele><time>2026-04-03T15:07:45.691Z</time></trkpt><trkpt lat="42.7492006" lon="12.7394402"><ele>314.0</ele><time>2026-04-03T15:07:46.691Z</time></trkpt><trkpt lat="42.7490949" lon="12.7394836"><ele>313.2</ele><time>2026-04-03T15:07:47.691Z</time></trkpt><trkpt lat="42.7490018" lon="12.7395238"><ele>312.4</ele><time>2026-04-03T15:07:48.691Z</time></trkpt><trkpt lat="42.748909" lon="12.7395537"><ele>311.6</ele><time>2026-04-03T15:07:49.691Z</time></trkpt><trkpt lat="42.7488221" lon="12.7395912"><ele>310.8</ele><time>2026-04-03T15:07:50.69Z</time></trkpt><trkpt lat="42.7487297" lon="12.7396268"><ele>310.0</ele><time>2026-04-03T15:07:51.69Z</time></trkpt><trkpt lat="42.7486374" lon="12.7396612"><ele>310.0</ele><time>2026-04-03T15:07:52.691Z</time></trkpt><trkpt lat="42.7485504" lon="12.7396965"><ele>310.0</ele><time>2026-04-03T15:07:53.691Z</time></trkpt><trkpt lat="42.7484629" lon="12.7397276"><ele>310.0</ele><time>2026-04-03T15:07:54.691Z</time></trkpt><trkpt lat="42.7483751" lon="12.7397586"><ele>310.0</ele><time>2026-04-03T15:07:55.69Z</time></trkpt><trkpt lat="42.7482882" lon="12.7397887"><ele>310.0</ele><time>2026-04-03T15:07:56.691Z</time></trkpt><trkpt lat="42.7481976" lon="12.7398172"><ele>310.0</ele><time>2026-04-03T15:07:57.69Z</time></trkpt><trkpt lat="42.748101" lon="12.7398401"><ele>310.0</ele><time>2026-04-03T15:07:58.69Z</time></trkpt><trkpt lat="42.7480088" lon="12.7398656"><ele>310.0</ele><time>2026-04-03T15:07:59.69Z</time></trkpt><trkpt lat="42.747922" lon="12.7398844"><ele>310.0</ele><time>2026-04-03T15:08:00.69Z</time></trkpt><trkpt lat="42.7478413" lon="12.7399011"><ele>310.0</ele><time>2026-04-03T15:08:01.691Z</time></trkpt><trkpt lat="42.747776" lon="12.7399208"><ele>310.0</ele><time>2026-04-03T15:08:02.691Z</time></trkpt><trkpt lat="42.747712" lon="12.7399353"><ele>310.0</ele><time>2026-04-03T15:08:04.69Z</time></trkpt><trkpt lat="42.7476252" lon="12.7399467"><ele>310.0</ele><time>2026-04-03T15:08:07.69Z</time></trkpt><trkpt lat="42.7475035" lon="12.7399565"><ele>310.0</ele><time>2026-04-03T15:08:09.69Z</time></trkpt><trkpt lat="42.7474349" lon="12.7399871"><ele>310.0</ele><time>2026-04-03T15:08:10.69Z</time></trkpt><trkpt lat="42.74738" lon="12.7400424"><ele>310.0</ele><time>2026-04-03T15:08:11.691Z</time></trkpt><trkpt lat="42.7473274" lon="12.740187"><ele>310.6</ele><time>2026-04-03T15:08:13.691Z</time></trkpt><trkpt lat="42.7473575" lon="12.740343"><ele>311.2</ele><time>2026-04-03T15:08:15.691Z</time></trkpt><trkpt lat="42.7473846" lon="12.7404207"><ele>311.8</ele><time>2026-04-03T15:08:16.69Z</time></trkpt><trkpt lat="42.7473892" lon="12.7405872"><ele>312.4</ele><time>2026-04-03T15:08:18.691Z</time></trkpt><trkpt lat="42.747358" lon="12.7406791"><ele>313.0</ele><time>2026-04-03T15:08:19.69Z</time></trkpt><trkpt lat="42.747312" lon="12.7407791"><ele>313.0</ele><time>2026-04-03T15:08:20.69Z</time></trkpt><trkpt lat="42.7472594" lon="12.7408843"><ele>313.0</ele><time>2026-04-03T15:08:21.69Z</time></trkpt><trkpt lat="42.7471974" lon="12.7410052"><ele>313.0</ele><time>2026-04-03T15:08:22.69Z</time></trkpt><trkpt lat="42.7471329" lon="12.7411255"><ele>313.0</ele><time>2026-04-03T15:08:23.69Z</time></trkpt><trkpt lat="42.7470648" lon="12.7412493"><ele>313.0</ele><time>2026-04-03T15:08:24.691Z</time></trkpt><trkpt lat="42.7470109" lon="12.7413679"><ele>313.0</ele><time>2026-04-03T15:08:25.691Z</time></trkpt><trkpt lat="42.7469533" lon="12.7414729"><ele>313.0</ele><time>2026-04-03T15:08:26.69Z</time></trkpt><trkpt lat="42.7469017" lon="12.741566"><ele>313.0</ele><time>2026-04-03T15:08:27.691Z</time></trkpt><trkpt lat="42.7468553" lon="12.7416534"><ele>313.0</ele><time>2026-04-03T15:08:28.691Z</time></trkpt><trkpt lat="42.7468094" lon="12.7417402"><ele>313.0</ele><time>2026-04-03T15:08:29.69Z</time></trkpt><trkpt lat="42.7467619" lon="12.7418252"><ele>313.0</ele><time>2026-04-03T15:08:30.691Z</time></trkpt><trkpt lat="42.7467151" lon="12.7419083"><ele>313.66666666666663</ele><time>2026-04-03T15:08:31.691Z</time></trkpt><trkpt lat="42.7466633" lon="12.741992"><ele>314.3333333333333</ele><time>2026-04-03T15:08:32.691Z</time></trkpt><trkpt lat="42.7466156" lon="12.7420828"><ele>315.0</ele><time>2026-04-03T15:08:33.691Z</time></trkpt><trkpt lat="42.7465657" lon="12.7421736"><ele>315.6666666666667</ele><time>2026-04-03T15:08:34.691Z</time></trkpt><trkpt lat="42.7465146" lon="12.7422587"><ele>316.33333333333337</ele><time>2026-04-03T15:08:35.691Z</time></trkpt><trkpt lat="42.7464685" lon="12.7423376"><ele>317.0</ele><time>2026-04-03T15:08:36.691Z</time></trkpt><trkpt lat="42.7464211" lon="12.7424151"><ele>317.0</ele><time>2026-04-03T15:08:37.691Z</time></trkpt><trkpt lat="42.7463768" lon="12.7424836"><ele>317.0</ele><time>2026-04-03T15:08:38.69Z</time></trkpt><trkpt lat="42.7463094" lon="12.7426032"><ele>317.0</ele><time>2026-04-03T15:08:40.69Z</time></trkpt><trkpt lat="42.7462388" lon="12.7426958"><ele>317.0</ele><time>2026-04-03T15:08:42.69Z</time></trkpt><trkpt lat="42.746156" lon="12.7427678"><ele>317.0</ele><time>2026-04-03T15:08:44.691Z</time></trkpt><trkpt lat="42.7460904" lon="12.7428102"><ele>317.0</ele><time>2026-04-03T15:08:46.691Z</time></trkpt><trkpt lat="42.7459914" lon="12.7428385"><ele>318.0</ele><time>2026-04-03T15:08:52.691Z</time></trkpt><trkpt lat="42.7459134" lon="12.7428419"><ele>319.0</ele><time>2026-04-03T15:08:53.691Z</time></trkpt><trkpt lat="42.7458457" lon="12.7428502"><ele>320.0</ele><time>2026-04-03T15:08:54.69Z</time></trkpt><trkpt lat="42.7457884" lon="12.7428935"><ele>321.0</ele><time>2026-04-03T15:08:55.691Z</time></trkpt><trkpt lat="42.745707" lon="12.7430399"><ele>322.0</ele><time>2026-04-03T15:08:57.691Z</time></trkpt><trkpt lat="42.7456645" lon="12.7431418"><ele>323.0</ele><time>2026-04-03T15:08:58.69Z</time></trkpt><trkpt lat="42.7456136" lon="12.7432472"><ele>323.0</ele><time>2026-04-03T15:08:59.691Z</time></trkpt><trkpt lat="42.745555" lon="12.7433527"><ele>323.0</ele><time>2026-04-03T15:09:00.691Z</time></trkpt><trkpt lat="42.7454968" lon="12.7434522"><ele>323.0</ele><time>2026-04-03T15:09:01.69Z</time></trkpt><trkpt lat="42.7454418" lon="12.7435565"><ele>323.0</ele><time>2026-04-03T15:09:02.691Z</time></trkpt><trkpt lat="42.745393" lon="12.7436684"><ele>323.0</ele><time>2026-04-03T15:09:03.691Z</time></trkpt><trkpt lat="42.7453523" lon="12.7437714"><ele>323.1666666666667</ele><time>2026-04-03T15:09:04.691Z</time></trkpt><trkpt lat="42.7453061" lon="12.7438841"><ele>323.33333333333337</ele><time>2026-04-03T15:09:05.691Z</time></trkpt><trkpt lat="42.7452513" lon="12.7439948"><ele>323.5</ele><time>2026-04-03T15:09:06.69Z</time></trkpt><trkpt lat="42.7452098" lon="12.7440967"><ele>323.6666666666667</ele><time>2026-04-03T15:09:07.69Z</time></trkpt><trkpt lat="42.7451617" lon="12.7441965"><ele>323.8333333333333</ele><time>2026-04-03T15:09:08.69Z</time></trkpt><trkpt lat="42.7451109" lon="12.7442809"><ele>324.0</ele><time>2026-04-03T15:09:09.691Z</time></trkpt><trkpt lat="42.7450501" lon="12.7443526"><ele>325.5</ele><time>2026-04-03T15:09:10.691Z</time></trkpt><trkpt lat="42.7449598" lon="12.7444092"><ele>327.0</ele><time>2026-04-03T15:09:11.691Z</time></trkpt><trkpt lat="42.7448544" lon="12.7444143"><ele>328.5</ele><time>2026-04-03T15:09:12.69Z</time></trkpt><trkpt lat="42.7447403" lon="12.7443726"><ele>330.0</ele><time>2026-04-03T15:09:13.691Z</time></trkpt><trkpt lat="42.7446347" lon="12.7442774"><ele>330.0</ele><time>2026-04-03T15:09:14.691Z</time></trkpt><trkpt lat="42.7445475" lon="12.7441477"><ele>330.0</ele><time>2026-04-03T15:09:15.691Z</time></trkpt><trkpt lat="42.7444575" lon="12.743988"><ele>330.0</ele><time>2026-04-03T15:09:16.691Z</time></trkpt><trkpt lat="42.7443578" lon="12.7438158"><ele>330.0</ele><time>2026-04-03T15:09:17.691Z</time></trkpt><trkpt lat="42.7442582" lon="12.7436459"><ele>330.75</ele><time>2026-04-03T15:09:18.691Z</time></trkpt><trkpt lat="42.7441626" lon="12.743485"><ele>331.5</ele><time>2026-04-03T15:09:19.691Z</time></trkpt><trkpt lat="42.7440566" lon="12.7433416"><ele>332.25</ele><time>2026-04-03T15:09:20.69Z</time></trkpt><trkpt lat="42.7439456" lon="12.7432366"><ele>333.0</ele><time>2026-04-03T15:09:21.69Z</time></trkpt><trkpt lat="42.7438131" lon="12.7431896"><ele>333.0</ele><time>2026-04-03T15:09:22.69Z</time></trkpt><trkpt lat="42.7436806" lon="12.7432006"><ele>333.0</ele><time>2026-04-03T15:09:23.691Z</time></trkpt><trkpt lat="42.7435541" lon="12.7432708"><ele>333.0</ele><time>2026-04-03T15:09:24.69Z</time></trkpt><trkpt lat="42.7434601" lon="12.7433984"><ele>333.0</ele><time>2026-04-03T15:09:25.691Z</time></trkpt><trkpt lat="42.7434098" lon="12.7435504"><ele>334.0</ele><time>2026-04-03T15:09:26.691Z</time></trkpt><trkpt lat="42.7433826" lon="12.7437119"><ele>335.0</ele><time>2026-04-03T15:09:27.691Z</time></trkpt><trkpt lat="42.743423" lon="12.7439097"><ele>336.0</ele><time>2026-04-03T15:09:28.691Z</time></trkpt><trkpt lat="42.7434893" lon="12.7441254"><ele>337.0</ele><time>2026-04-03T15:09:29.691Z</time></trkpt><trkpt lat="42.7435884" lon="12.7443646"><ele>342.0</ele><time>2026-04-03T15:09:30.69Z</time></trkpt><trkpt lat="42.7436999" lon="12.7446301"><ele>347.0</ele><time>2026-04-03T15:09:31.691Z</time></trkpt><trkpt lat="42.7438255" lon="12.744916"><ele>347.0</ele><time>2026-04-03T15:09:32.691Z</time></trkpt><trkpt lat="42.7439796" lon="12.7452092"><ele>347.0</ele><time>2026-04-03T15:09:33.691Z</time></trkpt><trkpt lat="42.7441373" lon="12.7454799"><ele>346.6666666666667</ele><time>2026-04-03T15:09:34.691Z</time></trkpt><trkpt lat="42.7442856" lon="12.7457194"><ele>346.3333333333333</ele><time>2026-04-03T15:09:35.691Z</time></trkpt><trkpt lat="42.7444136" lon="12.7459438"><ele>346.0</ele><time>2026-04-03T15:09:36.69Z</time></trkpt><trkpt lat="42.7445101" lon="12.7461729"><ele>346.0</ele><time>2026-04-03T15:09:37.691Z</time></trkpt><trkpt lat="42.744585" lon="12.7464175"><ele>346.0</ele><time>2026-04-03T15:09:38.691Z</time></trkpt><trkpt lat="42.7446134" lon="12.7466836"><ele>346.0</ele><time>2026-04-03T15:09:39.69Z</time></trkpt><trkpt lat="42.7446068" lon="12.7469139"><ele>347.3333333333333</ele><time>2026-04-03T15:09:40.69Z</time></trkpt><trkpt lat="42.74457" lon="12.7471296"><ele>348.6666666666667</ele><time>2026-04-03T15:09:41.69Z</time></trkpt><trkpt lat="42.7444941" lon="12.7473413"><ele>350.0</ele><time>2026-04-03T15:09:42.691Z</time></trkpt><trkpt lat="42.7444289" lon="12.747529"><ele>354.33333333333337</ele><time>2026-04-03T15:09:43.691Z</time></trkpt><trkpt lat="42.7443918" lon="12.747719"><ele>358.6666666666667</ele><time>2026-04-03T15:09:44.691Z</time></trkpt><trkpt lat="42.7444069" lon="12.7479217"><ele>363.0</ele><time>2026-04-03T15:09:45.69Z</time></trkpt><trkpt lat="42.7444721" lon="12.748125"><ele>363.0</ele><time>2026-04-03T15:09:46.691Z</time></trkpt><trkpt lat="42.7445806" lon="12.7483098"><ele>363.0</ele><time>2026-04-03T15:09:47.691Z</time></trkpt><trkpt lat="42.7447148" lon="12.7484747"><ele>363.0</ele><time>2026-04-03T15:09:48.69Z</time></trkpt><trkpt lat="42.7448775" lon="12.7486228"><ele>359.6666666666667</ele><time>2026-04-03T15:09:49.69Z</time></trkpt><trkpt lat="42.7450516" lon="12.7487301"><ele>356.33333333333337</ele><time>2026-04-03T15:09:50.69Z</time></trkpt><trkpt lat="42.7451777" lon="12.7488406"><ele>353.0</ele><time>2026-04-03T15:09:51.691Z</time></trkpt><trkpt lat="42.7452678" lon="12.748988"><ele>353.0</ele><time>2026-04-03T15:09:52.691Z</time></trkpt><trkpt lat="42.745313" lon="12.7491716"><ele>353.0</ele><time>2026-04-03T15:09:53.691Z</time></trkpt><trkpt lat="42.7453268" lon="12.749361"><ele>353.0</ele><time>2026-04-03T15:09:54.691Z</time></trkpt><trkpt lat="42.7452851" lon="12.7495442"><ele>353.0</ele><time>2026-04-03T15:09:55.691Z</time></trkpt><trkpt lat="42.7451966" lon="12.749741"><ele>362.33333333333337</ele><time>2026-04-03T15:09:56.691Z</time></trkpt><trkpt lat="42.7450806" lon="12.7499603"><ele>371.6666666666667</ele><time>2026-04-03T15:09:57.691Z</time></trkpt><trkpt lat="42.7449657" lon="12.7502028"><ele>381.0</ele><time>2026-04-03T15:09:58.691Z</time></trkpt><trkpt lat="42.744864" lon="12.7504314"><ele>381.0</ele><time>2026-04-03T15:09:59.691Z</time></trkpt><trkpt lat="42.7447875" lon="12.7506324"><ele>381.0</ele><time>2026-04-03T15:10:00.691Z</time></trkpt><trkpt lat="42.7447457" lon="12.750813"><ele>381.0</ele><time>2026-04-03T15:10:01.691Z</time></trkpt><trkpt lat="42.7447542" lon="12.7509749"><ele>381.0</ele><time>2026-04-03T15:10:02.691Z</time></trkpt><trkpt lat="42.7448173" lon="12.7511176"><ele>386.0</ele><time>2026-04-03T15:10:03.691Z</time></trkpt><trkpt lat="42.7449455" lon="12.7512315"><ele>391.0</ele><time>2026-04-03T15:10:04.691Z</time></trkpt><trkpt lat="42.7451057" lon="12.7513175"><ele>396.0</ele><time>2026-04-03T15:10:05.691Z</time></trkpt><trkpt lat="42.7452893" lon="12.7513808"><ele>396.0</ele><time>2026-04-03T15:10:06.69Z</time></trkpt><trkpt lat="42.7455032" lon="12.7514525"><ele>396.0</ele><time>2026-04-03T15:10:07.691Z</time></trkpt><trkpt lat="42.745736" lon="12.7515455"><ele>396.0</ele><time>2026-04-03T15:10:08.691Z</time></trkpt><trkpt lat="42.7459376" lon="12.7516432"><ele>396.0</ele><time>2026-04-03T15:10:09.69Z</time></trkpt><trkpt lat="42.7461207" lon="12.7517342"><ele>396.0</ele><time>2026-04-03T15:10:10.691Z</time></trkpt><trkpt lat="42.7462837" lon="12.7518667"><ele>400.66666666666663</ele><time>2026-04-03T15:10:11.69Z</time></trkpt><trkpt lat="42.7464498" lon="12.7519732"><ele>405.3333333333333</ele><time>2026-04-03T15:10:12.691Z</time></trkpt><trkpt lat="42.7466243" lon="12.7520279"><ele>410.0</ele><time>2026-04-03T15:10:13.69Z</time></trkpt><trkpt lat="42.7468104" lon="12.7520253"><ele>409.0</ele><time>2026-04-03T15:10:14.69Z</time></trkpt><trkpt lat="42.7469829" lon="12.7520165"><ele>408.0</ele><time>2026-04-03T15:10:15.691Z</time></trkpt><trkpt lat="42.7471366" lon="12.7520378"><ele>407.0</ele><time>2026-04-03T15:10:16.691Z</time></trkpt><trkpt lat="42.7472877" lon="12.7521102"><ele>407.0</ele><time>2026-04-03T15:10:17.691Z</time></trkpt><trkpt lat="42.7474359" lon="12.7522218"><ele>407.0</ele><time>2026-04-03T15:10:18.691Z</time></trkpt><trkpt lat="42.7475927" lon="12.7523427"><ele>407.0</ele><time>2026-04-03T15:10:19.691Z</time></trkpt><trkpt lat="42.747768" lon="12.7524059"><ele>404.75</ele><time>2026-04-03T15:10:20.691Z</time></trkpt><trkpt lat="42.7479315" lon="12.7524533"><ele>402.5</ele><time>2026-04-03T15:10:21.691Z</time></trkpt><trkpt lat="42.7480594" lon="12.7525377"><ele>400.25</ele><time>2026-04-03T15:10:22.691Z</time></trkpt><trkpt lat="42.7481525" lon="12.7526528"><ele>398.0</ele><time>2026-04-03T15:10:23.691Z</time></trkpt><trkpt lat="42.7482099" lon="12.7527917"><ele>398.0</ele><time>2026-04-03T15:10:24.691Z</time></trkpt><trkpt lat="42.7482178" lon="12.7529533"><ele>398.0</ele><time>2026-04-03T15:10:25.691Z</time></trkpt><trkpt lat="42.748182" lon="12.7531278"><ele>398.0</ele><time>2026-04-03T15:10:26.69Z</time></trkpt><trkpt lat="42.7480895" lon="12.7532574"><ele>398.0</ele><time>2026-04-03T15:10:27.69Z</time></trkpt><trkpt lat="42.7479446" lon="12.7533612"><ele>398.0</ele><time>2026-04-03T15:10:28.69Z</time></trkpt><trkpt lat="42.747766" lon="12.7534137"><ele>398.0</ele><time>2026-04-03T15:10:29.69Z</time></trkpt><trkpt lat="42.7475679" lon="12.7534072"><ele>398.0</ele><time>2026-04-03T15:10:30.691Z</time></trkpt><trkpt lat="42.7473472" lon="12.7533409"><ele>401.0</ele><time>2026-04-03T15:10:31.691Z</time></trkpt><trkpt lat="42.7471263" lon="12.7532649"><ele>404.0</ele><time>2026-04-03T15:10:32.69Z</time></trkpt><trkpt lat="42.7469282" lon="12.7532038"><ele>407.0</ele><time>2026-04-03T15:10:33.69Z</time></trkpt><trkpt lat="42.746742" lon="12.7531514"><ele>408.0</ele><time>2026-04-03T15:10:34.69Z</time></trkpt><trkpt lat="42.7465724" lon="12.7531243"><ele>409.0</ele><time>2026-04-03T15:10:35.691Z</time></trkpt><trkpt lat="42.7463777" lon="12.7531388"><ele>410.0</ele><time>2026-04-03T15:10:36.691Z</time></trkpt><trkpt lat="42.7461584" lon="12.7531627"><ele>414.5</ele><time>2026-04-03T15:10:37.691Z</time></trkpt><trkpt lat="42.7459212" lon="12.7531891"><ele>419.0</ele><time>2026-04-03T15:10:38.69Z</time></trkpt><trkpt lat="42.745678" lon="12.7532042"><ele>419.0</ele><time>2026-04-03T15:10:39.691Z</time></trkpt><trkpt lat="42.7454291" lon="12.753192"><ele>419.0</ele><time>2026-04-03T15:10:40.691Z</time></trkpt><trkpt lat="42.7451798" lon="12.7531683"><ele>420.0</ele><time>2026-04-03T15:10:41.691Z</time></trkpt><trkpt lat="42.7449249" lon="12.753186"><ele>421.0</ele><time>2026-04-03T15:10:42.691Z</time></trkpt><trkpt lat="42.7446484" lon="12.7532443"><ele>427.0</ele><time>2026-04-03T15:10:43.691Z</time></trkpt><trkpt lat="42.7443452" lon="12.7533164"><ele>433.0</ele><time>2026-04-03T15:10:44.69Z</time></trkpt><trkpt lat="42.7440357" lon="12.753392"><ele>433.0</ele><time>2026-04-03T15:10:45.69Z</time></trkpt><trkpt lat="42.7437115" lon="12.7534699"><ele>433.0</ele><time>2026-04-03T15:10:46.689Z</time></trkpt><trkpt lat="42.7434113" lon="12.753559"><ele>430.0</ele><time>2026-04-03T15:10:47.69Z</time></trkpt><trkpt lat="42.7431721" lon="12.7536351"><ele>427.0</ele><time>2026-04-03T15:10:48.69Z</time></trkpt><trkpt lat="42.7429665" lon="12.7537069"><ele>427.0</ele><time>2026-04-03T15:10:49.69Z</time></trkpt><trkpt lat="42.7427832" lon="12.7537873"><ele>427.0</ele><time>2026-04-03T15:10:50.689Z</time></trkpt><trkpt lat="42.7426268" lon="12.7538637"><ele>427.0</ele><time>2026-04-03T15:10:51.69Z</time></trkpt><trkpt lat="42.7425091" lon="12.7539684"><ele>434.0</ele><time>2026-04-03T15:10:52.69Z</time></trkpt><trkpt lat="42.7424132" lon="12.7541483"><ele>441.0</ele><time>2026-04-03T15:10:53.69Z</time></trkpt><trkpt lat="42.7423637" lon="12.754362"><ele>448.0</ele><time>2026-04-03T15:10:54.69Z</time></trkpt><trkpt lat="42.7423411" lon="12.7545945"><ele>448.0</ele><time>2026-04-03T15:10:55.69Z</time></trkpt><trkpt lat="42.7422947" lon="12.7548121"><ele>448.0</ele><time>2026-04-03T15:10:56.689Z</time></trkpt><trkpt lat="42.7422156" lon="12.7550075"><ele>448.0</ele><time>2026-04-03T15:10:57.69Z</time></trkpt><trkpt lat="42.7421038" lon="12.7552054"><ele>449.33333333333337</ele><time>2026-04-03T15:10:58.69Z</time></trkpt><trkpt lat="42.7419557" lon="12.7553886"><ele>450.66666666666663</ele><time>2026-04-03T15:10:59.69Z</time></trkpt><trkpt lat="42.7418043" lon="12.7555502"><ele>452.0</ele><time>2026-04-03T15:11:00.69Z</time></trkpt><trkpt lat="42.7417084" lon="12.7557118"><ele>454.5</ele><time>2026-04-03T15:11:01.69Z</time></trkpt><trkpt lat="42.7416591" lon="12.755862"><ele>457.0</ele><time>2026-04-03T15:11:02.689Z</time></trkpt><trkpt lat="42.7416673" lon="12.756019"><ele>459.5</ele><time>2026-04-03T15:11:03.69Z</time></trkpt><trkpt lat="42.741724" lon="12.7561756"><ele>462.0</ele><time>2026-04-03T15:11:04.69Z</time></trkpt><trkpt lat="42.7418235" lon="12.7563088"><ele>461.5</ele><time>2026-04-03T15:11:05.69Z</time></trkpt><trkpt lat="42.741937" lon="12.7563881"><ele>461.0</ele><time>2026-04-03T15:11:06.689Z</time></trkpt><trkpt lat="42.7420675" lon="12.7563738"><ele>460.5</ele><time>2026-04-03T15:11:07.69Z</time></trkpt><trkpt lat="42.7421747" lon="12.7562991"><ele>460.0</ele><time>2026-04-03T15:11:08.69Z</time></trkpt><trkpt lat="42.7423025" lon="12.7562106"><ele>460.0</ele><time>2026-04-03T15:11:09.69Z</time></trkpt><trkpt lat="42.7424473" lon="12.7561353"><ele>460.0</ele><time>2026-04-03T15:11:10.69Z</time></trkpt><trkpt lat="42.7425861" lon="12.75611"><ele>460.0</ele><time>2026-04-03T15:11:11.689Z</time></trkpt><trkpt lat="42.7427086" lon="12.7561201"><ele>460.0</ele><time>2026-04-03T15:11:12.689Z</time></trkpt><trkpt lat="42.7428319" lon="12.7562148"><ele>457.75</ele><time>2026-04-03T15:11:13.69Z</time></trkpt><trkpt lat="42.7429117" lon="12.7563484"><ele>455.5</ele><time>2026-04-03T15:11:14.69Z</time></trkpt><trkpt lat="42.7429277" lon="12.7565084"><ele>453.25</ele><time>2026-04-03T15:11:15.69Z</time></trkpt><trkpt lat="42.7429106" lon="12.7566761"><ele>451.0</ele><time>2026-04-03T15:11:16.69Z</time></trkpt><trkpt lat="42.7428315" lon="12.756817"><ele>449.0</ele><time>2026-04-03T15:11:17.69Z</time></trkpt><trkpt lat="42.7427114" lon="12.7568727"><ele>447.0</ele><time>2026-04-03T15:11:18.69Z</time></trkpt><trkpt lat="42.7425493" lon="12.7569242"><ele>445.0</ele><time>2026-04-03T15:11:19.689Z</time></trkpt><trkpt lat="42.7423837" lon="12.75697"><ele>445.0</ele><time>2026-04-03T15:11:20.69Z</time></trkpt><trkpt lat="42.7422113" lon="12.7570498"><ele>445.0</ele><time>2026-04-03T15:11:21.689Z</time></trkpt><trkpt lat="42.7420427" lon="12.7571908"><ele>445.0</ele><time>2026-04-03T15:11:22.69Z</time></trkpt><trkpt lat="42.7419058" lon="12.7573597"><ele>450.33333333333337</ele><time>2026-04-03T15:11:23.69Z</time></trkpt><trkpt lat="42.7417821" lon="12.7575064"><ele>455.66666666666663</ele><time>2026-04-03T15:11:24.69Z</time></trkpt><trkpt lat="42.7416663" lon="12.7576232"><ele>461.0</ele><time>2026-04-03T15:11:25.69Z</time></trkpt><trkpt lat="42.741516" lon="12.7577008"><ele>458.0</ele><time>2026-04-03T15:11:26.689Z</time></trkpt><trkpt lat="42.7413462" lon="12.7577391"><ele>455.0</ele><time>2026-04-03T15:11:27.69Z</time></trkpt><trkpt lat="42.7411763" lon="12.7577808"><ele>452.0</ele><time>2026-04-03T15:11:28.69Z</time></trkpt><trkpt lat="42.7410316" lon="12.7578656"><ele>452.0</ele><time>2026-04-03T15:11:29.69Z</time></trkpt><trkpt lat="42.7409035" lon="12.7580043"><ele>452.0</ele><time>2026-04-03T15:11:30.689Z</time></trkpt><trkpt lat="42.7407937" lon="12.7581765"><ele>452.0</ele><time>2026-04-03T15:11:31.689Z</time></trkpt><trkpt lat="42.7406876" lon="12.7583318"><ele>452.0</ele><time>2026-04-03T15:11:32.69Z</time></trkpt><trkpt lat="42.740549" lon="12.7584254"><ele>452.0</ele><time>2026-04-03T15:11:33.69Z</time></trkpt><trkpt lat="42.7403516" lon="12.7584945"><ele>452.0</ele><time>2026-04-03T15:11:34.69Z</time></trkpt><trkpt lat="42.7401329" lon="12.7585696"><ele>449.5</ele><time>2026-04-03T15:11:35.689Z</time></trkpt><trkpt lat="42.7399126" lon="12.758683"><ele>447.0</ele><time>2026-04-03T15:11:36.689Z</time></trkpt><trkpt lat="42.7396722" lon="12.7588431"><ele>447.0</ele><time>2026-04-03T15:11:37.689Z</time></trkpt><trkpt lat="42.7394332" lon="12.7590414"><ele>447.0</ele><time>2026-04-03T15:11:38.69Z</time></trkpt><trkpt lat="42.7392388" lon="12.7592012"><ele>449.33333333333337</ele><time>2026-04-03T15:11:39.69Z</time></trkpt><trkpt lat="42.7390897" lon="12.7593261"><ele>451.6666666666667</ele><time>2026-04-03T15:11:40.69Z</time></trkpt><trkpt lat="42.7389528" lon="12.7594614"><ele>454.0</ele><time>2026-04-03T15:11:41.69Z</time></trkpt><trkpt lat="42.7388308" lon="12.7596564"><ele>454.0</ele><time>2026-04-03T15:11:42.69Z</time></trkpt><trkpt lat="42.7387082" lon="12.7599414"><ele>454.0</ele><time>2026-04-03T15:11:43.69Z</time></trkpt><trkpt lat="42.7385919" lon="12.7602288"><ele>457.0</ele><time>2026-04-03T15:11:44.69Z</time></trkpt><trkpt lat="42.7384897" lon="12.7604466"><ele>460.0</ele><time>2026-04-03T15:11:45.689Z</time></trkpt><trkpt lat="42.7384147" lon="12.7606143"><ele>463.0</ele><time>2026-04-03T15:11:46.69Z</time></trkpt><trkpt lat="42.7383694" lon="12.7607488"><ele>466.0</ele><time>2026-04-03T15:11:47.69Z</time></trkpt><trkpt lat="42.7383499" lon="12.7608841"><ele>466.0</ele><time>2026-04-03T15:11:48.689Z</time></trkpt><trkpt lat="42.7383804" lon="12.7610142"><ele>466.0</ele><time>2026-04-03T15:11:49.69Z</time></trkpt><trkpt lat="42.7384634" lon="12.7611025"><ele>466.0</ele><time>2026-04-03T15:11:50.69Z</time></trkpt><trkpt lat="42.738564" lon="12.7611336"><ele>466.0</ele><time>2026-04-03T15:11:51.69Z</time></trkpt><trkpt lat="42.7386724" lon="12.7610807"><ele>466.0</ele><time>2026-04-03T15:11:52.689Z</time></trkpt><trkpt lat="42.73879" lon="12.7609526"><ele>468.0</ele><time>2026-04-03T15:11:53.69Z</time></trkpt><trkpt lat="42.73894" lon="12.7607855"><ele>470.0</ele><time>2026-04-03T15:11:54.689Z</time></trkpt><trkpt lat="42.7391165" lon="12.7605929"><ele>472.0</ele><time>2026-04-03T15:11:55.69Z</time></trkpt><trkpt lat="42.7392827" lon="12.7604334"><ele>478.6666666666667</ele><time>2026-04-03T15:11:56.689Z</time></trkpt><trkpt lat="42.7394478" lon="12.7603176"><ele>485.33333333333337</ele><time>2026-04-03T15:11:57.69Z</time></trkpt><trkpt lat="42.7396183" lon="12.7602404"><ele>492.0</ele><time>2026-04-03T15:11:58.69Z</time></trkpt><trkpt lat="42.7397909" lon="12.760199"><ele>492.0</ele><time>2026-04-03T15:11:59.69Z</time></trkpt><trkpt lat="42.7399645" lon="12.760194"><ele>492.0</ele><time>2026-04-03T15:12:00.69Z</time></trkpt><trkpt lat="42.7401393" lon="12.7602322"><ele>492.0</ele><time>2026-04-03T15:12:01.69Z</time></trkpt><trkpt lat="42.7403045" lon="12.7603315"><ele>487.33333333333337</ele><time>2026-04-03T15:12:02.69Z</time></trkpt><trkpt lat="42.7404717" lon="12.7604719"><ele>482.6666666666667</ele><time>2026-04-03T15:12:03.69Z</time></trkpt><trkpt lat="42.7406532" lon="12.7606153"><ele>478.0</ele><time>2026-04-03T15:12:04.689Z</time></trkpt><trkpt lat="42.7408434" lon="12.7607176"><ele>476.0</ele><time>2026-04-03T15:12:05.69Z</time></trkpt><trkpt lat="42.7410574" lon="12.7607432"><ele>474.0</ele><time>2026-04-03T15:12:06.69Z</time></trkpt><trkpt lat="42.741263" lon="12.7607224"><ele>472.0</ele><time>2026-04-03T15:12:07.69Z</time></trkpt><trkpt lat="42.7414448" lon="12.7606753"><ele>472.0</ele><time>2026-04-03T15:12:08.689Z</time></trkpt><trkpt lat="42.7415954" lon="12.7605908"><ele>472.0</ele><time>2026-04-03T15:12:09.689Z</time></trkpt><trkpt lat="42.7417387" lon="12.7604314"><ele>472.0</ele><time>2026-04-03T15:12:10.69Z</time></trkpt><trkpt lat="42.7418544" lon="12.7602512"><ele>470.6</ele><time>2026-04-03T15:12:11.69Z</time></trkpt><trkpt lat="42.7419589" lon="12.7601278"><ele>469.20000000000005</ele><time>2026-04-03T15:12:12.69Z</time></trkpt><trkpt lat="42.7420651" lon="12.7600742"><ele>467.8</ele><time>2026-04-03T15:12:13.69Z</time></trkpt><trkpt lat="42.742161" lon="12.7600915"><ele>466.4</ele><time>2026-04-03T15:12:14.69Z</time></trkpt><trkpt lat="42.7422104" lon="12.760172"><ele>465.0</ele><time>2026-04-03T15:12:15.689Z</time></trkpt><trkpt lat="42.7422104" lon="12.7602935"><ele>464.75</ele><time>2026-04-03T15:12:16.689Z</time></trkpt><trkpt lat="42.7421709" lon="12.7604366"><ele>464.5</ele><time>2026-04-03T15:12:17.689Z</time></trkpt><trkpt lat="42.7420681" lon="12.7605915"><ele>464.25</ele><time>2026-04-03T15:12:18.69Z</time></trkpt><trkpt lat="42.7419367" lon="12.7607437"><ele>464.0</ele><time>2026-04-03T15:12:19.689Z</time></trkpt><trkpt lat="42.7417898" lon="12.7609276"><ele>467.3333333333333</ele><time>2026-04-03T15:12:20.689Z</time></trkpt><trkpt lat="42.7416487" lon="12.7610962"><ele>470.66666666666663</ele><time>2026-04-03T15:12:21.689Z</time></trkpt><trkpt lat="42.7415212" lon="12.7612206"><ele>474.0</ele><time>2026-04-03T15:12:22.69Z</time></trkpt><trkpt lat="42.7413761" lon="12.7612755"><ele>474.0</ele><time>2026-04-03T15:12:23.69Z</time></trkpt><trkpt lat="42.7412057" lon="12.7612654"><ele>474.0</ele><time>2026-04-03T15:12:24.69Z</time></trkpt><trkpt lat="42.7410253" lon="12.7612279"><ele>474.0</ele><time>2026-04-03T15:12:25.69Z</time></trkpt><trkpt lat="42.7408592" lon="12.7612151"><ele>477.25</ele><time>2026-04-03T15:12:26.69Z</time></trkpt><trkpt lat="42.7407262" lon="12.7612547"><ele>480.5</ele><time>2026-04-03T15:12:27.689Z</time></trkpt><trkpt lat="42.7406128" lon="12.7613586"><ele>483.75</ele><time>2026-04-03T15:12:28.69Z</time></trkpt><trkpt lat="42.7405174" lon="12.761541"><ele>487.0</ele><time>2026-04-03T15:12:29.689Z</time></trkpt><trkpt lat="42.7404389" lon="12.7617547"><ele>485.0</ele><time>2026-04-03T15:12:30.69Z</time></trkpt><trkpt lat="42.7403641" lon="12.7620482"><ele>483.0</ele><time>2026-04-03T15:12:31.69Z</time></trkpt><trkpt lat="42.7402941" lon="12.7623709"><ele>484.0</ele><time>2026-04-03T15:12:32.69Z</time></trkpt><trkpt lat="42.74022" lon="12.762725"><ele>485.0</ele><time>2026-04-03T15:12:33.69Z</time></trkpt><trkpt lat="42.7401366" lon="12.7630948"><ele>495.0</ele><time>2026-04-03T15:12:34.689Z</time></trkpt><trkpt lat="42.7400623" lon="12.76345"><ele>505.0</ele><time>2026-04-03T15:12:35.69Z</time></trkpt><trkpt lat="42.7400016" lon="12.7637722"><ele>505.0</ele><time>2026-04-03T15:12:36.689Z</time></trkpt><trkpt lat="42.7399547" lon="12.7640374"><ele>505.0</ele><time>2026-04-03T15:12:37.689Z</time></trkpt><trkpt lat="42.7399035" lon="12.7642684"><ele>505.0</ele><time>2026-04-03T15:12:38.69Z</time></trkpt><trkpt lat="42.7398644" lon="12.7644584"><ele>505.00000000000006</ele><time>2026-04-03T15:12:39.69Z</time></trkpt><trkpt lat="42.7398248" lon="12.7646135"><ele>505.0</ele><time>2026-04-03T15:12:40.689Z</time></trkpt><trkpt lat="42.7397544" lon="12.764705"><ele>505.0</ele><time>2026-04-03T15:12:41.69Z</time></trkpt><trkpt lat="42.7396911" lon="12.7647487"><ele>505.0</ele><time>2026-04-03T15:12:42.69Z</time></trkpt><trkpt lat="42.7396238" lon="12.7647029"><ele>505.00000000000006</ele><time>2026-04-03T15:12:43.689Z</time></trkpt><trkpt lat="42.7395787" lon="12.7646107"><ele>505.0</ele><time>2026-04-03T15:12:44.69Z</time></trkpt><trkpt lat="42.7395755" lon="12.7644251"><ele>505.6666666666667</ele><time>2026-04-03T15:12:45.69Z</time></trkpt><trkpt lat="42.7395959" lon="12.7641957"><ele>506.33333333333337</ele><time>2026-04-03T15:12:46.69Z</time></trkpt><trkpt lat="42.7396352" lon="12.7639373"><ele>507.0</ele><time>2026-04-03T15:12:47.69Z</time></trkpt><trkpt lat="42.7396699" lon="12.7636871"><ele>506.6</ele><time>2026-04-03T15:12:48.689Z</time></trkpt><trkpt lat="42.7396935" lon="12.7634963"><ele>506.20000000000005</ele><time>2026-04-03T15:12:49.69Z</time></trkpt><trkpt lat="42.7396733" lon="12.7633417"><ele>505.8</ele><time>2026-04-03T15:12:50.69Z</time></trkpt><trkpt lat="42.7396514" lon="12.7632292"><ele>505.4</ele><time>2026-04-03T15:12:51.69Z</time></trkpt><trkpt lat="42.7395862" lon="12.7631717"><ele>505.0</ele><time>2026-04-03T15:12:52.69Z</time></trkpt><trkpt lat="42.7395126" lon="12.7631926"><ele>505.0</ele><time>2026-04-03T15:12:53.69Z</time></trkpt><trkpt lat="42.7394478" lon="12.7632587"><ele>505.0</ele><time>2026-04-03T15:12:54.69Z</time></trkpt><trkpt lat="42.739374" lon="12.7633899"><ele>505.0</ele><time>2026-04-03T15:12:55.69Z</time></trkpt><trkpt lat="42.7393454" lon="12.7636156"><ele>505.0</ele><time>2026-04-03T15:12:56.69Z</time></trkpt><trkpt lat="42.7393257" lon="12.7638855"><ele>517.0</ele><time>2026-04-03T15:12:57.69Z</time></trkpt><trkpt lat="42.7392925" lon="12.7642087"><ele>529.0</ele><time>2026-04-03T15:12:58.69Z</time></trkpt><trkpt lat="42.7392715" lon="12.7645292"><ele>529.0</ele><time>2026-04-03T15:12:59.69Z</time></trkpt><trkpt lat="42.7392856" lon="12.7648599"><ele>529.0</ele><time>2026-04-03T15:13:00.689Z</time></trkpt><trkpt lat="42.7393287" lon="12.7652202"><ele>527.0</ele><time>2026-04-03T15:13:01.69Z</time></trkpt><trkpt lat="42.7393779" lon="12.7656057"><ele>525.0</ele><time>2026-04-03T15:13:02.69Z</time></trkpt><trkpt lat="42.7394363" lon="12.7660163"><ele>525.0</ele><time>2026-04-03T15:13:03.69Z</time></trkpt><trkpt lat="42.7394967" lon="12.7664367"><ele>525.0</ele><time>2026-04-03T15:13:04.69Z</time></trkpt><trkpt lat="42.7395568" lon="12.7668375"><ele>528.5</ele><time>2026-04-03T15:13:05.689Z</time></trkpt><trkpt lat="42.7396147" lon="12.7672067"><ele>532.0</ele><time>2026-04-03T15:13:06.69Z</time></trkpt><trkpt lat="42.7396809" lon="12.7675657"><ele>533.5</ele><time>2026-04-03T15:13:07.69Z</time></trkpt><trkpt lat="42.7397593" lon="12.7679158"><ele>535.0</ele><time>2026-04-03T15:13:08.689Z</time></trkpt><trkpt lat="42.7398467" lon="12.7682667"><ele>535.0</ele><time>2026-04-03T15:13:09.69Z</time></trkpt><trkpt lat="42.7399204" lon="12.7685897"><ele>535.0</ele><time>2026-04-03T15:13:10.689Z</time></trkpt><trkpt lat="42.7399624" lon="12.7689236"><ele>535.0</ele><time>2026-04-03T15:13:11.69Z</time></trkpt><trkpt lat="42.7399859" lon="12.7693019"><ele>535.0</ele><time>2026-04-03T15:13:12.69Z</time></trkpt><trkpt lat="42.7399867" lon="12.7697038"><ele>535.5</ele><time>2026-04-03T15:13:13.69Z</time></trkpt><trkpt lat="42.7399843" lon="12.7701219"><ele>536.0</ele><time>2026-04-03T15:13:14.69Z</time></trkpt><trkpt lat="42.7399829" lon="12.7705332"><ele>537.5</ele><time>2026-04-03T15:13:15.689Z</time></trkpt><trkpt lat="42.7399872" lon="12.7709226"><ele>539.0</ele><time>2026-04-03T15:13:16.69Z</time></trkpt><trkpt lat="42.7400022" lon="12.7713139"><ele>540.0</ele><time>2026-04-03T15:13:17.69Z</time></trkpt><trkpt lat="42.7400395" lon="12.7717263"><ele>541.0</ele><time>2026-04-03T15:13:18.69Z</time></trkpt><trkpt lat="42.7400936" lon="12.7721586"><ele>541.0</ele><time>2026-04-03T15:13:19.689Z</time></trkpt><trkpt lat="42.7401536" lon="12.7725975"><ele>541.0</ele><time>2026-04-03T15:13:20.69Z</time></trkpt><trkpt lat="42.7402128" lon="12.7730146"><ele>560.0</ele><time>2026-04-03T15:13:21.69Z</time></trkpt><trkpt lat="42.7402578" lon="12.7734205"><ele>579.0</ele><time>2026-04-03T15:13:22.69Z</time></trkpt><trkpt lat="42.7402965" lon="12.7737999"><ele>579.0</ele><time>2026-04-03T15:13:23.689Z</time></trkpt><trkpt lat="42.7403292" lon="12.7741255"><ele>579.0</ele><time>2026-04-03T15:13:24.69Z</time></trkpt><trkpt lat="42.7403533" lon="12.7744155"><ele>579.0</ele><time>2026-04-03T15:13:25.69Z</time></trkpt><trkpt lat="42.7403667" lon="12.7746922"><ele>579.0</ele><time>2026-04-03T15:13:26.69Z</time></trkpt><trkpt lat="42.7403574" lon="12.7749886"><ele>579.0</ele><time>2026-04-03T15:13:27.69Z</time></trkpt><trkpt lat="42.7403171" lon="12.7753165"><ele>580.5</ele><time>2026-04-03T15:13:28.69Z</time></trkpt><trkpt lat="42.7402722" lon="12.7756773"><ele>582.0</ele><time>2026-04-03T15:13:29.69Z</time></trkpt><trkpt lat="42.7402393" lon="12.776086"><ele>567.0</ele><time>2026-04-03T15:13:30.69Z</time></trkpt><trkpt lat="42.7402162" lon="12.7765148"><ele>552.0</ele><time>2026-04-03T15:13:31.69Z</time></trkpt><trkpt lat="42.7401994" lon="12.7769298"><ele>552.0</ele><time>2026-04-03T15:13:32.689Z</time></trkpt><trkpt lat="42.7401753" lon="12.7773025"><ele>552.0</ele><time>2026-04-03T15:13:33.69Z</time></trkpt><trkpt lat="42.740138" lon="12.7776535"><ele>554.5</ele><time>2026-04-03T15:13:34.689Z</time></trkpt><trkpt lat="42.7401019" lon="12.7779922"><ele>557.0</ele><time>2026-04-03T15:13:35.69Z</time></trkpt><trkpt lat="42.740084" lon="12.7783283"><ele>557.0</ele><time>2026-04-03T15:13:36.69Z</time></trkpt><trkpt lat="42.7400842" lon="12.7786867"><ele>557.0</ele><time>2026-04-03T15:13:37.69Z</time></trkpt><trkpt lat="42.7401047" lon="12.7790799"><ele>558.5</ele><time>2026-04-03T15:13:38.69Z</time></trkpt><trkpt lat="42.7401388" lon="12.7794803"><ele>560.0</ele><time>2026-04-03T15:13:39.69Z</time></trkpt><trkpt lat="42.7401653" lon="12.7798261"><ele>560.0</ele><time>2026-04-03T15:13:40.689Z</time></trkpt><trkpt lat="42.740176" lon="12.780104"><ele>560.0</ele><time>2026-04-03T15:13:41.689Z</time></trkpt><trkpt lat="42.740185" lon="12.7803374"><ele>560.0</ele><time>2026-04-03T15:13:42.69Z</time></trkpt><trkpt lat="42.7402097" lon="12.7805481"><ele>564.3333333333333</ele><time>2026-04-03T15:13:43.69Z</time></trkpt><trkpt lat="42.7402883" lon="12.7807627"><ele>568.6666666666666</ele><time>2026-04-03T15:13:44.69Z</time></trkpt><trkpt lat="42.740418" lon="12.781007"><ele>573.0</ele><time>2026-04-03T15:13:45.69Z</time></trkpt><trkpt lat="42.7405657" lon="12.781274"><ele>573.0</ele><time>2026-04-03T15:13:46.69Z</time></trkpt><trkpt lat="42.7407021" lon="12.7815328"><ele>573.0</ele><time>2026-04-03T15:13:47.689Z</time></trkpt><trkpt lat="42.7408033" lon="12.7817675"><ele>573.0</ele><time>2026-04-03T15:13:48.69Z</time></trkpt><trkpt lat="42.7408841" lon="12.7820011"><ele>571.3333333333334</ele><time>2026-04-03T15:13:49.689Z</time></trkpt><trkpt lat="42.7409623" lon="12.7822608"><ele>569.6666666666667</ele><time>2026-04-03T15:13:50.689Z</time></trkpt><trkpt lat="42.7410261" lon="12.7825313"><ele>568.0</ele><time>2026-04-03T15:13:51.689Z</time></trkpt><trkpt lat="42.7410722" lon="12.782792"><ele>567.6666666666667</ele><time>2026-04-03T15:13:52.689Z</time></trkpt><trkpt lat="42.7410979" lon="12.7830277"><ele>567.3333333333334</ele><time>2026-04-03T15:13:53.69Z</time></trkpt><trkpt lat="42.7411231" lon="12.7832508"><ele>567.0</ele><time>2026-04-03T15:13:54.69Z</time></trkpt><trkpt lat="42.7411526" lon="12.7834494"><ele>570.0</ele><time>2026-04-03T15:13:55.69Z</time></trkpt><trkpt lat="42.7411952" lon="12.7836163"><ele>573.0</ele><time>2026-04-03T15:13:56.69Z</time></trkpt><trkpt lat="42.7412703" lon="12.7837569"><ele>576.0</ele><time>2026-04-03T15:13:57.69Z</time></trkpt><trkpt lat="42.7413881" lon="12.7838887"><ele>579.0</ele><time>2026-04-03T15:13:58.69Z</time></trkpt><trkpt lat="42.7415299" lon="12.7840131"><ele>579.0</ele><time>2026-04-03T15:13:59.689Z</time></trkpt><trkpt lat="42.7417278" lon="12.7841115"><ele>579.0</ele><time>2026-04-03T15:14:00.69Z</time></trkpt><trkpt lat="42.7419541" lon="12.784163"><ele>579.0</ele><time>2026-04-03T15:14:01.69Z</time></trkpt><trkpt lat="42.7421825" lon="12.7841951"><ele>577.5</ele><time>2026-04-03T15:14:02.69Z</time></trkpt><trkpt lat="42.7423649" lon="12.7842231"><ele>576.0</ele><time>2026-04-03T15:14:03.689Z</time></trkpt><trkpt lat="42.7425012" lon="12.784261"><ele>574.5</ele><time>2026-04-03T15:14:04.69Z</time></trkpt><trkpt lat="42.7425958" lon="12.7843142"><ele>573.0</ele><time>2026-04-03T15:14:05.689Z</time></trkpt><trkpt lat="42.7426373" lon="12.7843874"><ele>580.0</ele><time>2026-04-03T15:14:06.69Z</time></trkpt><trkpt lat="42.7426278" lon="12.7845043"><ele>587.0</ele><time>2026-04-03T15:14:07.69Z</time></trkpt><trkpt lat="42.7425717" lon="12.7845938"><ele>594.0</ele><time>2026-04-03T15:14:08.69Z</time></trkpt><trkpt lat="42.7424845" lon="12.7846334"><ele>601.0</ele><time>2026-04-03T15:14:09.69Z</time></trkpt><trkpt lat="42.7423661" lon="12.7846096"><ele>608.0</ele><time>2026-04-03T15:14:10.69Z</time></trkpt><trkpt lat="42.7422136" lon="12.7845592"><ele>608.0</ele><time>2026-04-03T15:14:11.689Z</time></trkpt><trkpt lat="42.7420201" lon="12.7845326"><ele>608.0</ele><time>2026-04-03T15:14:12.689Z</time></trkpt><trkpt lat="42.7417995" lon="12.784529"><ele>608.0</ele><time>2026-04-03T15:14:13.69Z</time></trkpt><trkpt lat="42.7415915" lon="12.7845344"><ele>606.5</ele><time>2026-04-03T15:14:14.69Z</time></trkpt><trkpt lat="42.7414237" lon="12.7845456"><ele>605.0</ele><time>2026-04-03T15:14:15.689Z</time></trkpt><trkpt lat="42.7412868" lon="12.7845781"><ele>603.5</ele><time>2026-04-03T15:14:16.69Z</time></trkpt><trkpt lat="42.7411647" lon="12.7846704"><ele>602.0</ele><time>2026-04-03T15:14:17.69Z</time></trkpt><trkpt lat="42.7410419" lon="12.7848423"><ele>603.5</ele><time>2026-04-03T15:14:18.69Z</time></trkpt><trkpt lat="42.740905" lon="12.7850793"><ele>605.0</ele><time>2026-04-03T15:14:19.689Z</time></trkpt><trkpt lat="42.7407575" lon="12.7853321"><ele>605.0</ele><time>2026-04-03T15:14:20.69Z</time></trkpt><trkpt lat="42.7406244" lon="12.7855378"><ele>605.0</ele><time>2026-04-03T15:14:21.69Z</time></trkpt><trkpt lat="42.7405029" lon="12.7856878"><ele>605.0</ele><time>2026-04-03T15:14:22.689Z</time></trkpt><trkpt lat="42.7403584" lon="12.7857792"><ele>602.6666666666666</ele><time>2026-04-03T15:14:23.69Z</time></trkpt><trkpt lat="42.740177" lon="12.7858431"><ele>600.3333333333334</ele><time>2026-04-03T15:14:24.69Z</time></trkpt><trkpt lat="42.7399901" lon="12.7859216"><ele>598.0</ele><time>2026-04-03T15:14:25.69Z</time></trkpt><trkpt lat="42.7398252" lon="12.7860336"><ele>603.3333333333334</ele><time>2026-04-03T15:14:26.69Z</time></trkpt><trkpt lat="42.7396938" lon="12.7861974"><ele>608.6666666666666</ele><time>2026-04-03T15:14:27.69Z</time></trkpt><trkpt lat="42.7396042" lon="12.7863932"><ele>614.0</ele><time>2026-04-03T15:14:28.69Z</time></trkpt><trkpt lat="42.7395537" lon="12.7866045"><ele>614.0</ele><time>2026-04-03T15:14:29.69Z</time></trkpt><trkpt lat="42.7395519" lon="12.7868251"><ele>614.0</ele><time>2026-04-03T15:14:30.689Z</time></trkpt><trkpt lat="42.7396016" lon="12.7870701"><ele>614.0</ele><time>2026-04-03T15:14:31.69Z</time></trkpt><trkpt lat="42.7396922" lon="12.7873631"><ele>617.0</ele><time>2026-04-03T15:14:32.69Z</time></trkpt><trkpt lat="42.7398063" lon="12.7876718"><ele>620.0</ele><time>2026-04-03T15:14:33.69Z</time></trkpt><trkpt lat="42.7398959" lon="12.7879333"><ele>620.5</ele><time>2026-04-03T15:14:34.689Z</time></trkpt><trkpt lat="42.7399565" lon="12.788127"><ele>621.0</ele><time>2026-04-03T15:14:35.689Z</time></trkpt><trkpt lat="42.7400163" lon="12.7882721"><ele>621.5</ele><time>2026-04-03T15:14:36.689Z</time></trkpt><trkpt lat="42.7400928" lon="12.7883636"><ele>622.0</ele><time>2026-04-03T15:14:37.69Z</time></trkpt><trkpt lat="42.7401831" lon="12.7883933"><ele>622.0</ele><time>2026-04-03T15:14:38.689Z</time></trkpt><trkpt lat="42.7402615" lon="12.7883485"><ele>622.0</ele><time>2026-04-03T15:14:39.69Z</time></trkpt><trkpt lat="42.7403071" lon="12.7882435"><ele>622.0</ele><time>2026-04-03T15:14:40.69Z</time></trkpt><trkpt lat="42.7402955" lon="12.7880865"><ele>622.0</ele><time>2026-04-03T15:14:41.69Z</time></trkpt><trkpt lat="42.7402385" lon="12.7879069"><ele>622.0</ele><time>2026-04-03T15:14:42.69Z</time></trkpt><trkpt lat="42.7401395" lon="12.7877095"><ele>621.3333333333334</ele><time>2026-04-03T15:14:43.69Z</time></trkpt><trkpt lat="42.7400307" lon="12.7875005"><ele>620.6666666666666</ele><time>2026-04-03T15:14:44.69Z</time></trkpt><trkpt lat="42.7399579" lon="12.7873102"><ele>620.0</ele><time>2026-04-03T15:14:45.689Z</time></trkpt><trkpt lat="42.7399259" lon="12.7871297"><ele>620.0</ele><time>2026-04-03T15:14:46.69Z</time></trkpt><trkpt lat="42.7399374" lon="12.7869515"><ele>620.0</ele><time>2026-04-03T15:14:47.689Z</time></trkpt><trkpt lat="42.7400062" lon="12.7868063"><ele>620.0</ele><time>2026-04-03T15:14:48.689Z</time></trkpt><trkpt lat="42.7401193" lon="12.7867157"><ele>620.0</ele><time>2026-04-03T15:14:49.69Z</time></trkpt><trkpt lat="42.7402684" lon="12.7866495"><ele>621.6666666666666</ele><time>2026-04-03T15:14:50.69Z</time></trkpt><trkpt lat="42.7404591" lon="12.7866098"><ele>623.3333333333334</ele><time>2026-04-03T15:14:51.689Z</time></trkpt><trkpt lat="42.7406894" lon="12.7866056"><ele>625.0</ele><time>2026-04-03T15:14:52.69Z</time></trkpt><trkpt lat="42.7409389" lon="12.7866284"><ele>629.0</ele><time>2026-04-03T15:14:53.689Z</time></trkpt><trkpt lat="42.7411868" lon="12.7866688"><ele>633.0</ele><time>2026-04-03T15:14:54.69Z</time></trkpt><trkpt lat="42.7413912" lon="12.7867112"><ele>633.0</ele><time>2026-04-03T15:14:55.689Z</time></trkpt><trkpt lat="42.7415491" lon="12.7867431"><ele>633.0</ele><time>2026-04-03T15:14:56.69Z</time></trkpt><trkpt lat="42.7416916" lon="12.7867147"><ele>633.0</ele><time>2026-04-03T15:14:57.689Z</time></trkpt><trkpt lat="42.7418154" lon="12.7865941"><ele>640.6666666666666</ele><time>2026-04-03T15:14:58.689Z</time></trkpt><trkpt lat="42.7419232" lon="12.7864101"><ele>648.3333333333333</ele><time>2026-04-03T15:14:59.69Z</time></trkpt><trkpt lat="42.7420387" lon="12.7862047"><ele>656.0</ele><time>2026-04-03T15:15:00.69Z</time></trkpt><trkpt lat="42.7421621" lon="12.7860248"><ele>649.0</ele><time>2026-04-03T15:15:01.689Z</time></trkpt><trkpt lat="42.7423033" lon="12.7859091"><ele>642.0</ele><time>2026-04-03T15:15:02.69Z</time></trkpt><trkpt lat="42.7424723" lon="12.7858331"><ele>635.0</ele><time>2026-04-03T15:15:03.689Z</time></trkpt><trkpt lat="42.7426691" lon="12.7857842"><ele>636.6666666666666</ele><time>2026-04-03T15:15:04.689Z</time></trkpt><trkpt lat="42.7428785" lon="12.7857768"><ele>638.3333333333334</ele><time>2026-04-03T15:15:05.689Z</time></trkpt><trkpt lat="42.7430811" lon="12.7858144"><ele>640.0</ele><time>2026-04-03T15:15:06.689Z</time></trkpt><trkpt lat="42.7432994" lon="12.7858936"><ele>640.0</ele><time>2026-04-03T15:15:07.69Z</time></trkpt><trkpt lat="42.7435116" lon="12.7859819"><ele>640.0</ele><time>2026-04-03T15:15:08.69Z</time></trkpt><trkpt lat="42.7436984" lon="12.7860917"><ele>640.0</ele><time>2026-04-03T15:15:09.69Z</time></trkpt><trkpt lat="42.7438671" lon="12.7862549"><ele>646.5</ele><time>2026-04-03T15:15:10.69Z</time></trkpt><trkpt lat="42.7440371" lon="12.7864793"><ele>653.0</ele><time>2026-04-03T15:15:11.69Z</time></trkpt><trkpt lat="42.7442087" lon="12.7867263"><ele>653.0</ele><time>2026-04-03T15:15:12.689Z</time></trkpt><trkpt lat="42.7443915" lon="12.7869347"><ele>653.0</ele><time>2026-04-03T15:15:13.69Z</time></trkpt><trkpt lat="42.7445832" lon="12.7871056"><ele>653.0</ele><time>2026-04-03T15:15:14.689Z</time></trkpt><trkpt lat="42.7447495" lon="12.7872462"><ele>653.0</ele><time>2026-04-03T15:15:15.69Z</time></trkpt><trkpt lat="42.7448898" lon="12.7873934"><ele>653.0</ele><time>2026-04-03T15:15:16.689Z</time></trkpt><trkpt lat="42.7450326" lon="12.7875846"><ele>659.6666666666666</ele><time>2026-04-03T15:15:17.689Z</time></trkpt><trkpt lat="42.7451683" lon="12.7877969"><ele>666.3333333333334</ele><time>2026-04-03T15:15:18.689Z</time></trkpt><trkpt lat="42.745274" lon="12.7879703"><ele>673.0</ele><time>2026-04-03T15:15:19.689Z</time></trkpt><trkpt lat="42.7453691" lon="12.788093"><ele>673.0</ele><time>2026-04-03T15:15:20.69Z</time></trkpt><trkpt lat="42.7454735" lon="12.788157"><ele>673.0</ele><time>2026-04-03T15:15:21.689Z</time></trkpt><trkpt lat="42.7455845" lon="12.7881538"><ele>673.0</ele><time>2026-04-03T15:15:22.689Z</time></trkpt><trkpt lat="42.7457122" lon="12.7880684"><ele>673.0</ele><time>2026-04-03T15:15:23.689Z</time></trkpt><trkpt lat="42.74586" lon="12.7879303"><ele>673.0</ele><time>2026-04-03T15:15:24.69Z</time></trkpt><trkpt lat="42.7460262" lon="12.7877635"><ele>673.0</ele><time>2026-04-03T15:15:25.689Z</time></trkpt><trkpt lat="42.7461947" lon="12.7876169"><ele>673.0</ele><time>2026-04-03T15:15:26.69Z</time></trkpt><trkpt lat="42.7463465" lon="12.7875483"><ele>675.6666666666667</ele><time>2026-04-03T15:15:27.69Z</time></trkpt><trkpt lat="42.7464961" lon="12.7875329"><ele>678.3333333333334</ele><time>2026-04-03T15:15:28.69Z</time></trkpt><trkpt lat="42.7466446" lon="12.7875789"><ele>681.0</ele><time>2026-04-03T15:15:29.69Z</time></trkpt><trkpt lat="42.7468061" lon="12.7876999"><ele>671.6666666666666</ele><time>2026-04-03T15:15:30.69Z</time></trkpt><trkpt lat="42.7469667" lon="12.7878844"><ele>662.3333333333333</ele><time>2026-04-03T15:15:31.69Z</time></trkpt><trkpt lat="42.7471084" lon="12.7880949"><ele>653.0</ele><time>2026-04-03T15:15:32.69Z</time></trkpt><trkpt lat="42.7472118" lon="12.7883008"><ele>658.0</ele><time>2026-04-03T15:15:33.689Z</time></trkpt><trkpt lat="42.7472947" lon="12.788538"><ele>663.0</ele><time>2026-04-03T15:15:34.689Z</time></trkpt><trkpt lat="42.7473605" lon="12.7888372"><ele>668.0</ele><time>2026-04-03T15:15:35.69Z</time></trkpt><trkpt lat="42.7474122" lon="12.7891827"><ele>676.0</ele><time>2026-04-03T15:15:36.69Z</time></trkpt><trkpt lat="42.7474811" lon="12.7895619"><ele>684.0</ele><time>2026-04-03T15:15:37.69Z</time></trkpt><trkpt lat="42.7475686" lon="12.7899457"><ele>694.0</ele><time>2026-04-03T15:15:38.69Z</time></trkpt><trkpt lat="42.7476636" lon="12.7902917"><ele>704.0</ele><time>2026-04-03T15:15:39.69Z</time></trkpt><trkpt lat="42.7477614" lon="12.7906018"><ele>694.0</ele><time>2026-04-03T15:15:40.689Z</time></trkpt><trkpt lat="42.7478713" lon="12.7908917"><ele>684.0</ele><time>2026-04-03T15:15:41.689Z</time></trkpt><trkpt lat="42.7479979" lon="12.7911625"><ele>684.0</ele><time>2026-04-03T15:15:42.69Z</time></trkpt><trkpt lat="42.7481427" lon="12.7914128"><ele>684.0</ele><time>2026-04-03T15:15:43.69Z</time></trkpt><trkpt lat="42.7482758" lon="12.7916102"><ele>684.0</ele><time>2026-04-03T15:15:44.689Z</time></trkpt><trkpt lat="42.7483735" lon="12.791742"><ele>684.0</ele><time>2026-04-03T15:15:45.689Z</time></trkpt><trkpt lat="42.7484217" lon="12.7918216"><ele>684.0</ele><time>2026-04-03T15:15:46.689Z</time></trkpt><trkpt lat="42.7484553" lon="12.7918954"><ele>684.0</ele><time>2026-04-03T15:15:49.69Z</time></trkpt><trkpt lat="42.7484588" lon="12.791802"><ele>684.0</ele><time>2026-04-03T15:17:11.69Z</time></trkpt><trkpt lat="42.7483871" lon="12.7917198"><ele>684.0</ele><time>2026-04-03T15:17:13.689Z</time></trkpt><trkpt lat="42.7483216" lon="12.7916413"><ele>684.0</ele><time>2026-04-03T15:17:14.69Z</time></trkpt><trkpt lat="42.7482426" lon="12.7915354"><ele>684.0</ele><time>2026-04-03T15:17:15.69Z</time></trkpt><trkpt lat="42.7481544" lon="12.7914018"><ele>684.0</ele><time>2026-04-03T15:17:16.689Z</time></trkpt><trkpt lat="42.7480611" lon="12.79125"><ele>684.0</ele><time>2026-04-03T15:17:17.689Z</time></trkpt><trkpt lat="42.7479627" lon="12.7910857"><ele>684.0</ele><time>2026-04-03T15:17:18.69Z</time></trkpt><trkpt lat="42.7478727" lon="12.7908951"><ele>684.0</ele><time>2026-04-03T15:17:19.69Z</time></trkpt><trkpt lat="42.7477943" lon="12.7906687"><ele>684.0</ele><time>2026-04-03T15:17:20.69Z</time></trkpt><trkpt lat="42.7477208" lon="12.790417"><ele>684.0</ele><time>2026-04-03T15:17:21.69Z</time></trkpt><trkpt lat="42.747643" lon="12.790145"><ele>684.0</ele><time>2026-04-03T15:17:22.69Z</time></trkpt><trkpt lat="42.747569" lon="12.7898486"><ele>684.0</ele><time>2026-04-03T15:17:23.69Z</time></trkpt><trkpt lat="42.747504" lon="12.7895401"><ele>678.6666666666666</ele><time>2026-04-03T15:17:24.69Z</time></trkpt><trkpt lat="42.7474502" lon="12.789248"><ele>673.3333333333333</ele><time>2026-04-03T15:17:25.689Z</time></trkpt><trkpt lat="42.7473993" lon="12.7889798"><ele>668.0</ele><time>2026-04-03T15:17:26.69Z</time></trkpt><trkpt lat="42.7473606" lon="12.7887306"><ele>663.0</ele><time>2026-04-03T15:17:27.689Z</time></trkpt><trkpt lat="42.747316" lon="12.7884973"><ele>658.0</ele><time>2026-04-03T15:17:28.69Z</time></trkpt><trkpt lat="42.7472379" lon="12.7882715"><ele>653.0</ele><time>2026-04-03T15:17:29.69Z</time></trkpt><trkpt lat="42.7471245" lon="12.7880437"><ele>653.0</ele><time>2026-04-03T15:17:30.69Z</time></trkpt><trkpt lat="42.7469827" lon="12.787844"><ele>653.0</ele><time>2026-04-03T15:17:31.69Z</time></trkpt><trkpt lat="42.7468338" lon="12.7876877"><ele>653.0</ele><time>2026-04-03T15:17:32.689Z</time></trkpt><trkpt lat="42.7466769" lon="12.7875723"><ele>655.3333333333333</ele><time>2026-04-03T15:17:33.689Z</time></trkpt><trkpt lat="42.7465189" lon="12.7875119"><ele>657.6666666666666</ele><time>2026-04-03T15:17:34.69Z</time></trkpt><trkpt lat="42.7463668" lon="12.7875086"><ele>660.0</ele><time>2026-04-03T15:17:35.689Z</time></trkpt><trkpt lat="42.74622" lon="12.7875636"><ele>664.3333333333334</ele><time>2026-04-03T15:17:36.689Z</time></trkpt><trkpt lat="42.7460717" lon="12.787688"><ele>668.6666666666667</ele><time>2026-04-03T15:17:37.69Z</time></trkpt><trkpt lat="42.7459127" lon="12.7878521"><ele>673.0</ele><time>2026-04-03T15:17:38.69Z</time></trkpt><trkpt lat="42.7457684" lon="12.788003"><ele>673.0</ele><time>2026-04-03T15:17:39.69Z</time></trkpt><trkpt lat="42.745638" lon="12.7881012"><ele>673.0</ele><time>2026-04-03T15:17:40.69Z</time></trkpt><trkpt lat="42.7455259" lon="12.78814"><ele>673.0</ele><time>2026-04-03T15:17:41.689Z</time></trkpt><trkpt lat="42.7454263" lon="12.788117"><ele>673.0</ele><time>2026-04-03T15:17:42.69Z</time></trkpt><trkpt lat="42.7453294" lon="12.7880255"><ele>673.0</ele><time>2026-04-03T15:17:43.69Z</time></trkpt><trkpt lat="42.7452239" lon="12.7878751"><ele>673.0</ele><time>2026-04-03T15:17:44.69Z</time></trkpt><trkpt lat="42.7451075" lon="12.7876882"><ele>673.0</ele><time>2026-04-03T15:17:45.689Z</time></trkpt><trkpt lat="42.7449804" lon="12.7874973"><ele>666.3333333333334</ele><time>2026-04-03T15:17:46.69Z</time></trkpt><trkpt lat="42.7448497" lon="12.7873338"><ele>659.6666666666666</ele><time>2026-04-03T15:17:47.69Z</time></trkpt><trkpt lat="42.7447143" lon="12.7871923"><ele>653.0</ele><time>2026-04-03T15:17:48.69Z</time></trkpt><trkpt lat="42.7445688" lon="12.7870649"><ele>653.0</ele><time>2026-04-03T15:17:49.69Z</time></trkpt><trkpt lat="42.7444279" lon="12.7869376"><ele>653.0</ele><time>2026-04-03T15:17:50.689Z</time></trkpt><trkpt lat="42.7442957" lon="12.7867971"><ele>653.0</ele><time>2026-04-03T15:17:51.689Z</time></trkpt><trkpt lat="42.7441755" lon="12.7866337"><ele>653.0</ele><time>2026-04-03T15:17:52.689Z</time></trkpt><trkpt lat="42.7440628" lon="12.786465"><ele>653.0</ele><time>2026-04-03T15:17:53.689Z</time></trkpt><trkpt lat="42.7439448" lon="12.7863081"><ele>653.0</ele><time>2026-04-03T15:17:54.689Z</time></trkpt><trkpt lat="42.7438105" lon="12.7861728"><ele>653.0</ele><time>2026-04-03T15:17:55.689Z</time></trkpt><trkpt lat="42.7436592" lon="12.7860621"><ele>653.0</ele><time>2026-04-03T15:17:56.689Z</time></trkpt><trkpt lat="42.7435018" lon="12.7859808"><ele>653.0</ele><time>2026-04-03T15:17:57.689Z</time></trkpt><trkpt lat="42.7433413" lon="12.7859173"><ele>648.6666666666666</ele><time>2026-04-03T15:17:58.69Z</time></trkpt><trkpt lat="42.7431756" lon="12.7858677"><ele>644.3333333333334</ele><time>2026-04-03T15:17:59.689Z</time></trkpt><trkpt lat="42.7430129" lon="12.7858232"><ele>640.0</ele><time>2026-04-03T15:18:00.69Z</time></trkpt><trkpt lat="42.7428553" lon="12.7857863"><ele>638.3333333333334</ele><time>2026-04-03T15:18:01.69Z</time></trkpt><trkpt lat="42.7426938" lon="12.7857864"><ele>636.6666666666666</ele><time>2026-04-03T15:18:02.69Z</time></trkpt><trkpt lat="42.7425327" lon="12.7858255"><ele>635.0</ele><time>2026-04-03T15:18:03.69Z</time></trkpt><trkpt lat="42.742374" lon="12.7858857"><ele>635.0</ele><time>2026-04-03T15:18:04.69Z</time></trkpt><trkpt lat="42.7422274" lon="12.7859724"><ele>635.0</ele><time>2026-04-03T15:18:05.69Z</time></trkpt><trkpt lat="42.7420957" lon="12.7860948"><ele>635.0</ele><time>2026-04-03T15:18:06.69Z</time></trkpt><trkpt lat="42.7420006" lon="12.7862587"><ele>634.5</ele><time>2026-04-03T15:18:07.689Z</time></trkpt><trkpt lat="42.7419074" lon="12.7864216"><ele>634.0</ele><time>2026-04-03T15:18:08.69Z</time></trkpt><trkpt lat="42.7418062" lon="12.786568"><ele>633.5</ele><time>2026-04-03T15:18:09.69Z</time></trkpt><trkpt lat="42.7416854" lon="12.7866653"><ele>633.0</ele><time>2026-04-03T15:18:10.689Z</time></trkpt><trkpt lat="42.7415465" lon="12.7866976"><ele>633.0</ele><time>2026-04-03T15:18:11.689Z</time></trkpt><trkpt lat="42.7414094" lon="12.786684"><ele>633.0</ele><time>2026-04-03T15:18:12.689Z</time></trkpt><trkpt lat="42.7412714" lon="12.7866548"><ele>633.0</ele><time>2026-04-03T15:18:13.689Z</time></trkpt><trkpt lat="42.7411375" lon="12.786627"><ele>633.0</ele><time>2026-04-03T15:18:14.689Z</time></trkpt><trkpt lat="42.741001" lon="12.7866066"><ele>631.0</ele><time>2026-04-03T15:18:15.689Z</time></trkpt><trkpt lat="42.740857" lon="12.786603"><ele>629.0</ele><time>2026-04-03T15:18:16.69Z</time></trkpt><trkpt lat="42.740714" lon="12.7865943"><ele>627.0</ele><time>2026-04-03T15:18:17.689Z</time></trkpt><trkpt lat="42.7405725" lon="12.7865917"><ele>625.0</ele><time>2026-04-03T15:18:18.689Z</time></trkpt><trkpt lat="42.74043" lon="12.7865981"><ele>625.0</ele><time>2026-04-03T15:18:19.69Z</time></trkpt><trkpt lat="42.7402881" lon="12.7866108"><ele>625.0</ele><time>2026-04-03T15:18:20.69Z</time></trkpt><trkpt lat="42.7401543" lon="12.7866696"><ele>625.0</ele><time>2026-04-03T15:18:21.69Z</time></trkpt><trkpt lat="42.7400389" lon="12.7867805"><ele>625.0</ele><time>2026-04-03T15:18:22.689Z</time></trkpt><trkpt lat="42.7399566" lon="12.7869305"><ele>623.75</ele><time>2026-04-03T15:18:23.69Z</time></trkpt><trkpt lat="42.7399297" lon="12.787091"><ele>622.5</ele><time>2026-04-03T15:18:24.69Z</time></trkpt><trkpt lat="42.7399345" lon="12.7872633"><ele>621.25</ele><time>2026-04-03T15:18:25.689Z</time></trkpt><trkpt lat="42.7399895" lon="12.7874105"><ele>620.0</ele><time>2026-04-03T15:18:26.69Z</time></trkpt><trkpt lat="42.7400542" lon="12.787554"><ele>620.5</ele><time>2026-04-03T15:18:27.69Z</time></trkpt><trkpt lat="42.7401221" lon="12.7876934"><ele>621.0</ele><time>2026-04-03T15:18:28.69Z</time></trkpt><trkpt lat="42.7401993" lon="12.7878533"><ele>621.5</ele><time>2026-04-03T15:18:29.69Z</time></trkpt><trkpt lat="42.7402595" lon="12.7880017"><ele>622.0</ele><time>2026-04-03T15:18:30.69Z</time></trkpt><trkpt lat="42.7402873" lon="12.788111"><ele>622.0</ele><time>2026-04-03T15:18:31.69Z</time></trkpt><trkpt lat="42.740276" lon="12.7882193"><ele>622.0</ele><time>2026-04-03T15:18:32.69Z</time></trkpt><trkpt lat="42.7402306" lon="12.7883019"><ele>622.0</ele><time>2026-04-03T15:18:33.69Z</time></trkpt><trkpt lat="42.7401566" lon="12.7883304"><ele>622.0</ele><time>2026-04-03T15:18:34.689Z</time></trkpt><trkpt lat="42.7400641" lon="12.7882898"><ele>622.0</ele><time>2026-04-03T15:18:35.69Z</time></trkpt><trkpt lat="42.7399751" lon="12.788197"><ele>622.0</ele><time>2026-04-03T15:18:36.69Z</time></trkpt><trkpt lat="42.7399137" lon="12.7880269"><ele>622.0</ele><time>2026-04-03T15:18:37.69Z</time></trkpt><trkpt lat="42.7398559" lon="12.7878082"><ele>622.0</ele><time>2026-04-03T15:18:38.689Z</time></trkpt><trkpt lat="42.739786" lon="12.7875706"><ele>622.0</ele><time>2026-04-03T15:18:39.689Z</time></trkpt><trkpt lat="42.7397022" lon="12.7873289"><ele>621.3333333333334</ele><time>2026-04-03T15:18:40.69Z</time></trkpt><trkpt lat="42.7396243" lon="12.7870979"><ele>620.6666666666666</ele><time>2026-04-03T15:18:41.69Z</time></trkpt><trkpt lat="42.7395768" lon="12.7868717"><ele>620.0</ele><time>2026-04-03T15:18:42.69Z</time></trkpt><trkpt lat="42.7395698" lon="12.786647"><ele>618.0</ele><time>2026-04-03T15:18:43.69Z</time></trkpt><trkpt lat="42.739595" lon="12.7864451"><ele>616.0</ele><time>2026-04-03T15:18:44.689Z</time></trkpt><trkpt lat="42.7396806" lon="12.7862661"><ele>614.0</ele><time>2026-04-03T15:18:45.689Z</time></trkpt><trkpt lat="42.7397965" lon="12.786088"><ele>611.0</ele><time>2026-04-03T15:18:46.69Z</time></trkpt><trkpt lat="42.7399483" lon="12.7859466"><ele>608.0</ele><time>2026-04-03T15:18:47.689Z</time></trkpt><trkpt lat="42.7401331" lon="12.7858595"><ele>605.0</ele><time>2026-04-03T15:18:48.69Z</time></trkpt><trkpt lat="42.7403115" lon="12.785797"><ele>605.0</ele><time>2026-04-03T15:18:49.69Z</time></trkpt><trkpt lat="42.7404707" lon="12.785723"><ele>605.0</ele><time>2026-04-03T15:18:50.69Z</time></trkpt><trkpt lat="42.7406102" lon="12.7855742"><ele>605.0</ele><time>2026-04-03T15:18:51.69Z</time></trkpt><trkpt lat="42.7407337" lon="12.7853754"><ele>604.0</ele><time>2026-04-03T15:18:52.69Z</time></trkpt><trkpt lat="42.7408508" lon="12.785179"><ele>603.0</ele><time>2026-04-03T15:18:53.689Z</time></trkpt><trkpt lat="42.7409677" lon="12.7849814"><ele>602.0</ele><time>2026-04-03T15:18:54.69Z</time></trkpt><trkpt lat="42.7410765" lon="12.7848066"><ele>602.0</ele><time>2026-04-03T15:18:55.689Z</time></trkpt><trkpt lat="42.7411778" lon="12.7846737"><ele>602.0</ele><time>2026-04-03T15:18:56.69Z</time></trkpt><trkpt lat="42.7412922" lon="12.7845888"><ele>602.0</ele><time>2026-04-03T15:18:57.69Z</time></trkpt><trkpt lat="42.7414271" lon="12.7845489"><ele>602.0</ele><time>2026-04-03T15:18:58.69Z</time></trkpt><trkpt lat="42.7415837" lon="12.7845449"><ele>602.0</ele><time>2026-04-03T15:18:59.689Z</time></trkpt><trkpt lat="42.7417708" lon="12.7845292"><ele>602.0</ele><time>2026-04-03T15:19:00.689Z</time></trkpt><trkpt lat="42.7419676" lon="12.7845216"><ele>602.0</ele><time>2026-04-03T15:19:01.689Z</time></trkpt><trkpt lat="42.7421397" lon="12.7845384"><ele>603.5</ele><time>2026-04-03T15:19:02.69Z</time></trkpt><trkpt lat="42.742291" lon="12.7845774"><ele>605.0</ele><time>2026-04-03T15:19:03.69Z</time></trkpt><trkpt lat="42.7424117" lon="12.7846058"><ele>606.5</ele><time>2026-04-03T15:19:04.69Z</time></trkpt><trkpt lat="42.7425228" lon="12.7846221"><ele>608.0</ele><time>2026-04-03T15:19:05.689Z</time></trkpt><trkpt lat="42.7426139" lon="12.7846024"><ele>608.0</ele><time>2026-04-03T15:19:06.69Z</time></trkpt><trkpt lat="42.7426481" lon="12.7845161"><ele>608.0</ele><time>2026-04-03T15:19:07.69Z</time></trkpt><trkpt lat="42.7426461" lon="12.7844104"><ele>608.0</ele><time>2026-04-03T15:19:08.689Z</time></trkpt><trkpt lat="42.7425946" lon="12.7843025"><ele>608.0</ele><time>2026-04-03T15:19:09.689Z</time></trkpt><trkpt lat="42.742493" lon="12.7842362"><ele>608.0</ele><time>2026-04-03T15:19:10.689Z</time></trkpt><trkpt lat="42.7423451" lon="12.7842151"><ele>598.3333333333333</ele><time>2026-04-03T15:19:11.689Z</time></trkpt><trkpt lat="42.742186" lon="12.7842049"><ele>588.6666666666666</ele><time>2026-04-03T15:19:12.69Z</time></trkpt><trkpt lat="42.7420167" lon="12.7841868"><ele>579.0</ele><time>2026-04-03T15:19:13.689Z</time></trkpt><trkpt lat="42.7418699" lon="12.7841468"><ele>579.0</ele><time>2026-04-03T15:19:14.69Z</time></trkpt><trkpt lat="42.7417458" lon="12.7840811"><ele>579.0</ele><time>2026-04-03T15:19:15.69Z</time></trkpt><trkpt lat="42.7416344" lon="12.7840082"><ele>579.0</ele><time>2026-04-03T15:19:16.69Z</time></trkpt><trkpt lat="42.7415408" lon="12.7839044"><ele>579.0</ele><time>2026-04-03T15:19:17.69Z</time></trkpt><trkpt lat="42.7414478" lon="12.7837932"><ele>579.0</ele><time>2026-04-03T15:19:18.69Z</time></trkpt><trkpt lat="42.7413658" lon="12.7836893"><ele>579.0</ele><time>2026-04-03T15:19:19.69Z</time></trkpt><trkpt lat="42.7412919" lon="12.783601"><ele>579.0</ele><time>2026-04-03T15:19:20.689Z</time></trkpt><trkpt lat="42.7412208" lon="12.7835087"><ele>579.0</ele><time>2026-04-03T15:19:21.69Z</time></trkpt><trkpt lat="42.7411618" lon="12.7833991"><ele>579.0</ele><time>2026-04-03T15:19:22.69Z</time></trkpt><trkpt lat="42.7411327" lon="12.7832444"><ele>575.3333333333334</ele><time>2026-04-03T15:19:23.689Z</time></trkpt><trkpt lat="42.7411108" lon="12.7830762"><ele>571.6666666666667</ele><time>2026-04-03T15:19:24.69Z</time></trkpt><trkpt lat="42.7410728" lon="12.7828799"><ele>568.0</ele><time>2026-04-03T15:19:25.689Z</time></trkpt><trkpt lat="42.7410276" lon="12.78264"><ele>568.0</ele><time>2026-04-03T15:19:26.69Z</time></trkpt><trkpt lat="42.7409796" lon="12.7823776"><ele>568.0</ele><time>2026-04-03T15:19:27.689Z</time></trkpt><trkpt lat="42.7409125" lon="12.7821076"><ele>568.0</ele><time>2026-04-03T15:19:28.69Z</time></trkpt><trkpt lat="42.7408243" lon="12.7818344"><ele>570.5</ele><time>2026-04-03T15:19:29.69Z</time></trkpt><trkpt lat="42.7407153" lon="12.7815652"><ele>573.0</ele><time>2026-04-03T15:19:30.69Z</time></trkpt><trkpt lat="42.7405896" lon="12.7813077"><ele>573.0</ele><time>2026-04-03T15:19:31.69Z</time></trkpt><trkpt lat="42.7404575" lon="12.7810724"><ele>573.0</ele><time>2026-04-03T15:19:32.69Z</time></trkpt><trkpt lat="42.7403468" lon="12.7808477"><ele>573.0</ele><time>2026-04-03T15:19:33.69Z</time></trkpt><trkpt lat="42.7402629" lon="12.780627"><ele>568.6666666666666</ele><time>2026-04-03T15:19:34.689Z</time></trkpt><trkpt lat="42.7402131" lon="12.7803895"><ele>564.3333333333333</ele><time>2026-04-03T15:19:35.69Z</time></trkpt><trkpt lat="42.7402007" lon="12.7801241"><ele>560.0</ele><time>2026-04-03T15:19:36.689Z</time></trkpt><trkpt lat="42.7401873" lon="12.7798443"><ele>560.0</ele><time>2026-04-03T15:19:37.69Z</time></trkpt><trkpt lat="42.7401681" lon="12.7795532"><ele>560.0</ele><time>2026-04-03T15:19:38.69Z</time></trkpt><trkpt lat="42.7401404" lon="12.7792534"><ele>560.0</ele><time>2026-04-03T15:19:39.69Z</time></trkpt><trkpt lat="42.7401171" lon="12.7789509"><ele>559.0</ele><time>2026-04-03T15:19:40.69Z</time></trkpt><trkpt lat="42.7400998" lon="12.7786508"><ele>558.0</ele><time>2026-04-03T15:19:41.69Z</time></trkpt><trkpt lat="42.7400956" lon="12.7783611"><ele>557.0</ele><time>2026-04-03T15:19:42.69Z</time></trkpt><trkpt lat="42.7401057" lon="12.7780695"><ele>557.0</ele><time>2026-04-03T15:19:43.689Z</time></trkpt><trkpt lat="42.7401396" lon="12.7777665"><ele>557.0</ele><time>2026-04-03T15:19:44.69Z</time></trkpt><trkpt lat="42.7401801" lon="12.7774479"><ele>554.5</ele><time>2026-04-03T15:19:45.69Z</time></trkpt><trkpt lat="42.7402028" lon="12.7771237"><ele>552.0</ele><time>2026-04-03T15:19:46.689Z</time></trkpt><trkpt lat="42.7402073" lon="12.7767869"><ele>570.5</ele><time>2026-04-03T15:19:47.689Z</time></trkpt><trkpt lat="42.7402237" lon="12.7764431"><ele>589.0</ele><time>2026-04-03T15:19:48.69Z</time></trkpt><trkpt lat="42.7402588" lon="12.7760977"><ele>585.5</ele><time>2026-04-03T15:19:49.69Z</time></trkpt><trkpt lat="42.7402969" lon="12.7757573"><ele>582.0</ele><time>2026-04-03T15:19:50.689Z</time></trkpt><trkpt lat="42.7403381" lon="12.7754258"><ele>580.5</ele><time>2026-04-03T15:19:51.689Z</time></trkpt><trkpt lat="42.7403674" lon="12.7750945"><ele>579.0</ele><time>2026-04-03T15:19:52.69Z</time></trkpt><trkpt lat="42.7403815" lon="12.7747633"><ele>579.0</ele><time>2026-04-03T15:19:53.689Z</time></trkpt><trkpt lat="42.7403698" lon="12.7744356"><ele>579.0</ele><time>2026-04-03T15:19:54.69Z</time></trkpt><trkpt lat="42.7403432" lon="12.7741042"><ele>579.0</ele><time>2026-04-03T15:19:55.689Z</time></trkpt><trkpt lat="42.7403068" lon="12.7737685"><ele>579.0</ele><time>2026-04-03T15:19:56.69Z</time></trkpt><trkpt lat="42.7402682" lon="12.7734288"><ele>580.0</ele><time>2026-04-03T15:19:57.689Z</time></trkpt><trkpt lat="42.7402263" lon="12.7730855"><ele>581.0</ele><time>2026-04-03T15:19:58.69Z</time></trkpt><trkpt lat="42.7401822" lon="12.7727386"><ele>561.0</ele><time>2026-04-03T15:19:59.69Z</time></trkpt><trkpt lat="42.7401395" lon="12.7723965"><ele>541.0</ele><time>2026-04-03T15:20:00.689Z</time></trkpt><trkpt lat="42.7400991" lon="12.7720713"><ele>541.5</ele><time>2026-04-03T15:20:01.69Z</time></trkpt><trkpt lat="42.7400595" lon="12.7717491"><ele>542.0</ele><time>2026-04-03T15:20:02.69Z</time></trkpt><trkpt lat="42.7400278" lon="12.7714127"><ele>542.0</ele><time>2026-04-03T15:20:03.69Z</time></trkpt><trkpt lat="42.7400064" lon="12.7710594"><ele>542.0</ele><time>2026-04-03T15:20:04.689Z</time></trkpt><trkpt lat="42.7400053" lon="12.7706937"><ele>540.5</ele><time>2026-04-03T15:20:05.69Z</time></trkpt><trkpt lat="42.7400123" lon="12.7703171"><ele>539.0</ele><time>2026-04-03T15:20:06.689Z</time></trkpt><trkpt lat="42.7400208" lon="12.7699369"><ele>537.5</ele><time>2026-04-03T15:20:07.69Z</time></trkpt><trkpt lat="42.740019" lon="12.7695659"><ele>536.0</ele><time>2026-04-03T15:20:08.69Z</time></trkpt><trkpt lat="42.7400062" lon="12.7692202"><ele>535.5</ele><time>2026-04-03T15:20:09.69Z</time></trkpt><trkpt lat="42.7399784" lon="12.7688909"><ele>535.0</ele><time>2026-04-03T15:20:10.69Z</time></trkpt><trkpt lat="42.7399193" lon="12.7685702"><ele>535.0</ele><time>2026-04-03T15:20:11.69Z</time></trkpt><trkpt lat="42.7398313" lon="12.768243"><ele>535.0</ele><time>2026-04-03T15:20:12.689Z</time></trkpt><trkpt lat="42.7397504" lon="12.7678933"><ele>533.5</ele><time>2026-04-03T15:20:13.689Z</time></trkpt><trkpt lat="42.7396811" lon="12.7675307"><ele>532.0</ele><time>2026-04-03T15:20:14.689Z</time></trkpt><trkpt lat="42.7396228" lon="12.7671517"><ele>528.5</ele><time>2026-04-03T15:20:15.689Z</time></trkpt><trkpt lat="42.7395635" lon="12.7667594"><ele>525.0</ele><time>2026-04-03T15:20:16.69Z</time></trkpt><trkpt lat="42.7395057" lon="12.7663557"><ele>518.5</ele><time>2026-04-03T15:20:17.69Z</time></trkpt><trkpt lat="42.7394454" lon="12.7659526"><ele>512.0</ele><time>2026-04-03T15:20:18.689Z</time></trkpt><trkpt lat="42.7393959" lon="12.7655783"><ele>518.5</ele><time>2026-04-03T15:20:19.69Z</time></trkpt><trkpt lat="42.739356" lon="12.7652506"><ele>525.0</ele><time>2026-04-03T15:20:20.69Z</time></trkpt><trkpt lat="42.7393255" lon="12.764941"><ele>526.3333333333334</ele><time>2026-04-03T15:20:21.689Z</time></trkpt><trkpt lat="42.7393172" lon="12.7646407"><ele>527.6666666666667</ele><time>2026-04-03T15:20:22.689Z</time></trkpt><trkpt lat="42.7393335" lon="12.7643368"><ele>529.0</ele><time>2026-04-03T15:20:23.69Z</time></trkpt><trkpt lat="42.7393587" lon="12.7640287"><ele>529.3333333333334</ele><time>2026-04-03T15:20:24.69Z</time></trkpt><trkpt lat="42.7393759" lon="12.763758"><ele>529.6666666666666</ele><time>2026-04-03T15:20:25.689Z</time></trkpt><trkpt lat="42.7393904" lon="12.7635391"><ele>530.0</ele><time>2026-04-03T15:20:26.689Z</time></trkpt><trkpt lat="42.7394151" lon="12.7633742"><ele>526.1666666666666</ele><time>2026-04-03T15:20:27.69Z</time></trkpt><trkpt lat="42.7394634" lon="12.7632659"><ele>522.3333333333333</ele><time>2026-04-03T15:20:28.69Z</time></trkpt><trkpt lat="42.7395209" lon="12.7632096"><ele>518.5</ele><time>2026-04-03T15:20:29.69Z</time></trkpt><trkpt lat="42.7395952" lon="12.7632291"><ele>514.6666666666666</ele><time>2026-04-03T15:20:30.69Z</time></trkpt><trkpt lat="42.7396516" lon="12.7633016"><ele>510.8333333333333</ele><time>2026-04-03T15:20:31.69Z</time></trkpt><trkpt lat="42.7396674" lon="12.7633944"><ele>507.0</ele><time>2026-04-03T15:20:32.689Z</time></trkpt><trkpt lat="42.7396574" lon="12.7636063"><ele>507.0</ele><time>2026-04-03T15:20:33.69Z</time></trkpt><trkpt lat="42.7396203" lon="12.7638787"><ele>507.0</ele><time>2026-04-03T15:20:34.689Z</time></trkpt><trkpt lat="42.7395738" lon="12.7641474"><ele>507.0</ele><time>2026-04-03T15:20:35.689Z</time></trkpt><trkpt lat="42.7395491" lon="12.7643577"><ele>506.6</ele><time>2026-04-03T15:20:36.69Z</time></trkpt><trkpt lat="42.7395355" lon="12.7645291"><ele>506.20000000000005</ele><time>2026-04-03T15:20:37.69Z</time></trkpt><trkpt lat="42.7395416" lon="12.7646592"><ele>505.8</ele><time>2026-04-03T15:20:38.69Z</time></trkpt><trkpt lat="42.7395891" lon="12.7647414"><ele>505.4</ele><time>2026-04-03T15:20:39.69Z</time></trkpt><trkpt lat="42.7396794" lon="12.7647703"><ele>505.0</ele><time>2026-04-03T15:20:40.689Z</time></trkpt><trkpt lat="42.7397592" lon="12.7647188"><ele>505.0</ele><time>2026-04-03T15:20:41.69Z</time></trkpt><trkpt lat="42.7398307" lon="12.7646037"><ele>505.0</ele><time>2026-04-03T15:20:42.689Z</time></trkpt><trkpt lat="42.739877" lon="12.7644422"><ele>505.0</ele><time>2026-04-03T15:20:43.69Z</time></trkpt><trkpt lat="42.739915" lon="12.7642193"><ele>505.0</ele><time>2026-04-03T15:20:44.689Z</time></trkpt><trkpt lat="42.7399629" lon="12.7639449"><ele>505.0</ele><time>2026-04-03T15:20:45.69Z</time></trkpt><trkpt lat="42.7400252" lon="12.7636458"><ele>505.0</ele><time>2026-04-03T15:20:46.69Z</time></trkpt><trkpt lat="42.7400919" lon="12.7633195"><ele>505.0</ele><time>2026-04-03T15:20:47.69Z</time></trkpt><trkpt lat="42.7401615" lon="12.76298"><ele>505.0</ele><time>2026-04-03T15:20:48.69Z</time></trkpt><trkpt lat="42.7402291" lon="12.7626402"><ele>499.0</ele><time>2026-04-03T15:20:49.69Z</time></trkpt><trkpt lat="42.740297" lon="12.7623197"><ele>493.0</ele><time>2026-04-03T15:20:50.69Z</time></trkpt><trkpt lat="42.7403482" lon="12.7620508"><ele>487.0</ele><time>2026-04-03T15:20:51.689Z</time></trkpt><trkpt lat="42.7404039" lon="12.7618129"><ele>487.0</ele><time>2026-04-03T15:20:52.689Z</time></trkpt><trkpt lat="42.7404786" lon="12.7615979"><ele>487.0</ele><time>2026-04-03T15:20:53.689Z</time></trkpt><trkpt lat="42.7405746" lon="12.7614305"><ele>487.0</ele><time>2026-04-03T15:20:54.688Z</time></trkpt><trkpt lat="42.7406792" lon="12.7613123"><ele>487.0</ele><time>2026-04-03T15:20:55.688Z</time></trkpt><trkpt lat="42.7408155" lon="12.7612632"><ele>487.0</ele><time>2026-04-03T15:20:56.689Z</time></trkpt><trkpt lat="42.7409849" lon="12.7612664"><ele>487.0</ele><time>2026-04-03T15:20:57.688Z</time></trkpt><trkpt lat="42.7411682" lon="12.7613006"><ele>482.6666666666667</ele><time>2026-04-03T15:20:58.689Z</time></trkpt><trkpt lat="42.7413339" lon="12.7613149"><ele>478.33333333333337</ele><time>2026-04-03T15:20:59.688Z</time></trkpt><trkpt lat="42.7414753" lon="12.761262"><ele>474.0</ele><time>2026-04-03T15:21:00.689Z</time></trkpt><trkpt lat="42.7416037" lon="12.7611594"><ele>473.33333333333337</ele><time>2026-04-03T15:21:01.689Z</time></trkpt><trkpt lat="42.7417401" lon="12.7610107"><ele>472.6666666666667</ele><time>2026-04-03T15:21:02.688Z</time></trkpt><trkpt lat="42.7418871" lon="12.7608275"><ele>472.0</ele><time>2026-04-03T15:21:03.689Z</time></trkpt><trkpt lat="42.742025" lon="12.7606744"><ele>470.25</ele><time>2026-04-03T15:21:04.689Z</time></trkpt><trkpt lat="42.7421353" lon="12.7605405"><ele>468.5</ele><time>2026-04-03T15:21:05.688Z</time></trkpt><trkpt lat="42.7422103" lon="12.7604087"><ele>466.75</ele><time>2026-04-03T15:21:06.689Z</time></trkpt><trkpt lat="42.7422391" lon="12.7602904"><ele>465.0</ele><time>2026-04-03T15:21:07.689Z</time></trkpt><trkpt lat="42.7422201" lon="12.7601655"><ele>465.0</ele><time>2026-04-03T15:21:08.689Z</time></trkpt><trkpt lat="42.7421666" lon="12.7600626"><ele>465.0</ele><time>2026-04-03T15:21:09.689Z</time></trkpt><trkpt lat="42.7420773" lon="12.7600232"><ele>465.0</ele><time>2026-04-03T15:21:10.689Z</time></trkpt><trkpt lat="42.7419864" lon="12.760056"><ele>465.0</ele><time>2026-04-03T15:21:11.689Z</time></trkpt><trkpt lat="42.7418788" lon="12.7601611"><ele>465.0</ele><time>2026-04-03T15:21:12.689Z</time></trkpt><trkpt lat="42.7417834" lon="12.7603347"><ele>467.33333333333337</ele><time>2026-04-03T15:21:13.689Z</time></trkpt><trkpt lat="42.7416735" lon="12.7604905"><ele>469.6666666666667</ele><time>2026-04-03T15:21:14.688Z</time></trkpt><trkpt lat="42.7415446" lon="12.7605955"><ele>472.0</ele><time>2026-04-03T15:21:15.689Z</time></trkpt><trkpt lat="42.7413853" lon="12.7606556"><ele>472.0</ele><time>2026-04-03T15:21:16.689Z</time></trkpt><trkpt lat="42.7411979" lon="12.7606948"><ele>472.0</ele><time>2026-04-03T15:21:17.689Z</time></trkpt><trkpt lat="42.7410023" lon="12.7606924"><ele>472.0</ele><time>2026-04-03T15:21:18.689Z</time></trkpt><trkpt lat="42.7408235" lon="12.7606497"><ele>474.0</ele><time>2026-04-03T15:21:19.689Z</time></trkpt><trkpt lat="42.7406483" lon="12.760578"><ele>476.0</ele><time>2026-04-03T15:21:20.689Z</time></trkpt><trkpt lat="42.7404815" lon="12.7604576"><ele>478.0</ele><time>2026-04-03T15:21:21.689Z</time></trkpt><trkpt lat="42.7403274" lon="12.7603365"><ele>482.6666666666667</ele><time>2026-04-03T15:21:22.689Z</time></trkpt><trkpt lat="42.740167" lon="12.7602481"><ele>487.33333333333337</ele><time>2026-04-03T15:21:23.689Z</time></trkpt><trkpt lat="42.7399871" lon="12.760202"><ele>492.0</ele><time>2026-04-03T15:21:24.688Z</time></trkpt><trkpt lat="42.7398184" lon="12.7601967"><ele>492.0</ele><time>2026-04-03T15:21:25.688Z</time></trkpt><trkpt lat="42.7396573" lon="12.7602257"><ele>492.0</ele><time>2026-04-03T15:21:26.689Z</time></trkpt><trkpt lat="42.7395054" lon="12.7602734"><ele>492.0</ele><time>2026-04-03T15:21:27.688Z</time></trkpt><trkpt lat="42.7393681" lon="12.7603663"><ele>485.33333333333337</ele><time>2026-04-03T15:21:28.688Z</time></trkpt><trkpt lat="42.7392358" lon="12.7605073"><ele>478.6666666666667</ele><time>2026-04-03T15:21:29.689Z</time></trkpt><trkpt lat="42.739083" lon="12.7606938"><ele>472.0</ele><time>2026-04-03T15:21:30.689Z</time></trkpt><trkpt lat="42.7389136" lon="12.760871"><ele>472.0</ele><time>2026-04-03T15:21:31.688Z</time></trkpt><trkpt lat="42.7387787" lon="12.7609934"><ele>472.0</ele><time>2026-04-03T15:21:32.689Z</time></trkpt><trkpt lat="42.7386654" lon="12.7610834"><ele>472.0</ele><time>2026-04-03T15:21:33.689Z</time></trkpt><trkpt lat="42.7385671" lon="12.7611278"><ele>472.0</ele><time>2026-04-03T15:21:34.689Z</time></trkpt><trkpt lat="42.7384842" lon="12.7611017"><ele>470.5</ele><time>2026-04-03T15:21:35.688Z</time></trkpt><trkpt lat="42.7384127" lon="12.7610162"><ele>469.0</ele><time>2026-04-03T15:21:36.689Z</time></trkpt><trkpt lat="42.7383759" lon="12.760881"><ele>467.5</ele><time>2026-04-03T15:21:37.689Z</time></trkpt><trkpt lat="42.7383955" lon="12.7607118"><ele>466.0</ele><time>2026-04-03T15:21:38.688Z</time></trkpt><trkpt lat="42.7384689" lon="12.7605124"><ele>468.0</ele><time>2026-04-03T15:21:39.689Z</time></trkpt><trkpt lat="42.7385707" lon="12.7602734"><ele>470.0</ele><time>2026-04-03T15:21:40.689Z</time></trkpt><trkpt lat="42.7386795" lon="12.7600083"><ele>472.0</ele><time>2026-04-03T15:21:41.689Z</time></trkpt><trkpt lat="42.7387891" lon="12.759755"><ele>472.0</ele><time>2026-04-03T15:21:42.689Z</time></trkpt><trkpt lat="42.7388975" lon="12.7595512"><ele>472.0</ele><time>2026-04-03T15:21:43.689Z</time></trkpt><trkpt lat="42.7390421" lon="12.7593833"><ele>472.0</ele><time>2026-04-03T15:21:44.688Z</time></trkpt><trkpt lat="42.7392245" lon="12.7592299"><ele>459.5</ele><time>2026-04-03T15:21:45.689Z</time></trkpt><trkpt lat="42.7394245" lon="12.7590695"><ele>447.0</ele><time>2026-04-03T15:21:46.689Z</time></trkpt><trkpt lat="42.739639" lon="12.7588941"><ele>447.0</ele><time>2026-04-03T15:21:47.688Z</time></trkpt><trkpt lat="42.7398661" lon="12.7587264"><ele>447.0</ele><time>2026-04-03T15:21:48.688Z</time></trkpt><trkpt lat="42.7400936" lon="12.7586158"><ele>448.66666666666663</ele><time>2026-04-03T15:21:49.689Z</time></trkpt><trkpt lat="42.7403074" lon="12.7585375"><ele>450.3333333333333</ele><time>2026-04-03T15:21:50.688Z</time></trkpt><trkpt lat="42.7404982" lon="12.7584559"><ele>452.0</ele><time>2026-04-03T15:21:51.689Z</time></trkpt><trkpt lat="42.7406561" lon="12.7583437"><ele>452.0</ele><time>2026-04-03T15:21:52.689Z</time></trkpt><trkpt lat="42.7407893" lon="12.7581734"><ele>452.0</ele><time>2026-04-03T15:21:53.688Z</time></trkpt><trkpt lat="42.7408986" lon="12.7580066"><ele>452.0</ele><time>2026-04-03T15:21:54.689Z</time></trkpt><trkpt lat="42.7410118" lon="12.7578731"><ele>444.66666666666663</ele><time>2026-04-03T15:21:55.689Z</time></trkpt><trkpt lat="42.7411579" lon="12.7578011"><ele>437.33333333333337</ele><time>2026-04-03T15:21:56.688Z</time></trkpt><trkpt lat="42.7413301" lon="12.7577632"><ele>430.0</ele><time>2026-04-03T15:21:57.689Z</time></trkpt><trkpt lat="42.7414964" lon="12.7577272"><ele>435.0</ele><time>2026-04-03T15:21:58.688Z</time></trkpt><trkpt lat="42.7416417" lon="12.7576497"><ele>440.0</ele><time>2026-04-03T15:21:59.688Z</time></trkpt><trkpt lat="42.74178" lon="12.7575104"><ele>445.0</ele><time>2026-04-03T15:22:00.688Z</time></trkpt><trkpt lat="42.7419073" lon="12.7573404"><ele>445.0</ele><time>2026-04-03T15:22:01.689Z</time></trkpt><trkpt lat="42.7420343" lon="12.7571949"><ele>445.0</ele><time>2026-04-03T15:22:02.689Z</time></trkpt><trkpt lat="42.7421775" lon="12.7570818"><ele>445.0</ele><time>2026-04-03T15:22:03.689Z</time></trkpt><trkpt lat="42.7423617" lon="12.7570156"><ele>445.0</ele><time>2026-04-03T15:22:04.689Z</time></trkpt><trkpt lat="42.7425599" lon="12.7569589"><ele>445.0</ele><time>2026-04-03T15:22:05.689Z</time></trkpt><trkpt lat="42.7427053" lon="12.7569118"><ele>445.0</ele><time>2026-04-03T15:22:06.689Z</time></trkpt><trkpt lat="42.7428171" lon="12.756837"><ele>446.5</ele><time>2026-04-03T15:22:07.689Z</time></trkpt><trkpt lat="42.7428943" lon="12.756724"><ele>448.0</ele><time>2026-04-03T15:22:08.689Z</time></trkpt><trkpt lat="42.7429355" lon="12.7565707"><ele>449.5</ele><time>2026-04-03T15:22:09.688Z</time></trkpt><trkpt lat="42.7429401" lon="12.7563987"><ele>451.0</ele><time>2026-04-03T15:22:10.688Z</time></trkpt><trkpt lat="42.742879" lon="12.7562558"><ele>451.0</ele><time>2026-04-03T15:22:11.689Z</time></trkpt><trkpt lat="42.7428013" lon="12.7561604"><ele>451.0</ele><time>2026-04-03T15:22:12.689Z</time></trkpt><trkpt lat="42.7426845" lon="12.7560997"><ele>451.0</ele><time>2026-04-03T15:22:13.688Z</time></trkpt><trkpt lat="42.7425459" lon="12.7560874"><ele>451.0</ele><time>2026-04-03T15:22:14.688Z</time></trkpt><trkpt lat="42.7423832" lon="12.7561559"><ele>453.25</ele><time>2026-04-03T15:22:15.689Z</time></trkpt><trkpt lat="42.742232" lon="12.7562511"><ele>455.5</ele><time>2026-04-03T15:22:16.689Z</time></trkpt><trkpt lat="42.7421007" lon="12.7563229"><ele>457.75</ele><time>2026-04-03T15:22:17.689Z</time></trkpt><trkpt lat="42.7419885" lon="12.7563495"><ele>460.0</ele><time>2026-04-03T15:22:18.689Z</time></trkpt><trkpt lat="42.7418741" lon="12.7563048"><ele>460.5</ele><time>2026-04-03T15:22:19.689Z</time></trkpt><trkpt lat="42.7417718" lon="12.7562136"><ele>461.0</ele><time>2026-04-03T15:22:20.689Z</time></trkpt><trkpt lat="42.7417045" lon="12.7560728"><ele>461.5</ele><time>2026-04-03T15:22:21.689Z</time></trkpt><trkpt lat="42.741677" lon="12.7559173"><ele>462.0</ele><time>2026-04-03T15:22:22.688Z</time></trkpt><trkpt lat="42.7416865" lon="12.7557688"><ele>462.0</ele><time>2026-04-03T15:22:23.689Z</time></trkpt><trkpt lat="42.7417513" lon="12.7556322"><ele>462.0</ele><time>2026-04-03T15:22:24.688Z</time></trkpt><trkpt lat="42.7418645" lon="12.7554817"><ele>462.0</ele><time>2026-04-03T15:22:25.688Z</time></trkpt><trkpt lat="42.742005" lon="12.7553175"><ele>457.33333333333337</ele><time>2026-04-03T15:22:26.688Z</time></trkpt><trkpt lat="42.742139" lon="12.7551275"><ele>452.6666666666667</ele><time>2026-04-03T15:22:27.688Z</time></trkpt><trkpt lat="42.7422398" lon="12.7549203"><ele>448.0</ele><time>2026-04-03T15:22:28.689Z</time></trkpt><trkpt lat="42.7423092" lon="12.754703"><ele>448.0</ele><time>2026-04-03T15:22:29.689Z</time></trkpt><trkpt lat="42.7423508" lon="12.7544649"><ele>448.0</ele><time>2026-04-03T15:22:30.689Z</time></trkpt><trkpt lat="42.7423906" lon="12.7542588"><ele>448.0</ele><time>2026-04-03T15:22:31.689Z</time></trkpt><trkpt lat="42.7424603" lon="12.7540926"><ele>448.33333333333337</ele><time>2026-04-03T15:22:32.689Z</time></trkpt><trkpt lat="42.7425649" lon="12.7539566"><ele>448.66666666666663</ele><time>2026-04-03T15:22:33.689Z</time></trkpt><trkpt lat="42.7427404" lon="12.7538504"><ele>449.0</ele><time>2026-04-03T15:22:34.689Z</time></trkpt><trkpt lat="42.7429432" lon="12.7537623"><ele>438.0</ele><time>2026-04-03T15:22:35.688Z</time></trkpt><trkpt lat="42.7431662" lon="12.7536785"><ele>427.0</ele><time>2026-04-03T15:22:36.689Z</time></trkpt><trkpt lat="42.7434152" lon="12.7535886"><ele>430.0</ele><time>2026-04-03T15:22:37.689Z</time></trkpt><trkpt lat="42.7436753" lon="12.7535073"><ele>433.0</ele><time>2026-04-03T15:22:38.688Z</time></trkpt><trkpt lat="42.7439398" lon="12.7534346"><ele>433.0</ele><time>2026-04-03T15:22:39.689Z</time></trkpt><trkpt lat="42.7442008" lon="12.7533652"><ele>433.0</ele><time>2026-04-03T15:22:40.689Z</time></trkpt><trkpt lat="42.7444641" lon="12.7532999"><ele>427.0</ele><time>2026-04-03T15:22:41.689Z</time></trkpt><trkpt lat="42.7447289" lon="12.7532466"><ele>421.0</ele><time>2026-04-03T15:22:42.689Z</time></trkpt><trkpt lat="42.7449861" lon="12.7532098"><ele>420.0</ele><time>2026-04-03T15:22:43.689Z</time></trkpt><trkpt lat="42.7452321" lon="12.7531992"><ele>419.0</ele><time>2026-04-03T15:22:44.689Z</time></trkpt><trkpt lat="42.7454696" lon="12.7532122"><ele>419.0</ele><time>2026-04-03T15:22:45.689Z</time></trkpt><trkpt lat="42.7457002" lon="12.7532191"><ele>419.0</ele><time>2026-04-03T15:22:46.689Z</time></trkpt><trkpt lat="42.7459404" lon="12.7531838"><ele>414.5</ele><time>2026-04-03T15:22:47.689Z</time></trkpt><trkpt lat="42.7461677" lon="12.7531333"><ele>410.0</ele><time>2026-04-03T15:22:48.689Z</time></trkpt><trkpt lat="42.7463881" lon="12.7531231"><ele>410.0</ele><time>2026-04-03T15:22:49.688Z</time></trkpt><trkpt lat="42.7466229" lon="12.7531568"><ele>410.0</ele><time>2026-04-03T15:22:50.688Z</time></trkpt><trkpt lat="42.7468651" lon="12.7532215"><ele>409.0</ele><time>2026-04-03T15:22:51.689Z</time></trkpt><trkpt lat="42.7470979" lon="12.7532962"><ele>408.0</ele><time>2026-04-03T15:22:52.689Z</time></trkpt><trkpt lat="42.747301" lon="12.7533595"><ele>407.0</ele><time>2026-04-03T15:22:53.688Z</time></trkpt><trkpt lat="42.747487" lon="12.753412"><ele>407.0</ele><time>2026-04-03T15:22:54.689Z</time></trkpt><trkpt lat="42.7476595" lon="12.7534408"><ele>407.0</ele><time>2026-04-03T15:22:55.689Z</time></trkpt><trkpt lat="42.7478278" lon="12.753423"><ele>407.0</ele><time>2026-04-03T15:22:56.689Z</time></trkpt><trkpt lat="42.7479795" lon="12.7533541"><ele>404.75</ele><time>2026-04-03T15:22:57.688Z</time></trkpt><trkpt lat="42.7481008" lon="12.7532619"><ele>402.5</ele><time>2026-04-03T15:22:58.688Z</time></trkpt><trkpt lat="42.7481895" lon="12.7531528"><ele>400.25</ele><time>2026-04-03T15:22:59.689Z</time></trkpt><trkpt lat="42.7482356" lon="12.7530164"><ele>398.0</ele><time>2026-04-03T15:23:00.689Z</time></trkpt><trkpt lat="42.7482416" lon="12.7528561"><ele>397.0</ele><time>2026-04-03T15:23:01.688Z</time></trkpt><trkpt lat="42.7481979" lon="12.7526966"><ele>396.0</ele><time>2026-04-03T15:23:02.689Z</time></trkpt><trkpt lat="42.7481242" lon="12.7525617"><ele>395.0</ele><time>2026-04-03T15:23:03.688Z</time></trkpt><trkpt lat="42.7480152" lon="12.7524651"><ele>394.0</ele><time>2026-04-03T15:23:04.689Z</time></trkpt><trkpt lat="42.7478703" lon="12.7524026"><ele>398.33333333333337</ele><time>2026-04-03T15:23:05.689Z</time></trkpt><trkpt lat="42.747703" lon="12.7523487"><ele>402.66666666666663</ele><time>2026-04-03T15:23:06.688Z</time></trkpt><trkpt lat="42.7475468" lon="12.7522746"><ele>407.0</ele><time>2026-04-03T15:23:07.689Z</time></trkpt><trkpt lat="42.747416" lon="12.7521544"><ele>407.0</ele><time>2026-04-03T15:23:08.689Z</time></trkpt><trkpt lat="42.7472916" lon="12.7520504"><ele>407.0</ele><time>2026-04-03T15:23:09.688Z</time></trkpt><trkpt lat="42.7471623" lon="12.7519883"><ele>407.0</ele><time>2026-04-03T15:23:10.688Z</time></trkpt><trkpt lat="42.7470167" lon="12.751961"><ele>407.0</ele><time>2026-04-03T15:23:11.688Z</time></trkpt><trkpt lat="42.7468653" lon="12.7519622"><ele>407.75</ele><time>2026-04-03T15:23:12.689Z</time></trkpt><trkpt lat="42.7467284" lon="12.7519857"><ele>408.5</ele><time>2026-04-03T15:23:13.689Z</time></trkpt><trkpt lat="42.7465908" lon="12.7519982"><ele>409.25</ele><time>2026-04-03T15:23:14.689Z</time></trkpt><trkpt lat="42.746461" lon="12.7519597"><ele>410.0</ele><time>2026-04-03T15:23:15.688Z</time></trkpt><trkpt lat="42.746348" lon="12.7518873"><ele>406.5</ele><time>2026-04-03T15:23:16.689Z</time></trkpt><trkpt lat="42.7462479" lon="12.7517982"><ele>403.0</ele><time>2026-04-03T15:23:17.689Z</time></trkpt><trkpt lat="42.7461377" lon="12.7517094"><ele>399.5</ele><time>2026-04-03T15:23:18.688Z</time></trkpt><trkpt lat="42.7459834" lon="12.7516366"><ele>396.0</ele><time>2026-04-03T15:23:19.689Z</time></trkpt><trkpt lat="42.7457974" lon="12.7515723"><ele>396.0</ele><time>2026-04-03T15:23:20.689Z</time></trkpt><trkpt lat="42.7455853" lon="12.7514936"><ele>396.0</ele><time>2026-04-03T15:23:21.689Z</time></trkpt><trkpt lat="42.7453639" lon="12.7514134"><ele>396.0</ele><time>2026-04-03T15:23:22.688Z</time></trkpt><trkpt lat="42.745183" lon="12.7513278"><ele>397.5</ele><time>2026-04-03T15:23:23.689Z</time></trkpt><trkpt lat="42.7450352" lon="12.7512559"><ele>399.0</ele><time>2026-04-03T15:23:24.689Z</time></trkpt><trkpt lat="42.7449056" lon="12.7511777"><ele>400.5</ele><time>2026-04-03T15:23:25.688Z</time></trkpt><trkpt lat="42.7448245" lon="12.751079"><ele>402.0</ele><time>2026-04-03T15:23:26.689Z</time></trkpt><trkpt lat="42.7447774" lon="12.7509496"><ele>396.75</ele><time>2026-04-03T15:23:27.688Z</time></trkpt><trkpt lat="42.7447884" lon="12.7507748"><ele>391.5</ele><time>2026-04-03T15:23:28.689Z</time></trkpt><trkpt lat="42.7448396" lon="12.7505949"><ele>386.25</ele><time>2026-04-03T15:23:29.689Z</time></trkpt><trkpt lat="42.7449345" lon="12.7503884"><ele>381.0</ele><time>2026-04-03T15:23:30.689Z</time></trkpt><trkpt lat="42.7450453" lon="12.7501525"><ele>381.0</ele><time>2026-04-03T15:23:31.688Z</time></trkpt><trkpt lat="42.745161" lon="12.7499259"><ele>381.0</ele><time>2026-04-03T15:23:32.689Z</time></trkpt><trkpt lat="42.7452535" lon="12.7497174"><ele>381.0</ele><time>2026-04-03T15:23:33.689Z</time></trkpt><trkpt lat="42.745323" lon="12.7495313"><ele>380.5</ele><time>2026-04-03T15:23:34.689Z</time></trkpt><trkpt lat="42.745361" lon="12.749345"><ele>380.0</ele><time>2026-04-03T15:23:35.689Z</time></trkpt><trkpt lat="42.7453553" lon="12.7491496"><ele>379.5</ele><time>2026-04-03T15:23:36.689Z</time></trkpt><trkpt lat="42.7453022" lon="12.7489666"><ele>379.0</ele><time>2026-04-03T15:23:37.689Z</time></trkpt><trkpt lat="42.745196" lon="12.7488227"><ele>379.0</ele><time>2026-04-03T15:23:38.689Z</time></trkpt><trkpt lat="42.7450521" lon="12.7487023"><ele>379.0</ele><time>2026-04-03T15:23:39.688Z</time></trkpt><trkpt lat="42.7448799" lon="12.7485962"><ele>379.0</ele><time>2026-04-03T15:23:40.689Z</time></trkpt><trkpt lat="42.7447309" lon="12.7484849"><ele>373.66666666666663</ele><time>2026-04-03T15:23:41.688Z</time></trkpt><trkpt lat="42.7446037" lon="12.7483329"><ele>368.3333333333333</ele><time>2026-04-03T15:23:42.689Z</time></trkpt><trkpt lat="42.744496" lon="12.7481643"><ele>363.0</ele><time>2026-04-03T15:23:43.689Z</time></trkpt><trkpt lat="42.7444257" lon="12.7479735"><ele>363.0</ele><time>2026-04-03T15:23:44.688Z</time></trkpt><trkpt lat="42.7444016" lon="12.7477818"><ele>363.0</ele><time>2026-04-03T15:23:45.689Z</time></trkpt><trkpt lat="42.7444369" lon="12.7475803"><ele>363.0</ele><time>2026-04-03T15:23:46.688Z</time></trkpt><trkpt lat="42.7445002" lon="12.7473904"><ele>363.0</ele><time>2026-04-03T15:23:47.688Z</time></trkpt><trkpt lat="42.7445814" lon="12.7471785"><ele>358.6666666666667</ele><time>2026-04-03T15:23:48.689Z</time></trkpt><trkpt lat="42.7446363" lon="12.746938"><ele>354.33333333333337</ele><time>2026-04-03T15:23:49.689Z</time></trkpt><trkpt lat="42.7446428" lon="12.7466985"><ele>350.0</ele><time>2026-04-03T15:23:50.689Z</time></trkpt><trkpt lat="42.7446182" lon="12.7464503"><ele>348.6666666666667</ele><time>2026-04-03T15:23:51.688Z</time></trkpt><trkpt lat="42.7445502" lon="12.7462122"><ele>347.3333333333333</ele><time>2026-04-03T15:23:52.688Z</time></trkpt><trkpt lat="42.7444414" lon="12.7459718"><ele>346.0</ele><time>2026-04-03T15:23:53.689Z</time></trkpt><trkpt lat="42.7443014" lon="12.7457396"><ele>354.0</ele><time>2026-04-03T15:23:54.688Z</time></trkpt><trkpt lat="42.7441466" lon="12.7455089"><ele>362.0</ele><time>2026-04-03T15:23:55.688Z</time></trkpt><trkpt lat="42.7439905" lon="12.7452514"><ele>354.5</ele><time>2026-04-03T15:23:56.688Z</time></trkpt><trkpt lat="42.7438432" lon="12.7449786"><ele>347.0</ele><time>2026-04-03T15:23:57.688Z</time></trkpt><trkpt lat="42.7437188" lon="12.7446966"><ele>347.0</ele><time>2026-04-03T15:23:58.689Z</time></trkpt><trkpt lat="42.7436111" lon="12.7444321"><ele>347.0</ele><time>2026-04-03T15:23:59.688Z</time></trkpt><trkpt lat="42.7435243" lon="12.7442003"><ele>347.0</ele><time>2026-04-03T15:24:00.689Z</time></trkpt><trkpt lat="42.7434568" lon="12.7439988"><ele>347.5</ele><time>2026-04-03T15:24:01.688Z</time></trkpt><trkpt lat="42.7434208" lon="12.7438167"><ele>348.0</ele><time>2026-04-03T15:24:02.688Z</time></trkpt><trkpt lat="42.743412" lon="12.7436391"><ele>348.5</ele><time>2026-04-03T15:24:03.688Z</time></trkpt><trkpt lat="42.7434458" lon="12.7434686"><ele>349.0</ele><time>2026-04-03T15:24:04.689Z</time></trkpt><trkpt lat="42.7435214" lon="12.7433385"><ele>345.0</ele><time>2026-04-03T15:24:05.688Z</time></trkpt><trkpt lat="42.7436258" lon="12.7432515"><ele>341.0</ele><time>2026-04-03T15:24:06.689Z</time></trkpt><trkpt lat="42.7437514" lon="12.7432208"><ele>337.0</ele><time>2026-04-03T15:24:07.689Z</time></trkpt><trkpt lat="42.7438819" lon="12.743247"><ele>333.0</ele><time>2026-04-03T15:24:08.689Z</time></trkpt><trkpt lat="42.7440018" lon="12.7433336"><ele>333.0</ele><time>2026-04-03T15:24:09.689Z</time></trkpt><trkpt lat="42.7441073" lon="12.7434828"><ele>333.0</ele><time>2026-04-03T15:24:10.689Z</time></trkpt><trkpt lat="42.7442171" lon="12.7436783"><ele>333.0</ele><time>2026-04-03T15:24:11.688Z</time></trkpt><trkpt lat="42.7443356" lon="12.7438863"><ele>332.75</ele><time>2026-04-03T15:24:12.688Z</time></trkpt><trkpt lat="42.7444458" lon="12.7440643"><ele>332.5</ele><time>2026-04-03T15:24:13.689Z</time></trkpt><trkpt lat="42.7445471" lon="12.7442176"><ele>332.25</ele><time>2026-04-03T15:24:14.689Z</time></trkpt><trkpt lat="42.7446372" lon="12.7443352"><ele>332.0</ele><time>2026-04-03T15:24:15.689Z</time></trkpt><trkpt lat="42.7447373" lon="12.744423"><ele>332.0</ele><time>2026-04-03T15:24:16.689Z</time></trkpt><trkpt lat="42.7448407" lon="12.7444757"><ele>332.0</ele><time>2026-04-03T15:24:17.688Z</time></trkpt><trkpt lat="42.744949" lon="12.7444729"><ele>332.0</ele><time>2026-04-03T15:24:18.688Z</time></trkpt><trkpt lat="42.7450506" lon="12.7444174"><ele>332.0</ele><time>2026-04-03T15:24:19.688Z</time></trkpt><trkpt lat="42.7451434" lon="12.7443169"><ele>332.0</ele><time>2026-04-03T15:24:20.688Z</time></trkpt><trkpt lat="42.7452219" lon="12.7441747"><ele>330.40000000000003</ele><time>2026-04-03T15:24:21.688Z</time></trkpt><trkpt lat="42.7452856" lon="12.7440297"><ele>328.8</ele><time>2026-04-03T15:24:22.689Z</time></trkpt><trkpt lat="42.7453345" lon="12.7438824"><ele>327.2</ele><time>2026-04-03T15:24:23.688Z</time></trkpt><trkpt lat="42.7453823" lon="12.7437631"><ele>325.6</ele><time>2026-04-03T15:24:24.689Z</time></trkpt><trkpt lat="42.7454227" lon="12.7436942"><ele>324.0</ele><time>2026-04-03T15:24:25.689Z</time></trkpt><trkpt lat="42.7454742" lon="12.7435852"><ele>323.8333333333333</ele><time>2026-04-03T15:24:27.689Z</time></trkpt><trkpt lat="42.7455187" lon="12.7435212"><ele>323.6666666666667</ele><time>2026-04-03T15:24:29.689Z</time></trkpt><trkpt lat="42.7455714" lon="12.7434521"><ele>323.5</ele><time>2026-04-03T15:24:31.688Z</time></trkpt><trkpt lat="42.7456334" lon="12.7433747"><ele>323.33333333333337</ele><time>2026-04-03T15:24:33.688Z</time></trkpt><trkpt lat="42.7457133" lon="12.7433373"><ele>323.1666666666667</ele><time>2026-04-03T15:24:36.688Z</time></trkpt><trkpt lat="42.7458049" lon="12.7433076"><ele>323.0</ele><time>2026-04-03T15:24:42.689Z</time></trkpt><trkpt lat="42.745868" lon="12.7433023"><ele>323.0</ele><time>2026-04-03T15:24:43.689Z</time></trkpt><trkpt lat="42.7459447" lon="12.7432903"><ele>323.0</ele><time>2026-04-03T15:24:44.689Z</time></trkpt><trkpt lat="42.7460339" lon="12.7432008"><ele>323.0</ele><time>2026-04-03T15:24:46.689Z</time></trkpt><trkpt lat="42.7460635" lon="12.7431065"><ele>323.0</ele><time>2026-04-03T15:24:47.689Z</time></trkpt><trkpt lat="42.746064" lon="12.7430096"><ele>323.0</ele><time>2026-04-03T15:24:48.689Z</time></trkpt><trkpt lat="42.7460368" lon="12.7429187"><ele>323.0</ele><time>2026-04-03T15:24:49.689Z</time></trkpt><trkpt lat="42.7459331" lon="12.7428255"><ele>323.00000000000006</ele><time>2026-04-03T15:24:51.689Z</time></trkpt><trkpt lat="42.7458217" lon="12.742812"><ele>323.0</ele><time>2026-04-03T15:24:53.689Z</time></trkpt><trkpt lat="42.7457678" lon="12.7428616"><ele>323.0</ele><time>2026-04-03T15:24:54.689Z</time></trkpt><trkpt lat="42.7457246" lon="12.7429349"><ele>323.0</ele><time>2026-04-03T15:24:55.688Z</time></trkpt><trkpt lat="42.7456933" lon="12.7430237"><ele>323.0</ele><time>2026-04-03T15:24:56.688Z</time></trkpt><trkpt lat="42.7456642" lon="12.7431063"><ele>323.00000000000006</ele><time>2026-04-03T15:24:57.689Z</time></trkpt><trkpt lat="42.7456202" lon="12.7431686"><ele>323.0</ele><time>2026-04-03T15:24:58.689Z</time></trkpt><trkpt lat="42.7455093" lon="12.7431899"><ele>323.0</ele><time>2026-04-03T15:25:00.688Z</time></trkpt><trkpt lat="42.745406" lon="12.7430815"><ele>323.0</ele><time>2026-04-03T15:25:02.688Z</time></trkpt><trkpt lat="42.7453574" lon="12.7429802"><ele>323.0</ele><time>2026-04-03T15:25:03.689Z</time></trkpt><trkpt lat="42.7453175" lon="12.7428657"><ele>323.0</ele><time>2026-04-03T15:25:04.689Z</time></trkpt><trkpt lat="42.745268" lon="12.7427549"><ele>323.0</ele><time>2026-04-03T15:25:05.689Z</time></trkpt><trkpt lat="42.7452136" lon="12.7426492"><ele>323.79999999999995</ele><time>2026-04-03T15:25:06.688Z</time></trkpt><trkpt lat="42.7451548" lon="12.7425474"><ele>324.6</ele><time>2026-04-03T15:25:07.688Z</time></trkpt><trkpt lat="42.7450978" lon="12.7424495"><ele>325.4</ele><time>2026-04-03T15:25:08.689Z</time></trkpt><trkpt lat="42.7450304" lon="12.7423644"><ele>326.20000000000005</ele><time>2026-04-03T15:25:09.688Z</time></trkpt><trkpt lat="42.7449466" lon="12.7423055"><ele>327.0</ele><time>2026-04-03T15:25:10.689Z</time></trkpt><trkpt lat="42.7448468" lon="12.7422774"><ele>327.0</ele><time>2026-04-03T15:25:11.689Z</time></trkpt><trkpt lat="42.744751" lon="12.7422892"><ele>327.0</ele><time>2026-04-03T15:25:12.689Z</time></trkpt><trkpt lat="42.7446548" lon="12.7423337"><ele>327.0</ele><time>2026-04-03T15:25:13.689Z</time></trkpt><trkpt lat="42.7445609" lon="12.7424009"><ele>327.0</ele><time>2026-04-03T15:25:14.689Z</time></trkpt><trkpt lat="42.7444712" lon="12.7424836"><ele>327.0</ele><time>2026-04-03T15:25:15.688Z</time></trkpt><trkpt lat="42.7443859" lon="12.7425579"><ele>327.40000000000003</ele><time>2026-04-03T15:25:16.688Z</time></trkpt><trkpt lat="42.7442982" lon="12.7426228"><ele>327.8</ele><time>2026-04-03T15:25:17.689Z</time></trkpt><trkpt lat="42.744206" lon="12.742681"><ele>328.2</ele><time>2026-04-03T15:25:18.688Z</time></trkpt><trkpt lat="42.7441036" lon="12.742716"><ele>328.6</ele><time>2026-04-03T15:25:19.689Z</time></trkpt><trkpt lat="42.7439956" lon="12.7427248"><ele>329.0</ele><time>2026-04-03T15:25:20.689Z</time></trkpt><trkpt lat="42.7438785" lon="12.7426957"><ele>329.0</ele><time>2026-04-03T15:25:21.688Z</time></trkpt><trkpt lat="42.7437554" lon="12.742635"><ele>329.0</ele><time>2026-04-03T15:25:22.689Z</time></trkpt><trkpt lat="42.7436178" lon="12.742556"><ele>329.0</ele><time>2026-04-03T15:25:23.689Z</time></trkpt><trkpt lat="42.7434633" lon="12.7424653"><ele>329.0</ele><time>2026-04-03T15:25:24.689Z</time></trkpt><trkpt lat="42.7432968" lon="12.7423606"><ele>330.6666666666667</ele><time>2026-04-03T15:25:25.689Z</time></trkpt><trkpt lat="42.7431232" lon="12.7422431"><ele>332.3333333333333</ele><time>2026-04-03T15:25:26.689Z</time></trkpt><trkpt lat="42.7429412" lon="12.7421094"><ele>334.0</ele><time>2026-04-03T15:25:27.689Z</time></trkpt><trkpt lat="42.7427578" lon="12.741969"><ele>334.5</ele><time>2026-04-03T15:25:28.688Z</time></trkpt><trkpt lat="42.7425619" lon="12.7418299"><ele>335.0</ele><time>2026-04-03T15:25:29.688Z</time></trkpt><trkpt lat="42.7423574" lon="12.741686"><ele>335.0</ele><time>2026-04-03T15:25:30.689Z</time></trkpt><trkpt lat="42.7421468" lon="12.7415349"><ele>335.0</ele><time>2026-04-03T15:25:31.689Z</time></trkpt><trkpt lat="42.7419363" lon="12.7413742"><ele>337.5</ele><time>2026-04-03T15:25:32.688Z</time></trkpt><trkpt lat="42.7417208" lon="12.741215"><ele>340.0</ele><time>2026-04-03T15:25:33.689Z</time></trkpt><trkpt lat="42.7415005" lon="12.7410755"><ele>337.0</ele><time>2026-04-03T15:25:34.688Z</time></trkpt><trkpt lat="42.7412767" lon="12.7409687"><ele>334.0</ele><time>2026-04-03T15:25:35.689Z</time></trkpt><trkpt lat="42.7410569" lon="12.7408937"><ele>334.3333333333333</ele><time>2026-04-03T15:25:36.689Z</time></trkpt><trkpt lat="42.7408378" lon="12.7408641"><ele>334.6666666666667</ele><time>2026-04-03T15:25:37.689Z</time></trkpt><trkpt lat="42.7406176" lon="12.7408589"><ele>335.0</ele><time>2026-04-03T15:25:38.689Z</time></trkpt><trkpt lat="42.7404008" lon="12.7408842"><ele>335.0</ele><time>2026-04-03T15:25:39.689Z</time></trkpt><trkpt lat="42.740182" lon="12.7409403"><ele>335.0</ele><time>2026-04-03T15:25:40.689Z</time></trkpt><trkpt lat="42.7399529" lon="12.7410325"><ele>342.0</ele><time>2026-04-03T15:25:41.689Z</time></trkpt><trkpt lat="42.7397139" lon="12.7411289"><ele>349.0</ele><time>2026-04-03T15:25:42.689Z</time></trkpt><trkpt lat="42.7394709" lon="12.7412158"><ele>348.0</ele><time>2026-04-03T15:25:43.688Z</time></trkpt><trkpt lat="42.7392228" lon="12.7412934"><ele>347.0</ele><time>2026-04-03T15:25:44.688Z</time></trkpt><trkpt lat="42.7389698" lon="12.7413817"><ele>347.0</ele><time>2026-04-03T15:25:45.688Z</time></trkpt><trkpt lat="42.7387166" lon="12.74148"><ele>347.0</ele><time>2026-04-03T15:25:46.688Z</time></trkpt><trkpt lat="42.7384641" lon="12.7415725"><ele>341.5</ele><time>2026-04-03T15:25:47.689Z</time></trkpt><trkpt lat="42.7382083" lon="12.7416666"><ele>336.0</ele><time>2026-04-03T15:25:48.689Z</time></trkpt><trkpt lat="42.7379527" lon="12.7417595"><ele>335.0</ele><time>2026-04-03T15:25:49.688Z</time></trkpt><trkpt lat="42.7376995" lon="12.7418571"><ele>334.0</ele><time>2026-04-03T15:25:50.689Z</time></trkpt><trkpt lat="42.7374435" lon="12.7419405"><ele>334.0</ele><time>2026-04-03T15:25:51.689Z</time></trkpt><trkpt lat="42.7371882" lon="12.7419911"><ele>334.0</ele><time>2026-04-03T15:25:52.689Z</time></trkpt><trkpt lat="42.7369363" lon="12.741999"><ele>337.0</ele><time>2026-04-03T15:25:53.689Z</time></trkpt><trkpt lat="42.736689" lon="12.7419688"><ele>340.0</ele><time>2026-04-03T15:25:54.688Z</time></trkpt><trkpt lat="42.7364419" lon="12.7419108"><ele>339.0</ele><time>2026-04-03T15:25:55.689Z</time></trkpt><trkpt lat="42.7361957" lon="12.7418328"><ele>338.0</ele><time>2026-04-03T15:25:56.688Z</time></trkpt><trkpt lat="42.7359402" lon="12.7417508"><ele>359.0</ele><time>2026-04-03T15:25:57.689Z</time></trkpt><trkpt lat="42.7312531" lon="12.7401815"><ele>361.0</ele><time>2026-04-03T15:26:19.689Z</time></trkpt><trkpt lat="42.7310176" lon="12.7400525"><ele>363.0</ele><time>2026-04-03T15:26:20.689Z</time></trkpt><trkpt lat="42.7307936" lon="12.7398855"><ele>363.0</ele><time>2026-04-03T15:26:21.689Z</time></trkpt><trkpt lat="42.730581" lon="12.7396872"><ele>363.0</ele><time>2026-04-03T15:26:22.689Z</time></trkpt><trkpt lat="42.730372" lon="12.7394671"><ele>363.0</ele><time>2026-04-03T15:26:23.689Z</time></trkpt><trkpt lat="42.7301755" lon="12.7392336"><ele>363.0</ele><time>2026-04-03T15:26:24.688Z</time></trkpt><trkpt lat="42.7299627" lon="12.7389734"><ele>363.0</ele><time>2026-04-03T15:26:25.688Z</time></trkpt><trkpt lat="42.7297854" lon="12.7387547"><ele>363.0</ele><time>2026-04-03T15:26:26.689Z</time></trkpt><trkpt lat="42.7296195" lon="12.7385484"><ele>363.3333333333333</ele><time>2026-04-03T15:26:27.688Z</time></trkpt><trkpt lat="42.7294592" lon="12.7383574"><ele>363.66666666666663</ele><time>2026-04-03T15:26:28.688Z</time></trkpt><trkpt lat="42.7293037" lon="12.7381709"><ele>364.0</ele><time>2026-04-03T15:26:29.688Z</time></trkpt><trkpt lat="42.7291483" lon="12.7379836"><ele>364.0</ele><time>2026-04-03T15:26:30.688Z</time></trkpt><trkpt lat="42.7289958" lon="12.7377962"><ele>364.0</ele><time>2026-04-03T15:26:31.689Z</time></trkpt><trkpt lat="42.7288351" lon="12.7376048"><ele>364.0</ele><time>2026-04-03T15:26:32.689Z</time></trkpt><trkpt lat="42.7286704" lon="12.7373984"><ele>365.5</ele><time>2026-04-03T15:26:33.689Z</time></trkpt><trkpt lat="42.7285005" lon="12.7371839"><ele>367.0</ele><time>2026-04-03T15:26:34.688Z</time></trkpt><trkpt lat="42.7283337" lon="12.7369661"><ele>366.66666666666663</ele><time>2026-04-03T15:26:35.689Z</time></trkpt><trkpt lat="42.7281803" lon="12.7367627"><ele>366.3333333333333</ele><time>2026-04-03T15:26:36.689Z</time></trkpt><trkpt lat="42.7280455" lon="12.7365791"><ele>366.0</ele><time>2026-04-03T15:26:37.688Z</time></trkpt><trkpt lat="42.7279237" lon="12.7364242"><ele>366.0</ele><time>2026-04-03T15:26:38.689Z</time></trkpt><trkpt lat="42.727833" lon="12.7362891"><ele>366.0</ele><time>2026-04-03T15:26:39.689Z</time></trkpt><trkpt lat="42.7277665" lon="12.736159"><ele>366.0</ele><time>2026-04-03T15:26:40.689Z</time></trkpt><trkpt lat="42.7277212" lon="12.7360409"><ele>366.0</ele><time>2026-04-03T15:26:41.688Z</time></trkpt><trkpt lat="42.7276585" lon="12.7359482"><ele>366.0</ele><time>2026-04-03T15:26:42.688Z</time></trkpt><trkpt lat="42.7275641" lon="12.7358764"><ele>366.3333333333333</ele><time>2026-04-03T15:26:43.689Z</time></trkpt><trkpt lat="42.7274399" lon="12.7358011"><ele>366.66666666666663</ele><time>2026-04-03T15:26:44.689Z</time></trkpt><trkpt lat="42.727313" lon="12.7356687"><ele>367.0</ele><time>2026-04-03T15:26:45.688Z</time></trkpt><trkpt lat="42.7271771" lon="12.7355094"><ele>367.0</ele><time>2026-04-03T15:26:46.688Z</time></trkpt><trkpt lat="42.7270309" lon="12.7353509"><ele>367.0</ele><time>2026-04-03T15:26:47.689Z</time></trkpt><trkpt lat="42.726865" lon="12.7352049"><ele>367.0</ele><time>2026-04-03T15:26:48.689Z</time></trkpt><trkpt lat="42.7266844" lon="12.735084"><ele>367.66666666666663</ele><time>2026-04-03T15:26:49.689Z</time></trkpt><trkpt lat="42.7264928" lon="12.7349925"><ele>368.3333333333333</ele><time>2026-04-03T15:26:50.689Z</time></trkpt><trkpt lat="42.7262811" lon="12.7349274"><ele>369.0</ele><time>2026-04-03T15:26:51.688Z</time></trkpt><trkpt lat="42.7260644" lon="12.7348852"><ele>371.0</ele><time>2026-04-03T15:26:52.689Z</time></trkpt><trkpt lat="42.7258409" lon="12.7348509"><ele>373.0</ele><time>2026-04-03T15:26:53.689Z</time></trkpt><trkpt lat="42.7256157" lon="12.7348169"><ele>373.0</ele><time>2026-04-03T15:26:54.689Z</time></trkpt><trkpt lat="42.7253726" lon="12.7347794"><ele>373.0</ele><time>2026-04-03T15:26:55.689Z</time></trkpt><trkpt lat="42.7251163" lon="12.734741"><ele>374.5</ele><time>2026-04-03T15:26:56.689Z</time></trkpt><trkpt lat="42.7248484" lon="12.7347018"><ele>376.0</ele><time>2026-04-03T15:26:57.689Z</time></trkpt><trkpt lat="42.7245803" lon="12.7346594"><ele>377.0</ele><time>2026-04-03T15:26:58.689Z</time></trkpt><trkpt lat="42.724318" lon="12.7346132"><ele>378.0</ele><time>2026-04-03T15:26:59.689Z</time></trkpt><trkpt lat="42.7240757" lon="12.7345454"><ele>378.0</ele><time>2026-04-03T15:27:00.689Z</time></trkpt><trkpt lat="42.723855" lon="12.7344373"><ele>378.0</ele><time>2026-04-03T15:27:01.689Z</time></trkpt><trkpt lat="42.7236497" lon="12.7342888"><ele>379.0</ele><time>2026-04-03T15:27:02.689Z</time></trkpt><trkpt lat="42.7234547" lon="12.7341066"><ele>380.0</ele><time>2026-04-03T15:27:03.689Z</time></trkpt><trkpt lat="42.723277" lon="12.7338861"><ele>380.0</ele><time>2026-04-03T15:27:04.689Z</time></trkpt><trkpt lat="42.7231181" lon="12.7336412"><ele>380.0</ele><time>2026-04-03T15:27:05.689Z</time></trkpt><trkpt lat="42.722969" lon="12.7333783"><ele>382.0</ele><time>2026-04-03T15:27:06.689Z</time></trkpt><trkpt lat="42.7228235" lon="12.7331065"><ele>384.0</ele><time>2026-04-03T15:27:07.688Z</time></trkpt><trkpt lat="42.722672" lon="12.7328376"><ele>383.5</ele><time>2026-04-03T15:27:08.689Z</time></trkpt><trkpt lat="42.7225123" lon="12.7325633"><ele>383.0</ele><time>2026-04-03T15:27:09.689Z</time></trkpt><trkpt lat="42.7223514" lon="12.7322906"><ele>383.0</ele><time>2026-04-03T15:27:10.688Z</time></trkpt><trkpt lat="42.7221876" lon="12.7320134"><ele>383.0</ele><time>2026-04-03T15:27:11.688Z</time></trkpt><trkpt lat="42.7220198" lon="12.7317399"><ele>384.0</ele><time>2026-04-03T15:27:12.689Z</time></trkpt><trkpt lat="42.7218454" lon="12.7314705"><ele>385.0</ele><time>2026-04-03T15:27:13.689Z</time></trkpt><trkpt lat="42.7216544" lon="12.731213"><ele>385.5</ele><time>2026-04-03T15:27:14.689Z</time></trkpt><trkpt lat="42.7214536" lon="12.7309652"><ele>386.0</ele><time>2026-04-03T15:27:15.689Z</time></trkpt><trkpt lat="42.721244" lon="12.730718"><ele>385.0</ele><time>2026-04-03T15:27:16.689Z</time></trkpt><trkpt lat="42.7210349" lon="12.730464"><ele>384.0</ele><time>2026-04-03T15:27:17.689Z</time></trkpt><trkpt lat="42.7208242" lon="12.730211"><ele>384.0</ele><time>2026-04-03T15:27:18.689Z</time></trkpt><trkpt lat="42.7206175" lon="12.7299531"><ele>384.0</ele><time>2026-04-03T15:27:19.689Z</time></trkpt><trkpt lat="42.7204105" lon="12.7296948"><ele>384.0</ele><time>2026-04-03T15:27:20.688Z</time></trkpt><trkpt lat="42.7202028" lon="12.7294366"><ele>384.0</ele><time>2026-04-03T15:27:21.689Z</time></trkpt><trkpt lat="42.7199953" lon="12.7291796"><ele>385.0</ele><time>2026-04-03T15:27:22.689Z</time></trkpt><trkpt lat="42.7197857" lon="12.7289208"><ele>386.0</ele><time>2026-04-03T15:27:23.688Z</time></trkpt><trkpt lat="42.7195735" lon="12.7286608"><ele>385.5</ele><time>2026-04-03T15:27:24.689Z</time></trkpt><trkpt lat="42.7193592" lon="12.7284016"><ele>385.0</ele><time>2026-04-03T15:27:25.689Z</time></trkpt><trkpt lat="42.7191428" lon="12.7281381"><ele>385.0</ele><time>2026-04-03T15:27:26.689Z</time></trkpt><trkpt lat="42.718925" lon="12.7278801"><ele>385.0</ele><time>2026-04-03T15:27:27.688Z</time></trkpt><trkpt lat="42.7187052" lon="12.7276199"><ele>386.5</ele><time>2026-04-03T15:27:28.689Z</time></trkpt><trkpt lat="42.7184847" lon="12.7273585"><ele>388.0</ele><time>2026-04-03T15:27:29.688Z</time></trkpt><trkpt lat="42.718264" lon="12.7270954"><ele>390.5</ele><time>2026-04-03T15:27:30.689Z</time></trkpt><trkpt lat="42.7180439" lon="12.7268286"><ele>393.0</ele><time>2026-04-03T15:27:31.689Z</time></trkpt><trkpt lat="42.7178249" lon="12.7265606"><ele>394.0</ele><time>2026-04-03T15:27:32.689Z</time></trkpt><trkpt lat="42.7176029" lon="12.7262914"><ele>395.0</ele><time>2026-04-03T15:27:33.689Z</time></trkpt><trkpt lat="42.7173821" lon="12.7260221"><ele>395.0</ele><time>2026-04-03T15:27:34.689Z</time></trkpt><trkpt lat="42.7171624" lon="12.7257569"><ele>395.0</ele><time>2026-04-03T15:27:35.688Z</time></trkpt><trkpt lat="42.7169456" lon="12.725495"><ele>395.0</ele><time>2026-04-03T15:27:36.688Z</time></trkpt><trkpt lat="42.7167257" lon="12.7252377"><ele>395.0</ele><time>2026-04-03T15:27:37.688Z</time></trkpt><trkpt lat="42.7165053" lon="12.7249744"><ele>395.0</ele><time>2026-04-03T15:27:38.689Z</time></trkpt><trkpt lat="42.7162925" lon="12.7247095"><ele>395.0</ele><time>2026-04-03T15:27:39.688Z</time></trkpt><trkpt lat="42.7160815" lon="12.7244426"><ele>396.5</ele><time>2026-04-03T15:27:40.689Z</time></trkpt><trkpt lat="42.7158761" lon="12.7241825"><ele>398.0</ele><time>2026-04-03T15:27:41.689Z</time></trkpt><trkpt lat="42.7156788" lon="12.7239332"><ele>398.0</ele><time>2026-04-03T15:27:42.688Z</time></trkpt><trkpt lat="42.7154887" lon="12.7237"><ele>398.0</ele><time>2026-04-03T15:27:43.689Z</time></trkpt><trkpt lat="42.7153086" lon="12.7234828"><ele>399.0</ele><time>2026-04-03T15:27:44.689Z</time></trkpt><trkpt lat="42.7151333" lon="12.7232673"><ele>400.0</ele><time>2026-04-03T15:27:45.688Z</time></trkpt><trkpt lat="42.7149601" lon="12.7230551"><ele>400.0</ele><time>2026-04-03T15:27:46.689Z</time></trkpt><trkpt lat="42.7147901" lon="12.722843"><ele>400.0</ele><time>2026-04-03T15:27:47.689Z</time></trkpt><trkpt lat="42.7146232" lon="12.7226339"><ele>400.6666666666667</ele><time>2026-04-03T15:27:48.689Z</time></trkpt><trkpt lat="42.7144561" lon="12.7224272"><ele>401.33333333333337</ele><time>2026-04-03T15:27:49.689Z</time></trkpt><trkpt lat="42.7142944" lon="12.7222294"><ele>402.0</ele><time>2026-04-03T15:27:50.689Z</time></trkpt><trkpt lat="42.7141377" lon="12.7220372"><ele>406.0</ele><time>2026-04-03T15:27:51.689Z</time></trkpt><trkpt lat="42.7139852" lon="12.7218483"><ele>410.0</ele><time>2026-04-03T15:27:52.689Z</time></trkpt><trkpt lat="42.713836" lon="12.721661"><ele>414.0</ele><time>2026-04-03T15:27:53.689Z</time></trkpt><trkpt lat="42.7136818" lon="12.7214776"><ele>411.66666666666663</ele><time>2026-04-03T15:27:54.689Z</time></trkpt><trkpt lat="42.7135267" lon="12.7212883"><ele>409.3333333333333</ele><time>2026-04-03T15:27:55.689Z</time></trkpt><trkpt lat="42.7133684" lon="12.7210985"><ele>407.0</ele><time>2026-04-03T15:27:56.689Z</time></trkpt><trkpt lat="42.7132064" lon="12.7209134"><ele>407.0</ele><time>2026-04-03T15:27:57.689Z</time></trkpt><trkpt lat="42.7130428" lon="12.7207271"><ele>407.0</ele><time>2026-04-03T15:27:58.689Z</time></trkpt><trkpt lat="42.7128644" lon="12.7205562"><ele>407.0</ele><time>2026-04-03T15:27:59.689Z</time></trkpt><trkpt lat="42.7126724" lon="12.7203941"><ele>406.0</ele><time>2026-04-03T15:28:00.689Z</time></trkpt><trkpt lat="42.7124623" lon="12.7202394"><ele>405.0</ele><time>2026-04-03T15:28:01.689Z</time></trkpt><trkpt lat="42.7122412" lon="12.7200952"><ele>405.5</ele><time>2026-04-03T15:28:02.689Z</time></trkpt><trkpt lat="42.7120126" lon="12.7199589"><ele>406.0</ele><time>2026-04-03T15:28:03.688Z</time></trkpt><trkpt lat="42.7117736" lon="12.7198422"><ele>406.0</ele><time>2026-04-03T15:28:04.689Z</time></trkpt><trkpt lat="42.7115233" lon="12.7197468"><ele>406.0</ele><time>2026-04-03T15:28:05.689Z</time></trkpt><trkpt lat="42.7112671" lon="12.7196684"><ele>406.0</ele><time>2026-04-03T15:28:06.689Z</time></trkpt><trkpt lat="42.7110069" lon="12.7196003"><ele>406.0</ele><time>2026-04-03T15:28:07.689Z</time></trkpt><trkpt lat="42.7107414" lon="12.7195383"><ele>406.0</ele><time>2026-04-03T15:28:08.689Z</time></trkpt><trkpt lat="42.7104745" lon="12.7194772"><ele>406.0</ele><time>2026-04-03T15:28:09.689Z</time></trkpt><trkpt lat="42.7102034" lon="12.7194143"><ele>407.5</ele><time>2026-04-03T15:28:10.688Z</time></trkpt><trkpt lat="42.7099434" lon="12.7193554"><ele>409.0</ele><time>2026-04-03T15:28:11.689Z</time></trkpt><trkpt lat="42.7096962" lon="12.7192992"><ele>409.0</ele><time>2026-04-03T15:28:12.689Z</time></trkpt><trkpt lat="42.7094588" lon="12.719254"><ele>409.0</ele><time>2026-04-03T15:28:13.689Z</time></trkpt><trkpt lat="42.709237" lon="12.7192141"><ele>409.6666666666667</ele><time>2026-04-03T15:28:14.688Z</time></trkpt><trkpt lat="42.7090278" lon="12.719191"><ele>410.33333333333337</ele><time>2026-04-03T15:28:15.689Z</time></trkpt><trkpt lat="42.7088176" lon="12.7191809"><ele>411.0</ele><time>2026-04-03T15:28:16.689Z</time></trkpt><trkpt lat="42.7086055" lon="12.719183"><ele>412.0</ele><time>2026-04-03T15:28:17.689Z</time></trkpt><trkpt lat="42.708391" lon="12.7191987"><ele>413.0</ele><time>2026-04-03T15:28:18.689Z</time></trkpt><trkpt lat="42.708168" lon="12.7192382"><ele>414.0</ele><time>2026-04-03T15:28:19.689Z</time></trkpt><trkpt lat="42.7079399" lon="12.7193018"><ele>413.0</ele><time>2026-04-03T15:28:20.688Z</time></trkpt><trkpt lat="42.7076976" lon="12.7193832"><ele>412.0</ele><time>2026-04-03T15:28:21.689Z</time></trkpt><trkpt lat="42.7074514" lon="12.7194795"><ele>412.0</ele><time>2026-04-03T15:28:22.689Z</time></trkpt><trkpt lat="42.7072133" lon="12.7195927"><ele>412.0</ele><time>2026-04-03T15:28:23.689Z</time></trkpt><trkpt lat="42.7069916" lon="12.7197155"><ele>414.0</ele><time>2026-04-03T15:28:24.689Z</time></trkpt><trkpt lat="42.7067806" lon="12.7198405"><ele>416.0</ele><time>2026-04-03T15:28:25.689Z</time></trkpt><trkpt lat="42.7065719" lon="12.7199598"><ele>416.0</ele><time>2026-04-03T15:28:26.689Z</time></trkpt><trkpt lat="42.7063615" lon="12.7200874"><ele>416.0</ele><time>2026-04-03T15:28:27.689Z</time></trkpt><trkpt lat="42.706151" lon="12.7202154"><ele>416.66666666666663</ele><time>2026-04-03T15:28:28.689Z</time></trkpt><trkpt lat="42.7059525" lon="12.7203386"><ele>417.33333333333337</ele><time>2026-04-03T15:28:29.689Z</time></trkpt><trkpt lat="42.7057651" lon="12.7204546"><ele>418.0</ele><time>2026-04-03T15:28:30.689Z</time></trkpt><trkpt lat="42.7055774" lon="12.7205726"><ele>418.0</ele><time>2026-04-03T15:28:31.688Z</time></trkpt><trkpt lat="42.705389" lon="12.7206821"><ele>418.0</ele><time>2026-04-03T15:28:32.689Z</time></trkpt><trkpt lat="42.7052087" lon="12.7207898"><ele>418.0</ele><time>2026-04-03T15:28:33.689Z</time></trkpt><trkpt lat="42.7050313" lon="12.7208957"><ele>418.6666666666667</ele><time>2026-04-03T15:28:34.689Z</time></trkpt><trkpt lat="42.7048633" lon="12.721"><ele>419.33333333333337</ele><time>2026-04-03T15:28:35.689Z</time></trkpt><trkpt lat="42.7046992" lon="12.7210996"><ele>420.0</ele><time>2026-04-03T15:28:36.688Z</time></trkpt><trkpt lat="42.7045292" lon="12.7212034"><ele>421.33333333333337</ele><time>2026-04-03T15:28:37.688Z</time></trkpt><trkpt lat="42.7043521" lon="12.7213131"><ele>422.6666666666667</ele><time>2026-04-03T15:28:38.689Z</time></trkpt><trkpt lat="42.7041697" lon="12.7214283"><ele>424.0</ele><time>2026-04-03T15:28:39.689Z</time></trkpt><trkpt lat="42.703983" lon="12.7215425"><ele>424.0</ele><time>2026-04-03T15:28:40.689Z</time></trkpt><trkpt lat="42.7037892" lon="12.7216724"><ele>424.0</ele><time>2026-04-03T15:28:41.688Z</time></trkpt><trkpt lat="42.7035739" lon="12.7218096"><ele>425.5</ele><time>2026-04-03T15:28:42.689Z</time></trkpt><trkpt lat="42.7033386" lon="12.7219516"><ele>427.0</ele><time>2026-04-03T15:28:43.689Z</time></trkpt><trkpt lat="42.7030889" lon="12.7220927"><ele>427.0</ele><time>2026-04-03T15:28:44.689Z</time></trkpt><trkpt lat="42.7028268" lon="12.7222371"><ele>427.0</ele><time>2026-04-03T15:28:45.689Z</time></trkpt><trkpt lat="42.7025566" lon="12.7223845"><ele>432.0</ele><time>2026-04-03T15:28:46.689Z</time></trkpt><trkpt lat="42.7022859" lon="12.7225374"><ele>437.0</ele><time>2026-04-03T15:28:47.689Z</time></trkpt><trkpt lat="42.702022" lon="12.7226913"><ele>433.5</ele><time>2026-04-03T15:28:48.689Z</time></trkpt><trkpt lat="42.7017652" lon="12.7228296"><ele>430.0</ele><time>2026-04-03T15:28:49.689Z</time></trkpt><trkpt lat="42.7015107" lon="12.7229594"><ele>430.0</ele><time>2026-04-03T15:28:50.688Z</time></trkpt><trkpt lat="42.7012501" lon="12.723062"><ele>430.0</ele><time>2026-04-03T15:28:51.689Z</time></trkpt><trkpt lat="42.7009838" lon="12.7231351"><ele>434.0</ele><time>2026-04-03T15:28:52.689Z</time></trkpt><trkpt lat="42.700707" lon="12.7231747"><ele>438.0</ele><time>2026-04-03T15:28:53.689Z</time></trkpt><trkpt lat="42.7004313" lon="12.7231747"><ele>439.0</ele><time>2026-04-03T15:28:54.688Z</time></trkpt><trkpt lat="42.7001605" lon="12.7231304"><ele>440.0</ele><time>2026-04-03T15:28:55.689Z</time></trkpt><trkpt lat="42.6998919" lon="12.7230554"><ele>440.0</ele><time>2026-04-03T15:28:56.689Z</time></trkpt><trkpt lat="42.6996219" lon="12.7229564"><ele>440.0</ele><time>2026-04-03T15:28:57.689Z</time></trkpt><trkpt lat="42.6993485" lon="12.7228485"><ele>438.0</ele><time>2026-04-03T15:28:58.688Z</time></trkpt><trkpt lat="42.6990657" lon="12.7227401"><ele>436.0</ele><time>2026-04-03T15:28:59.689Z</time></trkpt><trkpt lat="42.6987788" lon="12.7226366"><ele>442.0</ele><time>2026-04-03T15:29:00.689Z</time></trkpt><trkpt lat="42.6984928" lon="12.7225322"><ele>448.0</ele><time>2026-04-03T15:29:01.688Z</time></trkpt><trkpt lat="42.6982053" lon="12.7224409"><ele>448.0</ele><time>2026-04-03T15:29:02.688Z</time></trkpt><trkpt lat="42.6979155" lon="12.7223534"><ele>448.0</ele><time>2026-04-03T15:29:03.688Z</time></trkpt><trkpt lat="42.6976191" lon="12.7222821"><ele>449.0</ele><time>2026-04-03T15:29:04.688Z</time></trkpt><trkpt lat="42.6973225" lon="12.7222305"><ele>450.0</ele><time>2026-04-03T15:29:05.689Z</time></trkpt><trkpt lat="42.6970216" lon="12.7221841"><ele>449.0</ele><time>2026-04-03T15:29:06.689Z</time></trkpt><trkpt lat="42.696718" lon="12.7221404"><ele>448.0</ele><time>2026-04-03T15:29:07.689Z</time></trkpt><trkpt lat="42.6964157" lon="12.7220904"><ele>448.0</ele><time>2026-04-03T15:29:08.689Z</time></trkpt><trkpt lat="42.6961146" lon="12.7220396"><ele>448.0</ele><time>2026-04-03T15:29:09.689Z</time></trkpt><trkpt lat="42.6958171" lon="12.7219846"><ele>449.0</ele><time>2026-04-03T15:29:10.689Z</time></trkpt><trkpt lat="42.695522" lon="12.7219332"><ele>450.0</ele><time>2026-04-03T15:29:11.689Z</time></trkpt><trkpt lat="42.6952277" lon="12.7218832"><ele>453.5</ele><time>2026-04-03T15:29:12.689Z</time></trkpt><trkpt lat="42.6949356" lon="12.721841"><ele>457.0</ele><time>2026-04-03T15:29:13.689Z</time></trkpt><trkpt lat="42.6946491" lon="12.7218031"><ele>461.5</ele><time>2026-04-03T15:29:14.689Z</time></trkpt><trkpt lat="42.6943672" lon="12.7217635"><ele>466.0</ele><time>2026-04-03T15:29:15.689Z</time></trkpt><trkpt lat="42.6940891" lon="12.7217216"><ele>466.0</ele><time>2026-04-03T15:29:16.689Z</time></trkpt><trkpt lat="42.6938128" lon="12.7216791"><ele>466.0</ele><time>2026-04-03T15:29:17.688Z</time></trkpt><trkpt lat="42.6935414" lon="12.721636"><ele>472.0</ele><time>2026-04-03T15:29:18.689Z</time></trkpt><trkpt lat="42.6932858" lon="12.7215945"><ele>478.0</ele><time>2026-04-03T15:29:19.688Z</time></trkpt><trkpt lat="42.6930428" lon="12.7215553"><ele>478.0</ele><time>2026-04-03T15:29:20.688Z</time></trkpt><trkpt lat="42.6928225" lon="12.7215169"><ele>478.0</ele><time>2026-04-03T15:29:21.688Z</time></trkpt><trkpt lat="42.69263" lon="12.7214832"><ele>478.0</ele><time>2026-04-03T15:29:22.689Z</time></trkpt><trkpt lat="42.6924415" lon="12.7214511"><ele>478.0</ele><time>2026-04-03T15:29:23.688Z</time></trkpt><trkpt lat="42.6922623" lon="12.7214203"><ele>478.0</ele><time>2026-04-03T15:29:24.689Z</time></trkpt><trkpt lat="42.6920852" lon="12.7213977"><ele>478.0</ele><time>2026-04-03T15:29:25.688Z</time></trkpt><trkpt lat="42.6919103" lon="12.7213786"><ele>479.6666666666667</ele><time>2026-04-03T15:29:26.689Z</time></trkpt><trkpt lat="42.6917329" lon="12.7213758"><ele>481.33333333333337</ele><time>2026-04-03T15:29:27.688Z</time></trkpt><trkpt lat="42.6915567" lon="12.7213879"><ele>483.0</ele><time>2026-04-03T15:29:28.689Z</time></trkpt><trkpt lat="42.6913673" lon="12.7214294"><ele>483.0</ele><time>2026-04-03T15:29:29.688Z</time></trkpt><trkpt lat="42.6911732" lon="12.7214867"><ele>483.0</ele><time>2026-04-03T15:29:30.689Z</time></trkpt><trkpt lat="42.6909871" lon="12.7215481"><ele>483.0</ele><time>2026-04-03T15:29:31.689Z</time></trkpt><trkpt lat="42.6907951" lon="12.7216152"><ele>486.0</ele><time>2026-04-03T15:29:32.689Z</time></trkpt><trkpt lat="42.6905979" lon="12.7216842"><ele>489.0</ele><time>2026-04-03T15:29:33.689Z</time></trkpt><trkpt lat="42.6904025" lon="12.7217492"><ele>492.0</ele><time>2026-04-03T15:29:34.688Z</time></trkpt><trkpt lat="42.6902227" lon="12.7218088"><ele>486.66666666666663</ele><time>2026-04-03T15:29:35.689Z</time></trkpt><trkpt lat="42.6900514" lon="12.7218821"><ele>481.3333333333333</ele><time>2026-04-03T15:29:36.688Z</time></trkpt><trkpt lat="42.6898909" lon="12.7219696"><ele>476.0</ele><time>2026-04-03T15:29:37.688Z</time></trkpt><trkpt lat="42.6897394" lon="12.7220973"><ele>476.0</ele><time>2026-04-03T15:29:38.689Z</time></trkpt><trkpt lat="42.6895874" lon="12.7222661"><ele>476.0</ele><time>2026-04-03T15:29:39.688Z</time></trkpt><trkpt lat="42.6894317" lon="12.7224623"><ele>476.0</ele><time>2026-04-03T15:29:40.689Z</time></trkpt><trkpt lat="42.6892832" lon="12.7226907"><ele>481.0</ele><time>2026-04-03T15:29:41.689Z</time></trkpt><trkpt lat="42.6891462" lon="12.7229332"><ele>486.0</ele><time>2026-04-03T15:29:42.688Z</time></trkpt><trkpt lat="42.6889984" lon="12.7231788"><ele>486.0</ele><time>2026-04-03T15:29:43.689Z</time></trkpt><trkpt lat="42.6888407" lon="12.7234234"><ele>486.0</ele><time>2026-04-03T15:29:44.689Z</time></trkpt><trkpt lat="42.6886837" lon="12.7236762"><ele>491.33333333333337</ele><time>2026-04-03T15:29:45.689Z</time></trkpt><trkpt lat="42.6885314" lon="12.7239184"><ele>496.6666666666667</ele><time>2026-04-03T15:29:46.689Z</time></trkpt><trkpt lat="42.688393" lon="12.724138"><ele>502.0</ele><time>2026-04-03T15:29:47.689Z</time></trkpt><trkpt lat="42.6882626" lon="12.7243161"><ele>494.0</ele><time>2026-04-03T15:29:48.689Z</time></trkpt><trkpt lat="42.6881386" lon="12.7244614"><ele>486.0</ele><time>2026-04-03T15:29:49.689Z</time></trkpt><trkpt lat="42.6880057" lon="12.724591"><ele>478.0</ele><time>2026-04-03T15:29:50.689Z</time></trkpt><trkpt lat="42.6878601" lon="12.7247097"><ele>487.33333333333337</ele><time>2026-04-03T15:29:51.688Z</time></trkpt><trkpt lat="42.6876967" lon="12.7248037"><ele>496.66666666666663</ele><time>2026-04-03T15:29:52.689Z</time></trkpt><trkpt lat="42.6875133" lon="12.7248804"><ele>506.0</ele><time>2026-04-03T15:29:53.689Z</time></trkpt><trkpt lat="42.6873132" lon="12.7249466"><ele>506.0</ele><time>2026-04-03T15:29:54.689Z</time></trkpt><trkpt lat="42.6870975" lon="12.7250167"><ele>506.0</ele><time>2026-04-03T15:29:55.688Z</time></trkpt><trkpt lat="42.6868789" lon="12.7250927"><ele>506.0</ele><time>2026-04-03T15:29:56.689Z</time></trkpt><trkpt lat="42.6866498" lon="12.7251726"><ele>494.5</ele><time>2026-04-03T15:29:57.689Z</time></trkpt><trkpt lat="42.6864127" lon="12.7252519"><ele>483.0</ele><time>2026-04-03T15:29:58.689Z</time></trkpt><trkpt lat="42.6861726" lon="12.7253375"><ele>484.0</ele><time>2026-04-03T15:29:59.689Z</time></trkpt><trkpt lat="42.6859422" lon="12.7254287"><ele>485.0</ele><time>2026-04-03T15:30:00.689Z</time></trkpt><trkpt lat="42.685715" lon="12.7255333"><ele>485.0</ele><time>2026-04-03T15:30:01.689Z</time></trkpt><trkpt lat="42.6854898" lon="12.72565"><ele>485.0</ele><time>2026-04-03T15:30:02.689Z</time></trkpt><trkpt lat="42.6852694" lon="12.7257931"><ele>487.0</ele><time>2026-04-03T15:30:03.689Z</time></trkpt><trkpt lat="42.6850473" lon="12.7259436"><ele>489.0</ele><time>2026-04-03T15:30:04.689Z</time></trkpt><trkpt lat="42.6848234" lon="12.7261039"><ele>489.0</ele><time>2026-04-03T15:30:05.688Z</time></trkpt><trkpt lat="42.6845997" lon="12.726261"><ele>489.0</ele><time>2026-04-03T15:30:06.689Z</time></trkpt><trkpt lat="42.6843747" lon="12.7264147"><ele>500.0</ele><time>2026-04-03T15:30:07.689Z</time></trkpt><trkpt lat="42.6841553" lon="12.7265531"><ele>511.0</ele><time>2026-04-03T15:30:08.688Z</time></trkpt><trkpt lat="42.6839544" lon="12.7266727"><ele>511.0</ele><time>2026-04-03T15:30:09.689Z</time></trkpt><trkpt lat="42.6837605" lon="12.7267672"><ele>511.0</ele><time>2026-04-03T15:30:10.689Z</time></trkpt><trkpt lat="42.6835723" lon="12.7268478"><ele>511.0</ele><time>2026-04-03T15:30:11.689Z</time></trkpt><trkpt lat="42.6833761" lon="12.7269088"><ele>512.0</ele><time>2026-04-03T15:30:12.688Z</time></trkpt><trkpt lat="42.6831739" lon="12.726947"><ele>513.0</ele><time>2026-04-03T15:30:13.689Z</time></trkpt><trkpt lat="42.6829608" lon="12.7269638"><ele>514.0</ele><time>2026-04-03T15:30:14.689Z</time></trkpt><trkpt lat="42.6827477" lon="12.7269517"><ele>514.0</ele><time>2026-04-03T15:30:15.689Z</time></trkpt><trkpt lat="42.6825122" lon="12.7269365"><ele>514.0</ele><time>2026-04-03T15:30:16.689Z</time></trkpt><trkpt lat="42.6822708" lon="12.7269279"><ele>514.0</ele><time>2026-04-03T15:30:17.689Z</time></trkpt><trkpt lat="42.6820216" lon="12.7269229"><ele>514.0</ele><time>2026-04-03T15:30:18.689Z</time></trkpt><trkpt lat="42.6817688" lon="12.7269188"><ele>515.5</ele><time>2026-04-03T15:30:19.689Z</time></trkpt><trkpt lat="42.6815223" lon="12.7269146"><ele>517.0</ele><time>2026-04-03T15:30:20.689Z</time></trkpt><trkpt lat="42.6812775" lon="12.726888"><ele>528.0</ele><time>2026-04-03T15:30:21.689Z</time></trkpt><trkpt lat="42.6810347" lon="12.726823"><ele>539.0</ele><time>2026-04-03T15:30:22.688Z</time></trkpt><trkpt lat="42.6808" lon="12.7267237"><ele>539.0</ele><time>2026-04-03T15:30:23.689Z</time></trkpt><trkpt lat="42.680569" lon="12.7266032"><ele>539.0</ele><time>2026-04-03T15:30:24.689Z</time></trkpt><trkpt lat="42.6803289" lon="12.7264737"><ele>536.0</ele><time>2026-04-03T15:30:25.689Z</time></trkpt><trkpt lat="42.6800908" lon="12.7263387"><ele>533.0</ele><time>2026-04-03T15:30:26.689Z</time></trkpt><trkpt lat="42.6798448" lon="12.726206"><ele>533.0</ele><time>2026-04-03T15:30:27.688Z</time></trkpt><trkpt lat="42.6795963" lon="12.7260754"><ele>533.0</ele><time>2026-04-03T15:30:28.689Z</time></trkpt><trkpt lat="42.67934" lon="12.725964"><ele>544.5</ele><time>2026-04-03T15:30:29.688Z</time></trkpt><trkpt lat="42.6790702" lon="12.7258628"><ele>556.0</ele><time>2026-04-03T15:30:30.688Z</time></trkpt><trkpt lat="42.6787937" lon="12.725786"><ele>552.5</ele><time>2026-04-03T15:30:31.689Z</time></trkpt><trkpt lat="42.6785068" lon="12.7257223"><ele>549.0</ele><time>2026-04-03T15:30:32.689Z</time></trkpt><trkpt lat="42.6782172" lon="12.7256599"><ele>549.0</ele><time>2026-04-03T15:30:33.688Z</time></trkpt><trkpt lat="42.6779334" lon="12.7255974"><ele>549.0</ele><time>2026-04-03T15:30:34.688Z</time></trkpt><trkpt lat="42.6776497" lon="12.7255319"><ele>548.0</ele><time>2026-04-03T15:30:35.688Z</time></trkpt><trkpt lat="42.6773708" lon="12.725471"><ele>547.0</ele><time>2026-04-03T15:30:36.689Z</time></trkpt><trkpt lat="42.6770986" lon="12.7254153"><ele>546.0</ele><time>2026-04-03T15:30:37.689Z</time></trkpt><trkpt lat="42.6768319" lon="12.7253809"><ele>545.0</ele><time>2026-04-03T15:30:38.689Z</time></trkpt><trkpt lat="42.6765611" lon="12.7253896"><ele>545.0</ele><time>2026-04-03T15:30:39.689Z</time></trkpt><trkpt lat="42.6762976" lon="12.7254337"><ele>545.0</ele><time>2026-04-03T15:30:40.689Z</time></trkpt><trkpt lat="42.6760299" lon="12.7255232"><ele>549.5</ele><time>2026-04-03T15:30:41.688Z</time></trkpt><trkpt lat="42.6757724" lon="12.7256449"><ele>554.0</ele><time>2026-04-03T15:30:42.689Z</time></trkpt><trkpt lat="42.6755133" lon="12.7257911"><ele>556.0</ele><time>2026-04-03T15:30:43.688Z</time></trkpt><trkpt lat="42.6752531" lon="12.725934"><ele>558.0</ele><time>2026-04-03T15:30:44.689Z</time></trkpt><trkpt lat="42.6749847" lon="12.7260817"><ele>570.5</ele><time>2026-04-03T15:30:45.689Z</time></trkpt><trkpt lat="42.6747193" lon="12.7262293"><ele>583.0</ele><time>2026-04-03T15:30:46.688Z</time></trkpt><trkpt lat="42.6744459" lon="12.7263773"><ele>580.0</ele><time>2026-04-03T15:30:47.689Z</time></trkpt><trkpt lat="42.674175" lon="12.726525"><ele>577.0</ele><time>2026-04-03T15:30:48.688Z</time></trkpt><trkpt lat="42.673912" lon="12.7266653"><ele>577.0</ele><time>2026-04-03T15:30:49.689Z</time></trkpt><trkpt lat="42.673665" lon="12.7268027"><ele>577.0</ele><time>2026-04-03T15:30:50.689Z</time></trkpt><trkpt lat="42.6734281" lon="12.7269402"><ele>581.5</ele><time>2026-04-03T15:30:51.689Z</time></trkpt><trkpt lat="42.6732009" lon="12.727112"><ele>586.0</ele><time>2026-04-03T15:30:52.689Z</time></trkpt><trkpt lat="42.6729869" lon="12.7273189"><ele>586.0</ele><time>2026-04-03T15:30:53.688Z</time></trkpt><trkpt lat="42.6727787" lon="12.7275569"><ele>586.0</ele><time>2026-04-03T15:30:54.688Z</time></trkpt><trkpt lat="42.6725821" lon="12.7278051"><ele>584.0</ele><time>2026-04-03T15:30:55.688Z</time></trkpt><trkpt lat="42.6724011" lon="12.7280364"><ele>582.0</ele><time>2026-04-03T15:30:56.689Z</time></trkpt><trkpt lat="42.6722264" lon="12.7282452"><ele>582.0</ele><time>2026-04-03T15:30:57.689Z</time></trkpt><trkpt lat="42.672041" lon="12.72842"><ele>582.0</ele><time>2026-04-03T15:30:58.688Z</time></trkpt><trkpt lat="42.6718313" lon="12.7285391"><ele>584.0</ele><time>2026-04-03T15:30:59.689Z</time></trkpt><trkpt lat="42.6716049" lon="12.7286147"><ele>586.0</ele><time>2026-04-03T15:31:00.689Z</time></trkpt><trkpt lat="42.6713754" lon="12.7286644"><ele>586.0</ele><time>2026-04-03T15:31:01.688Z</time></trkpt><trkpt lat="42.6711392" lon="12.7286934"><ele>586.0</ele><time>2026-04-03T15:31:02.689Z</time></trkpt><trkpt lat="42.6709015" lon="12.7287412"><ele>594.0</ele><time>2026-04-03T15:31:03.689Z</time></trkpt><trkpt lat="42.6706754" lon="12.7288279"><ele>602.0</ele><time>2026-04-03T15:31:04.689Z</time></trkpt><trkpt lat="42.6704744" lon="12.7289653"><ele>602.0</ele><time>2026-04-03T15:31:05.689Z</time></trkpt><trkpt lat="42.6702876" lon="12.7291438"><ele>602.0</ele><time>2026-04-03T15:31:06.688Z</time></trkpt><trkpt lat="42.6701188" lon="12.7293622"><ele>604.0</ele><time>2026-04-03T15:31:07.689Z</time></trkpt><trkpt lat="42.6699759" lon="12.7296188"><ele>606.0</ele><time>2026-04-03T15:31:08.688Z</time></trkpt><trkpt lat="42.6698597" lon="12.729916"><ele>614.0</ele><time>2026-04-03T15:31:09.689Z</time></trkpt><trkpt lat="42.6697571" lon="12.730237"><ele>622.0</ele><time>2026-04-03T15:31:10.689Z</time></trkpt><trkpt lat="42.6696532" lon="12.7305675"><ele>622.0</ele><time>2026-04-03T15:31:11.688Z</time></trkpt><trkpt lat="42.6695471" lon="12.7309066"><ele>622.0</ele><time>2026-04-03T15:31:12.688Z</time></trkpt><trkpt lat="42.6694366" lon="12.7312452"><ele>619.0</ele><time>2026-04-03T15:31:13.688Z</time></trkpt><trkpt lat="42.669327" lon="12.7315896"><ele>616.0</ele><time>2026-04-03T15:31:14.688Z</time></trkpt><trkpt lat="42.6692231" lon="12.7319352"><ele>616.0</ele><time>2026-04-03T15:31:15.689Z</time></trkpt><trkpt lat="42.6691182" lon="12.7322811"><ele>616.0</ele><time>2026-04-03T15:31:16.689Z</time></trkpt><trkpt lat="42.6690006" lon="12.732607"><ele>618.5</ele><time>2026-04-03T15:31:17.689Z</time></trkpt><trkpt lat="42.6688561" lon="12.7329164"><ele>621.0</ele><time>2026-04-03T15:31:18.688Z</time></trkpt><trkpt lat="42.6686937" lon="12.7332101"><ele>622.0</ele><time>2026-04-03T15:31:19.688Z</time></trkpt><trkpt lat="42.668517" lon="12.7334799"><ele>623.0</ele><time>2026-04-03T15:31:20.689Z</time></trkpt><trkpt lat="42.6683287" lon="12.7337446"><ele>623.0</ele><time>2026-04-03T15:31:21.689Z</time></trkpt><trkpt lat="42.6681461" lon="12.7340058"><ele>623.0</ele><time>2026-04-03T15:31:22.689Z</time></trkpt><trkpt lat="42.6679668" lon="12.734276"><ele>626.0</ele><time>2026-04-03T15:31:23.688Z</time></trkpt><trkpt lat="42.6678016" lon="12.734539"><ele>629.0</ele><time>2026-04-03T15:31:24.688Z</time></trkpt><trkpt lat="42.6676479" lon="12.7347694"><ele>629.0</ele><time>2026-04-03T15:31:25.689Z</time></trkpt><trkpt lat="42.6675098" lon="12.7349682"><ele>629.0</ele><time>2026-04-03T15:31:26.689Z</time></trkpt><trkpt lat="42.6673651" lon="12.7351102"><ele>629.0</ele><time>2026-04-03T15:31:27.689Z</time></trkpt><trkpt lat="42.667206" lon="12.7351929"><ele>629.0</ele><time>2026-04-03T15:31:28.689Z</time></trkpt><trkpt lat="42.6670459" lon="12.7352173"><ele>629.0</ele><time>2026-04-03T15:31:29.689Z</time></trkpt><trkpt lat="42.6668752" lon="12.7351857"><ele>629.0</ele><time>2026-04-03T15:31:30.688Z</time></trkpt><trkpt lat="42.6667148" lon="12.7350806"><ele>630.3333333333333</ele><time>2026-04-03T15:31:31.688Z</time></trkpt><trkpt lat="42.6665992" lon="12.7349277"><ele>631.6666666666666</ele><time>2026-04-03T15:31:32.689Z</time></trkpt><trkpt lat="42.6665093" lon="12.7347377"><ele>633.0</ele><time>2026-04-03T15:31:33.688Z</time></trkpt><trkpt lat="42.6664698" lon="12.7345127"><ele>634.0</ele><time>2026-04-03T15:31:34.688Z</time></trkpt><trkpt lat="42.6664729" lon="12.734289"><ele>635.0</ele><time>2026-04-03T15:31:35.689Z</time></trkpt><trkpt lat="42.6665292" lon="12.734058"><ele>636.0</ele><time>2026-04-03T15:31:36.689Z</time></trkpt><trkpt lat="42.6666222" lon="12.7338628"><ele>636.0</ele><time>2026-04-03T15:31:37.689Z</time></trkpt><trkpt lat="42.6667583" lon="12.7336795"><ele>636.0</ele><time>2026-04-03T15:31:38.689Z</time></trkpt><trkpt lat="42.6669203" lon="12.7334992"><ele>636.0</ele><time>2026-04-03T15:31:39.689Z</time></trkpt><trkpt lat="42.6671037" lon="12.7333029"><ele>636.5</ele><time>2026-04-03T15:31:40.688Z</time></trkpt><trkpt lat="42.667288" lon="12.733095"><ele>637.0</ele><time>2026-04-03T15:31:41.689Z</time></trkpt><trkpt lat="42.667465" lon="12.7328784"><ele>633.6666666666667</ele><time>2026-04-03T15:31:42.689Z</time></trkpt><trkpt lat="42.6676271" lon="12.7326583"><ele>630.3333333333334</ele><time>2026-04-03T15:31:43.687Z</time></trkpt><trkpt lat="42.6677537" lon="12.7324233"><ele>627.0</ele><time>2026-04-03T15:31:44.687Z</time></trkpt><trkpt lat="42.6678367" lon="12.7321837"><ele>627.0</ele><time>2026-04-03T15:31:45.687Z</time></trkpt><trkpt lat="42.6678898" lon="12.731916"><ele>627.0</ele><time>2026-04-03T15:31:46.687Z</time></trkpt><trkpt lat="42.6678903" lon="12.7316396"><ele>627.0</ele><time>2026-04-03T15:31:47.687Z</time></trkpt><trkpt lat="42.6678679" lon="12.7313463"><ele>631.0</ele><time>2026-04-03T15:31:48.687Z</time></trkpt><trkpt lat="42.6678098" lon="12.7310388"><ele>635.0</ele><time>2026-04-03T15:31:49.688Z</time></trkpt><trkpt lat="42.6677435" lon="12.7307162"><ele>645.5</ele><time>2026-04-03T15:31:50.688Z</time></trkpt><trkpt lat="42.6676747" lon="12.7303787"><ele>656.0</ele><time>2026-04-03T15:31:51.687Z</time></trkpt><trkpt lat="42.6676031" lon="12.7300589"><ele>656.0</ele><time>2026-04-03T15:31:52.688Z</time></trkpt><trkpt lat="42.6675312" lon="12.7297574"><ele>656.0</ele><time>2026-04-03T15:31:53.688Z</time></trkpt><trkpt lat="42.6674494" lon="12.7294907"><ele>656.0</ele><time>2026-04-03T15:31:54.688Z</time></trkpt><trkpt lat="42.6673347" lon="12.7292609"><ele>653.0</ele><time>2026-04-03T15:31:55.688Z</time></trkpt><trkpt lat="42.6671916" lon="12.7290685"><ele>650.0</ele><time>2026-04-03T15:31:56.687Z</time></trkpt><trkpt lat="42.6670148" lon="12.7289046"><ele>647.0</ele><time>2026-04-03T15:31:57.688Z</time></trkpt><trkpt lat="42.666822" lon="12.7287712"><ele>654.3333333333333</ele><time>2026-04-03T15:31:58.688Z</time></trkpt><trkpt lat="42.6666185" lon="12.728665"><ele>661.6666666666666</ele><time>2026-04-03T15:31:59.688Z</time></trkpt><trkpt lat="42.6664204" lon="12.7285673"><ele>669.0</ele><time>2026-04-03T15:32:00.688Z</time></trkpt><trkpt lat="42.6662407" lon="12.7284971"><ele>664.0</ele><time>2026-04-03T15:32:01.688Z</time></trkpt><trkpt lat="42.6650358" lon="12.7283499"><ele>664.0</ele><time>2026-04-03T15:32:06.687Z</time></trkpt><trkpt lat="42.6647744" lon="12.728313"><ele>664.0</ele><time>2026-04-03T15:32:07.688Z</time></trkpt><trkpt lat="42.6645389" lon="12.7282842"><ele>653.5</ele><time>2026-04-03T15:32:08.687Z</time></trkpt><trkpt lat="42.6642935" lon="12.7282612"><ele>643.0</ele><time>2026-04-03T15:32:09.687Z</time></trkpt><trkpt lat="42.6640587" lon="12.7282535"><ele>643.0</ele><time>2026-04-03T15:32:10.688Z</time></trkpt><trkpt lat="42.6638302" lon="12.728265"><ele>643.0</ele><time>2026-04-03T15:32:11.687Z</time></trkpt><trkpt lat="42.6636078" lon="12.7283257"><ele>647.0</ele><time>2026-04-03T15:32:12.687Z</time></trkpt><trkpt lat="42.6633949" lon="12.7284238"><ele>651.0</ele><time>2026-04-03T15:32:13.687Z</time></trkpt><trkpt lat="42.6631748" lon="12.7285576"><ele>645.5</ele><time>2026-04-03T15:32:14.687Z</time></trkpt><trkpt lat="42.6629456" lon="12.7287039"><ele>640.0</ele><time>2026-04-03T15:32:15.687Z</time></trkpt><trkpt lat="42.6627186" lon="12.728853"><ele>640.0</ele><time>2026-04-03T15:32:16.688Z</time></trkpt><trkpt lat="42.6624972" lon="12.7289991"><ele>640.0</ele><time>2026-04-03T15:32:17.688Z</time></trkpt><trkpt lat="42.6622878" lon="12.7291517"><ele>640.0</ele><time>2026-04-03T15:32:18.688Z</time></trkpt><trkpt lat="42.6621014" lon="12.7293177"><ele>640.0</ele><time>2026-04-03T15:32:19.688Z</time></trkpt><trkpt lat="42.6619441" lon="12.7295023"><ele>640.0</ele><time>2026-04-03T15:32:20.688Z</time></trkpt><trkpt lat="42.661811" lon="12.729686"><ele>635.6666666666667</ele><time>2026-04-03T15:32:21.687Z</time></trkpt><trkpt lat="42.6616908" lon="12.7298683"><ele>631.3333333333334</ele><time>2026-04-03T15:32:22.687Z</time></trkpt><trkpt lat="42.661577" lon="12.7300382"><ele>627.0</ele><time>2026-04-03T15:32:23.687Z</time></trkpt><trkpt lat="42.6614685" lon="12.7302016"><ele>624.6666666666666</ele><time>2026-04-03T15:32:24.688Z</time></trkpt><trkpt lat="42.6613512" lon="12.7303547"><ele>622.3333333333333</ele><time>2026-04-03T15:32:25.688Z</time></trkpt><trkpt lat="42.6612245" lon="12.7304961"><ele>620.0</ele><time>2026-04-03T15:32:26.687Z</time></trkpt><trkpt lat="42.6610795" lon="12.7306141"><ele>620.0</ele><time>2026-04-03T15:32:27.687Z</time></trkpt><trkpt lat="42.6609236" lon="12.7307037"><ele>620.0</ele><time>2026-04-03T15:32:28.688Z</time></trkpt><trkpt lat="42.6607546" lon="12.7307661"><ele>620.0</ele><time>2026-04-03T15:32:29.687Z</time></trkpt><trkpt lat="42.6605874" lon="12.7308038"><ele>620.0</ele><time>2026-04-03T15:32:30.687Z</time></trkpt><trkpt lat="42.6604241" lon="12.7308267"><ele>620.0</ele><time>2026-04-03T15:32:31.688Z</time></trkpt><trkpt lat="42.6602653" lon="12.7308396"><ele>620.0</ele><time>2026-04-03T15:32:32.688Z</time></trkpt><trkpt lat="42.6601033" lon="12.7308557"><ele>619.3333333333333</ele><time>2026-04-03T15:32:33.688Z</time></trkpt><trkpt lat="42.6599411" lon="12.7308741"><ele>618.6666666666666</ele><time>2026-04-03T15:32:34.687Z</time></trkpt><trkpt lat="42.6597844" lon="12.7308958"><ele>618.0</ele><time>2026-04-03T15:32:35.687Z</time></trkpt><trkpt lat="42.6596345" lon="12.7309313"><ele>618.0</ele><time>2026-04-03T15:32:36.687Z</time></trkpt><trkpt lat="42.6594836" lon="12.7309867"><ele>618.0</ele><time>2026-04-03T15:32:37.687Z</time></trkpt><trkpt lat="42.6593363" lon="12.7310687"><ele>618.0</ele><time>2026-04-03T15:32:38.688Z</time></trkpt><trkpt lat="42.6591982" lon="12.7311728"><ele>609.3333333333334</ele><time>2026-04-03T15:32:39.688Z</time></trkpt><trkpt lat="42.6590671" lon="12.7312935"><ele>600.6666666666667</ele><time>2026-04-03T15:32:40.687Z</time></trkpt><trkpt lat="42.6589352" lon="12.7314262"><ele>592.0</ele><time>2026-04-03T15:32:41.688Z</time></trkpt><trkpt lat="42.6588" lon="12.7315699"><ele>592.0</ele><time>2026-04-03T15:32:42.688Z</time></trkpt><trkpt lat="42.6586608" lon="12.7317113"><ele>592.0</ele><time>2026-04-03T15:32:43.687Z</time></trkpt><trkpt lat="42.6585209" lon="12.7318527"><ele>592.0</ele><time>2026-04-03T15:32:44.688Z</time></trkpt><trkpt lat="42.6583851" lon="12.7319852"><ele>589.3333333333334</ele><time>2026-04-03T15:32:45.688Z</time></trkpt><trkpt lat="42.6582516" lon="12.7321056"><ele>586.6666666666666</ele><time>2026-04-03T15:32:46.688Z</time></trkpt><trkpt lat="42.6581134" lon="12.7322071"><ele>584.0</ele><time>2026-04-03T15:32:47.687Z</time></trkpt><trkpt lat="42.657967" lon="12.7322794"><ele>584.0</ele><time>2026-04-03T15:32:48.687Z</time></trkpt><trkpt lat="42.6578149" lon="12.7323292"><ele>584.0</ele><time>2026-04-03T15:32:49.688Z</time></trkpt><trkpt lat="42.6576536" lon="12.732346"><ele>584.0</ele><time>2026-04-03T15:32:50.687Z</time></trkpt><trkpt lat="42.6574863" lon="12.7323448"><ele>583.3333333333333</ele><time>2026-04-03T15:32:51.688Z</time></trkpt><trkpt lat="42.6572978" lon="12.7323335"><ele>582.6666666666666</ele><time>2026-04-03T15:32:52.687Z</time></trkpt><trkpt lat="42.6570772" lon="12.7323066"><ele>582.0</ele><time>2026-04-03T15:32:53.687Z</time></trkpt><trkpt lat="42.6568462" lon="12.7322746"><ele>582.0</ele><time>2026-04-03T15:32:54.688Z</time></trkpt><trkpt lat="42.6565989" lon="12.7322304"><ele>582.0</ele><time>2026-04-03T15:32:55.687Z</time></trkpt><trkpt lat="42.6563433" lon="12.73218"><ele>575.0</ele><time>2026-04-03T15:32:56.688Z</time></trkpt><trkpt lat="42.6560748" lon="12.7321297"><ele>568.0</ele><time>2026-04-03T15:32:57.688Z</time></trkpt><trkpt lat="42.6557974" lon="12.7320821"><ele>568.0</ele><time>2026-04-03T15:32:58.688Z</time></trkpt><trkpt lat="42.6555126" lon="12.7320358"><ele>568.0</ele><time>2026-04-03T15:32:59.688Z</time></trkpt><trkpt lat="42.6552273" lon="12.731998"><ele>561.0</ele><time>2026-04-03T15:33:00.688Z</time></trkpt><trkpt lat="42.6549431" lon="12.7319659"><ele>554.0</ele><time>2026-04-03T15:33:01.688Z</time></trkpt><trkpt lat="42.6546679" lon="12.7319428"><ele>550.5</ele><time>2026-04-03T15:33:02.688Z</time></trkpt><trkpt lat="42.6543943" lon="12.7319494"><ele>547.0</ele><time>2026-04-03T15:33:03.687Z</time></trkpt><trkpt lat="42.6541297" lon="12.731982"><ele>547.0</ele><time>2026-04-03T15:33:04.688Z</time></trkpt><trkpt lat="42.6538682" lon="12.7320366"><ele>547.0</ele><time>2026-04-03T15:33:05.688Z</time></trkpt><trkpt lat="42.6536086" lon="12.7321167"><ele>551.5</ele><time>2026-04-03T15:33:06.688Z</time></trkpt><trkpt lat="42.6533506" lon="12.7322331"><ele>556.0</ele><time>2026-04-03T15:33:07.687Z</time></trkpt><trkpt lat="42.653105" lon="12.7323636"><ele>556.0</ele><time>2026-04-03T15:33:08.687Z</time></trkpt><trkpt lat="42.6528632" lon="12.7325072"><ele>556.0</ele><time>2026-04-03T15:33:09.687Z</time></trkpt><trkpt lat="42.6526175" lon="12.7326419"><ele>549.5</ele><time>2026-04-03T15:33:10.688Z</time></trkpt><trkpt lat="42.6523626" lon="12.7327694"><ele>543.0</ele><time>2026-04-03T15:33:11.688Z</time></trkpt><trkpt lat="42.6520985" lon="12.732894"><ele>549.0</ele><time>2026-04-03T15:33:12.687Z</time></trkpt><trkpt lat="42.6518261" lon="12.7330077"><ele>555.0</ele><time>2026-04-03T15:33:13.688Z</time></trkpt><trkpt lat="42.6515479" lon="12.7331037"><ele>555.0</ele><time>2026-04-03T15:33:14.688Z</time></trkpt><trkpt lat="42.6512641" lon="12.7331841"><ele>555.0</ele><time>2026-04-03T15:33:15.688Z</time></trkpt><trkpt lat="42.6509783" lon="12.7332493"><ele>556.0</ele><time>2026-04-03T15:33:16.688Z</time></trkpt><trkpt lat="42.650689" lon="12.7333075"><ele>557.0</ele><time>2026-04-03T15:33:17.687Z</time></trkpt><trkpt lat="42.6503947" lon="12.7333728"><ele>559.5</ele><time>2026-04-03T15:33:18.688Z</time></trkpt><trkpt lat="42.6501033" lon="12.7334425"><ele>562.0</ele><time>2026-04-03T15:33:19.688Z</time></trkpt><trkpt lat="42.6498292" lon="12.7335037"><ele>541.5</ele><time>2026-04-03T15:33:20.687Z</time></trkpt><trkpt lat="42.6495656" lon="12.7335647"><ele>521.0</ele><time>2026-04-03T15:33:21.688Z</time></trkpt><trkpt lat="42.6493148" lon="12.7336188"><ele>520.5</ele><time>2026-04-03T15:33:22.688Z</time></trkpt><trkpt lat="42.6490855" lon="12.7336337"><ele>520.0</ele><time>2026-04-03T15:33:23.688Z</time></trkpt><trkpt lat="42.648857" lon="12.7336183"><ele>520.0</ele><time>2026-04-03T15:33:24.688Z</time></trkpt><trkpt lat="42.6486348" lon="12.7335568"><ele>520.0</ele><time>2026-04-03T15:33:25.688Z</time></trkpt><trkpt lat="42.648425" lon="12.7334451"><ele>530.0</ele><time>2026-04-03T15:33:26.688Z</time></trkpt><trkpt lat="42.6482145" lon="12.7332752"><ele>540.0</ele><time>2026-04-03T15:33:27.688Z</time></trkpt><trkpt lat="42.6480057" lon="12.7330714"><ele>540.5</ele><time>2026-04-03T15:33:28.687Z</time></trkpt><trkpt lat="42.6477852" lon="12.7328513"><ele>541.0</ele><time>2026-04-03T15:33:29.687Z</time></trkpt><trkpt lat="42.647557" lon="12.7326257"><ele>541.0</ele><time>2026-04-03T15:33:30.688Z</time></trkpt><trkpt lat="42.6473446" lon="12.7324284"><ele>541.0</ele><time>2026-04-03T15:33:31.688Z</time></trkpt><trkpt lat="42.6471523" lon="12.7322421"><ele>541.0</ele><time>2026-04-03T15:33:32.688Z</time></trkpt><trkpt lat="42.6469953" lon="12.73206"><ele>541.0</ele><time>2026-04-03T15:33:33.687Z</time></trkpt><trkpt lat="42.6468733" lon="12.7318501"><ele>541.0</ele><time>2026-04-03T15:33:34.688Z</time></trkpt><trkpt lat="42.6467794" lon="12.7316118"><ele>532.6666666666667</ele><time>2026-04-03T15:33:35.688Z</time></trkpt><trkpt lat="42.6467308" lon="12.7313609"><ele>524.3333333333334</ele><time>2026-04-03T15:33:36.687Z</time></trkpt><trkpt lat="42.6467206" lon="12.7310976"><ele>516.0</ele><time>2026-04-03T15:33:37.688Z</time></trkpt><trkpt lat="42.6467464" lon="12.7308339"><ele>515.6666666666666</ele><time>2026-04-03T15:33:38.688Z</time></trkpt><trkpt lat="42.6468148" lon="12.7305723"><ele>515.3333333333333</ele><time>2026-04-03T15:33:39.688Z</time></trkpt><trkpt lat="42.6469104" lon="12.730321"><ele>515.0</ele><time>2026-04-03T15:33:40.688Z</time></trkpt><trkpt lat="42.6470218" lon="12.7300651"><ele>518.3333333333333</ele><time>2026-04-03T15:33:41.688Z</time></trkpt><trkpt lat="42.6471287" lon="12.7298079"><ele>521.6666666666666</ele><time>2026-04-03T15:33:42.688Z</time></trkpt><trkpt lat="42.6472097" lon="12.7295663"><ele>525.0</ele><time>2026-04-03T15:33:43.688Z</time></trkpt><trkpt lat="42.6472518" lon="12.7293203"><ele>525.0</ele><time>2026-04-03T15:33:44.688Z</time></trkpt><trkpt lat="42.6472567" lon="12.7290617"><ele>525.0</ele><time>2026-04-03T15:33:45.688Z</time></trkpt><trkpt lat="42.6472346" lon="12.7288038"><ele>525.0</ele><time>2026-04-03T15:33:46.688Z</time></trkpt><trkpt lat="42.6471733" lon="12.7285564"><ele>527.0</ele><time>2026-04-03T15:33:47.687Z</time></trkpt><trkpt lat="42.6470694" lon="12.728336"><ele>529.0</ele><time>2026-04-03T15:33:48.687Z</time></trkpt><trkpt lat="42.6469296" lon="12.7281264"><ele>531.0</ele><time>2026-04-03T15:33:49.688Z</time></trkpt><trkpt lat="42.6467684" lon="12.7279348"><ele>528.3333333333334</ele><time>2026-04-03T15:33:50.688Z</time></trkpt><trkpt lat="42.6466031" lon="12.7277569"><ele>525.6666666666667</ele><time>2026-04-03T15:33:51.688Z</time></trkpt><trkpt lat="42.6464291" lon="12.7276015"><ele>523.0</ele><time>2026-04-03T15:33:52.688Z</time></trkpt><trkpt lat="42.6462465" lon="12.7274952"><ele>521.0</ele><time>2026-04-03T15:33:53.688Z</time></trkpt><trkpt lat="42.6460522" lon="12.7274492"><ele>519.0</ele><time>2026-04-03T15:33:54.688Z</time></trkpt><trkpt lat="42.645845" lon="12.7274831"><ele>517.0</ele><time>2026-04-03T15:33:55.688Z</time></trkpt><trkpt lat="42.6456401" lon="12.7275887"><ele>508.0</ele><time>2026-04-03T15:33:56.688Z</time></trkpt><trkpt lat="42.6454369" lon="12.7277419"><ele>499.0</ele><time>2026-04-03T15:33:57.687Z</time></trkpt><trkpt lat="42.6452322" lon="12.7279155"><ele>499.0</ele><time>2026-04-03T15:33:58.687Z</time></trkpt><trkpt lat="42.6450178" lon="12.7280946"><ele>499.0</ele><time>2026-04-03T15:33:59.688Z</time></trkpt><trkpt lat="42.6447936" lon="12.7282873"><ele>499.0</ele><time>2026-04-03T15:34:00.688Z</time></trkpt><trkpt lat="42.6445689" lon="12.7284831"><ele>499.0</ele><time>2026-04-03T15:34:01.688Z</time></trkpt><trkpt lat="42.6443406" lon="12.7286795"><ele>491.5</ele><time>2026-04-03T15:34:02.688Z</time></trkpt><trkpt lat="42.6441016" lon="12.7288747"><ele>484.0</ele><time>2026-04-03T15:34:03.688Z</time></trkpt><trkpt lat="42.6438518" lon="12.7290724"><ele>479.0</ele><time>2026-04-03T15:34:04.688Z</time></trkpt><trkpt lat="42.6435889" lon="12.7292762"><ele>474.0</ele><time>2026-04-03T15:34:05.688Z</time></trkpt><trkpt lat="42.6433199" lon="12.7294791"><ele>474.0</ele><time>2026-04-03T15:34:06.688Z</time></trkpt><trkpt lat="42.6430489" lon="12.7296748"><ele>474.0</ele><time>2026-04-03T15:34:07.688Z</time></trkpt><trkpt lat="42.6427879" lon="12.7298626"><ele>478.5</ele><time>2026-04-03T15:34:08.688Z</time></trkpt><trkpt lat="42.6425459" lon="12.7300369"><ele>483.0</ele><time>2026-04-03T15:34:09.688Z</time></trkpt><trkpt lat="42.6423216" lon="12.7301993"><ele>474.5</ele><time>2026-04-03T15:34:10.687Z</time></trkpt><trkpt lat="42.6421058" lon="12.7303317"><ele>466.0</ele><time>2026-04-03T15:34:11.687Z</time></trkpt><trkpt lat="42.6418905" lon="12.7304229"><ele>463.0</ele><time>2026-04-03T15:34:12.688Z</time></trkpt><trkpt lat="42.6416716" lon="12.7304629"><ele>460.0</ele><time>2026-04-03T15:34:13.687Z</time></trkpt><trkpt lat="42.6414508" lon="12.7304642"><ele>457.0</ele><time>2026-04-03T15:34:14.687Z</time></trkpt><trkpt lat="42.6412162" lon="12.7304176"><ele>452.5</ele><time>2026-04-03T15:34:15.688Z</time></trkpt><trkpt lat="42.640983" lon="12.7303406"><ele>448.0</ele><time>2026-04-03T15:34:16.688Z</time></trkpt><trkpt lat="42.6407332" lon="12.7302439"><ele>446.5</ele><time>2026-04-03T15:34:17.688Z</time></trkpt><trkpt lat="42.6404735" lon="12.7301453"><ele>445.0</ele><time>2026-04-03T15:34:18.688Z</time></trkpt><trkpt lat="42.6402253" lon="12.7300729"><ele>445.0</ele><time>2026-04-03T15:34:19.687Z</time></trkpt><trkpt lat="42.6399848" lon="12.7300277"><ele>445.0</ele><time>2026-04-03T15:34:20.688Z</time></trkpt><trkpt lat="42.6397519" lon="12.7300434"><ele>445.0</ele><time>2026-04-03T15:34:21.688Z</time></trkpt><trkpt lat="42.6395202" lon="12.7301113"><ele>445.0</ele><time>2026-04-03T15:34:22.687Z</time></trkpt><trkpt lat="42.63928" lon="12.7302116"><ele>435.0</ele><time>2026-04-03T15:34:23.688Z</time></trkpt><trkpt lat="42.6390387" lon="12.7303268"><ele>425.0</ele><time>2026-04-03T15:34:24.688Z</time></trkpt><trkpt lat="42.6387997" lon="12.7304351"><ele>431.5</ele><time>2026-04-03T15:34:25.687Z</time></trkpt><trkpt lat="42.6385736" lon="12.7305251"><ele>438.0</ele><time>2026-04-03T15:34:26.688Z</time></trkpt><trkpt lat="42.6383414" lon="12.7305863"><ele>438.0</ele><time>2026-04-03T15:34:27.688Z</time></trkpt><trkpt lat="42.6380939" lon="12.7305948"><ele>438.0</ele><time>2026-04-03T15:34:28.688Z</time></trkpt><trkpt lat="42.6378372" lon="12.7305648"><ele>434.5</ele><time>2026-04-03T15:34:29.688Z</time></trkpt><trkpt lat="42.6375761" lon="12.7305093"><ele>431.0</ele><time>2026-04-03T15:34:30.688Z</time></trkpt><trkpt lat="42.6373067" lon="12.7304563"><ele>431.0</ele><time>2026-04-03T15:34:31.687Z</time></trkpt><trkpt lat="42.6370524" lon="12.7304134"><ele>431.0</ele><time>2026-04-03T15:34:32.688Z</time></trkpt><trkpt lat="42.6368065" lon="12.7303723"><ele>425.5</ele><time>2026-04-03T15:34:33.687Z</time></trkpt><trkpt lat="42.6365634" lon="12.7303298"><ele>420.0</ele><time>2026-04-03T15:34:34.688Z</time></trkpt><trkpt lat="42.6363292" lon="12.7302861"><ele>422.0</ele><time>2026-04-03T15:34:35.688Z</time></trkpt><trkpt lat="42.6361043" lon="12.7302485"><ele>424.0</ele><time>2026-04-03T15:34:36.687Z</time></trkpt><trkpt lat="42.6358865" lon="12.7302102"><ele>426.0</ele><time>2026-04-03T15:34:37.687Z</time></trkpt><trkpt lat="42.6356749" lon="12.730172"><ele>426.0</ele><time>2026-04-03T15:34:38.687Z</time></trkpt><trkpt lat="42.6354598" lon="12.7301326"><ele>426.0</ele><time>2026-04-03T15:34:39.688Z</time></trkpt><trkpt lat="42.6352301" lon="12.7301034"><ele>426.0</ele><time>2026-04-03T15:34:40.687Z</time></trkpt><trkpt lat="42.6349787" lon="12.7300666"><ele>419.5</ele><time>2026-04-03T15:34:41.687Z</time></trkpt><trkpt lat="42.6347214" lon="12.7300196"><ele>413.0</ele><time>2026-04-03T15:34:42.687Z</time></trkpt><trkpt lat="42.6344535" lon="12.7299668"><ele>413.0</ele><time>2026-04-03T15:34:43.688Z</time></trkpt><trkpt lat="42.6341847" lon="12.7299118"><ele>413.0</ele><time>2026-04-03T15:34:44.688Z</time></trkpt><trkpt lat="42.6339222" lon="12.7298502"><ele>413.0</ele><time>2026-04-03T15:34:45.688Z</time></trkpt><trkpt lat="42.6336627" lon="12.7297912"><ele>413.0</ele><time>2026-04-03T15:34:46.688Z</time></trkpt><trkpt lat="42.6334015" lon="12.7297462"><ele>409.0</ele><time>2026-04-03T15:34:47.688Z</time></trkpt><trkpt lat="42.6331353" lon="12.7297252"><ele>405.0</ele><time>2026-04-03T15:34:48.687Z</time></trkpt><trkpt lat="42.6328609" lon="12.7297303"><ele>398.0</ele><time>2026-04-03T15:34:49.687Z</time></trkpt><trkpt lat="42.6325807" lon="12.7297503"><ele>391.0</ele><time>2026-04-03T15:34:50.688Z</time></trkpt><trkpt lat="42.6322935" lon="12.7297829"><ele>391.0</ele><time>2026-04-03T15:34:51.688Z</time></trkpt><trkpt lat="42.6320011" lon="12.7298217"><ele>391.0</ele><time>2026-04-03T15:34:52.687Z</time></trkpt><trkpt lat="42.6317078" lon="12.7298543"><ele>388.0</ele><time>2026-04-03T15:34:53.688Z</time></trkpt><trkpt lat="42.6314152" lon="12.7298874"><ele>385.0</ele><time>2026-04-03T15:34:54.687Z</time></trkpt><trkpt lat="42.6311273" lon="12.7299202"><ele>382.0</ele><time>2026-04-03T15:34:55.687Z</time></trkpt><trkpt lat="42.6308474" lon="12.7299583"><ele>379.0</ele><time>2026-04-03T15:34:56.688Z</time></trkpt><trkpt lat="42.6305695" lon="12.7300099"><ele>378.5</ele><time>2026-04-03T15:34:57.687Z</time></trkpt><trkpt lat="42.6302903" lon="12.7300749"><ele>378.0</ele><time>2026-04-03T15:34:58.688Z</time></trkpt><trkpt lat="42.6300124" lon="12.7301605"><ele>375.0</ele><time>2026-04-03T15:34:59.688Z</time></trkpt><trkpt lat="42.6297391" lon="12.7302604"><ele>372.0</ele><time>2026-04-03T15:35:00.688Z</time></trkpt><trkpt lat="42.6294641" lon="12.7303789"><ele>372.0</ele><time>2026-04-03T15:35:01.688Z</time></trkpt><trkpt lat="42.6291917" lon="12.7305003"><ele>372.0</ele><time>2026-04-03T15:35:02.688Z</time></trkpt><trkpt lat="42.628924" lon="12.7306203"><ele>372.0</ele><time>2026-04-03T15:35:03.688Z</time></trkpt><trkpt lat="42.6286699" lon="12.7307377"><ele>372.0</ele><time>2026-04-03T15:35:04.687Z</time></trkpt><trkpt lat="42.628419" lon="12.7308541"><ele>373.0</ele><time>2026-04-03T15:35:05.688Z</time></trkpt><trkpt lat="42.6281637" lon="12.7309673"><ele>374.0</ele><time>2026-04-03T15:35:06.688Z</time></trkpt><trkpt lat="42.6279079" lon="12.7310803"><ele>369.5</ele><time>2026-04-03T15:35:07.688Z</time></trkpt><trkpt lat="42.6276502" lon="12.731197"><ele>365.0</ele><time>2026-04-03T15:35:08.689Z</time></trkpt><trkpt lat="42.6273963" lon="12.7313205"><ele>365.0</ele><time>2026-04-03T15:35:09.689Z</time></trkpt><trkpt lat="42.6271381" lon="12.7314406"><ele>365.0</ele><time>2026-04-03T15:35:10.689Z</time></trkpt><trkpt lat="42.6268764" lon="12.7315597"><ele>367.0</ele><time>2026-04-03T15:35:11.689Z</time></trkpt><trkpt lat="42.6266098" lon="12.7316694"><ele>369.0</ele><time>2026-04-03T15:35:12.688Z</time></trkpt><trkpt lat="42.6263444" lon="12.7317821"><ele>363.5</ele><time>2026-04-03T15:35:13.689Z</time></trkpt><trkpt lat="42.6260801" lon="12.7318994"><ele>358.0</ele><time>2026-04-03T15:35:14.689Z</time></trkpt><trkpt lat="42.625816" lon="12.7320201"><ele>358.0</ele><time>2026-04-03T15:35:15.689Z</time></trkpt><trkpt lat="42.6255498" lon="12.7321383"><ele>358.0</ele><time>2026-04-03T15:35:16.689Z</time></trkpt><trkpt lat="42.6252821" lon="12.7322543"><ele>359.5</ele><time>2026-04-03T15:35:17.689Z</time></trkpt><trkpt lat="42.6250159" lon="12.7323649"><ele>361.0</ele><time>2026-04-03T15:35:18.688Z</time></trkpt><trkpt lat="42.6247488" lon="12.7324755"><ele>361.0</ele><time>2026-04-03T15:35:19.688Z</time></trkpt><trkpt lat="42.6244804" lon="12.7325743"><ele>361.0</ele><time>2026-04-03T15:35:20.687Z</time></trkpt><trkpt lat="42.6242111" lon="12.7326596"><ele>356.5</ele><time>2026-04-03T15:35:21.688Z</time></trkpt><trkpt lat="42.6239457" lon="12.7327274"><ele>352.0</ele><time>2026-04-03T15:35:22.688Z</time></trkpt><trkpt lat="42.6236911" lon="12.7327598"><ele>350.5</ele><time>2026-04-03T15:35:23.687Z</time></trkpt><trkpt lat="42.6234504" lon="12.7327688"><ele>349.0</ele><time>2026-04-03T15:35:24.688Z</time></trkpt><trkpt lat="42.6232204" lon="12.7327717"><ele>349.0</ele><time>2026-04-03T15:35:25.687Z</time></trkpt><trkpt lat="42.6229971" lon="12.7327653"><ele>349.0</ele><time>2026-04-03T15:35:26.688Z</time></trkpt><trkpt lat="42.622769" lon="12.7327443"><ele>355.5</ele><time>2026-04-03T15:35:27.688Z</time></trkpt><trkpt lat="42.6225318" lon="12.7327117"><ele>362.0</ele><time>2026-04-03T15:35:28.688Z</time></trkpt><trkpt lat="42.6222884" lon="12.7326702"><ele>362.0</ele><time>2026-04-03T15:35:29.687Z</time></trkpt><trkpt lat="42.6220366" lon="12.7326214"><ele>362.0</ele><time>2026-04-03T15:35:30.688Z</time></trkpt><trkpt lat="42.6217772" lon="12.7325676"><ele>357.0</ele><time>2026-04-03T15:35:31.687Z</time></trkpt><trkpt lat="42.6215141" lon="12.7325164"><ele>352.0</ele><time>2026-04-03T15:35:32.688Z</time></trkpt><trkpt lat="42.6212492" lon="12.7324657"><ele>349.0</ele><time>2026-04-03T15:35:33.688Z</time></trkpt><trkpt lat="42.6209883" lon="12.7324201"><ele>346.0</ele><time>2026-04-03T15:35:34.687Z</time></trkpt><trkpt lat="42.6207271" lon="12.7323812"><ele>346.0</ele><time>2026-04-03T15:35:35.688Z</time></trkpt><trkpt lat="42.620469" lon="12.7323564"><ele>346.0</ele><time>2026-04-03T15:35:36.687Z</time></trkpt><trkpt lat="42.6202171" lon="12.7323363"><ele>345.0</ele><time>2026-04-03T15:35:37.688Z</time></trkpt><trkpt lat="42.6199628" lon="12.7323378"><ele>344.0</ele><time>2026-04-03T15:35:38.688Z</time></trkpt><trkpt lat="42.6197065" lon="12.7323573"><ele>343.5</ele><time>2026-04-03T15:35:39.688Z</time></trkpt><trkpt lat="42.6194655" lon="12.732377"><ele>343.0</ele><time>2026-04-03T15:35:40.688Z</time></trkpt><trkpt lat="42.6192388" lon="12.7324101"><ele>343.0</ele><time>2026-04-03T15:35:41.688Z</time></trkpt><trkpt lat="42.6190204" lon="12.7324611"><ele>343.0</ele><time>2026-04-03T15:35:42.688Z</time></trkpt><trkpt lat="42.6188023" lon="12.732535"><ele>343.0</ele><time>2026-04-03T15:35:43.688Z</time></trkpt><trkpt lat="42.6185818" lon="12.7326312"><ele>340.5</ele><time>2026-04-03T15:35:44.688Z</time></trkpt><trkpt lat="42.6183657" lon="12.7327541"><ele>338.0</ele><time>2026-04-03T15:35:45.687Z</time></trkpt><trkpt lat="42.6181557" lon="12.7328958"><ele>338.0</ele><time>2026-04-03T15:35:46.688Z</time></trkpt><trkpt lat="42.6179512" lon="12.7330539"><ele>338.0</ele><time>2026-04-03T15:35:47.687Z</time></trkpt><trkpt lat="42.6177594" lon="12.7332184"><ele>338.33333333333337</ele><time>2026-04-03T15:35:48.688Z</time></trkpt><trkpt lat="42.6175762" lon="12.7333753"><ele>338.6666666666667</ele><time>2026-04-03T15:35:49.688Z</time></trkpt><trkpt lat="42.6173885" lon="12.7335387"><ele>339.0</ele><time>2026-04-03T15:35:50.688Z</time></trkpt><trkpt lat="42.6171898" lon="12.7337057"><ele>339.0</ele><time>2026-04-03T15:35:51.687Z</time></trkpt><trkpt lat="42.6169958" lon="12.7338774"><ele>339.0</ele><time>2026-04-03T15:35:52.688Z</time></trkpt><trkpt lat="42.6168025" lon="12.7340402"><ele>342.5</ele><time>2026-04-03T15:35:53.688Z</time></trkpt><trkpt lat="42.6166031" lon="12.734189"><ele>346.0</ele><time>2026-04-03T15:35:54.688Z</time></trkpt><trkpt lat="42.6163957" lon="12.7343124"><ele>345.0</ele><time>2026-04-03T15:35:55.688Z</time></trkpt><trkpt lat="42.616186" lon="12.7344092"><ele>344.0</ele><time>2026-04-03T15:35:56.687Z</time></trkpt><trkpt lat="42.6159693" lon="12.7344891"><ele>343.0</ele><time>2026-04-03T15:35:57.688Z</time></trkpt><trkpt lat="42.6157427" lon="12.7345575"><ele>339.5</ele><time>2026-04-03T15:35:58.687Z</time></trkpt><trkpt lat="42.6155043" lon="12.7346115"><ele>336.0</ele><time>2026-04-03T15:35:59.688Z</time></trkpt><trkpt lat="42.6152544" lon="12.7346583"><ele>334.5</ele><time>2026-04-03T15:36:00.688Z</time></trkpt><trkpt lat="42.6149947" lon="12.7346986"><ele>333.0</ele><time>2026-04-03T15:36:01.687Z</time></trkpt><trkpt lat="42.6147352" lon="12.7347386"><ele>331.5</ele><time>2026-04-03T15:36:02.688Z</time></trkpt><trkpt lat="42.6144842" lon="12.7347794"><ele>330.0</ele><time>2026-04-03T15:36:03.687Z</time></trkpt><trkpt lat="42.6142467" lon="12.7348182"><ele>330.0</ele><time>2026-04-03T15:36:04.688Z</time></trkpt><trkpt lat="42.6140221" lon="12.734856"><ele>330.0</ele><time>2026-04-03T15:36:05.688Z</time></trkpt><trkpt lat="42.6138041" lon="12.7348946"><ele>330.0</ele><time>2026-04-03T15:36:06.688Z</time></trkpt><trkpt lat="42.6135991" lon="12.73493"><ele>329.6666666666667</ele><time>2026-04-03T15:36:07.688Z</time></trkpt><trkpt lat="42.6134025" lon="12.7349665"><ele>329.33333333333337</ele><time>2026-04-03T15:36:08.688Z</time></trkpt><trkpt lat="42.6132001" lon="12.7350059"><ele>329.0</ele><time>2026-04-03T15:36:09.687Z</time></trkpt><trkpt lat="42.6129897" lon="12.7350424"><ele>332.0</ele><time>2026-04-03T15:36:10.688Z</time></trkpt><trkpt lat="42.6127794" lon="12.7350744"><ele>335.0</ele><time>2026-04-03T15:36:11.688Z</time></trkpt><trkpt lat="42.6125886" lon="12.7351003"><ele>338.0</ele><time>2026-04-03T15:36:12.688Z</time></trkpt><trkpt lat="42.6124101" lon="12.7351216"><ele>338.0</ele><time>2026-04-03T15:36:13.688Z</time></trkpt><trkpt lat="42.6122426" lon="12.7351442"><ele>338.0</ele><time>2026-04-03T15:36:14.687Z</time></trkpt><trkpt lat="42.6120763" lon="12.7351685"><ele>338.0</ele><time>2026-04-03T15:36:15.687Z</time></trkpt><trkpt lat="42.6119003" lon="12.7351936"><ele>338.6666666666667</ele><time>2026-04-03T15:36:16.688Z</time></trkpt><trkpt lat="42.611717" lon="12.7352195"><ele>339.3333333333333</ele><time>2026-04-03T15:36:17.688Z</time></trkpt><trkpt lat="42.6115299" lon="12.7352477"><ele>340.0</ele><time>2026-04-03T15:36:18.688Z</time></trkpt><trkpt lat="42.6113449" lon="12.7352657"><ele>337.3333333333333</ele><time>2026-04-03T15:36:19.688Z</time></trkpt><trkpt lat="42.6111679" lon="12.7352624"><ele>334.6666666666667</ele><time>2026-04-03T15:36:20.688Z</time></trkpt><trkpt lat="42.6109915" lon="12.7352273"><ele>332.0</ele><time>2026-04-03T15:36:21.688Z</time></trkpt><trkpt lat="42.6108128" lon="12.7351597"><ele>332.0</ele><time>2026-04-03T15:36:22.688Z</time></trkpt><trkpt lat="42.6106291" lon="12.7350593"><ele>332.0</ele><time>2026-04-03T15:36:23.688Z</time></trkpt><trkpt lat="42.6104357" lon="12.7349437"><ele>332.0</ele><time>2026-04-03T15:36:24.688Z</time></trkpt><trkpt lat="42.6102539" lon="12.7348249"><ele>332.6666666666667</ele><time>2026-04-03T15:36:25.687Z</time></trkpt><trkpt lat="42.6100894" lon="12.7347047"><ele>333.3333333333333</ele><time>2026-04-03T15:36:26.688Z</time></trkpt><trkpt lat="42.6099413" lon="12.7345585"><ele>334.0</ele><time>2026-04-03T15:36:27.688Z</time></trkpt><trkpt lat="42.6098146" lon="12.7343866"><ele>334.0</ele><time>2026-04-03T15:36:28.687Z</time></trkpt><trkpt lat="42.6096956" lon="12.734188"><ele>334.0</ele><time>2026-04-03T15:36:29.688Z</time></trkpt><trkpt lat="42.6095837" lon="12.7339626"><ele>334.0</ele><time>2026-04-03T15:36:30.687Z</time></trkpt><trkpt lat="42.609466" lon="12.7337131"><ele>326.0</ele><time>2026-04-03T15:36:31.688Z</time></trkpt><trkpt lat="42.6093451" lon="12.7334493"><ele>318.0</ele><time>2026-04-03T15:36:32.688Z</time></trkpt><trkpt lat="42.6092339" lon="12.7331894"><ele>318.0</ele><time>2026-04-03T15:36:33.688Z</time></trkpt><trkpt lat="42.6091209" lon="12.7329467"><ele>318.0</ele><time>2026-04-03T15:36:34.687Z</time></trkpt><trkpt lat="42.6090068" lon="12.7327172"><ele>318.0</ele><time>2026-04-03T15:36:35.688Z</time></trkpt><trkpt lat="42.6088929" lon="12.7325089"><ele>319.3333333333333</ele><time>2026-04-03T15:36:36.688Z</time></trkpt><trkpt lat="42.6087657" lon="12.7323124"><ele>320.66666666666663</ele><time>2026-04-03T15:36:37.687Z</time></trkpt><trkpt lat="42.6086221" lon="12.732118"><ele>322.0</ele><time>2026-04-03T15:36:38.688Z</time></trkpt><trkpt lat="42.6084631" lon="12.7319254"><ele>322.0</ele><time>2026-04-03T15:36:39.688Z</time></trkpt><trkpt lat="42.6082993" lon="12.7317363"><ele>322.0</ele><time>2026-04-03T15:36:40.688Z</time></trkpt><trkpt lat="42.6081306" lon="12.7315515"><ele>322.0</ele><time>2026-04-03T15:36:41.688Z</time></trkpt><trkpt lat="42.6079589" lon="12.7313732"><ele>323.0</ele><time>2026-04-03T15:36:42.687Z</time></trkpt><trkpt lat="42.607783" lon="12.7311904"><ele>324.0</ele><time>2026-04-03T15:36:43.688Z</time></trkpt><trkpt lat="42.6076048" lon="12.7310055"><ele>325.0</ele><time>2026-04-03T15:36:44.688Z</time></trkpt><trkpt lat="42.6074217" lon="12.7308183"><ele>325.0</ele><time>2026-04-03T15:36:45.687Z</time></trkpt><trkpt lat="42.6072521" lon="12.7306334"><ele>325.0</ele><time>2026-04-03T15:36:46.688Z</time></trkpt><trkpt lat="42.6070917" lon="12.7304559"><ele>325.0</ele><time>2026-04-03T15:36:47.688Z</time></trkpt><trkpt lat="42.6069385" lon="12.7302874"><ele>322.0</ele><time>2026-04-03T15:36:48.688Z</time></trkpt><trkpt lat="42.6067918" lon="12.7301217"><ele>319.0</ele><time>2026-04-03T15:36:49.688Z</time></trkpt><trkpt lat="42.6066491" lon="12.7299512"><ele>316.0</ele><time>2026-04-03T15:36:50.688Z</time></trkpt><trkpt lat="42.6065079" lon="12.7297621"><ele>316.0</ele><time>2026-04-03T15:36:51.688Z</time></trkpt><trkpt lat="42.6063662" lon="12.7295538"><ele>316.0</ele><time>2026-04-03T15:36:52.687Z</time></trkpt><trkpt lat="42.6062258" lon="12.7293271"><ele>316.0</ele><time>2026-04-03T15:36:53.688Z</time></trkpt><trkpt lat="42.6060849" lon="12.7290841"><ele>311.5</ele><time>2026-04-03T15:36:54.687Z</time></trkpt><trkpt lat="42.6059435" lon="12.7288265"><ele>307.0</ele><time>2026-04-03T15:36:55.688Z</time></trkpt><trkpt lat="42.6057937" lon="12.7285649"><ele>314.5</ele><time>2026-04-03T15:36:56.688Z</time></trkpt><trkpt lat="42.6056329" lon="12.7283048"><ele>322.0</ele><time>2026-04-03T15:36:57.688Z</time></trkpt><trkpt lat="42.6054611" lon="12.7280472"><ele>319.0</ele><time>2026-04-03T15:36:58.688Z</time></trkpt><trkpt lat="42.6052949" lon="12.7277779"><ele>316.0</ele><time>2026-04-03T15:36:59.688Z</time></trkpt><trkpt lat="42.6051401" lon="12.7274865"><ele>312.5</ele><time>2026-04-03T15:37:00.688Z</time></trkpt><trkpt lat="42.6050044" lon="12.7271772"><ele>309.0</ele><time>2026-04-03T15:37:01.687Z</time></trkpt><trkpt lat="42.6048781" lon="12.7268701"><ele>309.0</ele><time>2026-04-03T15:37:02.688Z</time></trkpt><trkpt lat="42.6047527" lon="12.7265796"><ele>309.0</ele><time>2026-04-03T15:37:03.687Z</time></trkpt><trkpt lat="42.6046128" lon="12.7263028"><ele>304.5</ele><time>2026-04-03T15:37:04.688Z</time></trkpt><trkpt lat="42.6044489" lon="12.7260448"><ele>300.0</ele><time>2026-04-03T15:37:05.688Z</time></trkpt><trkpt lat="42.6042698" lon="12.7258051"><ele>300.0</ele><time>2026-04-03T15:37:06.688Z</time></trkpt><trkpt lat="42.6040794" lon="12.7255757"><ele>300.0</ele><time>2026-04-03T15:37:07.687Z</time></trkpt><trkpt lat="42.6038856" lon="12.7253547"><ele>299.5</ele><time>2026-04-03T15:37:08.688Z</time></trkpt><trkpt lat="42.6036964" lon="12.7251451"><ele>299.0</ele><time>2026-04-03T15:37:09.687Z</time></trkpt><trkpt lat="42.6035095" lon="12.7249563"><ele>299.0</ele><time>2026-04-03T15:37:10.687Z</time></trkpt><trkpt lat="42.6033095" lon="12.7247913"><ele>299.0</ele><time>2026-04-03T15:37:11.688Z</time></trkpt><trkpt lat="42.6030968" lon="12.7246626"><ele>299.0</ele><time>2026-04-03T15:37:12.688Z</time></trkpt><trkpt lat="42.6028807" lon="12.724567"><ele>299.0</ele><time>2026-04-03T15:37:13.687Z</time></trkpt><trkpt lat="42.6026589" lon="12.7245175"><ele>296.0</ele><time>2026-04-03T15:37:14.687Z</time></trkpt><trkpt lat="42.602425" lon="12.7244939"><ele>293.0</ele><time>2026-04-03T15:37:15.688Z</time></trkpt><trkpt lat="42.6021852" lon="12.7245146"><ele>293.0</ele><time>2026-04-03T15:37:16.688Z</time></trkpt><trkpt lat="42.6019401" lon="12.724556"><ele>293.0</ele><time>2026-04-03T15:37:17.687Z</time></trkpt><trkpt lat="42.6016872" lon="12.7246094"><ele>293.0</ele><time>2026-04-03T15:37:18.687Z</time></trkpt><trkpt lat="42.6014311" lon="12.7246763"><ele>293.0</ele><time>2026-04-03T15:37:19.688Z</time></trkpt><trkpt lat="42.6011772" lon="12.7247581"><ele>296.5</ele><time>2026-04-03T15:37:20.688Z</time></trkpt><trkpt lat="42.6009235" lon="12.7248757"><ele>300.0</ele><time>2026-04-03T15:37:21.687Z</time></trkpt><trkpt lat="42.6006769" lon="12.7250176"><ele>300.0</ele><time>2026-04-03T15:37:22.688Z</time></trkpt><trkpt lat="42.6004452" lon="12.7251678"><ele>300.0</ele><time>2026-04-03T15:37:23.688Z</time></trkpt><trkpt lat="42.6002257" lon="12.7252933"><ele>295.0</ele><time>2026-04-03T15:37:24.688Z</time></trkpt><trkpt lat="42.5999997" lon="12.725393"><ele>290.0</ele><time>2026-04-03T15:37:25.688Z</time></trkpt><trkpt lat="42.5997754" lon="12.7254419"><ele>290.0</ele><time>2026-04-03T15:37:26.687Z</time></trkpt><trkpt lat="42.5995617" lon="12.7254429"><ele>290.0</ele><time>2026-04-03T15:37:27.688Z</time></trkpt><trkpt lat="42.5993482" lon="12.7254181"><ele>290.0</ele><time>2026-04-03T15:37:28.688Z</time></trkpt><trkpt lat="42.5991412" lon="12.7253492"><ele>290.6666666666667</ele><time>2026-04-03T15:37:29.688Z</time></trkpt><trkpt lat="42.5989364" lon="12.725237"><ele>291.3333333333333</ele><time>2026-04-03T15:37:30.688Z</time></trkpt><trkpt lat="42.5987429" lon="12.7250853"><ele>292.0</ele><time>2026-04-03T15:37:31.688Z</time></trkpt><trkpt lat="42.5985692" lon="12.7248917"><ele>289.5</ele><time>2026-04-03T15:37:32.687Z</time></trkpt><trkpt lat="42.5984135" lon="12.7246659"><ele>287.0</ele><time>2026-04-03T15:37:33.687Z</time></trkpt><trkpt lat="42.5982674" lon="12.7244105"><ele>292.5</ele><time>2026-04-03T15:37:34.687Z</time></trkpt><trkpt lat="42.5981179" lon="12.7241493"><ele>298.0</ele><time>2026-04-03T15:37:35.687Z</time></trkpt><trkpt lat="42.597972" lon="12.7238802"><ele>294.5</ele><time>2026-04-03T15:37:36.687Z</time></trkpt><trkpt lat="42.5978227" lon="12.7236047"><ele>291.0</ele><time>2026-04-03T15:37:37.688Z</time></trkpt><trkpt lat="42.5976774" lon="12.723343"><ele>291.3333333333333</ele><time>2026-04-03T15:37:38.688Z</time></trkpt><trkpt lat="42.59755" lon="12.7230904"><ele>291.66666666666663</ele><time>2026-04-03T15:37:39.688Z</time></trkpt><trkpt lat="42.5974301" lon="12.7228333"><ele>292.0</ele><time>2026-04-03T15:37:40.688Z</time></trkpt><trkpt lat="42.5973257" lon="12.7225558"><ele>292.0</ele><time>2026-04-03T15:37:41.688Z</time></trkpt><trkpt lat="42.597241" lon="12.7222614"><ele>292.0</ele><time>2026-04-03T15:37:42.687Z</time></trkpt><trkpt lat="42.5971815" lon="12.7219521"><ele>294.5</ele><time>2026-04-03T15:37:43.688Z</time></trkpt><trkpt lat="42.5971451" lon="12.7216273"><ele>297.0</ele><time>2026-04-03T15:37:44.688Z</time></trkpt><trkpt lat="42.5971339" lon="12.7212894"><ele>291.5</ele><time>2026-04-03T15:37:45.688Z</time></trkpt><trkpt lat="42.5971551" lon="12.7209596"><ele>286.0</ele><time>2026-04-03T15:37:46.688Z</time></trkpt><trkpt lat="42.5972228" lon="12.720666"><ele>286.0</ele><time>2026-04-03T15:37:47.688Z</time></trkpt><trkpt lat="42.5973222" lon="12.7204117"><ele>286.0</ele><time>2026-04-03T15:37:48.687Z</time></trkpt><trkpt lat="42.5974529" lon="12.7201694"><ele>286.0</ele><time>2026-04-03T15:37:49.687Z</time></trkpt><trkpt lat="42.5976005" lon="12.7199505"><ele>287.66666666666663</ele><time>2026-04-03T15:37:50.688Z</time></trkpt><trkpt lat="42.5977401" lon="12.7197366"><ele>289.3333333333333</ele><time>2026-04-03T15:37:51.688Z</time></trkpt><trkpt lat="42.5978479" lon="12.7194946"><ele>291.0</ele><time>2026-04-03T15:37:52.688Z</time></trkpt><trkpt lat="42.597924" lon="12.7192252"><ele>291.0</ele><time>2026-04-03T15:37:53.687Z</time></trkpt><trkpt lat="42.5979727" lon="12.7189352"><ele>291.0</ele><time>2026-04-03T15:37:54.688Z</time></trkpt><trkpt lat="42.597996" lon="12.7186575"><ele>291.0</ele><time>2026-04-03T15:37:55.687Z</time></trkpt><trkpt lat="42.5980162" lon="12.7183974"><ele>288.3333333333333</ele><time>2026-04-03T15:37:56.688Z</time></trkpt><trkpt lat="42.5980751" lon="12.7181655"><ele>285.66666666666663</ele><time>2026-04-03T15:37:57.688Z</time></trkpt><trkpt lat="42.5981797" lon="12.7179512"><ele>283.0</ele><time>2026-04-03T15:37:58.687Z</time></trkpt><trkpt lat="42.5983183" lon="12.7177472"><ele>279.66666666666663</ele><time>2026-04-03T15:37:59.688Z</time></trkpt><trkpt lat="42.5984764" lon="12.7175328"><ele>276.3333333333333</ele><time>2026-04-03T15:38:00.687Z</time></trkpt><trkpt lat="42.5986253" lon="12.717304"><ele>273.0</ele><time>2026-04-03T15:38:01.687Z</time></trkpt><trkpt lat="42.5987631" lon="12.7170745"><ele>275.0</ele><time>2026-04-03T15:38:02.688Z</time></trkpt><trkpt lat="42.5988937" lon="12.7168742"><ele>277.0</ele><time>2026-04-03T15:38:03.688Z</time></trkpt><trkpt lat="42.5990127" lon="12.7167005"><ele>279.0</ele><time>2026-04-03T15:38:04.687Z</time></trkpt><trkpt lat="42.5991057" lon="12.7165281"><ele>279.0</ele><time>2026-04-03T15:38:05.687Z</time></trkpt><trkpt lat="42.5991681" lon="12.7163399"><ele>279.0</ele><time>2026-04-03T15:38:06.687Z</time></trkpt><trkpt lat="42.599183" lon="12.7161462"><ele>279.0</ele><time>2026-04-03T15:38:07.688Z</time></trkpt><trkpt lat="42.5991555" lon="12.7159437"><ele>279.0</ele><time>2026-04-03T15:38:08.688Z</time></trkpt><trkpt lat="42.5990691" lon="12.7157427"><ele>278.6666666666667</ele><time>2026-04-03T15:38:09.688Z</time></trkpt><trkpt lat="42.5989582" lon="12.7155403"><ele>278.33333333333337</ele><time>2026-04-03T15:38:10.687Z</time></trkpt><trkpt lat="42.5988107" lon="12.7153312"><ele>278.0</ele><time>2026-04-03T15:38:11.688Z</time></trkpt><trkpt lat="42.5986804" lon="12.7151198"><ele>274.6666666666667</ele><time>2026-04-03T15:38:12.688Z</time></trkpt><trkpt lat="42.5985797" lon="12.7149326"><ele>271.3333333333333</ele><time>2026-04-03T15:38:13.688Z</time></trkpt><trkpt lat="42.5984956" lon="12.7147388"><ele>268.0</ele><time>2026-04-03T15:38:14.688Z</time></trkpt><trkpt lat="42.5984489" lon="12.7145406"><ele>267.3333333333333</ele><time>2026-04-03T15:38:15.688Z</time></trkpt><trkpt lat="42.598442" lon="12.7143326"><ele>266.6666666666667</ele><time>2026-04-03T15:38:16.688Z</time></trkpt><trkpt lat="42.5984729" lon="12.714119"><ele>266.0</ele><time>2026-04-03T15:38:17.688Z</time></trkpt><trkpt lat="42.5985307" lon="12.7139048"><ele>266.0</ele><time>2026-04-03T15:38:18.688Z</time></trkpt><trkpt lat="42.5985769" lon="12.7136953"><ele>266.0</ele><time>2026-04-03T15:38:19.688Z</time></trkpt><trkpt lat="42.5986052" lon="12.7135019"><ele>266.0</ele><time>2026-04-03T15:38:20.688Z</time></trkpt><trkpt lat="42.5985971" lon="12.7133275"><ele>266.0</ele><time>2026-04-03T15:38:21.688Z</time></trkpt><trkpt lat="42.5985589" lon="12.7131578"><ele>265.25</ele><time>2026-04-03T15:38:22.688Z</time></trkpt><trkpt lat="42.5984938" lon="12.7129966"><ele>264.5</ele><time>2026-04-03T15:38:23.687Z</time></trkpt><trkpt lat="42.5983936" lon="12.7128613"><ele>263.75</ele><time>2026-04-03T15:38:24.688Z</time></trkpt><trkpt lat="42.5982647" lon="12.7127598"><ele>263.0</ele><time>2026-04-03T15:38:25.687Z</time></trkpt><trkpt lat="42.5981167" lon="12.7126968"><ele>263.6666666666667</ele><time>2026-04-03T15:38:26.688Z</time></trkpt><trkpt lat="42.5979519" lon="12.7126672"><ele>264.3333333333333</ele><time>2026-04-03T15:38:27.688Z</time></trkpt><trkpt lat="42.5977876" lon="12.7126476"><ele>265.0</ele><time>2026-04-03T15:38:28.688Z</time></trkpt><trkpt lat="42.5976255" lon="12.7126305"><ele>265.0</ele><time>2026-04-03T15:38:29.688Z</time></trkpt><trkpt lat="42.5974668" lon="12.7126231"><ele>265.0</ele><time>2026-04-03T15:38:30.688Z</time></trkpt><trkpt lat="42.5973121" lon="12.7126105"><ele>265.0</ele><time>2026-04-03T15:38:31.688Z</time></trkpt><trkpt lat="42.5971652" lon="12.7125604"><ele>265.0</ele><time>2026-04-03T15:38:32.687Z</time></trkpt><trkpt lat="42.5970262" lon="12.7124732"><ele>265.0</ele><time>2026-04-03T15:38:33.687Z</time></trkpt><trkpt lat="42.5968863" lon="12.7123584"><ele>265.0</ele><time>2026-04-03T15:38:34.688Z</time></trkpt><trkpt lat="42.5967499" lon="12.7122229"><ele>267.0</ele><time>2026-04-03T15:38:35.687Z</time></trkpt><trkpt lat="42.5966253" lon="12.71209"><ele>269.0</ele><time>2026-04-03T15:38:36.688Z</time></trkpt><trkpt lat="42.5965127" lon="12.7119476"><ele>271.0</ele><time>2026-04-03T15:38:37.687Z</time></trkpt><trkpt lat="42.5963977" lon="12.7118017"><ele>271.0</ele><time>2026-04-03T15:38:38.688Z</time></trkpt><trkpt lat="42.5962752" lon="12.7116674"><ele>271.0</ele><time>2026-04-03T15:38:39.688Z</time></trkpt><trkpt lat="42.5961419" lon="12.7115614"><ele>271.0</ele><time>2026-04-03T15:38:40.688Z</time></trkpt><trkpt lat="42.5960007" lon="12.7114903"><ele>265.66666666666663</ele><time>2026-04-03T15:38:41.688Z</time></trkpt><trkpt lat="42.59586" lon="12.7114547"><ele>260.3333333333333</ele><time>2026-04-03T15:38:42.687Z</time></trkpt><trkpt lat="42.5957165" lon="12.7114535"><ele>255.0</ele><time>2026-04-03T15:38:43.687Z</time></trkpt><trkpt lat="42.5955546" lon="12.7114878"><ele>255.0</ele><time>2026-04-03T15:38:44.688Z</time></trkpt><trkpt lat="42.5953746" lon="12.7115416"><ele>255.0</ele><time>2026-04-03T15:38:45.688Z</time></trkpt><trkpt lat="42.5951865" lon="12.711605"><ele>255.0</ele><time>2026-04-03T15:38:46.688Z</time></trkpt><trkpt lat="42.5949981" lon="12.7116731"><ele>254.33333333333331</ele><time>2026-04-03T15:38:47.687Z</time></trkpt><trkpt lat="42.5948197" lon="12.7117198"><ele>253.66666666666666</ele><time>2026-04-03T15:38:48.687Z</time></trkpt><trkpt lat="42.5946455" lon="12.7117445"><ele>253.0</ele><time>2026-04-03T15:38:49.688Z</time></trkpt><trkpt lat="42.5944701" lon="12.711741"><ele>251.66666666666666</ele><time>2026-04-03T15:38:50.688Z</time></trkpt><trkpt lat="42.594295" lon="12.7117014"><ele>250.33333333333331</ele><time>2026-04-03T15:38:51.688Z</time></trkpt><trkpt lat="42.5941307" lon="12.7116338"><ele>249.0</ele><time>2026-04-03T15:38:52.687Z</time></trkpt><trkpt lat="42.5939825" lon="12.7115207"><ele>249.0</ele><time>2026-04-03T15:38:53.688Z</time></trkpt><trkpt lat="42.5938332" lon="12.7113901"><ele>249.0</ele><time>2026-04-03T15:38:54.687Z</time></trkpt><trkpt lat="42.5936739" lon="12.7112404"><ele>249.0</ele><time>2026-04-03T15:38:55.687Z</time></trkpt><trkpt lat="42.5935148" lon="12.7110938"><ele>250.33333333333331</ele><time>2026-04-03T15:38:56.688Z</time></trkpt><trkpt lat="42.5933593" lon="12.7109552"><ele>251.66666666666666</ele><time>2026-04-03T15:38:57.687Z</time></trkpt><trkpt lat="42.593201" lon="12.7108265"><ele>253.0</ele><time>2026-04-03T15:38:58.688Z</time></trkpt><trkpt lat="42.5930437" lon="12.7107139"><ele>253.0</ele><time>2026-04-03T15:38:59.688Z</time></trkpt><trkpt lat="42.5928811" lon="12.710618"><ele>253.0</ele><time>2026-04-03T15:39:00.687Z</time></trkpt><trkpt lat="42.5927133" lon="12.7105331"><ele>253.0</ele><time>2026-04-03T15:39:01.688Z</time></trkpt><trkpt lat="42.5925445" lon="12.7104502"><ele>256.0</ele><time>2026-04-03T15:39:02.688Z</time></trkpt><trkpt lat="42.5923865" lon="12.7103574"><ele>259.0</ele><time>2026-04-03T15:39:03.688Z</time></trkpt><trkpt lat="42.5922409" lon="12.7102478"><ele>262.0</ele><time>2026-04-03T15:39:04.688Z</time></trkpt><trkpt lat="42.5920907" lon="12.710107"><ele>252.33333333333331</ele><time>2026-04-03T15:39:05.688Z</time></trkpt><trkpt lat="42.5919637" lon="12.7099292"><ele>242.66666666666669</ele><time>2026-04-03T15:39:06.688Z</time></trkpt><trkpt lat="42.5918387" lon="12.7097332"><ele>233.0</ele><time>2026-04-03T15:39:07.688Z</time></trkpt><trkpt lat="42.5917102" lon="12.7095527"><ele>239.0</ele><time>2026-04-03T15:39:08.687Z</time></trkpt><trkpt lat="42.5915696" lon="12.7093974"><ele>245.0</ele><time>2026-04-03T15:39:09.688Z</time></trkpt><trkpt lat="42.5914136" lon="12.7092688"><ele>251.0</ele><time>2026-04-03T15:39:10.687Z</time></trkpt><trkpt lat="42.5912502" lon="12.7091692"><ele>245.66666666666669</ele><time>2026-04-03T15:39:11.687Z</time></trkpt><trkpt lat="42.5910818" lon="12.7090899"><ele>240.33333333333331</ele><time>2026-04-03T15:39:12.687Z</time></trkpt><trkpt lat="42.5909162" lon="12.7090155"><ele>235.0</ele><time>2026-04-03T15:39:13.687Z</time></trkpt><trkpt lat="42.5907576" lon="12.7089309"><ele>235.0</ele><time>2026-04-03T15:39:14.688Z</time></trkpt><trkpt lat="42.5906061" lon="12.7088232"><ele>235.0</ele><time>2026-04-03T15:39:15.687Z</time></trkpt><trkpt lat="42.5904576" lon="12.7086996"><ele>235.0</ele><time>2026-04-03T15:39:16.687Z</time></trkpt><trkpt lat="42.5903223" lon="12.7085656"><ele>235.33333333333331</ele><time>2026-04-03T15:39:17.688Z</time></trkpt><trkpt lat="42.5901993" lon="12.7084273"><ele>235.66666666666669</ele><time>2026-04-03T15:39:18.688Z</time></trkpt><trkpt lat="42.5900862" lon="12.7082723"><ele>236.0</ele><time>2026-04-03T15:39:19.688Z</time></trkpt><trkpt lat="42.5899724" lon="12.7081065"><ele>236.0</ele><time>2026-04-03T15:39:20.688Z</time></trkpt><trkpt lat="42.5898571" lon="12.7079461"><ele>236.0</ele><time>2026-04-03T15:39:21.687Z</time></trkpt><trkpt lat="42.5897311" lon="12.7078085"><ele>236.0</ele><time>2026-04-03T15:39:22.687Z</time></trkpt><trkpt lat="42.5895918" lon="12.707696"><ele>235.0</ele><time>2026-04-03T15:39:23.688Z</time></trkpt><trkpt lat="42.5894399" lon="12.7076013"><ele>234.0</ele><time>2026-04-03T15:39:24.687Z</time></trkpt><trkpt lat="42.5892626" lon="12.707496"><ele>233.0</ele><time>2026-04-03T15:39:25.688Z</time></trkpt><trkpt lat="42.5890699" lon="12.7073737"><ele>233.0</ele><time>2026-04-03T15:39:26.687Z</time></trkpt><trkpt lat="42.5888651" lon="12.7072474"><ele>233.0</ele><time>2026-04-03T15:39:27.688Z</time></trkpt><trkpt lat="42.5886724" lon="12.7071281"><ele>233.0</ele><time>2026-04-03T15:39:28.688Z</time></trkpt><trkpt lat="42.5884901" lon="12.7070256"><ele>234.0</ele><time>2026-04-03T15:39:29.688Z</time></trkpt><trkpt lat="42.5883162" lon="12.7069399"><ele>235.0</ele><time>2026-04-03T15:39:30.687Z</time></trkpt><trkpt lat="42.5881682" lon="12.7068561"><ele>236.0</ele><time>2026-04-03T15:39:31.687Z</time></trkpt><trkpt lat="42.5880422" lon="12.7067572"><ele>236.0</ele><time>2026-04-03T15:39:32.687Z</time></trkpt><trkpt lat="42.5879345" lon="12.7066317"><ele>236.0</ele><time>2026-04-03T15:39:33.687Z</time></trkpt><trkpt lat="42.5878257" lon="12.7064901"><ele>236.0</ele><time>2026-04-03T15:39:34.688Z</time></trkpt><trkpt lat="42.5877296" lon="12.7063434"><ele>236.0</ele><time>2026-04-03T15:39:35.688Z</time></trkpt><trkpt lat="42.5876272" lon="12.7061992"><ele>234.0</ele><time>2026-04-03T15:39:36.688Z</time></trkpt><trkpt lat="42.5875311" lon="12.7060389"><ele>232.0</ele><time>2026-04-03T15:39:37.687Z</time></trkpt><trkpt lat="42.5874323" lon="12.7058797"><ele>230.0</ele><time>2026-04-03T15:39:38.687Z</time></trkpt><trkpt lat="42.5873287" lon="12.7057173"><ele>230.0</ele><time>2026-04-03T15:39:39.687Z</time></trkpt><trkpt lat="42.5871997" lon="12.7055418"><ele>230.0</ele><time>2026-04-03T15:39:40.687Z</time></trkpt><trkpt lat="42.5870689" lon="12.7053569"><ele>230.0</ele><time>2026-04-03T15:39:41.687Z</time></trkpt><trkpt lat="42.5869394" lon="12.7051872"><ele>229.66666666666669</ele><time>2026-04-03T15:39:42.687Z</time></trkpt><trkpt lat="42.5868096" lon="12.7050381"><ele>229.33333333333331</ele><time>2026-04-03T15:39:43.688Z</time></trkpt><trkpt lat="42.5866802" lon="12.704897"><ele>229.0</ele><time>2026-04-03T15:39:44.687Z</time></trkpt><trkpt lat="42.5865571" lon="12.7047489"><ele>229.0</ele><time>2026-04-03T15:39:45.687Z</time></trkpt><trkpt lat="42.5864594" lon="12.7045811"><ele>229.0</ele><time>2026-04-03T15:39:46.687Z</time></trkpt><trkpt lat="42.586377" lon="12.7044043"><ele>229.0</ele><time>2026-04-03T15:39:47.688Z</time></trkpt><trkpt lat="42.5862915" lon="12.7042422"><ele>227.0</ele><time>2026-04-03T15:39:48.688Z</time></trkpt><trkpt lat="42.5861978" lon="12.7041092"><ele>225.0</ele><time>2026-04-03T15:39:49.688Z</time></trkpt><trkpt lat="42.5860874" lon="12.7039979"><ele>223.0</ele><time>2026-04-03T15:39:50.688Z</time></trkpt><trkpt lat="42.5859691" lon="12.7038965"><ele>221.0</ele><time>2026-04-03T15:39:51.687Z</time></trkpt><trkpt lat="42.5858506" lon="12.7037982"><ele>221.0</ele><time>2026-04-03T15:39:52.688Z</time></trkpt><trkpt lat="42.5857349" lon="12.7036752"><ele>221.0</ele><time>2026-04-03T15:39:53.687Z</time></trkpt><trkpt lat="42.5856238" lon="12.7035347"><ele>221.0</ele><time>2026-04-03T15:39:54.687Z</time></trkpt><trkpt lat="42.5855209" lon="12.7033924"><ele>221.0</ele><time>2026-04-03T15:39:55.687Z</time></trkpt><trkpt lat="42.5854304" lon="12.703238"><ele>219.33333333333334</ele><time>2026-04-03T15:39:56.688Z</time></trkpt><trkpt lat="42.5853402" lon="12.7030652"><ele>217.66666666666669</ele><time>2026-04-03T15:39:57.688Z</time></trkpt><trkpt lat="42.5852645" lon="12.7028627"><ele>216.0</ele><time>2026-04-03T15:39:58.687Z</time></trkpt><trkpt lat="42.5851935" lon="12.7026411"><ele>216.0</ele><time>2026-04-03T15:39:59.688Z</time></trkpt><trkpt lat="42.5851147" lon="12.7023925"><ele>216.0</ele><time>2026-04-03T15:40:00.688Z</time></trkpt><trkpt lat="42.5850366" lon="12.7021393"><ele>216.0</ele><time>2026-04-03T15:40:01.688Z</time></trkpt><trkpt lat="42.5849591" lon="12.7019031"><ele>218.66666666666669</ele><time>2026-04-03T15:40:02.688Z</time></trkpt><trkpt lat="42.5848764" lon="12.7016733"><ele>221.33333333333334</ele><time>2026-04-03T15:40:03.687Z</time></trkpt><trkpt lat="42.5847922" lon="12.7014463"><ele>224.0</ele><time>2026-04-03T15:40:04.688Z</time></trkpt><trkpt lat="42.5847126" lon="12.7012337"><ele>226.25</ele><time>2026-04-03T15:40:05.687Z</time></trkpt><trkpt lat="42.5846381" lon="12.7010371"><ele>228.5</ele><time>2026-04-03T15:40:06.688Z</time></trkpt><trkpt lat="42.5845695" lon="12.7008585"><ele>230.75</ele><time>2026-04-03T15:40:07.688Z</time></trkpt><trkpt lat="42.5845041" lon="12.7006952"><ele>233.0</ele><time>2026-04-03T15:40:08.688Z</time></trkpt><trkpt lat="42.5844451" lon="12.7005754"><ele>228.50000000000003</ele><time>2026-04-03T15:40:09.688Z</time></trkpt><trkpt lat="42.5843938" lon="12.7004828"><ele>224.0</ele><time>2026-04-03T15:40:10.688Z</time></trkpt><trkpt lat="42.5843516" lon="12.7004076"><ele>219.5</ele><time>2026-04-03T15:40:11.687Z</time></trkpt><trkpt lat="42.5843172" lon="12.7003276"><ele>215.0</ele><time>2026-04-03T15:40:12.688Z</time></trkpt><trkpt lat="42.5842856" lon="12.7001776"><ele>210.50000000000003</ele><time>2026-04-03T15:40:14.687Z</time></trkpt><trkpt lat="42.5842677" lon="12.7000827"><ele>206.0</ele><time>2026-04-03T15:40:15.688Z</time></trkpt><trkpt lat="42.5842418" lon="12.6999972"><ele>206.0</ele><time>2026-04-03T15:40:16.688Z</time></trkpt><trkpt lat="42.584164" lon="12.6998429"><ele>206.0</ele><time>2026-04-03T15:40:18.687Z</time></trkpt><trkpt lat="42.5841151" lon="12.6997339"><ele>206.0</ele><time>2026-04-03T15:40:19.688Z</time></trkpt><trkpt lat="42.5840718" lon="12.6995863"><ele>206.0</ele><time>2026-04-03T15:40:20.688Z</time></trkpt><trkpt lat="42.5840379" lon="12.6994244"><ele>208.0</ele><time>2026-04-03T15:40:21.688Z</time></trkpt><trkpt lat="42.5839959" lon="12.6992259"><ele>210.0</ele><time>2026-04-03T15:40:22.687Z</time></trkpt><trkpt lat="42.5839486" lon="12.6990274"><ele>212.0</ele><time>2026-04-03T15:40:23.688Z</time></trkpt><trkpt lat="42.5838853" lon="12.6988447"><ele>212.0</ele><time>2026-04-03T15:40:24.688Z</time></trkpt><trkpt lat="42.5838005" lon="12.6986791"><ele>212.0</ele><time>2026-04-03T15:40:25.688Z</time></trkpt><trkpt lat="42.5837148" lon="12.6985175"><ele>212.0</ele><time>2026-04-03T15:40:26.687Z</time></trkpt><trkpt lat="42.5836235" lon="12.6983414"><ele>208.33333333333334</ele><time>2026-04-03T15:40:27.688Z</time></trkpt><trkpt lat="42.5835296" lon="12.6981552"><ele>204.66666666666669</ele><time>2026-04-03T15:40:28.688Z</time></trkpt><trkpt lat="42.5834433" lon="12.6979579"><ele>201.0</ele><time>2026-04-03T15:40:29.687Z</time></trkpt><trkpt lat="42.5833575" lon="12.6977636"><ele>203.0</ele><time>2026-04-03T15:40:30.688Z</time></trkpt><trkpt lat="42.5832684" lon="12.6975734"><ele>205.0</ele><time>2026-04-03T15:40:31.688Z</time></trkpt><trkpt lat="42.5831792" lon="12.6973735"><ele>207.0</ele><time>2026-04-03T15:40:32.688Z</time></trkpt><trkpt lat="42.5830762" lon="12.6971601"><ele>207.0</ele><time>2026-04-03T15:40:33.688Z</time></trkpt><trkpt lat="42.5829727" lon="12.6969339"><ele>207.0</ele><time>2026-04-03T15:40:34.688Z</time></trkpt><trkpt lat="42.5828663" lon="12.6966929"><ele>207.0</ele><time>2026-04-03T15:40:35.688Z</time></trkpt><trkpt lat="42.5827546" lon="12.6964396"><ele>205.0</ele><time>2026-04-03T15:40:36.688Z</time></trkpt><trkpt lat="42.5826354" lon="12.6961759"><ele>203.0</ele><time>2026-04-03T15:40:37.688Z</time></trkpt><trkpt lat="42.5825184" lon="12.695906"><ele>203.0</ele><time>2026-04-03T15:40:38.687Z</time></trkpt><trkpt lat="42.5823993" lon="12.6956341"><ele>203.0</ele><time>2026-04-03T15:40:39.688Z</time></trkpt><trkpt lat="42.582283" lon="12.695359"><ele>204.0</ele><time>2026-04-03T15:40:40.688Z</time></trkpt><trkpt lat="42.5821658" lon="12.6950885"><ele>205.0</ele><time>2026-04-03T15:40:41.687Z</time></trkpt><trkpt lat="42.5820491" lon="12.6948331"><ele>202.66666666666666</ele><time>2026-04-03T15:40:42.688Z</time></trkpt><trkpt lat="42.5819376" lon="12.6945866"><ele>200.33333333333331</ele><time>2026-04-03T15:40:43.688Z</time></trkpt><trkpt lat="42.5818271" lon="12.6943457"><ele>198.0</ele><time>2026-04-03T15:40:44.688Z</time></trkpt><trkpt lat="42.581716" lon="12.6940991"><ele>198.0</ele><time>2026-04-03T15:40:45.687Z</time></trkpt><trkpt lat="42.5816006" lon="12.6938365"><ele>198.0</ele><time>2026-04-03T15:40:46.688Z</time></trkpt><trkpt lat="42.5814898" lon="12.6935725"><ele>198.0</ele><time>2026-04-03T15:40:47.688Z</time></trkpt><trkpt lat="42.5813856" lon="12.6933273"><ele>199.33333333333331</ele><time>2026-04-03T15:40:48.688Z</time></trkpt><trkpt lat="42.5812888" lon="12.6931113"><ele>200.66666666666666</ele><time>2026-04-03T15:40:49.688Z</time></trkpt><trkpt lat="42.5811992" lon="12.6929168"><ele>202.0</ele><time>2026-04-03T15:40:50.688Z</time></trkpt><trkpt lat="42.5811082" lon="12.692714"><ele>198.66666666666666</ele><time>2026-04-03T15:40:51.687Z</time></trkpt><trkpt lat="42.5810122" lon="12.6924957"><ele>195.33333333333331</ele><time>2026-04-03T15:40:52.687Z</time></trkpt><trkpt lat="42.5809132" lon="12.6922674"><ele>192.0</ele><time>2026-04-03T15:40:53.688Z</time></trkpt><trkpt lat="42.5808134" lon="12.6920282"><ele>193.33333333333331</ele><time>2026-04-03T15:40:54.687Z</time></trkpt><trkpt lat="42.5807118" lon="12.6917853"><ele>194.66666666666666</ele><time>2026-04-03T15:40:55.688Z</time></trkpt><trkpt lat="42.5806209" lon="12.6915201"><ele>196.0</ele><time>2026-04-03T15:40:56.688Z</time></trkpt><trkpt lat="42.5805375" lon="12.691241"><ele>196.5</ele><time>2026-04-03T15:40:57.687Z</time></trkpt><trkpt lat="42.5804595" lon="12.6909509"><ele>197.0</ele><time>2026-04-03T15:40:58.688Z</time></trkpt><trkpt lat="42.5803847" lon="12.6906539"><ele>194.5</ele><time>2026-04-03T15:40:59.688Z</time></trkpt><trkpt lat="42.5803174" lon="12.690355"><ele>192.0</ele><time>2026-04-03T15:41:00.687Z</time></trkpt><trkpt lat="42.5802543" lon="12.6900552"><ele>192.0</ele><time>2026-04-03T15:41:01.688Z</time></trkpt><trkpt lat="42.5801979" lon="12.6897511"><ele>192.0</ele><time>2026-04-03T15:41:02.688Z</time></trkpt><trkpt lat="42.5801495" lon="12.6894415"><ele>193.0</ele><time>2026-04-03T15:41:03.687Z</time></trkpt><trkpt lat="42.580107" lon="12.6891331"><ele>194.0</ele><time>2026-04-03T15:41:04.687Z</time></trkpt><trkpt lat="42.5800736" lon="12.6888223"><ele>194.0</ele><time>2026-04-03T15:41:05.688Z</time></trkpt><trkpt lat="42.5800482" lon="12.6885109"><ele>194.0</ele><time>2026-04-03T15:41:06.688Z</time></trkpt><trkpt lat="42.5800276" lon="12.6881926"><ele>194.0</ele><time>2026-04-03T15:41:07.688Z</time></trkpt><trkpt lat="42.5800163" lon="12.6878711"><ele>194.0</ele><time>2026-04-03T15:41:08.687Z</time></trkpt><trkpt lat="42.5800159" lon="12.6875478"><ele>194.5</ele><time>2026-04-03T15:41:09.687Z</time></trkpt><trkpt lat="42.5800201" lon="12.6872283"><ele>195.0</ele><time>2026-04-03T15:41:10.687Z</time></trkpt><trkpt lat="42.5800378" lon="12.6869244"><ele>195.33333333333331</ele><time>2026-04-03T15:41:11.687Z</time></trkpt><trkpt lat="42.5800558" lon="12.6866345"><ele>195.66666666666666</ele><time>2026-04-03T15:41:12.687Z</time></trkpt><trkpt lat="42.5800808" lon="12.6863493"><ele>196.0</ele><time>2026-04-03T15:41:13.688Z</time></trkpt><trkpt lat="42.5801124" lon="12.6860726"><ele>196.0</ele><time>2026-04-03T15:41:14.687Z</time></trkpt><trkpt lat="42.5801513" lon="12.6858141"><ele>196.0</ele><time>2026-04-03T15:41:15.687Z</time></trkpt><trkpt lat="42.5801933" lon="12.6855729"><ele>196.0</ele><time>2026-04-03T15:41:16.687Z</time></trkpt><trkpt lat="42.580241" lon="12.6853426"><ele>196.66666666666666</ele><time>2026-04-03T15:41:17.687Z</time></trkpt><trkpt lat="42.5802971" lon="12.6851238"><ele>197.33333333333331</ele><time>2026-04-03T15:41:18.688Z</time></trkpt><trkpt lat="42.5803497" lon="12.684921"><ele>198.0</ele><time>2026-04-03T15:41:19.688Z</time></trkpt><trkpt lat="42.580402" lon="12.6847398"><ele>198.0</ele><time>2026-04-03T15:41:20.688Z</time></trkpt><trkpt lat="42.5804635" lon="12.6845683"><ele>198.0</ele><time>2026-04-03T15:41:21.688Z</time></trkpt><trkpt lat="42.580538" lon="12.6844197"><ele>198.0</ele><time>2026-04-03T15:41:22.688Z</time></trkpt><trkpt lat="42.5806241" lon="12.6842901"><ele>198.0</ele><time>2026-04-03T15:41:23.687Z</time></trkpt><trkpt lat="42.5807167" lon="12.684185"><ele>194.66666666666666</ele><time>2026-04-03T15:41:24.687Z</time></trkpt><trkpt lat="42.5808346" lon="12.6840894"><ele>191.33333333333331</ele><time>2026-04-03T15:41:25.688Z</time></trkpt><trkpt lat="42.5809741" lon="12.684007"><ele>188.0</ele><time>2026-04-03T15:41:26.688Z</time></trkpt><trkpt lat="42.5811376" lon="12.6839281"><ele>190.66666666666666</ele><time>2026-04-03T15:41:27.687Z</time></trkpt><trkpt lat="42.5813082" lon="12.6838467"><ele>193.33333333333331</ele><time>2026-04-03T15:41:28.688Z</time></trkpt><trkpt lat="42.5814649" lon="12.6837669"><ele>196.0</ele><time>2026-04-03T15:41:29.687Z</time></trkpt><trkpt lat="42.5816057" lon="12.6836742"><ele>194.0</ele><time>2026-04-03T15:41:30.688Z</time></trkpt><trkpt lat="42.5817096" lon="12.6835674"><ele>192.0</ele><time>2026-04-03T15:41:31.688Z</time></trkpt><trkpt lat="42.5817966" lon="12.6834366"><ele>190.0</ele><time>2026-04-03T15:41:32.688Z</time></trkpt><trkpt lat="42.5818556" lon="12.6832602"><ele>188.0</ele><time>2026-04-03T15:41:33.688Z</time></trkpt><trkpt lat="42.5818716" lon="12.6830754"><ele>188.0</ele><time>2026-04-03T15:41:34.688Z</time></trkpt><trkpt lat="42.5818448" lon="12.6828765"><ele>188.0</ele><time>2026-04-03T15:41:35.688Z</time></trkpt><trkpt lat="42.5817725" lon="12.6826799"><ele>188.0</ele><time>2026-04-03T15:41:36.688Z</time></trkpt><trkpt lat="42.5816434" lon="12.6825057"><ele>187.0</ele><time>2026-04-03T15:41:37.687Z</time></trkpt><trkpt lat="42.5814773" lon="12.6823419"><ele>186.0</ele><time>2026-04-03T15:41:38.688Z</time></trkpt><trkpt lat="42.5813002" lon="12.6821658"><ele>185.0</ele><time>2026-04-03T15:41:39.687Z</time></trkpt><trkpt lat="42.5811041" lon="12.6819891"><ele>181.66666666666666</ele><time>2026-04-03T15:41:40.687Z</time></trkpt><trkpt lat="42.5809204" lon="12.6818178"><ele>178.33333333333334</ele><time>2026-04-03T15:41:41.688Z</time></trkpt><trkpt lat="42.5807411" lon="12.6816448"><ele>175.0</ele><time>2026-04-03T15:41:42.688Z</time></trkpt><trkpt lat="42.5805606" lon="12.6814784"><ele>175.0</ele><time>2026-04-03T15:41:43.688Z</time></trkpt><trkpt lat="42.5803706" lon="12.6813124"><ele>175.0</ele><time>2026-04-03T15:41:44.687Z</time></trkpt><trkpt lat="42.5801704" lon="12.6811569"><ele>172.0</ele><time>2026-04-03T15:41:45.688Z</time></trkpt><trkpt lat="42.5799626" lon="12.6810167"><ele>169.0</ele><time>2026-04-03T15:41:46.687Z</time></trkpt><trkpt lat="42.5797426" lon="12.680905"><ele>167.5</ele><time>2026-04-03T15:41:47.688Z</time></trkpt><trkpt lat="42.579515" lon="12.6808159"><ele>166.0</ele><time>2026-04-03T15:41:48.688Z</time></trkpt><trkpt lat="42.5792846" lon="12.68074"><ele>166.0</ele><time>2026-04-03T15:41:49.688Z</time></trkpt><trkpt lat="42.5790534" lon="12.6806856"><ele>166.0</ele><time>2026-04-03T15:41:50.688Z</time></trkpt><trkpt lat="42.5788169" lon="12.6806513"><ele>165.0</ele><time>2026-04-03T15:41:51.687Z</time></trkpt><trkpt lat="42.578581" lon="12.6806434"><ele>164.0</ele><time>2026-04-03T15:41:52.687Z</time></trkpt><trkpt lat="42.5783546" lon="12.6806557"><ele>164.0</ele><time>2026-04-03T15:41:53.688Z</time></trkpt><trkpt lat="42.5781464" lon="12.680692"><ele>164.0</ele><time>2026-04-03T15:41:54.688Z</time></trkpt><trkpt lat="42.5779592" lon="12.6807391"><ele>164.0</ele><time>2026-04-03T15:41:55.688Z</time></trkpt><trkpt lat="42.5777885" lon="12.6807963"><ele>163.66666666666666</ele><time>2026-04-03T15:41:56.688Z</time></trkpt><trkpt lat="42.5776214" lon="12.6808637"><ele>163.33333333333334</ele><time>2026-04-03T15:41:57.687Z</time></trkpt><trkpt lat="42.5774633" lon="12.6809433"><ele>163.0</ele><time>2026-04-03T15:41:58.688Z</time></trkpt><trkpt lat="42.5773046" lon="12.6810391"><ele>163.0</ele><time>2026-04-03T15:41:59.687Z</time></trkpt><trkpt lat="42.5771482" lon="12.6811489"><ele>163.0</ele><time>2026-04-03T15:42:00.688Z</time></trkpt><trkpt lat="42.5769953" lon="12.6812743"><ele>163.0</ele><time>2026-04-03T15:42:01.687Z</time></trkpt><trkpt lat="42.5768397" lon="12.6814101"><ele>163.0</ele><time>2026-04-03T15:42:02.688Z</time></trkpt><trkpt lat="42.5766893" lon="12.6815661"><ele>163.0</ele><time>2026-04-03T15:42:03.688Z</time></trkpt><trkpt lat="42.5765496" lon="12.6817409"><ele>163.0</ele><time>2026-04-03T15:42:04.688Z</time></trkpt><trkpt lat="42.5764224" lon="12.6819164"><ele>163.33333333333334</ele><time>2026-04-03T15:42:05.687Z</time></trkpt><trkpt lat="42.5762993" lon="12.6820881"><ele>163.66666666666666</ele><time>2026-04-03T15:42:06.688Z</time></trkpt><trkpt lat="42.5761743" lon="12.6822719"><ele>164.0</ele><time>2026-04-03T15:42:07.688Z</time></trkpt><trkpt lat="42.5760401" lon="12.6824756"><ele>163.66666666666666</ele><time>2026-04-03T15:42:08.688Z</time></trkpt><trkpt lat="42.5758951" lon="12.6826898"><ele>163.33333333333334</ele><time>2026-04-03T15:42:09.688Z</time></trkpt><trkpt lat="42.5757457" lon="12.6829089"><ele>163.0</ele><time>2026-04-03T15:42:10.687Z</time></trkpt><trkpt lat="42.5755915" lon="12.683131"><ele>163.0</ele><time>2026-04-03T15:42:11.687Z</time></trkpt><trkpt lat="42.5754352" lon="12.6833583"><ele>163.0</ele><time>2026-04-03T15:42:12.687Z</time></trkpt><trkpt lat="42.5752811" lon="12.6835903"><ele>164.0</ele><time>2026-04-03T15:42:13.688Z</time></trkpt><trkpt lat="42.5751269" lon="12.6838205"><ele>165.0</ele><time>2026-04-03T15:42:14.688Z</time></trkpt><trkpt lat="42.5749665" lon="12.6840524"><ele>165.0</ele><time>2026-04-03T15:42:15.688Z</time></trkpt><trkpt lat="42.5748044" lon="12.6842886"><ele>165.0</ele><time>2026-04-03T15:42:16.688Z</time></trkpt><trkpt lat="42.5746399" lon="12.6845302"><ele>167.5</ele><time>2026-04-03T15:42:17.688Z</time></trkpt><trkpt lat="42.574478" lon="12.6847709"><ele>170.0</ele><time>2026-04-03T15:42:18.687Z</time></trkpt><trkpt lat="42.5743128" lon="12.6850083"><ele>170.0</ele><time>2026-04-03T15:42:19.688Z</time></trkpt><trkpt lat="42.5741465" lon="12.6852469"><ele>170.0</ele><time>2026-04-03T15:42:20.688Z</time></trkpt><trkpt lat="42.573975" lon="12.6854863"><ele>219.0</ele><time>2026-04-03T15:42:21.688Z</time></trkpt><trkpt lat="42.5604449" lon="12.689246"><ele>218.0</ele><time>2026-04-03T15:43:28.688Z</time></trkpt><trkpt lat="42.5602524" lon="12.6893213"><ele>217.0</ele><time>2026-04-03T15:43:29.688Z</time></trkpt><trkpt lat="42.5600582" lon="12.6894113"><ele>216.0</ele><time>2026-04-03T15:43:30.687Z</time></trkpt><trkpt lat="42.5598679" lon="12.6895031"><ele>218.0</ele><time>2026-04-03T15:43:31.688Z</time></trkpt><trkpt lat="42.5596725" lon="12.6896075"><ele>220.0</ele><time>2026-04-03T15:43:32.688Z</time></trkpt><trkpt lat="42.5594769" lon="12.6897177"><ele>222.0</ele><time>2026-04-03T15:43:33.688Z</time></trkpt><trkpt lat="42.5592689" lon="12.689843"><ele>222.0</ele><time>2026-04-03T15:43:34.688Z</time></trkpt><trkpt lat="42.5590526" lon="12.6899824"><ele>222.0</ele><time>2026-04-03T15:43:35.688Z</time></trkpt><trkpt lat="42.5588352" lon="12.6901275"><ele>223.5</ele><time>2026-04-03T15:43:36.688Z</time></trkpt><trkpt lat="42.5586123" lon="12.6902825"><ele>225.0</ele><time>2026-04-03T15:43:37.687Z</time></trkpt><trkpt lat="42.5583926" lon="12.6904488"><ele>225.0</ele><time>2026-04-03T15:43:38.687Z</time></trkpt><trkpt lat="42.5581783" lon="12.6906185"><ele>225.0</ele><time>2026-04-03T15:43:39.688Z</time></trkpt><trkpt lat="42.557971" lon="12.6907914"><ele>225.0</ele><time>2026-04-03T15:43:40.688Z</time></trkpt><trkpt lat="42.5577788" lon="12.6909679"><ele>225.0</ele><time>2026-04-03T15:43:41.688Z</time></trkpt><trkpt lat="42.5575999" lon="12.6911542"><ele>227.0</ele><time>2026-04-03T15:43:42.687Z</time></trkpt><trkpt lat="42.5574216" lon="12.6913601"><ele>229.0</ele><time>2026-04-03T15:43:43.688Z</time></trkpt><trkpt lat="42.5572479" lon="12.691579"><ele>229.0</ele><time>2026-04-03T15:43:44.688Z</time></trkpt><trkpt lat="42.5570809" lon="12.691813"><ele>229.0</ele><time>2026-04-03T15:43:45.688Z</time></trkpt><trkpt lat="42.5569264" lon="12.6920551"><ele>229.66666666666666</ele><time>2026-04-03T15:43:46.687Z</time></trkpt><trkpt lat="42.5567853" lon="12.6922988"><ele>230.33333333333331</ele><time>2026-04-03T15:43:47.688Z</time></trkpt><trkpt lat="42.5566583" lon="12.6925374"><ele>231.0</ele><time>2026-04-03T15:43:48.687Z</time></trkpt><trkpt lat="42.5565485" lon="12.6927754"><ele>234.0</ele><time>2026-04-03T15:43:49.688Z</time></trkpt><trkpt lat="42.5564445" lon="12.6930166"><ele>237.0</ele><time>2026-04-03T15:43:50.688Z</time></trkpt><trkpt lat="42.5563526" lon="12.6932654"><ele>240.0</ele><time>2026-04-03T15:43:51.687Z</time></trkpt><trkpt lat="42.5562685" lon="12.693535"><ele>236.5</ele><time>2026-04-03T15:43:52.688Z</time></trkpt><trkpt lat="42.5561843" lon="12.6938198"><ele>233.0</ele><time>2026-04-03T15:43:53.688Z</time></trkpt><trkpt lat="42.5560935" lon="12.6941163"><ele>233.0</ele><time>2026-04-03T15:43:54.688Z</time></trkpt><trkpt lat="42.5560024" lon="12.6944127"><ele>233.0</ele><time>2026-04-03T15:43:55.688Z</time></trkpt><trkpt lat="42.5559072" lon="12.69473"><ele>234.5</ele><time>2026-04-03T15:43:56.687Z</time></trkpt><trkpt lat="42.5558115" lon="12.6950513"><ele>236.0</ele><time>2026-04-03T15:43:57.687Z</time></trkpt><trkpt lat="42.5557119" lon="12.6953742"><ele>239.5</ele><time>2026-04-03T15:43:58.688Z</time></trkpt><trkpt lat="42.5556082" lon="12.695693"><ele>243.0</ele><time>2026-04-03T15:43:59.687Z</time></trkpt><trkpt lat="42.5554963" lon="12.6960084"><ele>240.0</ele><time>2026-04-03T15:44:00.687Z</time></trkpt><trkpt lat="42.55538" lon="12.696319"><ele>237.0</ele><time>2026-04-03T15:44:01.688Z</time></trkpt><trkpt lat="42.5552625" lon="12.6966229"><ele>243.0</ele><time>2026-04-03T15:44:02.688Z</time></trkpt><trkpt lat="42.5551359" lon="12.6969219"><ele>249.0</ele><time>2026-04-03T15:44:03.688Z</time></trkpt><trkpt lat="42.5550071" lon="12.6972131"><ele>249.0</ele><time>2026-04-03T15:44:04.688Z</time></trkpt><trkpt lat="42.554873" lon="12.6974876"><ele>249.0</ele><time>2026-04-03T15:44:05.688Z</time></trkpt><trkpt lat="42.5547343" lon="12.6977613"><ele>260.0</ele><time>2026-04-03T15:44:06.687Z</time></trkpt><trkpt lat="42.5545977" lon="12.698029"><ele>271.0</ele><time>2026-04-03T15:44:07.688Z</time></trkpt><trkpt lat="42.5544532" lon="12.6982754"><ele>260.0</ele><time>2026-04-03T15:44:08.687Z</time></trkpt><trkpt lat="42.5543251" lon="12.6984995"><ele>249.0</ele><time>2026-04-03T15:44:09.687Z</time></trkpt><trkpt lat="42.5542068" lon="12.6987291"><ele>238.0</ele><time>2026-04-03T15:44:10.688Z</time></trkpt><trkpt lat="42.5540624" lon="12.6989686"><ele>238.0</ele><time>2026-04-03T15:44:11.688Z</time></trkpt><trkpt lat="42.5539221" lon="12.6991956"><ele>238.0</ele><time>2026-04-03T15:44:12.687Z</time></trkpt><trkpt lat="42.5537805" lon="12.6994063"><ele>238.0</ele><time>2026-04-03T15:44:13.688Z</time></trkpt><trkpt lat="42.5536374" lon="12.6996285"><ele>213.5</ele><time>2026-04-03T15:44:14.687Z</time></trkpt><trkpt lat="42.5534981" lon="12.6998626"><ele>189.0</ele><time>2026-04-03T15:44:15.687Z</time></trkpt><trkpt lat="42.5533507" lon="12.7001085"><ele>188.5</ele><time>2026-04-03T15:44:16.688Z</time></trkpt><trkpt lat="42.5531981" lon="12.700353"><ele>188.0</ele><time>2026-04-03T15:44:17.687Z</time></trkpt><trkpt lat="42.5530429" lon="12.7006007"><ele>188.0</ele><time>2026-04-03T15:44:18.688Z</time></trkpt><trkpt lat="42.5528876" lon="12.7008496"><ele>188.0</ele><time>2026-04-03T15:44:19.687Z</time></trkpt><trkpt lat="42.5527284" lon="12.7010987"><ele>205.5</ele><time>2026-04-03T15:44:20.688Z</time></trkpt><trkpt lat="42.5525685" lon="12.7013452"><ele>223.0</ele><time>2026-04-03T15:44:21.687Z</time></trkpt><trkpt lat="42.5524133" lon="12.7015915"><ele>223.0</ele><time>2026-04-03T15:44:22.688Z</time></trkpt><trkpt lat="42.5522607" lon="12.7018384"><ele>223.0</ele><time>2026-04-03T15:44:23.687Z</time></trkpt><trkpt lat="42.5521047" lon="12.7020806"><ele>286.0</ele><time>2026-04-03T15:44:24.687Z</time></trkpt><trkpt lat="42.5519488" lon="12.7023239"><ele>349.0</ele><time>2026-04-03T15:44:25.688Z</time></trkpt><trkpt lat="42.5518016" lon="12.7025639"><ele>376.0</ele><time>2026-04-03T15:44:26.688Z</time></trkpt><trkpt lat="42.5272177" lon="12.730933"><ele>380.0</ele><time>2026-04-03T15:46:55.687Z</time></trkpt><trkpt lat="42.5268217" lon="12.7312448"><ele>380.0</ele><time>2026-04-03T15:46:57.687Z</time></trkpt><trkpt lat="42.5266348" lon="12.7314379"><ele>380.0</ele><time>2026-04-03T15:46:58.687Z</time></trkpt><trkpt lat="42.5264502" lon="12.7316352"><ele>380.0</ele><time>2026-04-03T15:46:59.686Z</time></trkpt><trkpt lat="42.526274" lon="12.7318441"><ele>380.0</ele><time>2026-04-03T15:47:00.687Z</time></trkpt><trkpt lat="42.5261011" lon="12.7320616"><ele>385.0</ele><time>2026-04-03T15:47:01.686Z</time></trkpt><trkpt lat="42.5259357" lon="12.7322852"><ele>390.0</ele><time>2026-04-03T15:47:02.687Z</time></trkpt><trkpt lat="42.5257758" lon="12.7325182"><ele>383.0</ele><time>2026-04-03T15:47:03.687Z</time></trkpt><trkpt lat="42.5256193" lon="12.7327512"><ele>376.0</ele><time>2026-04-03T15:47:04.687Z</time></trkpt><trkpt lat="42.5254683" lon="12.7329937"><ele>379.0</ele><time>2026-04-03T15:47:05.686Z</time></trkpt><trkpt lat="42.5253212" lon="12.7332386"><ele>382.0</ele><time>2026-04-03T15:47:06.687Z</time></trkpt><trkpt lat="42.5251749" lon="12.7334892"><ele>378.5</ele><time>2026-04-03T15:47:07.686Z</time></trkpt><trkpt lat="42.5250317" lon="12.73375"><ele>375.0</ele><time>2026-04-03T15:47:08.687Z</time></trkpt><trkpt lat="42.5248907" lon="12.7340099"><ele>375.0</ele><time>2026-04-03T15:47:09.687Z</time></trkpt><trkpt lat="42.5247488" lon="12.734276"><ele>375.0</ele><time>2026-04-03T15:47:10.687Z</time></trkpt><trkpt lat="42.5246082" lon="12.7345447"><ele>374.0</ele><time>2026-04-03T15:47:11.687Z</time></trkpt><trkpt lat="42.524471" lon="12.7348179"><ele>373.0</ele><time>2026-04-03T15:47:12.687Z</time></trkpt><trkpt lat="42.5243324" lon="12.7350883"><ele>371.5</ele><time>2026-04-03T15:47:13.687Z</time></trkpt><trkpt lat="42.5241954" lon="12.7353587"><ele>370.0</ele><time>2026-04-03T15:47:14.687Z</time></trkpt><trkpt lat="42.5240607" lon="12.7356279"><ele>370.0</ele><time>2026-04-03T15:47:15.687Z</time></trkpt><trkpt lat="42.523916" lon="12.7358959"><ele>370.0</ele><time>2026-04-03T15:47:16.687Z</time></trkpt><trkpt lat="42.5237688" lon="12.7361569"><ele>369.5</ele><time>2026-04-03T15:47:17.686Z</time></trkpt><trkpt lat="42.5236154" lon="12.736408"><ele>369.0</ele><time>2026-04-03T15:47:18.687Z</time></trkpt><trkpt lat="42.5234556" lon="12.7366538"><ele>369.0</ele><time>2026-04-03T15:47:19.686Z</time></trkpt><trkpt lat="42.52329" lon="12.736892"><ele>369.0</ele><time>2026-04-03T15:47:20.687Z</time></trkpt><trkpt lat="42.5231184" lon="12.7371225"><ele>369.0</ele><time>2026-04-03T15:47:21.687Z</time></trkpt><trkpt lat="42.5229397" lon="12.737351"><ele>369.0</ele><time>2026-04-03T15:47:22.686Z</time></trkpt><trkpt lat="42.5227563" lon="12.7375734"><ele>370.0</ele><time>2026-04-03T15:47:23.687Z</time></trkpt><trkpt lat="42.5225681" lon="12.737785"><ele>371.0</ele><time>2026-04-03T15:47:24.687Z</time></trkpt><trkpt lat="42.5223767" lon="12.7379912"><ele>371.0</ele><time>2026-04-03T15:47:25.687Z</time></trkpt><trkpt lat="42.5221775" lon="12.7381854"><ele>371.0</ele><time>2026-04-03T15:47:26.686Z</time></trkpt><trkpt lat="42.5219704" lon="12.738363"><ele>371.5</ele><time>2026-04-03T15:47:27.687Z</time></trkpt><trkpt lat="42.5217581" lon="12.7385263"><ele>372.0</ele><time>2026-04-03T15:47:28.687Z</time></trkpt><trkpt lat="42.521544" lon="12.7386756"><ele>372.0</ele><time>2026-04-03T15:47:29.687Z</time></trkpt><trkpt lat="42.5213237" lon="12.7388148"><ele>372.0</ele><time>2026-04-03T15:47:30.687Z</time></trkpt><trkpt lat="42.5211008" lon="12.7389412"><ele>372.5</ele><time>2026-04-03T15:47:31.687Z</time></trkpt><trkpt lat="42.5208779" lon="12.7390669"><ele>373.0</ele><time>2026-04-03T15:47:32.687Z</time></trkpt><trkpt lat="42.5206603" lon="12.7391894"><ele>373.0</ele><time>2026-04-03T15:47:33.687Z</time></trkpt><trkpt lat="42.5204414" lon="12.7393179"><ele>373.0</ele><time>2026-04-03T15:47:34.686Z</time></trkpt><trkpt lat="42.5202243" lon="12.7394515"><ele>378.5</ele><time>2026-04-03T15:47:35.686Z</time></trkpt><trkpt lat="42.5200098" lon="12.7395933"><ele>384.0</ele><time>2026-04-03T15:47:36.686Z</time></trkpt><trkpt lat="42.519795" lon="12.7397397"><ele>384.0</ele><time>2026-04-03T15:47:37.686Z</time></trkpt><trkpt lat="42.5195849" lon="12.7398997"><ele>384.0</ele><time>2026-04-03T15:47:38.687Z</time></trkpt><trkpt lat="42.5193764" lon="12.7400645"><ele>382.0</ele><time>2026-04-03T15:47:39.687Z</time></trkpt><trkpt lat="42.5191698" lon="12.7402394"><ele>380.0</ele><time>2026-04-03T15:47:40.687Z</time></trkpt><trkpt lat="42.5189694" lon="12.7404226"><ele>380.0</ele><time>2026-04-03T15:47:41.686Z</time></trkpt><trkpt lat="42.5187748" lon="12.7406188"><ele>380.0</ele><time>2026-04-03T15:47:42.686Z</time></trkpt><trkpt lat="42.5185879" lon="12.7408233"><ele>383.0</ele><time>2026-04-03T15:47:43.687Z</time></trkpt><trkpt lat="42.5184016" lon="12.7410362"><ele>386.0</ele><time>2026-04-03T15:47:44.687Z</time></trkpt><trkpt lat="42.5182228" lon="12.7412584"><ele>386.0</ele><time>2026-04-03T15:47:45.686Z</time></trkpt><trkpt lat="42.5180449" lon="12.7414841"><ele>386.0</ele><time>2026-04-03T15:47:46.687Z</time></trkpt><trkpt lat="42.5178719" lon="12.7417127"><ele>383.5</ele><time>2026-04-03T15:47:47.687Z</time></trkpt><trkpt lat="42.5176947" lon="12.7419382"><ele>381.0</ele><time>2026-04-03T15:47:48.686Z</time></trkpt><trkpt lat="42.5175164" lon="12.7421603"><ele>381.0</ele><time>2026-04-03T15:47:49.687Z</time></trkpt><trkpt lat="42.5173343" lon="12.7423777"><ele>381.0</ele><time>2026-04-03T15:47:50.686Z</time></trkpt><trkpt lat="42.5171512" lon="12.7425888"><ele>376.5</ele><time>2026-04-03T15:47:51.687Z</time></trkpt><trkpt lat="42.5169606" lon="12.7427903"><ele>372.0</ele><time>2026-04-03T15:47:52.686Z</time></trkpt><trkpt lat="42.5167652" lon="12.7429818"><ele>372.0</ele><time>2026-04-03T15:47:53.687Z</time></trkpt><trkpt lat="42.5165648" lon="12.7431623"><ele>372.0</ele><time>2026-04-03T15:47:54.687Z</time></trkpt><trkpt lat="42.5163626" lon="12.7433335"><ele>372.0</ele><time>2026-04-03T15:47:55.687Z</time></trkpt><trkpt lat="42.5161582" lon="12.7434934"><ele>372.0</ele><time>2026-04-03T15:47:56.687Z</time></trkpt><trkpt lat="42.5159473" lon="12.7436508"><ele>376.5</ele><time>2026-04-03T15:47:57.687Z</time></trkpt><trkpt lat="42.5157317" lon="12.7437976"><ele>381.0</ele><time>2026-04-03T15:47:58.687Z</time></trkpt><trkpt lat="42.5155168" lon="12.7439366"><ele>376.5</ele><time>2026-04-03T15:47:59.686Z</time></trkpt><trkpt lat="42.5152967" lon="12.7440713"><ele>372.0</ele><time>2026-04-03T15:48:00.687Z</time></trkpt><trkpt lat="42.5150742" lon="12.7442042"><ele>372.0</ele><time>2026-04-03T15:48:01.687Z</time></trkpt><trkpt lat="42.514851" lon="12.7443337"><ele>372.0</ele><time>2026-04-03T15:48:02.687Z</time></trkpt><trkpt lat="42.5146289" lon="12.7444622"><ele>373.5</ele><time>2026-04-03T15:48:03.687Z</time></trkpt><trkpt lat="42.5144075" lon="12.7445907"><ele>375.0</ele><time>2026-04-03T15:48:04.687Z</time></trkpt><trkpt lat="42.5141862" lon="12.7447167"><ele>375.0</ele><time>2026-04-03T15:48:05.687Z</time></trkpt><trkpt lat="42.5139656" lon="12.7448425"><ele>375.0</ele><time>2026-04-03T15:48:06.687Z</time></trkpt><trkpt lat="42.5137478" lon="12.7449695"><ele>373.0</ele><time>2026-04-03T15:48:07.687Z</time></trkpt><trkpt lat="42.5135252" lon="12.7450963"><ele>371.0</ele><time>2026-04-03T15:48:08.686Z</time></trkpt><trkpt lat="42.5133034" lon="12.7452255"><ele>374.5</ele><time>2026-04-03T15:48:09.686Z</time></trkpt><trkpt lat="42.5130819" lon="12.745356"><ele>378.0</ele><time>2026-04-03T15:48:10.687Z</time></trkpt><trkpt lat="42.5128614" lon="12.7454903"><ele>378.0</ele><time>2026-04-03T15:48:11.687Z</time></trkpt><trkpt lat="42.512639" lon="12.7456229"><ele>378.0</ele><time>2026-04-03T15:48:12.687Z</time></trkpt><trkpt lat="42.5124169" lon="12.7457526"><ele>378.0</ele><time>2026-04-03T15:48:13.687Z</time></trkpt><trkpt lat="42.5121976" lon="12.7458808"><ele>378.0</ele><time>2026-04-03T15:48:14.687Z</time></trkpt><trkpt lat="42.511977" lon="12.7460095"><ele>382.5</ele><time>2026-04-03T15:48:15.686Z</time></trkpt><trkpt lat="42.5117525" lon="12.7461359"><ele>387.0</ele><time>2026-04-03T15:48:16.687Z</time></trkpt><trkpt lat="42.5115277" lon="12.746251"><ele>387.0</ele><time>2026-04-03T15:48:17.686Z</time></trkpt><trkpt lat="42.5113013" lon="12.7463617"><ele>387.0</ele><time>2026-04-03T15:48:18.687Z</time></trkpt><trkpt lat="42.5110696" lon="12.7464674"><ele>383.5</ele><time>2026-04-03T15:48:19.687Z</time></trkpt><trkpt lat="42.5108372" lon="12.7465568"><ele>380.0</ele><time>2026-04-03T15:48:20.687Z</time></trkpt><trkpt lat="42.5106018" lon="12.7466344"><ele>377.0</ele><time>2026-04-03T15:48:21.687Z</time></trkpt><trkpt lat="42.5103639" lon="12.7467083"><ele>374.0</ele><time>2026-04-03T15:48:22.687Z</time></trkpt><trkpt lat="42.510124" lon="12.7467719"><ele>374.0</ele><time>2026-04-03T15:48:23.687Z</time></trkpt><trkpt lat="42.5098844" lon="12.74683"><ele>374.0</ele><time>2026-04-03T15:48:24.687Z</time></trkpt><trkpt lat="42.5096442" lon="12.7468783"><ele>372.0</ele><time>2026-04-03T15:48:25.687Z</time></trkpt><trkpt lat="42.5094049" lon="12.7469186"><ele>370.0</ele><time>2026-04-03T15:48:26.686Z</time></trkpt><trkpt lat="42.509164" lon="12.7469487"><ele>370.0</ele><time>2026-04-03T15:48:27.687Z</time></trkpt><trkpt lat="42.5089244" lon="12.746973"><ele>370.0</ele><time>2026-04-03T15:48:28.686Z</time></trkpt><trkpt lat="42.5086834" lon="12.7469874"><ele>370.5</ele><time>2026-04-03T15:48:29.687Z</time></trkpt><trkpt lat="42.5084419" lon="12.7469914"><ele>371.0</ele><time>2026-04-03T15:48:30.687Z</time></trkpt><trkpt lat="42.5082041" lon="12.7469839"><ele>371.0</ele><time>2026-04-03T15:48:31.687Z</time></trkpt><trkpt lat="42.5079633" lon="12.7469685"><ele>371.0</ele><time>2026-04-03T15:48:32.687Z</time></trkpt><trkpt lat="42.5077238" lon="12.7469433"><ele>371.0</ele><time>2026-04-03T15:48:33.687Z</time></trkpt><trkpt lat="42.5074833" lon="12.7469093"><ele>371.0</ele><time>2026-04-03T15:48:34.686Z</time></trkpt><trkpt lat="42.5072427" lon="12.7468735"><ele>372.5</ele><time>2026-04-03T15:48:35.687Z</time></trkpt><trkpt lat="42.5070062" lon="12.7468293"><ele>374.0</ele><time>2026-04-03T15:48:36.687Z</time></trkpt><trkpt lat="42.506766" lon="12.7467829"><ele>374.0</ele><time>2026-04-03T15:48:37.686Z</time></trkpt><trkpt lat="42.5065278" lon="12.7467381"><ele>374.0</ele><time>2026-04-03T15:48:38.686Z</time></trkpt><trkpt lat="42.5062924" lon="12.7466946"><ele>376.0</ele><time>2026-04-03T15:48:39.686Z</time></trkpt><trkpt lat="42.5060565" lon="12.746656"><ele>378.0</ele><time>2026-04-03T15:48:40.687Z</time></trkpt><trkpt lat="42.505352" lon="12.7465317"><ele>378.0</ele><time>2026-04-03T15:48:43.687Z</time></trkpt><trkpt lat="42.5048324" lon="12.746585"><ele>378.0</ele><time>2026-04-03T15:48:45.687Z</time></trkpt><trkpt lat="42.5045917" lon="12.7466093"><ele>378.0</ele><time>2026-04-03T15:48:46.686Z</time></trkpt><trkpt lat="42.5043499" lon="12.7466591"><ele>375.0</ele><time>2026-04-03T15:48:47.687Z</time></trkpt><trkpt lat="42.5041185" lon="12.7467072"><ele>372.0</ele><time>2026-04-03T15:48:48.686Z</time></trkpt><trkpt lat="42.5038831" lon="12.7467611"><ele>374.0</ele><time>2026-04-03T15:48:49.687Z</time></trkpt><trkpt lat="42.5036493" lon="12.7468253"><ele>376.0</ele><time>2026-04-03T15:48:50.687Z</time></trkpt><trkpt lat="42.5034164" lon="12.7469034"><ele>378.0</ele><time>2026-04-03T15:48:51.687Z</time></trkpt><trkpt lat="42.503196" lon="12.7469903"><ele>380.0</ele><time>2026-04-03T15:48:52.687Z</time></trkpt><trkpt lat="42.5029769" lon="12.7470954"><ele>377.0</ele><time>2026-04-03T15:48:53.686Z</time></trkpt><trkpt lat="42.5027501" lon="12.7472014"><ele>374.0</ele><time>2026-04-03T15:48:54.686Z</time></trkpt><trkpt lat="42.489419" lon="12.7650221"><ele>374.0</ele><time>2026-04-03T15:50:18.687Z</time></trkpt><trkpt lat="42.4892069" lon="12.7651634"><ele>374.0</ele><time>2026-04-03T15:50:19.687Z</time></trkpt><trkpt lat="42.4889903" lon="12.7652965"><ele>374.5</ele><time>2026-04-03T15:50:20.687Z</time></trkpt><trkpt lat="42.4887746" lon="12.7654376"><ele>375.0</ele><time>2026-04-03T15:50:21.686Z</time></trkpt><trkpt lat="42.4885591" lon="12.7655761"><ele>374.0</ele><time>2026-04-03T15:50:22.687Z</time></trkpt><trkpt lat="42.4883449" lon="12.7657116"><ele>373.0</ele><time>2026-04-03T15:50:23.686Z</time></trkpt><trkpt lat="42.4881293" lon="12.7658511"><ele>372.5</ele><time>2026-04-03T15:50:24.687Z</time></trkpt><trkpt lat="42.4879149" lon="12.7659857"><ele>372.0</ele><time>2026-04-03T15:50:25.687Z</time></trkpt><trkpt lat="42.4877003" lon="12.766122"><ele>372.0</ele><time>2026-04-03T15:50:26.687Z</time></trkpt><trkpt lat="42.4874821" lon="12.7662598"><ele>372.0</ele><time>2026-04-03T15:50:27.687Z</time></trkpt><trkpt lat="42.4872613" lon="12.7663973"><ele>372.5</ele><time>2026-04-03T15:50:28.687Z</time></trkpt><trkpt lat="42.4870386" lon="12.7665364"><ele>373.0</ele><time>2026-04-03T15:50:29.687Z</time></trkpt><trkpt lat="42.486814" lon="12.7666801"><ele>373.0</ele><time>2026-04-03T15:50:30.687Z</time></trkpt><trkpt lat="42.486589" lon="12.7668289"><ele>373.0</ele><time>2026-04-03T15:50:31.687Z</time></trkpt><trkpt lat="42.4863608" lon="12.7669768"><ele>373.5</ele><time>2026-04-03T15:50:32.687Z</time></trkpt><trkpt lat="42.4861327" lon="12.7671244"><ele>374.0</ele><time>2026-04-03T15:50:33.687Z</time></trkpt><trkpt lat="42.4859033" lon="12.7672734"><ele>374.0</ele><time>2026-04-03T15:50:34.687Z</time></trkpt><trkpt lat="42.4856697" lon="12.7674175"><ele>374.0</ele><time>2026-04-03T15:50:35.686Z</time></trkpt><trkpt lat="42.4854366" lon="12.7675644"><ele>374.0</ele><time>2026-04-03T15:50:36.687Z</time></trkpt><trkpt lat="42.4852057" lon="12.7677102"><ele>374.0</ele><time>2026-04-03T15:50:37.686Z</time></trkpt><trkpt lat="42.4849727" lon="12.7678588"><ele>374.0</ele><time>2026-04-03T15:50:38.687Z</time></trkpt><trkpt lat="42.4847325" lon="12.7680102"><ele>374.0</ele><time>2026-04-03T15:50:39.687Z</time></trkpt><trkpt lat="42.4844943" lon="12.7681604"><ele>373.5</ele><time>2026-04-03T15:50:40.687Z</time></trkpt><trkpt lat="42.4842507" lon="12.7683155"><ele>373.0</ele><time>2026-04-03T15:50:41.687Z</time></trkpt><trkpt lat="42.484007" lon="12.7684724"><ele>372.0</ele><time>2026-04-03T15:50:42.687Z</time></trkpt><trkpt lat="42.4837603" lon="12.768628"><ele>371.0</ele><time>2026-04-03T15:50:43.687Z</time></trkpt><trkpt lat="42.4835067" lon="12.7687884"><ele>371.0</ele><time>2026-04-03T15:50:44.687Z</time></trkpt><trkpt lat="42.4832518" lon="12.7689494"><ele>371.0</ele><time>2026-04-03T15:50:45.687Z</time></trkpt><trkpt lat="42.4829981" lon="12.7691081"><ele>372.0</ele><time>2026-04-03T15:50:46.687Z</time></trkpt><trkpt lat="42.4827444" lon="12.7692743"><ele>373.0</ele><time>2026-04-03T15:50:47.686Z</time></trkpt><trkpt lat="42.4824914" lon="12.7694422"><ele>373.0</ele><time>2026-04-03T15:50:48.687Z</time></trkpt><trkpt lat="42.4822322" lon="12.7696086"><ele>373.0</ele><time>2026-04-03T15:50:49.687Z</time></trkpt><trkpt lat="42.4819742" lon="12.7697715"><ele>373.0</ele><time>2026-04-03T15:50:50.687Z</time></trkpt><trkpt lat="42.4817186" lon="12.7699327"><ele>373.0</ele><time>2026-04-03T15:50:51.686Z</time></trkpt><trkpt lat="42.4814652" lon="12.770095"><ele>372.5</ele><time>2026-04-03T15:50:52.687Z</time></trkpt><trkpt lat="42.481208" lon="12.7702635"><ele>372.0</ele><time>2026-04-03T15:50:53.687Z</time></trkpt><trkpt lat="42.4809507" lon="12.7704293"><ele>372.0</ele><time>2026-04-03T15:50:54.686Z</time></trkpt><trkpt lat="42.4806921" lon="12.7705927"><ele>372.0</ele><time>2026-04-03T15:50:55.687Z</time></trkpt><trkpt lat="42.4804375" lon="12.7707585"><ele>372.0</ele><time>2026-04-03T15:50:56.686Z</time></trkpt><trkpt lat="42.480181" lon="12.7709257"><ele>372.0</ele><time>2026-04-03T15:50:57.687Z</time></trkpt><trkpt lat="42.4799244" lon="12.7710912"><ele>372.5</ele><time>2026-04-03T15:50:58.687Z</time></trkpt><trkpt lat="42.479669" lon="12.771258"><ele>373.0</ele><time>2026-04-03T15:50:59.687Z</time></trkpt><trkpt lat="42.4794132" lon="12.7714211"><ele>373.5</ele><time>2026-04-03T15:51:00.687Z</time></trkpt><trkpt lat="42.4791568" lon="12.7715847"><ele>374.0</ele><time>2026-04-03T15:51:01.686Z</time></trkpt><trkpt lat="42.4789044" lon="12.7717504"><ele>373.5</ele><time>2026-04-03T15:51:02.687Z</time></trkpt><trkpt lat="42.4786502" lon="12.7719091"><ele>373.0</ele><time>2026-04-03T15:51:03.687Z</time></trkpt><trkpt lat="42.4783953" lon="12.7720686"><ele>373.0</ele><time>2026-04-03T15:51:04.687Z</time></trkpt><trkpt lat="42.4781391" lon="12.7722302"><ele>373.0</ele><time>2026-04-03T15:51:05.687Z</time></trkpt><trkpt lat="42.4778831" lon="12.7723901"><ele>373.5</ele><time>2026-04-03T15:51:06.686Z</time></trkpt><trkpt lat="42.4776241" lon="12.7725517"><ele>374.0</ele><time>2026-04-03T15:51:07.687Z</time></trkpt><trkpt lat="42.4773677" lon="12.7727171"><ele>374.0</ele><time>2026-04-03T15:51:08.687Z</time></trkpt><trkpt lat="42.4771087" lon="12.7728782"><ele>374.0</ele><time>2026-04-03T15:51:09.687Z</time></trkpt><trkpt lat="42.4768501" lon="12.7730457"><ele>374.0</ele><time>2026-04-03T15:51:10.687Z</time></trkpt><trkpt lat="42.4765915" lon="12.7732104"><ele>374.0</ele><time>2026-04-03T15:51:11.687Z</time></trkpt><trkpt lat="42.4763314" lon="12.7733786"><ele>373.0</ele><time>2026-04-03T15:51:12.687Z</time></trkpt><trkpt lat="42.4760689" lon="12.7735448"><ele>372.0</ele><time>2026-04-03T15:51:13.687Z</time></trkpt><trkpt lat="42.4758102" lon="12.7737141"><ele>372.0</ele><time>2026-04-03T15:51:14.687Z</time></trkpt><trkpt lat="42.4755532" lon="12.7738818"><ele>372.0</ele><time>2026-04-03T15:51:15.687Z</time></trkpt><trkpt lat="42.4752943" lon="12.7740482"><ele>372.5</ele><time>2026-04-03T15:51:16.687Z</time></trkpt><trkpt lat="42.475036" lon="12.7742146"><ele>373.0</ele><time>2026-04-03T15:51:17.687Z</time></trkpt><trkpt lat="42.4747772" lon="12.7743809"><ele>372.5</ele><time>2026-04-03T15:51:18.687Z</time></trkpt><trkpt lat="42.4745172" lon="12.7745476"><ele>372.0</ele><time>2026-04-03T15:51:19.686Z</time></trkpt><trkpt lat="42.4742625" lon="12.7747114"><ele>372.0</ele><time>2026-04-03T15:51:20.686Z</time></trkpt><trkpt lat="42.4740085" lon="12.7748779"><ele>372.0</ele><time>2026-04-03T15:51:21.687Z</time></trkpt><trkpt lat="42.4737518" lon="12.7750431"><ele>372.0</ele><time>2026-04-03T15:51:22.686Z</time></trkpt><trkpt lat="42.4734965" lon="12.7752099"><ele>372.0</ele><time>2026-04-03T15:51:23.687Z</time></trkpt><trkpt lat="42.4732383" lon="12.7753724"><ele>372.0</ele><time>2026-04-03T15:51:24.686Z</time></trkpt><trkpt lat="42.4729825" lon="12.7755371"><ele>372.0</ele><time>2026-04-03T15:51:25.687Z</time></trkpt><trkpt lat="42.472723" lon="12.7757051"><ele>373.0</ele><time>2026-04-03T15:51:26.687Z</time></trkpt><trkpt lat="42.4724648" lon="12.7758685"><ele>374.0</ele><time>2026-04-03T15:51:27.686Z</time></trkpt><trkpt lat="42.4722034" lon="12.7760348"><ele>374.0</ele><time>2026-04-03T15:51:28.686Z</time></trkpt><trkpt lat="42.4719446" lon="12.7761987"><ele>374.0</ele><time>2026-04-03T15:51:29.686Z</time></trkpt><trkpt lat="42.4716865" lon="12.776363"><ele>374.0</ele><time>2026-04-03T15:51:30.687Z</time></trkpt><trkpt lat="42.4714303" lon="12.7765281"><ele>374.0</ele><time>2026-04-03T15:51:31.687Z</time></trkpt><trkpt lat="42.4711749" lon="12.7766939"><ele>373.5</ele><time>2026-04-03T15:51:32.687Z</time></trkpt><trkpt lat="42.4709287" lon="12.7768511"><ele>373.0</ele><time>2026-04-03T15:51:33.687Z</time></trkpt><trkpt lat="42.4706896" lon="12.7770007"><ele>373.0</ele><time>2026-04-03T15:51:34.687Z</time></trkpt><trkpt lat="42.4704614" lon="12.7771479"><ele>373.0</ele><time>2026-04-03T15:51:35.687Z</time></trkpt><trkpt lat="42.4702375" lon="12.7772924"><ele>373.5</ele><time>2026-04-03T15:51:36.686Z</time></trkpt><trkpt lat="42.4700152" lon="12.7774356"><ele>374.0</ele><time>2026-04-03T15:51:37.686Z</time></trkpt><trkpt lat="42.4697945" lon="12.7775789"><ele>374.5</ele><time>2026-04-03T15:51:38.687Z</time></trkpt><trkpt lat="42.4695678" lon="12.7777316"><ele>375.0</ele><time>2026-04-03T15:51:39.686Z</time></trkpt><trkpt lat="42.4693272" lon="12.777894"><ele>375.0</ele><time>2026-04-03T15:51:40.686Z</time></trkpt><trkpt lat="42.4690813" lon="12.7780572"><ele>375.0</ele><time>2026-04-03T15:51:41.687Z</time></trkpt><trkpt lat="42.468834" lon="12.7782126"><ele>375.0</ele><time>2026-04-03T15:51:42.686Z</time></trkpt><trkpt lat="42.468586" lon="12.778367"><ele>375.0</ele><time>2026-04-03T15:51:43.687Z</time></trkpt><trkpt lat="42.4683386" lon="12.7785178"><ele>375.5</ele><time>2026-04-03T15:51:44.686Z</time></trkpt><trkpt lat="42.4680957" lon="12.7786652"><ele>376.0</ele><time>2026-04-03T15:51:45.687Z</time></trkpt><trkpt lat="42.4678569" lon="12.7788155"><ele>376.0</ele><time>2026-04-03T15:51:46.687Z</time></trkpt><trkpt lat="42.4676158" lon="12.7789661"><ele>376.0</ele><time>2026-04-03T15:51:47.687Z</time></trkpt><trkpt lat="42.4673731" lon="12.7791145"><ele>376.0</ele><time>2026-04-03T15:51:48.686Z</time></trkpt><trkpt lat="42.4671298" lon="12.7792688"><ele>376.0</ele><time>2026-04-03T15:51:49.687Z</time></trkpt><trkpt lat="42.4668846" lon="12.7794229"><ele>376.5</ele><time>2026-04-03T15:51:50.687Z</time></trkpt><trkpt lat="42.4666344" lon="12.7795838"><ele>377.0</ele><time>2026-04-03T15:51:51.687Z</time></trkpt><trkpt lat="42.4663848" lon="12.7797469"><ele>377.0</ele><time>2026-04-03T15:51:52.687Z</time></trkpt><trkpt lat="42.4661321" lon="12.7799088"><ele>377.0</ele><time>2026-04-03T15:51:53.687Z</time></trkpt><trkpt lat="42.4658805" lon="12.780071"><ele>377.0</ele><time>2026-04-03T15:51:54.687Z</time></trkpt><trkpt lat="42.465631" lon="12.7802279"><ele>377.0</ele><time>2026-04-03T15:51:55.687Z</time></trkpt><trkpt lat="42.4653755" lon="12.780391"><ele>377.0</ele><time>2026-04-03T15:51:56.687Z</time></trkpt><trkpt lat="42.4651279" lon="12.7805521"><ele>377.0</ele><time>2026-04-03T15:51:57.687Z</time></trkpt><trkpt lat="42.4648755" lon="12.7807115"><ele>377.0</ele><time>2026-04-03T15:51:58.687Z</time></trkpt><trkpt lat="42.4646225" lon="12.7808696"><ele>377.0</ele><time>2026-04-03T15:51:59.687Z</time></trkpt><trkpt lat="42.4643683" lon="12.7810269"><ele>376.0</ele><time>2026-04-03T15:52:00.687Z</time></trkpt><trkpt lat="42.4641169" lon="12.7811876"><ele>375.0</ele><time>2026-04-03T15:52:01.686Z</time></trkpt><trkpt lat="42.4638656" lon="12.7813473"><ele>374.0</ele><time>2026-04-03T15:52:02.686Z</time></trkpt><trkpt lat="42.4636129" lon="12.7815025"><ele>373.0</ele><time>2026-04-03T15:52:03.687Z</time></trkpt><trkpt lat="42.4633628" lon="12.7816617"><ele>373.0</ele><time>2026-04-03T15:52:04.686Z</time></trkpt><trkpt lat="42.4631133" lon="12.7818204"><ele>373.0</ele><time>2026-04-03T15:52:05.686Z</time></trkpt><trkpt lat="42.4628635" lon="12.7819814"><ele>374.0</ele><time>2026-04-03T15:52:06.687Z</time></trkpt><trkpt lat="42.4626144" lon="12.7821416"><ele>375.0</ele><time>2026-04-03T15:52:07.687Z</time></trkpt><trkpt lat="42.4623662" lon="12.7822992"><ele>375.0</ele><time>2026-04-03T15:52:08.687Z</time></trkpt><trkpt lat="42.4621171" lon="12.7824621"><ele>375.0</ele><time>2026-04-03T15:52:09.687Z</time></trkpt><trkpt lat="42.4618705" lon="12.7826217"><ele>375.5</ele><time>2026-04-03T15:52:10.686Z</time></trkpt><trkpt lat="42.4616242" lon="12.7827835"><ele>376.0</ele><time>2026-04-03T15:52:11.686Z</time></trkpt><trkpt lat="42.4613733" lon="12.7829415"><ele>375.0</ele><time>2026-04-03T15:52:12.687Z</time></trkpt><trkpt lat="42.4611217" lon="12.7830976"><ele>374.0</ele><time>2026-04-03T15:52:13.687Z</time></trkpt><trkpt lat="42.4608683" lon="12.7832498"><ele>374.0</ele><time>2026-04-03T15:52:14.686Z</time></trkpt><trkpt lat="42.4606149" lon="12.7833993"><ele>374.0</ele><time>2026-04-03T15:52:15.687Z</time></trkpt><trkpt lat="42.4603624" lon="12.7835477"><ele>375.0</ele><time>2026-04-03T15:52:16.686Z</time></trkpt><trkpt lat="42.4601114" lon="12.7836897"><ele>376.0</ele><time>2026-04-03T15:52:17.686Z</time></trkpt><trkpt lat="42.4598578" lon="12.7838337"><ele>375.0</ele><time>2026-04-03T15:52:18.687Z</time></trkpt><trkpt lat="42.4596021" lon="12.7839813"><ele>374.0</ele><time>2026-04-03T15:52:19.687Z</time></trkpt><trkpt lat="42.4593505" lon="12.7841272"><ele>374.0</ele><time>2026-04-03T15:52:20.687Z</time></trkpt><trkpt lat="42.4590974" lon="12.7842687"><ele>374.0</ele><time>2026-04-03T15:52:21.686Z</time></trkpt><trkpt lat="42.4588434" lon="12.7844095"><ele>374.5</ele><time>2026-04-03T15:52:22.686Z</time></trkpt><trkpt lat="42.4585878" lon="12.7845494"><ele>375.0</ele><time>2026-04-03T15:52:23.687Z</time></trkpt><trkpt lat="42.4583309" lon="12.7846839"><ele>375.0</ele><time>2026-04-03T15:52:24.686Z</time></trkpt><trkpt lat="42.4580751" lon="12.7848178"><ele>375.0</ele><time>2026-04-03T15:52:25.687Z</time></trkpt><trkpt lat="42.4578143" lon="12.7849404"><ele>375.5</ele><time>2026-04-03T15:52:26.686Z</time></trkpt><trkpt lat="42.4575521" lon="12.7850632"><ele>376.0</ele><time>2026-04-03T15:52:27.687Z</time></trkpt><trkpt lat="42.4572915" lon="12.7851902"><ele>376.0</ele><time>2026-04-03T15:52:28.686Z</time></trkpt><trkpt lat="42.4570299" lon="12.785317"><ele>376.0</ele><time>2026-04-03T15:52:29.686Z</time></trkpt><trkpt lat="42.4567679" lon="12.785438"><ele>376.0</ele><time>2026-04-03T15:52:30.687Z</time></trkpt><trkpt lat="42.4565065" lon="12.7855558"><ele>376.0</ele><time>2026-04-03T15:52:31.687Z</time></trkpt><trkpt lat="42.4562446" lon="12.7856698"><ele>376.5</ele><time>2026-04-03T15:52:32.687Z</time></trkpt><trkpt lat="42.4559795" lon="12.78578"><ele>377.0</ele><time>2026-04-03T15:52:33.687Z</time></trkpt><trkpt lat="42.4557155" lon="12.7858872"><ele>376.0</ele><time>2026-04-03T15:52:34.687Z</time></trkpt><trkpt lat="42.4554505" lon="12.7859918"><ele>375.0</ele><time>2026-04-03T15:52:35.686Z</time></trkpt><trkpt lat="42.4551857" lon="12.786097"><ele>375.0</ele><time>2026-04-03T15:52:36.687Z</time></trkpt><trkpt lat="42.4549207" lon="12.7862045"><ele>375.0</ele><time>2026-04-03T15:52:37.686Z</time></trkpt><trkpt lat="42.4546551" lon="12.7863106"><ele>376.0</ele><time>2026-04-03T15:52:38.687Z</time></trkpt><trkpt lat="42.4543951" lon="12.786414"><ele>377.0</ele><time>2026-04-03T15:52:39.687Z</time></trkpt><trkpt lat="42.4541322" lon="12.7865127"><ele>377.0</ele><time>2026-04-03T15:52:40.687Z</time></trkpt><trkpt lat="42.453867" lon="12.7866089"><ele>377.0</ele><time>2026-04-03T15:52:41.686Z</time></trkpt><trkpt lat="42.4536031" lon="12.7867019"><ele>377.0</ele><time>2026-04-03T15:52:42.687Z</time></trkpt><trkpt lat="42.4533396" lon="12.7867968"><ele>377.0</ele><time>2026-04-03T15:52:43.687Z</time></trkpt><trkpt lat="42.4530737" lon="12.7868906"><ele>377.0</ele><time>2026-04-03T15:52:44.687Z</time></trkpt><trkpt lat="42.4528066" lon="12.7869809"><ele>377.0</ele><time>2026-04-03T15:52:45.687Z</time></trkpt><trkpt lat="42.4525364" lon="12.7870679"><ele>377.0</ele><time>2026-04-03T15:52:46.687Z</time></trkpt><trkpt lat="42.4522681" lon="12.7871453"><ele>377.0</ele><time>2026-04-03T15:52:47.687Z</time></trkpt><trkpt lat="42.4519969" lon="12.7872238"><ele>376.0</ele><time>2026-04-03T15:52:48.686Z</time></trkpt><trkpt lat="42.4517259" lon="12.7873008"><ele>375.0</ele><time>2026-04-03T15:52:49.686Z</time></trkpt><trkpt lat="42.4514579" lon="12.7873768"><ele>375.5</ele><time>2026-04-03T15:52:50.687Z</time></trkpt><trkpt lat="42.4511895" lon="12.7874458"><ele>376.0</ele><time>2026-04-03T15:52:51.687Z</time></trkpt><trkpt lat="42.4509213" lon="12.7875205"><ele>376.0</ele><time>2026-04-03T15:52:52.687Z</time></trkpt><trkpt lat="42.4506528" lon="12.7875953"><ele>376.0</ele><time>2026-04-03T15:52:53.687Z</time></trkpt><trkpt lat="42.4503824" lon="12.7876707"><ele>376.0</ele><time>2026-04-03T15:52:54.687Z</time></trkpt><trkpt lat="42.4501122" lon="12.7877484"><ele>376.0</ele><time>2026-04-03T15:52:55.687Z</time></trkpt><trkpt lat="42.4498466" lon="12.7878208"><ele>376.5</ele><time>2026-04-03T15:52:56.687Z</time></trkpt><trkpt lat="42.4495978" lon="12.7878866"><ele>377.0</ele><time>2026-04-03T15:52:57.687Z</time></trkpt><trkpt lat="42.4493572" lon="12.7879481"><ele>377.0</ele><time>2026-04-03T15:52:58.687Z</time></trkpt><trkpt lat="42.4491199" lon="12.7880042"><ele>377.0</ele><time>2026-04-03T15:52:59.687Z</time></trkpt><trkpt lat="42.4488828" lon="12.788063"><ele>377.0</ele><time>2026-04-03T15:53:00.687Z</time></trkpt><trkpt lat="42.4486465" lon="12.7881273"><ele>377.0</ele><time>2026-04-03T15:53:01.686Z</time></trkpt><trkpt lat="42.4484134" lon="12.7881932"><ele>377.0</ele><time>2026-04-03T15:53:02.686Z</time></trkpt><trkpt lat="42.4481787" lon="12.7882555"><ele>377.0</ele><time>2026-04-03T15:53:03.686Z</time></trkpt><trkpt lat="42.4479407" lon="12.7883199"><ele>377.0</ele><time>2026-04-03T15:53:04.686Z</time></trkpt><trkpt lat="42.4476983" lon="12.788384"><ele>377.0</ele><time>2026-04-03T15:53:05.686Z</time></trkpt><trkpt lat="42.4474522" lon="12.7884481"><ele>377.0</ele><time>2026-04-03T15:53:06.686Z</time></trkpt><trkpt lat="42.4472056" lon="12.7885106"><ele>377.0</ele><time>2026-04-03T15:53:07.687Z</time></trkpt><trkpt lat="42.4469569" lon="12.7885728"><ele>375.5</ele><time>2026-04-03T15:53:08.686Z</time></trkpt><trkpt lat="42.4467121" lon="12.7886392"><ele>374.0</ele><time>2026-04-03T15:53:09.686Z</time></trkpt><trkpt lat="42.446469" lon="12.7886997"><ele>374.5</ele><time>2026-04-03T15:53:10.687Z</time></trkpt><trkpt lat="42.4462223" lon="12.78875"><ele>375.0</ele><time>2026-04-03T15:53:11.687Z</time></trkpt><trkpt lat="42.4459689" lon="12.7887951"><ele>375.0</ele><time>2026-04-03T15:53:12.686Z</time></trkpt><trkpt lat="42.445715" lon="12.7888292"><ele>375.0</ele><time>2026-04-03T15:53:13.687Z</time></trkpt><trkpt lat="42.4454571" lon="12.7888511"><ele>376.0</ele><time>2026-04-03T15:53:14.686Z</time></trkpt><trkpt lat="42.4451982" lon="12.7888649"><ele>377.0</ele><time>2026-04-03T15:53:15.686Z</time></trkpt><trkpt lat="42.4449348" lon="12.7888691"><ele>377.0</ele><time>2026-04-03T15:53:16.687Z</time></trkpt><trkpt lat="42.4446748" lon="12.7888644"><ele>377.0</ele><time>2026-04-03T15:53:17.687Z</time></trkpt><trkpt lat="42.4444345" lon="12.7888515"><ele>377.0</ele><time>2026-04-03T15:53:18.687Z</time></trkpt><trkpt lat="42.4442061" lon="12.788824"><ele>377.0</ele><time>2026-04-03T15:53:19.687Z</time></trkpt><trkpt lat="42.4439787" lon="12.7887863"><ele>377.0</ele><time>2026-04-03T15:53:20.686Z</time></trkpt><trkpt lat="42.4437482" lon="12.788738"><ele>377.0</ele><time>2026-04-03T15:53:21.686Z</time></trkpt><trkpt lat="42.4435127" lon="12.7886822"><ele>377.0</ele><time>2026-04-03T15:53:22.687Z</time></trkpt><trkpt lat="42.4432825" lon="12.7886143"><ele>377.0</ele><time>2026-04-03T15:53:23.687Z</time></trkpt><trkpt lat="42.4430535" lon="12.7885409"><ele>377.0</ele><time>2026-04-03T15:53:24.687Z</time></trkpt><trkpt lat="42.4428351" lon="12.7884633"><ele>377.0</ele><time>2026-04-03T15:53:25.686Z</time></trkpt><trkpt lat="42.4426212" lon="12.7883718"><ele>377.0</ele><time>2026-04-03T15:53:26.687Z</time></trkpt><trkpt lat="42.4424134" lon="12.7882779"><ele>377.0</ele><time>2026-04-03T15:53:27.686Z</time></trkpt><trkpt lat="42.4422031" lon="12.7881695"><ele>377.0</ele><time>2026-04-03T15:53:28.686Z</time></trkpt><trkpt lat="42.4419799" lon="12.7880524"><ele>377.0</ele><time>2026-04-03T15:53:29.686Z</time></trkpt><trkpt lat="42.4417557" lon="12.7879331"><ele>377.0</ele><time>2026-04-03T15:53:30.687Z</time></trkpt><trkpt lat="42.4415393" lon="12.7877963"><ele>377.5</ele><time>2026-04-03T15:53:31.687Z</time></trkpt><trkpt lat="42.4413276" lon="12.7876531"><ele>378.0</ele><time>2026-04-03T15:53:32.687Z</time></trkpt><trkpt lat="42.4411138" lon="12.7875025"><ele>378.0</ele><time>2026-04-03T15:53:33.686Z</time></trkpt><trkpt lat="42.440875" lon="12.7873461"><ele>378.0</ele><time>2026-04-03T15:53:34.687Z</time></trkpt><trkpt lat="42.4406319" lon="12.7871776"><ele>378.0</ele><time>2026-04-03T15:53:35.687Z</time></trkpt><trkpt lat="42.4403888" lon="12.7869895"><ele>378.0</ele><time>2026-04-03T15:53:36.687Z</time></trkpt><trkpt lat="42.4401358" lon="12.7867967"><ele>378.0</ele><time>2026-04-03T15:53:37.686Z</time></trkpt><trkpt lat="42.4398912" lon="12.7866039"><ele>378.0</ele><time>2026-04-03T15:53:38.687Z</time></trkpt><trkpt lat="42.4396557" lon="12.7864184"><ele>378.0</ele><time>2026-04-03T15:53:39.686Z</time></trkpt><trkpt lat="42.4394265" lon="12.7862334"><ele>378.0</ele><time>2026-04-03T15:53:40.687Z</time></trkpt><trkpt lat="42.4391943" lon="12.786062"><ele>378.0</ele><time>2026-04-03T15:53:41.686Z</time></trkpt><trkpt lat="42.4389647" lon="12.7858947"><ele>378.0</ele><time>2026-04-03T15:53:42.687Z</time></trkpt><trkpt lat="42.4387361" lon="12.7857362"><ele>377.5</ele><time>2026-04-03T15:53:43.687Z</time></trkpt><trkpt lat="42.4385039" lon="12.7855854"><ele>377.0</ele><time>2026-04-03T15:53:44.686Z</time></trkpt><trkpt lat="42.4382743" lon="12.7854443"><ele>378.0</ele><time>2026-04-03T15:53:45.686Z</time></trkpt><trkpt lat="42.4377972" lon="12.7852064"><ele>377.5</ele><time>2026-04-03T15:53:47.687Z</time></trkpt><trkpt lat="42.4375554" lon="12.7851099"><ele>377.0</ele><time>2026-04-03T15:53:48.687Z</time></trkpt><trkpt lat="42.4373098" lon="12.7850226"><ele>377.0</ele><time>2026-04-03T15:53:49.686Z</time></trkpt><trkpt lat="42.4370555" lon="12.7849502"><ele>377.0</ele><time>2026-04-03T15:53:50.687Z</time></trkpt><trkpt lat="42.4367955" lon="12.7848905"><ele>377.0</ele><time>2026-04-03T15:53:51.687Z</time></trkpt><trkpt lat="42.4365364" lon="12.7848433"><ele>377.0</ele><time>2026-04-03T15:53:52.686Z</time></trkpt><trkpt lat="42.4362706" lon="12.784807"><ele>379.0</ele><time>2026-04-03T15:53:53.687Z</time></trkpt><trkpt lat="42.4360008" lon="12.7847924"><ele>381.0</ele><time>2026-04-03T15:53:54.687Z</time></trkpt><trkpt lat="42.4357263" lon="12.7847836"><ele>380.0</ele><time>2026-04-03T15:53:55.687Z</time></trkpt><trkpt lat="42.4354523" lon="12.7847815"><ele>379.0</ele><time>2026-04-03T15:53:56.687Z</time></trkpt><trkpt lat="42.4328719" lon="12.7856015"><ele>379.0</ele><time>2026-04-03T15:54:07.687Z</time></trkpt><trkpt lat="42.4323807" lon="12.7857603"><ele>379.0</ele><time>2026-04-03T15:54:09.686Z</time></trkpt><trkpt lat="42.4321282" lon="12.7858533"><ele>379.0</ele><time>2026-04-03T15:54:10.686Z</time></trkpt><trkpt lat="42.4318665" lon="12.7859361"><ele>379.0</ele><time>2026-04-03T15:54:11.687Z</time></trkpt><trkpt lat="42.4315985" lon="12.7860124"><ele>379.0</ele><time>2026-04-03T15:54:12.686Z</time></trkpt><trkpt lat="42.4313274" lon="12.7860742"><ele>378.5</ele><time>2026-04-03T15:54:13.687Z</time></trkpt><trkpt lat="42.431061" lon="12.7861195"><ele>378.0</ele><time>2026-04-03T15:54:14.687Z</time></trkpt><trkpt lat="42.4307821" lon="12.7861303"><ele>378.0</ele><time>2026-04-03T15:54:15.686Z</time></trkpt><trkpt lat="42.4305047" lon="12.7861216"><ele>378.0</ele><time>2026-04-03T15:54:16.687Z</time></trkpt><trkpt lat="42.4302307" lon="12.7860826"><ele>377.5</ele><time>2026-04-03T15:54:17.687Z</time></trkpt><trkpt lat="42.429968" lon="12.7860203"><ele>377.0</ele><time>2026-04-03T15:54:18.686Z</time></trkpt><trkpt lat="42.4294537" lon="12.785816"><ele>378.0</ele><time>2026-04-03T15:54:20.686Z</time></trkpt><trkpt lat="42.4292045" lon="12.7856724"><ele>379.0</ele><time>2026-04-03T15:54:21.687Z</time></trkpt><trkpt lat="42.4289577" lon="12.7855061"><ele>378.0</ele><time>2026-04-03T15:54:22.686Z</time></trkpt><trkpt lat="42.4287326" lon="12.7853224"><ele>377.0</ele><time>2026-04-03T15:54:23.687Z</time></trkpt><trkpt lat="42.4285205" lon="12.7851208"><ele>377.0</ele><time>2026-04-03T15:54:24.687Z</time></trkpt><trkpt lat="42.4283256" lon="12.7849064"><ele>377.0</ele><time>2026-04-03T15:54:25.687Z</time></trkpt><trkpt lat="42.428152" lon="12.7846799"><ele>377.0</ele><time>2026-04-03T15:54:26.686Z</time></trkpt><trkpt lat="42.4279924" lon="12.7844546"><ele>377.0</ele><time>2026-04-03T15:54:27.687Z</time></trkpt><trkpt lat="42.4278412" lon="12.7842206"><ele>378.5</ele><time>2026-04-03T15:54:28.686Z</time></trkpt><trkpt lat="42.4276921" lon="12.7839802"><ele>380.0</ele><time>2026-04-03T15:54:29.687Z</time></trkpt><trkpt lat="42.4275357" lon="12.7837408"><ele>379.5</ele><time>2026-04-03T15:54:30.687Z</time></trkpt><trkpt lat="42.427378" lon="12.7835055"><ele>379.0</ele><time>2026-04-03T15:54:31.687Z</time></trkpt><trkpt lat="42.4272119" lon="12.7832699"><ele>379.0</ele><time>2026-04-03T15:54:32.687Z</time></trkpt><trkpt lat="42.4270323" lon="12.7830443"><ele>379.0</ele><time>2026-04-03T15:54:33.687Z</time></trkpt><trkpt lat="42.4268481" lon="12.7828361"><ele>379.5</ele><time>2026-04-03T15:54:34.687Z</time></trkpt><trkpt lat="42.4266575" lon="12.7826354"><ele>380.0</ele><time>2026-04-03T15:54:35.686Z</time></trkpt><trkpt lat="42.4264614" lon="12.7824419"><ele>378.0</ele><time>2026-04-03T15:54:36.687Z</time></trkpt><trkpt lat="42.4262567" lon="12.78226"><ele>376.0</ele><time>2026-04-03T15:54:37.686Z</time></trkpt><trkpt lat="42.426049" lon="12.7820837"><ele>376.0</ele><time>2026-04-03T15:54:38.687Z</time></trkpt><trkpt lat="42.425836" lon="12.7819274"><ele>376.0</ele><time>2026-04-03T15:54:39.686Z</time></trkpt><trkpt lat="42.4256162" lon="12.781784"><ele>377.0</ele><time>2026-04-03T15:54:40.687Z</time></trkpt><trkpt lat="42.4253947" lon="12.7816607"><ele>378.0</ele><time>2026-04-03T15:54:41.687Z</time></trkpt><trkpt lat="42.4251713" lon="12.7815503"><ele>378.0</ele><time>2026-04-03T15:54:42.686Z</time></trkpt><trkpt lat="42.4249405" lon="12.7814492"><ele>378.0</ele><time>2026-04-03T15:54:43.687Z</time></trkpt><trkpt lat="42.4247036" lon="12.7813575"><ele>377.5</ele><time>2026-04-03T15:54:44.686Z</time></trkpt><trkpt lat="42.4244579" lon="12.7812765"><ele>377.0</ele><time>2026-04-03T15:54:45.686Z</time></trkpt><trkpt lat="42.4239633" lon="12.7811797"><ele>377.5</ele><time>2026-04-03T15:54:47.687Z</time></trkpt><trkpt lat="42.4237138" lon="12.7811579"><ele>378.0</ele><time>2026-04-03T15:54:48.686Z</time></trkpt><trkpt lat="42.4234692" lon="12.7811391"><ele>378.0</ele><time>2026-04-03T15:54:49.687Z</time></trkpt><trkpt lat="42.4232296" lon="12.7811421"><ele>378.0</ele><time>2026-04-03T15:54:50.687Z</time></trkpt><trkpt lat="42.4229796" lon="12.7811616"><ele>378.0</ele><time>2026-04-03T15:54:51.687Z</time></trkpt><trkpt lat="42.4227309" lon="12.7811972"><ele>378.0</ele><time>2026-04-03T15:54:52.686Z</time></trkpt><trkpt lat="42.4224913" lon="12.7812396"><ele>378.0</ele><time>2026-04-03T15:54:53.687Z</time></trkpt><trkpt lat="42.4222614" lon="12.7812904"><ele>378.0</ele><time>2026-04-03T15:54:54.687Z</time></trkpt><trkpt lat="42.4220329" lon="12.781359"><ele>378.5</ele><time>2026-04-03T15:54:55.687Z</time></trkpt><trkpt lat="42.4217975" lon="12.7814434"><ele>379.0</ele><time>2026-04-03T15:54:56.686Z</time></trkpt><trkpt lat="42.4215561" lon="12.7815428"><ele>380.5</ele><time>2026-04-03T15:54:57.686Z</time></trkpt><trkpt lat="42.4212978" lon="12.7816415"><ele>382.0</ele><time>2026-04-03T15:54:58.687Z</time></trkpt><trkpt lat="42.4210299" lon="12.7817356"><ele>382.0</ele><time>2026-04-03T15:54:59.686Z</time></trkpt><trkpt lat="42.4207572" lon="12.7818311"><ele>382.0</ele><time>2026-04-03T15:55:00.687Z</time></trkpt><trkpt lat="42.4204864" lon="12.7819234"><ele>381.5</ele><time>2026-04-03T15:55:01.687Z</time></trkpt><trkpt lat="42.4202141" lon="12.7820144"><ele>381.0</ele><time>2026-04-03T15:55:02.687Z</time></trkpt><trkpt lat="42.4199422" lon="12.782103"><ele>381.0</ele><time>2026-04-03T15:55:03.687Z</time></trkpt><trkpt lat="42.4196705" lon="12.7821933"><ele>381.0</ele><time>2026-04-03T15:55:04.687Z</time></trkpt><trkpt lat="42.4193991" lon="12.7822859"><ele>382.0</ele><time>2026-04-03T15:55:05.686Z</time></trkpt><trkpt lat="42.4191318" lon="12.782382"><ele>383.0</ele><time>2026-04-03T15:55:06.686Z</time></trkpt><trkpt lat="42.4188629" lon="12.7824786"><ele>383.0</ele><time>2026-04-03T15:55:07.687Z</time></trkpt><trkpt lat="42.4185968" lon="12.7825737"><ele>383.0</ele><time>2026-04-03T15:55:08.687Z</time></trkpt><trkpt lat="42.4183245" lon="12.7826669"><ele>383.0</ele><time>2026-04-03T15:55:09.687Z</time></trkpt><trkpt lat="42.4180506" lon="12.7827592"><ele>383.0</ele><time>2026-04-03T15:55:10.686Z</time></trkpt><trkpt lat="42.41778" lon="12.7828514"><ele>383.0</ele><time>2026-04-03T15:55:11.687Z</time></trkpt><trkpt lat="42.4175143" lon="12.7829454"><ele>383.0</ele><time>2026-04-03T15:55:12.687Z</time></trkpt><trkpt lat="42.4172538" lon="12.7830367"><ele>383.0</ele><time>2026-04-03T15:55:13.687Z</time></trkpt><trkpt lat="42.4169948" lon="12.7831293"><ele>383.0</ele><time>2026-04-03T15:55:14.687Z</time></trkpt><trkpt lat="42.4167382" lon="12.7832195"><ele>383.0</ele><time>2026-04-03T15:55:15.687Z</time></trkpt><trkpt lat="42.4164798" lon="12.7833091"><ele>383.0</ele><time>2026-04-03T15:55:16.687Z</time></trkpt><trkpt lat="42.4162239" lon="12.7834014"><ele>382.5</ele><time>2026-04-03T15:55:17.686Z</time></trkpt><trkpt lat="42.4159694" lon="12.7834954"><ele>382.0</ele><time>2026-04-03T15:55:18.687Z</time></trkpt><trkpt lat="42.4157128" lon="12.7835852"><ele>381.5</ele><time>2026-04-03T15:55:19.687Z</time></trkpt><trkpt lat="42.415454" lon="12.7836735"><ele>381.0</ele><time>2026-04-03T15:55:20.686Z</time></trkpt><trkpt lat="42.4151958" lon="12.7837606"><ele>381.0</ele><time>2026-04-03T15:55:21.687Z</time></trkpt><trkpt lat="42.414708" lon="12.7839371"><ele>381.0</ele><time>2026-04-03T15:55:23.687Z</time></trkpt><trkpt lat="42.4144796" lon="12.7840176"><ele>381.0</ele><time>2026-04-03T15:55:24.687Z</time></trkpt><trkpt lat="42.414264" lon="12.7840951"><ele>381.0</ele><time>2026-04-03T15:55:25.687Z</time></trkpt><trkpt lat="42.4140628" lon="12.7841642"><ele>381.0</ele><time>2026-04-03T15:55:26.687Z</time></trkpt><trkpt lat="42.4138735" lon="12.7842296"><ele>381.0</ele><time>2026-04-03T15:55:27.686Z</time></trkpt><trkpt lat="42.413695" lon="12.7842867"><ele>380.6666666666667</ele><time>2026-04-03T15:55:28.686Z</time></trkpt><trkpt lat="42.4135282" lon="12.7843445"><ele>380.33333333333337</ele><time>2026-04-03T15:55:29.686Z</time></trkpt><trkpt lat="42.4133755" lon="12.784388"><ele>380.0</ele><time>2026-04-03T15:55:30.686Z</time></trkpt><trkpt lat="42.4132409" lon="12.7844287"><ele>380.0</ele><time>2026-04-03T15:55:31.686Z</time></trkpt><trkpt lat="42.4131247" lon="12.7844558"><ele>380.0</ele><time>2026-04-03T15:55:32.686Z</time></trkpt><trkpt lat="42.4130298" lon="12.7844778"><ele>380.0</ele><time>2026-04-03T15:55:33.687Z</time></trkpt><trkpt lat="42.4129533" lon="12.7844765"><ele>380.0</ele><time>2026-04-03T15:55:34.687Z</time></trkpt><trkpt lat="42.412882" lon="12.784472"><ele>380.0</ele><time>2026-04-03T15:55:35.687Z</time></trkpt><trkpt lat="42.4127795" lon="12.7845028"><ele>380.33333333333337</ele><time>2026-04-03T15:55:37.686Z</time></trkpt><trkpt lat="42.4126958" lon="12.7845416"><ele>380.6666666666667</ele><time>2026-04-03T15:55:39.687Z</time></trkpt><trkpt lat="42.412644" lon="12.784489"><ele>381.0</ele><time>2026-04-03T15:59:47.685Z</time></trkpt><trkpt lat="42.4125907" lon="12.7844419"><ele>381.3333333333333</ele><time>2026-04-03T15:59:54.685Z</time></trkpt><trkpt lat="42.4125308" lon="12.7844722"><ele>381.66666666666663</ele><time>2026-04-03T16:01:34.685Z</time></trkpt><trkpt lat="42.4124689" lon="12.78432"><ele>382.0</ele><time>2026-04-03T16:01:36.685Z</time></trkpt><trkpt lat="42.412437" lon="12.7842176"><ele>382.3333333333333</ele><time>2026-04-03T16:01:37.685Z</time></trkpt><trkpt lat="42.4124058" lon="12.7841334"><ele>382.66666666666663</ele><time>2026-04-03T16:01:38.686Z</time></trkpt><trkpt lat="42.4123616" lon="12.7840604"><ele>383.0</ele><time>2026-04-03T16:02:16.686Z</time></trkpt><trkpt lat="42.4124051" lon="12.7839773"><ele>383.3333333333333</ele><time>2026-04-03T16:02:24.686Z</time></trkpt><trkpt lat="42.4123715" lon="12.7838983"><ele>383.6666666666667</ele><time>2026-04-03T16:07:00.716Z</time></trkpt><trkpt lat="42.4122956" lon="12.7839048"><ele>384.0</ele><time>2026-04-03T16:07:36.685Z</time></trkpt><trkpt lat="42.4124162" lon="12.7839247"><ele>383.99999999999994</ele><time>2026-04-03T16:08:31.187Z</time></trkpt><trkpt lat="42.4124824" lon="12.7839137"><ele>384.0</ele><time>2026-04-03T16:08:41.844Z</time></trkpt><trkpt lat="42.4124781" lon="12.7840023"><ele>384.0</ele><time>2026-04-03T16:08:52.955Z</time></trkpt><trkpt lat="42.4124319" lon="12.7840791"><ele>384.0</ele><time>2026-04-03T16:09:02.497Z</time></trkpt><trkpt lat="42.4123497" lon="12.7840903"><ele>384.0</ele><time>2026-04-03T16:17:48.684Z</time></trkpt><trkpt lat="42.4123605" lon="12.7841816"><ele>383.99999999999994</ele><time>2026-04-03T16:17:50.684Z</time></trkpt><trkpt lat="42.4123645" lon="12.7842793"><ele>384.0</ele><time>2026-04-03T16:17:52.684Z</time></trkpt><trkpt lat="42.4123713" lon="12.784395"><ele>383.8333333333333</ele><time>2026-04-03T16:17:55.684Z</time></trkpt><trkpt lat="42.412371" lon="12.7844999"><ele>383.6666666666667</ele><time>2026-04-03T16:17:58.684Z</time></trkpt><trkpt lat="42.4123611" lon="12.7845944"><ele>383.5</ele><time>2026-04-03T16:18:02.684Z</time></trkpt><trkpt lat="42.4123099" lon="12.7847085"><ele>383.33333333333337</ele><time>2026-04-03T16:18:24.684Z</time></trkpt><trkpt lat="42.4122419" lon="12.7847491"><ele>383.1666666666667</ele><time>2026-04-03T16:18:25.683Z</time></trkpt><trkpt lat="42.4121547" lon="12.7847889"><ele>383.0</ele><time>2026-04-03T16:18:26.684Z</time></trkpt><trkpt lat="42.4120467" lon="12.7848295"><ele>383.0</ele><time>2026-04-03T16:18:27.684Z</time></trkpt><trkpt lat="42.4119283" lon="12.784884"><ele>383.0</ele><time>2026-04-03T16:18:28.683Z</time></trkpt><trkpt lat="42.4117897" lon="12.7849415"><ele>383.0</ele><time>2026-04-03T16:18:29.684Z</time></trkpt><trkpt lat="42.4116344" lon="12.784997"><ele>383.0</ele><time>2026-04-03T16:18:30.683Z</time></trkpt><trkpt lat="42.411466" lon="12.7850602"><ele>383.0</ele><time>2026-04-03T16:18:31.684Z</time></trkpt><trkpt lat="42.4112809" lon="12.7851317"><ele>383.0</ele><time>2026-04-03T16:18:32.684Z</time></trkpt><trkpt lat="42.4110765" lon="12.7852075"><ele>383.0</ele><time>2026-04-03T16:18:33.684Z</time></trkpt><trkpt lat="42.4108615" lon="12.7852837"><ele>383.0</ele><time>2026-04-03T16:18:34.684Z</time></trkpt><trkpt lat="42.4106399" lon="12.7853628"><ele>383.0</ele><time>2026-04-03T16:18:35.684Z</time></trkpt><trkpt lat="42.4104027" lon="12.7854461"><ele>383.0</ele><time>2026-04-03T16:18:36.684Z</time></trkpt><trkpt lat="42.4101577" lon="12.7855326"><ele>383.0</ele><time>2026-04-03T16:18:37.683Z</time></trkpt><trkpt lat="42.4099052" lon="12.7856244"><ele>383.0</ele><time>2026-04-03T16:18:38.683Z</time></trkpt><trkpt lat="42.4096467" lon="12.785711"><ele>383.0</ele><time>2026-04-03T16:18:39.683Z</time></trkpt><trkpt lat="42.4093891" lon="12.7858016"><ele>383.0</ele><time>2026-04-03T16:18:40.684Z</time></trkpt><trkpt lat="42.4091293" lon="12.7858978"><ele>383.0</ele><time>2026-04-03T16:18:41.684Z</time></trkpt><trkpt lat="42.4088648" lon="12.7860033"><ele>383.5</ele><time>2026-04-03T16:18:42.684Z</time></trkpt><trkpt lat="42.4085996" lon="12.7861159"><ele>384.0</ele><time>2026-04-03T16:18:43.683Z</time></trkpt><trkpt lat="42.4083349" lon="12.7862385"><ele>384.0</ele><time>2026-04-03T16:18:44.683Z</time></trkpt><trkpt lat="42.4080694" lon="12.786367"><ele>384.0</ele><time>2026-04-03T16:18:45.683Z</time></trkpt><trkpt lat="42.407806" lon="12.7864994"><ele>383.5</ele><time>2026-04-03T16:18:46.684Z</time></trkpt><trkpt lat="42.407541" lon="12.7866321"><ele>383.0</ele><time>2026-04-03T16:18:47.683Z</time></trkpt><trkpt lat="42.4072779" lon="12.7867644"><ele>383.5</ele><time>2026-04-03T16:18:48.683Z</time></trkpt><trkpt lat="42.4070181" lon="12.7869089"><ele>384.0</ele><time>2026-04-03T16:18:49.684Z</time></trkpt><trkpt lat="42.406759" lon="12.7870655"><ele>384.0</ele><time>2026-04-03T16:18:50.683Z</time></trkpt><trkpt lat="42.4065012" lon="12.7872267"><ele>384.0</ele><time>2026-04-03T16:18:51.683Z</time></trkpt><trkpt lat="42.4062391" lon="12.7873985"><ele>384.0</ele><time>2026-04-03T16:18:52.684Z</time></trkpt><trkpt lat="42.4059785" lon="12.7875769"><ele>384.0</ele><time>2026-04-03T16:18:53.684Z</time></trkpt><trkpt lat="42.4057157" lon="12.7877648"><ele>384.5</ele><time>2026-04-03T16:18:54.683Z</time></trkpt><trkpt lat="42.4054542" lon="12.7879573"><ele>385.0</ele><time>2026-04-03T16:18:55.684Z</time></trkpt><trkpt lat="42.4051969" lon="12.7881592"><ele>385.0</ele><time>2026-04-03T16:18:56.684Z</time></trkpt><trkpt lat="42.4049362" lon="12.7883692"><ele>385.0</ele><time>2026-04-03T16:18:57.683Z</time></trkpt><trkpt lat="42.4046807" lon="12.7885874"><ele>386.0</ele><time>2026-04-03T16:18:58.683Z</time></trkpt><trkpt lat="42.4044293" lon="12.7888137"><ele>387.0</ele><time>2026-04-03T16:18:59.683Z</time></trkpt><trkpt lat="42.4039314" lon="12.7892838"><ele>386.5</ele><time>2026-04-03T16:19:01.683Z</time></trkpt><trkpt lat="42.4036858" lon="12.7895288"><ele>386.0</ele><time>2026-04-03T16:19:02.684Z</time></trkpt><trkpt lat="42.4034452" lon="12.7897744"><ele>386.0</ele><time>2026-04-03T16:19:03.684Z</time></trkpt><trkpt lat="42.4032088" lon="12.7900285"><ele>386.0</ele><time>2026-04-03T16:19:04.684Z</time></trkpt><trkpt lat="42.4029812" lon="12.7902804"><ele>386.5</ele><time>2026-04-03T16:19:05.683Z</time></trkpt><trkpt lat="42.4027681" lon="12.7905261"><ele>387.0</ele><time>2026-04-03T16:19:06.683Z</time></trkpt><trkpt lat="42.4025603" lon="12.7907725"><ele>387.0</ele><time>2026-04-03T16:19:07.684Z</time></trkpt><trkpt lat="42.4023563" lon="12.7910333"><ele>387.0</ele><time>2026-04-03T16:19:08.684Z</time></trkpt><trkpt lat="42.4021641" lon="12.7912954"><ele>387.0</ele><time>2026-04-03T16:19:09.683Z</time></trkpt><trkpt lat="42.4019754" lon="12.7915597"><ele>387.0</ele><time>2026-04-03T16:19:10.684Z</time></trkpt><trkpt lat="42.401793" lon="12.7918293"><ele>387.0</ele><time>2026-04-03T16:19:11.683Z</time></trkpt><trkpt lat="42.4016137" lon="12.7920956"><ele>387.0</ele><time>2026-04-03T16:19:12.684Z</time></trkpt><trkpt lat="42.4014352" lon="12.7923649"><ele>387.0</ele><time>2026-04-03T16:19:13.684Z</time></trkpt><trkpt lat="42.4012529" lon="12.7926401"><ele>387.0</ele><time>2026-04-03T16:19:14.683Z</time></trkpt><trkpt lat="42.4010726" lon="12.7929194"><ele>387.0</ele><time>2026-04-03T16:19:15.683Z</time></trkpt><trkpt lat="42.4008908" lon="12.7932068"><ele>387.0</ele><time>2026-04-03T16:19:16.683Z</time></trkpt><trkpt lat="42.400713" lon="12.7935114"><ele>386.0</ele><time>2026-04-03T16:19:17.683Z</time></trkpt><trkpt lat="42.40054" lon="12.7938195"><ele>385.0</ele><time>2026-04-03T16:19:18.683Z</time></trkpt><trkpt lat="42.4003679" lon="12.7941356"><ele>384.0</ele><time>2026-04-03T16:19:19.684Z</time></trkpt><trkpt lat="42.4001948" lon="12.7944607"><ele>383.0</ele><time>2026-04-03T16:19:20.683Z</time></trkpt><trkpt lat="42.4000221" lon="12.7947949"><ele>383.0</ele><time>2026-04-03T16:19:21.684Z</time></trkpt><trkpt lat="42.3998509" lon="12.7951337"><ele>383.0</ele><time>2026-04-03T16:19:22.683Z</time></trkpt><trkpt lat="42.3996812" lon="12.7954756"><ele>383.0</ele><time>2026-04-03T16:19:23.683Z</time></trkpt><trkpt lat="42.3995146" lon="12.7958208"><ele>383.0</ele><time>2026-04-03T16:19:24.684Z</time></trkpt><trkpt lat="42.3993494" lon="12.7961648"><ele>383.0</ele><time>2026-04-03T16:19:25.683Z</time></trkpt><trkpt lat="42.3991866" lon="12.7965041"><ele>383.0</ele><time>2026-04-03T16:19:26.683Z</time></trkpt><trkpt lat="42.3990219" lon="12.7968485"><ele>382.5</ele><time>2026-04-03T16:19:27.683Z</time></trkpt><trkpt lat="42.398856" lon="12.7971923"><ele>382.0</ele><time>2026-04-03T16:19:28.683Z</time></trkpt><trkpt lat="42.398693" lon="12.7975342"><ele>381.5</ele><time>2026-04-03T16:19:29.683Z</time></trkpt><trkpt lat="42.3985274" lon="12.7978747"><ele>381.0</ele><time>2026-04-03T16:19:30.684Z</time></trkpt><trkpt lat="42.3983628" lon="12.7982172"><ele>380.5</ele><time>2026-04-03T16:19:31.684Z</time></trkpt><trkpt lat="42.3981976" lon="12.7985574"><ele>380.0</ele><time>2026-04-03T16:19:32.684Z</time></trkpt><trkpt lat="42.3980346" lon="12.7989005"><ele>380.5</ele><time>2026-04-03T16:19:33.684Z</time></trkpt><trkpt lat="42.3978721" lon="12.7992455"><ele>381.0</ele><time>2026-04-03T16:19:34.684Z</time></trkpt><trkpt lat="42.3977086" lon="12.7995863"><ele>381.0</ele><time>2026-04-03T16:19:35.684Z</time></trkpt><trkpt lat="42.3975448" lon="12.7999287"><ele>381.0</ele><time>2026-04-03T16:19:36.684Z</time></trkpt><trkpt lat="42.3973842" lon="12.8002728"><ele>381.0</ele><time>2026-04-03T16:19:37.683Z</time></trkpt><trkpt lat="42.3972203" lon="12.8006134"><ele>381.0</ele><time>2026-04-03T16:19:38.683Z</time></trkpt><trkpt lat="42.3970569" lon="12.8009538"><ele>381.5</ele><time>2026-04-03T16:19:39.684Z</time></trkpt><trkpt lat="42.3968957" lon="12.8012931"><ele>382.0</ele><time>2026-04-03T16:19:40.684Z</time></trkpt><trkpt lat="42.3967298" lon="12.8016357"><ele>382.0</ele><time>2026-04-03T16:19:41.684Z</time></trkpt><trkpt lat="42.3965628" lon="12.8019758"><ele>382.0</ele><time>2026-04-03T16:19:42.684Z</time></trkpt><trkpt lat="42.3963984" lon="12.8023179"><ele>382.0</ele><time>2026-04-03T16:19:43.684Z</time></trkpt><trkpt lat="42.3962319" lon="12.8026599"><ele>382.0</ele><time>2026-04-03T16:19:44.683Z</time></trkpt><trkpt lat="42.3960674" lon="12.8030056"><ele>382.0</ele><time>2026-04-03T16:19:45.684Z</time></trkpt><trkpt lat="42.3959034" lon="12.803351"><ele>382.0</ele><time>2026-04-03T16:19:46.684Z</time></trkpt><trkpt lat="42.3957409" lon="12.8036948"><ele>381.5</ele><time>2026-04-03T16:19:47.684Z</time></trkpt><trkpt lat="42.3955775" lon="12.8040357"><ele>381.0</ele><time>2026-04-03T16:19:48.684Z</time></trkpt><trkpt lat="42.3954126" lon="12.8043776"><ele>380.5</ele><time>2026-04-03T16:19:49.684Z</time></trkpt><trkpt lat="42.3952479" lon="12.80472"><ele>380.0</ele><time>2026-04-03T16:19:50.684Z</time></trkpt><trkpt lat="42.3950799" lon="12.8050568"><ele>380.0</ele><time>2026-04-03T16:19:51.684Z</time></trkpt><trkpt lat="42.3949157" lon="12.8053958"><ele>380.0</ele><time>2026-04-03T16:19:52.684Z</time></trkpt><trkpt lat="42.3947454" lon="12.8057362"><ele>380.5</ele><time>2026-04-03T16:19:53.683Z</time></trkpt><trkpt lat="42.3945758" lon="12.8060733"><ele>381.0</ele><time>2026-04-03T16:19:54.683Z</time></trkpt><trkpt lat="42.3944072" lon="12.806415"><ele>381.0</ele><time>2026-04-03T16:19:55.683Z</time></trkpt><trkpt lat="42.3942458" lon="12.8067582"><ele>381.0</ele><time>2026-04-03T16:19:56.684Z</time></trkpt><trkpt lat="42.3940851" lon="12.8070994"><ele>381.0</ele><time>2026-04-03T16:19:57.684Z</time></trkpt><trkpt lat="42.3939275" lon="12.8074361"><ele>381.0</ele><time>2026-04-03T16:19:58.683Z</time></trkpt><trkpt lat="42.3937704" lon="12.8077778"><ele>381.5</ele><time>2026-04-03T16:19:59.683Z</time></trkpt><trkpt lat="42.3936125" lon="12.8081256"><ele>382.0</ele><time>2026-04-03T16:20:00.684Z</time></trkpt><trkpt lat="42.3934569" lon="12.808478"><ele>382.0</ele><time>2026-04-03T16:20:01.683Z</time></trkpt><trkpt lat="42.3933139" lon="12.8088311"><ele>382.0</ele><time>2026-04-03T16:20:02.684Z</time></trkpt><trkpt lat="42.3930415" lon="12.8095564"><ele>382.5</ele><time>2026-04-03T16:20:04.684Z</time></trkpt><trkpt lat="42.3929144" lon="12.8099264"><ele>383.0</ele><time>2026-04-03T16:20:05.683Z</time></trkpt><trkpt lat="42.3927937" lon="12.8102991"><ele>382.5</ele><time>2026-04-03T16:20:06.684Z</time></trkpt><trkpt lat="42.392677" lon="12.8106764"><ele>382.0</ele><time>2026-04-03T16:20:07.684Z</time></trkpt><trkpt lat="42.39257" lon="12.8110563"><ele>382.0</ele><time>2026-04-03T16:20:08.684Z</time></trkpt><trkpt lat="42.3924623" lon="12.8114427"><ele>382.0</ele><time>2026-04-03T16:20:09.683Z</time></trkpt><trkpt lat="42.3923636" lon="12.8118294"><ele>382.5</ele><time>2026-04-03T16:20:10.683Z</time></trkpt><trkpt lat="42.3922722" lon="12.8122192"><ele>383.0</ele><time>2026-04-03T16:20:11.683Z</time></trkpt><trkpt lat="42.3921861" lon="12.8126116"><ele>383.0</ele><time>2026-04-03T16:20:12.683Z</time></trkpt><trkpt lat="42.3921087" lon="12.8130096"><ele>383.0</ele><time>2026-04-03T16:20:13.684Z</time></trkpt><trkpt lat="42.3920425" lon="12.8134071"><ele>383.0</ele><time>2026-04-03T16:20:14.684Z</time></trkpt><trkpt lat="42.3919804" lon="12.8138047"><ele>383.0</ele><time>2026-04-03T16:20:15.684Z</time></trkpt><trkpt lat="42.3919254" lon="12.814207"><ele>382.5</ele><time>2026-04-03T16:20:16.684Z</time></trkpt><trkpt lat="42.3918749" lon="12.8146086"><ele>382.0</ele><time>2026-04-03T16:20:17.684Z</time></trkpt><trkpt lat="42.3918319" lon="12.8150078"><ele>382.5</ele><time>2026-04-03T16:20:18.683Z</time></trkpt><trkpt lat="42.3917951" lon="12.8154119"><ele>383.0</ele><time>2026-04-03T16:20:19.684Z</time></trkpt><trkpt lat="42.3917666" lon="12.8158196"><ele>383.0</ele><time>2026-04-03T16:20:20.684Z</time></trkpt><trkpt lat="42.391752" lon="12.8162235"><ele>383.0</ele><time>2026-04-03T16:20:21.684Z</time></trkpt><trkpt lat="42.3917383" lon="12.8166265"><ele>383.0</ele><time>2026-04-03T16:20:22.684Z</time></trkpt><trkpt lat="42.3917333" lon="12.8170347"><ele>383.0</ele><time>2026-04-03T16:20:23.684Z</time></trkpt><trkpt lat="42.3917358" lon="12.8174389"><ele>383.0</ele><time>2026-04-03T16:20:24.683Z</time></trkpt><trkpt lat="42.391739" lon="12.8178454"><ele>383.0</ele><time>2026-04-03T16:20:25.684Z</time></trkpt><trkpt lat="42.3917357" lon="12.8182539"><ele>383.0</ele><time>2026-04-03T16:20:26.683Z</time></trkpt><trkpt lat="42.3917297" lon="12.8186595"><ele>383.0</ele><time>2026-04-03T16:20:27.684Z</time></trkpt><trkpt lat="42.3917264" lon="12.8190654"><ele>382.5</ele><time>2026-04-03T16:20:28.684Z</time></trkpt><trkpt lat="42.3917272" lon="12.8194752"><ele>382.0</ele><time>2026-04-03T16:20:29.684Z</time></trkpt><trkpt lat="42.3917302" lon="12.8198847"><ele>382.0</ele><time>2026-04-03T16:20:30.684Z</time></trkpt><trkpt lat="42.3917311" lon="12.8202931"><ele>382.0</ele><time>2026-04-03T16:20:31.683Z</time></trkpt><trkpt lat="42.3917342" lon="12.8207019"><ele>382.0</ele><time>2026-04-03T16:20:32.684Z</time></trkpt><trkpt lat="42.3917376" lon="12.821109"><ele>382.0</ele><time>2026-04-03T16:20:33.683Z</time></trkpt><trkpt lat="42.3917385" lon="12.8215173"><ele>382.5</ele><time>2026-04-03T16:20:34.684Z</time></trkpt><trkpt lat="42.3917402" lon="12.8219254"><ele>383.0</ele><time>2026-04-03T16:20:35.684Z</time></trkpt><trkpt lat="42.3917441" lon="12.8223336"><ele>383.0</ele><time>2026-04-03T16:20:36.684Z</time></trkpt><trkpt lat="42.3917482" lon="12.8227411"><ele>383.0</ele><time>2026-04-03T16:20:37.684Z</time></trkpt><trkpt lat="42.3917544" lon="12.8231377"><ele>382.5</ele><time>2026-04-03T16:20:38.684Z</time></trkpt><trkpt lat="42.3917611" lon="12.8235157"><ele>382.0</ele><time>2026-04-03T16:20:39.683Z</time></trkpt><trkpt lat="42.3917661" lon="12.8238635"><ele>382.0</ele><time>2026-04-03T16:20:40.684Z</time></trkpt><trkpt lat="42.3917699" lon="12.8241942"><ele>382.0</ele><time>2026-04-03T16:20:41.684Z</time></trkpt><trkpt lat="42.3917745" lon="12.8245078"><ele>382.3333333333333</ele><time>2026-04-03T16:20:42.684Z</time></trkpt><trkpt lat="42.3917723" lon="12.8248059"><ele>382.6666666666667</ele><time>2026-04-03T16:20:43.684Z</time></trkpt><trkpt lat="42.3917726" lon="12.8250885"><ele>383.0</ele><time>2026-04-03T16:20:44.684Z</time></trkpt><trkpt lat="42.3917707" lon="12.8253663"><ele>383.0</ele><time>2026-04-03T16:20:45.684Z</time></trkpt><trkpt lat="42.3917726" lon="12.8256561"><ele>383.0</ele><time>2026-04-03T16:20:46.684Z</time></trkpt><trkpt lat="42.391774" lon="12.8259606"><ele>383.0</ele><time>2026-04-03T16:20:47.683Z</time></trkpt><trkpt lat="42.3917792" lon="12.8262874"><ele>383.0</ele><time>2026-04-03T16:20:48.684Z</time></trkpt><trkpt lat="42.3917788" lon="12.8266201"><ele>383.0</ele><time>2026-04-03T16:20:49.684Z</time></trkpt><trkpt lat="42.3917805" lon="12.8269648"><ele>383.0</ele><time>2026-04-03T16:20:50.683Z</time></trkpt><trkpt lat="42.3917837" lon="12.8273079"><ele>383.0</ele><time>2026-04-03T16:20:51.684Z</time></trkpt><trkpt lat="42.3917862" lon="12.8276545"><ele>383.0</ele><time>2026-04-03T16:20:52.683Z</time></trkpt><trkpt lat="42.391788" lon="12.8280036"><ele>383.0</ele><time>2026-04-03T16:20:53.684Z</time></trkpt><trkpt lat="42.3917889" lon="12.8283549"><ele>382.5</ele><time>2026-04-03T16:20:54.683Z</time></trkpt><trkpt lat="42.3917925" lon="12.8287151"><ele>382.0</ele><time>2026-04-03T16:20:55.683Z</time></trkpt><trkpt lat="42.3917961" lon="12.8290797"><ele>383.0</ele><time>2026-04-03T16:20:56.684Z</time></trkpt><trkpt lat="42.3918018" lon="12.8294459"><ele>384.0</ele><time>2026-04-03T16:20:57.683Z</time></trkpt><trkpt lat="42.3918113" lon="12.8298154"><ele>384.5</ele><time>2026-04-03T16:20:58.683Z</time></trkpt><trkpt lat="42.391826" lon="12.8301871"><ele>385.0</ele><time>2026-04-03T16:20:59.684Z</time></trkpt><trkpt lat="42.3918506" lon="12.8305645"><ele>385.0</ele><time>2026-04-03T16:21:00.684Z</time></trkpt><trkpt lat="42.3918871" lon="12.8309503"><ele>385.0</ele><time>2026-04-03T16:21:01.684Z</time></trkpt><trkpt lat="42.3919308" lon="12.8313389"><ele>385.5</ele><time>2026-04-03T16:21:02.683Z</time></trkpt><trkpt lat="42.3919838" lon="12.8317383"><ele>386.0</ele><time>2026-04-03T16:21:03.684Z</time></trkpt><trkpt lat="42.3920342" lon="12.832146"><ele>386.0</ele><time>2026-04-03T16:21:04.683Z</time></trkpt><trkpt lat="42.3920783" lon="12.8325568"><ele>386.0</ele><time>2026-04-03T16:21:05.684Z</time></trkpt><trkpt lat="42.3921205" lon="12.8329616"><ele>385.0</ele><time>2026-04-03T16:21:06.683Z</time></trkpt><trkpt lat="42.3921469" lon="12.8333613"><ele>384.0</ele><time>2026-04-03T16:21:07.684Z</time></trkpt><trkpt lat="42.3921506" lon="12.8337428"><ele>384.0</ele><time>2026-04-03T16:21:08.683Z</time></trkpt><trkpt lat="42.3921424" lon="12.8341126"><ele>384.0</ele><time>2026-04-03T16:21:09.683Z</time></trkpt><trkpt lat="42.3921194" lon="12.8344768"><ele>384.5</ele><time>2026-04-03T16:21:10.684Z</time></trkpt><trkpt lat="42.3920795" lon="12.8348358"><ele>385.0</ele><time>2026-04-03T16:21:11.683Z</time></trkpt><trkpt lat="42.3920229" lon="12.8351868"><ele>385.5</ele><time>2026-04-03T16:21:12.684Z</time></trkpt><trkpt lat="42.3919578" lon="12.8355377"><ele>386.0</ele><time>2026-04-03T16:21:13.684Z</time></trkpt><trkpt lat="42.3918695" lon="12.8358843"><ele>386.0</ele><time>2026-04-03T16:21:14.683Z</time></trkpt><trkpt lat="42.3917656" lon="12.8362221"><ele>386.0</ele><time>2026-04-03T16:21:15.684Z</time></trkpt><trkpt lat="42.391648" lon="12.8365434"><ele>386.0</ele><time>2026-04-03T16:21:16.683Z</time></trkpt><trkpt lat="42.3915246" lon="12.8368486"><ele>386.0</ele><time>2026-04-03T16:21:17.683Z</time></trkpt><trkpt lat="42.391409" lon="12.8371361"><ele>386.5</ele><time>2026-04-03T16:21:18.683Z</time></trkpt><trkpt lat="42.3912859" lon="12.8374257"><ele>387.0</ele><time>2026-04-03T16:21:19.684Z</time></trkpt><trkpt lat="42.391159" lon="12.8377206"><ele>387.0</ele><time>2026-04-03T16:21:20.684Z</time></trkpt><trkpt lat="42.3910341" lon="12.8380086"><ele>387.0</ele><time>2026-04-03T16:21:21.684Z</time></trkpt><trkpt lat="42.3909256" lon="12.8382792"><ele>386.66666666666663</ele><time>2026-04-03T16:21:22.684Z</time></trkpt><trkpt lat="42.3908423" lon="12.838535"><ele>386.3333333333333</ele><time>2026-04-03T16:21:23.683Z</time></trkpt><trkpt lat="42.390772" lon="12.8387861"><ele>386.0</ele><time>2026-04-03T16:21:24.684Z</time></trkpt><trkpt lat="42.3907145" lon="12.8390306"><ele>386.0</ele><time>2026-04-03T16:21:25.684Z</time></trkpt><trkpt lat="42.390663" lon="12.8392759"><ele>386.0</ele><time>2026-04-03T16:21:26.683Z</time></trkpt><trkpt lat="42.3906155" lon="12.8395335"><ele>386.0</ele><time>2026-04-03T16:21:27.683Z</time></trkpt><trkpt lat="42.3905665" lon="12.8398107"><ele>386.0</ele><time>2026-04-03T16:21:28.684Z</time></trkpt><trkpt lat="42.3905235" lon="12.8400983"><ele>386.0</ele><time>2026-04-03T16:21:29.684Z</time></trkpt><trkpt lat="42.3904965" lon="12.8404066"><ele>386.0</ele><time>2026-04-03T16:21:30.684Z</time></trkpt><trkpt lat="42.3904821" lon="12.8407343"><ele>385.5</ele><time>2026-04-03T16:21:31.684Z</time></trkpt><trkpt lat="42.3904862" lon="12.8410841"><ele>385.0</ele><time>2026-04-03T16:21:32.684Z</time></trkpt><trkpt lat="42.3904962" lon="12.8414389"><ele>385.0</ele><time>2026-04-03T16:21:33.683Z</time></trkpt><trkpt lat="42.3905079" lon="12.8417723"><ele>385.0</ele><time>2026-04-03T16:21:34.684Z</time></trkpt><trkpt lat="42.3905204" lon="12.8420888"><ele>385.6666666666667</ele><time>2026-04-03T16:21:35.684Z</time></trkpt><trkpt lat="42.3905359" lon="12.8423961"><ele>386.33333333333337</ele><time>2026-04-03T16:21:36.684Z</time></trkpt><trkpt lat="42.3905537" lon="12.8426929"><ele>387.0</ele><time>2026-04-03T16:21:37.684Z</time></trkpt><trkpt lat="42.3905714" lon="12.8429758"><ele>387.0</ele><time>2026-04-03T16:21:38.684Z</time></trkpt><trkpt lat="42.3905861" lon="12.8432384"><ele>387.0</ele><time>2026-04-03T16:21:39.683Z</time></trkpt><trkpt lat="42.3906004" lon="12.8435037"><ele>387.0</ele><time>2026-04-03T16:21:40.684Z</time></trkpt><trkpt lat="42.3906122" lon="12.8437787"><ele>386.66666666666663</ele><time>2026-04-03T16:21:41.684Z</time></trkpt><trkpt lat="42.3906273" lon="12.8440518"><ele>386.3333333333333</ele><time>2026-04-03T16:21:42.683Z</time></trkpt><trkpt lat="42.3906413" lon="12.8443081"><ele>386.0</ele><time>2026-04-03T16:21:43.684Z</time></trkpt><trkpt lat="42.3906539" lon="12.8445498"><ele>385.66666666666663</ele><time>2026-04-03T16:21:44.683Z</time></trkpt><trkpt lat="42.3906688" lon="12.8447773"><ele>385.33333333333337</ele><time>2026-04-03T16:21:45.684Z</time></trkpt><trkpt lat="42.3906951" lon="12.8450038"><ele>385.0</ele><time>2026-04-03T16:21:46.683Z</time></trkpt><trkpt lat="42.3907254" lon="12.8452276"><ele>385.0</ele><time>2026-04-03T16:21:47.684Z</time></trkpt><trkpt lat="42.3907632" lon="12.8454573"><ele>385.0</ele><time>2026-04-03T16:21:48.683Z</time></trkpt><trkpt lat="42.3907991" lon="12.8456886"><ele>385.0</ele><time>2026-04-03T16:21:49.684Z</time></trkpt><trkpt lat="42.3908402" lon="12.8459113"><ele>385.33333333333337</ele><time>2026-04-03T16:21:50.684Z</time></trkpt><trkpt lat="42.3908875" lon="12.8461263"><ele>385.66666666666663</ele><time>2026-04-03T16:21:51.684Z</time></trkpt><trkpt lat="42.3909388" lon="12.8463373"><ele>386.0</ele><time>2026-04-03T16:21:52.684Z</time></trkpt><trkpt lat="42.39099" lon="12.8465473"><ele>386.0</ele><time>2026-04-03T16:21:53.683Z</time></trkpt><trkpt lat="42.3910452" lon="12.8467658"><ele>386.0</ele><time>2026-04-03T16:21:54.683Z</time></trkpt><trkpt lat="42.3911044" lon="12.8469866"><ele>386.0</ele><time>2026-04-03T16:21:55.684Z</time></trkpt><trkpt lat="42.3911703" lon="12.8471922"><ele>385.66666666666663</ele><time>2026-04-03T16:21:56.684Z</time></trkpt><trkpt lat="42.3912362" lon="12.8473897"><ele>385.33333333333337</ele><time>2026-04-03T16:21:57.683Z</time></trkpt><trkpt lat="42.391304" lon="12.8475882"><ele>385.0</ele><time>2026-04-03T16:21:58.684Z</time></trkpt><trkpt lat="42.3913764" lon="12.8477904"><ele>385.6666666666667</ele><time>2026-04-03T16:21:59.684Z</time></trkpt><trkpt lat="42.391444" lon="12.848011"><ele>386.33333333333337</ele><time>2026-04-03T16:22:00.683Z</time></trkpt><trkpt lat="42.3914888" lon="12.8482598"><ele>387.0</ele><time>2026-04-03T16:22:01.684Z</time></trkpt><trkpt lat="42.3915081" lon="12.848495"><ele>387.0</ele><time>2026-04-03T16:22:02.684Z</time></trkpt><trkpt lat="42.3915011" lon="12.8487249"><ele>387.0</ele><time>2026-04-03T16:22:03.683Z</time></trkpt><trkpt lat="42.3914789" lon="12.8489542"><ele>387.0</ele><time>2026-04-03T16:22:04.684Z</time></trkpt><trkpt lat="42.3914372" lon="12.8491885"><ele>387.0</ele><time>2026-04-03T16:22:05.684Z</time></trkpt><trkpt lat="42.3913658" lon="12.8493983"><ele>387.0</ele><time>2026-04-03T16:22:06.683Z</time></trkpt><trkpt lat="42.3912796" lon="12.8495877"><ele>387.0</ele><time>2026-04-03T16:22:07.684Z</time></trkpt><trkpt lat="42.3911712" lon="12.8497678"><ele>387.0</ele><time>2026-04-03T16:22:08.683Z</time></trkpt><trkpt lat="42.391043" lon="12.8499508"><ele>387.0</ele><time>2026-04-03T16:22:09.683Z</time></trkpt><trkpt lat="42.3908899" lon="12.8501233"><ele>387.0</ele><time>2026-04-03T16:22:10.684Z</time></trkpt><trkpt lat="42.3907215" lon="12.8503023"><ele>387.0</ele><time>2026-04-03T16:22:11.684Z</time></trkpt><trkpt lat="42.3905458" lon="12.8504802"><ele>387.0</ele><time>2026-04-03T16:22:12.683Z</time></trkpt><trkpt lat="42.3903631" lon="12.8506709"><ele>392.5</ele><time>2026-04-03T16:22:13.684Z</time></trkpt><trkpt lat="42.3901671" lon="12.8508621"><ele>398.0</ele><time>2026-04-03T16:22:14.684Z</time></trkpt><trkpt lat="42.3899687" lon="12.8510595"><ele>400.5</ele><time>2026-04-03T16:22:15.683Z</time></trkpt><trkpt lat="42.3897683" lon="12.8512567"><ele>403.0</ele><time>2026-04-03T16:22:16.684Z</time></trkpt><trkpt lat="42.3507264" lon="12.8549494"><ele>409.0</ele><time>2026-04-03T16:24:29.773Z</time></trkpt><trkpt lat="42.3485739" lon="12.8548978"><ele>410.0</ele><time>2026-04-03T16:24:36.051Z</time></trkpt><trkpt lat="42.3476052" lon="12.8544989"><ele>410.0</ele><time>2026-04-03T16:24:38.682Z</time></trkpt><trkpt lat="42.3473131" lon="12.8546268"><ele>410.0</ele><time>2026-04-03T16:24:39.682Z</time></trkpt><trkpt lat="42.347024" lon="12.8547536"><ele>411.5</ele><time>2026-04-03T16:24:40.682Z</time></trkpt><trkpt lat="42.3467723" lon="12.8548586"><ele>413.0</ele><time>2026-04-03T16:24:41.683Z</time></trkpt><trkpt lat="42.3465438" lon="12.8549505"><ele>415.5</ele><time>2026-04-03T16:24:42.682Z</time></trkpt><trkpt lat="42.3463234" lon="12.855037"><ele>418.0</ele><time>2026-04-03T16:24:43.683Z</time></trkpt><trkpt lat="42.3461036" lon="12.8551175"><ele>415.0</ele><time>2026-04-03T16:24:44.683Z</time></trkpt><trkpt lat="42.3458802" lon="12.855196"><ele>412.0</ele><time>2026-04-03T16:24:45.683Z</time></trkpt><trkpt lat="42.3456337" lon="12.8552614"><ele>412.5</ele><time>2026-04-03T16:24:46.682Z</time></trkpt><trkpt lat="42.3453769" lon="12.8553224"><ele>413.0</ele><time>2026-04-03T16:24:47.682Z</time></trkpt><trkpt lat="42.3451192" lon="12.8553689"><ele>413.0</ele><time>2026-04-03T16:24:48.682Z</time></trkpt><trkpt lat="42.3448581" lon="12.8554025"><ele>413.0</ele><time>2026-04-03T16:24:49.683Z</time></trkpt><trkpt lat="42.3445951" lon="12.85543"><ele>413.5</ele><time>2026-04-03T16:24:50.682Z</time></trkpt><trkpt lat="42.3443297" lon="12.8554617"><ele>414.0</ele><time>2026-04-03T16:24:51.683Z</time></trkpt><trkpt lat="42.3440628" lon="12.8554975"><ele>414.0</ele><time>2026-04-03T16:24:52.683Z</time></trkpt><trkpt lat="42.343797" lon="12.8555325"><ele>414.0</ele><time>2026-04-03T16:24:53.682Z</time></trkpt><trkpt lat="42.3435304" lon="12.8555662"><ele>414.0</ele><time>2026-04-03T16:24:54.683Z</time></trkpt><trkpt lat="42.3432649" lon="12.8555975"><ele>414.0</ele><time>2026-04-03T16:24:55.683Z</time></trkpt><trkpt lat="42.343003" lon="12.8556281"><ele>416.0</ele><time>2026-04-03T16:24:56.683Z</time></trkpt><trkpt lat="42.3427361" lon="12.8556606"><ele>418.0</ele><time>2026-04-03T16:24:57.682Z</time></trkpt><trkpt lat="42.3424639" lon="12.8556945"><ele>421.0</ele><time>2026-04-03T16:24:58.683Z</time></trkpt><trkpt lat="42.342193" lon="12.8557304"><ele>424.0</ele><time>2026-04-03T16:24:59.683Z</time></trkpt><trkpt lat="42.3419206" lon="12.8557678"><ele>424.0</ele><time>2026-04-03T16:25:00.683Z</time></trkpt><trkpt lat="42.3416435" lon="12.8558062"><ele>424.0</ele><time>2026-04-03T16:25:01.683Z</time></trkpt><trkpt lat="42.3413598" lon="12.8558435"><ele>425.5</ele><time>2026-04-03T16:25:02.683Z</time></trkpt><trkpt lat="42.3410711" lon="12.8558804"><ele>427.0</ele><time>2026-04-03T16:25:03.682Z</time></trkpt><trkpt lat="42.340789" lon="12.855914"><ele>421.5</ele><time>2026-04-03T16:25:04.682Z</time></trkpt><trkpt lat="42.3405139" lon="12.8559513"><ele>416.0</ele><time>2026-04-03T16:25:05.682Z</time></trkpt><trkpt lat="42.340239" lon="12.8559861"><ele>416.0</ele><time>2026-04-03T16:25:06.682Z</time></trkpt><trkpt lat="42.3399643" lon="12.8560236"><ele>416.0</ele><time>2026-04-03T16:25:07.682Z</time></trkpt><trkpt lat="42.3396877" lon="12.8560591"><ele>418.5</ele><time>2026-04-03T16:25:08.682Z</time></trkpt><trkpt lat="42.3394083" lon="12.8560928"><ele>421.0</ele><time>2026-04-03T16:25:09.683Z</time></trkpt><trkpt lat="42.3391331" lon="12.8561243"><ele>421.5</ele><time>2026-04-03T16:25:10.683Z</time></trkpt><trkpt lat="42.3388594" lon="12.8561567"><ele>422.0</ele><time>2026-04-03T16:25:11.682Z</time></trkpt><trkpt lat="42.3385966" lon="12.8561903"><ele>422.0</ele><time>2026-04-03T16:25:12.682Z</time></trkpt><trkpt lat="42.3383515" lon="12.8562198"><ele>422.0</ele><time>2026-04-03T16:25:13.682Z</time></trkpt><trkpt lat="42.3381275" lon="12.8562453"><ele>421.3333333333333</ele><time>2026-04-03T16:25:14.682Z</time></trkpt><trkpt lat="42.3379243" lon="12.8562695"><ele>420.66666666666663</ele><time>2026-04-03T16:25:15.683Z</time></trkpt><trkpt lat="42.3377562" lon="12.8562881"><ele>420.0</ele><time>2026-04-03T16:25:16.682Z</time></trkpt><trkpt lat="42.337623" lon="12.8563036"><ele>420.0</ele><time>2026-04-03T16:25:17.683Z</time></trkpt><trkpt lat="42.3375262" lon="12.856315"><ele>420.0</ele><time>2026-04-03T16:25:18.683Z</time></trkpt><trkpt lat="42.3374533" lon="12.8563223"><ele>420.0</ele><time>2026-04-03T16:25:19.683Z</time></trkpt><trkpt lat="42.3373836" lon="12.856326"><ele>420.0</ele><time>2026-04-03T16:25:21.683Z</time></trkpt><trkpt lat="42.3373001" lon="12.8563883"><ele>420.0</ele><time>2026-04-03T16:27:42.683Z</time></trkpt><trkpt lat="42.3373432" lon="12.8564613"><ele>420.0</ele><time>2026-04-03T16:27:46.683Z</time></trkpt><trkpt lat="42.3374169" lon="12.8564423"><ele>420.0</ele><time>2026-04-03T16:27:47.683Z</time></trkpt><trkpt lat="42.33753" lon="12.856411"><ele>420.0</ele><time>2026-04-03T16:27:48.683Z</time></trkpt><trkpt lat="42.3376652" lon="12.8563801"><ele>420.0</ele><time>2026-04-03T16:27:49.683Z</time></trkpt><trkpt lat="42.3378356" lon="12.8563466"><ele>420.0</ele><time>2026-04-03T16:27:50.683Z</time></trkpt><trkpt lat="42.3380329" lon="12.856315"><ele>421.0</ele><time>2026-04-03T16:27:51.682Z</time></trkpt><trkpt lat="42.3382544" lon="12.8562819"><ele>422.0</ele><time>2026-04-03T16:27:52.682Z</time></trkpt><trkpt lat="42.3385028" lon="12.8562435"><ele>422.0</ele><time>2026-04-03T16:27:53.683Z</time></trkpt><trkpt lat="42.3387721" lon="12.8562105"><ele>422.0</ele><time>2026-04-03T16:27:54.682Z</time></trkpt><trkpt lat="42.3390493" lon="12.8561826"><ele>421.5</ele><time>2026-04-03T16:27:55.683Z</time></trkpt><trkpt lat="42.339336" lon="12.8561426"><ele>421.0</ele><time>2026-04-03T16:27:56.683Z</time></trkpt><trkpt lat="42.3396377" lon="12.8561066"><ele>418.5</ele><time>2026-04-03T16:27:57.683Z</time></trkpt><trkpt lat="42.3399558" lon="12.85607"><ele>416.0</ele><time>2026-04-03T16:27:58.683Z</time></trkpt><trkpt lat="42.3402739" lon="12.8560333"><ele>416.0</ele><time>2026-04-03T16:27:59.683Z</time></trkpt><trkpt lat="42.3405837" lon="12.8559971"><ele>416.0</ele><time>2026-04-03T16:28:00.683Z</time></trkpt><trkpt lat="42.3408903" lon="12.8559571"><ele>420.0</ele><time>2026-04-03T16:28:01.683Z</time></trkpt><trkpt lat="42.3411904" lon="12.8559115"><ele>424.0</ele><time>2026-04-03T16:28:02.682Z</time></trkpt><trkpt lat="42.3414799" lon="12.8558762"><ele>424.0</ele><time>2026-04-03T16:28:03.682Z</time></trkpt><trkpt lat="42.3417692" lon="12.8558348"><ele>424.0</ele><time>2026-04-03T16:28:04.682Z</time></trkpt><trkpt lat="42.3420542" lon="12.8558017"><ele>421.0</ele><time>2026-04-03T16:28:05.682Z</time></trkpt><trkpt lat="42.3423356" lon="12.8557627"><ele>418.0</ele><time>2026-04-03T16:28:06.683Z</time></trkpt><trkpt lat="42.3426062" lon="12.8557292"><ele>418.0</ele><time>2026-04-03T16:28:07.683Z</time></trkpt><trkpt lat="42.3428703" lon="12.8556898"><ele>418.0</ele><time>2026-04-03T16:28:08.683Z</time></trkpt><trkpt lat="42.3431324" lon="12.8556562"><ele>416.0</ele><time>2026-04-03T16:28:09.682Z</time></trkpt><trkpt lat="42.3433831" lon="12.8556209"><ele>414.0</ele><time>2026-04-03T16:28:10.683Z</time></trkpt><trkpt lat="42.3436309" lon="12.8555764"><ele>414.0</ele><time>2026-04-03T16:28:11.682Z</time></trkpt><trkpt lat="42.3438847" lon="12.8555411"><ele>414.0</ele><time>2026-04-03T16:28:12.683Z</time></trkpt><trkpt lat="42.3441418" lon="12.8555073"><ele>414.0</ele><time>2026-04-03T16:28:13.682Z</time></trkpt><trkpt lat="42.3444053" lon="12.8554811"><ele>414.0</ele><time>2026-04-03T16:28:14.683Z</time></trkpt><trkpt lat="42.3446747" lon="12.8554585"><ele>413.5</ele><time>2026-04-03T16:28:15.683Z</time></trkpt><trkpt lat="42.3449432" lon="12.8554254"><ele>413.0</ele><time>2026-04-03T16:28:16.683Z</time></trkpt><trkpt lat="42.3452154" lon="12.8553904"><ele>412.0</ele><time>2026-04-03T16:28:17.682Z</time></trkpt><trkpt lat="42.3457279" lon="12.8552918"><ele>412.0</ele><time>2026-04-03T16:28:19.682Z</time></trkpt><trkpt lat="42.3459493" lon="12.8552169"><ele>412.0</ele><time>2026-04-03T16:28:20.683Z</time></trkpt><trkpt lat="42.3461562" lon="12.8551381"><ele>412.0</ele><time>2026-04-03T16:28:21.683Z</time></trkpt><trkpt lat="42.3463579" lon="12.8550574"><ele>412.33333333333337</ele><time>2026-04-03T16:28:22.683Z</time></trkpt><trkpt lat="42.3465477" lon="12.8549853"><ele>412.66666666666663</ele><time>2026-04-03T16:28:23.682Z</time></trkpt><trkpt lat="42.3467343" lon="12.85491"><ele>413.0</ele><time>2026-04-03T16:28:24.682Z</time></trkpt><trkpt lat="42.3469205" lon="12.8548322"><ele>413.0</ele><time>2026-04-03T16:28:25.683Z</time></trkpt><trkpt lat="42.3470962" lon="12.8547591"><ele>413.0</ele><time>2026-04-03T16:28:26.683Z</time></trkpt><trkpt lat="42.3472644" lon="12.8546898"><ele>413.0</ele><time>2026-04-03T16:28:27.682Z</time></trkpt><trkpt lat="42.3474351" lon="12.8546194"><ele>411.5</ele><time>2026-04-03T16:28:28.683Z</time></trkpt><trkpt lat="42.347615" lon="12.8545452"><ele>410.0</ele><time>2026-04-03T16:28:29.683Z</time></trkpt><trkpt lat="42.3479751" lon="12.8544005"><ele>409.66666666666663</ele><time>2026-04-03T16:28:31.683Z</time></trkpt><trkpt lat="42.3481491" lon="12.8543307"><ele>409.33333333333337</ele><time>2026-04-03T16:28:32.683Z</time></trkpt><trkpt lat="42.348319" lon="12.8542629"><ele>409.0</ele><time>2026-04-03T16:28:33.683Z</time></trkpt><trkpt lat="42.3484898" lon="12.8541986"><ele>408.33333333333337</ele><time>2026-04-03T16:28:34.682Z</time></trkpt><trkpt lat="42.3486609" lon="12.8541343"><ele>407.66666666666663</ele><time>2026-04-03T16:28:35.682Z</time></trkpt><trkpt lat="42.3488337" lon="12.8540747"><ele>407.0</ele><time>2026-04-03T16:28:36.682Z</time></trkpt><trkpt lat="42.3490058" lon="12.854012"><ele>407.0</ele><time>2026-04-03T16:28:37.683Z</time></trkpt><trkpt lat="42.3491835" lon="12.8539522"><ele>407.0</ele><time>2026-04-03T16:28:38.682Z</time></trkpt><trkpt lat="42.3495845" lon="12.853836"><ele>406.5</ele><time>2026-04-03T16:28:40.683Z</time></trkpt><trkpt lat="42.3498148" lon="12.8537827"><ele>406.0</ele><time>2026-04-03T16:28:41.682Z</time></trkpt><trkpt lat="42.3500599" lon="12.8537293"><ele>406.0</ele><time>2026-04-03T16:28:42.683Z</time></trkpt><trkpt lat="42.3503165" lon="12.8536881"><ele>406.0</ele><time>2026-04-03T16:28:43.683Z</time></trkpt><trkpt lat="42.3505858" lon="12.8536449"><ele>405.5</ele><time>2026-04-03T16:28:44.682Z</time></trkpt><trkpt lat="42.3508621" lon="12.853596"><ele>405.0</ele><time>2026-04-03T16:28:45.683Z</time></trkpt><trkpt lat="42.3511473" lon="12.853549"><ele>405.5</ele><time>2026-04-03T16:28:46.683Z</time></trkpt><trkpt lat="42.351437" lon="12.8534981"><ele>406.0</ele><time>2026-04-03T16:28:47.683Z</time></trkpt><trkpt lat="42.3517366" lon="12.8534392"><ele>398.0</ele><time>2026-04-03T16:28:48.682Z</time></trkpt><trkpt lat="42.3901851" lon="12.8504112"><ele>387.0</ele><time>2026-04-03T16:30:25.298Z</time></trkpt><trkpt lat="42.3906062" lon="12.8506814"><ele>387.0</ele><time>2026-04-03T16:30:44.682Z</time></trkpt><trkpt lat="42.3907543" lon="12.8505074"><ele>387.0</ele><time>2026-04-03T16:30:45.682Z</time></trkpt><trkpt lat="42.3908914" lon="12.8503408"><ele>387.0</ele><time>2026-04-03T16:30:46.682Z</time></trkpt><trkpt lat="42.3910221" lon="12.8501809"><ele>387.0</ele><time>2026-04-03T16:30:47.682Z</time></trkpt><trkpt lat="42.3911305" lon="12.8500696"><ele>387.0</ele><time>2026-04-03T16:30:48.682Z</time></trkpt><trkpt lat="42.3912338" lon="12.8499649"><ele>387.0</ele><time>2026-04-03T16:30:49.683Z</time></trkpt><trkpt lat="42.3913442" lon="12.8498838"><ele>387.0</ele><time>2026-04-03T16:30:50.683Z</time></trkpt><trkpt lat="42.3914588" lon="12.849828"><ele>387.0</ele><time>2026-04-03T16:30:51.682Z</time></trkpt><trkpt lat="42.3915856" lon="12.8497861"><ele>387.0</ele><time>2026-04-03T16:30:52.682Z</time></trkpt><trkpt lat="42.3917309" lon="12.849768"><ele>387.0</ele><time>2026-04-03T16:30:53.683Z</time></trkpt><trkpt lat="42.3918915" lon="12.8497825"><ele>387.0</ele><time>2026-04-03T16:30:54.682Z</time></trkpt><trkpt lat="42.3920541" lon="12.8498395"><ele>387.0</ele><time>2026-04-03T16:30:55.682Z</time></trkpt><trkpt lat="42.3922077" lon="12.8499307"><ele>387.0</ele><time>2026-04-03T16:30:56.682Z</time></trkpt><trkpt lat="42.3923592" lon="12.8500592"><ele>387.0</ele><time>2026-04-03T16:30:57.682Z</time></trkpt><trkpt lat="42.3924862" lon="12.8502295"><ele>386.33333333333337</ele><time>2026-04-03T16:30:58.683Z</time></trkpt><trkpt lat="42.3925922" lon="12.8504388"><ele>385.6666666666667</ele><time>2026-04-03T16:30:59.683Z</time></trkpt><trkpt lat="42.3926906" lon="12.8506775"><ele>385.0</ele><time>2026-04-03T16:31:00.682Z</time></trkpt><trkpt lat="42.3927895" lon="12.8509444"><ele>385.5</ele><time>2026-04-03T16:31:01.682Z</time></trkpt><trkpt lat="42.3928906" lon="12.8512342"><ele>386.0</ele><time>2026-04-03T16:31:02.682Z</time></trkpt><trkpt lat="42.3929822" lon="12.8515461"><ele>386.0</ele><time>2026-04-03T16:31:03.683Z</time></trkpt><trkpt lat="42.3930618" lon="12.8518671"><ele>386.0</ele><time>2026-04-03T16:31:04.683Z</time></trkpt><trkpt lat="42.3931301" lon="12.8521969"><ele>386.0</ele><time>2026-04-03T16:31:05.682Z</time></trkpt><trkpt lat="42.3931877" lon="12.8525199"><ele>386.0</ele><time>2026-04-03T16:31:06.683Z</time></trkpt><trkpt lat="42.3932347" lon="12.8528262"><ele>386.0</ele><time>2026-04-03T16:31:07.682Z</time></trkpt><trkpt lat="42.3932656" lon="12.8531245"><ele>386.0</ele><time>2026-04-03T16:31:08.683Z</time></trkpt><trkpt lat="42.39329" lon="12.8534256"><ele>386.0</ele><time>2026-04-03T16:31:09.683Z</time></trkpt><trkpt lat="42.393313" lon="12.8537298"><ele>386.0</ele><time>2026-04-03T16:31:10.682Z</time></trkpt><trkpt lat="42.3933214" lon="12.8540513"><ele>386.0</ele><time>2026-04-03T16:31:11.682Z</time></trkpt><trkpt lat="42.3933141" lon="12.8543729"><ele>387.0</ele><time>2026-04-03T16:31:12.683Z</time></trkpt><trkpt lat="42.3933029" lon="12.8547041"><ele>388.0</ele><time>2026-04-03T16:31:13.683Z</time></trkpt><trkpt lat="42.3932911" lon="12.8550402"><ele>388.5</ele><time>2026-04-03T16:31:14.683Z</time></trkpt><trkpt lat="42.3932782" lon="12.8553857"><ele>389.0</ele><time>2026-04-03T16:31:15.683Z</time></trkpt><trkpt lat="42.3932697" lon="12.8557266"><ele>388.0</ele><time>2026-04-03T16:31:16.683Z</time></trkpt><trkpt lat="42.3932609" lon="12.8560496"><ele>387.0</ele><time>2026-04-03T16:31:17.683Z</time></trkpt><trkpt lat="42.3932477" lon="12.8563416"><ele>387.0</ele><time>2026-04-03T16:31:18.682Z</time></trkpt><trkpt lat="42.3932363" lon="12.856632"><ele>387.0</ele><time>2026-04-03T16:31:19.682Z</time></trkpt><trkpt lat="42.3932287" lon="12.8569251"><ele>387.0</ele><time>2026-04-03T16:31:20.683Z</time></trkpt><trkpt lat="42.3932191" lon="12.8572167"><ele>387.0</ele><time>2026-04-03T16:31:21.683Z</time></trkpt><trkpt lat="42.393211" lon="12.8575159"><ele>387.0</ele><time>2026-04-03T16:31:22.682Z</time></trkpt><trkpt lat="42.3932088" lon="12.85783"><ele>387.5</ele><time>2026-04-03T16:31:23.682Z</time></trkpt><trkpt lat="42.3932093" lon="12.8581592"><ele>388.0</ele><time>2026-04-03T16:31:24.683Z</time></trkpt><trkpt lat="42.3932018" lon="12.8584997"><ele>389.0</ele><time>2026-04-03T16:31:25.683Z</time></trkpt><trkpt lat="42.3931988" lon="12.8588547"><ele>390.0</ele><time>2026-04-03T16:31:26.682Z</time></trkpt><trkpt lat="42.3932121" lon="12.859224"><ele>389.0</ele><time>2026-04-03T16:31:27.682Z</time></trkpt><trkpt lat="42.3932451" lon="12.8596062"><ele>388.0</ele><time>2026-04-03T16:31:28.683Z</time></trkpt><trkpt lat="42.3932893" lon="12.8599978"><ele>389.0</ele><time>2026-04-03T16:31:29.683Z</time></trkpt><trkpt lat="42.3934532" lon="12.8607972"><ele>388.5</ele><time>2026-04-03T16:31:31.682Z</time></trkpt><trkpt lat="42.3935732" lon="12.8611895"><ele>388.0</ele><time>2026-04-03T16:31:32.682Z</time></trkpt><trkpt lat="42.3937082" lon="12.8615618"><ele>390.0</ele><time>2026-04-03T16:31:33.683Z</time></trkpt><trkpt lat="42.3938399" lon="12.8619294"><ele>392.0</ele><time>2026-04-03T16:31:34.682Z</time></trkpt><trkpt lat="42.3939722" lon="12.8622887"><ele>392.0</ele><time>2026-04-03T16:31:35.682Z</time></trkpt><trkpt lat="42.3940864" lon="12.8626482"><ele>392.0</ele><time>2026-04-03T16:31:36.682Z</time></trkpt><trkpt lat="42.3941839" lon="12.863014"><ele>392.0</ele><time>2026-04-03T16:31:37.683Z</time></trkpt><trkpt lat="42.3942681" lon="12.8633775"><ele>392.0</ele><time>2026-04-03T16:31:38.683Z</time></trkpt><trkpt lat="42.3943385" lon="12.8637417"><ele>391.5</ele><time>2026-04-03T16:31:39.683Z</time></trkpt><trkpt lat="42.3943979" lon="12.8641111"><ele>391.0</ele><time>2026-04-03T16:31:40.683Z</time></trkpt><trkpt lat="42.3944545" lon="12.8644771"><ele>416.0</ele><time>2026-04-03T16:31:41.683Z</time></trkpt><trkpt lat="42.3945535" lon="12.8651964"><ele>416.0</ele><time>2026-04-03T16:31:43.683Z</time></trkpt><trkpt lat="42.3946034" lon="12.8655595"><ele>416.0</ele><time>2026-04-03T16:31:44.683Z</time></trkpt><trkpt lat="42.3957241" lon="12.8735674"><ele>406.5</ele><time>2026-04-03T16:32:13.683Z</time></trkpt><trkpt lat="42.395797" lon="12.8739869"><ele>397.0</ele><time>2026-04-03T16:32:15.682Z</time></trkpt><trkpt lat="42.3958247" lon="12.8741907"><ele>396.75</ele><time>2026-04-03T16:32:16.683Z</time></trkpt><trkpt lat="42.3958525" lon="12.874376"><ele>396.5</ele><time>2026-04-03T16:32:17.682Z</time></trkpt><trkpt lat="42.3958671" lon="12.8745545"><ele>396.25</ele><time>2026-04-03T16:32:18.683Z</time></trkpt><trkpt lat="42.3958835" lon="12.8747304"><ele>396.0</ele><time>2026-04-03T16:32:19.682Z</time></trkpt><trkpt lat="42.395898" lon="12.8748935"><ele>396.0</ele><time>2026-04-03T16:32:20.683Z</time></trkpt><trkpt lat="42.3959126" lon="12.8750561"><ele>396.0</ele><time>2026-04-03T16:32:21.682Z</time></trkpt><trkpt lat="42.3959212" lon="12.8752113"><ele>396.0</ele><time>2026-04-03T16:32:22.683Z</time></trkpt><trkpt lat="42.3959295" lon="12.8753486"><ele>396.0</ele><time>2026-04-03T16:32:23.682Z</time></trkpt><trkpt lat="42.3959334" lon="12.8754673"><ele>396.0</ele><time>2026-04-03T16:32:24.682Z</time></trkpt><trkpt lat="42.3959301" lon="12.8755742"><ele>395.8571428571429</ele><time>2026-04-03T16:32:25.682Z</time></trkpt><trkpt lat="42.3959226" lon="12.875671"><ele>395.71428571428567</ele><time>2026-04-03T16:32:26.682Z</time></trkpt><trkpt lat="42.3959011" lon="12.8757614"><ele>395.57142857142856</ele><time>2026-04-03T16:32:27.682Z</time></trkpt><trkpt lat="42.3958591" lon="12.8758397"><ele>395.42857142857144</ele><time>2026-04-03T16:32:28.682Z</time></trkpt><trkpt lat="42.3958166" lon="12.8759096"><ele>395.28571428571433</ele><time>2026-04-03T16:32:29.682Z</time></trkpt><trkpt lat="42.3957669" lon="12.8759625"><ele>395.1428571428571</ele><time>2026-04-03T16:32:30.682Z</time></trkpt><trkpt lat="42.3957074" lon="12.876002"><ele>395.0</ele><time>2026-04-03T16:32:31.682Z</time></trkpt><trkpt lat="42.3956411" lon="12.8760343"><ele>394.99999999999994</ele><time>2026-04-03T16:32:32.683Z</time></trkpt><trkpt lat="42.3955744" lon="12.8760595"><ele>395.0</ele><time>2026-04-03T16:32:33.682Z</time></trkpt><trkpt lat="42.3955104" lon="12.8760734"><ele>395.0</ele><time>2026-04-03T16:32:34.683Z</time></trkpt><trkpt lat="42.3954469" lon="12.8760775"><ele>395.0</ele><time>2026-04-03T16:32:35.682Z</time></trkpt><trkpt lat="42.3953321" lon="12.8760248"><ele>394.99999999999994</ele><time>2026-04-03T16:32:37.683Z</time></trkpt><trkpt lat="42.3952516" lon="12.8759694"><ele>395.0</ele><time>2026-04-03T16:32:39.683Z</time></trkpt><trkpt lat="42.3951798" lon="12.8759766"><ele>395.0</ele><time>2026-04-03T16:32:42.683Z</time></trkpt><trkpt lat="42.3951029" lon="12.8759801"><ele>395.0</ele><time>2026-04-03T16:33:05.683Z</time></trkpt><trkpt lat="42.3950241" lon="12.8760472"><ele>395.0</ele><time>2026-04-03T16:33:08.683Z</time></trkpt><trkpt lat="42.3949642" lon="12.8762455"><ele>395.0</ele><time>2026-04-03T16:33:10.683Z</time></trkpt><trkpt lat="42.3949327" lon="12.8764292"><ele>395.0</ele><time>2026-04-03T16:33:11.683Z</time></trkpt><trkpt lat="42.3948742" lon="12.8766398"><ele>395.0</ele><time>2026-04-03T16:33:12.683Z</time></trkpt><trkpt lat="42.394808" lon="12.8768834"><ele>395.0</ele><time>2026-04-03T16:33:13.683Z</time></trkpt><trkpt lat="42.3947375" lon="12.8771548"><ele>392.5</ele><time>2026-04-03T16:33:14.683Z</time></trkpt><trkpt lat="42.3946721" lon="12.8774411"><ele>390.0</ele><time>2026-04-03T16:33:15.683Z</time></trkpt><trkpt lat="42.3946012" lon="12.8777447"><ele>399.0</ele><time>2026-04-03T16:33:16.682Z</time></trkpt><trkpt lat="42.3945227" lon="12.8780633"><ele>408.0</ele><time>2026-04-03T16:33:17.682Z</time></trkpt><trkpt lat="42.3944125" lon="12.878388"><ele>401.5</ele><time>2026-04-03T16:33:18.683Z</time></trkpt><trkpt lat="42.3942787" lon="12.8787101"><ele>395.0</ele><time>2026-04-03T16:33:19.682Z</time></trkpt><trkpt lat="42.3941539" lon="12.8790295"><ele>394.0</ele><time>2026-04-03T16:33:20.682Z</time></trkpt><trkpt lat="42.3940552" lon="12.8793536"><ele>393.0</ele><time>2026-04-03T16:33:21.683Z</time></trkpt><trkpt lat="42.393978" lon="12.8796619"><ele>393.0</ele><time>2026-04-03T16:33:22.682Z</time></trkpt><trkpt lat="42.3938986" lon="12.8799602"><ele>393.0</ele><time>2026-04-03T16:33:23.683Z</time></trkpt><trkpt lat="42.3937902" lon="12.8802557"><ele>397.5</ele><time>2026-04-03T16:33:24.682Z</time></trkpt><trkpt lat="42.3936657" lon="12.8805362"><ele>402.0</ele><time>2026-04-03T16:33:25.683Z</time></trkpt><trkpt lat="42.3935237" lon="12.8807816"><ele>399.0</ele><time>2026-04-03T16:33:26.683Z</time></trkpt><trkpt lat="42.3933774" lon="12.8809956"><ele>396.0</ele><time>2026-04-03T16:33:27.683Z</time></trkpt><trkpt lat="42.3932292" lon="12.8812121"><ele>393.0</ele><time>2026-04-03T16:33:28.683Z</time></trkpt><trkpt lat="42.3931048" lon="12.8814425"><ele>399.0</ele><time>2026-04-03T16:33:29.682Z</time></trkpt><trkpt lat="42.3930016" lon="12.8817152"><ele>405.0</ele><time>2026-04-03T16:33:30.682Z</time></trkpt><trkpt lat="42.3929031" lon="12.8819773"><ele>411.0</ele><time>2026-04-03T16:33:31.683Z</time></trkpt><trkpt lat="42.3928134" lon="12.8822176"><ele>411.0</ele><time>2026-04-03T16:33:32.682Z</time></trkpt><trkpt lat="42.392732" lon="12.8824455"><ele>411.0</ele><time>2026-04-03T16:33:33.683Z</time></trkpt><trkpt lat="42.3926535" lon="12.8826683"><ele>411.0</ele><time>2026-04-03T16:33:34.683Z</time></trkpt><trkpt lat="42.3925724" lon="12.8829002"><ele>407.0</ele><time>2026-04-03T16:33:35.683Z</time></trkpt><trkpt lat="42.3924933" lon="12.8831466"><ele>403.0</ele><time>2026-04-03T16:33:36.682Z</time></trkpt><trkpt lat="42.3924313" lon="12.8833983"><ele>399.0</ele><time>2026-04-03T16:33:37.683Z</time></trkpt><trkpt lat="42.3923885" lon="12.8836726"><ele>398.0</ele><time>2026-04-03T16:33:38.683Z</time></trkpt><trkpt lat="42.3923667" lon="12.8839731"><ele>397.0</ele><time>2026-04-03T16:33:39.682Z</time></trkpt><trkpt lat="42.3923522" lon="12.8843157"><ele>397.0</ele><time>2026-04-03T16:33:40.683Z</time></trkpt><trkpt lat="42.3923226" lon="12.8846857"><ele>397.0</ele><time>2026-04-03T16:33:41.682Z</time></trkpt><trkpt lat="42.3922403" lon="12.8854159"><ele>395.5</ele><time>2026-04-03T16:33:43.682Z</time></trkpt><trkpt lat="42.3922015" lon="12.8857582"><ele>394.0</ele><time>2026-04-03T16:33:44.683Z</time></trkpt><trkpt lat="42.3921578" lon="12.8860974"><ele>408.5</ele><time>2026-04-03T16:33:45.683Z</time></trkpt><trkpt lat="42.392102" lon="12.8864117"><ele>423.0</ele><time>2026-04-03T16:33:46.682Z</time></trkpt><trkpt lat="42.3920336" lon="12.8867011"><ele>415.66666666666663</ele><time>2026-04-03T16:33:47.683Z</time></trkpt><trkpt lat="42.3919701" lon="12.8869513"><ele>408.3333333333333</ele><time>2026-04-03T16:33:48.683Z</time></trkpt><trkpt lat="42.3918904" lon="12.8871819"><ele>401.0</ele><time>2026-04-03T16:33:49.683Z</time></trkpt><trkpt lat="42.3917721" lon="12.8874005"><ele>395.0</ele><time>2026-04-03T16:33:50.683Z</time></trkpt><trkpt lat="42.3914294" lon="12.8878165"><ele>395.66666666666663</ele><time>2026-04-03T16:33:52.682Z</time></trkpt><trkpt lat="42.3912487" lon="12.8879908"><ele>396.33333333333337</ele><time>2026-04-03T16:33:53.682Z</time></trkpt><trkpt lat="42.3910685" lon="12.8881433"><ele>397.0</ele><time>2026-04-03T16:33:54.682Z</time></trkpt><trkpt lat="42.3909158" lon="12.8883082"><ele>395.0</ele><time>2026-04-03T16:33:55.683Z</time></trkpt><trkpt lat="42.3907935" lon="12.8884967"><ele>393.0</ele><time>2026-04-03T16:33:56.682Z</time></trkpt><trkpt lat="42.3906886" lon="12.8887276"><ele>391.0</ele><time>2026-04-03T16:33:57.682Z</time></trkpt><trkpt lat="42.3905935" lon="12.888994"><ele>405.0</ele><time>2026-04-03T16:33:58.683Z</time></trkpt><trkpt lat="42.3904846" lon="12.8892852"><ele>419.0</ele><time>2026-04-03T16:33:59.683Z</time></trkpt><trkpt lat="42.3903742" lon="12.8895851"><ele>419.0</ele><time>2026-04-03T16:34:00.683Z</time></trkpt><trkpt lat="42.3902445" lon="12.8898779"><ele>419.0</ele><time>2026-04-03T16:34:01.682Z</time></trkpt><trkpt lat="42.3900884" lon="12.890143"><ele>411.5</ele><time>2026-04-03T16:34:02.683Z</time></trkpt><trkpt lat="42.3899292" lon="12.8903907"><ele>404.0</ele><time>2026-04-03T16:34:03.683Z</time></trkpt><trkpt lat="42.3897914" lon="12.8906536"><ele>420.0</ele><time>2026-04-03T16:34:04.683Z</time></trkpt><trkpt lat="42.3896661" lon="12.8909581"><ele>436.0</ele><time>2026-04-03T16:34:05.682Z</time></trkpt><trkpt lat="42.3895639" lon="12.8913038"><ele>436.0</ele><time>2026-04-03T16:34:06.683Z</time></trkpt><trkpt lat="42.3894786" lon="12.8916585"><ele>436.0</ele><time>2026-04-03T16:34:07.683Z</time></trkpt><trkpt lat="42.3894085" lon="12.8920091"><ele>433.0</ele><time>2026-04-03T16:34:08.683Z</time></trkpt><trkpt lat="42.3893647" lon="12.8923578"><ele>430.0</ele><time>2026-04-03T16:34:09.683Z</time></trkpt><trkpt lat="42.3893506" lon="12.8927318"><ele>429.0</ele><time>2026-04-03T16:34:10.683Z</time></trkpt><trkpt lat="42.3893361" lon="12.8931238"><ele>428.0</ele><time>2026-04-03T16:34:11.682Z</time></trkpt><trkpt lat="42.3892991" lon="12.8935309"><ele>423.5</ele><time>2026-04-03T16:34:12.683Z</time></trkpt><trkpt lat="42.3892531" lon="12.8939098"><ele>419.0</ele><time>2026-04-03T16:34:13.683Z</time></trkpt><trkpt lat="42.3892178" lon="12.8942475"><ele>414.0</ele><time>2026-04-03T16:34:14.683Z</time></trkpt><trkpt lat="42.3891957" lon="12.8945639"><ele>409.0</ele><time>2026-04-03T16:34:15.683Z</time></trkpt><trkpt lat="42.3891859" lon="12.8948564"><ele>405.6666666666667</ele><time>2026-04-03T16:34:16.683Z</time></trkpt><trkpt lat="42.3891798" lon="12.8951215"><ele>402.33333333333337</ele><time>2026-04-03T16:34:17.682Z</time></trkpt><trkpt lat="42.3891746" lon="12.89535"><ele>399.0</ele><time>2026-04-03T16:34:18.683Z</time></trkpt><trkpt lat="42.38913" lon="12.8955613"><ele>399.0</ele><time>2026-04-03T16:34:19.683Z</time></trkpt><trkpt lat="42.3890433" lon="12.8957563"><ele>399.0</ele><time>2026-04-03T16:34:20.683Z</time></trkpt><trkpt lat="42.3889087" lon="12.8959602"><ele>399.0</ele><time>2026-04-03T16:34:21.683Z</time></trkpt><trkpt lat="42.3887555" lon="12.8961754"><ele>402.0</ele><time>2026-04-03T16:34:22.682Z</time></trkpt><trkpt lat="42.3885974" lon="12.8964177"><ele>405.0</ele><time>2026-04-03T16:34:23.682Z</time></trkpt><trkpt lat="42.3884321" lon="12.8966701"><ele>402.0</ele><time>2026-04-03T16:34:24.683Z</time></trkpt><trkpt lat="42.3882838" lon="12.8969388"><ele>399.0</ele><time>2026-04-03T16:34:25.682Z</time></trkpt><trkpt lat="42.3881525" lon="12.8972443"><ele>396.5</ele><time>2026-04-03T16:34:26.682Z</time></trkpt><trkpt lat="42.3880376" lon="12.8975879"><ele>394.0</ele><time>2026-04-03T16:34:27.682Z</time></trkpt><trkpt lat="42.3879186" lon="12.8979636"><ele>401.5</ele><time>2026-04-03T16:34:28.683Z</time></trkpt><trkpt lat="42.3877955" lon="12.898356"><ele>409.0</ele><time>2026-04-03T16:34:29.682Z</time></trkpt><trkpt lat="42.3876653" lon="12.8987632"><ele>409.0</ele><time>2026-04-03T16:34:30.683Z</time></trkpt><trkpt lat="42.3875381" lon="12.8991724"><ele>409.0</ele><time>2026-04-03T16:34:31.683Z</time></trkpt><trkpt lat="42.3874063" lon="12.8995837"><ele>403.0</ele><time>2026-04-03T16:34:32.683Z</time></trkpt><trkpt lat="42.387277" lon="12.8999897"><ele>397.0</ele><time>2026-04-03T16:34:33.683Z</time></trkpt><trkpt lat="42.3871503" lon="12.9003877"><ele>401.5</ele><time>2026-04-03T16:34:34.683Z</time></trkpt><trkpt lat="42.3870232" lon="12.9007853"><ele>406.0</ele><time>2026-04-03T16:34:35.682Z</time></trkpt><trkpt lat="42.3868974" lon="12.9011711"><ele>406.0</ele><time>2026-04-03T16:34:36.683Z</time></trkpt><trkpt lat="42.386768" lon="12.9015503"><ele>406.0</ele><time>2026-04-03T16:34:37.683Z</time></trkpt><trkpt lat="42.3866407" lon="12.9019114"><ele>401.0</ele><time>2026-04-03T16:34:38.683Z</time></trkpt><trkpt lat="42.3865191" lon="12.9022541"><ele>396.0</ele><time>2026-04-03T16:34:39.682Z</time></trkpt><trkpt lat="42.3864119" lon="12.9025712"><ele>403.66666666666663</ele><time>2026-04-03T16:34:40.682Z</time></trkpt><trkpt lat="42.3863153" lon="12.9028435"><ele>411.3333333333333</ele><time>2026-04-03T16:34:41.683Z</time></trkpt><trkpt lat="42.3862251" lon="12.9030969"><ele>419.0</ele><time>2026-04-03T16:34:42.682Z</time></trkpt><trkpt lat="42.3861417" lon="12.9033228"><ele>411.66666666666663</ele><time>2026-04-03T16:34:43.683Z</time></trkpt><trkpt lat="42.3860509" lon="12.9035111"><ele>404.33333333333337</ele><time>2026-04-03T16:34:44.683Z</time></trkpt><trkpt lat="42.385939" lon="12.9036646"><ele>397.0</ele><time>2026-04-03T16:34:45.683Z</time></trkpt><trkpt lat="42.3857961" lon="12.9037978"><ele>397.0</ele><time>2026-04-03T16:34:46.683Z</time></trkpt><trkpt lat="42.3856307" lon="12.9039165"><ele>397.0</ele><time>2026-04-03T16:34:47.683Z</time></trkpt><trkpt lat="42.3854389" lon="12.9040111"><ele>397.0</ele><time>2026-04-03T16:34:48.683Z</time></trkpt><trkpt lat="42.3852307" lon="12.9041284"><ele>396.5</ele><time>2026-04-03T16:34:49.683Z</time></trkpt><trkpt lat="42.3850169" lon="12.9042835"><ele>396.0</ele><time>2026-04-03T16:34:50.683Z</time></trkpt><trkpt lat="42.3848145" lon="12.9044836"><ele>399.33333333333337</ele><time>2026-04-03T16:34:51.683Z</time></trkpt><trkpt lat="42.3846327" lon="12.9046801"><ele>402.6666666666667</ele><time>2026-04-03T16:34:52.683Z</time></trkpt><trkpt lat="42.3844673" lon="12.9048618"><ele>406.0</ele><time>2026-04-03T16:34:53.682Z</time></trkpt><trkpt lat="42.3843196" lon="12.9050271"><ele>403.0</ele><time>2026-04-03T16:34:54.683Z</time></trkpt><trkpt lat="42.3841772" lon="12.9051825"><ele>400.0</ele><time>2026-04-03T16:34:55.682Z</time></trkpt><trkpt lat="42.3840358" lon="12.9053382"><ele>397.0</ele><time>2026-04-03T16:34:56.683Z</time></trkpt><trkpt lat="42.3838874" lon="12.9054914"><ele>398.0</ele><time>2026-04-03T16:34:57.683Z</time></trkpt><trkpt lat="42.3837391" lon="12.9056376"><ele>399.0</ele><time>2026-04-03T16:34:58.683Z</time></trkpt><trkpt lat="42.3835966" lon="12.9057902"><ele>400.0</ele><time>2026-04-03T16:34:59.683Z</time></trkpt><trkpt lat="42.3834629" lon="12.9059446"><ele>400.0</ele><time>2026-04-03T16:35:00.683Z</time></trkpt><trkpt lat="42.3833365" lon="12.9060922"><ele>400.0</ele><time>2026-04-03T16:35:01.683Z</time></trkpt><trkpt lat="42.3832189" lon="12.9062315"><ele>400.0</ele><time>2026-04-03T16:35:02.683Z</time></trkpt><trkpt lat="42.3831166" lon="12.9063628"><ele>400.0</ele><time>2026-04-03T16:35:03.682Z</time></trkpt><trkpt lat="42.383026" lon="12.906474"><ele>400.0</ele><time>2026-04-03T16:35:04.683Z</time></trkpt><trkpt lat="42.3829469" lon="12.9065743"><ele>400.0</ele><time>2026-04-03T16:35:05.683Z</time></trkpt><trkpt lat="42.3828799" lon="12.9066744"><ele>400.0</ele><time>2026-04-03T16:35:06.683Z</time></trkpt><trkpt lat="42.3828145" lon="12.9067718"><ele>400.0</ele><time>2026-04-03T16:35:07.683Z</time></trkpt><trkpt lat="42.3827515" lon="12.9068722"><ele>400.4</ele><time>2026-04-03T16:35:08.683Z</time></trkpt><trkpt lat="42.382695" lon="12.9069527"><ele>400.8</ele><time>2026-04-03T16:35:09.682Z</time></trkpt><trkpt lat="42.3826057" lon="12.9070856"><ele>401.20000000000005</ele><time>2026-04-03T16:35:11.683Z</time></trkpt><trkpt lat="42.3825469" lon="12.9071663"><ele>401.6</ele><time>2026-04-03T16:35:12.683Z</time></trkpt><trkpt lat="42.3824798" lon="12.9072544"><ele>402.0</ele><time>2026-04-03T16:35:13.682Z</time></trkpt><trkpt lat="42.3824074" lon="12.9073519"><ele>402.0</ele><time>2026-04-03T16:35:14.683Z</time></trkpt><trkpt lat="42.3823206" lon="12.907459"><ele>402.0</ele><time>2026-04-03T16:35:15.683Z</time></trkpt><trkpt lat="42.3822239" lon="12.9075639"><ele>402.0</ele><time>2026-04-03T16:35:16.683Z</time></trkpt><trkpt lat="42.3821173" lon="12.9076804"><ele>402.0</ele><time>2026-04-03T16:35:17.683Z</time></trkpt><trkpt lat="42.3819938" lon="12.907815"><ele>401.0</ele><time>2026-04-03T16:35:18.683Z</time></trkpt><trkpt lat="42.3818441" lon="12.9079643"><ele>400.0</ele><time>2026-04-03T16:35:19.683Z</time></trkpt><trkpt lat="42.3816948" lon="12.908098"><ele>399.0</ele><time>2026-04-03T16:35:20.683Z</time></trkpt><trkpt lat="42.3815618" lon="12.9082149"><ele>399.0</ele><time>2026-04-03T16:35:21.682Z</time></trkpt><trkpt lat="42.3814463" lon="12.9083213"><ele>399.0</ele><time>2026-04-03T16:35:22.683Z</time></trkpt><trkpt lat="42.3813481" lon="12.9084254"><ele>399.0</ele><time>2026-04-03T16:35:23.683Z</time></trkpt><trkpt lat="42.3812555" lon="12.9085217"><ele>399.0</ele><time>2026-04-03T16:35:24.683Z</time></trkpt><trkpt lat="42.3811568" lon="12.9086182"><ele>398.75</ele><time>2026-04-03T16:35:25.682Z</time></trkpt><trkpt lat="42.3810583" lon="12.9087216"><ele>398.5</ele><time>2026-04-03T16:35:26.683Z</time></trkpt><trkpt lat="42.3809638" lon="12.9088252"><ele>398.25</ele><time>2026-04-03T16:35:27.683Z</time></trkpt><trkpt lat="42.380874" lon="12.9089257"><ele>398.0</ele><time>2026-04-03T16:35:28.683Z</time></trkpt><trkpt lat="42.38079" lon="12.9090309"><ele>398.0</ele><time>2026-04-03T16:35:29.683Z</time></trkpt><trkpt lat="42.3807184" lon="12.9091451"><ele>398.0</ele><time>2026-04-03T16:35:30.683Z</time></trkpt><trkpt lat="42.3806536" lon="12.9092663"><ele>398.0</ele><time>2026-04-03T16:35:31.683Z</time></trkpt><trkpt lat="42.3806031" lon="12.9093814"><ele>398.0</ele><time>2026-04-03T16:35:32.683Z</time></trkpt><trkpt lat="42.3805553" lon="12.909504"><ele>398.0</ele><time>2026-04-03T16:35:33.683Z</time></trkpt><trkpt lat="42.3804979" lon="12.9096303"><ele>398.0</ele><time>2026-04-03T16:35:34.683Z</time></trkpt><trkpt lat="42.3804328" lon="12.9097628"><ele>398.0</ele><time>2026-04-03T16:35:35.683Z</time></trkpt><trkpt lat="42.3803584" lon="12.9098907"><ele>398.0</ele><time>2026-04-03T16:35:36.682Z</time></trkpt><trkpt lat="42.3802826" lon="12.9100234"><ele>398.0</ele><time>2026-04-03T16:35:37.682Z</time></trkpt><trkpt lat="42.3802045" lon="12.9101613"><ele>398.0</ele><time>2026-04-03T16:35:38.682Z</time></trkpt><trkpt lat="42.3800215" lon="12.9104191"><ele>398.0</ele><time>2026-04-03T16:35:40.683Z</time></trkpt><trkpt lat="42.3799132" lon="12.910537"><ele>398.0</ele><time>2026-04-03T16:35:41.683Z</time></trkpt><trkpt lat="42.3797902" lon="12.9106528"><ele>397.66666666666663</ele><time>2026-04-03T16:35:42.682Z</time></trkpt><trkpt lat="42.379661" lon="12.9107659"><ele>397.33333333333337</ele><time>2026-04-03T16:35:43.683Z</time></trkpt><trkpt lat="42.3795347" lon="12.9108791"><ele>397.0</ele><time>2026-04-03T16:35:44.682Z</time></trkpt><trkpt lat="42.3794057" lon="12.9109957"><ele>397.0</ele><time>2026-04-03T16:35:45.683Z</time></trkpt><trkpt lat="42.3792712" lon="12.9111214"><ele>397.0</ele><time>2026-04-03T16:35:46.682Z</time></trkpt><trkpt lat="42.3791368" lon="12.9112521"><ele>397.0</ele><time>2026-04-03T16:35:47.683Z</time></trkpt><trkpt lat="42.3789947" lon="12.9113889"><ele>397.0</ele><time>2026-04-03T16:35:48.682Z</time></trkpt><trkpt lat="42.3788284" lon="12.9115504"><ele>397.0</ele><time>2026-04-03T16:35:49.682Z</time></trkpt><trkpt lat="42.3786425" lon="12.9117192"><ele>397.0</ele><time>2026-04-03T16:35:50.682Z</time></trkpt><trkpt lat="42.378453" lon="12.9118938"><ele>397.0</ele><time>2026-04-03T16:35:51.683Z</time></trkpt><trkpt lat="42.3782484" lon="12.9120618"><ele>397.0</ele><time>2026-04-03T16:35:52.683Z</time></trkpt><trkpt lat="42.3780279" lon="12.912236"><ele>397.5</ele><time>2026-04-03T16:35:53.682Z</time></trkpt><trkpt lat="42.3777982" lon="12.9124322"><ele>398.0</ele><time>2026-04-03T16:35:54.683Z</time></trkpt><trkpt lat="42.3775655" lon="12.912645"><ele>398.0</ele><time>2026-04-03T16:35:55.683Z</time></trkpt><trkpt lat="42.3773408" lon="12.9128489"><ele>398.0</ele><time>2026-04-03T16:35:56.683Z</time></trkpt><trkpt lat="42.3771252" lon="12.9130527"><ele>398.5</ele><time>2026-04-03T16:35:57.683Z</time></trkpt><trkpt lat="42.3769235" lon="12.9132716"><ele>399.0</ele><time>2026-04-03T16:35:58.683Z</time></trkpt><trkpt lat="42.3767469" lon="12.9135189"><ele>399.0</ele><time>2026-04-03T16:35:59.682Z</time></trkpt><trkpt lat="42.376595" lon="12.9137993"><ele>399.0</ele><time>2026-04-03T16:36:00.682Z</time></trkpt><trkpt lat="42.3764584" lon="12.9141135"><ele>402.5</ele><time>2026-04-03T16:36:01.683Z</time></trkpt><trkpt lat="42.3763328" lon="12.9144526"><ele>406.0</ele><time>2026-04-03T16:36:02.683Z</time></trkpt><trkpt lat="42.3762081" lon="12.9148024"><ele>407.0</ele><time>2026-04-03T16:36:03.682Z</time></trkpt><trkpt lat="42.3760768" lon="12.9151542"><ele>408.0</ele><time>2026-04-03T16:36:04.682Z</time></trkpt><trkpt lat="42.375946" lon="12.9155117"><ele>408.0</ele><time>2026-04-03T16:36:05.683Z</time></trkpt><trkpt lat="42.3758146" lon="12.9158691"><ele>408.0</ele><time>2026-04-03T16:36:06.682Z</time></trkpt><trkpt lat="42.375682" lon="12.9162224"><ele>410.0</ele><time>2026-04-03T16:36:07.683Z</time></trkpt><trkpt lat="42.3755593" lon="12.9165464"><ele>412.0</ele><time>2026-04-03T16:36:08.683Z</time></trkpt><trkpt lat="42.3754498" lon="12.9168306"><ele>412.0</ele><time>2026-04-03T16:36:09.683Z</time></trkpt><trkpt lat="42.3753373" lon="12.9170902"><ele>412.0</ele><time>2026-04-03T16:36:10.683Z</time></trkpt><trkpt lat="42.3752185" lon="12.9173228"><ele>412.0</ele><time>2026-04-03T16:36:11.683Z</time></trkpt><trkpt lat="42.3750846" lon="12.9175337"><ele>412.0</ele><time>2026-04-03T16:36:12.683Z</time></trkpt><trkpt lat="42.3749348" lon="12.9177201"><ele>412.0</ele><time>2026-04-03T16:36:13.683Z</time></trkpt><trkpt lat="42.3747582" lon="12.9178876"><ele>412.0</ele><time>2026-04-03T16:36:14.682Z</time></trkpt><trkpt lat="42.3745522" lon="12.9180376"><ele>412.0</ele><time>2026-04-03T16:36:15.683Z</time></trkpt><trkpt lat="42.3743283" lon="12.9181771"><ele>412.0</ele><time>2026-04-03T16:36:16.683Z</time></trkpt><trkpt lat="42.3741106" lon="12.9182995"><ele>411.0</ele><time>2026-04-03T16:36:17.682Z</time></trkpt><trkpt lat="42.3739153" lon="12.9184119"><ele>410.0</ele><time>2026-04-03T16:36:18.683Z</time></trkpt><trkpt lat="42.3737506" lon="12.9185175"><ele>409.0</ele><time>2026-04-03T16:36:19.682Z</time></trkpt><trkpt lat="42.3736294" lon="12.9186397"><ele>409.0</ele><time>2026-04-03T16:36:20.682Z</time></trkpt><trkpt lat="42.3735412" lon="12.9187845"><ele>409.0</ele><time>2026-04-03T16:36:21.683Z</time></trkpt><trkpt lat="42.3734588" lon="12.9189572"><ele>409.0</ele><time>2026-04-03T16:36:22.682Z</time></trkpt><trkpt lat="42.373413" lon="12.9191756"><ele>406.6666666666667</ele><time>2026-04-03T16:36:23.682Z</time></trkpt><trkpt lat="42.3733786" lon="12.9194347"><ele>404.33333333333337</ele><time>2026-04-03T16:36:24.683Z</time></trkpt><trkpt lat="42.3733441" lon="12.9197263"><ele>402.0</ele><time>2026-04-03T16:36:25.683Z</time></trkpt><trkpt lat="42.3733043" lon="12.9200371"><ele>400.5</ele><time>2026-04-03T16:36:26.683Z</time></trkpt><trkpt lat="42.3732625" lon="12.920364"><ele>399.0</ele><time>2026-04-03T16:36:27.683Z</time></trkpt><trkpt lat="42.3732197" lon="12.9207037"><ele>399.0</ele><time>2026-04-03T16:36:28.682Z</time></trkpt><trkpt lat="42.3731835" lon="12.9210345"><ele>399.0</ele><time>2026-04-03T16:36:29.683Z</time></trkpt><trkpt lat="42.3731426" lon="12.921333"><ele>399.0</ele><time>2026-04-03T16:36:30.683Z</time></trkpt><trkpt lat="42.3730897" lon="12.921595"><ele>399.0</ele><time>2026-04-03T16:36:31.682Z</time></trkpt><trkpt lat="42.3730129" lon="12.9218349"><ele>399.0</ele><time>2026-04-03T16:36:32.682Z</time></trkpt><trkpt lat="42.3729014" lon="12.9220405"><ele>402.0</ele><time>2026-04-03T16:36:33.683Z</time></trkpt><trkpt lat="42.3727555" lon="12.9222101"><ele>405.0</ele><time>2026-04-03T16:36:34.682Z</time></trkpt><trkpt lat="42.3725778" lon="12.9223485"><ele>408.0</ele><time>2026-04-03T16:36:35.683Z</time></trkpt><trkpt lat="42.3723996" lon="12.9224587"><ele>414.33333333333337</ele><time>2026-04-03T16:36:36.683Z</time></trkpt><trkpt lat="42.372218" lon="12.9225701"><ele>420.6666666666667</ele><time>2026-04-03T16:36:37.683Z</time></trkpt><trkpt lat="42.3720313" lon="12.9226823"><ele>427.0</ele><time>2026-04-03T16:36:38.683Z</time></trkpt><trkpt lat="42.37184" lon="12.9228057"><ele>427.0</ele><time>2026-04-03T16:36:39.683Z</time></trkpt><trkpt lat="42.3716479" lon="12.9229533"><ele>427.0</ele><time>2026-04-03T16:36:40.683Z</time></trkpt><trkpt lat="42.3714474" lon="12.923112"><ele>431.0</ele><time>2026-04-03T16:36:41.682Z</time></trkpt><trkpt lat="42.3712331" lon="12.9232905"><ele>435.0</ele><time>2026-04-03T16:36:42.682Z</time></trkpt><trkpt lat="42.3710104" lon="12.923488"><ele>435.0</ele><time>2026-04-03T16:36:43.682Z</time></trkpt><trkpt lat="42.3707787" lon="12.923689"><ele>435.0</ele><time>2026-04-03T16:36:44.683Z</time></trkpt><trkpt lat="42.3705364" lon="12.9238966"><ele>441.5</ele><time>2026-04-03T16:36:45.682Z</time></trkpt><trkpt lat="42.370285" lon="12.9241084"><ele>448.0</ele><time>2026-04-03T16:36:46.683Z</time></trkpt><trkpt lat="42.3700315" lon="12.9243295"><ele>448.0</ele><time>2026-04-03T16:36:47.683Z</time></trkpt><trkpt lat="42.3697785" lon="12.9245503"><ele>448.0</ele><time>2026-04-03T16:36:48.682Z</time></trkpt><trkpt lat="42.3695238" lon="12.9247641"><ele>453.0</ele><time>2026-04-03T16:36:49.683Z</time></trkpt><trkpt lat="42.3692762" lon="12.9249797"><ele>458.0</ele><time>2026-04-03T16:36:50.683Z</time></trkpt><trkpt lat="42.3690296" lon="12.9251873"><ele>439.0</ele><time>2026-04-03T16:36:51.683Z</time></trkpt><trkpt lat="42.3687965" lon="12.9253811"><ele>420.0</ele><time>2026-04-03T16:36:52.683Z</time></trkpt><trkpt lat="42.3685807" lon="12.9255495"><ele>420.0</ele><time>2026-04-03T16:36:53.683Z</time></trkpt><trkpt lat="42.3683642" lon="12.9257011"><ele>420.0</ele><time>2026-04-03T16:36:54.683Z</time></trkpt><trkpt lat="42.3681371" lon="12.925815"><ele>413.0</ele><time>2026-04-03T16:36:55.683Z</time></trkpt><trkpt lat="42.3679025" lon="12.9258947"><ele>406.0</ele><time>2026-04-03T16:36:56.682Z</time></trkpt><trkpt lat="42.3676613" lon="12.9259619"><ele>421.0</ele><time>2026-04-03T16:36:57.683Z</time></trkpt><trkpt lat="42.3674221" lon="12.9260261"><ele>436.0</ele><time>2026-04-03T16:36:58.683Z</time></trkpt><trkpt lat="42.3671897" lon="12.9260659"><ele>436.0</ele><time>2026-04-03T16:36:59.683Z</time></trkpt><trkpt lat="42.366962" lon="12.926082"><ele>436.0</ele><time>2026-04-03T16:37:00.683Z</time></trkpt><trkpt lat="42.3667283" lon="12.9260737"><ele>436.0</ele><time>2026-04-03T16:37:01.683Z</time></trkpt><trkpt lat="42.3664823" lon="12.9260427"><ele>436.0</ele><time>2026-04-03T16:37:02.682Z</time></trkpt><trkpt lat="42.3662403" lon="12.9259845"><ele>433.0</ele><time>2026-04-03T16:37:03.683Z</time></trkpt><trkpt lat="42.3660034" lon="12.9259333"><ele>430.0</ele><time>2026-04-03T16:37:04.682Z</time></trkpt><trkpt lat="42.3657749" lon="12.9259086"><ele>430.0</ele><time>2026-04-03T16:37:05.683Z</time></trkpt><trkpt lat="42.3655481" lon="12.9259243"><ele>430.0</ele><time>2026-04-03T16:37:06.683Z</time></trkpt><trkpt lat="42.3653186" lon="12.9259787"><ele>423.5</ele><time>2026-04-03T16:37:07.682Z</time></trkpt><trkpt lat="42.3650816" lon="12.9260633"><ele>417.0</ele><time>2026-04-03T16:37:08.682Z</time></trkpt><trkpt lat="42.3648439" lon="12.9261871"><ele>410.0</ele><time>2026-04-03T16:37:09.683Z</time></trkpt><trkpt lat="42.3646063" lon="12.9263419"><ele>403.0</ele><time>2026-04-03T16:37:10.683Z</time></trkpt><trkpt lat="42.3643647" lon="12.926522"><ele>403.0</ele><time>2026-04-03T16:37:11.682Z</time></trkpt><trkpt lat="42.3641239" lon="12.9267224"><ele>403.0</ele><time>2026-04-03T16:37:12.683Z</time></trkpt><trkpt lat="42.3638882" lon="12.9269348"><ele>403.0</ele><time>2026-04-03T16:37:13.682Z</time></trkpt><trkpt lat="42.3636537" lon="12.9271577"><ele>403.0</ele><time>2026-04-03T16:37:14.682Z</time></trkpt><trkpt lat="42.3634176" lon="12.9273749"><ele>404.5</ele><time>2026-04-03T16:37:15.683Z</time></trkpt><trkpt lat="42.3631746" lon="12.9275751"><ele>406.0</ele><time>2026-04-03T16:37:16.682Z</time></trkpt><trkpt lat="42.362922" lon="12.9277595"><ele>406.0</ele><time>2026-04-03T16:37:17.683Z</time></trkpt><trkpt lat="42.3626666" lon="12.9279125"><ele>406.0</ele><time>2026-04-03T16:37:18.682Z</time></trkpt><trkpt lat="42.3623955" lon="12.928033"><ele>405.5</ele><time>2026-04-03T16:37:19.683Z</time></trkpt><trkpt lat="42.3621154" lon="12.9281219"><ele>405.0</ele><time>2026-04-03T16:37:20.683Z</time></trkpt><trkpt lat="42.3618288" lon="12.9281863"><ele>405.0</ele><time>2026-04-03T16:37:21.683Z</time></trkpt><trkpt lat="42.3615465" lon="12.9282351"><ele>405.0</ele><time>2026-04-03T16:37:22.683Z</time></trkpt><trkpt lat="42.3612706" lon="12.9282896"><ele>405.5</ele><time>2026-04-03T16:37:23.683Z</time></trkpt><trkpt lat="42.361003" lon="12.9283569"><ele>406.0</ele><time>2026-04-03T16:37:24.682Z</time></trkpt><trkpt lat="42.3607413" lon="12.9284451"><ele>406.5</ele><time>2026-04-03T16:37:25.683Z</time></trkpt><trkpt lat="42.3604792" lon="12.9285607"><ele>407.0</ele><time>2026-04-03T16:37:26.683Z</time></trkpt><trkpt lat="42.3602182" lon="12.9287137"><ele>407.0</ele><time>2026-04-03T16:37:27.683Z</time></trkpt><trkpt lat="42.3599649" lon="12.9288929"><ele>407.0</ele><time>2026-04-03T16:37:28.682Z</time></trkpt><trkpt lat="42.3597246" lon="12.9290929"><ele>407.0</ele><time>2026-04-03T16:37:29.683Z</time></trkpt><trkpt lat="42.359502" lon="12.9293269"><ele>407.0</ele><time>2026-04-03T16:37:30.683Z</time></trkpt><trkpt lat="42.359305" lon="12.9295853"><ele>407.0</ele><time>2026-04-03T16:37:31.683Z</time></trkpt><trkpt lat="42.3591251" lon="12.9298655"><ele>407.0</ele><time>2026-04-03T16:37:32.683Z</time></trkpt><trkpt lat="42.3589678" lon="12.9301589"><ele>405.0</ele><time>2026-04-03T16:37:33.683Z</time></trkpt><trkpt lat="42.3588295" lon="12.9304561"><ele>403.0</ele><time>2026-04-03T16:37:34.682Z</time></trkpt><trkpt lat="42.3587093" lon="12.9307809"><ele>402.5</ele><time>2026-04-03T16:37:35.683Z</time></trkpt><trkpt lat="42.3586109" lon="12.931125"><ele>402.0</ele><time>2026-04-03T16:37:36.683Z</time></trkpt><trkpt lat="42.3585318" lon="12.9314907"><ele>401.5</ele><time>2026-04-03T16:37:37.683Z</time></trkpt><trkpt lat="42.3584677" lon="12.93186"><ele>401.0</ele><time>2026-04-03T16:37:38.683Z</time></trkpt><trkpt lat="42.3584065" lon="12.93223"><ele>407.5</ele><time>2026-04-03T16:37:39.683Z</time></trkpt><trkpt lat="42.3583422" lon="12.932592"><ele>414.0</ele><time>2026-04-03T16:37:40.682Z</time></trkpt><trkpt lat="42.3582684" lon="12.9329516"><ele>414.0</ele><time>2026-04-03T16:37:41.682Z</time></trkpt><trkpt lat="42.358182" lon="12.9333121"><ele>414.0</ele><time>2026-04-03T16:37:42.683Z</time></trkpt><trkpt lat="42.3580872" lon="12.9336684"><ele>409.5</ele><time>2026-04-03T16:37:43.683Z</time></trkpt><trkpt lat="42.357992" lon="12.9340121"><ele>405.0</ele><time>2026-04-03T16:37:44.682Z</time></trkpt><trkpt lat="42.3578888" lon="12.9343456"><ele>403.0</ele><time>2026-04-03T16:37:45.683Z</time></trkpt><trkpt lat="42.3577732" lon="12.9346706"><ele>401.0</ele><time>2026-04-03T16:37:46.683Z</time></trkpt><trkpt lat="42.357641" lon="12.9349874"><ele>404.0</ele><time>2026-04-03T16:37:47.683Z</time></trkpt><trkpt lat="42.3574952" lon="12.9352894"><ele>407.0</ele><time>2026-04-03T16:37:48.683Z</time></trkpt><trkpt lat="42.3573365" lon="12.9355731"><ele>404.5</ele><time>2026-04-03T16:37:49.682Z</time></trkpt><trkpt lat="42.3571651" lon="12.9358504"><ele>402.0</ele><time>2026-04-03T16:37:50.682Z</time></trkpt><trkpt lat="42.3569872" lon="12.9361184"><ele>402.0</ele><time>2026-04-03T16:37:51.683Z</time></trkpt><trkpt lat="42.3567942" lon="12.9363847"><ele>402.0</ele><time>2026-04-03T16:37:52.683Z</time></trkpt><trkpt lat="42.3565815" lon="12.9366398"><ele>402.5</ele><time>2026-04-03T16:37:53.683Z</time></trkpt><trkpt lat="42.3563498" lon="12.9368752"><ele>403.0</ele><time>2026-04-03T16:37:54.683Z</time></trkpt><trkpt lat="42.3561095" lon="12.9370972"><ele>403.0</ele><time>2026-04-03T16:37:55.682Z</time></trkpt><trkpt lat="42.3558739" lon="12.9373155"><ele>403.0</ele><time>2026-04-03T16:37:56.682Z</time></trkpt><trkpt lat="42.3556391" lon="12.9375411"><ele>405.0</ele><time>2026-04-03T16:37:57.683Z</time></trkpt><trkpt lat="42.3554127" lon="12.9377762"><ele>407.0</ele><time>2026-04-03T16:37:58.683Z</time></trkpt><trkpt lat="42.3551933" lon="12.9380306"><ele>407.0</ele><time>2026-04-03T16:37:59.683Z</time></trkpt><trkpt lat="42.3549902" lon="12.9383091"><ele>407.0</ele><time>2026-04-03T16:38:00.683Z</time></trkpt><trkpt lat="42.3547944" lon="12.9386051"><ele>408.0</ele><time>2026-04-03T16:38:01.682Z</time></trkpt><trkpt lat="42.3546134" lon="12.9389248"><ele>409.0</ele><time>2026-04-03T16:38:02.683Z</time></trkpt><trkpt lat="42.3544505" lon="12.939265"><ele>409.0</ele><time>2026-04-03T16:38:03.683Z</time></trkpt><trkpt lat="42.3543056" lon="12.9396235"><ele>409.0</ele><time>2026-04-03T16:38:04.683Z</time></trkpt><trkpt lat="42.3541776" lon="12.9400065"><ele>408.5</ele><time>2026-04-03T16:38:05.682Z</time></trkpt><trkpt lat="42.3540778" lon="12.9403905"><ele>408.0</ele><time>2026-04-03T16:38:06.682Z</time></trkpt><trkpt lat="42.3539969" lon="12.9407917"><ele>408.5</ele><time>2026-04-03T16:38:07.683Z</time></trkpt><trkpt lat="42.3539404" lon="12.9411945"><ele>409.0</ele><time>2026-04-03T16:38:08.682Z</time></trkpt><trkpt lat="42.3539049" lon="12.9415916"><ele>408.5</ele><time>2026-04-03T16:38:09.682Z</time></trkpt><trkpt lat="42.353881" lon="12.9419925"><ele>408.0</ele><time>2026-04-03T16:38:10.683Z</time></trkpt><trkpt lat="42.3538583" lon="12.942399"><ele>429.5</ele><time>2026-04-03T16:38:11.683Z</time></trkpt><trkpt lat="42.3538298" lon="12.942798"><ele>451.0</ele><time>2026-04-03T16:38:12.683Z</time></trkpt><trkpt lat="42.3537903" lon="12.9431963"><ele>443.0</ele><time>2026-04-03T16:38:13.683Z</time></trkpt><trkpt lat="42.3537437" lon="12.9435971"><ele>435.0</ele><time>2026-04-03T16:38:14.683Z</time></trkpt><trkpt lat="42.3536872" lon="12.9439906"><ele>427.0</ele><time>2026-04-03T16:38:15.683Z</time></trkpt><trkpt lat="42.3536211" lon="12.944382"><ele>419.0</ele><time>2026-04-03T16:38:16.682Z</time></trkpt><trkpt lat="42.3535481" lon="12.9447723"><ele>415.5</ele><time>2026-04-03T16:38:17.682Z</time></trkpt><trkpt lat="42.3534722" lon="12.9451574"><ele>412.0</ele><time>2026-04-03T16:38:18.682Z</time></trkpt><trkpt lat="42.3533955" lon="12.9455383"><ele>413.0</ele><time>2026-04-03T16:38:19.683Z</time></trkpt><trkpt lat="42.3533132" lon="12.94592"><ele>414.0</ele><time>2026-04-03T16:38:20.682Z</time></trkpt><trkpt lat="42.3531602" lon="12.9466772"><ele>413.5</ele><time>2026-04-03T16:38:22.683Z</time></trkpt><trkpt lat="42.3530855" lon="12.9470567"><ele>413.0</ele><time>2026-04-03T16:38:23.682Z</time></trkpt><trkpt lat="42.3530146" lon="12.9474328"><ele>420.5</ele><time>2026-04-03T16:38:24.682Z</time></trkpt><trkpt lat="42.3529492" lon="12.9478118"><ele>428.0</ele><time>2026-04-03T16:38:25.682Z</time></trkpt><trkpt lat="42.3528842" lon="12.9481937"><ele>427.0</ele><time>2026-04-03T16:38:26.682Z</time></trkpt><trkpt lat="42.3528275" lon="12.9485677"><ele>426.0</ele><time>2026-04-03T16:38:27.683Z</time></trkpt><trkpt lat="42.352781" lon="12.9489208"><ele>426.0</ele><time>2026-04-03T16:38:28.683Z</time></trkpt><trkpt lat="42.352732" lon="12.9492863"><ele>426.0</ele><time>2026-04-03T16:38:29.682Z</time></trkpt><trkpt lat="42.3526831" lon="12.9496535"><ele>426.5</ele><time>2026-04-03T16:38:30.682Z</time></trkpt><trkpt lat="42.3527152" lon="12.9500613"><ele>427.0</ele><time>2026-04-03T16:38:31.683Z</time></trkpt><trkpt lat="42.3526837" lon="12.950452"><ele>427.0</ele><time>2026-04-03T16:38:32.683Z</time></trkpt><trkpt lat="42.3526595" lon="12.9508302"><ele>427.0</ele><time>2026-04-03T16:38:33.683Z</time></trkpt><trkpt lat="42.3526393" lon="12.9512008"><ele>426.5</ele><time>2026-04-03T16:38:34.682Z</time></trkpt><trkpt lat="42.3526142" lon="12.9515673"><ele>426.0</ele><time>2026-04-03T16:38:35.683Z</time></trkpt><trkpt lat="42.3525929" lon="12.951925"><ele>426.0</ele><time>2026-04-03T16:38:36.683Z</time></trkpt><trkpt lat="42.3525719" lon="12.9522852"><ele>426.0</ele><time>2026-04-03T16:38:37.682Z</time></trkpt><trkpt lat="42.3525509" lon="12.9526509"><ele>423.0</ele><time>2026-04-03T16:38:38.683Z</time></trkpt><trkpt lat="42.3525221" lon="12.953014"><ele>420.0</ele><time>2026-04-03T16:38:39.683Z</time></trkpt><trkpt lat="42.3524889" lon="12.9533792"><ele>419.0</ele><time>2026-04-03T16:38:40.683Z</time></trkpt><trkpt lat="42.352454" lon="12.9537514"><ele>418.0</ele><time>2026-04-03T16:38:41.683Z</time></trkpt><trkpt lat="42.3524117" lon="12.9541264"><ele>416.5</ele><time>2026-04-03T16:38:42.682Z</time></trkpt><trkpt lat="42.3523666" lon="12.9545085"><ele>415.0</ele><time>2026-04-03T16:38:43.683Z</time></trkpt><trkpt lat="42.3523081" lon="12.9548866"><ele>414.5</ele><time>2026-04-03T16:38:44.683Z</time></trkpt><trkpt lat="42.3522456" lon="12.9552747"><ele>414.0</ele><time>2026-04-03T16:38:45.683Z</time></trkpt><trkpt lat="42.3521717" lon="12.9556657"><ele>436.0</ele><time>2026-04-03T16:38:46.683Z</time></trkpt><trkpt lat="42.3520863" lon="12.9560615"><ele>458.0</ele><time>2026-04-03T16:38:47.683Z</time></trkpt><trkpt lat="42.3519923" lon="12.9564551"><ele>450.0</ele><time>2026-04-03T16:38:48.683Z</time></trkpt><trkpt lat="42.3518952" lon="12.9568451"><ele>442.0</ele><time>2026-04-03T16:38:49.683Z</time></trkpt><trkpt lat="42.3517965" lon="12.957236"><ele>433.0</ele><time>2026-04-03T16:38:50.682Z</time></trkpt><trkpt lat="42.3516953" lon="12.957627"><ele>424.0</ele><time>2026-04-03T16:38:51.683Z</time></trkpt><trkpt lat="42.3515952" lon="12.9580149"><ele>420.5</ele><time>2026-04-03T16:38:52.683Z</time></trkpt><trkpt lat="42.3514964" lon="12.9584"><ele>417.0</ele><time>2026-04-03T16:38:53.682Z</time></trkpt><trkpt lat="42.3513941" lon="12.9587824"><ele>429.5</ele><time>2026-04-03T16:38:54.683Z</time></trkpt><trkpt lat="42.3512938" lon="12.9591657"><ele>442.0</ele><time>2026-04-03T16:38:55.683Z</time></trkpt><trkpt lat="42.3511907" lon="12.9595503"><ele>442.0</ele><time>2026-04-03T16:38:56.682Z</time></trkpt><trkpt lat="42.3510786" lon="12.9599332"><ele>442.0</ele><time>2026-04-03T16:38:57.683Z</time></trkpt><trkpt lat="42.3509559" lon="12.9603122"><ele>432.5</ele><time>2026-04-03T16:38:58.682Z</time></trkpt><trkpt lat="42.3508108" lon="12.960675"><ele>423.0</ele><time>2026-04-03T16:38:59.682Z</time></trkpt><trkpt lat="42.3506517" lon="12.9610208"><ele>423.0</ele><time>2026-04-03T16:39:00.683Z</time></trkpt><trkpt lat="42.3504785" lon="12.9613429"><ele>423.0</ele><time>2026-04-03T16:39:01.683Z</time></trkpt><trkpt lat="42.350284" lon="12.9616428"><ele>417.5</ele><time>2026-04-03T16:39:02.682Z</time></trkpt><trkpt lat="42.3500676" lon="12.9619213"><ele>412.0</ele><time>2026-04-03T16:39:03.683Z</time></trkpt><trkpt lat="42.3498321" lon="12.9621767"><ele>412.0</ele><time>2026-04-03T16:39:04.683Z</time></trkpt><trkpt lat="42.3495884" lon="12.962422"><ele>412.0</ele><time>2026-04-03T16:39:05.682Z</time></trkpt><trkpt lat="42.3493441" lon="12.9626671"><ele>412.0</ele><time>2026-04-03T16:39:06.683Z</time></trkpt><trkpt lat="42.3490957" lon="12.9629092"><ele>412.0</ele><time>2026-04-03T16:39:07.683Z</time></trkpt><trkpt lat="42.3488521" lon="12.9631491"><ele>412.0</ele><time>2026-04-03T16:39:08.683Z</time></trkpt><trkpt lat="42.3486057" lon="12.9633865"><ele>412.0</ele><time>2026-04-03T16:39:09.682Z</time></trkpt><trkpt lat="42.3483602" lon="12.9636221"><ele>412.0</ele><time>2026-04-03T16:39:10.682Z</time></trkpt><trkpt lat="42.3481158" lon="12.9638616"><ele>412.0</ele><time>2026-04-03T16:39:11.683Z</time></trkpt><trkpt lat="42.3478745" lon="12.964102"><ele>412.5</ele><time>2026-04-03T16:39:12.682Z</time></trkpt><trkpt lat="42.347629" lon="12.9643412"><ele>413.0</ele><time>2026-04-03T16:39:13.682Z</time></trkpt><trkpt lat="42.3473808" lon="12.9645821"><ele>413.5</ele><time>2026-04-03T16:39:14.682Z</time></trkpt><trkpt lat="42.3471331" lon="12.9648253"><ele>414.0</ele><time>2026-04-03T16:39:15.682Z</time></trkpt><trkpt lat="42.3468897" lon="12.9650717"><ele>414.0</ele><time>2026-04-03T16:39:16.683Z</time></trkpt><trkpt lat="42.3466467" lon="12.9653134"><ele>414.0</ele><time>2026-04-03T16:39:17.682Z</time></trkpt><trkpt lat="42.3463945" lon="12.9655644"><ele>415.0</ele><time>2026-04-03T16:39:18.682Z</time></trkpt><trkpt lat="42.346133" lon="12.9658233"><ele>416.0</ele><time>2026-04-03T16:39:19.682Z</time></trkpt><trkpt lat="42.3458698" lon="12.9660833"><ele>415.5</ele><time>2026-04-03T16:39:20.683Z</time></trkpt><trkpt lat="42.3456097" lon="12.9663321"><ele>415.0</ele><time>2026-04-03T16:39:21.683Z</time></trkpt><trkpt lat="42.3453563" lon="12.9665743"><ele>423.0</ele><time>2026-04-03T16:39:22.683Z</time></trkpt><trkpt lat="42.3451117" lon="12.9668149"><ele>431.0</ele><time>2026-04-03T16:39:23.683Z</time></trkpt><trkpt lat="42.3448707" lon="12.9670494"><ele>424.0</ele><time>2026-04-03T16:39:24.682Z</time></trkpt><trkpt lat="42.344634" lon="12.967281"><ele>417.0</ele><time>2026-04-03T16:39:25.683Z</time></trkpt><trkpt lat="42.3443967" lon="12.9675207"><ele>424.5</ele><time>2026-04-03T16:39:26.682Z</time></trkpt><trkpt lat="42.3441617" lon="12.9677769"><ele>432.0</ele><time>2026-04-03T16:39:27.683Z</time></trkpt><trkpt lat="42.3439323" lon="12.9680573"><ele>426.0</ele><time>2026-04-03T16:39:28.682Z</time></trkpt><trkpt lat="42.3437085" lon="12.9683756"><ele>420.0</ele><time>2026-04-03T16:39:29.683Z</time></trkpt><trkpt lat="42.3434892" lon="12.9687113"><ele>420.0</ele><time>2026-04-03T16:39:30.683Z</time></trkpt><trkpt lat="42.3432612" lon="12.969056"><ele>420.0</ele><time>2026-04-03T16:39:31.683Z</time></trkpt><trkpt lat="42.3430236" lon="12.9694006"><ele>419.5</ele><time>2026-04-03T16:39:32.683Z</time></trkpt><trkpt lat="42.3427802" lon="12.9697036"><ele>419.0</ele><time>2026-04-03T16:39:33.682Z</time></trkpt><trkpt lat="42.3425267" lon="12.9699718"><ele>421.0</ele><time>2026-04-03T16:39:34.683Z</time></trkpt><trkpt lat="42.342256" lon="12.97021"><ele>423.0</ele><time>2026-04-03T16:39:35.682Z</time></trkpt><trkpt lat="42.3419655" lon="12.9704219"><ele>423.0</ele><time>2026-04-03T16:39:36.682Z</time></trkpt><trkpt lat="42.3416656" lon="12.9706094"><ele>423.0</ele><time>2026-04-03T16:39:37.683Z</time></trkpt><trkpt lat="42.3413796" lon="12.9707737"><ele>428.5</ele><time>2026-04-03T16:39:38.682Z</time></trkpt><trkpt lat="42.3411138" lon="12.9709196"><ele>434.0</ele><time>2026-04-03T16:39:39.683Z</time></trkpt><trkpt lat="42.3408683" lon="12.9710538"><ele>434.0</ele><time>2026-04-03T16:39:40.683Z</time></trkpt><trkpt lat="42.3406384" lon="12.9711843"><ele>434.0</ele><time>2026-04-03T16:39:41.682Z</time></trkpt><trkpt lat="42.3404207" lon="12.9713115"><ele>428.0</ele><time>2026-04-03T16:39:42.683Z</time></trkpt><trkpt lat="42.3402065" lon="12.9714325"><ele>422.0</ele><time>2026-04-03T16:39:43.682Z</time></trkpt><trkpt lat="42.3399969" lon="12.971551"><ele>422.0</ele><time>2026-04-03T16:39:44.682Z</time></trkpt><trkpt lat="42.3397865" lon="12.9716696"><ele>422.0</ele><time>2026-04-03T16:39:45.683Z</time></trkpt><trkpt lat="42.3395604" lon="12.9717962"><ele>425.0</ele><time>2026-04-03T16:39:46.683Z</time></trkpt><trkpt lat="42.3393172" lon="12.9719314"><ele>428.0</ele><time>2026-04-03T16:39:47.683Z</time></trkpt><trkpt lat="42.3390663" lon="12.9720721"><ele>423.5</ele><time>2026-04-03T16:39:48.683Z</time></trkpt><trkpt lat="42.3388079" lon="12.9722153"><ele>419.0</ele><time>2026-04-03T16:39:49.682Z</time></trkpt><trkpt lat="42.3385388" lon="12.9723662"><ele>420.5</ele><time>2026-04-03T16:39:50.683Z</time></trkpt><trkpt lat="42.3382623" lon="12.9725254"><ele>422.0</ele><time>2026-04-03T16:39:51.682Z</time></trkpt><trkpt lat="42.3379722" lon="12.972685"><ele>422.0</ele><time>2026-04-03T16:39:52.683Z</time></trkpt><trkpt lat="42.3376734" lon="12.9728507"><ele>422.0</ele><time>2026-04-03T16:39:53.683Z</time></trkpt><trkpt lat="42.3373728" lon="12.9730202"><ele>420.0</ele><time>2026-04-03T16:39:54.683Z</time></trkpt><trkpt lat="42.3370853" lon="12.9731807"><ele>418.0</ele><time>2026-04-03T16:39:55.683Z</time></trkpt><trkpt lat="42.336815" lon="12.9733339"><ele>419.5</ele><time>2026-04-03T16:39:56.683Z</time></trkpt><trkpt lat="42.3365545" lon="12.9734928"><ele>421.0</ele><time>2026-04-03T16:39:57.682Z</time></trkpt><trkpt lat="42.3363043" lon="12.9736559"><ele>421.5</ele><time>2026-04-03T16:39:58.683Z</time></trkpt><trkpt lat="42.3360662" lon="12.9738487"><ele>422.0</ele><time>2026-04-03T16:39:59.683Z</time></trkpt><trkpt lat="42.3358433" lon="12.9740704"><ele>420.5</ele><time>2026-04-03T16:40:00.682Z</time></trkpt><trkpt lat="42.3356329" lon="12.9743205"><ele>419.0</ele><time>2026-04-03T16:40:01.682Z</time></trkpt><trkpt lat="42.3354381" lon="12.9745897"><ele>419.0</ele><time>2026-04-03T16:40:02.682Z</time></trkpt><trkpt lat="42.3352609" lon="12.9748795"><ele>419.0</ele><time>2026-04-03T16:40:03.683Z</time></trkpt><trkpt lat="42.3350805" lon="12.9752028"><ele>419.0</ele><time>2026-04-03T16:40:04.682Z</time></trkpt><trkpt lat="42.334902" lon="12.9755355"><ele>419.0</ele><time>2026-04-03T16:40:05.683Z</time></trkpt><trkpt lat="42.3347184" lon="12.9758828"><ele>419.0</ele><time>2026-04-03T16:40:06.682Z</time></trkpt><trkpt lat="42.3345325" lon="12.9762427"><ele>419.0</ele><time>2026-04-03T16:40:07.682Z</time></trkpt><trkpt lat="42.3343425" lon="12.9766191"><ele>419.5</ele><time>2026-04-03T16:40:08.683Z</time></trkpt><trkpt lat="42.3341489" lon="12.9770026"><ele>420.0</ele><time>2026-04-03T16:40:09.682Z</time></trkpt><trkpt lat="42.3339456" lon="12.9773906"><ele>422.0</ele><time>2026-04-03T16:40:10.682Z</time></trkpt><trkpt lat="42.3337339" lon="12.9777726"><ele>424.0</ele><time>2026-04-03T16:40:11.682Z</time></trkpt><trkpt lat="42.3335264" lon="12.9781425"><ele>424.5</ele><time>2026-04-03T16:40:12.683Z</time></trkpt><trkpt lat="42.3333258" lon="12.9785065"><ele>425.0</ele><time>2026-04-03T16:40:13.682Z</time></trkpt><trkpt lat="42.3331319" lon="12.9788627"><ele>425.5</ele><time>2026-04-03T16:40:14.682Z</time></trkpt><trkpt lat="42.3329463" lon="12.9792135"><ele>426.0</ele><time>2026-04-03T16:40:15.683Z</time></trkpt><trkpt lat="42.3327642" lon="12.979567"><ele>426.0</ele><time>2026-04-03T16:40:16.683Z</time></trkpt><trkpt lat="42.3325904" lon="12.9799196"><ele>426.0</ele><time>2026-04-03T16:40:17.683Z</time></trkpt><trkpt lat="42.3324273" lon="12.9802692"><ele>426.5</ele><time>2026-04-03T16:40:18.683Z</time></trkpt><trkpt lat="42.332272" lon="12.9806284"><ele>427.0</ele><time>2026-04-03T16:40:19.682Z</time></trkpt><trkpt lat="42.3321386" lon="12.9809907"><ele>427.0</ele><time>2026-04-03T16:40:20.682Z</time></trkpt><trkpt lat="42.332021" lon="12.9813589"><ele>427.0</ele><time>2026-04-03T16:40:21.683Z</time></trkpt><trkpt lat="42.3319275" lon="12.9817211"><ele>429.5</ele><time>2026-04-03T16:40:22.682Z</time></trkpt><trkpt lat="42.3318569" lon="12.9820891"><ele>432.0</ele><time>2026-04-03T16:40:23.682Z</time></trkpt><trkpt lat="42.3318071" lon="12.9824585"><ele>433.5</ele><time>2026-04-03T16:40:24.683Z</time></trkpt><trkpt lat="42.3317673" lon="12.9828328"><ele>435.0</ele><time>2026-04-03T16:40:25.683Z</time></trkpt><trkpt lat="42.331744" lon="12.9832"><ele>434.5</ele><time>2026-04-03T16:40:26.682Z</time></trkpt><trkpt lat="42.3317324" lon="12.9835695"><ele>434.0</ele><time>2026-04-03T16:40:27.683Z</time></trkpt><trkpt lat="42.3317358" lon="12.9839535"><ele>435.5</ele><time>2026-04-03T16:40:28.682Z</time></trkpt><trkpt lat="42.3317424" lon="12.9843412"><ele>437.0</ele><time>2026-04-03T16:40:29.683Z</time></trkpt><trkpt lat="42.3317545" lon="12.9847379"><ele>439.5</ele><time>2026-04-03T16:40:30.683Z</time></trkpt><trkpt lat="42.3317699" lon="12.9851352"><ele>442.0</ele><time>2026-04-03T16:40:31.683Z</time></trkpt><trkpt lat="42.3317825" lon="12.9855437"><ele>442.5</ele><time>2026-04-03T16:40:32.683Z</time></trkpt><trkpt lat="42.3317901" lon="12.9859613"><ele>443.0</ele><time>2026-04-03T16:40:33.682Z</time></trkpt><trkpt lat="42.3317873" lon="12.9863842"><ele>446.5</ele><time>2026-04-03T16:40:34.683Z</time></trkpt><trkpt lat="42.331774" lon="12.9868006"><ele>450.0</ele><time>2026-04-03T16:40:35.682Z</time></trkpt><trkpt lat="42.3317454" lon="12.9872074"><ele>455.0</ele><time>2026-04-03T16:40:36.682Z</time></trkpt><trkpt lat="42.3317029" lon="12.987614"><ele>460.0</ele><time>2026-04-03T16:40:37.683Z</time></trkpt><trkpt lat="42.3316564" lon="12.9880098"><ele>465.0</ele><time>2026-04-03T16:40:38.682Z</time></trkpt><trkpt lat="42.3316062" lon="12.988399"><ele>470.0</ele><time>2026-04-03T16:40:39.683Z</time></trkpt><trkpt lat="42.3315576" lon="12.9887943"><ele>472.0</ele><time>2026-04-03T16:40:40.683Z</time></trkpt><trkpt lat="42.3315246" lon="12.9891897"><ele>474.0</ele><time>2026-04-03T16:40:41.683Z</time></trkpt><trkpt lat="42.3315094" lon="12.9895896"><ele>474.0</ele><time>2026-04-03T16:40:42.683Z</time></trkpt><trkpt lat="42.331524" lon="12.9899927"><ele>474.0</ele><time>2026-04-03T16:40:43.683Z</time></trkpt><trkpt lat="42.331561" lon="12.9903922"><ele>473.0</ele><time>2026-04-03T16:40:44.682Z</time></trkpt><trkpt lat="42.3316219" lon="12.990786"><ele>472.0</ele><time>2026-04-03T16:40:45.682Z</time></trkpt><trkpt lat="42.331705" lon="12.9911713"><ele>466.5</ele><time>2026-04-03T16:40:46.683Z</time></trkpt><trkpt lat="42.3318052" lon="12.9915465"><ele>461.0</ele><time>2026-04-03T16:40:47.683Z</time></trkpt><trkpt lat="42.3319247" lon="12.991911"><ele>463.0</ele><time>2026-04-03T16:40:48.683Z</time></trkpt><trkpt lat="42.3320739" lon="12.9922595"><ele>465.0</ele><time>2026-04-03T16:40:49.683Z</time></trkpt><trkpt lat="42.3322376" lon="12.9925885"><ele>465.0</ele><time>2026-04-03T16:40:50.682Z</time></trkpt><trkpt lat="42.3324239" lon="12.9929036"><ele>465.0</ele><time>2026-04-03T16:40:51.682Z</time></trkpt><trkpt lat="42.3326198" lon="12.9931956"><ele>456.5</ele><time>2026-04-03T16:40:52.683Z</time></trkpt><trkpt lat="42.3328179" lon="12.9934959"><ele>448.0</ele><time>2026-04-03T16:40:53.682Z</time></trkpt><trkpt lat="42.333016" lon="12.9937981"><ele>452.0</ele><time>2026-04-03T16:40:54.683Z</time></trkpt><trkpt lat="42.3332159" lon="12.9941029"><ele>456.0</ele><time>2026-04-03T16:40:55.683Z</time></trkpt><trkpt lat="42.3334153" lon="12.9944121"><ele>456.0</ele><time>2026-04-03T16:40:56.682Z</time></trkpt><trkpt lat="42.3336131" lon="12.994722"><ele>456.0</ele><time>2026-04-03T16:40:57.682Z</time></trkpt><trkpt lat="42.3338137" lon="12.9950253"><ele>463.0</ele><time>2026-04-03T16:40:58.683Z</time></trkpt><trkpt lat="42.3340136" lon="12.9953242"><ele>470.0</ele><time>2026-04-03T16:40:59.682Z</time></trkpt><trkpt lat="42.3342155" lon="12.9956313"><ele>460.0</ele><time>2026-04-03T16:41:00.683Z</time></trkpt><trkpt lat="42.3344113" lon="12.9959426"><ele>450.0</ele><time>2026-04-03T16:41:01.683Z</time></trkpt><trkpt lat="42.334599" lon="12.9962601"><ele>455.0</ele><time>2026-04-03T16:41:02.682Z</time></trkpt><trkpt lat="42.3347768" lon="12.9965886"><ele>460.0</ele><time>2026-04-03T16:41:03.682Z</time></trkpt><trkpt lat="42.3349427" lon="12.99693"><ele>460.0</ele><time>2026-04-03T16:41:04.682Z</time></trkpt><trkpt lat="42.3350925" lon="12.9972818"><ele>460.0</ele><time>2026-04-03T16:41:05.683Z</time></trkpt><trkpt lat="42.3352268" lon="12.9976414"><ele>460.5</ele><time>2026-04-03T16:41:06.682Z</time></trkpt><trkpt lat="42.335337" lon="12.9980029"><ele>461.0</ele><time>2026-04-03T16:41:07.683Z</time></trkpt><trkpt lat="42.3354318" lon="12.9983828"><ele>461.0</ele><time>2026-04-03T16:41:08.683Z</time></trkpt><trkpt lat="42.3355117" lon="12.9987688"><ele>461.0</ele><time>2026-04-03T16:41:09.682Z</time></trkpt><trkpt lat="42.3355697" lon="12.9991618"><ele>480.0</ele><time>2026-04-03T16:41:10.683Z</time></trkpt><trkpt lat="42.3356111" lon="12.9995594"><ele>499.0</ele><time>2026-04-03T16:41:11.683Z</time></trkpt><trkpt lat="42.335636" lon="12.9999575"><ele>499.0</ele><time>2026-04-03T16:41:12.683Z</time></trkpt><trkpt lat="42.3356497" lon="13.0003571"><ele>499.0</ele><time>2026-04-03T16:41:13.683Z</time></trkpt><trkpt lat="42.335646" lon="13.0007608"><ele>501.0</ele><time>2026-04-03T16:41:14.683Z</time></trkpt><trkpt lat="42.3356232" lon="13.0011663"><ele>503.0</ele><time>2026-04-03T16:41:15.683Z</time></trkpt><trkpt lat="42.3355823" lon="13.0015667"><ele>486.0</ele><time>2026-04-03T16:41:16.683Z</time></trkpt><trkpt lat="42.3355252" lon="13.0019621"><ele>469.0</ele><time>2026-04-03T16:41:17.682Z</time></trkpt><trkpt lat="42.3354503" lon="13.0023529"><ele>468.5</ele><time>2026-04-03T16:41:18.683Z</time></trkpt><trkpt lat="42.3353533" lon="13.0027285"><ele>468.0</ele><time>2026-04-03T16:41:19.683Z</time></trkpt><trkpt lat="42.3352416" lon="13.0031036"><ele>467.5</ele><time>2026-04-03T16:41:20.683Z</time></trkpt><trkpt lat="42.3351118" lon="13.0034773"><ele>467.0</ele><time>2026-04-03T16:41:21.683Z</time></trkpt><trkpt lat="42.3349776" lon="13.0038409"><ele>467.0</ele><time>2026-04-03T16:41:22.683Z</time></trkpt><trkpt lat="42.3348382" lon="13.0042011"><ele>467.0</ele><time>2026-04-03T16:41:23.682Z</time></trkpt><trkpt lat="42.3346978" lon="13.0045602"><ele>467.0</ele><time>2026-04-03T16:41:24.682Z</time></trkpt><trkpt lat="42.3345519" lon="13.004923"><ele>467.0</ele><time>2026-04-03T16:41:25.683Z</time></trkpt><trkpt lat="42.3344103" lon="13.0052846"><ele>474.5</ele><time>2026-04-03T16:41:26.683Z</time></trkpt><trkpt lat="42.3342701" lon="13.0056454"><ele>482.0</ele><time>2026-04-03T16:41:27.682Z</time></trkpt><trkpt lat="42.3341268" lon="13.0060089"><ele>483.5</ele><time>2026-04-03T16:41:28.683Z</time></trkpt><trkpt lat="42.3339845" lon="13.0063719"><ele>485.0</ele><time>2026-04-03T16:41:29.682Z</time></trkpt><trkpt lat="42.3338443" lon="13.0067308"><ele>485.0</ele><time>2026-04-03T16:41:30.683Z</time></trkpt><trkpt lat="42.3337047" lon="13.0070912"><ele>485.0</ele><time>2026-04-03T16:41:31.683Z</time></trkpt><trkpt lat="42.3335632" lon="13.0074455"><ele>492.5</ele><time>2026-04-03T16:41:32.683Z</time></trkpt><trkpt lat="42.3334219" lon="13.0078015"><ele>500.0</ele><time>2026-04-03T16:41:33.683Z</time></trkpt><trkpt lat="42.333282" lon="13.008154"><ele>494.0</ele><time>2026-04-03T16:41:34.682Z</time></trkpt><trkpt lat="42.3331407" lon="13.008511"><ele>488.0</ele><time>2026-04-03T16:41:35.682Z</time></trkpt><trkpt lat="42.3329991" lon="13.0088695"><ele>493.0</ele><time>2026-04-03T16:41:36.682Z</time></trkpt><trkpt lat="42.3328562" lon="13.0092282"><ele>498.0</ele><time>2026-04-03T16:41:37.683Z</time></trkpt><trkpt lat="42.332715" lon="13.0095906"><ele>498.0</ele><time>2026-04-03T16:41:38.683Z</time></trkpt><trkpt lat="42.3325734" lon="13.0099506"><ele>498.0</ele><time>2026-04-03T16:41:39.682Z</time></trkpt><trkpt lat="42.3324286" lon="13.0103068"><ele>500.0</ele><time>2026-04-03T16:41:40.682Z</time></trkpt><trkpt lat="42.3322766" lon="13.0106597"><ele>502.0</ele><time>2026-04-03T16:41:41.682Z</time></trkpt><trkpt lat="42.3321194" lon="13.0110035"><ele>502.0</ele><time>2026-04-03T16:41:42.683Z</time></trkpt><trkpt lat="42.3319538" lon="13.0113407"><ele>502.0</ele><time>2026-04-03T16:41:43.683Z</time></trkpt><trkpt lat="42.3317847" lon="13.0116725"><ele>509.0</ele><time>2026-04-03T16:41:44.683Z</time></trkpt><trkpt lat="42.3316093" lon="13.0119998"><ele>516.0</ele><time>2026-04-03T16:41:45.682Z</time></trkpt><trkpt lat="42.3314246" lon="13.0123204"><ele>507.0</ele><time>2026-04-03T16:41:46.683Z</time></trkpt><trkpt lat="42.3312392" lon="13.0126174"><ele>498.0</ele><time>2026-04-03T16:41:47.682Z</time></trkpt><trkpt lat="42.3310635" lon="13.0128948"><ele>498.0</ele><time>2026-04-03T16:41:48.683Z</time></trkpt><trkpt lat="42.3308915" lon="13.0131628"><ele>498.0</ele><time>2026-04-03T16:41:49.683Z</time></trkpt><trkpt lat="42.3307276" lon="13.0134215"><ele>499.0</ele><time>2026-04-03T16:41:50.683Z</time></trkpt><trkpt lat="42.3305658" lon="13.0136758"><ele>500.0</ele><time>2026-04-03T16:41:51.683Z</time></trkpt><trkpt lat="42.3304078" lon="13.0139276"><ele>504.5</ele><time>2026-04-03T16:41:52.683Z</time></trkpt><trkpt lat="42.3302458" lon="13.0141945"><ele>509.0</ele><time>2026-04-03T16:41:53.682Z</time></trkpt><trkpt lat="42.3300786" lon="13.0144801"><ele>509.0</ele><time>2026-04-03T16:41:54.683Z</time></trkpt><trkpt lat="42.3299014" lon="13.0147659"><ele>509.0</ele><time>2026-04-03T16:41:55.683Z</time></trkpt><trkpt lat="42.329716" lon="13.0150562"><ele>533.0</ele><time>2026-04-03T16:41:56.682Z</time></trkpt><trkpt lat="42.3295212" lon="13.0153529"><ele>557.0</ele><time>2026-04-03T16:41:57.683Z</time></trkpt><trkpt lat="42.3293239" lon="13.0156492"><ele>552.0</ele><time>2026-04-03T16:41:58.683Z</time></trkpt><trkpt lat="42.329129" lon="13.0159408"><ele>547.0</ele><time>2026-04-03T16:41:59.683Z</time></trkpt><trkpt lat="42.3289359" lon="13.0162267"><ele>554.0</ele><time>2026-04-03T16:42:00.683Z</time></trkpt><trkpt lat="42.3287455" lon="13.0165041"><ele>561.0</ele><time>2026-04-03T16:42:01.682Z</time></trkpt><trkpt lat="42.3285461" lon="13.0167715"><ele>561.0</ele><time>2026-04-03T16:42:02.683Z</time></trkpt><trkpt lat="42.3283402" lon="13.0170352"><ele>561.0</ele><time>2026-04-03T16:42:03.683Z</time></trkpt><trkpt lat="42.3281258" lon="13.0172866"><ele>560.5</ele><time>2026-04-03T16:42:04.682Z</time></trkpt><trkpt lat="42.327904" lon="13.0175272"><ele>560.0</ele><time>2026-04-03T16:42:05.682Z</time></trkpt><trkpt lat="42.3276681" lon="13.0177591"><ele>560.0</ele><time>2026-04-03T16:42:06.683Z</time></trkpt><trkpt lat="42.3274176" lon="13.0179716"><ele>560.0</ele><time>2026-04-03T16:42:07.683Z</time></trkpt><trkpt lat="42.3271538" lon="13.0181627"><ele>562.0</ele><time>2026-04-03T16:42:08.683Z</time></trkpt><trkpt lat="42.3268836" lon="13.0183329"><ele>564.0</ele><time>2026-04-03T16:42:09.683Z</time></trkpt><trkpt lat="42.3266078" lon="13.0184917"><ele>573.5</ele><time>2026-04-03T16:42:10.683Z</time></trkpt><trkpt lat="42.3263287" lon="13.0186476"><ele>583.0</ele><time>2026-04-03T16:42:11.683Z</time></trkpt><trkpt lat="42.3260492" lon="13.0188065"><ele>583.0</ele><time>2026-04-03T16:42:12.683Z</time></trkpt><trkpt lat="42.3257684" lon="13.0189632"><ele>583.0</ele><time>2026-04-03T16:42:13.682Z</time></trkpt><trkpt lat="42.3254888" lon="13.0191227"><ele>575.5</ele><time>2026-04-03T16:42:14.682Z</time></trkpt><trkpt lat="42.3252124" lon="13.0192926"><ele>568.0</ele><time>2026-04-03T16:42:15.683Z</time></trkpt><trkpt lat="42.3249404" lon="13.0194774"><ele>580.0</ele><time>2026-04-03T16:42:16.682Z</time></trkpt><trkpt lat="42.3246755" lon="13.0196644"><ele>592.0</ele><time>2026-04-03T16:42:17.683Z</time></trkpt><trkpt lat="42.3244122" lon="13.0198661"><ele>584.5</ele><time>2026-04-03T16:42:18.683Z</time></trkpt><trkpt lat="42.3241524" lon="13.0200792"><ele>577.0</ele><time>2026-04-03T16:42:19.682Z</time></trkpt><trkpt lat="42.3239015" lon="13.020301"><ele>587.5</ele><time>2026-04-03T16:42:20.682Z</time></trkpt><trkpt lat="42.3236558" lon="13.0205335"><ele>598.0</ele><time>2026-04-03T16:42:21.683Z</time></trkpt><trkpt lat="42.3234167" lon="13.0207731"><ele>601.5</ele><time>2026-04-03T16:42:22.682Z</time></trkpt><trkpt lat="42.3231801" lon="13.0210175"><ele>605.0</ele><time>2026-04-03T16:42:23.683Z</time></trkpt><trkpt lat="42.3227056" lon="13.0215048"><ele>604.5</ele><time>2026-04-03T16:42:25.683Z</time></trkpt><trkpt lat="42.3224646" lon="13.0217496"><ele>604.0</ele><time>2026-04-03T16:42:26.683Z</time></trkpt><trkpt lat="42.3222244" lon="13.0219912"><ele>604.0</ele><time>2026-04-03T16:42:27.683Z</time></trkpt><trkpt lat="42.3219788" lon="13.0222274"><ele>604.0</ele><time>2026-04-03T16:42:28.683Z</time></trkpt><trkpt lat="42.3217298" lon="13.022456"><ele>602.5</ele><time>2026-04-03T16:42:29.682Z</time></trkpt><trkpt lat="42.3214719" lon="13.0226666"><ele>601.0</ele><time>2026-04-03T16:42:30.683Z</time></trkpt><trkpt lat="42.3212093" lon="13.0228543"><ele>601.0</ele><time>2026-04-03T16:42:31.683Z</time></trkpt><trkpt lat="42.3209384" lon="13.0230057"><ele>601.0</ele><time>2026-04-03T16:42:32.683Z</time></trkpt><trkpt lat="42.3206607" lon="13.0231449"><ele>603.0</ele><time>2026-04-03T16:42:33.682Z</time></trkpt><trkpt lat="42.3203758" lon="13.0232639"><ele>605.0</ele><time>2026-04-03T16:42:34.683Z</time></trkpt><trkpt lat="42.3200916" lon="13.0233866"><ele>605.0</ele><time>2026-04-03T16:42:35.683Z</time></trkpt><trkpt lat="42.3198075" lon="13.0235162"><ele>605.0</ele><time>2026-04-03T16:42:36.683Z</time></trkpt><trkpt lat="42.3195209" lon="13.0236737"><ele>610.0</ele><time>2026-04-03T16:42:37.682Z</time></trkpt><trkpt lat="42.319255" lon="13.0238452"><ele>615.0</ele><time>2026-04-03T16:42:38.682Z</time></trkpt><trkpt lat="42.3189948" lon="13.0240503"><ele>613.0</ele><time>2026-04-03T16:42:39.683Z</time></trkpt><trkpt lat="42.3187547" lon="13.0242868"><ele>611.0</ele><time>2026-04-03T16:42:40.683Z</time></trkpt><trkpt lat="42.3185297" lon="13.0245498"><ele>611.0</ele><time>2026-04-03T16:42:41.682Z</time></trkpt><trkpt lat="42.3183166" lon="13.0248345"><ele>611.0</ele><time>2026-04-03T16:42:42.682Z</time></trkpt><trkpt lat="42.3181214" lon="13.0251401"><ele>610.5</ele><time>2026-04-03T16:42:43.682Z</time></trkpt><trkpt lat="42.3179557" lon="13.0254716"><ele>610.0</ele><time>2026-04-03T16:42:44.682Z</time></trkpt><trkpt lat="42.3178111" lon="13.0258154"><ele>610.0</ele><time>2026-04-03T16:42:45.683Z</time></trkpt><trkpt lat="42.3176776" lon="13.0261653"><ele>610.0</ele><time>2026-04-03T16:42:46.683Z</time></trkpt><trkpt lat="42.3175518" lon="13.0265333"><ele>608.0</ele><time>2026-04-03T16:42:47.683Z</time></trkpt><trkpt lat="42.3174249" lon="13.0269057"><ele>606.0</ele><time>2026-04-03T16:42:48.683Z</time></trkpt><trkpt lat="42.3173004" lon="13.0272761"><ele>609.5</ele><time>2026-04-03T16:42:49.683Z</time></trkpt><trkpt lat="42.3171746" lon="13.0276472"><ele>613.0</ele><time>2026-04-03T16:42:50.683Z</time></trkpt><trkpt lat="42.3170426" lon="13.0280176"><ele>613.0</ele><time>2026-04-03T16:42:51.683Z</time></trkpt><trkpt lat="42.316897" lon="13.0283928"><ele>613.0</ele><time>2026-04-03T16:42:52.683Z</time></trkpt><trkpt lat="42.3167325" lon="13.0287584"><ele>613.0</ele><time>2026-04-03T16:42:53.682Z</time></trkpt><trkpt lat="42.3165581" lon="13.0291086"><ele>613.0</ele><time>2026-04-03T16:42:54.682Z</time></trkpt><trkpt lat="42.3163751" lon="13.0294438"><ele>615.5</ele><time>2026-04-03T16:42:55.683Z</time></trkpt><trkpt lat="42.3161773" lon="13.0297565"><ele>618.0</ele><time>2026-04-03T16:42:56.683Z</time></trkpt><trkpt lat="42.3159683" lon="13.0300439"><ele>622.0</ele><time>2026-04-03T16:42:57.682Z</time></trkpt><trkpt lat="42.3157489" lon="13.0303194"><ele>626.0</ele><time>2026-04-03T16:42:58.683Z</time></trkpt><trkpt lat="42.3155184" lon="13.0305809"><ele>631.0</ele><time>2026-04-03T16:42:59.683Z</time></trkpt><trkpt lat="42.3152777" lon="13.0308288"><ele>636.0</ele><time>2026-04-03T16:43:00.682Z</time></trkpt><trkpt lat="42.3150238" lon="13.0310622"><ele>636.0</ele><time>2026-04-03T16:43:01.682Z</time></trkpt><trkpt lat="42.3147618" lon="13.0312694"><ele>636.0</ele><time>2026-04-03T16:43:02.683Z</time></trkpt><trkpt lat="42.3144926" lon="13.0314545"><ele>641.0</ele><time>2026-04-03T16:43:03.682Z</time></trkpt><trkpt lat="42.3142168" lon="13.0316287"><ele>646.0</ele><time>2026-04-03T16:43:04.683Z</time></trkpt><trkpt lat="42.3139351" lon="13.0317982"><ele>655.0</ele><time>2026-04-03T16:43:05.683Z</time></trkpt><trkpt lat="42.3136492" lon="13.0319583"><ele>664.0</ele><time>2026-04-03T16:43:06.683Z</time></trkpt><trkpt lat="42.3133627" lon="13.0321313"><ele>665.0</ele><time>2026-04-03T16:43:07.683Z</time></trkpt><trkpt lat="42.3130724" lon="13.0323099"><ele>666.0</ele><time>2026-04-03T16:43:08.683Z</time></trkpt><trkpt lat="42.312782" lon="13.0324877"><ele>661.0</ele><time>2026-04-03T16:43:09.682Z</time></trkpt><trkpt lat="42.312488" lon="13.0326674"><ele>656.0</ele><time>2026-04-03T16:43:10.682Z</time></trkpt><trkpt lat="42.3121936" lon="13.0328486"><ele>656.0</ele><time>2026-04-03T16:43:11.682Z</time></trkpt><trkpt lat="42.3119049" lon="13.0330309"><ele>656.0</ele><time>2026-04-03T16:43:12.683Z</time></trkpt><trkpt lat="42.3116221" lon="13.0332235"><ele>662.0</ele><time>2026-04-03T16:43:13.682Z</time></trkpt><trkpt lat="42.311349" lon="13.0334138"><ele>668.0</ele><time>2026-04-03T16:43:14.683Z</time></trkpt><trkpt lat="42.3110805" lon="13.0336159"><ele>668.0</ele><time>2026-04-03T16:43:15.683Z</time></trkpt><trkpt lat="42.3108144" lon="13.0338194"><ele>668.0</ele><time>2026-04-03T16:43:16.683Z</time></trkpt><trkpt lat="42.3105447" lon="13.034023"><ele>678.5</ele><time>2026-04-03T16:43:17.683Z</time></trkpt><trkpt lat="42.3102735" lon="13.0342409"><ele>689.0</ele><time>2026-04-03T16:43:18.683Z</time></trkpt><trkpt lat="42.3100076" lon="13.0344715"><ele>703.0</ele><time>2026-04-03T16:43:19.683Z</time></trkpt><trkpt lat="42.3083647" lon="13.0357452"><ele>690.0</ele><time>2026-04-03T16:43:25.682Z</time></trkpt><trkpt lat="42.30809" lon="13.0359685"><ele>677.0</ele><time>2026-04-03T16:43:26.682Z</time></trkpt><trkpt lat="42.3078426" lon="13.0362142"><ele>677.0</ele><time>2026-04-03T16:43:27.683Z</time></trkpt><trkpt lat="42.3075915" lon="13.0364699"><ele>677.0</ele><time>2026-04-03T16:43:28.682Z</time></trkpt><trkpt lat="42.3073524" lon="13.0367348"><ele>671.5</ele><time>2026-04-03T16:43:29.683Z</time></trkpt><trkpt lat="42.3071242" lon="13.0370092"><ele>666.0</ele><time>2026-04-03T16:43:30.682Z</time></trkpt><trkpt lat="42.3069029" lon="13.0372906"><ele>670.0</ele><time>2026-04-03T16:43:31.683Z</time></trkpt><trkpt lat="42.3067159" lon="13.0375941"><ele>674.0</ele><time>2026-04-03T16:43:32.683Z</time></trkpt><trkpt lat="42.3065117" lon="13.0379112"><ele>674.0</ele><time>2026-04-03T16:43:33.682Z</time></trkpt><trkpt lat="42.306309" lon="13.038226"><ele>674.0</ele><time>2026-04-03T16:43:34.682Z</time></trkpt><trkpt lat="42.3061158" lon="13.0385489"><ele>674.0</ele><time>2026-04-03T16:43:35.682Z</time></trkpt><trkpt lat="42.3059255" lon="13.0388813"><ele>674.0</ele><time>2026-04-03T16:43:36.683Z</time></trkpt><trkpt lat="42.3057469" lon="13.0392221"><ele>668.5</ele><time>2026-04-03T16:43:37.683Z</time></trkpt><trkpt lat="42.3055769" lon="13.0395711"><ele>663.0</ele><time>2026-04-03T16:43:38.682Z</time></trkpt><trkpt lat="42.3054145" lon="13.0399257"><ele>661.5</ele><time>2026-04-03T16:43:39.683Z</time></trkpt><trkpt lat="42.305254" lon="13.0402843"><ele>660.0</ele><time>2026-04-03T16:43:40.682Z</time></trkpt><trkpt lat="42.3051013" lon="13.0406428"><ele>667.5</ele><time>2026-04-03T16:43:41.683Z</time></trkpt><trkpt lat="42.3049477" lon="13.041"><ele>675.0</ele><time>2026-04-03T16:43:42.683Z</time></trkpt><trkpt lat="42.3047951" lon="13.0413632"><ele>677.5</ele><time>2026-04-03T16:43:43.682Z</time></trkpt><trkpt lat="42.3046443" lon="13.0417253"><ele>680.0</ele><time>2026-04-03T16:43:44.682Z</time></trkpt><trkpt lat="42.3044904" lon="13.042089"><ele>682.0</ele><time>2026-04-03T16:43:45.683Z</time></trkpt><trkpt lat="42.3043321" lon="13.0424698"><ele>684.0</ele><time>2026-04-03T16:43:46.683Z</time></trkpt><trkpt lat="42.3041749" lon="13.0428538"><ele>684.0</ele><time>2026-04-03T16:43:47.683Z</time></trkpt><trkpt lat="42.3040186" lon="13.0432502"><ele>684.0</ele><time>2026-04-03T16:43:48.683Z</time></trkpt><trkpt lat="42.3038559" lon="13.0436363"><ele>688.5</ele><time>2026-04-03T16:43:49.683Z</time></trkpt><trkpt lat="42.3036922" lon="13.0440094"><ele>693.0</ele><time>2026-04-03T16:43:50.683Z</time></trkpt><trkpt lat="42.3035278" lon="13.044382"><ele>665.0</ele><time>2026-04-03T16:43:51.683Z</time></trkpt><trkpt lat="42.3012925" lon="13.0495952"><ele>662.0</ele><time>2026-04-03T16:44:05.683Z</time></trkpt><trkpt lat="42.3011289" lon="13.0499923"><ele>659.0</ele><time>2026-04-03T16:44:06.683Z</time></trkpt><trkpt lat="42.300946" lon="13.0503992"><ele>659.0</ele><time>2026-04-03T16:44:07.682Z</time></trkpt><trkpt lat="42.300783" lon="13.0507729"><ele>659.0</ele><time>2026-04-03T16:44:08.683Z</time></trkpt><trkpt lat="42.3006257" lon="13.0511573"><ele>663.0</ele><time>2026-04-03T16:44:09.682Z</time></trkpt><trkpt lat="42.3004614" lon="13.0515349"><ele>667.0</ele><time>2026-04-03T16:44:10.682Z</time></trkpt><trkpt lat="42.3002988" lon="13.051921"><ele>667.0</ele><time>2026-04-03T16:44:11.682Z</time></trkpt><trkpt lat="42.3001526" lon="13.052311"><ele>667.0</ele><time>2026-04-03T16:44:12.682Z</time></trkpt><trkpt lat="42.3000026" lon="13.052702"><ele>669.5</ele><time>2026-04-03T16:44:13.683Z</time></trkpt><trkpt lat="42.2998423" lon="13.0530878"><ele>672.0</ele><time>2026-04-03T16:44:14.683Z</time></trkpt><trkpt lat="42.2996798" lon="13.0534737"><ele>673.0</ele><time>2026-04-03T16:44:15.682Z</time></trkpt><trkpt lat="42.2995207" lon="13.0538566"><ele>674.0</ele><time>2026-04-03T16:44:16.683Z</time></trkpt><trkpt lat="42.2976158" lon="13.0579409"><ele>656.0</ele><time>2026-04-03T16:44:27.683Z</time></trkpt><trkpt lat="42.2971934" lon="13.058619"><ele>656.0</ele><time>2026-04-03T16:44:29.682Z</time></trkpt><trkpt lat="42.2969795" lon="13.0589382"><ele>656.0</ele><time>2026-04-03T16:44:30.683Z</time></trkpt><trkpt lat="42.2967397" lon="13.0592444"><ele>658.0</ele><time>2026-04-03T16:44:31.682Z</time></trkpt><trkpt lat="42.2965045" lon="13.0595445"><ele>660.0</ele><time>2026-04-03T16:44:32.683Z</time></trkpt><trkpt lat="42.2962571" lon="13.0598339"><ele>652.5</ele><time>2026-04-03T16:44:33.683Z</time></trkpt><trkpt lat="42.2960216" lon="13.0601069"><ele>645.0</ele><time>2026-04-03T16:44:34.683Z</time></trkpt><trkpt lat="42.2957613" lon="13.0603688"><ele>644.0</ele><time>2026-04-03T16:44:35.683Z</time></trkpt><trkpt lat="42.2954902" lon="13.0606137"><ele>643.0</ele><time>2026-04-03T16:44:36.683Z</time></trkpt><trkpt lat="42.2952127" lon="13.0608533"><ele>643.0</ele><time>2026-04-03T16:44:37.683Z</time></trkpt><trkpt lat="42.2949286" lon="13.0610798"><ele>643.0</ele><time>2026-04-03T16:44:38.682Z</time></trkpt><trkpt lat="42.2946396" lon="13.0612905"><ele>646.5</ele><time>2026-04-03T16:44:39.682Z</time></trkpt><trkpt lat="42.2943455" lon="13.0614834"><ele>650.0</ele><time>2026-04-03T16:44:40.683Z</time></trkpt><trkpt lat="42.2940504" lon="13.0616678"><ele>649.5</ele><time>2026-04-03T16:44:41.682Z</time></trkpt><trkpt lat="42.293753" lon="13.0618514"><ele>649.0</ele><time>2026-04-03T16:44:42.683Z</time></trkpt><trkpt lat="42.293455" lon="13.0620317"><ele>649.0</ele><time>2026-04-03T16:44:43.683Z</time></trkpt><trkpt lat="42.2931587" lon="13.0622122"><ele>649.0</ele><time>2026-04-03T16:44:44.683Z</time></trkpt><trkpt lat="42.2928612" lon="13.0623943"><ele>661.0</ele><time>2026-04-03T16:44:45.682Z</time></trkpt><trkpt lat="42.2925645" lon="13.0625802"><ele>673.0</ele><time>2026-04-03T16:44:46.683Z</time></trkpt><trkpt lat="42.2922682" lon="13.0627627"><ele>664.5</ele><time>2026-04-03T16:44:47.682Z</time></trkpt><trkpt lat="42.2919718" lon="13.0629449"><ele>656.0</ele><time>2026-04-03T16:44:48.683Z</time></trkpt><trkpt lat="42.291676" lon="13.0631249"><ele>674.0</ele><time>2026-04-03T16:44:49.683Z</time></trkpt><trkpt lat="42.2913797" lon="13.063307"><ele>692.0</ele><time>2026-04-03T16:44:50.683Z</time></trkpt><trkpt lat="42.2910797" lon="13.0634805"><ele>692.0</ele><time>2026-04-03T16:44:51.683Z</time></trkpt><trkpt lat="42.2907773" lon="13.0636551"><ele>692.0</ele><time>2026-04-03T16:44:52.683Z</time></trkpt><trkpt lat="42.2895703" lon="13.0643882"><ele>682.5</ele><time>2026-04-03T16:44:56.683Z</time></trkpt><trkpt lat="42.2892969" lon="13.0645632"><ele>673.0</ele><time>2026-04-03T16:44:57.683Z</time></trkpt><trkpt lat="42.2890021" lon="13.0647349"><ele>668.0</ele><time>2026-04-03T16:44:58.682Z</time></trkpt><trkpt lat="42.2886999" lon="13.0649082"><ele>663.0</ele><time>2026-04-03T16:44:59.683Z</time></trkpt><trkpt lat="42.2884098" lon="13.0650926"><ele>663.0</ele><time>2026-04-03T16:45:00.683Z</time></trkpt><trkpt lat="42.2881165" lon="13.0652754"><ele>663.0</ele><time>2026-04-03T16:45:01.683Z</time></trkpt><trkpt lat="42.2878187" lon="13.0654584"><ele>658.0</ele><time>2026-04-03T16:45:02.683Z</time></trkpt><trkpt lat="42.2875188" lon="13.065643"><ele>653.0</ele><time>2026-04-03T16:45:03.683Z</time></trkpt><trkpt lat="42.2872169" lon="13.0658246"><ele>651.5</ele><time>2026-04-03T16:45:04.683Z</time></trkpt><trkpt lat="42.2869186" lon="13.0660029"><ele>650.0</ele><time>2026-04-03T16:45:05.682Z</time></trkpt><trkpt lat="42.2866209" lon="13.0661894"><ele>649.0</ele><time>2026-04-03T16:45:06.683Z</time></trkpt><trkpt lat="42.2863234" lon="13.0663739"><ele>648.0</ele><time>2026-04-03T16:45:07.683Z</time></trkpt><trkpt lat="42.2860259" lon="13.0665577"><ele>650.0</ele><time>2026-04-03T16:45:08.683Z</time></trkpt><trkpt lat="42.2857329" lon="13.0667382"><ele>652.0</ele><time>2026-04-03T16:45:09.683Z</time></trkpt><trkpt lat="42.2854422" lon="13.0669168"><ele>652.0</ele><time>2026-04-03T16:45:10.683Z</time></trkpt><trkpt lat="42.2851502" lon="13.0670977"><ele>652.0</ele><time>2026-04-03T16:45:11.683Z</time></trkpt><trkpt lat="42.2848587" lon="13.0672772"><ele>660.5</ele><time>2026-04-03T16:45:12.683Z</time></trkpt><trkpt lat="42.2845642" lon="13.0674575"><ele>669.0</ele><time>2026-04-03T16:45:13.682Z</time></trkpt><trkpt lat="42.2842678" lon="13.0676357"><ele>669.0</ele><time>2026-04-03T16:45:14.683Z</time></trkpt><trkpt lat="42.2839697" lon="13.0678158"><ele>669.0</ele><time>2026-04-03T16:45:15.682Z</time></trkpt><trkpt lat="42.2836706" lon="13.067998"><ele>674.5</ele><time>2026-04-03T16:45:16.683Z</time></trkpt><trkpt lat="42.2833698" lon="13.0681817"><ele>680.0</ele><time>2026-04-03T16:45:17.683Z</time></trkpt><trkpt lat="42.2830673" lon="13.0683684"><ele>680.0</ele><time>2026-04-03T16:45:18.682Z</time></trkpt><trkpt lat="42.2827598" lon="13.0685568"><ele>680.0</ele><time>2026-04-03T16:45:19.683Z</time></trkpt><trkpt lat="42.2824497" lon="13.0687397"><ele>634.0</ele><time>2026-04-03T16:45:20.683Z</time></trkpt><trkpt lat="42.2812132" lon="13.0694371"><ele>634.0</ele><time>2026-04-03T16:45:24.683Z</time></trkpt><trkpt lat="42.2808914" lon="13.0696195"><ele>634.0</ele><time>2026-04-03T16:45:25.683Z</time></trkpt><trkpt lat="42.2805781" lon="13.0698015"><ele>638.5</ele><time>2026-04-03T16:45:26.683Z</time></trkpt><trkpt lat="42.2802608" lon="13.0699914"><ele>643.0</ele><time>2026-04-03T16:45:27.683Z</time></trkpt><trkpt lat="42.2799486" lon="13.0701902"><ele>649.0</ele><time>2026-04-03T16:45:28.683Z</time></trkpt><trkpt lat="42.2796408" lon="13.0703855"><ele>655.0</ele><time>2026-04-03T16:45:29.683Z</time></trkpt><trkpt lat="42.2793335" lon="13.0705858"><ele>664.5</ele><time>2026-04-03T16:45:30.683Z</time></trkpt><trkpt lat="42.2790453" lon="13.0708035"><ele>674.0</ele><time>2026-04-03T16:45:31.682Z</time></trkpt><trkpt lat="42.2787586" lon="13.0710247"><ele>675.5</ele><time>2026-04-03T16:45:32.682Z</time></trkpt><trkpt lat="42.2784697" lon="13.0712534"><ele>677.0</ele><time>2026-04-03T16:45:33.682Z</time></trkpt><trkpt lat="42.278184" lon="13.0714924"><ele>676.0</ele><time>2026-04-03T16:45:34.683Z</time></trkpt><trkpt lat="42.2779038" lon="13.0717462"><ele>675.0</ele><time>2026-04-03T16:45:35.682Z</time></trkpt><trkpt lat="42.2776322" lon="13.0720107"><ele>675.0</ele><time>2026-04-03T16:45:36.682Z</time></trkpt><trkpt lat="42.2773625" lon="13.0722809"><ele>675.0</ele><time>2026-04-03T16:45:37.683Z</time></trkpt><trkpt lat="42.277094" lon="13.0725508"><ele>673.5</ele><time>2026-04-03T16:45:38.682Z</time></trkpt><trkpt lat="42.2768295" lon="13.0728213"><ele>672.0</ele><time>2026-04-03T16:45:39.683Z</time></trkpt><trkpt lat="42.2765664" lon="13.0730856"><ele>669.5</ele><time>2026-04-03T16:45:40.683Z</time></trkpt><trkpt lat="42.2762945" lon="13.0733322"><ele>667.0</ele><time>2026-04-03T16:45:41.683Z</time></trkpt><trkpt lat="42.2760173" lon="13.073552"><ele>669.0</ele><time>2026-04-03T16:45:42.682Z</time></trkpt><trkpt lat="42.2754749" lon="13.073927"><ele>669.0</ele><time>2026-04-03T16:45:44.683Z</time></trkpt><trkpt lat="42.2751977" lon="13.0740733"><ele>669.0</ele><time>2026-04-03T16:45:45.683Z</time></trkpt><trkpt lat="42.2749107" lon="13.0741886"><ele>672.0</ele><time>2026-04-03T16:45:46.683Z</time></trkpt><trkpt lat="42.2746205" lon="13.0742826"><ele>675.0</ele><time>2026-04-03T16:45:47.683Z</time></trkpt><trkpt lat="42.2743277" lon="13.0743598"><ele>675.0</ele><time>2026-04-03T16:45:48.682Z</time></trkpt><trkpt lat="42.274029" lon="13.0744017"><ele>675.0</ele><time>2026-04-03T16:45:49.682Z</time></trkpt><trkpt lat="42.2737316" lon="13.0744148"><ele>672.5</ele><time>2026-04-03T16:45:50.682Z</time></trkpt><trkpt lat="42.2734373" lon="13.0744072"><ele>670.0</ele><time>2026-04-03T16:45:51.683Z</time></trkpt><trkpt lat="42.2731412" lon="13.0743841"><ele>667.5</ele><time>2026-04-03T16:45:52.682Z</time></trkpt><trkpt lat="42.2728425" lon="13.0743381"><ele>665.0</ele><time>2026-04-03T16:45:53.683Z</time></trkpt><trkpt lat="42.2725419" lon="13.0742709"><ele>672.0</ele><time>2026-04-03T16:45:54.683Z</time></trkpt><trkpt lat="42.2722427" lon="13.0741899"><ele>679.0</ele><time>2026-04-03T16:45:55.683Z</time></trkpt><trkpt lat="42.2719452" lon="13.0741104"><ele>670.5</ele><time>2026-04-03T16:45:56.682Z</time></trkpt><trkpt lat="42.2716472" lon="13.0740407"><ele>662.0</ele><time>2026-04-03T16:45:57.683Z</time></trkpt><trkpt lat="42.2713474" lon="13.0739875"><ele>662.0</ele><time>2026-04-03T16:45:58.683Z</time></trkpt><trkpt lat="42.2710489" lon="13.0739763"><ele>662.0</ele><time>2026-04-03T16:45:59.683Z</time></trkpt><trkpt lat="42.2707487" lon="13.0740052"><ele>665.0</ele><time>2026-04-03T16:46:00.683Z</time></trkpt><trkpt lat="42.2704528" lon="13.0740653"><ele>668.0</ele><time>2026-04-03T16:46:01.683Z</time></trkpt><trkpt lat="42.2701651" lon="13.0741415"><ele>668.0</ele><time>2026-04-03T16:46:02.683Z</time></trkpt><trkpt lat="42.2698816" lon="13.0742439"><ele>668.0</ele><time>2026-04-03T16:46:03.683Z</time></trkpt><trkpt lat="42.2696008" lon="13.0743796"><ele>665.5</ele><time>2026-04-03T16:46:04.683Z</time></trkpt><trkpt lat="42.269331" lon="13.0745506"><ele>663.0</ele><time>2026-04-03T16:46:05.682Z</time></trkpt><trkpt lat="42.269073" lon="13.0747489"><ele>671.5</ele><time>2026-04-03T16:46:06.682Z</time></trkpt><trkpt lat="42.2688332" lon="13.0749813"><ele>680.0</ele><time>2026-04-03T16:46:07.683Z</time></trkpt><trkpt lat="42.2686085" lon="13.0752323"><ele>680.0</ele><time>2026-04-03T16:46:08.683Z</time></trkpt><trkpt lat="42.2683981" lon="13.0755146"><ele>680.0</ele><time>2026-04-03T16:46:09.682Z</time></trkpt><trkpt lat="42.2681972" lon="13.075815"><ele>674.0</ele><time>2026-04-03T16:46:10.683Z</time></trkpt><trkpt lat="42.2680094" lon="13.076123"><ele>668.0</ele><time>2026-04-03T16:46:11.682Z</time></trkpt><trkpt lat="42.2678227" lon="13.0764327"><ele>675.0</ele><time>2026-04-03T16:46:12.681Z</time></trkpt><trkpt lat="42.2676341" lon="13.0767495"><ele>682.0</ele><time>2026-04-03T16:46:13.682Z</time></trkpt><trkpt lat="42.2674396" lon="13.0770566"><ele>680.5</ele><time>2026-04-03T16:46:14.682Z</time></trkpt><trkpt lat="42.2672375" lon="13.0773535"><ele>679.0</ele><time>2026-04-03T16:46:15.682Z</time></trkpt><trkpt lat="42.2670373" lon="13.0776309"><ele>679.0</ele><time>2026-04-03T16:46:16.682Z</time></trkpt><trkpt lat="42.2668433" lon="13.0778772"><ele>679.0</ele><time>2026-04-03T16:46:17.682Z</time></trkpt><trkpt lat="42.2666499" lon="13.0781099"><ele>680.0</ele><time>2026-04-03T16:46:18.682Z</time></trkpt><trkpt lat="42.2664429" lon="13.0783517"><ele>681.0</ele><time>2026-04-03T16:46:19.681Z</time></trkpt><trkpt lat="42.2662322" lon="13.0785991"><ele>681.0</ele><time>2026-04-03T16:46:20.681Z</time></trkpt><trkpt lat="42.2660167" lon="13.078852"><ele>681.0</ele><time>2026-04-03T16:46:21.682Z</time></trkpt><trkpt lat="42.2657906" lon="13.0791033"><ele>678.5</ele><time>2026-04-03T16:46:22.682Z</time></trkpt><trkpt lat="42.2655651" lon="13.0793454"><ele>676.0</ele><time>2026-04-03T16:46:23.682Z</time></trkpt><trkpt lat="42.2653406" lon="13.0795973"><ele>676.0</ele><time>2026-04-03T16:46:24.682Z</time></trkpt><trkpt lat="42.2651143" lon="13.0798734"><ele>676.0</ele><time>2026-04-03T16:46:25.681Z</time></trkpt><trkpt lat="42.2648929" lon="13.0801623"><ele>681.0</ele><time>2026-04-03T16:46:26.681Z</time></trkpt><trkpt lat="42.2646739" lon="13.0804735"><ele>686.0</ele><time>2026-04-03T16:46:27.682Z</time></trkpt><trkpt lat="42.2644663" lon="13.0808012"><ele>691.5</ele><time>2026-04-03T16:46:28.682Z</time></trkpt><trkpt lat="42.2642679" lon="13.0811412"><ele>697.0</ele><time>2026-04-03T16:46:29.682Z</time></trkpt><trkpt lat="42.2640735" lon="13.0814945"><ele>699.0</ele><time>2026-04-03T16:46:30.682Z</time></trkpt><trkpt lat="42.2638843" lon="13.0818562"><ele>701.0</ele><time>2026-04-03T16:46:31.681Z</time></trkpt><trkpt lat="42.2637078" lon="13.0822274"><ele>704.5</ele><time>2026-04-03T16:46:32.681Z</time></trkpt><trkpt lat="42.2635468" lon="13.0825944"><ele>708.0</ele><time>2026-04-03T16:46:33.681Z</time></trkpt><trkpt lat="42.2633957" lon="13.0829601"><ele>710.5</ele><time>2026-04-03T16:46:34.682Z</time></trkpt><trkpt lat="42.2632572" lon="13.0833208"><ele>713.0</ele><time>2026-04-03T16:46:35.682Z</time></trkpt><trkpt lat="42.263129" lon="13.0836921"><ele>711.0</ele><time>2026-04-03T16:46:36.682Z</time></trkpt><trkpt lat="42.2630033" lon="13.0840702"><ele>709.0</ele><time>2026-04-03T16:46:37.682Z</time></trkpt><trkpt lat="42.2628893" lon="13.0844549"><ele>709.0</ele><time>2026-04-03T16:46:38.682Z</time></trkpt><trkpt lat="42.2627867" lon="13.0848533"><ele>709.0</ele><time>2026-04-03T16:46:39.682Z</time></trkpt><trkpt lat="42.2626915" lon="13.0852461"><ele>706.5</ele><time>2026-04-03T16:46:40.682Z</time></trkpt><trkpt lat="42.2626121" lon="13.085648"><ele>704.0</ele><time>2026-04-03T16:46:41.682Z</time></trkpt><trkpt lat="42.2625344" lon="13.0860488"><ele>692.5</ele><time>2026-04-03T16:46:42.681Z</time></trkpt><trkpt lat="42.2624605" lon="13.0864576"><ele>681.0</ele><time>2026-04-03T16:46:43.681Z</time></trkpt><trkpt lat="42.2623949" lon="13.086868"><ele>680.5</ele><time>2026-04-03T16:46:44.682Z</time></trkpt><trkpt lat="42.2623278" lon="13.0872764"><ele>680.0</ele><time>2026-04-03T16:46:45.682Z</time></trkpt><trkpt lat="42.2622682" lon="13.0876868"><ele>679.0</ele><time>2026-04-03T16:46:46.682Z</time></trkpt><trkpt lat="42.2622063" lon="13.0880996"><ele>678.0</ele><time>2026-04-03T16:46:47.681Z</time></trkpt><trkpt lat="42.2621399" lon="13.0885079"><ele>692.0</ele><time>2026-04-03T16:46:48.682Z</time></trkpt><trkpt lat="42.2620759" lon="13.0889151"><ele>706.0</ele><time>2026-04-03T16:46:49.682Z</time></trkpt><trkpt lat="42.2620104" lon="13.0893219"><ele>708.5</ele><time>2026-04-03T16:46:50.682Z</time></trkpt><trkpt lat="42.2619424" lon="13.0897263"><ele>711.0</ele><time>2026-04-03T16:46:51.682Z</time></trkpt><trkpt lat="42.2618774" lon="13.0901308"><ele>711.0</ele><time>2026-04-03T16:46:52.681Z</time></trkpt><trkpt lat="42.2618135" lon="13.09053"><ele>711.0</ele><time>2026-04-03T16:46:53.682Z</time></trkpt><trkpt lat="42.2617541" lon="13.0909223"><ele>715.0</ele><time>2026-04-03T16:46:54.682Z</time></trkpt><trkpt lat="42.2616337" lon="13.0917015"><ele>715.0</ele><time>2026-04-03T16:46:56.682Z</time></trkpt><trkpt lat="42.2615743" lon="13.0920929"><ele>715.0</ele><time>2026-04-03T16:46:57.682Z</time></trkpt><trkpt lat="42.2615108" lon="13.0924779"><ele>714.0</ele><time>2026-04-03T16:46:58.682Z</time></trkpt><trkpt lat="42.2614496" lon="13.0928687"><ele>713.0</ele><time>2026-04-03T16:46:59.682Z</time></trkpt><trkpt lat="42.2613819" lon="13.0932621"><ele>713.0</ele><time>2026-04-03T16:47:00.682Z</time></trkpt><trkpt lat="42.2613124" lon="13.0936543"><ele>713.0</ele><time>2026-04-03T16:47:01.681Z</time></trkpt><trkpt lat="42.26125" lon="13.0940493"><ele>710.0</ele><time>2026-04-03T16:47:02.682Z</time></trkpt><trkpt lat="42.2611888" lon="13.094444"><ele>707.0</ele><time>2026-04-03T16:47:03.681Z</time></trkpt><trkpt lat="42.2611294" lon="13.0948382"><ele>710.5</ele><time>2026-04-03T16:47:04.682Z</time></trkpt><trkpt lat="42.261071" lon="13.0952335"><ele>714.0</ele><time>2026-04-03T16:47:05.682Z</time></trkpt><trkpt lat="42.261024" lon="13.0956313"><ele>720.0</ele><time>2026-04-03T16:47:06.681Z</time></trkpt><trkpt lat="42.2609987" lon="13.0960274"><ele>726.0</ele><time>2026-04-03T16:47:07.681Z</time></trkpt><trkpt lat="42.2609953" lon="13.0964333"><ele>729.5</ele><time>2026-04-03T16:47:08.681Z</time></trkpt><trkpt lat="42.2610171" lon="13.0968354"><ele>733.0</ele><time>2026-04-03T16:47:09.681Z</time></trkpt><trkpt lat="42.2610597" lon="13.0972318"><ele>734.0</ele><time>2026-04-03T16:47:10.681Z</time></trkpt><trkpt lat="42.2611289" lon="13.0976233"><ele>735.0</ele><time>2026-04-03T16:47:11.681Z</time></trkpt><trkpt lat="42.2612201" lon="13.0980009"><ele>737.0</ele><time>2026-04-03T16:47:12.682Z</time></trkpt><trkpt lat="42.2613358" lon="13.0983751"><ele>739.0</ele><time>2026-04-03T16:47:13.682Z</time></trkpt><trkpt lat="42.261478" lon="13.0987245"><ele>739.0</ele><time>2026-04-03T16:47:14.682Z</time></trkpt><trkpt lat="42.2616401" lon="13.0990623"><ele>739.0</ele><time>2026-04-03T16:47:15.682Z</time></trkpt><trkpt lat="42.2618213" lon="13.0993778"><ele>729.5</ele><time>2026-04-03T16:47:16.682Z</time></trkpt><trkpt lat="42.2620155" lon="13.0996911"><ele>720.0</ele><time>2026-04-03T16:47:17.682Z</time></trkpt><trkpt lat="42.2622286" lon="13.0999839"><ele>729.0</ele><time>2026-04-03T16:47:18.682Z</time></trkpt><trkpt lat="42.262442" lon="13.1002733"><ele>738.0</ele><time>2026-04-03T16:47:19.682Z</time></trkpt><trkpt lat="42.2626541" lon="13.1005644"><ele>734.0</ele><time>2026-04-03T16:47:20.682Z</time></trkpt><trkpt lat="42.2628585" lon="13.1008603"><ele>730.0</ele><time>2026-04-03T16:47:21.682Z</time></trkpt><trkpt lat="42.2630565" lon="13.1011667"><ele>732.0</ele><time>2026-04-03T16:47:22.681Z</time></trkpt><trkpt lat="42.2632437" lon="13.1014796"><ele>734.0</ele><time>2026-04-03T16:47:23.682Z</time></trkpt><trkpt lat="42.2634157" lon="13.1018199"><ele>723.0</ele><time>2026-04-03T16:47:24.682Z</time></trkpt><trkpt lat="42.263567" lon="13.102168"><ele>712.0</ele><time>2026-04-03T16:47:25.682Z</time></trkpt><trkpt lat="42.2637013" lon="13.1025297"><ele>711.5</ele><time>2026-04-03T16:47:26.682Z</time></trkpt><trkpt lat="42.2638156" lon="13.1029029"><ele>711.0</ele><time>2026-04-03T16:47:27.681Z</time></trkpt><trkpt lat="42.2639124" lon="13.1032818"><ele>722.0</ele><time>2026-04-03T16:47:28.681Z</time></trkpt><trkpt lat="42.2639939" lon="13.1036661"><ele>733.0</ele><time>2026-04-03T16:47:29.682Z</time></trkpt><trkpt lat="42.264054" lon="13.1040562"><ele>735.5</ele><time>2026-04-03T16:47:30.682Z</time></trkpt><trkpt lat="42.2640922" lon="13.1044531"><ele>738.0</ele><time>2026-04-03T16:47:31.682Z</time></trkpt><trkpt lat="42.2641127" lon="13.104863"><ele>739.0</ele><time>2026-04-03T16:47:32.682Z</time></trkpt><trkpt lat="42.2641118" lon="13.1052707"><ele>740.0</ele><time>2026-04-03T16:47:33.681Z</time></trkpt><trkpt lat="42.2640932" lon="13.1056751"><ele>736.0</ele><time>2026-04-03T16:47:34.682Z</time></trkpt><trkpt lat="42.2640526" lon="13.1060767"><ele>732.0</ele><time>2026-04-03T16:47:35.682Z</time></trkpt><trkpt lat="42.2639946" lon="13.1064777"><ele>726.0</ele><time>2026-04-03T16:47:36.682Z</time></trkpt><trkpt lat="42.2639147" lon="13.1068693"><ele>720.0</ele><time>2026-04-03T16:47:37.681Z</time></trkpt><trkpt lat="42.2638137" lon="13.1072536"><ele>718.0</ele><time>2026-04-03T16:47:38.681Z</time></trkpt><trkpt lat="42.2636924" lon="13.1076274"><ele>716.0</ele><time>2026-04-03T16:47:39.681Z</time></trkpt><trkpt lat="42.2635591" lon="13.1079871"><ele>716.5</ele><time>2026-04-03T16:47:40.682Z</time></trkpt><trkpt lat="42.2634112" lon="13.1083381"><ele>717.0</ele><time>2026-04-03T16:47:41.682Z</time></trkpt><trkpt lat="42.263243" lon="13.108681"><ele>716.5</ele><time>2026-04-03T16:47:42.682Z</time></trkpt><trkpt lat="42.2630633" lon="13.1090087"><ele>716.0</ele><time>2026-04-03T16:47:43.682Z</time></trkpt><trkpt lat="42.2628808" lon="13.1093324"><ele>722.5</ele><time>2026-04-03T16:47:44.681Z</time></trkpt><trkpt lat="42.2626983" lon="13.1096565"><ele>729.0</ele><time>2026-04-03T16:47:45.681Z</time></trkpt><trkpt lat="42.2625169" lon="13.1099782"><ele>729.0</ele><time>2026-04-03T16:47:46.682Z</time></trkpt><trkpt lat="42.2623356" lon="13.1103016"><ele>729.0</ele><time>2026-04-03T16:47:47.682Z</time></trkpt><trkpt lat="42.2621528" lon="13.1106289"><ele>729.5</ele><time>2026-04-03T16:47:48.681Z</time></trkpt><trkpt lat="42.2619726" lon="13.1109538"><ele>730.0</ele><time>2026-04-03T16:47:49.682Z</time></trkpt><trkpt lat="42.2617928" lon="13.1112862"><ele>739.0</ele><time>2026-04-03T16:47:50.682Z</time></trkpt><trkpt lat="42.2616081" lon="13.1116159"><ele>748.0</ele><time>2026-04-03T16:47:51.682Z</time></trkpt><trkpt lat="42.2614262" lon="13.1119426"><ele>755.5</ele><time>2026-04-03T16:47:52.682Z</time></trkpt><trkpt lat="42.2612465" lon="13.1122647"><ele>763.0</ele><time>2026-04-03T16:47:53.682Z</time></trkpt><trkpt lat="42.261069" lon="13.1125869"><ele>733.0</ele><time>2026-04-03T16:47:54.682Z</time></trkpt><trkpt lat="42.2605345" lon="13.1135521"><ele>727.0</ele><time>2026-04-03T16:47:57.682Z</time></trkpt><trkpt lat="42.260146" lon="13.1141865"><ele>727.0</ele><time>2026-04-03T16:47:59.682Z</time></trkpt><trkpt lat="42.2599595" lon="13.1145301"><ele>727.0</ele><time>2026-04-03T16:48:00.681Z</time></trkpt><trkpt lat="42.2597912" lon="13.114872"><ele>724.5</ele><time>2026-04-03T16:48:01.682Z</time></trkpt><trkpt lat="42.2596308" lon="13.1152213"><ele>722.0</ele><time>2026-04-03T16:48:02.681Z</time></trkpt><trkpt lat="42.2594719" lon="13.1155722"><ele>716.0</ele><time>2026-04-03T16:48:03.682Z</time></trkpt><trkpt lat="42.2593258" lon="13.1159308"><ele>710.0</ele><time>2026-04-03T16:48:04.682Z</time></trkpt><trkpt lat="42.2591828" lon="13.1162943"><ele>709.0</ele><time>2026-04-03T16:48:05.682Z</time></trkpt><trkpt lat="42.2590508" lon="13.1166683"><ele>708.0</ele><time>2026-04-03T16:48:06.681Z</time></trkpt><trkpt lat="42.2589307" lon="13.1170505"><ele>705.5</ele><time>2026-04-03T16:48:07.682Z</time></trkpt><trkpt lat="42.2588204" lon="13.117427"><ele>703.0</ele><time>2026-04-03T16:48:08.682Z</time></trkpt><trkpt lat="42.2587172" lon="13.1178096"><ele>703.0</ele><time>2026-04-03T16:48:09.682Z</time></trkpt><trkpt lat="42.258617" lon="13.1181947"><ele>703.0</ele><time>2026-04-03T16:48:10.682Z</time></trkpt><trkpt lat="42.2585232" lon="13.118581"><ele>708.5</ele><time>2026-04-03T16:48:11.681Z</time></trkpt><trkpt lat="42.2584347" lon="13.1189672"><ele>714.0</ele><time>2026-04-03T16:48:12.682Z</time></trkpt><trkpt lat="42.2583529" lon="13.1193536"><ele>722.5</ele><time>2026-04-03T16:48:13.682Z</time></trkpt><trkpt lat="42.2582666" lon="13.1197448"><ele>731.0</ele><time>2026-04-03T16:48:14.682Z</time></trkpt><trkpt lat="42.2581769" lon="13.1201344"><ele>729.0</ele><time>2026-04-03T16:48:15.681Z</time></trkpt><trkpt lat="42.2580944" lon="13.1205216"><ele>727.0</ele><time>2026-04-03T16:48:16.682Z</time></trkpt><trkpt lat="42.2580075" lon="13.120904"><ele>727.0</ele><time>2026-04-03T16:48:17.682Z</time></trkpt><trkpt lat="42.2579215" lon="13.1212935"><ele>727.0</ele><time>2026-04-03T16:48:18.682Z</time></trkpt><trkpt lat="42.2578423" lon="13.1216806"><ele>729.0</ele><time>2026-04-03T16:48:19.681Z</time></trkpt><trkpt lat="42.2577629" lon="13.1220775"><ele>731.0</ele><time>2026-04-03T16:48:20.681Z</time></trkpt><trkpt lat="42.2576838" lon="13.122475"><ele>734.0</ele><time>2026-04-03T16:48:21.682Z</time></trkpt><trkpt lat="42.2576098" lon="13.1228706"><ele>737.0</ele><time>2026-04-03T16:48:22.682Z</time></trkpt><trkpt lat="42.2575365" lon="13.1232592"><ele>737.0</ele><time>2026-04-03T16:48:23.682Z</time></trkpt><trkpt lat="42.2574682" lon="13.1236493"><ele>737.0</ele><time>2026-04-03T16:48:24.682Z</time></trkpt><trkpt lat="42.2573862" lon="13.1240365"><ele>734.5</ele><time>2026-04-03T16:48:25.682Z</time></trkpt><trkpt lat="42.257294" lon="13.1244266"><ele>732.0</ele><time>2026-04-03T16:48:26.682Z</time></trkpt><trkpt lat="42.2571995" lon="13.1248145"><ele>722.5</ele><time>2026-04-03T16:48:27.682Z</time></trkpt><trkpt lat="42.2571057" lon="13.1251974"><ele>713.0</ele><time>2026-04-03T16:48:28.681Z</time></trkpt><trkpt lat="42.2570206" lon="13.1255862"><ele>721.0</ele><time>2026-04-03T16:48:29.682Z</time></trkpt><trkpt lat="42.2569536" lon="13.125974"><ele>729.0</ele><time>2026-04-03T16:48:30.682Z</time></trkpt><trkpt lat="42.2568964" lon="13.1263677"><ele>729.0</ele><time>2026-04-03T16:48:31.682Z</time></trkpt><trkpt lat="42.2568613" lon="13.1267647"><ele>729.0</ele><time>2026-04-03T16:48:32.682Z</time></trkpt><trkpt lat="42.256832" lon="13.1271597"><ele>718.0</ele><time>2026-04-03T16:48:33.682Z</time></trkpt><trkpt lat="42.2568155" lon="13.1279593"><ele>713.5</ele><time>2026-04-03T16:48:35.682Z</time></trkpt><trkpt lat="42.256823" lon="13.1283597"><ele>709.0</ele><time>2026-04-03T16:48:36.682Z</time></trkpt><trkpt lat="42.2568488" lon="13.1287585"><ele>717.0</ele><time>2026-04-03T16:48:37.682Z</time></trkpt><trkpt lat="42.2568885" lon="13.1291597"><ele>725.0</ele><time>2026-04-03T16:48:38.682Z</time></trkpt><trkpt lat="42.2569379" lon="13.1295663"><ele>735.5</ele><time>2026-04-03T16:48:39.682Z</time></trkpt><trkpt lat="42.2569898" lon="13.1299685"><ele>746.0</ele><time>2026-04-03T16:48:40.682Z</time></trkpt><trkpt lat="42.2570425" lon="13.1303718"><ele>745.5</ele><time>2026-04-03T16:48:41.681Z</time></trkpt><trkpt lat="42.2570939" lon="13.1307755"><ele>745.0</ele><time>2026-04-03T16:48:42.682Z</time></trkpt><trkpt lat="42.2571391" lon="13.1311747"><ele>735.5</ele><time>2026-04-03T16:48:43.681Z</time></trkpt><trkpt lat="42.2571721" lon="13.1315643"><ele>726.0</ele><time>2026-04-03T16:48:44.681Z</time></trkpt><trkpt lat="42.2571949" lon="13.1319407"><ele>726.0</ele><time>2026-04-03T16:48:45.682Z</time></trkpt><trkpt lat="42.2571998" lon="13.1323122"><ele>726.0</ele><time>2026-04-03T16:48:46.682Z</time></trkpt><trkpt lat="42.2571804" lon="13.1326694"><ele>718.5</ele><time>2026-04-03T16:48:47.681Z</time></trkpt><trkpt lat="42.2571477" lon="13.1330337"><ele>711.0</ele><time>2026-04-03T16:48:48.681Z</time></trkpt><trkpt lat="42.257092" lon="13.1334022"><ele>703.0</ele><time>2026-04-03T16:48:49.682Z</time></trkpt><trkpt lat="42.2570136" lon="13.133769"><ele>695.0</ele><time>2026-04-03T16:48:50.682Z</time></trkpt><trkpt lat="42.256914" lon="13.1341373"><ele>688.0</ele><time>2026-04-03T16:48:51.682Z</time></trkpt><trkpt lat="42.2567968" lon="13.1345065"><ele>681.0</ele><time>2026-04-03T16:48:52.682Z</time></trkpt><trkpt lat="42.2566577" lon="13.1348704"><ele>680.5</ele><time>2026-04-03T16:48:53.682Z</time></trkpt><trkpt lat="42.2564888" lon="13.135221"><ele>680.0</ele><time>2026-04-03T16:48:54.682Z</time></trkpt><trkpt lat="42.2563119" lon="13.1355627"><ele>698.5</ele><time>2026-04-03T16:48:55.682Z</time></trkpt><trkpt lat="42.25612" lon="13.1359044"><ele>717.0</ele><time>2026-04-03T16:48:56.682Z</time></trkpt><trkpt lat="42.2559366" lon="13.1362444"><ele>716.0</ele><time>2026-04-03T16:48:57.682Z</time></trkpt><trkpt lat="42.2557586" lon="13.1365921"><ele>715.0</ele><time>2026-04-03T16:48:58.681Z</time></trkpt><trkpt lat="42.2555849" lon="13.136952"><ele>715.0</ele><time>2026-04-03T16:48:59.682Z</time></trkpt><trkpt lat="42.2554243" lon="13.1373143"><ele>715.0</ele><time>2026-04-03T16:49:00.681Z</time></trkpt><trkpt lat="42.2552713" lon="13.1376809"><ele>720.5</ele><time>2026-04-03T16:49:01.682Z</time></trkpt><trkpt lat="42.2551377" lon="13.1380467"><ele>726.0</ele><time>2026-04-03T16:49:02.681Z</time></trkpt><trkpt lat="42.2550173" lon="13.1384243"><ele>727.5</ele><time>2026-04-03T16:49:03.681Z</time></trkpt><trkpt lat="42.2549183" lon="13.13881"><ele>729.0</ele><time>2026-04-03T16:49:04.681Z</time></trkpt><trkpt lat="42.2548307" lon="13.1391985"><ele>710.0</ele><time>2026-04-03T16:49:05.682Z</time></trkpt><trkpt lat="42.2547609" lon="13.1395992"><ele>691.0</ele><time>2026-04-03T16:49:06.682Z</time></trkpt><trkpt lat="42.2547029" lon="13.1400115"><ele>682.5</ele><time>2026-04-03T16:49:07.681Z</time></trkpt><trkpt lat="42.2546588" lon="13.1404238"><ele>674.0</ele><time>2026-04-03T16:49:08.682Z</time></trkpt><trkpt lat="42.2546288" lon="13.1408415"><ele>671.0</ele><time>2026-04-03T16:49:09.682Z</time></trkpt><trkpt lat="42.254597" lon="13.1412532"><ele>668.0</ele><time>2026-04-03T16:49:10.682Z</time></trkpt><trkpt lat="42.254569" lon="13.141675"><ele>668.0</ele><time>2026-04-03T16:49:11.682Z</time></trkpt><trkpt lat="42.2545393" lon="13.142095"><ele>668.0</ele><time>2026-04-03T16:49:12.682Z</time></trkpt><trkpt lat="42.2545008" lon="13.1425127"><ele>678.0</ele><time>2026-04-03T16:49:13.682Z</time></trkpt><trkpt lat="42.2544576" lon="13.1429287"><ele>688.0</ele><time>2026-04-03T16:49:14.682Z</time></trkpt><trkpt lat="42.2544128" lon="13.1433458"><ele>698.0</ele><time>2026-04-03T16:49:15.681Z</time></trkpt><trkpt lat="42.2543704" lon="13.1437622"><ele>708.0</ele><time>2026-04-03T16:49:16.682Z</time></trkpt><trkpt lat="42.2543306" lon="13.1441757"><ele>715.5</ele><time>2026-04-03T16:49:17.682Z</time></trkpt><trkpt lat="42.2542919" lon="13.1445902"><ele>723.0</ele><time>2026-04-03T16:49:18.681Z</time></trkpt><trkpt lat="42.2542507" lon="13.1450046"><ele>727.0</ele><time>2026-04-03T16:49:19.682Z</time></trkpt><trkpt lat="42.2542154" lon="13.1454284"><ele>731.0</ele><time>2026-04-03T16:49:20.682Z</time></trkpt><trkpt lat="42.2541783" lon="13.1458448"><ele>730.5</ele><time>2026-04-03T16:49:21.681Z</time></trkpt><trkpt lat="42.2541423" lon="13.1462637"><ele>730.0</ele><time>2026-04-03T16:49:22.682Z</time></trkpt><trkpt lat="42.2541072" lon="13.1466876"><ele>730.0</ele><time>2026-04-03T16:49:23.682Z</time></trkpt><trkpt lat="42.2540693" lon="13.1471075"><ele>730.0</ele><time>2026-04-03T16:49:24.681Z</time></trkpt><trkpt lat="42.2540308" lon="13.147529"><ele>730.0</ele><time>2026-04-03T16:49:25.682Z</time></trkpt><trkpt lat="42.2539934" lon="13.1479478"><ele>730.0</ele><time>2026-04-03T16:49:26.682Z</time></trkpt><trkpt lat="42.2539568" lon="13.1483701"><ele>743.5</ele><time>2026-04-03T16:49:27.682Z</time></trkpt><trkpt lat="42.253919" lon="13.1487847"><ele>757.0</ele><time>2026-04-03T16:49:28.681Z</time></trkpt><trkpt lat="42.2538812" lon="13.1492034"><ele>760.0</ele><time>2026-04-03T16:49:29.681Z</time></trkpt><trkpt lat="42.2538458" lon="13.149617"><ele>763.0</ele><time>2026-04-03T16:49:30.682Z</time></trkpt><trkpt lat="42.2538055" lon="13.150028"><ele>763.0</ele><time>2026-04-03T16:49:31.682Z</time></trkpt><trkpt lat="42.2537673" lon="13.1504325"><ele>763.0</ele><time>2026-04-03T16:49:32.682Z</time></trkpt><trkpt lat="42.2537295" lon="13.1508474"><ele>718.0</ele><time>2026-04-03T16:49:33.681Z</time></trkpt><trkpt lat="42.253132" lon="13.1573799"><ele>717.5</ele><time>2026-04-03T16:49:49.682Z</time></trkpt><trkpt lat="42.2530981" lon="13.157782"><ele>717.0</ele><time>2026-04-03T16:49:50.681Z</time></trkpt><trkpt lat="42.2530522" lon="13.1582022"><ele>715.5</ele><time>2026-04-03T16:49:51.682Z</time></trkpt><trkpt lat="42.253013" lon="13.1586203"><ele>714.0</ele><time>2026-04-03T16:49:52.682Z</time></trkpt><trkpt lat="42.2529585" lon="13.1590287"><ele>720.5</ele><time>2026-04-03T16:49:53.682Z</time></trkpt><trkpt lat="42.2528924" lon="13.1594358"><ele>727.0</ele><time>2026-04-03T16:49:54.682Z</time></trkpt><trkpt lat="42.2528395" lon="13.1598478"><ele>729.5</ele><time>2026-04-03T16:49:55.682Z</time></trkpt><trkpt lat="42.2527526" lon="13.1602449"><ele>732.0</ele><time>2026-04-03T16:49:56.682Z</time></trkpt><trkpt lat="42.2526396" lon="13.1606333"><ele>734.5</ele><time>2026-04-03T16:49:57.682Z</time></trkpt><trkpt lat="42.2525118" lon="13.16102"><ele>737.0</ele><time>2026-04-03T16:49:58.681Z</time></trkpt><trkpt lat="42.2522398" lon="13.1617553"><ele>758.0</ele><time>2026-04-03T16:50:00.682Z</time></trkpt><trkpt lat="42.2518487" lon="13.1623447"><ele>755.5</ele><time>2026-04-03T16:50:02.681Z</time></trkpt><trkpt lat="42.2516277" lon="13.1625714"><ele>753.0</ele><time>2026-04-03T16:50:03.682Z</time></trkpt><trkpt lat="42.251414" lon="13.1628313"><ele>753.0</ele><time>2026-04-03T16:50:04.682Z</time></trkpt><trkpt lat="42.251185" lon="13.1630968"><ele>753.0</ele><time>2026-04-03T16:50:05.681Z</time></trkpt><trkpt lat="42.2509455" lon="13.1633274"><ele>751.0</ele><time>2026-04-03T16:50:06.681Z</time></trkpt><trkpt lat="42.2506952" lon="13.163561"><ele>749.0</ele><time>2026-04-03T16:50:07.682Z</time></trkpt><trkpt lat="42.2504464" lon="13.1637859"><ele>749.0</ele><time>2026-04-03T16:50:08.682Z</time></trkpt><trkpt lat="42.2501891" lon="13.1640022"><ele>749.0</ele><time>2026-04-03T16:50:09.681Z</time></trkpt><trkpt lat="42.2499286" lon="13.1642203"><ele>743.5</ele><time>2026-04-03T16:50:10.682Z</time></trkpt><trkpt lat="42.249667" lon="13.164443"><ele>738.0</ele><time>2026-04-03T16:50:11.682Z</time></trkpt><trkpt lat="42.2494025" lon="13.1646681"><ele>726.5</ele><time>2026-04-03T16:50:12.681Z</time></trkpt><trkpt lat="42.249138" lon="13.1649028"><ele>715.0</ele><time>2026-04-03T16:50:13.682Z</time></trkpt><trkpt lat="42.2488695" lon="13.1651378"><ele>715.0</ele><time>2026-04-03T16:50:14.682Z</time></trkpt><trkpt lat="42.2486003" lon="13.1653764"><ele>715.0</ele><time>2026-04-03T16:50:15.681Z</time></trkpt><trkpt lat="42.2483262" lon="13.1656151"><ele>722.0</ele><time>2026-04-03T16:50:16.682Z</time></trkpt><trkpt lat="42.2480502" lon="13.1658572"><ele>729.0</ele><time>2026-04-03T16:50:17.682Z</time></trkpt><trkpt lat="42.2477732" lon="13.1660974"><ele>729.0</ele><time>2026-04-03T16:50:18.681Z</time></trkpt><trkpt lat="42.2474926" lon="13.166337"><ele>729.0</ele><time>2026-04-03T16:50:19.682Z</time></trkpt><trkpt lat="42.2472071" lon="13.1665767"><ele>737.5</ele><time>2026-04-03T16:50:20.681Z</time></trkpt><trkpt lat="42.2469211" lon="13.1668275"><ele>746.0</ele><time>2026-04-03T16:50:21.682Z</time></trkpt><trkpt lat="42.2454616" lon="13.1680861"><ele>703.5</ele><time>2026-04-03T16:50:26.682Z</time></trkpt><trkpt lat="42.2451866" lon="13.1683202"><ele>661.0</ele><time>2026-04-03T16:50:27.681Z</time></trkpt><trkpt lat="42.244906" lon="13.1685646"><ele>657.0</ele><time>2026-04-03T16:50:28.682Z</time></trkpt><trkpt lat="42.2446258" lon="13.1688008"><ele>653.0</ele><time>2026-04-03T16:50:29.682Z</time></trkpt><trkpt lat="42.2443429" lon="13.169046"><ele>653.0</ele><time>2026-04-03T16:50:30.682Z</time></trkpt><trkpt lat="42.24406" lon="13.1692899"><ele>653.0</ele><time>2026-04-03T16:50:31.682Z</time></trkpt><trkpt lat="42.2437802" lon="13.1695298"><ele>646.5</ele><time>2026-04-03T16:50:32.682Z</time></trkpt><trkpt lat="42.243502" lon="13.1697748"><ele>640.0</ele><time>2026-04-03T16:50:33.682Z</time></trkpt><trkpt lat="42.243221" lon="13.1700193"><ele>664.0</ele><time>2026-04-03T16:50:34.682Z</time></trkpt><trkpt lat="42.24294" lon="13.1702627"><ele>688.0</ele><time>2026-04-03T16:50:35.682Z</time></trkpt><trkpt lat="42.2426618" lon="13.1705039"><ele>697.5</ele><time>2026-04-03T16:50:36.681Z</time></trkpt><trkpt lat="42.242385" lon="13.1707435"><ele>707.0</ele><time>2026-04-03T16:50:37.681Z</time></trkpt><trkpt lat="42.2421101" lon="13.1709871"><ele>716.0</ele><time>2026-04-03T16:50:38.681Z</time></trkpt><trkpt lat="42.2418346" lon="13.1712211"><ele>725.0</ele><time>2026-04-03T16:50:39.682Z</time></trkpt><trkpt lat="42.2415624" lon="13.1714621"><ele>732.0</ele><time>2026-04-03T16:50:40.681Z</time></trkpt><trkpt lat="42.2412912" lon="13.1717045"><ele>739.0</ele><time>2026-04-03T16:50:41.682Z</time></trkpt><trkpt lat="42.2410269" lon="13.1719504"><ele>739.0</ele><time>2026-04-03T16:50:42.682Z</time></trkpt><trkpt lat="42.2407698" lon="13.1722091"><ele>739.0</ele><time>2026-04-03T16:50:43.682Z</time></trkpt><trkpt lat="42.2405168" lon="13.1724707"><ele>757.0</ele><time>2026-04-03T16:50:44.681Z</time></trkpt><trkpt lat="42.2361085" lon="13.1787834"><ele>754.0</ele><time>2026-04-03T16:51:04.681Z</time></trkpt><trkpt lat="42.2359329" lon="13.1791327"><ele>751.0</ele><time>2026-04-03T16:51:05.681Z</time></trkpt><trkpt lat="42.2357431" lon="13.1794402"><ele>749.5</ele><time>2026-04-03T16:51:06.682Z</time></trkpt><trkpt lat="42.2355187" lon="13.1797683"><ele>748.0</ele><time>2026-04-03T16:51:07.682Z</time></trkpt><trkpt lat="42.235306" lon="13.1800811"><ele>748.0</ele><time>2026-04-03T16:51:08.682Z</time></trkpt><trkpt lat="42.2351077" lon="13.1803738"><ele>748.0</ele><time>2026-04-03T16:51:09.682Z</time></trkpt><trkpt lat="42.2349085" lon="13.1806867"><ele>742.5</ele><time>2026-04-03T16:51:10.681Z</time></trkpt><trkpt lat="42.2347473" lon="13.1809979"><ele>737.0</ele><time>2026-04-03T16:51:11.681Z</time></trkpt><trkpt lat="42.2345643" lon="13.1813107"><ele>737.5</ele><time>2026-04-03T16:51:12.681Z</time></trkpt><trkpt lat="42.2343665" lon="13.1816263"><ele>738.0</ele><time>2026-04-03T16:51:13.682Z</time></trkpt><trkpt lat="42.2341623" lon="13.1819492"><ele>739.0</ele><time>2026-04-03T16:51:14.682Z</time></trkpt><trkpt lat="42.2339599" lon="13.1822717"><ele>740.0</ele><time>2026-04-03T16:51:15.681Z</time></trkpt><trkpt lat="42.2337566" lon="13.1825918"><ele>740.0</ele><time>2026-04-03T16:51:16.681Z</time></trkpt><trkpt lat="42.2335525" lon="13.1829119"><ele>740.0</ele><time>2026-04-03T16:51:17.681Z</time></trkpt><trkpt lat="42.2333541" lon="13.18323"><ele>742.5</ele><time>2026-04-03T16:51:18.682Z</time></trkpt><trkpt lat="42.2331574" lon="13.1835443"><ele>745.0</ele><time>2026-04-03T16:51:19.681Z</time></trkpt><trkpt lat="42.2329634" lon="13.1838572"><ele>753.0</ele><time>2026-04-03T16:51:20.682Z</time></trkpt><trkpt lat="42.2327714" lon="13.184167"><ele>761.0</ele><time>2026-04-03T16:51:21.682Z</time></trkpt><trkpt lat="42.2325794" lon="13.1844794"><ele>761.0</ele><time>2026-04-03T16:51:22.681Z</time></trkpt><trkpt lat="42.2323891" lon="13.1847888"><ele>761.0</ele><time>2026-04-03T16:51:23.681Z</time></trkpt><trkpt lat="42.232207" lon="13.1851101"><ele>763.5</ele><time>2026-04-03T16:51:24.682Z</time></trkpt><trkpt lat="42.2320307" lon="13.1854487"><ele>766.0</ele><time>2026-04-03T16:51:25.682Z</time></trkpt><trkpt lat="42.2318654" lon="13.185786"><ele>771.5</ele><time>2026-04-03T16:51:26.682Z</time></trkpt><trkpt lat="42.2317096" lon="13.1861311"><ele>777.0</ele><time>2026-04-03T16:51:27.682Z</time></trkpt><trkpt lat="42.2315634" lon="13.1864821"><ele>790.0</ele><time>2026-04-03T16:51:28.682Z</time></trkpt><trkpt lat="42.2314254" lon="13.1868446"><ele>803.0</ele><time>2026-04-03T16:51:29.681Z</time></trkpt><trkpt lat="42.2312961" lon="13.1872069"><ele>800.0</ele><time>2026-04-03T16:51:30.681Z</time></trkpt><trkpt lat="42.2311712" lon="13.187571"><ele>797.0</ele><time>2026-04-03T16:51:31.682Z</time></trkpt><trkpt lat="42.2310538" lon="13.1879399"><ele>792.0</ele><time>2026-04-03T16:51:32.682Z</time></trkpt><trkpt lat="42.2309493" lon="13.1883134"><ele>787.0</ele><time>2026-04-03T16:51:33.682Z</time></trkpt><trkpt lat="42.2308576" lon="13.1886855"><ele>785.5</ele><time>2026-04-03T16:51:34.681Z</time></trkpt><trkpt lat="42.2307691" lon="13.1890669"><ele>784.0</ele><time>2026-04-03T16:51:35.682Z</time></trkpt><trkpt lat="42.2306772" lon="13.1894495"><ele>790.0</ele><time>2026-04-03T16:51:36.682Z</time></trkpt><trkpt lat="42.2305858" lon="13.189836"><ele>796.0</ele><time>2026-04-03T16:51:37.682Z</time></trkpt><trkpt lat="42.2304981" lon="13.1902243"><ele>796.0</ele><time>2026-04-03T16:51:38.682Z</time></trkpt><trkpt lat="42.230403" lon="13.1906049"><ele>796.0</ele><time>2026-04-03T16:51:39.682Z</time></trkpt><trkpt lat="42.2303104" lon="13.1909841"><ele>793.5</ele><time>2026-04-03T16:51:40.682Z</time></trkpt><trkpt lat="42.2302165" lon="13.1913473"><ele>791.0</ele><time>2026-04-03T16:51:41.682Z</time></trkpt><trkpt lat="42.2301181" lon="13.191695"><ele>790.0</ele><time>2026-04-03T16:51:42.681Z</time></trkpt><trkpt lat="42.2300107" lon="13.1920332"><ele>789.0</ele><time>2026-04-03T16:51:43.681Z</time></trkpt><trkpt lat="42.2298948" lon="13.1923533"><ele>789.5</ele><time>2026-04-03T16:51:44.682Z</time></trkpt><trkpt lat="42.2297733" lon="13.19265"><ele>790.0</ele><time>2026-04-03T16:51:45.681Z</time></trkpt><trkpt lat="42.2296506" lon="13.1929121"><ele>790.0</ele><time>2026-04-03T16:51:46.682Z</time></trkpt><trkpt lat="42.2295248" lon="13.1931553"><ele>790.0</ele><time>2026-04-03T16:51:47.681Z</time></trkpt><trkpt lat="42.2293859" lon="13.1933847"><ele>790.0</ele><time>2026-04-03T16:51:48.682Z</time></trkpt><trkpt lat="42.2292469" lon="13.1935979"><ele>790.3333333333333</ele><time>2026-04-03T16:51:49.682Z</time></trkpt><trkpt lat="42.2291132" lon="13.1937977"><ele>790.6666666666667</ele><time>2026-04-03T16:51:50.681Z</time></trkpt><trkpt lat="42.2289749" lon="13.1939986"><ele>791.0</ele><time>2026-04-03T16:51:51.682Z</time></trkpt><trkpt lat="42.2288287" lon="13.1941895"><ele>790.3333333333334</ele><time>2026-04-03T16:51:52.681Z</time></trkpt><trkpt lat="42.2286771" lon="13.1943704"><ele>789.6666666666667</ele><time>2026-04-03T16:51:53.682Z</time></trkpt><trkpt lat="42.228517" lon="13.1945456"><ele>789.0</ele><time>2026-04-03T16:51:54.681Z</time></trkpt><trkpt lat="42.2283466" lon="13.194706"><ele>790.6666666666667</ele><time>2026-04-03T16:51:55.682Z</time></trkpt><trkpt lat="42.2281702" lon="13.1948528"><ele>792.3333333333334</ele><time>2026-04-03T16:51:56.681Z</time></trkpt><trkpt lat="42.2279873" lon="13.1949919"><ele>794.0</ele><time>2026-04-03T16:51:57.681Z</time></trkpt><trkpt lat="42.2278037" lon="13.1951283"><ele>794.0</ele><time>2026-04-03T16:51:58.681Z</time></trkpt><trkpt lat="42.2276124" lon="13.1952649"><ele>794.0</ele><time>2026-04-03T16:51:59.682Z</time></trkpt><trkpt lat="42.2274189" lon="13.1953857"><ele>794.0</ele><time>2026-04-03T16:52:00.681Z</time></trkpt><trkpt lat="42.2272208" lon="13.1954947"><ele>794.0</ele><time>2026-04-03T16:52:01.682Z</time></trkpt><trkpt lat="42.2270185" lon="13.195594"><ele>794.0</ele><time>2026-04-03T16:52:02.681Z</time></trkpt><trkpt lat="42.2268048" lon="13.1956824"><ele>794.0</ele><time>2026-04-03T16:52:03.682Z</time></trkpt><trkpt lat="42.2265735" lon="13.1957629"><ele>794.0</ele><time>2026-04-03T16:52:04.681Z</time></trkpt><trkpt lat="42.2263328" lon="13.1958377"><ele>794.0</ele><time>2026-04-03T16:52:05.682Z</time></trkpt><trkpt lat="42.2260949" lon="13.1958999"><ele>794.0</ele><time>2026-04-03T16:52:06.682Z</time></trkpt><trkpt lat="42.2258581" lon="13.1959477"><ele>794.0</ele><time>2026-04-03T16:52:07.682Z</time></trkpt><trkpt lat="42.2256303" lon="13.1959895"><ele>795.3333333333334</ele><time>2026-04-03T16:52:08.681Z</time></trkpt><trkpt lat="42.225413" lon="13.1960301"><ele>796.6666666666667</ele><time>2026-04-03T16:52:09.681Z</time></trkpt><trkpt lat="42.2251947" lon="13.1960622"><ele>798.0</ele><time>2026-04-03T16:52:10.682Z</time></trkpt><trkpt lat="42.2249761" lon="13.1960938"><ele>799.0</ele><time>2026-04-03T16:52:11.682Z</time></trkpt><trkpt lat="42.2247444" lon="13.1961374"><ele>800.0</ele><time>2026-04-03T16:52:12.681Z</time></trkpt><trkpt lat="42.2244993" lon="13.1961823"><ele>800.0</ele><time>2026-04-03T16:52:13.682Z</time></trkpt><trkpt lat="42.2242453" lon="13.1962136"><ele>800.0</ele><time>2026-04-03T16:52:14.681Z</time></trkpt><trkpt lat="42.2239791" lon="13.1962472"><ele>803.5</ele><time>2026-04-03T16:52:15.682Z</time></trkpt><trkpt lat="42.2237083" lon="13.1962763"><ele>807.0</ele><time>2026-04-03T16:52:16.681Z</time></trkpt><trkpt lat="42.2234342" lon="13.1963045"><ele>807.0</ele><time>2026-04-03T16:52:17.682Z</time></trkpt><trkpt lat="42.223158" lon="13.196336"><ele>807.0</ele><time>2026-04-03T16:52:18.681Z</time></trkpt><trkpt lat="42.2228743" lon="13.1963709"><ele>807.0</ele><time>2026-04-03T16:52:19.682Z</time></trkpt><trkpt lat="42.2225805" lon="13.1964166"><ele>807.0</ele><time>2026-04-03T16:52:20.682Z</time></trkpt><trkpt lat="42.222288" lon="13.1964587"><ele>797.0</ele><time>2026-04-03T16:52:21.682Z</time></trkpt><trkpt lat="42.2219971" lon="13.1965047"><ele>787.0</ele><time>2026-04-03T16:52:22.681Z</time></trkpt><trkpt lat="42.2217037" lon="13.1965491"><ele>784.0</ele><time>2026-04-03T16:52:23.682Z</time></trkpt><trkpt lat="42.2214078" lon="13.1965895"><ele>781.0</ele><time>2026-04-03T16:52:24.682Z</time></trkpt><trkpt lat="42.2211093" lon="13.1966356"><ele>781.0</ele><time>2026-04-03T16:52:25.682Z</time></trkpt><trkpt lat="42.2208103" lon="13.1966864"><ele>781.0</ele><time>2026-04-03T16:52:26.682Z</time></trkpt><trkpt lat="42.2205112" lon="13.1967367"><ele>780.0</ele><time>2026-04-03T16:52:27.681Z</time></trkpt><trkpt lat="42.2202102" lon="13.1967861"><ele>779.0</ele><time>2026-04-03T16:52:28.681Z</time></trkpt><trkpt lat="42.2199093" lon="13.1968372"><ele>778.0</ele><time>2026-04-03T16:52:29.682Z</time></trkpt><trkpt lat="42.2196082" lon="13.1969059"><ele>777.0</ele><time>2026-04-03T16:52:30.681Z</time></trkpt><trkpt lat="42.2193078" lon="13.1969847"><ele>777.0</ele><time>2026-04-03T16:52:31.682Z</time></trkpt><trkpt lat="42.2190085" lon="13.1970829"><ele>777.0</ele><time>2026-04-03T16:52:32.682Z</time></trkpt><trkpt lat="42.2187088" lon="13.1971962"><ele>775.0</ele><time>2026-04-03T16:52:33.682Z</time></trkpt><trkpt lat="42.2184137" lon="13.197326"><ele>773.0</ele><time>2026-04-03T16:52:34.681Z</time></trkpt><trkpt lat="42.2181165" lon="13.1974618"><ele>773.0</ele><time>2026-04-03T16:52:35.682Z</time></trkpt><trkpt lat="42.2178235" lon="13.197608"><ele>773.0</ele><time>2026-04-03T16:52:36.682Z</time></trkpt><trkpt lat="42.2175291" lon="13.1977549"><ele>772.5</ele><time>2026-04-03T16:52:37.681Z</time></trkpt><trkpt lat="42.217234" lon="13.1979"><ele>772.0</ele><time>2026-04-03T16:52:38.681Z</time></trkpt><trkpt lat="42.2169391" lon="13.1980414"><ele>760.0</ele><time>2026-04-03T16:52:39.682Z</time></trkpt><trkpt lat="42.2166522" lon="13.1981778"><ele>748.0</ele><time>2026-04-03T16:52:40.682Z</time></trkpt><trkpt lat="42.2163689" lon="13.1982976"><ele>745.0</ele><time>2026-04-03T16:52:41.681Z</time></trkpt><trkpt lat="42.2160789" lon="13.1984011"><ele>742.0</ele><time>2026-04-03T16:52:42.682Z</time></trkpt><trkpt lat="42.2157797" lon="13.1984765"><ele>741.0</ele><time>2026-04-03T16:52:43.681Z</time></trkpt><trkpt lat="42.2154774" lon="13.1985227"><ele>740.0</ele><time>2026-04-03T16:52:44.682Z</time></trkpt><trkpt lat="42.2151741" lon="13.1985446"><ele>740.0</ele><time>2026-04-03T16:52:45.682Z</time></trkpt><trkpt lat="42.2148665" lon="13.1985443"><ele>740.0</ele><time>2026-04-03T16:52:46.682Z</time></trkpt><trkpt lat="42.2145511" lon="13.1985235"><ele>742.0</ele><time>2026-04-03T16:52:47.682Z</time></trkpt><trkpt lat="42.2142356" lon="13.1985033"><ele>744.0</ele><time>2026-04-03T16:52:48.682Z</time></trkpt><trkpt lat="42.2139304" lon="13.1985031"><ele>745.0</ele><time>2026-04-03T16:52:49.681Z</time></trkpt><trkpt lat="42.2136357" lon="13.1985232"><ele>746.0</ele><time>2026-04-03T16:52:50.682Z</time></trkpt><trkpt lat="42.2133448" lon="13.1985622"><ele>743.5</ele><time>2026-04-03T16:52:51.682Z</time></trkpt><trkpt lat="42.2130559" lon="13.1986301"><ele>741.0</ele><time>2026-04-03T16:52:52.681Z</time></trkpt><trkpt lat="42.2127646" lon="13.1987253"><ele>741.0</ele><time>2026-04-03T16:52:53.682Z</time></trkpt><trkpt lat="42.2124872" lon="13.1988543"><ele>741.0</ele><time>2026-04-03T16:52:54.682Z</time></trkpt><trkpt lat="42.2122169" lon="13.1990099"><ele>742.0</ele><time>2026-04-03T16:52:55.681Z</time></trkpt><trkpt lat="42.2119568" lon="13.1992004"><ele>743.0</ele><time>2026-04-03T16:52:56.682Z</time></trkpt><trkpt lat="42.2117046" lon="13.1994253"><ele>740.0</ele><time>2026-04-03T16:52:57.682Z</time></trkpt><trkpt lat="42.2114647" lon="13.1996767"><ele>737.0</ele><time>2026-04-03T16:52:58.681Z</time></trkpt><trkpt lat="42.2112394" lon="13.199961"><ele>737.0</ele><time>2026-04-03T16:52:59.682Z</time></trkpt><trkpt lat="42.2110322" lon="13.2002706"><ele>737.0</ele><time>2026-04-03T16:53:00.682Z</time></trkpt><trkpt lat="42.2108374" lon="13.2006055"><ele>740.0</ele><time>2026-04-03T16:53:01.681Z</time></trkpt><trkpt lat="42.2106583" lon="13.2009528"><ele>743.0</ele><time>2026-04-03T16:53:02.682Z</time></trkpt><trkpt lat="42.2104948" lon="13.201313"><ele>739.0</ele><time>2026-04-03T16:53:03.681Z</time></trkpt><trkpt lat="42.2103312" lon="13.2016718"><ele>735.0</ele><time>2026-04-03T16:53:04.681Z</time></trkpt><trkpt lat="42.2101592" lon="13.2020243"><ele>731.5</ele><time>2026-04-03T16:53:05.681Z</time></trkpt><trkpt lat="42.2099701" lon="13.2023561"><ele>728.0</ele><time>2026-04-03T16:53:06.682Z</time></trkpt><trkpt lat="42.2097591" lon="13.2026726"><ele>728.0</ele><time>2026-04-03T16:53:07.682Z</time></trkpt><trkpt lat="42.2095365" lon="13.20297"><ele>728.0</ele><time>2026-04-03T16:53:08.682Z</time></trkpt><trkpt lat="42.2093053" lon="13.2032517"><ele>730.0</ele><time>2026-04-03T16:53:09.681Z</time></trkpt><trkpt lat="42.2090622" lon="13.2035249"><ele>732.0</ele><time>2026-04-03T16:53:10.682Z</time></trkpt><trkpt lat="42.2088278" lon="13.2038063"><ele>737.5</ele><time>2026-04-03T16:53:11.682Z</time></trkpt><trkpt lat="42.2086061" lon="13.2041049"><ele>743.0</ele><time>2026-04-03T16:53:12.682Z</time></trkpt><trkpt lat="42.2083942" lon="13.2044164"><ele>743.0</ele><time>2026-04-03T16:53:13.682Z</time></trkpt><trkpt lat="42.2081927" lon="13.2047428"><ele>743.0</ele><time>2026-04-03T16:53:14.682Z</time></trkpt><trkpt lat="42.2080128" lon="13.2050893"><ele>739.0</ele><time>2026-04-03T16:53:15.682Z</time></trkpt><trkpt lat="42.2078529" lon="13.2054449"><ele>735.0</ele><time>2026-04-03T16:53:16.682Z</time></trkpt><trkpt lat="42.20771" lon="13.2058221"><ele>735.0</ele><time>2026-04-03T16:53:17.682Z</time></trkpt><trkpt lat="42.2075824" lon="13.2062161"><ele>735.0</ele><time>2026-04-03T16:53:18.682Z</time></trkpt><trkpt lat="42.207469" lon="13.2066168"><ele>731.5</ele><time>2026-04-03T16:53:19.681Z</time></trkpt><trkpt lat="42.2073617" lon="13.2070184"><ele>728.0</ele><time>2026-04-03T16:53:20.682Z</time></trkpt><trkpt lat="42.2072549" lon="13.2074169"><ele>728.0</ele><time>2026-04-03T16:53:21.681Z</time></trkpt><trkpt lat="42.2071476" lon="13.2078234"><ele>728.0</ele><time>2026-04-03T16:53:22.682Z</time></trkpt><trkpt lat="42.207034" lon="13.2082253"><ele>732.0</ele><time>2026-04-03T16:53:23.682Z</time></trkpt><trkpt lat="42.2069234" lon="13.2086271"><ele>736.0</ele><time>2026-04-03T16:53:24.681Z</time></trkpt><trkpt lat="42.2068147" lon="13.2090313"><ele>740.0</ele><time>2026-04-03T16:53:25.682Z</time></trkpt><trkpt lat="42.2067068" lon="13.209435"><ele>744.0</ele><time>2026-04-03T16:53:26.682Z</time></trkpt><trkpt lat="42.2065983" lon="13.2098382"><ele>732.0</ele><time>2026-04-03T16:53:27.682Z</time></trkpt><trkpt lat="42.206491" lon="13.2102411"><ele>720.0</ele><time>2026-04-03T16:53:28.681Z</time></trkpt><trkpt lat="42.2063807" lon="13.2106453"><ele>722.0</ele><time>2026-04-03T16:53:29.681Z</time></trkpt><trkpt lat="42.2062633" lon="13.2110457"><ele>724.0</ele><time>2026-04-03T16:53:30.681Z</time></trkpt><trkpt lat="42.2061402" lon="13.2114444"><ele>724.5</ele><time>2026-04-03T16:53:31.681Z</time></trkpt><trkpt lat="42.2060035" lon="13.2118344"><ele>725.0</ele><time>2026-04-03T16:53:32.681Z</time></trkpt><trkpt lat="42.2058479" lon="13.2122156"><ele>721.0</ele><time>2026-04-03T16:53:33.681Z</time></trkpt><trkpt lat="42.205686" lon="13.2125932"><ele>717.0</ele><time>2026-04-03T16:53:34.681Z</time></trkpt><trkpt lat="42.2055203" lon="13.2129644"><ele>709.0</ele><time>2026-04-03T16:53:35.681Z</time></trkpt><trkpt lat="42.2053473" lon="13.2133298"><ele>701.0</ele><time>2026-04-03T16:53:36.682Z</time></trkpt><trkpt lat="42.2051628" lon="13.213684"><ele>714.0</ele><time>2026-04-03T16:53:37.682Z</time></trkpt><trkpt lat="42.2049682" lon="13.2140306"><ele>727.0</ele><time>2026-04-03T16:53:38.682Z</time></trkpt><trkpt lat="42.2047647" lon="13.2143666"><ele>727.5</ele><time>2026-04-03T16:53:39.681Z</time></trkpt><trkpt lat="42.2045557" lon="13.2146905"><ele>728.0</ele><time>2026-04-03T16:53:40.681Z</time></trkpt><trkpt lat="42.2043364" lon="13.2150043"><ele>721.0</ele><time>2026-04-03T16:53:41.682Z</time></trkpt><trkpt lat="42.2041131" lon="13.2153124"><ele>714.0</ele><time>2026-04-03T16:53:42.681Z</time></trkpt><trkpt lat="42.203881" lon="13.2156165"><ele>723.5</ele><time>2026-04-03T16:53:43.682Z</time></trkpt><trkpt lat="42.2036501" lon="13.2159196"><ele>733.0</ele><time>2026-04-03T16:53:44.682Z</time></trkpt><trkpt lat="42.2034199" lon="13.216227"><ele>726.5</ele><time>2026-04-03T16:53:45.682Z</time></trkpt><trkpt lat="42.203189" lon="13.216538"><ele>720.0</ele><time>2026-04-03T16:53:46.682Z</time></trkpt><trkpt lat="42.2029605" lon="13.2168562"><ele>720.0</ele><time>2026-04-03T16:53:47.682Z</time></trkpt><trkpt lat="42.2027324" lon="13.2171714"><ele>720.0</ele><time>2026-04-03T16:53:48.682Z</time></trkpt><trkpt lat="42.2025039" lon="13.2174891"><ele>715.0</ele><time>2026-04-03T16:53:49.681Z</time></trkpt><trkpt lat="42.2022799" lon="13.2178099"><ele>710.0</ele><time>2026-04-03T16:53:50.681Z</time></trkpt><trkpt lat="42.2020604" lon="13.2181389"><ele>722.0</ele><time>2026-04-03T16:53:51.681Z</time></trkpt><trkpt lat="42.201846" lon="13.2184802"><ele>734.0</ele><time>2026-04-03T16:53:52.682Z</time></trkpt><trkpt lat="42.2016402" lon="13.2188209"><ele>729.0</ele><time>2026-04-03T16:53:53.682Z</time></trkpt><trkpt lat="42.2014412" lon="13.2191619"><ele>724.0</ele><time>2026-04-03T16:53:54.682Z</time></trkpt><trkpt lat="42.2012495" lon="13.2195048"><ele>736.0</ele><time>2026-04-03T16:53:55.682Z</time></trkpt><trkpt lat="42.201062" lon="13.2198451"><ele>748.0</ele><time>2026-04-03T16:53:56.681Z</time></trkpt><trkpt lat="42.2008787" lon="13.2201893"><ele>748.0</ele><time>2026-04-03T16:53:57.681Z</time></trkpt><trkpt lat="42.2007077" lon="13.220539"><ele>748.0</ele><time>2026-04-03T16:53:58.682Z</time></trkpt><trkpt lat="42.2005451" lon="13.2208954"><ele>749.0</ele><time>2026-04-03T16:53:59.681Z</time></trkpt><trkpt lat="42.2003842" lon="13.2212476"><ele>750.0</ele><time>2026-04-03T16:54:00.682Z</time></trkpt><trkpt lat="42.2002223" lon="13.2215966"><ele>750.0</ele><time>2026-04-03T16:54:01.682Z</time></trkpt><trkpt lat="42.200062" lon="13.2219621"><ele>750.0</ele><time>2026-04-03T16:54:02.681Z</time></trkpt><trkpt lat="42.1999034" lon="13.2223397"><ele>739.5</ele><time>2026-04-03T16:54:03.682Z</time></trkpt><trkpt lat="42.1997402" lon="13.2227282"><ele>729.0</ele><time>2026-04-03T16:54:04.681Z</time></trkpt><trkpt lat="42.1995758" lon="13.223125"><ele>738.0</ele><time>2026-04-03T16:54:05.682Z</time></trkpt><trkpt lat="42.199406" lon="13.2235263"><ele>747.0</ele><time>2026-04-03T16:54:06.682Z</time></trkpt><trkpt lat="42.1992313" lon="13.2239256"><ele>753.5</ele><time>2026-04-03T16:54:07.681Z</time></trkpt><trkpt lat="42.1990515" lon="13.224319"><ele>760.0</ele><time>2026-04-03T16:54:08.682Z</time></trkpt><trkpt lat="42.1988669" lon="13.2247061"><ele>749.0</ele><time>2026-04-03T16:54:09.682Z</time></trkpt><trkpt lat="42.1986743" lon="13.22509"><ele>738.0</ele><time>2026-04-03T16:54:10.681Z</time></trkpt><trkpt lat="42.1984806" lon="13.2254682"><ele>732.5</ele><time>2026-04-03T16:54:11.682Z</time></trkpt><trkpt lat="42.1982848" lon="13.2258392"><ele>727.0</ele><time>2026-04-03T16:54:12.682Z</time></trkpt><trkpt lat="42.1980871" lon="13.2262017"><ele>738.5</ele><time>2026-04-03T16:54:13.682Z</time></trkpt><trkpt lat="42.1978859" lon="13.2265529"><ele>750.0</ele><time>2026-04-03T16:54:14.681Z</time></trkpt><trkpt lat="42.1976833" lon="13.2268991"><ele>750.0</ele><time>2026-04-03T16:54:15.681Z</time></trkpt><trkpt lat="42.1974858" lon="13.2272489"><ele>750.0</ele><time>2026-04-03T16:54:16.682Z</time></trkpt><trkpt lat="42.1972991" lon="13.2276007"><ele>753.5</ele><time>2026-04-03T16:54:17.681Z</time></trkpt><trkpt lat="42.1971246" lon="13.2279577"><ele>757.0</ele><time>2026-04-03T16:54:18.682Z</time></trkpt><trkpt lat="42.1969668" lon="13.2283218"><ele>757.0</ele><time>2026-04-03T16:54:19.682Z</time></trkpt><trkpt lat="42.1968236" lon="13.2286907"><ele>757.0</ele><time>2026-04-03T16:54:20.681Z</time></trkpt><trkpt lat="42.1966954" lon="13.2290739"><ele>752.5</ele><time>2026-04-03T16:54:21.682Z</time></trkpt><trkpt lat="42.1965715" lon="13.2294635"><ele>748.0</ele><time>2026-04-03T16:54:22.682Z</time></trkpt><trkpt lat="42.1964505" lon="13.2298474"><ele>748.0</ele><time>2026-04-03T16:54:23.681Z</time></trkpt><trkpt lat="42.1963255" lon="13.2302261"><ele>748.0</ele><time>2026-04-03T16:54:24.682Z</time></trkpt><trkpt lat="42.1961935" lon="13.2306048"><ele>758.5</ele><time>2026-04-03T16:54:25.682Z</time></trkpt><trkpt lat="42.1960541" lon="13.2309764"><ele>769.0</ele><time>2026-04-03T16:54:26.682Z</time></trkpt><trkpt lat="42.1959028" lon="13.2313381"><ele>758.5</ele><time>2026-04-03T16:54:27.682Z</time></trkpt><trkpt lat="42.1957455" lon="13.2316834"><ele>748.0</ele><time>2026-04-03T16:54:28.681Z</time></trkpt><trkpt lat="42.1955922" lon="13.2320135"><ele>759.0</ele><time>2026-04-03T16:54:29.681Z</time></trkpt><trkpt lat="42.1954482" lon="13.2323397"><ele>770.0</ele><time>2026-04-03T16:54:30.681Z</time></trkpt><trkpt lat="42.1953229" lon="13.2326651"><ele>770.0</ele><time>2026-04-03T16:54:31.682Z</time></trkpt><trkpt lat="42.1952169" lon="13.2330006"><ele>770.0</ele><time>2026-04-03T16:54:32.682Z</time></trkpt><trkpt lat="42.1951262" lon="13.2333556"><ele>776.5</ele><time>2026-04-03T16:54:33.682Z</time></trkpt><trkpt lat="42.1950433" lon="13.2337295"><ele>783.0</ele><time>2026-04-03T16:54:34.681Z</time></trkpt><trkpt lat="42.1949595" lon="13.2341055"><ele>789.5</ele><time>2026-04-03T16:54:35.682Z</time></trkpt><trkpt lat="42.1948727" lon="13.234478"><ele>796.0</ele><time>2026-04-03T16:54:36.682Z</time></trkpt><trkpt lat="42.1947831" lon="13.2348457"><ele>777.5</ele><time>2026-04-03T16:54:37.682Z</time></trkpt><trkpt lat="42.1946984" lon="13.2352165"><ele>759.0</ele><time>2026-04-03T16:54:38.682Z</time></trkpt><trkpt lat="42.1946156" lon="13.2355898"><ele>763.0</ele><time>2026-04-03T16:54:39.681Z</time></trkpt><trkpt lat="42.194542" lon="13.2359495"><ele>767.0</ele><time>2026-04-03T16:54:40.681Z</time></trkpt><trkpt lat="42.1944795" lon="13.2362996"><ele>770.0</ele><time>2026-04-03T16:54:41.681Z</time></trkpt><trkpt lat="42.194429" lon="13.2366575"><ele>773.0</ele><time>2026-04-03T16:54:42.682Z</time></trkpt><trkpt lat="42.1944049" lon="13.237027"><ele>772.5</ele><time>2026-04-03T16:54:43.682Z</time></trkpt><trkpt lat="42.1944078" lon="13.2374076"><ele>772.0</ele><time>2026-04-03T16:54:44.682Z</time></trkpt><trkpt lat="42.194427" lon="13.2377894"><ele>768.5</ele><time>2026-04-03T16:54:45.682Z</time></trkpt><trkpt lat="42.1944689" lon="13.2381684"><ele>765.0</ele><time>2026-04-03T16:54:46.682Z</time></trkpt><trkpt lat="42.1945356" lon="13.2385465"><ele>765.0</ele><time>2026-04-03T16:54:47.682Z</time></trkpt><trkpt lat="42.1946271" lon="13.2389195"><ele>765.0</ele><time>2026-04-03T16:54:48.681Z</time></trkpt><trkpt lat="42.1947392" lon="13.2392834"><ele>772.0</ele><time>2026-04-03T16:54:49.682Z</time></trkpt><trkpt lat="42.1948744" lon="13.2396353"><ele>779.0</ele><time>2026-04-03T16:54:50.682Z</time></trkpt><trkpt lat="42.195027" lon="13.2399783"><ele>779.0</ele><time>2026-04-03T16:54:51.681Z</time></trkpt><trkpt lat="42.1951898" lon="13.2403165"><ele>779.0</ele><time>2026-04-03T16:54:52.682Z</time></trkpt><trkpt lat="42.195353" lon="13.2406551"><ele>786.5</ele><time>2026-04-03T16:54:53.681Z</time></trkpt><trkpt lat="42.1955086" lon="13.2410056"><ele>794.0</ele><time>2026-04-03T16:54:54.682Z</time></trkpt><trkpt lat="42.1956465" lon="13.2413715"><ele>790.5</ele><time>2026-04-03T16:54:55.682Z</time></trkpt><trkpt lat="42.1957624" lon="13.2417486"><ele>787.0</ele><time>2026-04-03T16:54:56.682Z</time></trkpt><trkpt lat="42.1958585" lon="13.2421332"><ele>793.0</ele><time>2026-04-03T16:54:57.681Z</time></trkpt><trkpt lat="42.1959386" lon="13.2425239"><ele>799.0</ele><time>2026-04-03T16:54:58.682Z</time></trkpt><trkpt lat="42.1960014" lon="13.2429213"><ele>802.0</ele><time>2026-04-03T16:54:59.682Z</time></trkpt><trkpt lat="42.1960449" lon="13.243323"><ele>805.0</ele><time>2026-04-03T16:55:00.681Z</time></trkpt><trkpt lat="42.1960689" lon="13.2437278"><ele>807.5</ele><time>2026-04-03T16:55:01.682Z</time></trkpt><trkpt lat="42.1960718" lon="13.2441393"><ele>810.0</ele><time>2026-04-03T16:55:02.682Z</time></trkpt><trkpt lat="42.196058" lon="13.2445468"><ele>810.5</ele><time>2026-04-03T16:55:03.681Z</time></trkpt><trkpt lat="42.1960268" lon="13.2449544"><ele>811.0</ele><time>2026-04-03T16:55:04.682Z</time></trkpt><trkpt lat="42.1959707" lon="13.2453504"><ele>807.5</ele><time>2026-04-03T16:55:05.682Z</time></trkpt><trkpt lat="42.1959008" lon="13.2457472"><ele>804.0</ele><time>2026-04-03T16:55:06.681Z</time></trkpt><trkpt lat="42.1958132" lon="13.2461346"><ele>802.5</ele><time>2026-04-03T16:55:07.682Z</time></trkpt><trkpt lat="42.1957063" lon="13.246518"><ele>801.0</ele><time>2026-04-03T16:55:08.681Z</time></trkpt><trkpt lat="42.19559" lon="13.2468886"><ele>806.0</ele><time>2026-04-03T16:55:09.681Z</time></trkpt><trkpt lat="42.1954706" lon="13.2472571"><ele>811.0</ele><time>2026-04-03T16:55:10.681Z</time></trkpt><trkpt lat="42.1953477" lon="13.2476218"><ele>811.0</ele><time>2026-04-03T16:55:11.682Z</time></trkpt><trkpt lat="42.1952299" lon="13.2479885"><ele>811.0</ele><time>2026-04-03T16:55:12.682Z</time></trkpt><trkpt lat="42.1951159" lon="13.248349"><ele>807.5</ele><time>2026-04-03T16:55:13.683Z</time></trkpt><trkpt lat="42.1950068" lon="13.2486955"><ele>804.0</ele><time>2026-04-03T16:55:14.683Z</time></trkpt><trkpt lat="42.194899" lon="13.2490363"><ele>799.5</ele><time>2026-04-03T16:55:15.683Z</time></trkpt><trkpt lat="42.1947893" lon="13.2493761"><ele>795.0</ele><time>2026-04-03T16:55:16.683Z</time></trkpt><trkpt lat="42.1946838" lon="13.2497105"><ele>796.0</ele><time>2026-04-03T16:55:17.683Z</time></trkpt><trkpt lat="42.1945747" lon="13.2500522"><ele>797.0</ele><time>2026-04-03T16:55:18.683Z</time></trkpt><trkpt lat="42.1944665" lon="13.2503927"><ele>797.5</ele><time>2026-04-03T16:55:19.682Z</time></trkpt><trkpt lat="42.194355" lon="13.2507358"><ele>798.0</ele><time>2026-04-03T16:55:20.683Z</time></trkpt><trkpt lat="42.1942456" lon="13.2510785"><ele>798.0</ele><time>2026-04-03T16:55:21.682Z</time></trkpt><trkpt lat="42.1941401" lon="13.2514094"><ele>798.0</ele><time>2026-04-03T16:55:22.682Z</time></trkpt><trkpt lat="42.1940322" lon="13.2517349"><ele>798.5</ele><time>2026-04-03T16:55:23.683Z</time></trkpt><trkpt lat="42.1939218" lon="13.2520589"><ele>799.0</ele><time>2026-04-03T16:55:24.682Z</time></trkpt><trkpt lat="42.193813" lon="13.2523622"><ele>796.5</ele><time>2026-04-03T16:55:25.683Z</time></trkpt><trkpt lat="42.1937045" lon="13.2526556"><ele>794.0</ele><time>2026-04-03T16:55:26.683Z</time></trkpt><trkpt lat="42.1935921" lon="13.2529498"><ele>794.5</ele><time>2026-04-03T16:55:27.682Z</time></trkpt><trkpt lat="42.1934805" lon="13.2532444"><ele>795.0</ele><time>2026-04-03T16:55:28.683Z</time></trkpt><trkpt lat="42.1933583" lon="13.2535399"><ele>795.0</ele><time>2026-04-03T16:55:29.683Z</time></trkpt><trkpt lat="42.1932337" lon="13.2538396"><ele>795.0</ele><time>2026-04-03T16:55:30.682Z</time></trkpt><trkpt lat="42.1931076" lon="13.2541384"><ele>796.5</ele><time>2026-04-03T16:55:31.682Z</time></trkpt><trkpt lat="42.1929769" lon="13.2544377"><ele>798.0</ele><time>2026-04-03T16:55:32.683Z</time></trkpt><trkpt lat="42.1928429" lon="13.2547373"><ele>798.0</ele><time>2026-04-03T16:55:33.683Z</time></trkpt><trkpt lat="42.1927058" lon="13.2550302"><ele>798.0</ele><time>2026-04-03T16:55:34.682Z</time></trkpt><trkpt lat="42.1925669" lon="13.2553184"><ele>798.0</ele><time>2026-04-03T16:55:35.683Z</time></trkpt><trkpt lat="42.1924236" lon="13.2555958"><ele>798.0</ele><time>2026-04-03T16:55:36.682Z</time></trkpt><trkpt lat="42.1922881" lon="13.255858"><ele>797.5</ele><time>2026-04-03T16:55:37.682Z</time></trkpt><trkpt lat="42.1921491" lon="13.2560995"><ele>797.0</ele><time>2026-04-03T16:55:38.682Z</time></trkpt><trkpt lat="42.1920109" lon="13.2563381"><ele>797.3333333333334</ele><time>2026-04-03T16:55:39.682Z</time></trkpt><trkpt lat="42.1918787" lon="13.2565741"><ele>797.6666666666667</ele><time>2026-04-03T16:55:40.683Z</time></trkpt><trkpt lat="42.1917514" lon="13.2568025"><ele>798.0</ele><time>2026-04-03T16:55:41.683Z</time></trkpt><trkpt lat="42.1916273" lon="13.25703"><ele>798.3333333333333</ele><time>2026-04-03T16:55:42.682Z</time></trkpt><trkpt lat="42.1915044" lon="13.2572508"><ele>798.6666666666666</ele><time>2026-04-03T16:55:43.683Z</time></trkpt><trkpt lat="42.1913758" lon="13.257476"><ele>799.0</ele><time>2026-04-03T16:55:44.683Z</time></trkpt><trkpt lat="42.1912383" lon="13.2577088"><ele>799.0</ele><time>2026-04-03T16:55:45.683Z</time></trkpt><trkpt lat="42.1911004" lon="13.2579578"><ele>799.0</ele><time>2026-04-03T16:55:46.683Z</time></trkpt><trkpt lat="42.1909502" lon="13.258225"><ele>799.0</ele><time>2026-04-03T16:55:47.683Z</time></trkpt><trkpt lat="42.1908001" lon="13.2584992"><ele>799.0</ele><time>2026-04-03T16:55:48.683Z</time></trkpt><trkpt lat="42.1906583" lon="13.2587534"><ele>798.0</ele><time>2026-04-03T16:55:49.682Z</time></trkpt><trkpt lat="42.1905232" lon="13.258985"><ele>797.0</ele><time>2026-04-03T16:55:50.682Z</time></trkpt><trkpt lat="42.1903833" lon="13.2592189"><ele>796.0</ele><time>2026-04-03T16:55:51.682Z</time></trkpt><trkpt lat="42.1902496" lon="13.2594547"><ele>796.0</ele><time>2026-04-03T16:55:52.682Z</time></trkpt><trkpt lat="42.1901156" lon="13.2596927"><ele>796.0</ele><time>2026-04-03T16:55:53.683Z</time></trkpt><trkpt lat="42.1899812" lon="13.2599335"><ele>796.0</ele><time>2026-04-03T16:55:54.683Z</time></trkpt><trkpt lat="42.1898429" lon="13.2601778"><ele>795.5</ele><time>2026-04-03T16:55:55.683Z</time></trkpt><trkpt lat="42.1897007" lon="13.2604204"><ele>795.0</ele><time>2026-04-03T16:55:56.682Z</time></trkpt><trkpt lat="42.1895554" lon="13.2606638"><ele>796.0</ele><time>2026-04-03T16:55:57.683Z</time></trkpt><trkpt lat="42.1894087" lon="13.2609091"><ele>797.0</ele><time>2026-04-03T16:55:58.683Z</time></trkpt><trkpt lat="42.1892584" lon="13.2611513"><ele>797.0</ele><time>2026-04-03T16:55:59.683Z</time></trkpt><trkpt lat="42.1891005" lon="13.2613937"><ele>797.0</ele><time>2026-04-03T16:56:00.682Z</time></trkpt><trkpt lat="42.188938" lon="13.2616321"><ele>797.5</ele><time>2026-04-03T16:56:01.683Z</time></trkpt><trkpt lat="42.1887683" lon="13.2618661"><ele>798.0</ele><time>2026-04-03T16:56:02.683Z</time></trkpt><trkpt lat="42.1885931" lon="13.2621112"><ele>798.0</ele><time>2026-04-03T16:56:03.682Z</time></trkpt><trkpt lat="42.1884149" lon="13.2623532"><ele>798.0</ele><time>2026-04-03T16:56:04.683Z</time></trkpt><trkpt lat="42.1882315" lon="13.2625991"><ele>797.0</ele><time>2026-04-03T16:56:05.683Z</time></trkpt><trkpt lat="42.1880403" lon="13.2628429"><ele>796.0</ele><time>2026-04-03T16:56:06.683Z</time></trkpt><trkpt lat="42.1878401" lon="13.2630877"><ele>796.5</ele><time>2026-04-03T16:56:07.683Z</time></trkpt><trkpt lat="42.1876344" lon="13.2633332"><ele>797.0</ele><time>2026-04-03T16:56:08.683Z</time></trkpt><trkpt lat="42.1874292" lon="13.2635777"><ele>798.5</ele><time>2026-04-03T16:56:09.682Z</time></trkpt><trkpt lat="42.1872209" lon="13.2638189"><ele>800.0</ele><time>2026-04-03T16:56:10.682Z</time></trkpt><trkpt lat="42.1870056" lon="13.2640549"><ele>800.0</ele><time>2026-04-03T16:56:11.683Z</time></trkpt><trkpt lat="42.1867862" lon="13.2642869"><ele>800.0</ele><time>2026-04-03T16:56:12.682Z</time></trkpt><trkpt lat="42.1865639" lon="13.2645178"><ele>800.5</ele><time>2026-04-03T16:56:13.683Z</time></trkpt><trkpt lat="42.1863427" lon="13.2647482"><ele>801.0</ele><time>2026-04-03T16:56:14.682Z</time></trkpt><trkpt lat="42.1861172" lon="13.2649703"><ele>800.0</ele><time>2026-04-03T16:56:15.683Z</time></trkpt><trkpt lat="42.1858883" lon="13.2651871"><ele>799.0</ele><time>2026-04-03T16:56:16.683Z</time></trkpt><trkpt lat="42.1856523" lon="13.265403"><ele>802.5</ele><time>2026-04-03T16:56:17.682Z</time></trkpt><trkpt lat="42.1854158" lon="13.265617"><ele>806.0</ele><time>2026-04-03T16:56:18.683Z</time></trkpt><trkpt lat="42.185176" lon="13.2658299"><ele>806.0</ele><time>2026-04-03T16:56:19.683Z</time></trkpt><trkpt lat="42.1849342" lon="13.2660462"><ele>806.0</ele><time>2026-04-03T16:56:20.683Z</time></trkpt><trkpt lat="42.1846914" lon="13.2662562"><ele>805.0</ele><time>2026-04-03T16:56:21.682Z</time></trkpt><trkpt lat="42.1844477" lon="13.2664634"><ele>804.0</ele><time>2026-04-03T16:56:22.683Z</time></trkpt><trkpt lat="42.1842087" lon="13.2666737"><ele>805.0</ele><time>2026-04-03T16:56:23.682Z</time></trkpt><trkpt lat="42.1839689" lon="13.2668804"><ele>806.0</ele><time>2026-04-03T16:56:24.682Z</time></trkpt><trkpt lat="42.1837276" lon="13.2670897"><ele>803.0</ele><time>2026-04-03T16:56:25.683Z</time></trkpt><trkpt lat="42.183487" lon="13.2672984"><ele>800.0</ele><time>2026-04-03T16:56:26.683Z</time></trkpt><trkpt lat="42.1832446" lon="13.267511"><ele>803.5</ele><time>2026-04-03T16:56:27.683Z</time></trkpt><trkpt lat="42.1830016" lon="13.2677232"><ele>807.0</ele><time>2026-04-03T16:56:28.682Z</time></trkpt><trkpt lat="42.182757" lon="13.2679386"><ele>809.0</ele><time>2026-04-03T16:56:29.682Z</time></trkpt><trkpt lat="42.1825147" lon="13.2681525"><ele>811.0</ele><time>2026-04-03T16:56:30.683Z</time></trkpt><trkpt lat="42.1822715" lon="13.2683683"><ele>811.0</ele><time>2026-04-03T16:56:31.682Z</time></trkpt><trkpt lat="42.1820265" lon="13.2685846"><ele>811.0</ele><time>2026-04-03T16:56:32.682Z</time></trkpt><trkpt lat="42.18178" lon="13.2688028"><ele>809.0</ele><time>2026-04-03T16:56:33.682Z</time></trkpt><trkpt lat="42.1815352" lon="13.2690232"><ele>807.0</ele><time>2026-04-03T16:56:34.683Z</time></trkpt><trkpt lat="42.1812893" lon="13.2692369"><ele>807.0</ele><time>2026-04-03T16:56:35.682Z</time></trkpt><trkpt lat="42.1810458" lon="13.2694508"><ele>807.0</ele><time>2026-04-03T16:56:36.682Z</time></trkpt><trkpt lat="42.1808047" lon="13.269665"><ele>806.5</ele><time>2026-04-03T16:56:37.682Z</time></trkpt><trkpt lat="42.1805578" lon="13.2698776"><ele>806.0</ele><time>2026-04-03T16:56:38.683Z</time></trkpt><trkpt lat="42.1803134" lon="13.2700901"><ele>806.0</ele><time>2026-04-03T16:56:39.683Z</time></trkpt><trkpt lat="42.1800693" lon="13.2703014"><ele>806.0</ele><time>2026-04-03T16:56:40.682Z</time></trkpt><trkpt lat="42.1798304" lon="13.2705104"><ele>806.5</ele><time>2026-04-03T16:56:41.683Z</time></trkpt><trkpt lat="42.1795917" lon="13.2707231"><ele>807.0</ele><time>2026-04-03T16:56:42.682Z</time></trkpt><trkpt lat="42.1793515" lon="13.2709357"><ele>807.0</ele><time>2026-04-03T16:56:43.683Z</time></trkpt><trkpt lat="42.1791147" lon="13.2711498"><ele>807.0</ele><time>2026-04-03T16:56:44.683Z</time></trkpt><trkpt lat="42.1788773" lon="13.2713614"><ele>813.5</ele><time>2026-04-03T16:56:45.682Z</time></trkpt><trkpt lat="42.1786467" lon="13.2715791"><ele>820.0</ele><time>2026-04-03T16:56:46.682Z</time></trkpt><trkpt lat="42.1784296" lon="13.2718103"><ele>820.0</ele><time>2026-04-03T16:56:47.683Z</time></trkpt><trkpt lat="42.1782323" lon="13.2720583"><ele>820.0</ele><time>2026-04-03T16:56:48.682Z</time></trkpt><trkpt lat="42.1780506" lon="13.2723317"><ele>820.0</ele><time>2026-04-03T16:56:49.683Z</time></trkpt><trkpt lat="42.177895" lon="13.2726147"><ele>820.0</ele><time>2026-04-03T16:56:50.682Z</time></trkpt><trkpt lat="42.1777636" lon="13.2728963"><ele>818.0</ele><time>2026-04-03T16:56:51.683Z</time></trkpt><trkpt lat="42.1776547" lon="13.2731788"><ele>816.0</ele><time>2026-04-03T16:56:52.683Z</time></trkpt><trkpt lat="42.1775614" lon="13.2734653"><ele>816.0</ele><time>2026-04-03T16:56:53.682Z</time></trkpt><trkpt lat="42.1774822" lon="13.2737472"><ele>816.0</ele><time>2026-04-03T16:56:54.683Z</time></trkpt><trkpt lat="42.177426" lon="13.2740138"><ele>816.0</ele><time>2026-04-03T16:56:55.682Z</time></trkpt><trkpt lat="42.1773872" lon="13.2742424"><ele>816.25</ele><time>2026-04-03T16:56:56.682Z</time></trkpt><trkpt lat="42.1773545" lon="13.2744257"><ele>816.5</ele><time>2026-04-03T16:56:57.683Z</time></trkpt><trkpt lat="42.1773113" lon="13.2745712"><ele>816.75</ele><time>2026-04-03T16:56:58.682Z</time></trkpt><trkpt lat="42.1772591" lon="13.2746919"><ele>817.0</ele><time>2026-04-03T16:56:59.683Z</time></trkpt><trkpt lat="42.1771735" lon="13.2748185"><ele>818.6666666666666</ele><time>2026-04-03T16:57:00.683Z</time></trkpt><trkpt lat="42.177069" lon="13.274926"><ele>820.3333333333333</ele><time>2026-04-03T16:57:01.683Z</time></trkpt><trkpt lat="42.1769279" lon="13.2750033"><ele>822.0</ele><time>2026-04-03T16:57:02.683Z</time></trkpt><trkpt lat="42.1767427" lon="13.2750809"><ele>822.0</ele><time>2026-04-03T16:57:03.683Z</time></trkpt><trkpt lat="42.1765348" lon="13.2751388"><ele>822.0</ele><time>2026-04-03T16:57:04.682Z</time></trkpt><trkpt lat="42.1763191" lon="13.2751972"><ele>822.0</ele><time>2026-04-03T16:57:05.683Z</time></trkpt><trkpt lat="42.1761074" lon="13.2752469"><ele>824.0</ele><time>2026-04-03T16:57:06.682Z</time></trkpt><trkpt lat="42.1759258" lon="13.2752849"><ele>826.0</ele><time>2026-04-03T16:57:07.683Z</time></trkpt><trkpt lat="42.1757927" lon="13.2753211"><ele>828.0</ele><time>2026-04-03T16:57:08.683Z</time></trkpt><trkpt lat="42.175683" lon="13.2753872"><ele>830.0</ele><time>2026-04-03T16:57:09.683Z</time></trkpt><trkpt lat="42.1755918" lon="13.2754921"><ele>830.0</ele><time>2026-04-03T16:57:10.683Z</time></trkpt><trkpt lat="42.1754999" lon="13.275641"><ele>830.0</ele><time>2026-04-03T16:57:11.683Z</time></trkpt><trkpt lat="42.1754166" lon="13.2758268"><ele>830.0</ele><time>2026-04-03T16:57:12.683Z</time></trkpt><trkpt lat="42.1753271" lon="13.2760316"><ele>830.0</ele><time>2026-04-03T16:57:13.682Z</time></trkpt><trkpt lat="42.1752359" lon="13.2762155"><ele>830.0</ele><time>2026-04-03T16:57:14.682Z</time></trkpt><trkpt lat="42.1751406" lon="13.2763755"><ele>830.0</ele><time>2026-04-03T16:57:15.683Z</time></trkpt><trkpt lat="42.1750327" lon="13.2764959"><ele>829.75</ele><time>2026-04-03T16:57:16.682Z</time></trkpt><trkpt lat="42.1749038" lon="13.2765617"><ele>829.5</ele><time>2026-04-03T16:57:17.683Z</time></trkpt><trkpt lat="42.1747708" lon="13.276566"><ele>829.25</ele><time>2026-04-03T16:57:18.682Z</time></trkpt><trkpt lat="42.1746281" lon="13.2765144"><ele>829.0</ele><time>2026-04-03T16:57:19.683Z</time></trkpt><trkpt lat="42.1744682" lon="13.2764032"><ele>827.0</ele><time>2026-04-03T16:57:20.682Z</time></trkpt><trkpt lat="42.1743189" lon="13.2762782"><ele>825.0</ele><time>2026-04-03T16:57:21.683Z</time></trkpt><trkpt lat="42.1741814" lon="13.2761969"><ele>823.0</ele><time>2026-04-03T16:57:22.682Z</time></trkpt><trkpt lat="42.1740476" lon="13.2761659"><ele>819.3333333333333</ele><time>2026-04-03T16:57:23.683Z</time></trkpt><trkpt lat="42.1738954" lon="13.2761987"><ele>815.6666666666667</ele><time>2026-04-03T16:57:24.683Z</time></trkpt><trkpt lat="42.1737321" lon="13.2762751"><ele>812.0</ele><time>2026-04-03T16:57:25.683Z</time></trkpt><trkpt lat="42.1735862" lon="13.2763745"><ele>813.3333333333334</ele><time>2026-04-03T16:57:26.683Z</time></trkpt><trkpt lat="42.1734638" lon="13.2765147"><ele>814.6666666666667</ele><time>2026-04-03T16:57:27.683Z</time></trkpt><trkpt lat="42.1733538" lon="13.2767126"><ele>816.0</ele><time>2026-04-03T16:57:28.683Z</time></trkpt><trkpt lat="42.1732543" lon="13.2769538"><ele>812.5</ele><time>2026-04-03T16:57:29.683Z</time></trkpt><trkpt lat="42.1731498" lon="13.2772328"><ele>809.0</ele><time>2026-04-03T16:57:30.682Z</time></trkpt><trkpt lat="42.173044" lon="13.2775292"><ele>809.0</ele><time>2026-04-03T16:57:31.683Z</time></trkpt><trkpt lat="42.172951" lon="13.2777877"><ele>809.0</ele><time>2026-04-03T16:57:32.682Z</time></trkpt><trkpt lat="42.1728657" lon="13.2779986"><ele>809.0</ele><time>2026-04-03T16:57:33.682Z</time></trkpt><trkpt lat="42.1727782" lon="13.2781618"><ele>809.75</ele><time>2026-04-03T16:57:34.683Z</time></trkpt><trkpt lat="42.172676" lon="13.2782577"><ele>810.5</ele><time>2026-04-03T16:57:35.683Z</time></trkpt><trkpt lat="42.1725669" lon="13.2782988"><ele>811.25</ele><time>2026-04-03T16:57:36.682Z</time></trkpt><trkpt lat="42.1724533" lon="13.2782599"><ele>812.0</ele><time>2026-04-03T16:57:37.683Z</time></trkpt><trkpt lat="42.1723328" lon="13.2781275"><ele>809.3333333333334</ele><time>2026-04-03T16:57:38.682Z</time></trkpt><trkpt lat="42.172201" lon="13.2779497"><ele>806.6666666666667</ele><time>2026-04-03T16:57:39.682Z</time></trkpt><trkpt lat="42.1720728" lon="13.2777319"><ele>804.0</ele><time>2026-04-03T16:57:40.683Z</time></trkpt><trkpt lat="42.1719268" lon="13.2774815"><ele>803.5</ele><time>2026-04-03T16:57:41.683Z</time></trkpt><trkpt lat="42.1717686" lon="13.2772138"><ele>803.0</ele><time>2026-04-03T16:57:42.683Z</time></trkpt><trkpt lat="42.1715987" lon="13.2769273"><ele>801.5</ele><time>2026-04-03T16:57:43.683Z</time></trkpt><trkpt lat="42.1714191" lon="13.2766336"><ele>800.0</ele><time>2026-04-03T16:57:44.682Z</time></trkpt><trkpt lat="42.1712337" lon="13.2763269"><ele>800.0</ele><time>2026-04-03T16:57:45.683Z</time></trkpt><trkpt lat="42.1710506" lon="13.2760167"><ele>800.0</ele><time>2026-04-03T16:57:46.683Z</time></trkpt><trkpt lat="42.1708739" lon="13.2757105"><ele>798.5</ele><time>2026-04-03T16:57:47.683Z</time></trkpt><trkpt lat="42.1707085" lon="13.2754243"><ele>797.0</ele><time>2026-04-03T16:57:48.682Z</time></trkpt><trkpt lat="42.1705537" lon="13.2751609"><ele>795.6666666666667</ele><time>2026-04-03T16:57:49.682Z</time></trkpt><trkpt lat="42.1704073" lon="13.2749222"><ele>794.3333333333333</ele><time>2026-04-03T16:57:50.683Z</time></trkpt><trkpt lat="42.1702606" lon="13.2747158"><ele>793.0</ele><time>2026-04-03T16:57:51.682Z</time></trkpt><trkpt lat="42.1700976" lon="13.2745492"><ele>792.0</ele><time>2026-04-03T16:57:52.683Z</time></trkpt><trkpt lat="42.1698982" lon="13.2744149"><ele>791.0</ele><time>2026-04-03T16:57:53.682Z</time></trkpt><trkpt lat="42.1696771" lon="13.2742909"><ele>789.5</ele><time>2026-04-03T16:57:54.683Z</time></trkpt><trkpt lat="42.1694343" lon="13.2741619"><ele>788.0</ele><time>2026-04-03T16:57:55.683Z</time></trkpt><trkpt lat="42.1691836" lon="13.2740331"><ele>787.0</ele><time>2026-04-03T16:57:56.683Z</time></trkpt><trkpt lat="42.1689303" lon="13.2738921"><ele>786.0</ele><time>2026-04-03T16:57:57.682Z</time></trkpt><trkpt lat="42.1686676" lon="13.2737443"><ele>786.0</ele><time>2026-04-03T16:57:58.683Z</time></trkpt><trkpt lat="42.1684011" lon="13.2735972"><ele>786.0</ele><time>2026-04-03T16:57:59.683Z</time></trkpt><trkpt lat="42.1681298" lon="13.2734449"><ele>784.5</ele><time>2026-04-03T16:58:00.682Z</time></trkpt><trkpt lat="42.16786" lon="13.27329"><ele>783.0</ele><time>2026-04-03T16:58:01.682Z</time></trkpt><trkpt lat="42.1675833" lon="13.2731378"><ele>781.0</ele><time>2026-04-03T16:58:02.683Z</time></trkpt><trkpt lat="42.1673018" lon="13.2729828"><ele>779.0</ele><time>2026-04-03T16:58:03.683Z</time></trkpt><trkpt lat="42.1670167" lon="13.2728304"><ele>779.0</ele><time>2026-04-03T16:58:04.683Z</time></trkpt><trkpt lat="42.1667254" lon="13.2726776"><ele>779.0</ele><time>2026-04-03T16:58:05.683Z</time></trkpt><trkpt lat="42.1664336" lon="13.2725226"><ele>776.5</ele><time>2026-04-03T16:58:06.683Z</time></trkpt><trkpt lat="42.1661371" lon="13.2723589"><ele>774.0</ele><time>2026-04-03T16:58:07.682Z</time></trkpt><trkpt lat="42.165837" lon="13.2721968"><ele>772.5</ele><time>2026-04-03T16:58:08.682Z</time></trkpt><trkpt lat="42.1655382" lon="13.2720312"><ele>771.0</ele><time>2026-04-03T16:58:09.683Z</time></trkpt><trkpt lat="42.1652331" lon="13.2718691"><ele>771.0</ele><time>2026-04-03T16:58:10.683Z</time></trkpt><trkpt lat="42.1649299" lon="13.2717049"><ele>771.0</ele><time>2026-04-03T16:58:11.683Z</time></trkpt><trkpt lat="42.1646232" lon="13.2715427"><ele>769.0</ele><time>2026-04-03T16:58:12.682Z</time></trkpt><trkpt lat="42.1643183" lon="13.2713795"><ele>767.0</ele><time>2026-04-03T16:58:13.682Z</time></trkpt><trkpt lat="42.1640147" lon="13.2712126"><ele>767.0</ele><time>2026-04-03T16:58:14.682Z</time></trkpt><trkpt lat="42.1637135" lon="13.2710458"><ele>767.0</ele><time>2026-04-03T16:58:15.683Z</time></trkpt><trkpt lat="42.1634122" lon="13.2708829"><ele>765.0</ele><time>2026-04-03T16:58:16.683Z</time></trkpt><trkpt lat="42.1631109" lon="13.270719"><ele>763.0</ele><time>2026-04-03T16:58:17.682Z</time></trkpt><trkpt lat="42.1628197" lon="13.2705611"><ele>762.0</ele><time>2026-04-03T16:58:18.683Z</time></trkpt><trkpt lat="42.1625479" lon="13.2704153"><ele>761.0</ele><time>2026-04-03T16:58:19.683Z</time></trkpt><trkpt lat="42.16228" lon="13.2702672"><ele>759.0</ele><time>2026-04-03T16:58:20.683Z</time></trkpt><trkpt lat="42.1620146" lon="13.2701238"><ele>757.0</ele><time>2026-04-03T16:58:21.682Z</time></trkpt><trkpt lat="42.1617536" lon="13.2699789"><ele>756.0</ele><time>2026-04-03T16:58:22.683Z</time></trkpt><trkpt lat="42.1615047" lon="13.2698456"><ele>755.0</ele><time>2026-04-03T16:58:23.683Z</time></trkpt><trkpt lat="42.1612668" lon="13.2697178"><ele>754.0</ele><time>2026-04-03T16:58:24.683Z</time></trkpt><trkpt lat="42.1610455" lon="13.269598"><ele>753.0</ele><time>2026-04-03T16:58:25.682Z</time></trkpt><trkpt lat="42.1608385" lon="13.2694841"><ele>752.3333333333334</ele><time>2026-04-03T16:58:26.682Z</time></trkpt><trkpt lat="42.1606672" lon="13.2694059"><ele>751.6666666666667</ele><time>2026-04-03T16:58:27.683Z</time></trkpt><trkpt lat="42.1604961" lon="13.2693595"><ele>751.0</ele><time>2026-04-03T16:58:28.683Z</time></trkpt><trkpt lat="42.160308" lon="13.2693391"><ele>751.0</ele><time>2026-04-03T16:58:29.683Z</time></trkpt><trkpt lat="42.1601081" lon="13.26936"><ele>751.0</ele><time>2026-04-03T16:58:30.683Z</time></trkpt><trkpt lat="42.1599219" lon="13.2694137"><ele>751.0</ele><time>2026-04-03T16:58:31.683Z</time></trkpt><trkpt lat="42.1597448" lon="13.2695005"><ele>750.3333333333334</ele><time>2026-04-03T16:58:32.683Z</time></trkpt><trkpt lat="42.1595708" lon="13.2696306"><ele>749.6666666666666</ele><time>2026-04-03T16:58:33.683Z</time></trkpt><trkpt lat="42.1594166" lon="13.2697951"><ele>749.0</ele><time>2026-04-03T16:58:34.683Z</time></trkpt><trkpt lat="42.159296" lon="13.2699813"><ele>748.6666666666666</ele><time>2026-04-03T16:58:35.682Z</time></trkpt><trkpt lat="42.1591946" lon="13.2701902"><ele>748.3333333333334</ele><time>2026-04-03T16:58:36.683Z</time></trkpt><trkpt lat="42.1590979" lon="13.2704464"><ele>748.0</ele><time>2026-04-03T16:58:37.683Z</time></trkpt><trkpt lat="42.1589881" lon="13.2707137"><ele>749.0</ele><time>2026-04-03T16:58:38.683Z</time></trkpt><trkpt lat="42.1588454" lon="13.2709678"><ele>750.0</ele><time>2026-04-03T16:58:39.683Z</time></trkpt><trkpt lat="42.1587065" lon="13.2711939"><ele>750.0</ele><time>2026-04-03T16:58:40.682Z</time></trkpt><trkpt lat="42.1585673" lon="13.271399"><ele>750.0</ele><time>2026-04-03T16:58:41.683Z</time></trkpt><trkpt lat="42.1584343" lon="13.2715886"><ele>750.0</ele><time>2026-04-03T16:58:42.683Z</time></trkpt><trkpt lat="42.15832" lon="13.2717482"><ele>749.0</ele><time>2026-04-03T16:58:43.683Z</time></trkpt><trkpt lat="42.1582052" lon="13.2718914"><ele>748.0</ele><time>2026-04-03T16:58:44.683Z</time></trkpt><trkpt lat="42.1580651" lon="13.2720014"><ele>747.0</ele><time>2026-04-03T16:58:45.682Z</time></trkpt><trkpt lat="42.157913" lon="13.2720836"><ele>747.0</ele><time>2026-04-03T16:58:46.682Z</time></trkpt><trkpt lat="42.1577506" lon="13.2721577"><ele>747.0</ele><time>2026-04-03T16:58:47.683Z</time></trkpt><trkpt lat="42.1575714" lon="13.2722325"><ele>747.0</ele><time>2026-04-03T16:58:48.682Z</time></trkpt><trkpt lat="42.1573934" lon="13.2723194"><ele>741.0</ele><time>2026-04-03T16:58:49.683Z</time></trkpt><trkpt lat="42.1572004" lon="13.2724046"><ele>735.0</ele><time>2026-04-03T16:58:50.683Z</time></trkpt><trkpt lat="42.1569629" lon="13.2725216"><ele>735.0</ele><time>2026-04-03T16:58:51.683Z</time></trkpt><trkpt lat="42.156695" lon="13.2726566"><ele>735.0</ele><time>2026-04-03T16:58:52.683Z</time></trkpt><trkpt lat="42.1564299" lon="13.2727894"><ele>734.0</ele><time>2026-04-03T16:58:53.682Z</time></trkpt><trkpt lat="42.1561591" lon="13.2729253"><ele>733.0</ele><time>2026-04-03T16:58:54.683Z</time></trkpt><trkpt lat="42.1558865" lon="13.2730533"><ele>730.5</ele><time>2026-04-03T16:58:55.682Z</time></trkpt><trkpt lat="42.1556146" lon="13.2731849"><ele>728.0</ele><time>2026-04-03T16:58:56.683Z</time></trkpt><trkpt lat="42.1553445" lon="13.2733229"><ele>728.0</ele><time>2026-04-03T16:58:57.682Z</time></trkpt><trkpt lat="42.1550749" lon="13.2734533"><ele>728.0</ele><time>2026-04-03T16:58:58.683Z</time></trkpt><trkpt lat="42.1548126" lon="13.2735818"><ele>724.5</ele><time>2026-04-03T16:58:59.683Z</time></trkpt><trkpt lat="42.1545625" lon="13.2737037"><ele>721.0</ele><time>2026-04-03T16:59:00.682Z</time></trkpt><trkpt lat="42.154324" lon="13.2738238"><ele>721.0</ele><time>2026-04-03T16:59:01.682Z</time></trkpt><trkpt lat="42.1540906" lon="13.2739359"><ele>721.0</ele><time>2026-04-03T16:59:02.682Z</time></trkpt><trkpt lat="42.1538611" lon="13.2740481"><ele>724.0</ele><time>2026-04-03T16:59:03.683Z</time></trkpt><trkpt lat="42.1536256" lon="13.2741569"><ele>727.0</ele><time>2026-04-03T16:59:04.682Z</time></trkpt><trkpt lat="42.1533776" lon="13.2742755"><ele>728.5</ele><time>2026-04-03T16:59:05.683Z</time></trkpt><trkpt lat="42.1531158" lon="13.2744004"><ele>730.0</ele><time>2026-04-03T16:59:06.683Z</time></trkpt><trkpt lat="42.1528452" lon="13.2745274"><ele>730.0</ele><time>2026-04-03T16:59:07.683Z</time></trkpt><trkpt lat="42.1525734" lon="13.2746542"><ele>730.0</ele><time>2026-04-03T16:59:08.682Z</time></trkpt><trkpt lat="42.1523137" lon="13.2747841"><ele>729.0</ele><time>2026-04-03T16:59:09.683Z</time></trkpt><trkpt lat="42.152065" lon="13.2749079"><ele>728.0</ele><time>2026-04-03T16:59:10.683Z</time></trkpt><trkpt lat="42.1518269" lon="13.2750261"><ele>728.0</ele><time>2026-04-03T16:59:11.682Z</time></trkpt><trkpt lat="42.1515897" lon="13.2751427"><ele>728.0</ele><time>2026-04-03T16:59:12.683Z</time></trkpt><trkpt lat="42.1513496" lon="13.2752574"><ele>728.0</ele><time>2026-04-03T16:59:13.683Z</time></trkpt><trkpt lat="42.1511114" lon="13.2753763"><ele>728.0</ele><time>2026-04-03T16:59:14.682Z</time></trkpt><trkpt lat="42.1508864" lon="13.2754844"><ele>727.5</ele><time>2026-04-03T16:59:15.683Z</time></trkpt><trkpt lat="42.1506698" lon="13.2755845"><ele>727.0</ele><time>2026-04-03T16:59:16.682Z</time></trkpt><trkpt lat="42.1504488" lon="13.2756591"><ele>727.0</ele><time>2026-04-03T16:59:17.683Z</time></trkpt><trkpt lat="42.1502094" lon="13.2757069"><ele>727.0</ele><time>2026-04-03T16:59:18.682Z</time></trkpt><trkpt lat="42.1499513" lon="13.2757421"><ele>725.5</ele><time>2026-04-03T16:59:19.683Z</time></trkpt><trkpt lat="42.1496807" lon="13.27577"><ele>724.0</ele><time>2026-04-03T16:59:20.683Z</time></trkpt><trkpt lat="42.1494024" lon="13.2758016"><ele>724.0</ele><time>2026-04-03T16:59:21.683Z</time></trkpt><trkpt lat="42.14912" lon="13.2758313"><ele>724.0</ele><time>2026-04-03T16:59:22.683Z</time></trkpt><trkpt lat="42.1488565" lon="13.2758616"><ele>723.5</ele><time>2026-04-03T16:59:23.682Z</time></trkpt><trkpt lat="42.1485954" lon="13.2758907"><ele>723.0</ele><time>2026-04-03T16:59:24.683Z</time></trkpt><trkpt lat="42.1483302" lon="13.275921"><ele>721.5</ele><time>2026-04-03T16:59:25.683Z</time></trkpt><trkpt lat="42.1480661" lon="13.2759492"><ele>720.0</ele><time>2026-04-03T16:59:26.682Z</time></trkpt><trkpt lat="42.1478068" lon="13.2759728"><ele>720.0</ele><time>2026-04-03T16:59:27.682Z</time></trkpt><trkpt lat="42.1475645" lon="13.2759929"><ele>720.0</ele><time>2026-04-03T16:59:28.682Z</time></trkpt><trkpt lat="42.147335" lon="13.2759928"><ele>719.0</ele><time>2026-04-03T16:59:29.682Z</time></trkpt><trkpt lat="42.1471108" lon="13.2759468"><ele>718.0</ele><time>2026-04-03T16:59:30.682Z</time></trkpt><trkpt lat="42.1468937" lon="13.2758424"><ele>718.0</ele><time>2026-04-03T16:59:31.682Z</time></trkpt><trkpt lat="42.1466773" lon="13.2757047"><ele>718.0</ele><time>2026-04-03T16:59:32.682Z</time></trkpt><trkpt lat="42.1464704" lon="13.2755448"><ele>716.0</ele><time>2026-04-03T16:59:33.683Z</time></trkpt><trkpt lat="42.1462642" lon="13.2753817"><ele>714.0</ele><time>2026-04-03T16:59:34.683Z</time></trkpt><trkpt lat="42.1460573" lon="13.2752216"><ele>714.0</ele><time>2026-04-03T16:59:35.683Z</time></trkpt><trkpt lat="42.1458488" lon="13.2750629"><ele>714.0</ele><time>2026-04-03T16:59:36.683Z</time></trkpt><trkpt lat="42.1456561" lon="13.2749117"><ele>714.0</ele><time>2026-04-03T16:59:37.683Z</time></trkpt><trkpt lat="42.1454745" lon="13.2747734"><ele>714.0</ele><time>2026-04-03T16:59:38.682Z</time></trkpt><trkpt lat="42.1453056" lon="13.274636"><ele>714.0</ele><time>2026-04-03T16:59:39.683Z</time></trkpt><trkpt lat="42.1451475" lon="13.2745218"><ele>714.0</ele><time>2026-04-03T16:59:40.683Z</time></trkpt><trkpt lat="42.1449871" lon="13.274448"><ele>714.0</ele><time>2026-04-03T16:59:41.683Z</time></trkpt><trkpt lat="42.1447995" lon="13.2744137"><ele>714.0</ele><time>2026-04-03T16:59:42.682Z</time></trkpt><trkpt lat="42.1446049" lon="13.2744151"><ele>712.0</ele><time>2026-04-03T16:59:43.682Z</time></trkpt><trkpt lat="42.1443992" lon="13.2744377"><ele>710.0</ele><time>2026-04-03T16:59:44.683Z</time></trkpt><trkpt lat="42.1441943" lon="13.2744804"><ele>708.0</ele><time>2026-04-03T16:59:45.683Z</time></trkpt><trkpt lat="42.1439809" lon="13.2745475"><ele>706.5</ele><time>2026-04-03T16:59:46.682Z</time></trkpt><trkpt lat="42.1437614" lon="13.2746358"><ele>705.0</ele><time>2026-04-03T16:59:47.683Z</time></trkpt><trkpt lat="42.1435339" lon="13.2747341"><ele>706.5</ele><time>2026-04-03T16:59:48.683Z</time></trkpt><trkpt lat="42.143292" lon="13.2748396"><ele>708.0</ele><time>2026-04-03T16:59:49.683Z</time></trkpt><trkpt lat="42.1430377" lon="13.2749422"><ele>708.0</ele><time>2026-04-03T16:59:50.683Z</time></trkpt><trkpt lat="42.1427796" lon="13.2750395"><ele>708.0</ele><time>2026-04-03T16:59:51.683Z</time></trkpt><trkpt lat="42.1425185" lon="13.2751336"><ele>705.0</ele><time>2026-04-03T16:59:52.682Z</time></trkpt><trkpt lat="42.1422582" lon="13.2752312"><ele>702.0</ele><time>2026-04-03T16:59:53.683Z</time></trkpt><trkpt lat="42.1419963" lon="13.27533"><ele>702.0</ele><time>2026-04-03T16:59:54.683Z</time></trkpt><trkpt lat="42.1417329" lon="13.2754343"><ele>702.0</ele><time>2026-04-03T16:59:55.682Z</time></trkpt><trkpt lat="42.1414701" lon="13.2755421"><ele>704.0</ele><time>2026-04-03T16:59:56.683Z</time></trkpt><trkpt lat="42.1412055" lon="13.2756482"><ele>706.0</ele><time>2026-04-03T16:59:57.683Z</time></trkpt><trkpt lat="42.1409486" lon="13.2757505"><ele>703.5</ele><time>2026-04-03T16:59:58.683Z</time></trkpt><trkpt lat="42.1406949" lon="13.2758515"><ele>701.0</ele><time>2026-04-03T16:59:59.682Z</time></trkpt><trkpt lat="42.1404422" lon="13.275951"><ele>701.0</ele><time>2026-04-03T17:00:00.683Z</time></trkpt><trkpt lat="42.1401921" lon="13.2760488"><ele>701.0</ele><time>2026-04-03T17:00:01.682Z</time></trkpt><trkpt lat="42.1399425" lon="13.2761429"><ele>699.0</ele><time>2026-04-03T17:00:02.683Z</time></trkpt><trkpt lat="42.1396962" lon="13.2762447"><ele>697.0</ele><time>2026-04-03T17:00:03.683Z</time></trkpt><trkpt lat="42.1394472" lon="13.2763644"><ele>697.5</ele><time>2026-04-03T17:00:04.683Z</time></trkpt><trkpt lat="42.1392061" lon="13.2765248"><ele>698.0</ele><time>2026-04-03T17:00:05.683Z</time></trkpt><trkpt lat="42.1389723" lon="13.2767129"><ele>698.0</ele><time>2026-04-03T17:00:06.683Z</time></trkpt><trkpt lat="42.1387523" lon="13.2769272"><ele>698.0</ele><time>2026-04-03T17:00:07.682Z</time></trkpt><trkpt lat="42.13852" lon="13.2771525"><ele>698.5</ele><time>2026-04-03T17:00:08.683Z</time></trkpt><trkpt lat="42.138293" lon="13.2773764"><ele>699.0</ele><time>2026-04-03T17:00:09.683Z</time></trkpt><trkpt lat="42.1380603" lon="13.2776021"><ele>698.0</ele><time>2026-04-03T17:00:10.683Z</time></trkpt><trkpt lat="42.1378283" lon="13.2778291"><ele>697.0</ele><time>2026-04-03T17:00:11.682Z</time></trkpt><trkpt lat="42.1375948" lon="13.2780523"><ele>697.0</ele><time>2026-04-03T17:00:12.683Z</time></trkpt><trkpt lat="42.1373588" lon="13.2782637"><ele>697.0</ele><time>2026-04-03T17:00:13.683Z</time></trkpt><trkpt lat="42.1371121" lon="13.2784532"><ele>697.0</ele><time>2026-04-03T17:00:14.682Z</time></trkpt><trkpt lat="42.1368459" lon="13.2786136"><ele>697.0</ele><time>2026-04-03T17:00:15.682Z</time></trkpt><trkpt lat="42.1365658" lon="13.2787634"><ele>697.0</ele><time>2026-04-03T17:00:16.682Z</time></trkpt><trkpt lat="42.1362758" lon="13.2789111"><ele>697.0</ele><time>2026-04-03T17:00:17.682Z</time></trkpt><trkpt lat="42.135982" lon="13.2790527"><ele>696.0</ele><time>2026-04-03T17:00:18.683Z</time></trkpt><trkpt lat="42.1356873" lon="13.2791953"><ele>695.0</ele><time>2026-04-03T17:00:19.683Z</time></trkpt><trkpt lat="42.1353906" lon="13.2793448"><ele>695.0</ele><time>2026-04-03T17:00:20.683Z</time></trkpt><trkpt lat="42.135094" lon="13.2794949"><ele>695.0</ele><time>2026-04-03T17:00:21.683Z</time></trkpt><trkpt lat="42.1347969" lon="13.2796439"><ele>697.0</ele><time>2026-04-03T17:00:22.683Z</time></trkpt><trkpt lat="42.1345002" lon="13.2797919"><ele>699.0</ele><time>2026-04-03T17:00:23.683Z</time></trkpt><trkpt lat="42.1342075" lon="13.2799358"><ele>695.5</ele><time>2026-04-03T17:00:24.683Z</time></trkpt><trkpt lat="42.1339183" lon="13.2800817"><ele>692.0</ele><time>2026-04-03T17:00:25.682Z</time></trkpt><trkpt lat="42.1336437" lon="13.2802208"><ele>692.0</ele><time>2026-04-03T17:00:26.682Z</time></trkpt><trkpt lat="42.1333825" lon="13.2803473"><ele>692.0</ele><time>2026-04-03T17:00:27.682Z</time></trkpt><trkpt lat="42.1331349" lon="13.280468"><ele>692.0</ele><time>2026-04-03T17:00:28.683Z</time></trkpt><trkpt lat="42.1328903" lon="13.2805883"><ele>692.0</ele><time>2026-04-03T17:00:29.682Z</time></trkpt><trkpt lat="42.1326424" lon="13.2807256"><ele>691.5</ele><time>2026-04-03T17:00:30.683Z</time></trkpt><trkpt lat="42.1324092" lon="13.2808856"><ele>691.0</ele><time>2026-04-03T17:00:31.683Z</time></trkpt><trkpt lat="42.1321882" lon="13.2810572"><ele>691.0</ele><time>2026-04-03T17:00:32.683Z</time></trkpt><trkpt lat="42.1319781" lon="13.2812428"><ele>691.0</ele><time>2026-04-03T17:00:33.682Z</time></trkpt><trkpt lat="42.1317726" lon="13.2814463"><ele>691.5</ele><time>2026-04-03T17:00:34.682Z</time></trkpt><trkpt lat="42.1315722" lon="13.281667"><ele>692.0</ele><time>2026-04-03T17:00:35.682Z</time></trkpt><trkpt lat="42.1313777" lon="13.2819009"><ele>692.0</ele><time>2026-04-03T17:00:36.683Z</time></trkpt><trkpt lat="42.1312052" lon="13.2821614"><ele>692.0</ele><time>2026-04-03T17:00:37.683Z</time></trkpt><trkpt lat="42.1310486" lon="13.282448"><ele>693.0</ele><time>2026-04-03T17:00:38.683Z</time></trkpt><trkpt lat="42.1308942" lon="13.2827587"><ele>694.0</ele><time>2026-04-03T17:00:39.682Z</time></trkpt><trkpt lat="42.1307387" lon="13.2830714"><ele>693.0</ele><time>2026-04-03T17:00:40.683Z</time></trkpt><trkpt lat="42.1305904" lon="13.2833686"><ele>692.0</ele><time>2026-04-03T17:00:41.683Z</time></trkpt><trkpt lat="42.1304573" lon="13.283637"><ele>692.0</ele><time>2026-04-03T17:00:42.683Z</time></trkpt><trkpt lat="42.1303327" lon="13.2838914"><ele>692.0</ele><time>2026-04-03T17:00:43.682Z</time></trkpt><trkpt lat="42.1302073" lon="13.2841348"><ele>692.0</ele><time>2026-04-03T17:00:44.682Z</time></trkpt><trkpt lat="42.1300831" lon="13.2843799"><ele>692.3333333333333</ele><time>2026-04-03T17:00:45.682Z</time></trkpt><trkpt lat="42.1299659" lon="13.2846099"><ele>692.6666666666666</ele><time>2026-04-03T17:00:46.683Z</time></trkpt><trkpt lat="42.1298588" lon="13.2848376"><ele>693.0</ele><time>2026-04-03T17:00:47.683Z</time></trkpt><trkpt lat="42.1297493" lon="13.2850688"><ele>693.0</ele><time>2026-04-03T17:00:48.683Z</time></trkpt><trkpt lat="42.1296321" lon="13.285307"><ele>693.0</ele><time>2026-04-03T17:00:49.683Z</time></trkpt><trkpt lat="42.129515" lon="13.2855663"><ele>693.0</ele><time>2026-04-03T17:00:50.683Z</time></trkpt><trkpt lat="42.1293844" lon="13.2858392"><ele>694.0</ele><time>2026-04-03T17:00:51.683Z</time></trkpt><trkpt lat="42.1292459" lon="13.2861262"><ele>695.0</ele><time>2026-04-03T17:00:52.683Z</time></trkpt><trkpt lat="42.1290995" lon="13.2864305"><ele>695.5</ele><time>2026-04-03T17:00:53.683Z</time></trkpt><trkpt lat="42.1289456" lon="13.2867408"><ele>696.0</ele><time>2026-04-03T17:00:54.683Z</time></trkpt><trkpt lat="42.1287833" lon="13.2870642"><ele>696.5</ele><time>2026-04-03T17:00:55.682Z</time></trkpt><trkpt lat="42.1286196" lon="13.2874027"><ele>697.0</ele><time>2026-04-03T17:00:56.683Z</time></trkpt><trkpt lat="42.1284556" lon="13.2877431"><ele>697.0</ele><time>2026-04-03T17:00:57.683Z</time></trkpt><trkpt lat="42.1282997" lon="13.2880654"><ele>697.0</ele><time>2026-04-03T17:00:58.683Z</time></trkpt><trkpt lat="42.1281616" lon="13.2883639"><ele>697.0</ele><time>2026-04-03T17:00:59.682Z</time></trkpt><trkpt lat="42.1280555" lon="13.2886528"><ele>697.0</ele><time>2026-04-03T17:01:00.682Z</time></trkpt><trkpt lat="42.1279797" lon="13.288945"><ele>697.0</ele><time>2026-04-03T17:01:01.682Z</time></trkpt><trkpt lat="42.1279253" lon="13.289266"><ele>697.0</ele><time>2026-04-03T17:01:02.683Z</time></trkpt><trkpt lat="42.1278939" lon="13.2896065"><ele>698.0</ele><time>2026-04-03T17:01:03.683Z</time></trkpt><trkpt lat="42.1278722" lon="13.2899687"><ele>699.0</ele><time>2026-04-03T17:01:04.682Z</time></trkpt><trkpt lat="42.1278456" lon="13.2903411"><ele>699.0</ele><time>2026-04-03T17:01:05.683Z</time></trkpt><trkpt lat="42.1278157" lon="13.2907291"><ele>699.0</ele><time>2026-04-03T17:01:06.683Z</time></trkpt><trkpt lat="42.1277882" lon="13.2911148"><ele>699.0</ele><time>2026-04-03T17:01:07.682Z</time></trkpt><trkpt lat="42.1277597" lon="13.2914845"><ele>699.0</ele><time>2026-04-03T17:01:08.683Z</time></trkpt><trkpt lat="42.1277161" lon="13.2918308"><ele>699.0</ele><time>2026-04-03T17:01:09.683Z</time></trkpt><trkpt lat="42.1276398" lon="13.2921422"><ele>699.0</ele><time>2026-04-03T17:01:10.683Z</time></trkpt><trkpt lat="42.1275445" lon="13.2924363"><ele>697.5</ele><time>2026-04-03T17:01:11.682Z</time></trkpt><trkpt lat="42.127402" lon="13.2927303"><ele>696.0</ele><time>2026-04-03T17:01:12.683Z</time></trkpt><trkpt lat="42.1272459" lon="13.2930206"><ele>697.0</ele><time>2026-04-03T17:01:13.683Z</time></trkpt><trkpt lat="42.1270661" lon="13.2933167"><ele>698.0</ele><time>2026-04-03T17:01:14.682Z</time></trkpt><trkpt lat="42.1268654" lon="13.2936015"><ele>698.0</ele><time>2026-04-03T17:01:15.683Z</time></trkpt><trkpt lat="42.1266455" lon="13.293881"><ele>698.0</ele><time>2026-04-03T17:01:16.683Z</time></trkpt><trkpt lat="42.1264118" lon="13.2941673"><ele>698.0</ele><time>2026-04-03T17:01:17.682Z</time></trkpt><trkpt lat="42.1261794" lon="13.2944651"><ele>698.0</ele><time>2026-04-03T17:01:18.683Z</time></trkpt><trkpt lat="42.1259447" lon="13.2947598"><ele>696.0</ele><time>2026-04-03T17:01:19.682Z</time></trkpt><trkpt lat="42.1257072" lon="13.2950531"><ele>694.0</ele><time>2026-04-03T17:01:20.682Z</time></trkpt><trkpt lat="42.1254759" lon="13.2953512"><ele>696.5</ele><time>2026-04-03T17:01:21.682Z</time></trkpt><trkpt lat="42.1252694" lon="13.2956155"><ele>699.0</ele><time>2026-04-03T17:01:22.683Z</time></trkpt><trkpt lat="42.1251022" lon="13.295821"><ele>699.0</ele><time>2026-04-03T17:01:23.683Z</time></trkpt><trkpt lat="42.1249607" lon="13.2959925"><ele>699.0</ele><time>2026-04-03T17:01:24.683Z</time></trkpt><trkpt lat="42.1248308" lon="13.296154"><ele>699.0</ele><time>2026-04-03T17:01:25.682Z</time></trkpt><trkpt lat="42.1247133" lon="13.2963063"><ele>698.6666666666666</ele><time>2026-04-03T17:01:26.683Z</time></trkpt><trkpt lat="42.1245992" lon="13.2964561"><ele>698.3333333333333</ele><time>2026-04-03T17:01:27.683Z</time></trkpt><trkpt lat="42.124487" lon="13.296594"><ele>698.0</ele><time>2026-04-03T17:01:28.682Z</time></trkpt><trkpt lat="42.1243762" lon="13.2967261"><ele>698.0</ele><time>2026-04-03T17:01:29.682Z</time></trkpt><trkpt lat="42.1242709" lon="13.2968546"><ele>698.0</ele><time>2026-04-03T17:01:30.683Z</time></trkpt><trkpt lat="42.1241645" lon="13.2969862"><ele>698.0</ele><time>2026-04-03T17:01:31.683Z</time></trkpt><trkpt lat="42.1240481" lon="13.297139"><ele>698.0</ele><time>2026-04-03T17:01:32.683Z</time></trkpt><trkpt lat="42.1239099" lon="13.2973025"><ele>698.0</ele><time>2026-04-03T17:01:33.682Z</time></trkpt><trkpt lat="42.1237581" lon="13.297501"><ele>698.0</ele><time>2026-04-03T17:01:34.682Z</time></trkpt><trkpt lat="42.123586" lon="13.2977132"><ele>698.0</ele><time>2026-04-03T17:01:35.683Z</time></trkpt><trkpt lat="42.1233982" lon="13.2979463"><ele>697.5</ele><time>2026-04-03T17:01:36.682Z</time></trkpt><trkpt lat="42.1231922" lon="13.2981978"><ele>697.0</ele><time>2026-04-03T17:01:37.682Z</time></trkpt><trkpt lat="42.1229754" lon="13.2984753"><ele>697.0</ele><time>2026-04-03T17:01:38.683Z</time></trkpt><trkpt lat="42.1227391" lon="13.2987694"><ele>697.0</ele><time>2026-04-03T17:01:39.682Z</time></trkpt><trkpt lat="42.1224874" lon="13.2990811"><ele>696.5</ele><time>2026-04-03T17:01:40.683Z</time></trkpt><trkpt lat="42.1222325" lon="13.2994065"><ele>696.0</ele><time>2026-04-03T17:01:41.682Z</time></trkpt><trkpt lat="42.1219822" lon="13.2997254"><ele>700.0</ele><time>2026-04-03T17:01:42.682Z</time></trkpt><trkpt lat="42.1217569" lon="13.2999937"><ele>704.0</ele><time>2026-04-03T17:01:43.682Z</time></trkpt><trkpt lat="42.1215721" lon="13.3002305"><ele>704.0</ele><time>2026-04-03T17:01:44.682Z</time></trkpt><trkpt lat="42.1214076" lon="13.3004376"><ele>704.0</ele><time>2026-04-03T17:01:45.683Z</time></trkpt><trkpt lat="42.1212349" lon="13.3006361"><ele>704.0</ele><time>2026-04-03T17:01:46.683Z</time></trkpt><trkpt lat="42.121058" lon="13.3008223"><ele>704.0</ele><time>2026-04-03T17:01:47.683Z</time></trkpt><trkpt lat="42.1208594" lon="13.3009815"><ele>700.5</ele><time>2026-04-03T17:01:48.683Z</time></trkpt><trkpt lat="42.1206342" lon="13.3011344"><ele>697.0</ele><time>2026-04-03T17:01:49.682Z</time></trkpt><trkpt lat="42.1204047" lon="13.3012848"><ele>701.6666666666667</ele><time>2026-04-03T17:01:50.683Z</time></trkpt><trkpt lat="42.1201942" lon="13.3014172"><ele>706.3333333333334</ele><time>2026-04-03T17:01:51.683Z</time></trkpt><trkpt lat="42.1200072" lon="13.3015079"><ele>711.0</ele><time>2026-04-03T17:01:52.683Z</time></trkpt><trkpt lat="42.1198253" lon="13.3015515"><ele>711.0</ele><time>2026-04-03T17:01:53.681Z</time></trkpt><trkpt lat="42.1196331" lon="13.3015227"><ele>711.0</ele><time>2026-04-03T17:01:54.682Z</time></trkpt><trkpt lat="42.1194369" lon="13.3014455"><ele>711.0</ele><time>2026-04-03T17:01:55.681Z</time></trkpt><trkpt lat="42.119237" lon="13.3013443"><ele>708.0</ele><time>2026-04-03T17:01:56.681Z</time></trkpt><trkpt lat="42.1190397" lon="13.3012516"><ele>705.0</ele><time>2026-04-03T17:01:57.682Z</time></trkpt><trkpt lat="42.1188201" lon="13.301212"><ele>702.0</ele><time>2026-04-03T17:01:58.682Z</time></trkpt><trkpt lat="42.118575" lon="13.3011847"><ele>702.0</ele><time>2026-04-03T17:01:59.682Z</time></trkpt><trkpt lat="42.1183169" lon="13.3011705"><ele>702.0</ele><time>2026-04-03T17:02:00.682Z</time></trkpt><trkpt lat="42.1180802" lon="13.3011505"><ele>701.3333333333334</ele><time>2026-04-03T17:02:01.682Z</time></trkpt><trkpt lat="42.1178709" lon="13.3011571"><ele>700.6666666666667</ele><time>2026-04-03T17:02:02.681Z</time></trkpt><trkpt lat="42.1176623" lon="13.3012029"><ele>700.0</ele><time>2026-04-03T17:02:03.682Z</time></trkpt><trkpt lat="42.1174521" lon="13.3013111"><ele>701.0</ele><time>2026-04-03T17:02:04.682Z</time></trkpt><trkpt lat="42.1172347" lon="13.30147"><ele>702.0</ele><time>2026-04-03T17:02:05.682Z</time></trkpt><trkpt lat="42.1170197" lon="13.3016455"><ele>702.0</ele><time>2026-04-03T17:02:06.681Z</time></trkpt><trkpt lat="42.1166929" lon="13.3019715"><ele>702.0</ele><time>2026-04-03T17:02:08.49Z</time></trkpt><trkpt lat="42.116492" lon="13.3022613"><ele>701.3333333333334</ele><time>2026-04-03T17:02:09.681Z</time></trkpt><trkpt lat="42.1163752" lon="13.3024777"><ele>700.6666666666667</ele><time>2026-04-03T17:02:10.681Z</time></trkpt><trkpt lat="42.1162616" lon="13.3027614"><ele>700.0</ele><time>2026-04-03T17:02:11.681Z</time></trkpt><trkpt lat="42.1161806" lon="13.303068"><ele>700.0</ele><time>2026-04-03T17:02:12.682Z</time></trkpt><trkpt lat="42.1161265" lon="13.3034121"><ele>700.0</ele><time>2026-04-03T17:02:13.681Z</time></trkpt><trkpt lat="42.1160931" lon="13.3037834"><ele>700.0</ele><time>2026-04-03T17:02:14.682Z</time></trkpt><trkpt lat="42.1160685" lon="13.3041551"><ele>700.0</ele><time>2026-04-03T17:02:15.682Z</time></trkpt><trkpt lat="42.1160243" lon="13.3044888"><ele>703.0</ele><time>2026-04-03T17:02:16.682Z</time></trkpt><trkpt lat="42.1159385" lon="13.3047997"><ele>706.0</ele><time>2026-04-03T17:02:17.682Z</time></trkpt><trkpt lat="42.1158248" lon="13.3050926"><ele>702.0</ele><time>2026-04-03T17:02:18.681Z</time></trkpt><trkpt lat="42.1156698" lon="13.3054131"><ele>698.0</ele><time>2026-04-03T17:02:19.682Z</time></trkpt><trkpt lat="42.1154908" lon="13.3057518"><ele>698.0</ele><time>2026-04-03T17:02:20.682Z</time></trkpt><trkpt lat="42.1153049" lon="13.3060988"><ele>698.0</ele><time>2026-04-03T17:02:21.682Z</time></trkpt><trkpt lat="42.1151126" lon="13.3064321"><ele>697.0</ele><time>2026-04-03T17:02:22.682Z</time></trkpt><trkpt lat="42.1149191" lon="13.306743"><ele>696.0</ele><time>2026-04-03T17:02:23.682Z</time></trkpt><trkpt lat="42.1147226" lon="13.3070474"><ele>697.5</ele><time>2026-04-03T17:02:24.681Z</time></trkpt><trkpt lat="42.1145258" lon="13.3073446"><ele>699.0</ele><time>2026-04-03T17:02:25.682Z</time></trkpt><trkpt lat="42.1143362" lon="13.3076318"><ele>699.0</ele><time>2026-04-03T17:02:26.681Z</time></trkpt><trkpt lat="42.1141521" lon="13.307909"><ele>699.0</ele><time>2026-04-03T17:02:27.682Z</time></trkpt><trkpt lat="42.1139735" lon="13.3081775"><ele>697.5</ele><time>2026-04-03T17:02:28.682Z</time></trkpt><trkpt lat="42.1138019" lon="13.3084403"><ele>696.0</ele><time>2026-04-03T17:02:29.682Z</time></trkpt><trkpt lat="42.1136305" lon="13.3086977"><ele>699.5</ele><time>2026-04-03T17:02:30.681Z</time></trkpt><trkpt lat="42.1134613" lon="13.3089532"><ele>703.0</ele><time>2026-04-03T17:02:31.681Z</time></trkpt><trkpt lat="42.1132996" lon="13.3092092"><ele>699.5</ele><time>2026-04-03T17:02:32.681Z</time></trkpt><trkpt lat="42.1131364" lon="13.3094718"><ele>696.0</ele><time>2026-04-03T17:02:33.681Z</time></trkpt><trkpt lat="42.1129703" lon="13.3097147"><ele>697.5</ele><time>2026-04-03T17:02:34.681Z</time></trkpt><trkpt lat="42.1127984" lon="13.3099186"><ele>699.0</ele><time>2026-04-03T17:02:35.681Z</time></trkpt><trkpt lat="42.1126045" lon="13.310084"><ele>698.0</ele><time>2026-04-03T17:02:36.682Z</time></trkpt><trkpt lat="42.1123981" lon="13.3102327"><ele>697.0</ele><time>2026-04-03T17:02:37.682Z</time></trkpt><trkpt lat="42.1121951" lon="13.3103943"><ele>699.0</ele><time>2026-04-03T17:02:38.682Z</time></trkpt><trkpt lat="42.1120065" lon="13.3105947"><ele>701.0</ele><time>2026-04-03T17:02:39.681Z</time></trkpt><trkpt lat="42.1118265" lon="13.3108284"><ele>701.0</ele><time>2026-04-03T17:02:40.682Z</time></trkpt><trkpt lat="42.1116533" lon="13.3110843"><ele>701.0</ele><time>2026-04-03T17:02:41.681Z</time></trkpt><trkpt lat="42.1114834" lon="13.3113443"><ele>699.5</ele><time>2026-04-03T17:02:42.681Z</time></trkpt><trkpt lat="42.1113089" lon="13.3116166"><ele>698.0</ele><time>2026-04-03T17:02:43.681Z</time></trkpt><trkpt lat="42.1111374" lon="13.3118799"><ele>698.0</ele><time>2026-04-03T17:02:44.681Z</time></trkpt><trkpt lat="42.1109778" lon="13.3121302"><ele>698.0</ele><time>2026-04-03T17:02:45.681Z</time></trkpt><trkpt lat="42.1108277" lon="13.3123695"><ele>697.0</ele><time>2026-04-03T17:02:46.681Z</time></trkpt><trkpt lat="42.1106811" lon="13.3126148"><ele>696.0</ele><time>2026-04-03T17:02:47.682Z</time></trkpt><trkpt lat="42.1105391" lon="13.3128929"><ele>696.5</ele><time>2026-04-03T17:02:48.682Z</time></trkpt><trkpt lat="42.1104041" lon="13.3132097"><ele>697.0</ele><time>2026-04-03T17:02:49.681Z</time></trkpt><trkpt lat="42.1102733" lon="13.3135512"><ele>697.0</ele><time>2026-04-03T17:02:50.682Z</time></trkpt><trkpt lat="42.1101443" lon="13.3138837"><ele>697.0</ele><time>2026-04-03T17:02:51.682Z</time></trkpt><trkpt lat="42.1100072" lon="13.3142053"><ele>697.0</ele><time>2026-04-03T17:02:52.681Z</time></trkpt><trkpt lat="42.1098763" lon="13.314508"><ele>697.0</ele><time>2026-04-03T17:02:53.681Z</time></trkpt><trkpt lat="42.1097472" lon="13.3148148"><ele>697.0</ele><time>2026-04-03T17:02:54.682Z</time></trkpt><trkpt lat="42.1096182" lon="13.3151216"><ele>697.0</ele><time>2026-04-03T17:02:55.681Z</time></trkpt><trkpt lat="42.1094938" lon="13.3154373"><ele>698.5</ele><time>2026-04-03T17:02:56.681Z</time></trkpt><trkpt lat="42.1093749" lon="13.3157495"><ele>700.0</ele><time>2026-04-03T17:02:57.681Z</time></trkpt><trkpt lat="42.109263" lon="13.3160578"><ele>700.0</ele><time>2026-04-03T17:02:58.681Z</time></trkpt><trkpt lat="42.1091608" lon="13.3163665"><ele>700.0</ele><time>2026-04-03T17:02:59.681Z</time></trkpt><trkpt lat="42.1090816" lon="13.3166959"><ele>698.5</ele><time>2026-04-03T17:03:00.682Z</time></trkpt><trkpt lat="42.1090292" lon="13.3170483"><ele>697.0</ele><time>2026-04-03T17:03:01.681Z</time></trkpt><trkpt lat="42.1089878" lon="13.3174187"><ele>696.5</ele><time>2026-04-03T17:03:02.682Z</time></trkpt><trkpt lat="42.1089554" lon="13.3177975"><ele>696.0</ele><time>2026-04-03T17:03:03.682Z</time></trkpt><trkpt lat="42.1089207" lon="13.3181692"><ele>696.0</ele><time>2026-04-03T17:03:04.682Z</time></trkpt><trkpt lat="42.1088858" lon="13.3185254"><ele>696.0</ele><time>2026-04-03T17:03:05.682Z</time></trkpt><trkpt lat="42.10885" lon="13.3188783"><ele>697.0</ele><time>2026-04-03T17:03:06.681Z</time></trkpt><trkpt lat="42.1088119" lon="13.319234"><ele>698.0</ele><time>2026-04-03T17:03:07.681Z</time></trkpt><trkpt lat="42.108759" lon="13.3195955"><ele>698.0</ele><time>2026-04-03T17:03:08.682Z</time></trkpt><trkpt lat="42.1086802" lon="13.3199582"><ele>698.0</ele><time>2026-04-03T17:03:09.682Z</time></trkpt><trkpt lat="42.1085828" lon="13.3203259"><ele>698.0</ele><time>2026-04-03T17:03:10.682Z</time></trkpt><trkpt lat="42.1084676" lon="13.3206757"><ele>698.0</ele><time>2026-04-03T17:03:11.682Z</time></trkpt><trkpt lat="42.1083538" lon="13.3209956"><ele>697.5</ele><time>2026-04-03T17:03:12.681Z</time></trkpt><trkpt lat="42.1082359" lon="13.3213191"><ele>697.0</ele><time>2026-04-03T17:03:13.682Z</time></trkpt><trkpt lat="42.1081251" lon="13.3216463"><ele>697.0</ele><time>2026-04-03T17:03:14.682Z</time></trkpt><trkpt lat="42.1080285" lon="13.3219766"><ele>697.0</ele><time>2026-04-03T17:03:15.682Z</time></trkpt><trkpt lat="42.107951" lon="13.3223299"><ele>697.0</ele><time>2026-04-03T17:03:16.682Z</time></trkpt><trkpt lat="42.1078879" lon="13.3227006"><ele>697.0</ele><time>2026-04-03T17:03:17.681Z</time></trkpt><trkpt lat="42.1078293" lon="13.3230928"><ele>697.5</ele><time>2026-04-03T17:03:18.682Z</time></trkpt><trkpt lat="42.1077663" lon="13.3234802"><ele>698.0</ele><time>2026-04-03T17:03:19.682Z</time></trkpt><trkpt lat="42.1077116" lon="13.3238439"><ele>698.5</ele><time>2026-04-03T17:03:20.681Z</time></trkpt><trkpt lat="42.1076534" lon="13.324185"><ele>699.0</ele><time>2026-04-03T17:03:21.682Z</time></trkpt><trkpt lat="42.1076057" lon="13.3245297"><ele>699.5</ele><time>2026-04-03T17:03:22.682Z</time></trkpt><trkpt lat="42.1075697" lon="13.3248814"><ele>700.0</ele><time>2026-04-03T17:03:23.681Z</time></trkpt><trkpt lat="42.1075472" lon="13.3252441"><ele>699.5</ele><time>2026-04-03T17:03:24.681Z</time></trkpt><trkpt lat="42.1075376" lon="13.3256116"><ele>699.0</ele><time>2026-04-03T17:03:25.682Z</time></trkpt><trkpt lat="42.1075307" lon="13.3259644"><ele>699.0</ele><time>2026-04-03T17:03:26.681Z</time></trkpt><trkpt lat="42.1075022" lon="13.3262912"><ele>699.0</ele><time>2026-04-03T17:03:27.681Z</time></trkpt><trkpt lat="42.1074382" lon="13.3265832"><ele>697.5</ele><time>2026-04-03T17:03:28.681Z</time></trkpt><trkpt lat="42.1073362" lon="13.3268707"><ele>696.0</ele><time>2026-04-03T17:03:29.682Z</time></trkpt><trkpt lat="42.1072063" lon="13.3271684"><ele>697.0</ele><time>2026-04-03T17:03:30.682Z</time></trkpt><trkpt lat="42.1070888" lon="13.3274883"><ele>698.0</ele><time>2026-04-03T17:03:31.681Z</time></trkpt><trkpt lat="42.1069866" lon="13.3278432"><ele>699.5</ele><time>2026-04-03T17:03:32.682Z</time></trkpt><trkpt lat="42.1068898" lon="13.3282065"><ele>701.0</ele><time>2026-04-03T17:03:33.682Z</time></trkpt><trkpt lat="42.1067967" lon="13.3285314"><ele>701.0</ele><time>2026-04-03T17:03:34.681Z</time></trkpt><trkpt lat="42.1067065" lon="13.3288091"><ele>701.0</ele><time>2026-04-03T17:03:35.682Z</time></trkpt><trkpt lat="42.1066075" lon="13.3290328"><ele>701.0</ele><time>2026-04-03T17:03:36.682Z</time></trkpt><trkpt lat="42.1064855" lon="13.3292291"><ele>698.5</ele><time>2026-04-03T17:03:37.681Z</time></trkpt><trkpt lat="42.1063214" lon="13.329428"><ele>696.0</ele><time>2026-04-03T17:03:38.682Z</time></trkpt><trkpt lat="42.1061267" lon="13.3296331"><ele>697.0</ele><time>2026-04-03T17:03:39.682Z</time></trkpt><trkpt lat="42.1059146" lon="13.3298648"><ele>698.0</ele><time>2026-04-03T17:03:40.682Z</time></trkpt><trkpt lat="42.1057155" lon="13.3301046"><ele>698.0</ele><time>2026-04-03T17:03:41.682Z</time></trkpt><trkpt lat="42.1055368" lon="13.3303364"><ele>698.0</ele><time>2026-04-03T17:03:42.682Z</time></trkpt><trkpt lat="42.1053773" lon="13.3305845"><ele>699.5</ele><time>2026-04-03T17:03:43.682Z</time></trkpt><trkpt lat="42.1052331" lon="13.3308537"><ele>701.0</ele><time>2026-04-03T17:03:44.682Z</time></trkpt><trkpt lat="42.1050987" lon="13.3311552"><ele>702.5</ele><time>2026-04-03T17:03:45.682Z</time></trkpt><trkpt lat="42.104984" lon="13.3315049"><ele>704.0</ele><time>2026-04-03T17:03:46.681Z</time></trkpt><trkpt lat="42.1048813" lon="13.3318855"><ele>700.0</ele><time>2026-04-03T17:03:47.682Z</time></trkpt><trkpt lat="42.1047785" lon="13.3322409"><ele>696.0</ele><time>2026-04-03T17:03:48.681Z</time></trkpt><trkpt lat="42.1046569" lon="13.3325829"><ele>696.0</ele><time>2026-04-03T17:03:49.682Z</time></trkpt><trkpt lat="42.1045107" lon="13.3329098"><ele>696.0</ele><time>2026-04-03T17:03:50.681Z</time></trkpt><trkpt lat="42.1043377" lon="13.333211"><ele>697.0</ele><time>2026-04-03T17:03:51.682Z</time></trkpt><trkpt lat="42.1041333" lon="13.3335065"><ele>698.0</ele><time>2026-04-03T17:03:52.682Z</time></trkpt><trkpt lat="42.1039093" lon="13.3337905"><ele>699.0</ele><time>2026-04-03T17:03:53.681Z</time></trkpt><trkpt lat="42.1036671" lon="13.3340736"><ele>700.0</ele><time>2026-04-03T17:03:54.682Z</time></trkpt><trkpt lat="42.1034264" lon="13.334364"><ele>698.0</ele><time>2026-04-03T17:03:55.681Z</time></trkpt><trkpt lat="42.1031991" lon="13.3346399"><ele>696.0</ele><time>2026-04-03T17:03:56.682Z</time></trkpt><trkpt lat="42.1029852" lon="13.3348962"><ele>696.0</ele><time>2026-04-03T17:03:57.682Z</time></trkpt><trkpt lat="42.1027692" lon="13.3351496"><ele>696.0</ele><time>2026-04-03T17:03:58.682Z</time></trkpt><trkpt lat="42.1025575" lon="13.3354085"><ele>697.5</ele><time>2026-04-03T17:03:59.682Z</time></trkpt><trkpt lat="42.1023433" lon="13.3356679"><ele>699.0</ele><time>2026-04-03T17:04:00.682Z</time></trkpt><trkpt lat="42.1021285" lon="13.3359307"><ele>699.0</ele><time>2026-04-03T17:04:01.682Z</time></trkpt><trkpt lat="42.1019121" lon="13.3361951"><ele>699.0</ele><time>2026-04-03T17:04:02.682Z</time></trkpt><trkpt lat="42.1017002" lon="13.3364654"><ele>697.5</ele><time>2026-04-03T17:04:03.682Z</time></trkpt><trkpt lat="42.101486" lon="13.3367296"><ele>696.0</ele><time>2026-04-03T17:04:04.681Z</time></trkpt><trkpt lat="42.1012708" lon="13.3369956"><ele>700.5</ele><time>2026-04-03T17:04:05.682Z</time></trkpt><trkpt lat="42.1010578" lon="13.3372593"><ele>705.0</ele><time>2026-04-03T17:04:06.681Z</time></trkpt><trkpt lat="42.1008482" lon="13.3375151"><ele>702.0</ele><time>2026-04-03T17:04:07.681Z</time></trkpt><trkpt lat="42.1006649" lon="13.3377737"><ele>699.0</ele><time>2026-04-03T17:04:08.682Z</time></trkpt><trkpt lat="42.1004916" lon="13.3380545"><ele>699.0</ele><time>2026-04-03T17:04:09.682Z</time></trkpt><trkpt lat="42.100335" lon="13.3383684"><ele>699.0</ele><time>2026-04-03T17:04:10.682Z</time></trkpt><trkpt lat="42.1001833" lon="13.3387008"><ele>697.0</ele><time>2026-04-03T17:04:11.682Z</time></trkpt><trkpt lat="42.1000279" lon="13.3390413"><ele>695.0</ele><time>2026-04-03T17:04:12.681Z</time></trkpt><trkpt lat="42.0998696" lon="13.3393903"><ele>698.0</ele><time>2026-04-03T17:04:13.681Z</time></trkpt><trkpt lat="42.0997108" lon="13.3397357"><ele>701.0</ele><time>2026-04-03T17:04:14.681Z</time></trkpt><trkpt lat="42.0995634" lon="13.3400697"><ele>701.0</ele><time>2026-04-03T17:04:15.682Z</time></trkpt><trkpt lat="42.0994301" lon="13.3403894"><ele>701.0</ele><time>2026-04-03T17:04:16.682Z</time></trkpt><trkpt lat="42.0993049" lon="13.3407109"><ele>704.5</ele><time>2026-04-03T17:04:17.681Z</time></trkpt><trkpt lat="42.099194" lon="13.3410425"><ele>708.0</ele><time>2026-04-03T17:04:18.681Z</time></trkpt><trkpt lat="42.0991062" lon="13.3413927"><ele>705.0</ele><time>2026-04-03T17:04:19.682Z</time></trkpt><trkpt lat="42.0990507" lon="13.3417649"><ele>702.0</ele><time>2026-04-03T17:04:20.682Z</time></trkpt><trkpt lat="42.0990174" lon="13.3421538"><ele>702.0</ele><time>2026-04-03T17:04:21.682Z</time></trkpt><trkpt lat="42.0989899" lon="13.3425405"><ele>702.0</ele><time>2026-04-03T17:04:22.682Z</time></trkpt><trkpt lat="42.0989706" lon="13.342905"><ele>700.0</ele><time>2026-04-03T17:04:23.681Z</time></trkpt><trkpt lat="42.0989423" lon="13.3432391"><ele>698.0</ele><time>2026-04-03T17:04:24.681Z</time></trkpt><trkpt lat="42.0988999" lon="13.3435559"><ele>698.0</ele><time>2026-04-03T17:04:25.682Z</time></trkpt><trkpt lat="42.0988234" lon="13.3438745"><ele>698.0</ele><time>2026-04-03T17:04:26.682Z</time></trkpt><trkpt lat="42.0987121" lon="13.3442088"><ele>699.5</ele><time>2026-04-03T17:04:27.681Z</time></trkpt><trkpt lat="42.0985949" lon="13.3445527"><ele>701.0</ele><time>2026-04-03T17:04:28.682Z</time></trkpt><trkpt lat="42.0984682" lon="13.3449035"><ele>702.5</ele><time>2026-04-03T17:04:29.682Z</time></trkpt><trkpt lat="42.0983375" lon="13.3452622"><ele>704.0</ele><time>2026-04-03T17:04:30.681Z</time></trkpt><trkpt lat="42.0982057" lon="13.3456254"><ele>704.0</ele><time>2026-04-03T17:04:31.681Z</time></trkpt><trkpt lat="42.0980726" lon="13.3459925"><ele>704.0</ele><time>2026-04-03T17:04:32.682Z</time></trkpt><trkpt lat="42.0979436" lon="13.3463618"><ele>704.5</ele><time>2026-04-03T17:04:33.682Z</time></trkpt><trkpt lat="42.0978141" lon="13.3467275"><ele>705.0</ele><time>2026-04-03T17:04:34.681Z</time></trkpt><trkpt lat="42.0976867" lon="13.3470953"><ele>704.5</ele><time>2026-04-03T17:04:35.681Z</time></trkpt><trkpt lat="42.0975616" lon="13.3474598"><ele>704.0</ele><time>2026-04-03T17:04:36.681Z</time></trkpt><trkpt lat="42.097432" lon="13.3478205"><ele>703.0</ele><time>2026-04-03T17:04:37.681Z</time></trkpt><trkpt lat="42.0973049" lon="13.3481831"><ele>702.0</ele><time>2026-04-03T17:04:38.681Z</time></trkpt><trkpt lat="42.0971739" lon="13.3485468"><ele>701.5</ele><time>2026-04-03T17:04:39.682Z</time></trkpt><trkpt lat="42.0970415" lon="13.3489136"><ele>701.0</ele><time>2026-04-03T17:04:40.682Z</time></trkpt><trkpt lat="42.0969116" lon="13.3492824"><ele>701.0</ele><time>2026-04-03T17:04:41.682Z</time></trkpt><trkpt lat="42.0967783" lon="13.349652"><ele>701.0</ele><time>2026-04-03T17:04:42.682Z</time></trkpt><trkpt lat="42.0966454" lon="13.350014"><ele>700.0</ele><time>2026-04-03T17:04:43.682Z</time></trkpt><trkpt lat="42.0965183" lon="13.3503684"><ele>699.0</ele><time>2026-04-03T17:04:44.682Z</time></trkpt><trkpt lat="42.0963919" lon="13.3507189"><ele>699.0</ele><time>2026-04-03T17:04:45.681Z</time></trkpt><trkpt lat="42.0962701" lon="13.3510708"><ele>699.0</ele><time>2026-04-03T17:04:46.682Z</time></trkpt><trkpt lat="42.0961386" lon="13.3514259"><ele>699.0</ele><time>2026-04-03T17:04:47.681Z</time></trkpt><trkpt lat="42.0960139" lon="13.3517794"><ele>699.0</ele><time>2026-04-03T17:04:48.682Z</time></trkpt><trkpt lat="42.0958873" lon="13.3521261"><ele>699.0</ele><time>2026-04-03T17:04:49.681Z</time></trkpt><trkpt lat="42.095763" lon="13.3524724"><ele>699.0</ele><time>2026-04-03T17:04:50.681Z</time></trkpt><trkpt lat="42.0956417" lon="13.3528204"><ele>699.5</ele><time>2026-04-03T17:04:51.682Z</time></trkpt><trkpt lat="42.0955195" lon="13.353164"><ele>700.0</ele><time>2026-04-03T17:04:52.681Z</time></trkpt><trkpt lat="42.095392" lon="13.3535091"><ele>700.0</ele><time>2026-04-03T17:04:53.682Z</time></trkpt><trkpt lat="42.0952684" lon="13.3538467"><ele>700.0</ele><time>2026-04-03T17:04:54.682Z</time></trkpt><trkpt lat="42.095156" lon="13.354168"><ele>700.5</ele><time>2026-04-03T17:04:55.681Z</time></trkpt><trkpt lat="42.0950487" lon="13.3544562"><ele>701.0</ele><time>2026-04-03T17:04:56.681Z</time></trkpt><trkpt lat="42.0949499" lon="13.3547205"><ele>700.6666666666666</ele><time>2026-04-03T17:04:57.682Z</time></trkpt><trkpt lat="42.0948534" lon="13.3549848"><ele>700.3333333333334</ele><time>2026-04-03T17:04:58.682Z</time></trkpt><trkpt lat="42.0947562" lon="13.3552524"><ele>700.0</ele><time>2026-04-03T17:04:59.682Z</time></trkpt><trkpt lat="42.0946592" lon="13.3555256"><ele>701.3333333333334</ele><time>2026-04-03T17:05:00.682Z</time></trkpt><trkpt lat="42.0945648" lon="13.3557986"><ele>702.6666666666666</ele><time>2026-04-03T17:05:01.682Z</time></trkpt><trkpt lat="42.0944727" lon="13.3560599"><ele>704.0</ele><time>2026-04-03T17:05:02.682Z</time></trkpt><trkpt lat="42.0943811" lon="13.3563117"><ele>704.0</ele><time>2026-04-03T17:05:03.681Z</time></trkpt><trkpt lat="42.0942843" lon="13.3565601"><ele>704.0</ele><time>2026-04-03T17:05:04.682Z</time></trkpt><trkpt lat="42.0941822" lon="13.3568039"><ele>704.0</ele><time>2026-04-03T17:05:05.682Z</time></trkpt><trkpt lat="42.094073" lon="13.3570463"><ele>705.5</ele><time>2026-04-03T17:05:06.681Z</time></trkpt><trkpt lat="42.093938" lon="13.3572953"><ele>707.0</ele><time>2026-04-03T17:05:07.682Z</time></trkpt><trkpt lat="42.0937855" lon="13.3575548"><ele>707.0</ele><time>2026-04-03T17:05:08.682Z</time></trkpt><trkpt lat="42.0936333" lon="13.3578111"><ele>707.0</ele><time>2026-04-03T17:05:09.681Z</time></trkpt><trkpt lat="42.0934917" lon="13.3580559"><ele>708.0</ele><time>2026-04-03T17:05:10.682Z</time></trkpt><trkpt lat="42.0933525" lon="13.3582908"><ele>709.0</ele><time>2026-04-03T17:05:11.681Z</time></trkpt><trkpt lat="42.0932199" lon="13.358519"><ele>710.0</ele><time>2026-04-03T17:05:12.682Z</time></trkpt><trkpt lat="42.0930919" lon="13.3587515"><ele>710.6666666666666</ele><time>2026-04-03T17:05:13.681Z</time></trkpt><trkpt lat="42.0929768" lon="13.358986"><ele>711.3333333333334</ele><time>2026-04-03T17:05:14.682Z</time></trkpt><trkpt lat="42.0928893" lon="13.3592265"><ele>712.0</ele><time>2026-04-03T17:05:15.682Z</time></trkpt><trkpt lat="42.09283" lon="13.3594623"><ele>712.0</ele><time>2026-04-03T17:05:16.681Z</time></trkpt><trkpt lat="42.0927728" lon="13.359699"><ele>712.0</ele><time>2026-04-03T17:05:17.682Z</time></trkpt><trkpt lat="42.0927223" lon="13.3599326"><ele>712.0</ele><time>2026-04-03T17:05:18.682Z</time></trkpt><trkpt lat="42.09266" lon="13.3601406"><ele>712.75</ele><time>2026-04-03T17:05:19.681Z</time></trkpt><trkpt lat="42.0925963" lon="13.3603323"><ele>713.5</ele><time>2026-04-03T17:05:20.682Z</time></trkpt><trkpt lat="42.092536" lon="13.3605035"><ele>714.25</ele><time>2026-04-03T17:05:21.682Z</time></trkpt><trkpt lat="42.0924844" lon="13.3606534"><ele>715.0</ele><time>2026-04-03T17:05:22.682Z</time></trkpt><trkpt lat="42.0924413" lon="13.3607899"><ele>715.4</ele><time>2026-04-03T17:05:23.682Z</time></trkpt><trkpt lat="42.0924065" lon="13.3609198"><ele>715.8</ele><time>2026-04-03T17:05:24.682Z</time></trkpt><trkpt lat="42.0923794" lon="13.3610247"><ele>716.2</ele><time>2026-04-03T17:05:25.681Z</time></trkpt><trkpt lat="42.0923457" lon="13.3611218"><ele>716.6</ele><time>2026-04-03T17:05:26.682Z</time></trkpt><trkpt lat="42.0923069" lon="13.3612303"><ele>717.0</ele><time>2026-04-03T17:05:27.682Z</time></trkpt><trkpt lat="42.0922699" lon="13.3613844"><ele>717.4000000000001</ele><time>2026-04-03T17:05:28.681Z</time></trkpt><trkpt lat="42.0922286" lon="13.3615486"><ele>717.8000000000001</ele><time>2026-04-03T17:05:29.681Z</time></trkpt><trkpt lat="42.0921914" lon="13.3616933"><ele>718.2</ele><time>2026-04-03T17:05:30.682Z</time></trkpt><trkpt lat="42.0921616" lon="13.3618061"><ele>718.6</ele><time>2026-04-03T17:05:31.681Z</time></trkpt><trkpt lat="42.0921388" lon="13.3618881"><ele>719.0</ele><time>2026-04-03T17:05:32.681Z</time></trkpt><trkpt lat="42.0920703" lon="13.3620021"><ele>719.0</ele><time>2026-04-03T17:05:34.682Z</time></trkpt><trkpt lat="42.09203" lon="13.3621167"><ele>719.0</ele><time>2026-04-03T17:05:36.682Z</time></trkpt><trkpt lat="42.092044" lon="13.3622281"><ele>719.0</ele><time>2026-04-03T17:05:38.682Z</time></trkpt><trkpt lat="42.0921124" lon="13.3622457"><ele>719.0</ele><time>2026-04-03T17:05:41.682Z</time></trkpt><trkpt lat="42.0921245" lon="13.3621448"><ele>719.0</ele><time>2026-04-03T17:05:43.681Z</time></trkpt><trkpt lat="42.0920452" lon="13.3620214"><ele>719.0</ele><time>2026-04-03T17:05:45.682Z</time></trkpt><trkpt lat="42.0919808" lon="13.3619325"><ele>719.0</ele><time>2026-04-03T17:05:46.681Z</time></trkpt><trkpt lat="42.0919314" lon="13.3618229"><ele>719.0</ele><time>2026-04-03T17:05:47.682Z</time></trkpt><trkpt lat="42.0918839" lon="13.3616996"><ele>719.0</ele><time>2026-04-03T17:05:48.682Z</time></trkpt><trkpt lat="42.091839" lon="13.3615473"><ele>719.0</ele><time>2026-04-03T17:05:49.682Z</time></trkpt><trkpt lat="42.0917967" lon="13.3613779"><ele>718.5</ele><time>2026-04-03T17:05:50.681Z</time></trkpt><trkpt lat="42.0917648" lon="13.3612057"><ele>718.0</ele><time>2026-04-03T17:05:51.682Z</time></trkpt><trkpt lat="42.0917331" lon="13.3610412"><ele>717.5</ele><time>2026-04-03T17:05:52.682Z</time></trkpt><trkpt lat="42.0916978" lon="13.3608653"><ele>717.0</ele><time>2026-04-03T17:05:53.681Z</time></trkpt><trkpt lat="42.0916633" lon="13.3606792"><ele>716.75</ele><time>2026-04-03T17:05:54.681Z</time></trkpt><trkpt lat="42.0916306" lon="13.3605079"><ele>716.5</ele><time>2026-04-03T17:05:55.681Z</time></trkpt><trkpt lat="42.0916003" lon="13.3603431"><ele>716.25</ele><time>2026-04-03T17:05:56.682Z</time></trkpt><trkpt lat="42.0915619" lon="13.3601823"><ele>716.0</ele><time>2026-04-03T17:05:57.682Z</time></trkpt><trkpt lat="42.0915334" lon="13.3600219"><ele>716.75</ele><time>2026-04-03T17:05:58.681Z</time></trkpt><trkpt lat="42.0915058" lon="13.3598553"><ele>717.5</ele><time>2026-04-03T17:05:59.681Z</time></trkpt><trkpt lat="42.0914734" lon="13.359673"><ele>718.25</ele><time>2026-04-03T17:06:00.681Z</time></trkpt><trkpt lat="42.0914357" lon="13.3594829"><ele>719.0</ele><time>2026-04-03T17:06:01.682Z</time></trkpt><trkpt lat="42.0914033" lon="13.3592944"><ele>719.0</ele><time>2026-04-03T17:06:02.681Z</time></trkpt><trkpt lat="42.0913685" lon="13.3591244"><ele>719.0</ele><time>2026-04-03T17:06:03.681Z</time></trkpt><trkpt lat="42.091337" lon="13.358974"><ele>719.0</ele><time>2026-04-03T17:06:04.681Z</time></trkpt><trkpt lat="42.0913036" lon="13.3588357"><ele>719.0</ele><time>2026-04-03T17:06:05.682Z</time></trkpt><trkpt lat="42.0912693" lon="13.3587012"><ele>717.0</ele><time>2026-04-03T17:06:06.682Z</time></trkpt><trkpt lat="42.0912306" lon="13.3585636"><ele>715.0</ele><time>2026-04-03T17:06:07.681Z</time></trkpt><trkpt lat="42.0911842" lon="13.3584083"><ele>713.0</ele><time>2026-04-03T17:06:08.681Z</time></trkpt><trkpt lat="42.0911302" lon="13.3582439"><ele>711.0</ele><time>2026-04-03T17:06:09.682Z</time></trkpt><trkpt lat="42.091061" lon="13.3580589"><ele>710.0</ele><time>2026-04-03T17:06:10.682Z</time></trkpt><trkpt lat="42.0909924" lon="13.3578476"><ele>709.0</ele><time>2026-04-03T17:06:11.681Z</time></trkpt><trkpt lat="42.0909164" lon="13.3576249"><ele>708.0</ele><time>2026-04-03T17:06:12.682Z</time></trkpt><trkpt lat="42.0908444" lon="13.3574026"><ele>707.3333333333334</ele><time>2026-04-03T17:06:13.682Z</time></trkpt><trkpt lat="42.0907758" lon="13.3572008"><ele>706.6666666666667</ele><time>2026-04-03T17:06:14.681Z</time></trkpt><trkpt lat="42.0907141" lon="13.3570148"><ele>706.0</ele><time>2026-04-03T17:06:15.681Z</time></trkpt><trkpt lat="42.0906558" lon="13.3568386"><ele>705.4</ele><time>2026-04-03T17:06:16.681Z</time></trkpt><trkpt lat="42.0905995" lon="13.3566848"><ele>704.8</ele><time>2026-04-03T17:06:17.682Z</time></trkpt><trkpt lat="42.0905534" lon="13.3565531"><ele>704.1999999999999</ele><time>2026-04-03T17:06:18.682Z</time></trkpt><trkpt lat="42.0905143" lon="13.3564526"><ele>703.5999999999999</ele><time>2026-04-03T17:06:19.682Z</time></trkpt><trkpt lat="42.0904697" lon="13.3563551"><ele>703.0</ele><time>2026-04-03T17:06:21.681Z</time></trkpt><trkpt lat="42.0903625" lon="13.356347"><ele>703.0</ele><time>2026-04-03T17:06:26.681Z</time></trkpt><trkpt lat="42.090291" lon="13.356382"><ele>703.0</ele><time>2026-04-03T17:06:27.681Z</time></trkpt><trkpt lat="42.0901561" lon="13.3564594"><ele>703.0</ele><time>2026-04-03T17:06:28.682Z</time></trkpt><trkpt lat="42.0900214" lon="13.3565566"><ele>703.0</ele><time>2026-04-03T17:06:29.682Z</time></trkpt><trkpt lat="42.0898727" lon="13.3566571"><ele>702.3333333333334</ele><time>2026-04-03T17:06:30.681Z</time></trkpt><trkpt lat="42.0897025" lon="13.3567535"><ele>701.6666666666666</ele><time>2026-04-03T17:06:31.682Z</time></trkpt><trkpt lat="42.0895209" lon="13.3568448"><ele>701.0</ele><time>2026-04-03T17:06:32.681Z</time></trkpt><trkpt lat="42.089326" lon="13.3569349"><ele>701.0</ele><time>2026-04-03T17:06:33.681Z</time></trkpt><trkpt lat="42.0891421" lon="13.3570281"><ele>701.0</ele><time>2026-04-03T17:06:34.682Z</time></trkpt><trkpt lat="42.088984" lon="13.3571232"><ele>701.0</ele><time>2026-04-03T17:06:35.682Z</time></trkpt><trkpt lat="42.0888477" lon="13.3572191"><ele>700.8</ele><time>2026-04-03T17:06:36.682Z</time></trkpt><trkpt lat="42.0887378" lon="13.3573056"><ele>700.5999999999999</ele><time>2026-04-03T17:06:37.682Z</time></trkpt><trkpt lat="42.0886451" lon="13.3573861"><ele>700.4</ele><time>2026-04-03T17:06:38.682Z</time></trkpt><trkpt lat="42.0885606" lon="13.3574577"><ele>700.2</ele><time>2026-04-03T17:06:39.682Z</time></trkpt><trkpt lat="42.0884822" lon="13.3575181"><ele>700.0</ele><time>2026-04-03T17:06:40.681Z</time></trkpt><trkpt lat="42.0884064" lon="13.3575841"><ele>700.0</ele><time>2026-04-03T17:06:41.682Z</time></trkpt><trkpt lat="42.088325" lon="13.357648"><ele>700.0</ele><time>2026-04-03T17:06:42.682Z</time></trkpt><trkpt lat="42.0882319" lon="13.3577073"><ele>700.0</ele><time>2026-04-03T17:06:43.682Z</time></trkpt><trkpt lat="42.0881418" lon="13.3577487"><ele>700.0</ele><time>2026-04-03T17:06:44.681Z</time></trkpt><trkpt lat="42.0880554" lon="13.3577694"><ele>700.0</ele><time>2026-04-03T17:06:45.682Z</time></trkpt><trkpt lat="42.0879576" lon="13.3577554"><ele>700.25</ele><time>2026-04-03T17:06:46.681Z</time></trkpt><trkpt lat="42.0878464" lon="13.3577134"><ele>700.5</ele><time>2026-04-03T17:06:47.681Z</time></trkpt><trkpt lat="42.087725" lon="13.3576661"><ele>700.75</ele><time>2026-04-03T17:06:48.681Z</time></trkpt><trkpt lat="42.0875754" lon="13.357607"><ele>701.0</ele><time>2026-04-03T17:06:49.681Z</time></trkpt><trkpt lat="42.0874094" lon="13.3575263"><ele>700.3333333333333</ele><time>2026-04-03T17:06:50.682Z</time></trkpt><trkpt lat="42.0872119" lon="13.3574243"><ele>699.6666666666666</ele><time>2026-04-03T17:06:51.682Z</time></trkpt><trkpt lat="42.0870055" lon="13.3573223"><ele>699.0</ele><time>2026-04-03T17:06:52.682Z</time></trkpt><trkpt lat="42.0867925" lon="13.357225"><ele>699.0</ele><time>2026-04-03T17:06:53.682Z</time></trkpt><trkpt lat="42.08657" lon="13.3571248"><ele>699.0</ele><time>2026-04-03T17:06:54.681Z</time></trkpt><trkpt lat="42.0863181" lon="13.3570111"><ele>699.0</ele><time>2026-04-03T17:06:55.682Z</time></trkpt><trkpt lat="42.0860514" lon="13.3568841"><ele>699.0</ele><time>2026-04-03T17:06:56.681Z</time></trkpt><trkpt lat="42.0857969" lon="13.3567609"><ele>697.5</ele><time>2026-04-03T17:06:57.681Z</time></trkpt><trkpt lat="42.0855608" lon="13.3566554"><ele>696.0</ele><time>2026-04-03T17:06:58.681Z</time></trkpt><trkpt lat="42.0853434" lon="13.3565588"><ele>696.0</ele><time>2026-04-03T17:06:59.682Z</time></trkpt><trkpt lat="42.0851364" lon="13.3564968"><ele>696.0</ele><time>2026-04-03T17:07:00.682Z</time></trkpt><trkpt lat="42.0849279" lon="13.3564745"><ele>696.0</ele><time>2026-04-03T17:07:01.681Z</time></trkpt><trkpt lat="42.0847043" lon="13.356496"><ele>696.0</ele><time>2026-04-03T17:07:02.682Z</time></trkpt><trkpt lat="42.0844637" lon="13.3565372"><ele>696.0</ele><time>2026-04-03T17:07:03.681Z</time></trkpt><trkpt lat="42.0842052" lon="13.3565903"><ele>696.0</ele><time>2026-04-03T17:07:04.681Z</time></trkpt><trkpt lat="42.0839599" lon="13.3566466"><ele>696.0</ele><time>2026-04-03T17:07:05.682Z</time></trkpt><trkpt lat="42.0837298" lon="13.3566959"><ele>696.0</ele><time>2026-04-03T17:07:06.682Z</time></trkpt><trkpt lat="42.0835034" lon="13.3567484"><ele>696.0</ele><time>2026-04-03T17:07:07.681Z</time></trkpt><trkpt lat="42.0832786" lon="13.3568011"><ele>696.0</ele><time>2026-04-03T17:07:08.682Z</time></trkpt><trkpt lat="42.0830515" lon="13.3568602"><ele>696.0</ele><time>2026-04-03T17:07:09.682Z</time></trkpt><trkpt lat="42.0828207" lon="13.3569287"><ele>696.0</ele><time>2026-04-03T17:07:10.681Z</time></trkpt><trkpt lat="42.0825766" lon="13.3570088"><ele>696.0</ele><time>2026-04-03T17:07:11.682Z</time></trkpt><trkpt lat="42.0823295" lon="13.3570897"><ele>696.0</ele><time>2026-04-03T17:07:12.681Z</time></trkpt><trkpt lat="42.0820956" lon="13.3571665"><ele>696.0</ele><time>2026-04-03T17:07:13.682Z</time></trkpt><trkpt lat="42.0818882" lon="13.3572265"><ele>696.0</ele><time>2026-04-03T17:07:14.682Z</time></trkpt><trkpt lat="42.0816945" lon="13.3572478"><ele>696.0</ele><time>2026-04-03T17:07:15.682Z</time></trkpt><trkpt lat="42.0814945" lon="13.3572129"><ele>696.0</ele><time>2026-04-03T17:07:16.681Z</time></trkpt><trkpt lat="42.0812883" lon="13.3571354"><ele>696.0</ele><time>2026-04-03T17:07:17.682Z</time></trkpt><trkpt lat="42.0810669" lon="13.3570311"><ele>696.0</ele><time>2026-04-03T17:07:18.682Z</time></trkpt><trkpt lat="42.0808242" lon="13.3569057"><ele>697.0</ele><time>2026-04-03T17:07:19.681Z</time></trkpt><trkpt lat="42.0805677" lon="13.3567749"><ele>698.0</ele><time>2026-04-03T17:07:20.681Z</time></trkpt><trkpt lat="42.0803207" lon="13.3566491"><ele>698.0</ele><time>2026-04-03T17:07:21.682Z</time></trkpt><trkpt lat="42.0800982" lon="13.3565392"><ele>698.0</ele><time>2026-04-03T17:07:22.681Z</time></trkpt><trkpt lat="42.0798752" lon="13.3564645"><ele>698.5</ele><time>2026-04-03T17:07:23.682Z</time></trkpt><trkpt lat="42.0796383" lon="13.3564418"><ele>699.0</ele><time>2026-04-03T17:07:24.682Z</time></trkpt><trkpt lat="42.0793698" lon="13.3564633"><ele>699.0</ele><time>2026-04-03T17:07:25.682Z</time></trkpt><trkpt lat="42.0790851" lon="13.3565049"><ele>699.0</ele><time>2026-04-03T17:07:26.681Z</time></trkpt><trkpt lat="42.0787869" lon="13.3565471"><ele>699.0</ele><time>2026-04-03T17:07:27.682Z</time></trkpt><trkpt lat="42.0784779" lon="13.3565818"><ele>699.0</ele><time>2026-04-03T17:07:28.682Z</time></trkpt><trkpt lat="42.0781618" lon="13.3566284"><ele>700.0</ele><time>2026-04-03T17:07:29.681Z</time></trkpt><trkpt lat="42.0778238" lon="13.3566981"><ele>701.0</ele><time>2026-04-03T17:07:30.682Z</time></trkpt><trkpt lat="42.0774819" lon="13.3567867"><ele>698.5</ele><time>2026-04-03T17:07:31.681Z</time></trkpt><trkpt lat="42.0771465" lon="13.356889"><ele>696.0</ele><time>2026-04-03T17:07:32.682Z</time></trkpt><trkpt lat="42.0768121" lon="13.356993"><ele>696.0</ele><time>2026-04-03T17:07:33.682Z</time></trkpt><trkpt lat="42.0764793" lon="13.3570923"><ele>696.0</ele><time>2026-04-03T17:07:34.681Z</time></trkpt><trkpt lat="42.0761463" lon="13.3571901"><ele>696.0</ele><time>2026-04-03T17:07:35.682Z</time></trkpt><trkpt lat="42.0758196" lon="13.3572875"><ele>696.0</ele><time>2026-04-03T17:07:36.681Z</time></trkpt><trkpt lat="42.0754896" lon="13.3573844"><ele>696.0</ele><time>2026-04-03T17:07:37.681Z</time></trkpt><trkpt lat="42.0751561" lon="13.3574755"><ele>696.0</ele><time>2026-04-03T17:07:38.681Z</time></trkpt><trkpt lat="42.0748258" lon="13.3575689"><ele>696.5</ele><time>2026-04-03T17:07:39.681Z</time></trkpt><trkpt lat="42.0744944" lon="13.3576676"><ele>697.0</ele><time>2026-04-03T17:07:40.682Z</time></trkpt><trkpt lat="42.07417" lon="13.3577678"><ele>696.0</ele><time>2026-04-03T17:07:41.682Z</time></trkpt><trkpt lat="42.0738554" lon="13.3578586"><ele>695.0</ele><time>2026-04-03T17:07:42.681Z</time></trkpt><trkpt lat="42.0735555" lon="13.3579423"><ele>695.0</ele><time>2026-04-03T17:07:43.681Z</time></trkpt><trkpt lat="42.0732742" lon="13.3580248"><ele>695.0</ele><time>2026-04-03T17:07:44.682Z</time></trkpt><trkpt lat="42.0730018" lon="13.3581078"><ele>696.0</ele><time>2026-04-03T17:07:45.681Z</time></trkpt><trkpt lat="42.0727351" lon="13.3581817"><ele>697.0</ele><time>2026-04-03T17:07:46.681Z</time></trkpt><trkpt lat="42.0724824" lon="13.3582526"><ele>698.0</ele><time>2026-04-03T17:07:47.682Z</time></trkpt><trkpt lat="42.0722424" lon="13.3583257"><ele>699.0</ele><time>2026-04-03T17:07:48.682Z</time></trkpt><trkpt lat="42.0720229" lon="13.3583973"><ele>699.0</ele><time>2026-04-03T17:07:49.682Z</time></trkpt><trkpt lat="42.0718234" lon="13.3584557"><ele>699.0</ele><time>2026-04-03T17:07:50.681Z</time></trkpt><trkpt lat="42.071652" lon="13.3585101"><ele>699.0</ele><time>2026-04-03T17:07:51.681Z</time></trkpt><trkpt lat="42.0715073" lon="13.3585561"><ele>699.0</ele><time>2026-04-03T17:07:52.681Z</time></trkpt><trkpt lat="42.0713884" lon="13.3585762"><ele>699.0</ele><time>2026-04-03T17:07:53.681Z</time></trkpt><trkpt lat="42.0712832" lon="13.3585577"><ele>699.0</ele><time>2026-04-03T17:07:54.682Z</time></trkpt><trkpt lat="42.0711839" lon="13.358516"><ele>699.0</ele><time>2026-04-03T17:07:55.681Z</time></trkpt><trkpt lat="42.0711007" lon="13.3584764"><ele>699.0</ele><time>2026-04-03T17:07:56.682Z</time></trkpt><trkpt lat="42.0710381" lon="13.3584581"><ele>699.0</ele><time>2026-04-03T17:07:57.681Z</time></trkpt><trkpt lat="42.0709432" lon="13.3584862"><ele>699.0</ele><time>2026-04-03T17:07:59.681Z</time></trkpt><trkpt lat="42.0708737" lon="13.3586068"><ele>699.0</ele><time>2026-04-03T17:08:07.681Z</time></trkpt><trkpt lat="42.070861" lon="13.3587174"><ele>699.0</ele><time>2026-04-03T17:08:08.682Z</time></trkpt><trkpt lat="42.0708693" lon="13.3588632"><ele>699.0</ele><time>2026-04-03T17:08:09.681Z</time></trkpt><trkpt lat="42.0708761" lon="13.359044"><ele>699.0</ele><time>2026-04-03T17:08:10.682Z</time></trkpt><trkpt lat="42.0708789" lon="13.3592628"><ele>699.0</ele><time>2026-04-03T17:08:11.682Z</time></trkpt><trkpt lat="42.0708467" lon="13.3595264"><ele>699.0</ele><time>2026-04-03T17:08:12.681Z</time></trkpt><trkpt lat="42.0708003" lon="13.3598282"><ele>699.0</ele><time>2026-04-03T17:08:13.682Z</time></trkpt><trkpt lat="42.0707329" lon="13.3601557"><ele>699.0</ele><time>2026-04-03T17:08:14.681Z</time></trkpt><trkpt lat="42.0706671" lon="13.3604932"><ele>698.5</ele><time>2026-04-03T17:08:15.682Z</time></trkpt><trkpt lat="42.0705932" lon="13.3608365"><ele>698.0</ele><time>2026-04-03T17:08:16.682Z</time></trkpt><trkpt lat="42.0705157" lon="13.3611876"><ele>698.5</ele><time>2026-04-03T17:08:17.681Z</time></trkpt><trkpt lat="42.070436" lon="13.3615174"><ele>699.0</ele><time>2026-04-03T17:08:18.682Z</time></trkpt><trkpt lat="42.0703581" lon="13.3618204"><ele>699.0</ele><time>2026-04-03T17:08:19.682Z</time></trkpt><trkpt lat="42.0702857" lon="13.3621317"><ele>699.0</ele><time>2026-04-03T17:08:20.682Z</time></trkpt><trkpt lat="42.0702161" lon="13.3624473"><ele>698.5</ele><time>2026-04-03T17:08:21.681Z</time></trkpt><trkpt lat="42.0701418" lon="13.362765"><ele>698.0</ele><time>2026-04-03T17:08:22.681Z</time></trkpt><trkpt lat="42.0700617" lon="13.3630866"><ele>698.0</ele><time>2026-04-03T17:08:23.681Z</time></trkpt><trkpt lat="42.0699786" lon="13.3633914"><ele>698.0</ele><time>2026-04-03T17:08:24.682Z</time></trkpt><trkpt lat="42.0699038" lon="13.3636945"><ele>698.0</ele><time>2026-04-03T17:08:25.681Z</time></trkpt><trkpt lat="42.069828" lon="13.3639996"><ele>698.0</ele><time>2026-04-03T17:08:26.682Z</time></trkpt><trkpt lat="42.0697567" lon="13.3643173"><ele>698.0</ele><time>2026-04-03T17:08:27.682Z</time></trkpt><trkpt lat="42.0696852" lon="13.3646464"><ele>698.0</ele><time>2026-04-03T17:08:28.681Z</time></trkpt><trkpt lat="42.0696053" lon="13.3649766"><ele>698.0</ele><time>2026-04-03T17:08:29.682Z</time></trkpt><trkpt lat="42.0695223" lon="13.3653119"><ele>698.0</ele><time>2026-04-03T17:08:30.682Z</time></trkpt><trkpt lat="42.069438" lon="13.3656559"><ele>698.5</ele><time>2026-04-03T17:08:31.682Z</time></trkpt><trkpt lat="42.069357" lon="13.3660045"><ele>699.0</ele><time>2026-04-03T17:08:32.682Z</time></trkpt><trkpt lat="42.0692706" lon="13.366358"><ele>699.0</ele><time>2026-04-03T17:08:33.682Z</time></trkpt><trkpt lat="42.0691844" lon="13.3667143"><ele>699.0</ele><time>2026-04-03T17:08:34.682Z</time></trkpt><trkpt lat="42.0690976" lon="13.3670733"><ele>696.5</ele><time>2026-04-03T17:08:35.682Z</time></trkpt><trkpt lat="42.0690126" lon="13.3674339"><ele>694.0</ele><time>2026-04-03T17:08:36.682Z</time></trkpt><trkpt lat="42.0689295" lon="13.3677964"><ele>694.5</ele><time>2026-04-03T17:08:37.681Z</time></trkpt><trkpt lat="42.0688387" lon="13.3681558"><ele>695.0</ele><time>2026-04-03T17:08:38.682Z</time></trkpt><trkpt lat="42.0687501" lon="13.3685169"><ele>696.5</ele><time>2026-04-03T17:08:39.682Z</time></trkpt><trkpt lat="42.0686577" lon="13.3688801"><ele>698.0</ele><time>2026-04-03T17:08:40.682Z</time></trkpt><trkpt lat="42.0685673" lon="13.3692456"><ele>698.0</ele><time>2026-04-03T17:08:41.681Z</time></trkpt><trkpt lat="42.0684765" lon="13.3696152"><ele>698.0</ele><time>2026-04-03T17:08:42.682Z</time></trkpt><trkpt lat="42.0683888" lon="13.3699859"><ele>698.5</ele><time>2026-04-03T17:08:43.682Z</time></trkpt><trkpt lat="42.0682986" lon="13.3703592"><ele>699.0</ele><time>2026-04-03T17:08:44.682Z</time></trkpt><trkpt lat="42.0682151" lon="13.3707311"><ele>699.5</ele><time>2026-04-03T17:08:45.682Z</time></trkpt><trkpt lat="42.0681284" lon="13.3710943"><ele>700.0</ele><time>2026-04-03T17:08:46.682Z</time></trkpt><trkpt lat="42.0680404" lon="13.3714578"><ele>699.0</ele><time>2026-04-03T17:08:47.682Z</time></trkpt><trkpt lat="42.0679511" lon="13.371826"><ele>698.0</ele><time>2026-04-03T17:08:48.681Z</time></trkpt><trkpt lat="42.0678692" lon="13.3721827"><ele>698.5</ele><time>2026-04-03T17:08:49.682Z</time></trkpt><trkpt lat="42.0677927" lon="13.3725185"><ele>699.0</ele><time>2026-04-03T17:08:50.682Z</time></trkpt><trkpt lat="42.0677172" lon="13.372834"><ele>700.3333333333334</ele><time>2026-04-03T17:08:51.682Z</time></trkpt><trkpt lat="42.067647" lon="13.3731332"><ele>701.6666666666667</ele><time>2026-04-03T17:08:52.682Z</time></trkpt><trkpt lat="42.0675825" lon="13.3734052"><ele>703.0</ele><time>2026-04-03T17:08:53.681Z</time></trkpt><trkpt lat="42.067522" lon="13.3736695"><ele>703.0</ele><time>2026-04-03T17:08:54.681Z</time></trkpt><trkpt lat="42.0674636" lon="13.3739124"><ele>703.0</ele><time>2026-04-03T17:08:55.681Z</time></trkpt><trkpt lat="42.06741" lon="13.3741277"><ele>703.0</ele><time>2026-04-03T17:08:56.682Z</time></trkpt><trkpt lat="42.0673644" lon="13.3743196"><ele>703.25</ele><time>2026-04-03T17:08:57.681Z</time></trkpt><trkpt lat="42.0673243" lon="13.3744911"><ele>703.5</ele><time>2026-04-03T17:08:58.681Z</time></trkpt><trkpt lat="42.0672901" lon="13.3746627"><ele>703.75</ele><time>2026-04-03T17:08:59.682Z</time></trkpt><trkpt lat="42.0672484" lon="13.3748395"><ele>704.0</ele><time>2026-04-03T17:09:00.682Z</time></trkpt><trkpt lat="42.0672025" lon="13.3750089"><ele>704.25</ele><time>2026-04-03T17:09:01.681Z</time></trkpt><trkpt lat="42.0671627" lon="13.375183"><ele>704.5</ele><time>2026-04-03T17:09:02.681Z</time></trkpt><trkpt lat="42.0671188" lon="13.3753637"><ele>704.75</ele><time>2026-04-03T17:09:03.682Z</time></trkpt><trkpt lat="42.0670693" lon="13.3755451"><ele>705.0</ele><time>2026-04-03T17:09:04.682Z</time></trkpt><trkpt lat="42.0670194" lon="13.3757513"><ele>705.3333333333334</ele><time>2026-04-03T17:09:05.682Z</time></trkpt><trkpt lat="42.0669706" lon="13.3759726"><ele>705.6666666666667</ele><time>2026-04-03T17:09:06.682Z</time></trkpt><trkpt lat="42.0669215" lon="13.3761989"><ele>706.0</ele><time>2026-04-03T17:09:07.682Z</time></trkpt><trkpt lat="42.0668694" lon="13.3764287"><ele>706.3333333333334</ele><time>2026-04-03T17:09:08.682Z</time></trkpt><trkpt lat="42.0668196" lon="13.3766629"><ele>706.6666666666666</ele><time>2026-04-03T17:09:09.682Z</time></trkpt><trkpt lat="42.0667676" lon="13.3768871"><ele>707.0</ele><time>2026-04-03T17:09:10.682Z</time></trkpt><trkpt lat="42.0667187" lon="13.3771046"><ele>707.0</ele><time>2026-04-03T17:09:11.682Z</time></trkpt><trkpt lat="42.0666662" lon="13.3773324"><ele>707.0</ele><time>2026-04-03T17:09:12.681Z</time></trkpt><trkpt lat="42.0666128" lon="13.3775664"><ele>707.0</ele><time>2026-04-03T17:09:13.682Z</time></trkpt><trkpt lat="42.0665545" lon="13.3777986"><ele>707.3333333333333</ele><time>2026-04-03T17:09:14.681Z</time></trkpt><trkpt lat="42.0665009" lon="13.3780203"><ele>707.6666666666666</ele><time>2026-04-03T17:09:15.681Z</time></trkpt><trkpt lat="42.066446" lon="13.3782278"><ele>708.0</ele><time>2026-04-03T17:09:16.682Z</time></trkpt><trkpt lat="42.0664015" lon="13.378414"><ele>708.0</ele><time>2026-04-03T17:09:17.681Z</time></trkpt><trkpt lat="42.0663583" lon="13.3785873"><ele>708.0</ele><time>2026-04-03T17:09:18.681Z</time></trkpt><trkpt lat="42.06632" lon="13.378764"><ele>708.0</ele><time>2026-04-03T17:09:19.682Z</time></trkpt><trkpt lat="42.06628" lon="13.3789507"><ele>708.0</ele><time>2026-04-03T17:09:20.682Z</time></trkpt><trkpt lat="42.0662399" lon="13.3791636"><ele>708.0</ele><time>2026-04-03T17:09:21.681Z</time></trkpt><trkpt lat="42.0661786" lon="13.3793829"><ele>708.0</ele><time>2026-04-03T17:09:22.681Z</time></trkpt><trkpt lat="42.0661117" lon="13.3796316"><ele>708.0</ele><time>2026-04-03T17:09:23.681Z</time></trkpt><trkpt lat="42.0660484" lon="13.3798814"><ele>708.6666666666666</ele><time>2026-04-03T17:09:24.682Z</time></trkpt><trkpt lat="42.065983" lon="13.3801301"><ele>709.3333333333333</ele><time>2026-04-03T17:09:25.682Z</time></trkpt><trkpt lat="42.0659251" lon="13.3803624"><ele>710.0</ele><time>2026-04-03T17:09:26.682Z</time></trkpt><trkpt lat="42.0658703" lon="13.3805851"><ele>710.3333333333333</ele><time>2026-04-03T17:09:27.681Z</time></trkpt><trkpt lat="42.0658301" lon="13.3808072"><ele>710.6666666666666</ele><time>2026-04-03T17:09:28.682Z</time></trkpt><trkpt lat="42.0657963" lon="13.3810229"><ele>711.0</ele><time>2026-04-03T17:09:29.682Z</time></trkpt><trkpt lat="42.0658042" lon="13.3812404"><ele>711.0</ele><time>2026-04-03T17:09:30.681Z</time></trkpt><trkpt lat="42.0658231" lon="13.3814528"><ele>711.0</ele><time>2026-04-03T17:09:31.682Z</time></trkpt><trkpt lat="42.0658388" lon="13.3816524"><ele>711.0</ele><time>2026-04-03T17:09:32.681Z</time></trkpt><trkpt lat="42.0658489" lon="13.381844"><ele>711.0</ele><time>2026-04-03T17:09:33.682Z</time></trkpt><trkpt lat="42.0658529" lon="13.382017"><ele>711.0</ele><time>2026-04-03T17:09:34.682Z</time></trkpt><trkpt lat="42.0658328" lon="13.3821678"><ele>711.0</ele><time>2026-04-03T17:09:35.682Z</time></trkpt><trkpt lat="42.0658026" lon="13.3822984"><ele>711.0</ele><time>2026-04-03T17:09:36.681Z</time></trkpt><trkpt lat="42.0657553" lon="13.3824144"><ele>711.0</ele><time>2026-04-03T17:09:37.681Z</time></trkpt><trkpt lat="42.0657029" lon="13.3825136"><ele>711.0</ele><time>2026-04-03T17:09:38.682Z</time></trkpt><trkpt lat="42.0656479" lon="13.3825948"><ele>711.0</ele><time>2026-04-03T17:09:39.682Z</time></trkpt><trkpt lat="42.0655896" lon="13.3826732"><ele>711.0</ele><time>2026-04-03T17:09:40.682Z</time></trkpt><trkpt lat="42.0655405" lon="13.3827456"><ele>711.0</ele><time>2026-04-03T17:09:41.681Z</time></trkpt><trkpt lat="42.0654795" lon="13.3828242"><ele>711.0</ele><time>2026-04-03T17:09:42.682Z</time></trkpt><trkpt lat="42.065395" lon="13.3829171"><ele>711.0</ele><time>2026-04-03T17:09:43.682Z</time></trkpt><trkpt lat="42.0653138" lon="13.3830491"><ele>710.6666666666666</ele><time>2026-04-03T17:09:44.681Z</time></trkpt><trkpt lat="42.0652092" lon="13.3832048"><ele>710.3333333333333</ele><time>2026-04-03T17:09:45.682Z</time></trkpt><trkpt lat="42.0650712" lon="13.3833724"><ele>710.0</ele><time>2026-04-03T17:09:46.681Z</time></trkpt><trkpt lat="42.0649221" lon="13.3835505"><ele>709.6666666666666</ele><time>2026-04-03T17:09:47.682Z</time></trkpt><trkpt lat="42.0647788" lon="13.3837326"><ele>709.3333333333334</ele><time>2026-04-03T17:09:48.682Z</time></trkpt><trkpt lat="42.0646486" lon="13.3839078"><ele>709.0</ele><time>2026-04-03T17:09:49.681Z</time></trkpt><trkpt lat="42.0645312" lon="13.3840647"><ele>708.6666666666667</ele><time>2026-04-03T17:09:50.681Z</time></trkpt><trkpt lat="42.0644175" lon="13.3842154"><ele>708.3333333333334</ele><time>2026-04-03T17:09:51.682Z</time></trkpt><trkpt lat="42.064299" lon="13.3843674"><ele>708.0</ele><time>2026-04-03T17:09:52.682Z</time></trkpt><trkpt lat="42.0641763" lon="13.3845274"><ele>707.6666666666666</ele><time>2026-04-03T17:09:53.681Z</time></trkpt><trkpt lat="42.0640486" lon="13.3846965"><ele>707.3333333333333</ele><time>2026-04-03T17:09:54.682Z</time></trkpt><trkpt lat="42.0639144" lon="13.3848753"><ele>707.0</ele><time>2026-04-03T17:09:55.681Z</time></trkpt><trkpt lat="42.0637753" lon="13.3850556"><ele>707.0</ele><time>2026-04-03T17:09:56.682Z</time></trkpt><trkpt lat="42.0636335" lon="13.3852411"><ele>707.0</ele><time>2026-04-03T17:09:57.682Z</time></trkpt><trkpt lat="42.0634874" lon="13.385435"><ele>707.0</ele><time>2026-04-03T17:09:58.682Z</time></trkpt><trkpt lat="42.0633526" lon="13.3856137"><ele>707.0</ele><time>2026-04-03T17:09:59.681Z</time></trkpt><trkpt lat="42.0632339" lon="13.3857694"><ele>707.0</ele><time>2026-04-03T17:10:00.682Z</time></trkpt><trkpt lat="42.0631338" lon="13.3859054"><ele>707.0</ele><time>2026-04-03T17:10:01.682Z</time></trkpt><trkpt lat="42.0630335" lon="13.3860277"><ele>707.0</ele><time>2026-04-03T17:10:02.681Z</time></trkpt><trkpt lat="42.0629344" lon="13.3861555"><ele>707.0</ele><time>2026-04-03T17:10:03.682Z</time></trkpt><trkpt lat="42.0628396" lon="13.3862838"><ele>707.0</ele><time>2026-04-03T17:10:04.681Z</time></trkpt><trkpt lat="42.0627458" lon="13.386411"><ele>707.0</ele><time>2026-04-03T17:10:05.681Z</time></trkpt><trkpt lat="42.062652" lon="13.3865293"><ele>707.0</ele><time>2026-04-03T17:10:06.682Z</time></trkpt><trkpt lat="42.06257" lon="13.3866398"><ele>707.0</ele><time>2026-04-03T17:10:07.682Z</time></trkpt><trkpt lat="42.062491" lon="13.3867447"><ele>707.0</ele><time>2026-04-03T17:10:08.681Z</time></trkpt><trkpt lat="42.0624115" lon="13.3868504"><ele>707.0</ele><time>2026-04-03T17:10:09.682Z</time></trkpt><trkpt lat="42.0623276" lon="13.3869588"><ele>707.0</ele><time>2026-04-03T17:10:10.681Z</time></trkpt><trkpt lat="42.0622424" lon="13.3870703"><ele>707.75</ele><time>2026-04-03T17:10:11.681Z</time></trkpt><trkpt lat="42.0621543" lon="13.3871836"><ele>708.5</ele><time>2026-04-03T17:10:12.682Z</time></trkpt><trkpt lat="42.0620626" lon="13.3872975"><ele>709.25</ele><time>2026-04-03T17:10:13.682Z</time></trkpt><trkpt lat="42.0619759" lon="13.3874158"><ele>710.0</ele><time>2026-04-03T17:10:14.682Z</time></trkpt><trkpt lat="42.0618839" lon="13.3875312"><ele>710.0</ele><time>2026-04-03T17:10:15.682Z</time></trkpt><trkpt lat="42.0617948" lon="13.3876489"><ele>710.0</ele><time>2026-04-03T17:10:16.682Z</time></trkpt><trkpt lat="42.0617013" lon="13.387773"><ele>710.0</ele><time>2026-04-03T17:10:17.682Z</time></trkpt><trkpt lat="42.0616045" lon="13.3878973"><ele>710.0</ele><time>2026-04-03T17:10:18.682Z</time></trkpt><trkpt lat="42.0615088" lon="13.3880225"><ele>709.6</ele><time>2026-04-03T17:10:19.682Z</time></trkpt><trkpt lat="42.0614208" lon="13.3881362"><ele>709.2</ele><time>2026-04-03T17:10:20.682Z</time></trkpt><trkpt lat="42.0613432" lon="13.3882425"><ele>708.8</ele><time>2026-04-03T17:10:21.682Z</time></trkpt><trkpt lat="42.0612656" lon="13.3883403"><ele>708.4</ele><time>2026-04-03T17:10:22.681Z</time></trkpt><trkpt lat="42.0611967" lon="13.3884306"><ele>708.0</ele><time>2026-04-03T17:10:23.681Z</time></trkpt><trkpt lat="42.0611187" lon="13.3885271"><ele>708.0</ele><time>2026-04-03T17:10:24.681Z</time></trkpt><trkpt lat="42.0610257" lon="13.3886486"><ele>708.0</ele><time>2026-04-03T17:10:25.682Z</time></trkpt><trkpt lat="42.0609284" lon="13.3887844"><ele>708.0</ele><time>2026-04-03T17:10:26.682Z</time></trkpt><trkpt lat="42.0608293" lon="13.3889107"><ele>708.0</ele><time>2026-04-03T17:10:27.681Z</time></trkpt><trkpt lat="42.0607277" lon="13.3890476"><ele>708.0</ele><time>2026-04-03T17:10:28.682Z</time></trkpt><trkpt lat="42.060622" lon="13.3891916"><ele>708.0</ele><time>2026-04-03T17:10:29.681Z</time></trkpt><trkpt lat="42.0605205" lon="13.389321"><ele>708.0</ele><time>2026-04-03T17:10:30.682Z</time></trkpt><trkpt lat="42.0604233" lon="13.3894457"><ele>708.0</ele><time>2026-04-03T17:10:31.681Z</time></trkpt><trkpt lat="42.0603215" lon="13.3895766"><ele>708.6666666666666</ele><time>2026-04-03T17:10:32.681Z</time></trkpt><trkpt lat="42.0602111" lon="13.3897185"><ele>709.3333333333333</ele><time>2026-04-03T17:10:33.682Z</time></trkpt><trkpt lat="42.060098" lon="13.3898603"><ele>710.0</ele><time>2026-04-03T17:10:34.682Z</time></trkpt><trkpt lat="42.0599837" lon="13.3900197"><ele>710.3333333333333</ele><time>2026-04-03T17:10:35.681Z</time></trkpt><trkpt lat="42.0598631" lon="13.3901948"><ele>710.6666666666666</ele><time>2026-04-03T17:10:36.682Z</time></trkpt><trkpt lat="42.0597177" lon="13.3903818"><ele>711.0</ele><time>2026-04-03T17:10:37.682Z</time></trkpt><trkpt lat="42.059567" lon="13.3905676"><ele>711.6666666666666</ele><time>2026-04-03T17:10:38.681Z</time></trkpt><trkpt lat="42.059429" lon="13.3907451"><ele>712.3333333333333</ele><time>2026-04-03T17:10:39.682Z</time></trkpt><trkpt lat="42.0593053" lon="13.3909139"><ele>713.0</ele><time>2026-04-03T17:10:40.681Z</time></trkpt><trkpt lat="42.0591879" lon="13.3910671"><ele>712.75</ele><time>2026-04-03T17:10:41.681Z</time></trkpt><trkpt lat="42.0590801" lon="13.3912037"><ele>712.5</ele><time>2026-04-03T17:10:42.682Z</time></trkpt><trkpt lat="42.0589777" lon="13.3913396"><ele>712.25</ele><time>2026-04-03T17:10:43.682Z</time></trkpt><trkpt lat="42.0588791" lon="13.3914739"><ele>712.0</ele><time>2026-04-03T17:10:44.681Z</time></trkpt><trkpt lat="42.0587691" lon="13.391629"><ele>712.0</ele><time>2026-04-03T17:10:45.682Z</time></trkpt><trkpt lat="42.0586357" lon="13.3918044"><ele>712.0</ele><time>2026-04-03T17:10:46.682Z</time></trkpt><trkpt lat="42.0584882" lon="13.3919923"><ele>712.0</ele><time>2026-04-03T17:10:47.682Z</time></trkpt><trkpt lat="42.0583238" lon="13.39219"><ele>712.0</ele><time>2026-04-03T17:10:48.681Z</time></trkpt><trkpt lat="42.0581601" lon="13.3923994"><ele>712.0</ele><time>2026-04-03T17:10:49.682Z</time></trkpt><trkpt lat="42.0579937" lon="13.392617"><ele>712.0</ele><time>2026-04-03T17:10:50.681Z</time></trkpt><trkpt lat="42.0578226" lon="13.3928403"><ele>712.0</ele><time>2026-04-03T17:10:51.682Z</time></trkpt><trkpt lat="42.0576488" lon="13.3930695"><ele>712.0</ele><time>2026-04-03T17:10:52.682Z</time></trkpt><trkpt lat="42.0574864" lon="13.3932875"><ele>712.0</ele><time>2026-04-03T17:10:53.681Z</time></trkpt><trkpt lat="42.0573369" lon="13.3934918"><ele>712.0</ele><time>2026-04-03T17:10:54.681Z</time></trkpt><trkpt lat="42.0571894" lon="13.3936991"><ele>713.3333333333334</ele><time>2026-04-03T17:10:55.682Z</time></trkpt><trkpt lat="42.0570415" lon="13.3939043"><ele>714.6666666666666</ele><time>2026-04-03T17:10:56.681Z</time></trkpt><trkpt lat="42.0568784" lon="13.3941008"><ele>716.0</ele><time>2026-04-03T17:10:57.682Z</time></trkpt><trkpt lat="42.0567193" lon="13.3943027"><ele>717.3333333333333</ele><time>2026-04-03T17:10:58.682Z</time></trkpt><trkpt lat="42.0565611" lon="13.394508"><ele>718.6666666666666</ele><time>2026-04-03T17:10:59.681Z</time></trkpt><trkpt lat="42.0563997" lon="13.3947139"><ele>720.0</ele><time>2026-04-03T17:11:00.682Z</time></trkpt><trkpt lat="42.0562431" lon="13.3949255"><ele>720.0</ele><time>2026-04-03T17:11:01.682Z</time></trkpt><trkpt lat="42.0560886" lon="13.3951359"><ele>720.0</ele><time>2026-04-03T17:11:02.681Z</time></trkpt><trkpt lat="42.0559348" lon="13.3953467"><ele>720.0</ele><time>2026-04-03T17:11:03.681Z</time></trkpt><trkpt lat="42.0557768" lon="13.3955614"><ele>722.0</ele><time>2026-04-03T17:11:04.682Z</time></trkpt><trkpt lat="42.0556019" lon="13.3957793"><ele>724.0</ele><time>2026-04-03T17:11:05.682Z</time></trkpt><trkpt lat="42.0554199" lon="13.3960018"><ele>724.0</ele><time>2026-04-03T17:11:06.682Z</time></trkpt><trkpt lat="42.0552364" lon="13.3962388"><ele>724.0</ele><time>2026-04-03T17:11:07.681Z</time></trkpt><trkpt lat="42.0550523" lon="13.3964834"><ele>727.0</ele><time>2026-04-03T17:11:08.682Z</time></trkpt><trkpt lat="42.0548601" lon="13.3967356"><ele>730.0</ele><time>2026-04-03T17:11:09.682Z</time></trkpt><trkpt lat="42.0546628" lon="13.3969913"><ele>724.5</ele><time>2026-04-03T17:11:10.681Z</time></trkpt><trkpt lat="42.0544642" lon="13.3972451"><ele>719.0</ele><time>2026-04-03T17:11:11.682Z</time></trkpt><trkpt lat="42.0542652" lon="13.3974921"><ele>722.0</ele><time>2026-04-03T17:11:12.682Z</time></trkpt><trkpt lat="42.0540713" lon="13.3977241"><ele>725.0</ele><time>2026-04-03T17:11:13.681Z</time></trkpt><trkpt lat="42.0538719" lon="13.3979452"><ele>723.0</ele><time>2026-04-03T17:11:14.681Z</time></trkpt><trkpt lat="42.0536704" lon="13.3981622"><ele>721.0</ele><time>2026-04-03T17:11:15.682Z</time></trkpt><trkpt lat="42.0534715" lon="13.3983785"><ele>721.0</ele><time>2026-04-03T17:11:16.681Z</time></trkpt><trkpt lat="42.0532673" lon="13.3985943"><ele>721.0</ele><time>2026-04-03T17:11:17.681Z</time></trkpt><trkpt lat="42.0530686" lon="13.3988077"><ele>719.0</ele><time>2026-04-03T17:11:18.682Z</time></trkpt><trkpt lat="42.0528785" lon="13.3990135"><ele>717.0</ele><time>2026-04-03T17:11:19.681Z</time></trkpt><trkpt lat="42.0526908" lon="13.3992169"><ele>717.0</ele><time>2026-04-03T17:11:20.682Z</time></trkpt><trkpt lat="42.0525024" lon="13.3994196"><ele>717.0</ele><time>2026-04-03T17:11:21.681Z</time></trkpt><trkpt lat="42.0523124" lon="13.3996169"><ele>717.3333333333334</ele><time>2026-04-03T17:11:22.681Z</time></trkpt><trkpt lat="42.0521411" lon="13.399807"><ele>717.6666666666667</ele><time>2026-04-03T17:11:23.681Z</time></trkpt><trkpt lat="42.0519797" lon="13.3999764"><ele>718.0</ele><time>2026-04-03T17:11:24.681Z</time></trkpt><trkpt lat="42.051834" lon="13.4001327"><ele>718.0</ele><time>2026-04-03T17:11:25.682Z</time></trkpt><trkpt lat="42.0517029" lon="13.4002744"><ele>718.0</ele><time>2026-04-03T17:11:26.682Z</time></trkpt><trkpt lat="42.0515879" lon="13.4004015"><ele>718.0</ele><time>2026-04-03T17:11:27.682Z</time></trkpt><trkpt lat="42.0514691" lon="13.4005306"><ele>717.5</ele><time>2026-04-03T17:11:28.681Z</time></trkpt><trkpt lat="42.0513462" lon="13.4006653"><ele>717.0</ele><time>2026-04-03T17:11:29.681Z</time></trkpt><trkpt lat="42.0512249" lon="13.4007941"><ele>716.5</ele><time>2026-04-03T17:11:30.682Z</time></trkpt><trkpt lat="42.0511213" lon="13.4008989"><ele>716.0</ele><time>2026-04-03T17:11:31.682Z</time></trkpt><trkpt lat="42.051049" lon="13.4009716"><ele>716.0</ele><time>2026-04-03T17:11:32.682Z</time></trkpt><trkpt lat="42.050986" lon="13.4010347"><ele>716.0</ele><time>2026-04-03T17:11:33.681Z</time></trkpt><trkpt lat="42.0509198" lon="13.4010951"><ele>716.0</ele><time>2026-04-03T17:11:34.681Z</time></trkpt><trkpt lat="42.0508565" lon="13.401164"><ele>716.0</ele><time>2026-04-03T17:11:35.682Z</time></trkpt><trkpt lat="42.0507847" lon="13.4012361"><ele>716.0</ele><time>2026-04-03T17:11:36.681Z</time></trkpt><trkpt lat="42.0507122" lon="13.4013128"><ele>716.0</ele><time>2026-04-03T17:11:37.681Z</time></trkpt><trkpt lat="42.0506372" lon="13.4013941"><ele>716.5</ele><time>2026-04-03T17:11:38.681Z</time></trkpt><trkpt lat="42.0505521" lon="13.4014955"><ele>717.0</ele><time>2026-04-03T17:11:39.681Z</time></trkpt><trkpt lat="42.0504574" lon="13.4015969"><ele>717.5</ele><time>2026-04-03T17:11:40.682Z</time></trkpt><trkpt lat="42.0503522" lon="13.4017045"><ele>718.0</ele><time>2026-04-03T17:11:41.682Z</time></trkpt><trkpt lat="42.0502517" lon="13.4018122"><ele>718.0</ele><time>2026-04-03T17:11:42.682Z</time></trkpt><trkpt lat="42.0501471" lon="13.4019301"><ele>718.0</ele><time>2026-04-03T17:11:43.681Z</time></trkpt><trkpt lat="42.0500312" lon="13.4020603"><ele>718.0</ele><time>2026-04-03T17:11:44.681Z</time></trkpt><trkpt lat="42.0499003" lon="13.4021941"><ele>718.0</ele><time>2026-04-03T17:11:45.681Z</time></trkpt><trkpt lat="42.0497576" lon="13.4023256"><ele>718.0</ele><time>2026-04-03T17:11:46.681Z</time></trkpt><trkpt lat="42.0496091" lon="13.4024693"><ele>718.0</ele><time>2026-04-03T17:11:47.682Z</time></trkpt><trkpt lat="42.049456" lon="13.4026257"><ele>718.0</ele><time>2026-04-03T17:11:48.682Z</time></trkpt><trkpt lat="42.0492985" lon="13.4027871"><ele>718.0</ele><time>2026-04-03T17:11:49.682Z</time></trkpt><trkpt lat="42.0491361" lon="13.4029586"><ele>718.0</ele><time>2026-04-03T17:11:50.681Z</time></trkpt><trkpt lat="42.0489687" lon="13.4031362"><ele>718.0</ele><time>2026-04-03T17:11:51.682Z</time></trkpt><trkpt lat="42.0488035" lon="13.4033148"><ele>718.0</ele><time>2026-04-03T17:11:52.682Z</time></trkpt><trkpt lat="42.0486381" lon="13.4034859"><ele>718.0</ele><time>2026-04-03T17:11:53.682Z</time></trkpt><trkpt lat="42.0484705" lon="13.4036603"><ele>718.3333333333334</ele><time>2026-04-03T17:11:54.682Z</time></trkpt><trkpt lat="42.048306" lon="13.4038381"><ele>718.6666666666666</ele><time>2026-04-03T17:11:55.681Z</time></trkpt><trkpt lat="42.0481407" lon="13.4040194"><ele>719.0</ele><time>2026-04-03T17:11:56.681Z</time></trkpt><trkpt lat="42.0479752" lon="13.4042001"><ele>718.3333333333333</ele><time>2026-04-03T17:11:57.681Z</time></trkpt><trkpt lat="42.0478137" lon="13.40438"><ele>717.6666666666666</ele><time>2026-04-03T17:11:58.681Z</time></trkpt><trkpt lat="42.0476596" lon="13.4045503"><ele>717.0</ele><time>2026-04-03T17:11:59.682Z</time></trkpt><trkpt lat="42.047507" lon="13.4047181"><ele>716.3333333333334</ele><time>2026-04-03T17:12:00.682Z</time></trkpt><trkpt lat="42.0473508" lon="13.404884"><ele>715.6666666666667</ele><time>2026-04-03T17:12:01.682Z</time></trkpt><trkpt lat="42.0472128" lon="13.4050306"><ele>715.0</ele><time>2026-04-03T17:12:02.682Z</time></trkpt><trkpt lat="42.0470983" lon="13.4051517"><ele>715.0</ele><time>2026-04-03T17:12:03.682Z</time></trkpt><trkpt lat="42.0470011" lon="13.4052488"><ele>715.0</ele><time>2026-04-03T17:12:04.681Z</time></trkpt><trkpt lat="42.046919" lon="13.405331"><ele>715.0</ele><time>2026-04-03T17:12:05.682Z</time></trkpt><trkpt lat="42.0468572" lon="13.4053865"><ele>715.0</ele><time>2026-04-03T17:12:06.682Z</time></trkpt><trkpt lat="42.0467694" lon="13.4054415"><ele>715.0</ele><time>2026-04-03T17:12:08.682Z</time></trkpt><trkpt lat="42.0466849" lon="13.4054791"><ele>714.8</ele><time>2026-04-03T17:12:10.682Z</time></trkpt><trkpt lat="42.0465866" lon="13.4055118"><ele>714.6</ele><time>2026-04-03T17:12:12.681Z</time></trkpt><trkpt lat="42.0464889" lon="13.4055938"><ele>714.4000000000001</ele><time>2026-04-03T17:12:14.682Z</time></trkpt><trkpt lat="42.046445" lon="13.4056764"><ele>714.2</ele><time>2026-04-03T17:12:15.682Z</time></trkpt><trkpt lat="42.0464023" lon="13.4057868"><ele>714.0</ele><time>2026-04-03T17:12:16.682Z</time></trkpt><trkpt lat="42.0463458" lon="13.4059027"><ele>714.0</ele><time>2026-04-03T17:12:17.682Z</time></trkpt><trkpt lat="42.0462698" lon="13.4060144"><ele>714.0</ele><time>2026-04-03T17:12:18.681Z</time></trkpt><trkpt lat="42.0461723" lon="13.4061268"><ele>714.0</ele><time>2026-04-03T17:12:19.681Z</time></trkpt><trkpt lat="42.0460664" lon="13.4062396"><ele>714.0</ele><time>2026-04-03T17:12:20.682Z</time></trkpt><trkpt lat="42.0459559" lon="13.4063588"><ele>714.25</ele><time>2026-04-03T17:12:21.681Z</time></trkpt><trkpt lat="42.0458445" lon="13.4064681"><ele>714.5</ele><time>2026-04-03T17:12:22.682Z</time></trkpt><trkpt lat="42.0457472" lon="13.4065697"><ele>714.75</ele><time>2026-04-03T17:12:23.682Z</time></trkpt><trkpt lat="42.0456497" lon="13.4066711"><ele>715.0</ele><time>2026-04-03T17:12:24.681Z</time></trkpt><trkpt lat="42.045558" lon="13.40677"><ele>714.6</ele><time>2026-04-03T17:12:25.682Z</time></trkpt><trkpt lat="42.0454731" lon="13.4068642"><ele>714.2</ele><time>2026-04-03T17:12:26.682Z</time></trkpt><trkpt lat="42.0453926" lon="13.4069503"><ele>713.8</ele><time>2026-04-03T17:12:27.682Z</time></trkpt><trkpt lat="42.0453158" lon="13.4070307"><ele>713.4</ele><time>2026-04-03T17:12:28.682Z</time></trkpt><trkpt lat="42.0452463" lon="13.407106"><ele>713.0</ele><time>2026-04-03T17:12:29.681Z</time></trkpt><trkpt lat="42.0451888" lon="13.4071625"><ele>713.0</ele><time>2026-04-03T17:12:30.682Z</time></trkpt><trkpt lat="42.0450847" lon="13.407229"><ele>713.0</ele><time>2026-04-03T17:12:32.682Z</time></trkpt><trkpt lat="42.0449963" lon="13.4072453"><ele>713.0</ele><time>2026-04-03T17:12:34.682Z</time></trkpt><trkpt lat="42.0448814" lon="13.4072561"><ele>713.0</ele><time>2026-04-03T17:12:36.681Z</time></trkpt><trkpt lat="42.0447859" lon="13.4073487"><ele>713.0</ele><time>2026-04-03T17:12:38.682Z</time></trkpt><trkpt lat="42.0447403" lon="13.4075003"><ele>712.6666666666666</ele><time>2026-04-03T17:12:40.681Z</time></trkpt><trkpt lat="42.0447148" lon="13.4075842"><ele>712.3333333333333</ele><time>2026-04-03T17:12:41.681Z</time></trkpt><trkpt lat="42.0446802" lon="13.4076647"><ele>712.0</ele><time>2026-04-03T17:12:42.682Z</time></trkpt><trkpt lat="42.0446331" lon="13.4077516"><ele>711.6666666666666</ele><time>2026-04-03T17:12:43.682Z</time></trkpt><trkpt lat="42.0445681" lon="13.4078299"><ele>711.3333333333334</ele><time>2026-04-03T17:12:44.682Z</time></trkpt><trkpt lat="42.0444983" lon="13.4079096"><ele>711.0</ele><time>2026-04-03T17:12:45.682Z</time></trkpt><trkpt lat="42.0444243" lon="13.4079972"><ele>711.0</ele><time>2026-04-03T17:12:46.682Z</time></trkpt><trkpt lat="42.0443373" lon="13.4080939"><ele>711.0</ele><time>2026-04-03T17:12:47.682Z</time></trkpt><trkpt lat="42.0442453" lon="13.4081947"><ele>711.0</ele><time>2026-04-03T17:12:48.682Z</time></trkpt><trkpt lat="42.0441565" lon="13.4082861"><ele>711.0</ele><time>2026-04-03T17:12:49.682Z</time></trkpt><trkpt lat="42.0440756" lon="13.4083799"><ele>711.0</ele><time>2026-04-03T17:12:50.682Z</time></trkpt><trkpt lat="42.0440061" lon="13.408456"><ele>711.0</ele><time>2026-04-03T17:12:51.681Z</time></trkpt><trkpt lat="42.0439545" lon="13.4085137"><ele>711.0</ele><time>2026-04-03T17:12:52.682Z</time></trkpt><trkpt lat="42.0438773" lon="13.4085986"><ele>711.0</ele><time>2026-04-03T17:12:54.681Z</time></trkpt><trkpt lat="42.0438139" lon="13.408666"><ele>711.0</ele><time>2026-04-03T17:12:56.681Z</time></trkpt><trkpt lat="42.0437557" lon="13.4087515"><ele>711.0</ele><time>2026-04-03T17:12:58.682Z</time></trkpt><trkpt lat="42.043739" lon="13.408898"><ele>711.4</ele><time>2026-04-03T17:13:00.682Z</time></trkpt><trkpt lat="42.0437664" lon="13.408992"><ele>711.8</ele><time>2026-04-03T17:13:01.682Z</time></trkpt><trkpt lat="42.0438138" lon="13.4090912"><ele>712.1999999999999</ele><time>2026-04-03T17:13:02.681Z</time></trkpt><trkpt lat="42.0438789" lon="13.4091902"><ele>712.5999999999999</ele><time>2026-04-03T17:13:03.682Z</time></trkpt><trkpt lat="42.0439459" lon="13.4092879"><ele>713.0</ele><time>2026-04-03T17:13:04.682Z</time></trkpt><trkpt lat="42.044006" lon="13.4094052"><ele>713.0</ele><time>2026-04-03T17:13:05.682Z</time></trkpt><trkpt lat="42.0440478" lon="13.4095347"><ele>713.0</ele><time>2026-04-03T17:13:06.682Z</time></trkpt><trkpt lat="42.0440735" lon="13.4096813"><ele>713.0</ele><time>2026-04-03T17:13:07.681Z</time></trkpt><trkpt lat="42.044081" lon="13.4098303"><ele>713.0</ele><time>2026-04-03T17:13:08.681Z</time></trkpt><trkpt lat="42.0440685" lon="13.40996"><ele>713.0</ele><time>2026-04-03T17:13:09.682Z</time></trkpt><trkpt lat="42.0440276" lon="13.4100814"><ele>713.0</ele><time>2026-04-03T17:13:10.682Z</time></trkpt><trkpt lat="42.0439798" lon="13.4101872"><ele>713.0</ele><time>2026-04-03T17:13:11.682Z</time></trkpt><trkpt lat="42.0439045" lon="13.4102789"><ele>713.0</ele><time>2026-04-03T17:13:12.682Z</time></trkpt><trkpt lat="42.0438117" lon="13.4103454"><ele>713.0</ele><time>2026-04-03T17:13:13.682Z</time></trkpt><trkpt lat="42.0437059" lon="13.4103935"><ele>713.0</ele><time>2026-04-03T17:13:14.682Z</time></trkpt><trkpt lat="42.0435929" lon="13.4104104"><ele>713.0</ele><time>2026-04-03T17:13:15.682Z</time></trkpt><trkpt lat="42.0434741" lon="13.4104114"><ele>713.0</ele><time>2026-04-03T17:13:16.681Z</time></trkpt><trkpt lat="42.0433287" lon="13.4104055"><ele>713.0</ele><time>2026-04-03T17:13:17.681Z</time></trkpt><trkpt lat="42.0431643" lon="13.4104031"><ele>713.0</ele><time>2026-04-03T17:13:18.682Z</time></trkpt><trkpt lat="42.0429729" lon="13.4103778"><ele>713.0</ele><time>2026-04-03T17:13:19.682Z</time></trkpt><trkpt lat="42.0427745" lon="13.4103447"><ele>713.0</ele><time>2026-04-03T17:13:20.682Z</time></trkpt><trkpt lat="42.0425534" lon="13.4102973"><ele>713.0</ele><time>2026-04-03T17:13:21.682Z</time></trkpt><trkpt lat="42.0423137" lon="13.4102479"><ele>713.0</ele><time>2026-04-03T17:13:22.682Z</time></trkpt><trkpt lat="42.0420619" lon="13.4101996"><ele>713.0</ele><time>2026-04-03T17:13:23.682Z</time></trkpt><trkpt lat="42.0418039" lon="13.4101465"><ele>713.0</ele><time>2026-04-03T17:13:24.681Z</time></trkpt><trkpt lat="42.0415354" lon="13.4100943"><ele>713.0</ele><time>2026-04-03T17:13:25.681Z</time></trkpt><trkpt lat="42.0412585" lon="13.4100511"><ele>713.0</ele><time>2026-04-03T17:13:26.682Z</time></trkpt><trkpt lat="42.0409757" lon="13.4100217"><ele>713.0</ele><time>2026-04-03T17:13:27.682Z</time></trkpt><trkpt lat="42.0406832" lon="13.4100048"><ele>713.0</ele><time>2026-04-03T17:13:28.682Z</time></trkpt><trkpt lat="42.0403809" lon="13.4100018"><ele>713.0</ele><time>2026-04-03T17:13:29.682Z</time></trkpt><trkpt lat="42.0400759" lon="13.4100034"><ele>712.5</ele><time>2026-04-03T17:13:30.681Z</time></trkpt><trkpt lat="42.0397659" lon="13.4100221"><ele>712.0</ele><time>2026-04-03T17:13:31.681Z</time></trkpt><trkpt lat="42.0394547" lon="13.4100532"><ele>712.0</ele><time>2026-04-03T17:13:32.681Z</time></trkpt><trkpt lat="42.0391394" lon="13.410088"><ele>712.0</ele><time>2026-04-03T17:13:33.682Z</time></trkpt><trkpt lat="42.0388179" lon="13.4101275"><ele>713.5</ele><time>2026-04-03T17:13:34.682Z</time></trkpt><trkpt lat="42.0384994" lon="13.4101725"><ele>715.0</ele><time>2026-04-03T17:13:35.681Z</time></trkpt><trkpt lat="42.0381797" lon="13.4102131"><ele>715.5</ele><time>2026-04-03T17:13:36.681Z</time></trkpt><trkpt lat="42.0378586" lon="13.4102521"><ele>716.0</ele><time>2026-04-03T17:13:37.682Z</time></trkpt><trkpt lat="42.037536" lon="13.4102832"><ele>719.0</ele><time>2026-04-03T17:13:38.682Z</time></trkpt><trkpt lat="42.0372178" lon="13.4103113"><ele>722.0</ele><time>2026-04-03T17:13:39.681Z</time></trkpt><trkpt lat="42.0369045" lon="13.4103401"><ele>723.5</ele><time>2026-04-03T17:13:40.682Z</time></trkpt><trkpt lat="42.036594" lon="13.410369"><ele>725.0</ele><time>2026-04-03T17:13:41.682Z</time></trkpt><trkpt lat="42.0362852" lon="13.4104028"><ele>725.0</ele><time>2026-04-03T17:13:42.682Z</time></trkpt><trkpt lat="42.0359742" lon="13.4104353"><ele>725.0</ele><time>2026-04-03T17:13:43.682Z</time></trkpt><trkpt lat="42.0356565" lon="13.4104687"><ele>724.0</ele><time>2026-04-03T17:13:44.682Z</time></trkpt><trkpt lat="42.035342" lon="13.4105018"><ele>723.0</ele><time>2026-04-03T17:13:45.682Z</time></trkpt><trkpt lat="42.0350269" lon="13.4105379"><ele>726.5</ele><time>2026-04-03T17:13:46.681Z</time></trkpt><trkpt lat="42.0347105" lon="13.4105722"><ele>730.0</ele><time>2026-04-03T17:13:47.681Z</time></trkpt><trkpt lat="42.0343953" lon="13.4106056"><ele>735.0</ele><time>2026-04-03T17:13:48.681Z</time></trkpt><trkpt lat="42.0340788" lon="13.4106399"><ele>740.0</ele><time>2026-04-03T17:13:49.681Z</time></trkpt><trkpt lat="42.0337577" lon="13.4106797"><ele>740.0</ele><time>2026-04-03T17:13:50.681Z</time></trkpt><trkpt lat="42.0334283" lon="13.4107183"><ele>740.0</ele><time>2026-04-03T17:13:51.682Z</time></trkpt><trkpt lat="42.0330944" lon="13.4107547"><ele>742.5</ele><time>2026-04-03T17:13:52.682Z</time></trkpt><trkpt lat="42.0327562" lon="13.4107956"><ele>745.0</ele><time>2026-04-03T17:13:53.682Z</time></trkpt><trkpt lat="42.0324196" lon="13.4108369"><ele>745.0</ele><time>2026-04-03T17:13:54.681Z</time></trkpt><trkpt lat="42.0320799" lon="13.4108779"><ele>745.0</ele><time>2026-04-03T17:13:55.682Z</time></trkpt><trkpt lat="42.0317368" lon="13.4109173"><ele>745.5</ele><time>2026-04-03T17:13:56.681Z</time></trkpt><trkpt lat="42.0313959" lon="13.4109586"><ele>746.0</ele><time>2026-04-03T17:13:57.681Z</time></trkpt><trkpt lat="42.0310521" lon="13.4110029"><ele>746.0</ele><time>2026-04-03T17:13:58.682Z</time></trkpt><trkpt lat="42.0307101" lon="13.4110448"><ele>746.0</ele><time>2026-04-03T17:13:59.682Z</time></trkpt><trkpt lat="42.0303635" lon="13.4110827"><ele>746.0</ele><time>2026-04-03T17:14:00.681Z</time></trkpt><trkpt lat="42.0300177" lon="13.411125"><ele>746.0</ele><time>2026-04-03T17:14:01.682Z</time></trkpt><trkpt lat="42.0296705" lon="13.4111616"><ele>744.0</ele><time>2026-04-03T17:14:02.681Z</time></trkpt><trkpt lat="42.029322" lon="13.4111975"><ele>742.0</ele><time>2026-04-03T17:14:03.682Z</time></trkpt><trkpt lat="42.0289739" lon="13.4112384"><ele>740.0</ele><time>2026-04-03T17:14:04.682Z</time></trkpt><trkpt lat="42.0286226" lon="13.4112831"><ele>738.0</ele><time>2026-04-03T17:14:05.682Z</time></trkpt><trkpt lat="42.0282769" lon="13.4113291"><ele>730.0</ele><time>2026-04-03T17:14:06.681Z</time></trkpt><trkpt lat="42.027936" lon="13.411372"><ele>722.0</ele><time>2026-04-03T17:14:07.681Z</time></trkpt><trkpt lat="42.027601" lon="13.4114094"><ele>721.0</ele><time>2026-04-03T17:14:08.681Z</time></trkpt><trkpt lat="42.0272637" lon="13.4114551"><ele>720.0</ele><time>2026-04-03T17:14:09.682Z</time></trkpt><trkpt lat="42.0269308" lon="13.4115121"><ele>721.0</ele><time>2026-04-03T17:14:10.681Z</time></trkpt><trkpt lat="42.0265972" lon="13.4115914"><ele>722.0</ele><time>2026-04-03T17:14:11.681Z</time></trkpt><trkpt lat="42.0262714" lon="13.4116929"><ele>722.0</ele><time>2026-04-03T17:14:12.682Z</time></trkpt><trkpt lat="42.0259496" lon="13.4118165"><ele>722.0</ele><time>2026-04-03T17:14:13.681Z</time></trkpt><trkpt lat="42.0256279" lon="13.4119502"><ele>721.5</ele><time>2026-04-03T17:14:14.681Z</time></trkpt><trkpt lat="42.0253093" lon="13.4120904"><ele>721.0</ele><time>2026-04-03T17:14:15.681Z</time></trkpt><trkpt lat="42.0249911" lon="13.4122365"><ele>721.0</ele><time>2026-04-03T17:14:16.681Z</time></trkpt><trkpt lat="42.024674" lon="13.4123828"><ele>721.0</ele><time>2026-04-03T17:14:17.681Z</time></trkpt><trkpt lat="42.0243597" lon="13.4125276"><ele>726.5</ele><time>2026-04-03T17:14:18.682Z</time></trkpt><trkpt lat="42.0240433" lon="13.4126674"><ele>732.0</ele><time>2026-04-03T17:14:19.682Z</time></trkpt><trkpt lat="42.0237288" lon="13.4128072"><ele>732.0</ele><time>2026-04-03T17:14:20.682Z</time></trkpt><trkpt lat="42.0234169" lon="13.4129527"><ele>732.0</ele><time>2026-04-03T17:14:21.682Z</time></trkpt><trkpt lat="42.0231047" lon="13.4131004"><ele>719.5</ele><time>2026-04-03T17:14:22.682Z</time></trkpt><trkpt lat="42.0227913" lon="13.4132508"><ele>707.0</ele><time>2026-04-03T17:14:23.682Z</time></trkpt><trkpt lat="42.0224804" lon="13.4134"><ele>706.0</ele><time>2026-04-03T17:14:24.681Z</time></trkpt><trkpt lat="42.0221715" lon="13.4135466"><ele>705.0</ele><time>2026-04-03T17:14:25.682Z</time></trkpt><trkpt lat="42.0218609" lon="13.4136929"><ele>704.0</ele><time>2026-04-03T17:14:26.682Z</time></trkpt><trkpt lat="42.0215501" lon="13.4138388"><ele>703.0</ele><time>2026-04-03T17:14:27.681Z</time></trkpt><trkpt lat="42.021237" lon="13.4139852"><ele>703.0</ele><time>2026-04-03T17:14:28.682Z</time></trkpt><trkpt lat="42.0209211" lon="13.4141323"><ele>703.0</ele><time>2026-04-03T17:14:29.682Z</time></trkpt><trkpt lat="42.0206057" lon="13.414279"><ele>702.5</ele><time>2026-04-03T17:14:30.681Z</time></trkpt><trkpt lat="42.0202897" lon="13.4144289"><ele>702.0</ele><time>2026-04-03T17:14:31.682Z</time></trkpt><trkpt lat="42.0199749" lon="13.4145795"><ele>699.0</ele><time>2026-04-03T17:14:32.681Z</time></trkpt><trkpt lat="42.0196604" lon="13.414731"><ele>696.0</ele><time>2026-04-03T17:14:33.682Z</time></trkpt><trkpt lat="42.0193442" lon="13.4148814"><ele>696.5</ele><time>2026-04-03T17:14:34.682Z</time></trkpt><trkpt lat="42.0190281" lon="13.4150309"><ele>697.0</ele><time>2026-04-03T17:14:35.682Z</time></trkpt><trkpt lat="42.0187122" lon="13.4151741"><ele>697.0</ele><time>2026-04-03T17:14:36.681Z</time></trkpt><trkpt lat="42.0183972" lon="13.415319"><ele>697.0</ele><time>2026-04-03T17:14:37.681Z</time></trkpt><trkpt lat="42.0180824" lon="13.4154676"><ele>697.5</ele><time>2026-04-03T17:14:38.682Z</time></trkpt><trkpt lat="42.0177679" lon="13.4156159"><ele>698.0</ele><time>2026-04-03T17:14:39.682Z</time></trkpt><trkpt lat="42.0174547" lon="13.4157667"><ele>697.0</ele><time>2026-04-03T17:14:40.682Z</time></trkpt><trkpt lat="42.0171418" lon="13.4159216"><ele>696.0</ele><time>2026-04-03T17:14:41.682Z</time></trkpt><trkpt lat="42.0168326" lon="13.4160789"><ele>696.0</ele><time>2026-04-03T17:14:42.682Z</time></trkpt><trkpt lat="42.0165248" lon="13.4162349"><ele>696.0</ele><time>2026-04-03T17:14:43.681Z</time></trkpt><trkpt lat="42.0162178" lon="13.4163863"><ele>696.0</ele><time>2026-04-03T17:14:44.681Z</time></trkpt><trkpt lat="42.0159088" lon="13.4165291"><ele>696.0</ele><time>2026-04-03T17:14:45.682Z</time></trkpt><trkpt lat="42.0155986" lon="13.4166665"><ele>695.5</ele><time>2026-04-03T17:14:46.682Z</time></trkpt><trkpt lat="42.0152937" lon="13.4168044"><ele>695.0</ele><time>2026-04-03T17:14:47.682Z</time></trkpt><trkpt lat="42.0149884" lon="13.4169452"><ele>695.5</ele><time>2026-04-03T17:14:48.682Z</time></trkpt><trkpt lat="42.0146814" lon="13.417088"><ele>696.0</ele><time>2026-04-03T17:14:49.682Z</time></trkpt><trkpt lat="42.0143766" lon="13.4172325"><ele>697.0</ele><time>2026-04-03T17:14:50.682Z</time></trkpt><trkpt lat="42.0140678" lon="13.4173793"><ele>698.0</ele><time>2026-04-03T17:14:51.682Z</time></trkpt><trkpt lat="42.0137543" lon="13.4175318"><ele>698.0</ele><time>2026-04-03T17:14:52.682Z</time></trkpt><trkpt lat="42.0134396" lon="13.4176849"><ele>698.0</ele><time>2026-04-03T17:14:53.682Z</time></trkpt><trkpt lat="42.0131243" lon="13.4178359"><ele>696.0</ele><time>2026-04-03T17:14:54.682Z</time></trkpt><trkpt lat="42.0128085" lon="13.4179852"><ele>694.0</ele><time>2026-04-03T17:14:55.682Z</time></trkpt><trkpt lat="42.0124901" lon="13.4181345"><ele>694.5</ele><time>2026-04-03T17:14:56.682Z</time></trkpt><trkpt lat="42.0121734" lon="13.4182853"><ele>695.0</ele><time>2026-04-03T17:14:57.681Z</time></trkpt><trkpt lat="42.01186" lon="13.4184334"><ele>695.0</ele><time>2026-04-03T17:14:58.681Z</time></trkpt><trkpt lat="42.0115465" lon="13.4185757"><ele>695.0</ele><time>2026-04-03T17:14:59.681Z</time></trkpt><trkpt lat="42.0112321" lon="13.4187204"><ele>694.0</ele><time>2026-04-03T17:15:00.682Z</time></trkpt><trkpt lat="42.010916" lon="13.4188704"><ele>693.0</ele><time>2026-04-03T17:15:01.681Z</time></trkpt><trkpt lat="42.010598" lon="13.4190192"><ele>692.5</ele><time>2026-04-03T17:15:02.681Z</time></trkpt><trkpt lat="42.0102817" lon="13.4191679"><ele>692.0</ele><time>2026-04-03T17:15:03.682Z</time></trkpt><trkpt lat="42.0099654" lon="13.4193156"><ele>691.5</ele><time>2026-04-03T17:15:04.682Z</time></trkpt><trkpt lat="42.009648" lon="13.419466"><ele>691.0</ele><time>2026-04-03T17:15:05.681Z</time></trkpt><trkpt lat="42.0093305" lon="13.4196154"><ele>690.5</ele><time>2026-04-03T17:15:06.682Z</time></trkpt><trkpt lat="42.0090143" lon="13.4197644"><ele>690.0</ele><time>2026-04-03T17:15:07.682Z</time></trkpt><trkpt lat="42.0086985" lon="13.4199168"><ele>690.0</ele><time>2026-04-03T17:15:08.681Z</time></trkpt><trkpt lat="42.0083822" lon="13.4200664"><ele>690.0</ele><time>2026-04-03T17:15:09.681Z</time></trkpt><trkpt lat="42.0080686" lon="13.4202121"><ele>691.0</ele><time>2026-04-03T17:15:10.681Z</time></trkpt><trkpt lat="42.0077535" lon="13.4203543"><ele>692.0</ele><time>2026-04-03T17:15:11.682Z</time></trkpt><trkpt lat="42.0074388" lon="13.4204987"><ele>692.5</ele><time>2026-04-03T17:15:12.682Z</time></trkpt><trkpt lat="42.0071244" lon="13.4206484"><ele>693.0</ele><time>2026-04-03T17:15:13.682Z</time></trkpt><trkpt lat="42.0068107" lon="13.4208017"><ele>693.0</ele><time>2026-04-03T17:15:14.682Z</time></trkpt><trkpt lat="42.0064959" lon="13.4209486"><ele>693.0</ele><time>2026-04-03T17:15:15.682Z</time></trkpt><trkpt lat="42.0061826" lon="13.4210944"><ele>693.0</ele><time>2026-04-03T17:15:16.681Z</time></trkpt><trkpt lat="42.0058687" lon="13.4212423"><ele>693.0</ele><time>2026-04-03T17:15:17.681Z</time></trkpt><trkpt lat="42.0055556" lon="13.4213876"><ele>694.5</ele><time>2026-04-03T17:15:18.681Z</time></trkpt><trkpt lat="42.0052437" lon="13.4215326"><ele>696.0</ele><time>2026-04-03T17:15:19.682Z</time></trkpt><trkpt lat="42.0049323" lon="13.4216802"><ele>696.5</ele><time>2026-04-03T17:15:20.682Z</time></trkpt><trkpt lat="42.004619" lon="13.4218286"><ele>697.0</ele><time>2026-04-03T17:15:21.681Z</time></trkpt><trkpt lat="42.0043081" lon="13.4219732"><ele>696.0</ele><time>2026-04-03T17:15:22.682Z</time></trkpt><trkpt lat="42.0039961" lon="13.4221145"><ele>695.0</ele><time>2026-04-03T17:15:23.682Z</time></trkpt><trkpt lat="42.0036867" lon="13.4222487"><ele>695.0</ele><time>2026-04-03T17:15:24.681Z</time></trkpt><trkpt lat="42.0033853" lon="13.4223732"><ele>695.0</ele><time>2026-04-03T17:15:25.681Z</time></trkpt><trkpt lat="42.0030945" lon="13.4224771"><ele>696.5</ele><time>2026-04-03T17:15:26.681Z</time></trkpt><trkpt lat="42.002811" lon="13.4225662"><ele>698.0</ele><time>2026-04-03T17:15:27.682Z</time></trkpt><trkpt lat="42.0025354" lon="13.4226381"><ele>698.5</ele><time>2026-04-03T17:15:28.681Z</time></trkpt><trkpt lat="42.0022625" lon="13.4226891"><ele>699.0</ele><time>2026-04-03T17:15:29.682Z</time></trkpt><trkpt lat="42.0019893" lon="13.422722"><ele>699.0</ele><time>2026-04-03T17:15:30.681Z</time></trkpt><trkpt lat="42.0017115" lon="13.4227453"><ele>699.0</ele><time>2026-04-03T17:15:31.681Z</time></trkpt><trkpt lat="42.0014315" lon="13.4227524"><ele>700.0</ele><time>2026-04-03T17:15:32.682Z</time></trkpt><trkpt lat="42.0011492" lon="13.4227416"><ele>701.0</ele><time>2026-04-03T17:15:33.682Z</time></trkpt><trkpt lat="42.0008606" lon="13.4227152"><ele>701.5</ele><time>2026-04-03T17:15:34.682Z</time></trkpt><trkpt lat="42.0005713" lon="13.422681"><ele>702.0</ele><time>2026-04-03T17:15:35.682Z</time></trkpt><trkpt lat="42.0002818" lon="13.4226344"><ele>702.0</ele><time>2026-04-03T17:15:36.682Z</time></trkpt><trkpt lat="41.999998" lon="13.422565"><ele>702.0</ele><time>2026-04-03T17:15:37.682Z</time></trkpt><trkpt lat="41.9997259" lon="13.4224734"><ele>702.0</ele><time>2026-04-03T17:15:38.681Z</time></trkpt><trkpt lat="41.9994638" lon="13.4223697"><ele>702.0</ele><time>2026-04-03T17:15:39.681Z</time></trkpt><trkpt lat="41.9992034" lon="13.422253"><ele>707.5</ele><time>2026-04-03T17:15:40.682Z</time></trkpt><trkpt lat="41.998948" lon="13.4221209"><ele>713.0</ele><time>2026-04-03T17:15:41.681Z</time></trkpt><trkpt lat="41.9986968" lon="13.4219585"><ele>713.0</ele><time>2026-04-03T17:15:42.682Z</time></trkpt><trkpt lat="41.9984512" lon="13.4217843"><ele>713.0</ele><time>2026-04-03T17:15:43.682Z</time></trkpt><trkpt lat="41.9982098" lon="13.4216147"><ele>721.5</ele><time>2026-04-03T17:15:44.681Z</time></trkpt><trkpt lat="41.9979702" lon="13.4214484"><ele>730.0</ele><time>2026-04-03T17:15:45.682Z</time></trkpt><trkpt lat="41.9967692" lon="13.4206245"><ele>731.0</ele><time>2026-04-03T17:15:50.738Z</time></trkpt><trkpt lat="41.9900487" lon="13.4145897"><ele>728.5</ele><time>2026-04-03T17:16:24.682Z</time></trkpt><trkpt lat="41.9898238" lon="13.4144151"><ele>726.0</ele><time>2026-04-03T17:16:25.682Z</time></trkpt><trkpt lat="41.9896031" lon="13.4142279"><ele>726.0</ele><time>2026-04-03T17:16:26.681Z</time></trkpt><trkpt lat="41.9893891" lon="13.4140411"><ele>726.0</ele><time>2026-04-03T17:16:27.681Z</time></trkpt><trkpt lat="41.9891688" lon="13.4138466"><ele>724.5</ele><time>2026-04-03T17:16:28.681Z</time></trkpt><trkpt lat="41.9889485" lon="13.4136561"><ele>723.0</ele><time>2026-04-03T17:16:29.681Z</time></trkpt><trkpt lat="41.9887291" lon="13.4134685"><ele>723.0</ele><time>2026-04-03T17:16:30.681Z</time></trkpt><trkpt lat="41.9885169" lon="13.4132881"><ele>723.0</ele><time>2026-04-03T17:16:31.681Z</time></trkpt><trkpt lat="41.988307" lon="13.4131082"><ele>722.5</ele><time>2026-04-03T17:16:32.682Z</time></trkpt><trkpt lat="41.9880957" lon="13.4129295"><ele>722.0</ele><time>2026-04-03T17:16:33.681Z</time></trkpt><trkpt lat="41.9878868" lon="13.4127536"><ele>722.0</ele><time>2026-04-03T17:16:34.681Z</time></trkpt><trkpt lat="41.9876812" lon="13.4125806"><ele>722.0</ele><time>2026-04-03T17:16:35.682Z</time></trkpt><trkpt lat="41.9874727" lon="13.4124112"><ele>723.0</ele><time>2026-04-03T17:16:36.682Z</time></trkpt><trkpt lat="41.9872631" lon="13.4122425"><ele>724.0</ele><time>2026-04-03T17:16:37.681Z</time></trkpt><trkpt lat="41.9870495" lon="13.4120644"><ele>724.5</ele><time>2026-04-03T17:16:38.682Z</time></trkpt><trkpt lat="41.9868304" lon="13.4118797"><ele>725.0</ele><time>2026-04-03T17:16:39.681Z</time></trkpt><trkpt lat="41.9866034" lon="13.411682"><ele>726.0</ele><time>2026-04-03T17:16:40.681Z</time></trkpt><trkpt lat="41.9863797" lon="13.4114832"><ele>727.0</ele><time>2026-04-03T17:16:41.682Z</time></trkpt><trkpt lat="41.9861552" lon="13.4112833"><ele>727.0</ele><time>2026-04-03T17:16:42.681Z</time></trkpt><trkpt lat="41.9859317" lon="13.4110789"><ele>727.0</ele><time>2026-04-03T17:16:43.681Z</time></trkpt><trkpt lat="41.9857101" lon="13.410884"><ele>728.0</ele><time>2026-04-03T17:16:44.682Z</time></trkpt><trkpt lat="41.9854846" lon="13.4106945"><ele>729.0</ele><time>2026-04-03T17:16:45.681Z</time></trkpt><trkpt lat="41.9852511" lon="13.4105035"><ele>727.5</ele><time>2026-04-03T17:16:46.682Z</time></trkpt><trkpt lat="41.9850192" lon="13.4103089"><ele>726.0</ele><time>2026-04-03T17:16:47.682Z</time></trkpt><trkpt lat="41.9847873" lon="13.4101078"><ele>726.0</ele><time>2026-04-03T17:16:48.682Z</time></trkpt><trkpt lat="41.9845556" lon="13.4099059"><ele>726.0</ele><time>2026-04-03T17:16:49.682Z</time></trkpt><trkpt lat="41.9843263" lon="13.4096994"><ele>725.5</ele><time>2026-04-03T17:16:50.682Z</time></trkpt><trkpt lat="41.9840925" lon="13.4094958"><ele>725.0</ele><time>2026-04-03T17:16:51.682Z</time></trkpt><trkpt lat="41.9838534" lon="13.409296"><ele>725.0</ele><time>2026-04-03T17:16:52.682Z</time></trkpt><trkpt lat="41.9836152" lon="13.409099"><ele>725.0</ele><time>2026-04-03T17:16:53.682Z</time></trkpt><trkpt lat="41.9833751" lon="13.4089017"><ele>723.5</ele><time>2026-04-03T17:16:54.682Z</time></trkpt><trkpt lat="41.9831339" lon="13.4087022"><ele>722.0</ele><time>2026-04-03T17:16:55.682Z</time></trkpt><trkpt lat="41.9828941" lon="13.408498"><ele>722.0</ele><time>2026-04-03T17:16:56.681Z</time></trkpt><trkpt lat="41.9826577" lon="13.4082882"><ele>722.0</ele><time>2026-04-03T17:16:57.682Z</time></trkpt><trkpt lat="41.9824144" lon="13.408078"><ele>722.5</ele><time>2026-04-03T17:16:58.682Z</time></trkpt><trkpt lat="41.9821733" lon="13.4078709"><ele>723.0</ele><time>2026-04-03T17:16:59.682Z</time></trkpt><trkpt lat="41.9819341" lon="13.4076605"><ele>723.0</ele><time>2026-04-03T17:17:00.681Z</time></trkpt><trkpt lat="41.9816956" lon="13.4074461"><ele>723.0</ele><time>2026-04-03T17:17:01.682Z</time></trkpt><trkpt lat="41.9814551" lon="13.4072339"><ele>722.0</ele><time>2026-04-03T17:17:02.682Z</time></trkpt><trkpt lat="41.9812168" lon="13.4070203"><ele>721.0</ele><time>2026-04-03T17:17:03.682Z</time></trkpt><trkpt lat="41.9809722" lon="13.4068138"><ele>722.0</ele><time>2026-04-03T17:17:04.681Z</time></trkpt><trkpt lat="41.9807268" lon="13.4066151"><ele>723.0</ele><time>2026-04-03T17:17:05.682Z</time></trkpt><trkpt lat="41.9804784" lon="13.4064278"><ele>722.0</ele><time>2026-04-03T17:17:06.681Z</time></trkpt><trkpt lat="41.9802214" lon="13.4062523"><ele>721.0</ele><time>2026-04-03T17:17:07.682Z</time></trkpt><trkpt lat="41.979956" lon="13.4060879"><ele>720.5</ele><time>2026-04-03T17:17:08.682Z</time></trkpt><trkpt lat="41.9796871" lon="13.4059304"><ele>720.0</ele><time>2026-04-03T17:17:09.682Z</time></trkpt><trkpt lat="41.9794141" lon="13.4057843"><ele>720.0</ele><time>2026-04-03T17:17:10.681Z</time></trkpt><trkpt lat="41.979137" lon="13.4056499"><ele>720.0</ele><time>2026-04-03T17:17:11.681Z</time></trkpt><trkpt lat="41.9788559" lon="13.4055261"><ele>720.5</ele><time>2026-04-03T17:17:12.682Z</time></trkpt><trkpt lat="41.9785692" lon="13.4053946"><ele>721.0</ele><time>2026-04-03T17:17:13.681Z</time></trkpt><trkpt lat="41.9782842" lon="13.4052658"><ele>722.0</ele><time>2026-04-03T17:17:14.682Z</time></trkpt><trkpt lat="41.9779959" lon="13.4051363"><ele>723.0</ele><time>2026-04-03T17:17:15.682Z</time></trkpt><trkpt lat="41.977705" lon="13.4050082"><ele>723.5</ele><time>2026-04-03T17:17:16.682Z</time></trkpt><trkpt lat="41.9774143" lon="13.4048775"><ele>724.0</ele><time>2026-04-03T17:17:17.682Z</time></trkpt><trkpt lat="41.9771185" lon="13.4047483"><ele>724.0</ele><time>2026-04-03T17:17:18.682Z</time></trkpt><trkpt lat="41.9768237" lon="13.4046197"><ele>724.0</ele><time>2026-04-03T17:17:19.681Z</time></trkpt><trkpt lat="41.9765303" lon="13.4044935"><ele>724.5</ele><time>2026-04-03T17:17:20.682Z</time></trkpt><trkpt lat="41.9762345" lon="13.4043647"><ele>725.0</ele><time>2026-04-03T17:17:21.681Z</time></trkpt><trkpt lat="41.975942" lon="13.404236"><ele>724.5</ele><time>2026-04-03T17:17:22.682Z</time></trkpt><trkpt lat="41.9756451" lon="13.4041014"><ele>724.0</ele><time>2026-04-03T17:17:23.681Z</time></trkpt><trkpt lat="41.9753459" lon="13.4039728"><ele>724.0</ele><time>2026-04-03T17:17:24.682Z</time></trkpt><trkpt lat="41.9750501" lon="13.4038472"><ele>724.0</ele><time>2026-04-03T17:17:25.682Z</time></trkpt><trkpt lat="41.9747536" lon="13.4037159"><ele>724.5</ele><time>2026-04-03T17:17:26.682Z</time></trkpt><trkpt lat="41.9744588" lon="13.4035851"><ele>725.0</ele><time>2026-04-03T17:17:27.682Z</time></trkpt><trkpt lat="41.9741664" lon="13.4034544"><ele>725.0</ele><time>2026-04-03T17:17:28.681Z</time></trkpt><trkpt lat="41.9738697" lon="13.4033235"><ele>725.0</ele><time>2026-04-03T17:17:29.681Z</time></trkpt><trkpt lat="41.9735774" lon="13.4031919"><ele>726.0</ele><time>2026-04-03T17:17:30.681Z</time></trkpt><trkpt lat="41.9732845" lon="13.4030491"><ele>727.0</ele><time>2026-04-03T17:17:31.681Z</time></trkpt><trkpt lat="41.9729928" lon="13.4029104"><ele>727.0</ele><time>2026-04-03T17:17:32.681Z</time></trkpt><trkpt lat="41.9727006" lon="13.402772"><ele>727.0</ele><time>2026-04-03T17:17:33.682Z</time></trkpt><trkpt lat="41.9724131" lon="13.4026345"><ele>729.0</ele><time>2026-04-03T17:17:34.682Z</time></trkpt><trkpt lat="41.9721228" lon="13.4025032"><ele>731.0</ele><time>2026-04-03T17:17:35.682Z</time></trkpt><trkpt lat="41.9718365" lon="13.4023689"><ele>731.0</ele><time>2026-04-03T17:17:36.681Z</time></trkpt><trkpt lat="41.9715526" lon="13.4022442"><ele>731.0</ele><time>2026-04-03T17:17:37.682Z</time></trkpt><trkpt lat="41.9712699" lon="13.4021393"><ele>730.5</ele><time>2026-04-03T17:17:38.681Z</time></trkpt><trkpt lat="41.9709791" lon="13.4020546"><ele>730.0</ele><time>2026-04-03T17:17:39.682Z</time></trkpt><trkpt lat="41.9706888" lon="13.4019962"><ele>730.0</ele><time>2026-04-03T17:17:40.682Z</time></trkpt><trkpt lat="41.970395" lon="13.4019581"><ele>730.0</ele><time>2026-04-03T17:17:41.682Z</time></trkpt><trkpt lat="41.9701023" lon="13.4019563"><ele>733.0</ele><time>2026-04-03T17:17:42.682Z</time></trkpt><trkpt lat="41.969813" lon="13.4019785"><ele>736.0</ele><time>2026-04-03T17:17:43.682Z</time></trkpt><trkpt lat="41.9695304" lon="13.4020166"><ele>736.0</ele><time>2026-04-03T17:17:44.682Z</time></trkpt><trkpt lat="41.9692533" lon="13.40208"><ele>736.0</ele><time>2026-04-03T17:17:45.682Z</time></trkpt><trkpt lat="41.9689786" lon="13.4021622"><ele>740.0</ele><time>2026-04-03T17:17:46.682Z</time></trkpt><trkpt lat="41.9687099" lon="13.4022719"><ele>744.0</ele><time>2026-04-03T17:17:47.682Z</time></trkpt><trkpt lat="41.9684471" lon="13.4023957"><ele>740.0</ele><time>2026-04-03T17:17:48.682Z</time></trkpt><trkpt lat="41.9545083" lon="13.4103502"><ele>734.0</ele><time>2026-04-03T17:18:40.681Z</time></trkpt><trkpt lat="41.9542883" lon="13.4104952"><ele>728.0</ele><time>2026-04-03T17:18:41.682Z</time></trkpt><trkpt lat="41.9540947" lon="13.4106715"><ele>728.0</ele><time>2026-04-03T17:18:42.682Z</time></trkpt><trkpt lat="41.9539068" lon="13.4108608"><ele>728.0</ele><time>2026-04-03T17:18:43.682Z</time></trkpt><trkpt lat="41.9537205" lon="13.4110776"><ele>728.0</ele><time>2026-04-03T17:18:44.682Z</time></trkpt><trkpt lat="41.9535395" lon="13.411322"><ele>728.0</ele><time>2026-04-03T17:18:45.682Z</time></trkpt><trkpt lat="41.9533453" lon="13.411601"><ele>727.5</ele><time>2026-04-03T17:18:46.682Z</time></trkpt><trkpt lat="41.953151" lon="13.4118854"><ele>727.0</ele><time>2026-04-03T17:18:47.681Z</time></trkpt><trkpt lat="41.9529453" lon="13.412174"><ele>723.0</ele><time>2026-04-03T17:18:48.682Z</time></trkpt><trkpt lat="41.9527311" lon="13.4124656"><ele>719.0</ele><time>2026-04-03T17:18:49.681Z</time></trkpt><trkpt lat="41.9525191" lon="13.4127655"><ele>724.5</ele><time>2026-04-03T17:18:50.682Z</time></trkpt><trkpt lat="41.9522943" lon="13.4130598"><ele>730.0</ele><time>2026-04-03T17:18:51.682Z</time></trkpt><trkpt lat="41.9520682" lon="13.4133478"><ele>730.0</ele><time>2026-04-03T17:18:52.681Z</time></trkpt><trkpt lat="41.9518339" lon="13.4136275"><ele>730.0</ele><time>2026-04-03T17:18:53.681Z</time></trkpt><trkpt lat="41.9515948" lon="13.4139003"><ele>730.0</ele><time>2026-04-03T17:18:54.681Z</time></trkpt><trkpt lat="41.9513463" lon="13.4141673"><ele>730.0</ele><time>2026-04-03T17:18:55.682Z</time></trkpt><trkpt lat="41.9510996" lon="13.4144296"><ele>728.0</ele><time>2026-04-03T17:18:56.682Z</time></trkpt><trkpt lat="41.9508554" lon="13.4146873"><ele>726.0</ele><time>2026-04-03T17:18:57.682Z</time></trkpt><trkpt lat="41.9506111" lon="13.4149412"><ele>726.0</ele><time>2026-04-03T17:18:58.682Z</time></trkpt><trkpt lat="41.9503665" lon="13.4151929"><ele>726.0</ele><time>2026-04-03T17:18:59.682Z</time></trkpt><trkpt lat="41.9501175" lon="13.4154431"><ele>724.5</ele><time>2026-04-03T17:19:00.681Z</time></trkpt><trkpt lat="41.9498724" lon="13.415691"><ele>723.0</ele><time>2026-04-03T17:19:01.682Z</time></trkpt><trkpt lat="41.9496241" lon="13.4159391"><ele>723.0</ele><time>2026-04-03T17:19:02.682Z</time></trkpt><trkpt lat="41.9493794" lon="13.4161909"><ele>723.0</ele><time>2026-04-03T17:19:03.682Z</time></trkpt><trkpt lat="41.9491283" lon="13.416446"><ele>725.5</ele><time>2026-04-03T17:19:04.682Z</time></trkpt><trkpt lat="41.9488553" lon="13.4166953"><ele>728.0</ele><time>2026-04-03T17:19:05.682Z</time></trkpt><trkpt lat="41.9485719" lon="13.4169407"><ele>698.0</ele><time>2026-04-03T17:19:06.681Z</time></trkpt><trkpt lat="41.9446797" lon="13.4210283"><ele>698.0</ele><time>2026-04-03T17:19:22.682Z</time></trkpt><trkpt lat="41.9444585" lon="13.4212583"><ele>698.0</ele><time>2026-04-03T17:19:23.682Z</time></trkpt><trkpt lat="41.9442304" lon="13.4214805"><ele>693.5</ele><time>2026-04-03T17:19:24.682Z</time></trkpt><trkpt lat="41.9440017" lon="13.4216999"><ele>689.0</ele><time>2026-04-03T17:19:25.681Z</time></trkpt><trkpt lat="41.9437711" lon="13.4219077"><ele>689.0</ele><time>2026-04-03T17:19:26.682Z</time></trkpt><trkpt lat="41.9435419" lon="13.4221116"><ele>689.0</ele><time>2026-04-03T17:19:27.681Z</time></trkpt><trkpt lat="41.943315" lon="13.4223015"><ele>679.0</ele><time>2026-04-03T17:19:28.681Z</time></trkpt><trkpt lat="41.940261" lon="13.4259338"><ele>679.0</ele><time>2026-04-03T17:19:45.681Z</time></trkpt><trkpt lat="41.9400758" lon="13.426117"><ele>679.0</ele><time>2026-04-03T17:19:46.681Z</time></trkpt><trkpt lat="41.9398815" lon="13.4262766"><ele>676.5</ele><time>2026-04-03T17:19:47.682Z</time></trkpt><trkpt lat="41.9396827" lon="13.4264286"><ele>674.0</ele><time>2026-04-03T17:19:48.682Z</time></trkpt><trkpt lat="41.9394746" lon="13.4265766"><ele>674.0</ele><time>2026-04-03T17:19:49.682Z</time></trkpt><trkpt lat="41.9392626" lon="13.4267101"><ele>674.0</ele><time>2026-04-03T17:19:50.681Z</time></trkpt><trkpt lat="41.9390575" lon="13.4268201"><ele>669.3333333333333</ele><time>2026-04-03T17:19:51.682Z</time></trkpt><trkpt lat="41.9388611" lon="13.4269134"><ele>664.6666666666666</ele><time>2026-04-03T17:19:52.682Z</time></trkpt><trkpt lat="41.9386663" lon="13.4270015"><ele>660.0</ele><time>2026-04-03T17:19:53.682Z</time></trkpt><trkpt lat="41.9384663" lon="13.4270723"><ele>663.3333333333334</ele><time>2026-04-03T17:19:54.682Z</time></trkpt><trkpt lat="41.9382696" lon="13.4271255"><ele>666.6666666666667</ele><time>2026-04-03T17:19:55.681Z</time></trkpt><trkpt lat="41.9380762" lon="13.427166"><ele>670.0</ele><time>2026-04-03T17:19:56.682Z</time></trkpt><trkpt lat="41.9378768" lon="13.4271926"><ele>670.0</ele><time>2026-04-03T17:19:57.682Z</time></trkpt><trkpt lat="41.9376729" lon="13.4272232"><ele>670.0</ele><time>2026-04-03T17:19:58.682Z</time></trkpt><trkpt lat="41.9374605" lon="13.427253"><ele>670.0</ele><time>2026-04-03T17:19:59.682Z</time></trkpt><trkpt lat="41.937253" lon="13.4272835"><ele>647.0</ele><time>2026-04-03T17:20:00.682Z</time></trkpt><trkpt lat="41.9323203" lon="13.4280299"><ele>647.0</ele><time>2026-04-03T17:20:21.681Z</time></trkpt><trkpt lat="41.9320205" lon="13.4280619"><ele>647.0</ele><time>2026-04-03T17:20:22.682Z</time></trkpt><trkpt lat="41.9317323" lon="13.4280932"><ele>645.5</ele><time>2026-04-03T17:20:23.681Z</time></trkpt><trkpt lat="41.9314379" lon="13.428116"><ele>644.0</ele><time>2026-04-03T17:20:24.681Z</time></trkpt><trkpt lat="41.9311473" lon="13.4281274"><ele>641.0</ele><time>2026-04-03T17:20:25.681Z</time></trkpt><trkpt lat="41.9308532" lon="13.4281371"><ele>638.0</ele><time>2026-04-03T17:20:26.682Z</time></trkpt><trkpt lat="41.9305585" lon="13.4281249"><ele>638.0</ele><time>2026-04-03T17:20:27.682Z</time></trkpt><trkpt lat="41.9302687" lon="13.4280947"><ele>638.0</ele><time>2026-04-03T17:20:28.682Z</time></trkpt><trkpt lat="41.9299629" lon="13.4280546"><ele>641.5</ele><time>2026-04-03T17:20:29.681Z</time></trkpt><trkpt lat="41.9296675" lon="13.4279999"><ele>645.0</ele><time>2026-04-03T17:20:30.682Z</time></trkpt><trkpt lat="41.9236409" lon="13.4278541"><ele>626.0</ele><time>2026-04-03T17:20:50.682Z</time></trkpt><trkpt lat="41.923325" lon="13.4279264"><ele>607.0</ele><time>2026-04-03T17:20:51.682Z</time></trkpt><trkpt lat="41.9230025" lon="13.4279945"><ele>607.0</ele><time>2026-04-03T17:20:52.682Z</time></trkpt><trkpt lat="41.9226786" lon="13.4280684"><ele>607.0</ele><time>2026-04-03T17:20:53.681Z</time></trkpt><trkpt lat="41.9223471" lon="13.4281246"><ele>608.0</ele><time>2026-04-03T17:20:54.682Z</time></trkpt><trkpt lat="41.9220302" lon="13.4281807"><ele>609.0</ele><time>2026-04-03T17:20:55.682Z</time></trkpt><trkpt lat="41.9217099" lon="13.4282462"><ele>600.5</ele><time>2026-04-03T17:20:56.681Z</time></trkpt><trkpt lat="41.9213999" lon="13.428302"><ele>592.0</ele><time>2026-04-03T17:20:57.682Z</time></trkpt><trkpt lat="41.9210878" lon="13.4283674"><ele>589.0</ele><time>2026-04-03T17:20:58.682Z</time></trkpt><trkpt lat="41.9207765" lon="13.4284404"><ele>586.0</ele><time>2026-04-03T17:20:59.682Z</time></trkpt><trkpt lat="41.9204656" lon="13.4285148"><ele>586.0</ele><time>2026-04-03T17:21:00.682Z</time></trkpt><trkpt lat="41.9201583" lon="13.4285965"><ele>586.0</ele><time>2026-04-03T17:21:01.682Z</time></trkpt><trkpt lat="41.9198562" lon="13.4286935"><ele>583.5</ele><time>2026-04-03T17:21:02.682Z</time></trkpt><trkpt lat="41.9195551" lon="13.4288093"><ele>581.0</ele><time>2026-04-03T17:21:03.681Z</time></trkpt><trkpt lat="41.9192599" lon="13.4289424"><ele>586.5</ele><time>2026-04-03T17:21:04.681Z</time></trkpt><trkpt lat="41.9189732" lon="13.4290839"><ele>592.0</ele><time>2026-04-03T17:21:05.682Z</time></trkpt><trkpt lat="41.9186883" lon="13.4292396"><ele>592.0</ele><time>2026-04-03T17:21:06.682Z</time></trkpt><trkpt lat="41.9184063" lon="13.429395"><ele>592.0</ele><time>2026-04-03T17:21:07.681Z</time></trkpt><trkpt lat="41.917304" lon="13.4300049"><ele>587.0</ele><time>2026-04-03T17:21:11.681Z</time></trkpt><trkpt lat="41.9171619" lon="13.4303001"><ele>582.0</ele><time>2026-04-03T17:21:12.682Z</time></trkpt><trkpt lat="41.9169116" lon="13.4305035"><ele>575.0</ele><time>2026-04-03T17:21:13.681Z</time></trkpt><trkpt lat="41.9166583" lon="13.430687"><ele>568.0</ele><time>2026-04-03T17:21:14.681Z</time></trkpt><trkpt lat="41.9164139" lon="13.4308671"><ele>568.0</ele><time>2026-04-03T17:21:15.682Z</time></trkpt><trkpt lat="41.9161713" lon="13.4310354"><ele>568.0</ele><time>2026-04-03T17:21:16.682Z</time></trkpt><trkpt lat="41.915935" lon="13.4311862"><ele>574.0</ele><time>2026-04-03T17:21:17.681Z</time></trkpt><trkpt lat="41.9156988" lon="13.4313232"><ele>580.0</ele><time>2026-04-03T17:21:18.682Z</time></trkpt><trkpt lat="41.9154619" lon="13.4314443"><ele>580.0</ele><time>2026-04-03T17:21:19.682Z</time></trkpt><trkpt lat="41.9152116" lon="13.4315584"><ele>580.0</ele><time>2026-04-03T17:21:20.682Z</time></trkpt><trkpt lat="41.9141421" lon="13.431881"><ele>571.5</ele><time>2026-04-03T17:21:24.681Z</time></trkpt><trkpt lat="41.9138634" lon="13.4319401"><ele>563.0</ele><time>2026-04-03T17:21:25.682Z</time></trkpt><trkpt lat="41.9135809" lon="13.4319787"><ele>565.0</ele><time>2026-04-03T17:21:26.681Z</time></trkpt><trkpt lat="41.9132977" lon="13.4319988"><ele>567.0</ele><time>2026-04-03T17:21:27.682Z</time></trkpt><trkpt lat="41.9130171" lon="13.4320114"><ele>567.0</ele><time>2026-04-03T17:21:28.682Z</time></trkpt><trkpt lat="41.912735" lon="13.4320158"><ele>567.0</ele><time>2026-04-03T17:21:29.682Z</time></trkpt><trkpt lat="41.9124546" lon="13.4320238"><ele>567.0</ele><time>2026-04-03T17:21:30.682Z</time></trkpt><trkpt lat="41.9121728" lon="13.432032"><ele>567.0</ele><time>2026-04-03T17:21:31.682Z</time></trkpt><trkpt lat="41.9118987" lon="13.4320385"><ele>563.5</ele><time>2026-04-03T17:21:32.681Z</time></trkpt><trkpt lat="41.9116245" lon="13.4320478"><ele>560.0</ele><time>2026-04-03T17:21:33.681Z</time></trkpt><trkpt lat="41.9113502" lon="13.4320583"><ele>560.0</ele><time>2026-04-03T17:21:34.682Z</time></trkpt><trkpt lat="41.9110741" lon="13.432076"><ele>560.0</ele><time>2026-04-03T17:21:35.682Z</time></trkpt><trkpt lat="41.9107992" lon="13.4321126"><ele>566.5</ele><time>2026-04-03T17:21:36.681Z</time></trkpt><trkpt lat="41.9105288" lon="13.4321645"><ele>573.0</ele><time>2026-04-03T17:21:37.682Z</time></trkpt><trkpt lat="41.9102586" lon="13.4322286"><ele>575.0</ele><time>2026-04-03T17:21:38.682Z</time></trkpt><trkpt lat="41.909979" lon="13.4323042"><ele>577.0</ele><time>2026-04-03T17:21:39.682Z</time></trkpt><trkpt lat="41.909715" lon="13.4323862"><ele>577.0</ele><time>2026-04-03T17:21:40.682Z</time></trkpt><trkpt lat="41.9094467" lon="13.4324923"><ele>577.0</ele><time>2026-04-03T17:21:41.681Z</time></trkpt><trkpt lat="41.9091824" lon="13.4326237"><ele>568.0</ele><time>2026-04-03T17:21:42.681Z</time></trkpt><trkpt lat="41.9089193" lon="13.4327615"><ele>559.0</ele><time>2026-04-03T17:21:43.681Z</time></trkpt><trkpt lat="41.9086599" lon="13.4329166"><ele>564.5</ele><time>2026-04-03T17:21:44.682Z</time></trkpt><trkpt lat="41.9084011" lon="13.4330871"><ele>570.0</ele><time>2026-04-03T17:21:45.682Z</time></trkpt><trkpt lat="41.9081583" lon="13.4332728"><ele>570.0</ele><time>2026-04-03T17:21:46.682Z</time></trkpt><trkpt lat="41.9079179" lon="13.4334696"><ele>570.0</ele><time>2026-04-03T17:21:47.681Z</time></trkpt><trkpt lat="41.9076867" lon="13.4336741"><ele>572.0</ele><time>2026-04-03T17:21:48.681Z</time></trkpt><trkpt lat="41.9074623" lon="13.433888"><ele>574.0</ele><time>2026-04-03T17:21:49.682Z</time></trkpt><trkpt lat="41.9072493" lon="13.4341032"><ele>574.0</ele><time>2026-04-03T17:21:50.682Z</time></trkpt><trkpt lat="41.9070407" lon="13.4343224"><ele>574.0</ele><time>2026-04-03T17:21:51.682Z</time></trkpt><trkpt lat="41.9068323" lon="13.4345497"><ele>578.5</ele><time>2026-04-03T17:21:52.682Z</time></trkpt><trkpt lat="41.9066254" lon="13.4347752"><ele>583.0</ele><time>2026-04-03T17:21:53.682Z</time></trkpt><trkpt lat="41.9015266" lon="13.4402392"><ele>562.5</ele><time>2026-04-03T17:22:15.683Z</time></trkpt><trkpt lat="41.901264" lon="13.4404547"><ele>542.0</ele><time>2026-04-03T17:22:16.683Z</time></trkpt><trkpt lat="41.9010101" lon="13.4406782"><ele>536.0</ele><time>2026-04-03T17:22:17.683Z</time></trkpt><trkpt lat="41.9007488" lon="13.4408887"><ele>530.0</ele><time>2026-04-03T17:22:18.683Z</time></trkpt><trkpt lat="41.9004851" lon="13.4410854"><ele>530.0</ele><time>2026-04-03T17:22:19.683Z</time></trkpt><trkpt lat="41.9002105" lon="13.4412599"><ele>530.0</ele><time>2026-04-03T17:22:20.683Z</time></trkpt><trkpt lat="41.8999403" lon="13.4414356"><ele>532.0</ele><time>2026-04-03T17:22:21.683Z</time></trkpt><trkpt lat="41.8996601" lon="13.4415886"><ele>534.0</ele><time>2026-04-03T17:22:22.682Z</time></trkpt><trkpt lat="41.8993823" lon="13.4417399"><ele>529.5</ele><time>2026-04-03T17:22:23.682Z</time></trkpt><trkpt lat="41.8991035" lon="13.4418651"><ele>525.0</ele><time>2026-04-03T17:22:24.683Z</time></trkpt><trkpt lat="41.8988203" lon="13.4419952"><ele>525.0</ele><time>2026-04-03T17:22:25.682Z</time></trkpt><trkpt lat="41.8985279" lon="13.4421083"><ele>525.0</ele><time>2026-04-03T17:22:26.682Z</time></trkpt><trkpt lat="41.8982417" lon="13.4422235"><ele>529.0</ele><time>2026-04-03T17:22:27.683Z</time></trkpt><trkpt lat="41.8979646" lon="13.4423403"><ele>533.0</ele><time>2026-04-03T17:22:28.683Z</time></trkpt><trkpt lat="41.8976895" lon="13.4424532"><ele>528.0</ele><time>2026-04-03T17:22:29.682Z</time></trkpt><trkpt lat="41.8974294" lon="13.4425622"><ele>523.0</ele><time>2026-04-03T17:22:30.683Z</time></trkpt><trkpt lat="41.8971606" lon="13.4426706"><ele>523.0</ele><time>2026-04-03T17:22:31.683Z</time></trkpt><trkpt lat="41.8969122" lon="13.4427692"><ele>523.0</ele><time>2026-04-03T17:22:32.683Z</time></trkpt><trkpt lat="41.8966602" lon="13.4428781"><ele>530.0</ele><time>2026-04-03T17:22:33.683Z</time></trkpt><trkpt lat="41.8964157" lon="13.4429776"><ele>537.0</ele><time>2026-04-03T17:22:34.682Z</time></trkpt><trkpt lat="41.8961608" lon="13.4430769"><ele>533.5</ele><time>2026-04-03T17:22:35.683Z</time></trkpt><trkpt lat="41.8959091" lon="13.4431624"><ele>530.0</ele><time>2026-04-03T17:22:36.683Z</time></trkpt><trkpt lat="41.8956549" lon="13.4432586"><ele>530.0</ele><time>2026-04-03T17:22:37.682Z</time></trkpt><trkpt lat="41.895407" lon="13.443364"><ele>530.0</ele><time>2026-04-03T17:22:38.683Z</time></trkpt><trkpt lat="41.8951514" lon="13.443469"><ele>526.5</ele><time>2026-04-03T17:22:39.683Z</time></trkpt><trkpt lat="41.894891" lon="13.4435724"><ele>523.0</ele><time>2026-04-03T17:22:40.683Z</time></trkpt><trkpt lat="41.8946308" lon="13.4436772"><ele>523.0</ele><time>2026-04-03T17:22:41.683Z</time></trkpt><trkpt lat="41.8943721" lon="13.4437865"><ele>523.0</ele><time>2026-04-03T17:22:42.682Z</time></trkpt><trkpt lat="41.8941125" lon="13.4438933"><ele>530.0</ele><time>2026-04-03T17:22:43.683Z</time></trkpt><trkpt lat="41.8938523" lon="13.4439979"><ele>537.0</ele><time>2026-04-03T17:22:44.682Z</time></trkpt><trkpt lat="41.8935882" lon="13.4441062"><ele>533.5</ele><time>2026-04-03T17:22:45.682Z</time></trkpt><trkpt lat="41.8933206" lon="13.4442213"><ele>530.0</ele><time>2026-04-03T17:22:46.682Z</time></trkpt><trkpt lat="41.8930486" lon="13.4443371"><ele>530.0</ele><time>2026-04-03T17:22:47.683Z</time></trkpt><trkpt lat="41.8927855" lon="13.4444661"><ele>530.0</ele><time>2026-04-03T17:22:48.682Z</time></trkpt><trkpt lat="41.8925254" lon="13.444605"><ele>532.0</ele><time>2026-04-03T17:22:49.683Z</time></trkpt><trkpt lat="41.8922617" lon="13.444752"><ele>534.0</ele><time>2026-04-03T17:22:50.682Z</time></trkpt><trkpt lat="41.891999" lon="13.4449086"><ele>523.0</ele><time>2026-04-03T17:22:51.683Z</time></trkpt><trkpt lat="41.8917398" lon="13.4450772"><ele>512.0</ele><time>2026-04-03T17:22:52.683Z</time></trkpt><trkpt lat="41.8914833" lon="13.4452535"><ele>512.0</ele><time>2026-04-03T17:22:53.682Z</time></trkpt><trkpt lat="41.8912294" lon="13.4454407"><ele>512.0</ele><time>2026-04-03T17:22:54.683Z</time></trkpt><trkpt lat="41.8909755" lon="13.4456369"><ele>510.0</ele><time>2026-04-03T17:22:55.683Z</time></trkpt><trkpt lat="41.8907234" lon="13.4458358"><ele>508.0</ele><time>2026-04-03T17:22:56.683Z</time></trkpt><trkpt lat="41.8904757" lon="13.4460414"><ele>508.0</ele><time>2026-04-03T17:22:57.682Z</time></trkpt><trkpt lat="41.890228" lon="13.4462518"><ele>508.0</ele><time>2026-04-03T17:22:58.682Z</time></trkpt><trkpt lat="41.889989" lon="13.4464637"><ele>503.0</ele><time>2026-04-03T17:22:59.683Z</time></trkpt><trkpt lat="41.8897588" lon="13.4466723"><ele>498.0</ele><time>2026-04-03T17:23:00.683Z</time></trkpt><trkpt lat="41.8895401" lon="13.446881"><ele>498.0</ele><time>2026-04-03T17:23:01.682Z</time></trkpt><trkpt lat="41.8893205" lon="13.4470922"><ele>498.0</ele><time>2026-04-03T17:23:02.682Z</time></trkpt><trkpt lat="41.8890964" lon="13.4473038"><ele>505.0</ele><time>2026-04-03T17:23:03.683Z</time></trkpt><trkpt lat="41.8888678" lon="13.4475184"><ele>512.0</ele><time>2026-04-03T17:23:04.683Z</time></trkpt><trkpt lat="41.8886401" lon="13.4477389"><ele>508.0</ele><time>2026-04-03T17:23:05.683Z</time></trkpt><trkpt lat="41.8884122" lon="13.4479511"><ele>504.0</ele><time>2026-04-03T17:23:06.683Z</time></trkpt><trkpt lat="41.8855465" lon="13.4506309"><ele>503.5</ele><time>2026-04-03T17:23:18.683Z</time></trkpt><trkpt lat="41.8853154" lon="13.4508555"><ele>503.0</ele><time>2026-04-03T17:23:19.682Z</time></trkpt><trkpt lat="41.8850828" lon="13.4510752"><ele>502.5</ele><time>2026-04-03T17:23:20.683Z</time></trkpt><trkpt lat="41.8848524" lon="13.4512886"><ele>502.0</ele><time>2026-04-03T17:23:21.682Z</time></trkpt><trkpt lat="41.8846214" lon="13.4514987"><ele>502.0</ele><time>2026-04-03T17:23:22.683Z</time></trkpt><trkpt lat="41.8843942" lon="13.4517108"><ele>502.0</ele><time>2026-04-03T17:23:23.683Z</time></trkpt><trkpt lat="41.8841653" lon="13.4519268"><ele>504.5</ele><time>2026-04-03T17:23:24.683Z</time></trkpt><trkpt lat="41.8839383" lon="13.4521428"><ele>507.0</ele><time>2026-04-03T17:23:25.682Z</time></trkpt><trkpt lat="41.8837121" lon="13.4523577"><ele>507.0</ele><time>2026-04-03T17:23:26.682Z</time></trkpt><trkpt lat="41.8834853" lon="13.4525799"><ele>507.0</ele><time>2026-04-03T17:23:27.683Z</time></trkpt><trkpt lat="41.8832502" lon="13.4527998"><ele>505.5</ele><time>2026-04-03T17:23:28.682Z</time></trkpt><trkpt lat="41.8830133" lon="13.4530265"><ele>504.0</ele><time>2026-04-03T17:23:29.683Z</time></trkpt><trkpt lat="41.8827785" lon="13.4532473"><ele>499.5</ele><time>2026-04-03T17:23:30.683Z</time></trkpt><trkpt lat="41.8825349" lon="13.4534721"><ele>495.0</ele><time>2026-04-03T17:23:31.683Z</time></trkpt><trkpt lat="41.8822986" lon="13.4537019"><ele>499.5</ele><time>2026-04-03T17:23:32.683Z</time></trkpt><trkpt lat="41.8820578" lon="13.4539386"><ele>504.0</ele><time>2026-04-03T17:23:33.682Z</time></trkpt><trkpt lat="41.8818138" lon="13.4541743"><ele>504.0</ele><time>2026-04-03T17:23:34.682Z</time></trkpt><trkpt lat="41.8815672" lon="13.454407"><ele>504.0</ele><time>2026-04-03T17:23:35.683Z</time></trkpt><trkpt lat="41.8813154" lon="13.4546403"><ele>504.0</ele><time>2026-04-03T17:23:36.683Z</time></trkpt><trkpt lat="41.8810606" lon="13.4548714"><ele>504.0</ele><time>2026-04-03T17:23:37.683Z</time></trkpt><trkpt lat="41.8808018" lon="13.4550899"><ele>501.0</ele><time>2026-04-03T17:23:38.683Z</time></trkpt><trkpt lat="41.8805399" lon="13.4552972"><ele>498.0</ele><time>2026-04-03T17:23:39.683Z</time></trkpt><trkpt lat="41.8802778" lon="13.4554882"><ele>491.0</ele><time>2026-04-03T17:23:40.683Z</time></trkpt><trkpt lat="41.8800062" lon="13.4556594"><ele>484.0</ele><time>2026-04-03T17:23:41.682Z</time></trkpt><trkpt lat="41.8797302" lon="13.4558315"><ele>484.0</ele><time>2026-04-03T17:23:42.683Z</time></trkpt><trkpt lat="41.8794522" lon="13.4559935"><ele>484.0</ele><time>2026-04-03T17:23:43.682Z</time></trkpt><trkpt lat="41.8791723" lon="13.4561504"><ele>489.0</ele><time>2026-04-03T17:23:44.683Z</time></trkpt><trkpt lat="41.8788891" lon="13.4563015"><ele>494.0</ele><time>2026-04-03T17:23:45.683Z</time></trkpt><trkpt lat="41.8786056" lon="13.4564521"><ele>489.5</ele><time>2026-04-03T17:23:46.683Z</time></trkpt><trkpt lat="41.8783224" lon="13.4566009"><ele>485.0</ele><time>2026-04-03T17:23:47.683Z</time></trkpt><trkpt lat="41.8780415" lon="13.4567549"><ele>485.0</ele><time>2026-04-03T17:23:48.683Z</time></trkpt><trkpt lat="41.8777556" lon="13.4569062"><ele>485.0</ele><time>2026-04-03T17:23:49.682Z</time></trkpt><trkpt lat="41.8774734" lon="13.4570546"><ele>483.5</ele><time>2026-04-03T17:23:50.682Z</time></trkpt><trkpt lat="41.8771877" lon="13.4571997"><ele>482.0</ele><time>2026-04-03T17:23:51.683Z</time></trkpt><trkpt lat="41.8769072" lon="13.4573466"><ele>477.0</ele><time>2026-04-03T17:23:52.683Z</time></trkpt><trkpt lat="41.876637" lon="13.457497"><ele>472.0</ele><time>2026-04-03T17:23:53.683Z</time></trkpt><trkpt lat="41.8763607" lon="13.4576435"><ele>472.0</ele><time>2026-04-03T17:23:54.683Z</time></trkpt><trkpt lat="41.8760817" lon="13.4577849"><ele>472.0</ele><time>2026-04-03T17:23:55.683Z</time></trkpt><trkpt lat="41.8758015" lon="13.4579239"><ele>476.5</ele><time>2026-04-03T17:23:56.683Z</time></trkpt><trkpt lat="41.8755196" lon="13.4580672"><ele>481.0</ele><time>2026-04-03T17:23:57.683Z</time></trkpt><trkpt lat="41.8752376" lon="13.4582118"><ele>475.0</ele><time>2026-04-03T17:23:58.682Z</time></trkpt><trkpt lat="41.8749574" lon="13.4583641"><ele>469.0</ele><time>2026-04-03T17:23:59.683Z</time></trkpt><trkpt lat="41.8746783" lon="13.4585177"><ele>469.0</ele><time>2026-04-03T17:24:00.682Z</time></trkpt><trkpt lat="41.8743934" lon="13.4586651"><ele>469.0</ele><time>2026-04-03T17:24:01.682Z</time></trkpt><trkpt lat="41.8741108" lon="13.4588135"><ele>472.0</ele><time>2026-04-03T17:24:02.682Z</time></trkpt><trkpt lat="41.8738314" lon="13.4589599"><ele>475.0</ele><time>2026-04-03T17:24:03.683Z</time></trkpt><trkpt lat="41.8735507" lon="13.4591082"><ele>468.0</ele><time>2026-04-03T17:24:04.682Z</time></trkpt><trkpt lat="41.873278" lon="13.4592556"><ele>461.0</ele><time>2026-04-03T17:24:05.682Z</time></trkpt><trkpt lat="41.8730079" lon="13.4594105"><ele>461.0</ele><time>2026-04-03T17:24:06.682Z</time></trkpt><trkpt lat="41.8727343" lon="13.4595688"><ele>461.0</ele><time>2026-04-03T17:24:07.682Z</time></trkpt><trkpt lat="41.8724616" lon="13.4597402"><ele>466.0</ele><time>2026-04-03T17:24:08.682Z</time></trkpt><trkpt lat="41.8721982" lon="13.459924"><ele>471.0</ele><time>2026-04-03T17:24:09.682Z</time></trkpt><trkpt lat="41.8719408" lon="13.4601213"><ele>472.0</ele><time>2026-04-03T17:24:10.683Z</time></trkpt><trkpt lat="41.871686" lon="13.4603279"><ele>473.0</ele><time>2026-04-03T17:24:11.682Z</time></trkpt><trkpt lat="41.8714341" lon="13.46054"><ele>473.0</ele><time>2026-04-03T17:24:12.682Z</time></trkpt><trkpt lat="41.8711863" lon="13.4607586"><ele>473.0</ele><time>2026-04-03T17:24:13.682Z</time></trkpt><trkpt lat="41.870937" lon="13.4609782"><ele>471.5</ele><time>2026-04-03T17:24:14.683Z</time></trkpt><trkpt lat="41.8706885" lon="13.4611989"><ele>470.0</ele><time>2026-04-03T17:24:15.683Z</time></trkpt><trkpt lat="41.8704399" lon="13.4614133"><ele>470.0</ele><time>2026-04-03T17:24:16.682Z</time></trkpt><trkpt lat="41.8701885" lon="13.4616211"><ele>470.0</ele><time>2026-04-03T17:24:17.682Z</time></trkpt><trkpt lat="41.8699307" lon="13.4618262"><ele>466.0</ele><time>2026-04-03T17:24:18.682Z</time></trkpt><trkpt lat="41.8696672" lon="13.4620226"><ele>462.0</ele><time>2026-04-03T17:24:19.682Z</time></trkpt><trkpt lat="41.8694042" lon="13.4622185"><ele>464.0</ele><time>2026-04-03T17:24:20.683Z</time></trkpt><trkpt lat="41.8691411" lon="13.4624133"><ele>466.0</ele><time>2026-04-03T17:24:21.683Z</time></trkpt><trkpt lat="41.8688686" lon="13.4626042"><ele>466.0</ele><time>2026-04-03T17:24:22.682Z</time></trkpt><trkpt lat="41.8685944" lon="13.4628018"><ele>466.0</ele><time>2026-04-03T17:24:23.683Z</time></trkpt><trkpt lat="41.8683244" lon="13.4629882"><ele>431.0</ele><time>2026-04-03T17:24:24.683Z</time></trkpt><trkpt lat="41.864242" lon="13.465796"><ele>431.0</ele><time>2026-04-03T17:24:40.683Z</time></trkpt><trkpt lat="41.8639872" lon="13.465975"><ele>431.0</ele><time>2026-04-03T17:24:41.683Z</time></trkpt><trkpt lat="41.8637335" lon="13.4661487"><ele>432.0</ele><time>2026-04-03T17:24:42.683Z</time></trkpt><trkpt lat="41.863487" lon="13.4663349"><ele>433.0</ele><time>2026-04-03T17:24:43.683Z</time></trkpt><trkpt lat="41.8632392" lon="13.4665109"><ele>434.0</ele><time>2026-04-03T17:24:44.682Z</time></trkpt><trkpt lat="41.8629849" lon="13.4666891"><ele>435.0</ele><time>2026-04-03T17:24:45.682Z</time></trkpt><trkpt lat="41.8627281" lon="13.4668699"><ele>440.0</ele><time>2026-04-03T17:24:46.683Z</time></trkpt><trkpt lat="41.8624706" lon="13.4670528"><ele>445.0</ele><time>2026-04-03T17:24:47.683Z</time></trkpt><trkpt lat="41.8622081" lon="13.4672354"><ele>445.0</ele><time>2026-04-03T17:24:48.682Z</time></trkpt><trkpt lat="41.8619438" lon="13.4674129"><ele>445.0</ele><time>2026-04-03T17:24:49.683Z</time></trkpt><trkpt lat="41.8616762" lon="13.4676073"><ele>438.0</ele><time>2026-04-03T17:24:50.682Z</time></trkpt><trkpt lat="41.8574964" lon="13.472574"><ele>438.0</ele><time>2026-04-03T17:25:10.683Z</time></trkpt><trkpt lat="41.8573855" lon="13.4729179"><ele>438.0</ele><time>2026-04-03T17:25:11.683Z</time></trkpt><trkpt lat="41.8572833" lon="13.4732687"><ele>438.0</ele><time>2026-04-03T17:25:12.683Z</time></trkpt><trkpt lat="41.8571873" lon="13.4736224"><ele>438.0</ele><time>2026-04-03T17:25:13.683Z</time></trkpt><trkpt lat="41.8571029" lon="13.4739886"><ele>438.0</ele><time>2026-04-03T17:25:14.683Z</time></trkpt><trkpt lat="41.8570319" lon="13.4743604"><ele>438.0</ele><time>2026-04-03T17:25:15.682Z</time></trkpt><trkpt lat="41.8569622" lon="13.4747323"><ele>437.5</ele><time>2026-04-03T17:25:16.682Z</time></trkpt><trkpt lat="41.8569032" lon="13.4751066"><ele>437.0</ele><time>2026-04-03T17:25:17.682Z</time></trkpt><trkpt lat="41.8568458" lon="13.4754857"><ele>436.5</ele><time>2026-04-03T17:25:18.683Z</time></trkpt><trkpt lat="41.8567916" lon="13.4758639"><ele>436.0</ele><time>2026-04-03T17:25:19.682Z</time></trkpt><trkpt lat="41.8567302" lon="13.476239"><ele>437.0</ele><time>2026-04-03T17:25:20.682Z</time></trkpt><trkpt lat="41.8566697" lon="13.4766199"><ele>438.0</ele><time>2026-04-03T17:25:21.683Z</time></trkpt><trkpt lat="41.8566154" lon="13.477006"><ele>436.0</ele><time>2026-04-03T17:25:22.683Z</time></trkpt><trkpt lat="41.8565575" lon="13.4773968"><ele>434.0</ele><time>2026-04-03T17:25:23.683Z</time></trkpt><trkpt lat="41.8564987" lon="13.4777814"><ele>431.5</ele><time>2026-04-03T17:25:24.682Z</time></trkpt><trkpt lat="41.8564397" lon="13.4781679"><ele>429.0</ele><time>2026-04-03T17:25:25.682Z</time></trkpt><trkpt lat="41.8563816" lon="13.4785621"><ele>426.5</ele><time>2026-04-03T17:25:26.683Z</time></trkpt><trkpt lat="41.8563204" lon="13.478958"><ele>424.0</ele><time>2026-04-03T17:25:27.683Z</time></trkpt><trkpt lat="41.8562597" lon="13.47935"><ele>421.5</ele><time>2026-04-03T17:25:28.682Z</time></trkpt><trkpt lat="41.8561973" lon="13.4797424"><ele>419.0</ele><time>2026-04-03T17:25:29.682Z</time></trkpt><trkpt lat="41.8561421" lon="13.48013"><ele>419.0</ele><time>2026-04-03T17:25:30.682Z</time></trkpt><trkpt lat="41.8560825" lon="13.4805182"><ele>419.0</ele><time>2026-04-03T17:25:31.682Z</time></trkpt><trkpt lat="41.8560131" lon="13.4809013"><ele>415.0</ele><time>2026-04-03T17:25:32.683Z</time></trkpt><trkpt lat="41.8559317" lon="13.4812797"><ele>411.0</ele><time>2026-04-03T17:25:33.683Z</time></trkpt><trkpt lat="41.8558377" lon="13.4816524"><ele>411.0</ele><time>2026-04-03T17:25:34.683Z</time></trkpt><trkpt lat="41.8557322" lon="13.4820194"><ele>411.0</ele><time>2026-04-03T17:25:35.682Z</time></trkpt><trkpt lat="41.8556158" lon="13.4823862"><ele>411.0</ele><time>2026-04-03T17:25:36.683Z</time></trkpt><trkpt lat="41.8554948" lon="13.4827491"><ele>411.0</ele><time>2026-04-03T17:25:37.683Z</time></trkpt><trkpt lat="41.8553708" lon="13.4831074"><ele>411.0</ele><time>2026-04-03T17:25:38.683Z</time></trkpt><trkpt lat="41.8552476" lon="13.483465"><ele>411.0</ele><time>2026-04-03T17:25:39.682Z</time></trkpt><trkpt lat="41.8551275" lon="13.4838171"><ele>413.0</ele><time>2026-04-03T17:25:40.683Z</time></trkpt><trkpt lat="41.8550109" lon="13.4841664"><ele>415.0</ele><time>2026-04-03T17:25:41.683Z</time></trkpt><trkpt lat="41.8548918" lon="13.484513"><ele>413.0</ele><time>2026-04-03T17:25:42.683Z</time></trkpt><trkpt lat="41.854766" lon="13.4848606"><ele>411.0</ele><time>2026-04-03T17:25:43.683Z</time></trkpt><trkpt lat="41.8546329" lon="13.485195"><ele>409.5</ele><time>2026-04-03T17:25:44.683Z</time></trkpt><trkpt lat="41.8544904" lon="13.4855273"><ele>408.0</ele><time>2026-04-03T17:25:45.682Z</time></trkpt><trkpt lat="41.8543315" lon="13.4858509"><ele>407.5</ele><time>2026-04-03T17:25:46.683Z</time></trkpt><trkpt lat="41.8541556" lon="13.4861671"><ele>407.0</ele><time>2026-04-03T17:25:47.683Z</time></trkpt><trkpt lat="41.8539695" lon="13.4864708"><ele>407.0</ele><time>2026-04-03T17:25:48.682Z</time></trkpt><trkpt lat="41.8537686" lon="13.4867552"><ele>407.0</ele><time>2026-04-03T17:25:49.682Z</time></trkpt><trkpt lat="41.8535532" lon="13.4870324"><ele>411.0</ele><time>2026-04-03T17:25:50.683Z</time></trkpt><trkpt lat="41.8533279" lon="13.4872975"><ele>415.0</ele><time>2026-04-03T17:25:51.683Z</time></trkpt><trkpt lat="41.8530896" lon="13.4875435"><ele>415.0</ele><time>2026-04-03T17:25:52.683Z</time></trkpt><trkpt lat="41.8528398" lon="13.4877805"><ele>415.0</ele><time>2026-04-03T17:25:53.683Z</time></trkpt><trkpt lat="41.8525827" lon="13.4880054"><ele>415.5</ele><time>2026-04-03T17:25:54.682Z</time></trkpt><trkpt lat="41.8523297" lon="13.4882348"><ele>416.0</ele><time>2026-04-03T17:25:55.683Z</time></trkpt><trkpt lat="41.8520885" lon="13.48849"><ele>415.0</ele><time>2026-04-03T17:25:56.682Z</time></trkpt><trkpt lat="41.8518577" lon="13.4887638"><ele>414.0</ele><time>2026-04-03T17:25:57.682Z</time></trkpt><trkpt lat="41.8516454" lon="13.4890582"><ele>414.0</ele><time>2026-04-03T17:25:58.682Z</time></trkpt><trkpt lat="41.8514395" lon="13.4893548"><ele>414.0</ele><time>2026-04-03T17:25:59.683Z</time></trkpt><trkpt lat="41.8512566" lon="13.4896742"><ele>417.5</ele><time>2026-04-03T17:26:00.683Z</time></trkpt><trkpt lat="41.8511043" lon="13.4900092"><ele>421.0</ele><time>2026-04-03T17:26:01.682Z</time></trkpt><trkpt lat="41.8509718" lon="13.4903446"><ele>415.5</ele><time>2026-04-03T17:26:02.682Z</time></trkpt><trkpt lat="41.850843" lon="13.4906756"><ele>410.0</ele><time>2026-04-03T17:26:03.683Z</time></trkpt><trkpt lat="41.8507297" lon="13.4910163"><ele>411.0</ele><time>2026-04-03T17:26:04.682Z</time></trkpt><trkpt lat="41.8506303" lon="13.491364"><ele>412.0</ele><time>2026-04-03T17:26:05.682Z</time></trkpt><trkpt lat="41.8505303" lon="13.4917145"><ele>412.0</ele><time>2026-04-03T17:26:06.682Z</time></trkpt><trkpt lat="41.8504291" lon="13.4920443"><ele>412.0</ele><time>2026-04-03T17:26:07.682Z</time></trkpt><trkpt lat="41.8503296" lon="13.4923716"><ele>413.5</ele><time>2026-04-03T17:26:08.683Z</time></trkpt><trkpt lat="41.8502286" lon="13.4926999"><ele>415.0</ele><time>2026-04-03T17:26:09.683Z</time></trkpt><trkpt lat="41.8501328" lon="13.4930234"><ele>412.6666666666667</ele><time>2026-04-03T17:26:10.682Z</time></trkpt><trkpt lat="41.8500495" lon="13.4932971"><ele>410.33333333333337</ele><time>2026-04-03T17:26:11.683Z</time></trkpt><trkpt lat="41.8499731" lon="13.4935588"><ele>408.0</ele><time>2026-04-03T17:26:12.683Z</time></trkpt><trkpt lat="41.8498964" lon="13.4938044"><ele>408.0</ele><time>2026-04-03T17:26:13.682Z</time></trkpt><trkpt lat="41.8498153" lon="13.494042"><ele>408.0</ele><time>2026-04-03T17:26:14.682Z</time></trkpt><trkpt lat="41.8497251" lon="13.4942661"><ele>408.0</ele><time>2026-04-03T17:26:15.683Z</time></trkpt><trkpt lat="41.8496312" lon="13.4944992"><ele>408.33333333333337</ele><time>2026-04-03T17:26:16.683Z</time></trkpt><trkpt lat="41.8495382" lon="13.4947147"><ele>408.6666666666667</ele><time>2026-04-03T17:26:17.683Z</time></trkpt><trkpt lat="41.8494518" lon="13.4949112"><ele>409.0</ele><time>2026-04-03T17:26:18.683Z</time></trkpt><trkpt lat="41.8493697" lon="13.4951167"><ele>407.33333333333337</ele><time>2026-04-03T17:26:19.682Z</time></trkpt><trkpt lat="41.849279" lon="13.4953223"><ele>405.66666666666663</ele><time>2026-04-03T17:26:20.683Z</time></trkpt><trkpt lat="41.8491885" lon="13.4955199"><ele>404.0</ele><time>2026-04-03T17:26:21.682Z</time></trkpt><trkpt lat="41.8490936" lon="13.4957057"><ele>404.0</ele><time>2026-04-03T17:26:22.682Z</time></trkpt><trkpt lat="41.8489888" lon="13.4958836"><ele>404.0</ele><time>2026-04-03T17:26:23.682Z</time></trkpt><trkpt lat="41.8488809" lon="13.4960677"><ele>404.0</ele><time>2026-04-03T17:26:24.683Z</time></trkpt><trkpt lat="41.8487672" lon="13.4962492"><ele>405.0</ele><time>2026-04-03T17:26:25.683Z</time></trkpt><trkpt lat="41.8486495" lon="13.4964356"><ele>406.0</ele><time>2026-04-03T17:26:26.683Z</time></trkpt><trkpt lat="41.8485313" lon="13.4966191"><ele>407.0</ele><time>2026-04-03T17:26:27.682Z</time></trkpt><trkpt lat="41.8484264" lon="13.4967888"><ele>406.20000000000005</ele><time>2026-04-03T17:26:28.683Z</time></trkpt><trkpt lat="41.8483402" lon="13.4969281"><ele>405.4</ele><time>2026-04-03T17:26:29.683Z</time></trkpt><trkpt lat="41.8482661" lon="13.4970447"><ele>404.6</ele><time>2026-04-03T17:26:30.683Z</time></trkpt><trkpt lat="41.8482037" lon="13.4971456"><ele>403.79999999999995</ele><time>2026-04-03T17:26:31.683Z</time></trkpt><trkpt lat="41.8481562" lon="13.4972392"><ele>403.0</ele><time>2026-04-03T17:26:32.683Z</time></trkpt><trkpt lat="41.8481293" lon="13.4973183"><ele>403.0</ele><time>2026-04-03T17:26:33.682Z</time></trkpt><trkpt lat="41.848143" lon="13.497446"><ele>403.0</ele><time>2026-04-03T17:26:35.683Z</time></trkpt><trkpt lat="41.8482206" lon="13.4975445"><ele>403.0</ele><time>2026-04-03T17:26:37.683Z</time></trkpt><trkpt lat="41.8483102" lon="13.4976129"><ele>403.0</ele><time>2026-04-03T17:26:38.683Z</time></trkpt><trkpt lat="41.8484253" lon="13.4976517"><ele>403.0</ele><time>2026-04-03T17:26:39.682Z</time></trkpt><trkpt lat="41.8485717" lon="13.4977116"><ele>404.33333333333337</ele><time>2026-04-03T17:26:40.682Z</time></trkpt><trkpt lat="41.8487272" lon="13.4977954"><ele>405.66666666666663</ele><time>2026-04-03T17:26:41.683Z</time></trkpt><trkpt lat="41.848873" lon="13.4978776"><ele>407.0</ele><time>2026-04-03T17:26:42.683Z</time></trkpt><trkpt lat="41.8489905" lon="13.4979605"><ele>408.0</ele><time>2026-04-03T17:26:43.683Z</time></trkpt><trkpt lat="41.8490931" lon="13.4980389"><ele>409.0</ele><time>2026-04-03T17:26:44.683Z</time></trkpt><trkpt lat="41.8491766" lon="13.4981226"><ele>410.0</ele><time>2026-04-03T17:26:45.683Z</time></trkpt><trkpt lat="41.8492436" lon="13.498212"><ele>411.0</ele><time>2026-04-03T17:26:46.682Z</time></trkpt><trkpt lat="41.8492931" lon="13.498298"><ele>412.0</ele><time>2026-04-03T17:26:47.682Z</time></trkpt><trkpt lat="41.8493176" lon="13.4983806"><ele>412.6666666666667</ele><time>2026-04-03T17:26:48.683Z</time></trkpt><trkpt lat="41.8493335" lon="13.498491"><ele>413.33333333333337</ele><time>2026-04-03T17:26:50.682Z</time></trkpt><trkpt lat="41.8493368" lon="13.4985933"><ele>414.0</ele><time>2026-04-03T17:26:52.683Z</time></trkpt><trkpt lat="41.8493207" lon="13.498679"><ele>414.66666666666663</ele><time>2026-04-03T17:26:53.682Z</time></trkpt><trkpt lat="41.8492924" lon="13.4987946"><ele>415.3333333333333</ele><time>2026-04-03T17:26:54.682Z</time></trkpt><trkpt lat="41.8492475" lon="13.498937"><ele>416.0</ele><time>2026-04-03T17:26:55.682Z</time></trkpt><trkpt lat="41.8491829" lon="13.4991146"><ele>416.0</ele><time>2026-04-03T17:26:56.683Z</time></trkpt><trkpt lat="41.8490867" lon="13.4993161"><ele>416.0</ele><time>2026-04-03T17:26:57.683Z</time></trkpt><trkpt lat="41.8489789" lon="13.4995435"><ele>416.0</ele><time>2026-04-03T17:26:58.682Z</time></trkpt><trkpt lat="41.848865" lon="13.4997767"><ele>421.5</ele><time>2026-04-03T17:26:59.683Z</time></trkpt><trkpt lat="41.8487355" lon="13.5000272"><ele>427.0</ele><time>2026-04-03T17:27:00.683Z</time></trkpt><trkpt lat="41.8485908" lon="13.5002824"><ele>423.0</ele><time>2026-04-03T17:27:01.682Z</time></trkpt><trkpt lat="41.8484222" lon="13.5005389"><ele>419.0</ele><time>2026-04-03T17:27:02.683Z</time></trkpt><trkpt lat="41.8482546" lon="13.5007858"><ele>419.0</ele><time>2026-04-03T17:27:03.683Z</time></trkpt><trkpt lat="41.8480942" lon="13.501006"><ele>419.0</ele><time>2026-04-03T17:27:04.683Z</time></trkpt><trkpt lat="41.8479367" lon="13.5011862"><ele>419.0</ele><time>2026-04-03T17:27:05.682Z</time></trkpt><trkpt lat="41.8477689" lon="13.5013198"><ele>418.66666666666663</ele><time>2026-04-03T17:27:06.683Z</time></trkpt><trkpt lat="41.8475735" lon="13.5014224"><ele>418.33333333333337</ele><time>2026-04-03T17:27:07.683Z</time></trkpt><trkpt lat="41.8473892" lon="13.5015172"><ele>418.0</ele><time>2026-04-03T17:27:08.683Z</time></trkpt><trkpt lat="41.8472372" lon="13.5016431"><ele>418.0</ele><time>2026-04-03T17:27:09.683Z</time></trkpt><trkpt lat="41.8471034" lon="13.5017983"><ele>418.0</ele><time>2026-04-03T17:27:10.683Z</time></trkpt><trkpt lat="41.8469742" lon="13.5019787"><ele>418.0</ele><time>2026-04-03T17:27:11.682Z</time></trkpt><trkpt lat="41.8468673" lon="13.5021937"><ele>417.0</ele><time>2026-04-03T17:27:12.683Z</time></trkpt><trkpt lat="41.8467756" lon="13.5024395"><ele>416.0</ele><time>2026-04-03T17:27:13.682Z</time></trkpt><trkpt lat="41.8467029" lon="13.5026776"><ele>415.0</ele><time>2026-04-03T17:27:14.683Z</time></trkpt><trkpt lat="41.8466452" lon="13.502902"><ele>415.33333333333337</ele><time>2026-04-03T17:27:15.682Z</time></trkpt><trkpt lat="41.8466068" lon="13.5031267"><ele>415.66666666666663</ele><time>2026-04-03T17:27:16.683Z</time></trkpt><trkpt lat="41.8465956" lon="13.5033634"><ele>416.0</ele><time>2026-04-03T17:27:17.683Z</time></trkpt><trkpt lat="41.8466086" lon="13.5036012"><ele>415.3333333333333</ele><time>2026-04-03T17:27:18.683Z</time></trkpt><trkpt lat="41.8466406" lon="13.5038107"><ele>414.66666666666663</ele><time>2026-04-03T17:27:19.683Z</time></trkpt><trkpt lat="41.8466845" lon="13.5040142"><ele>414.0</ele><time>2026-04-03T17:27:20.683Z</time></trkpt><trkpt lat="41.8467393" lon="13.5042153"><ele>414.66666666666663</ele><time>2026-04-03T17:27:21.683Z</time></trkpt><trkpt lat="41.846812" lon="13.5044076"><ele>415.3333333333333</ele><time>2026-04-03T17:27:22.683Z</time></trkpt><trkpt lat="41.846902" lon="13.504588"><ele>416.0</ele><time>2026-04-03T17:27:23.682Z</time></trkpt><trkpt lat="41.8470173" lon="13.5047712"><ele>416.0</ele><time>2026-04-03T17:27:24.682Z</time></trkpt><trkpt lat="41.8471303" lon="13.5049302"><ele>416.0</ele><time>2026-04-03T17:27:25.683Z</time></trkpt><trkpt lat="41.847237" lon="13.5050794"><ele>416.0</ele><time>2026-04-03T17:27:26.683Z</time></trkpt><trkpt lat="41.8473315" lon="13.5052159"><ele>416.0</ele><time>2026-04-03T17:27:27.683Z</time></trkpt><trkpt lat="41.8474268" lon="13.5053543"><ele>416.0</ele><time>2026-04-03T17:27:28.683Z</time></trkpt><trkpt lat="41.8475178" lon="13.505494"><ele>416.0</ele><time>2026-04-03T17:27:29.682Z</time></trkpt><trkpt lat="41.8475896" lon="13.5056485"><ele>416.0</ele><time>2026-04-03T17:27:30.683Z</time></trkpt><trkpt lat="41.8476421" lon="13.5058079"><ele>415.5</ele><time>2026-04-03T17:27:31.682Z</time></trkpt><trkpt lat="41.8476619" lon="13.5059778"><ele>415.0</ele><time>2026-04-03T17:27:32.682Z</time></trkpt><trkpt lat="41.8476442" lon="13.506151"><ele>414.5</ele><time>2026-04-03T17:27:33.683Z</time></trkpt><trkpt lat="41.8476007" lon="13.5063488"><ele>414.0</ele><time>2026-04-03T17:27:34.683Z</time></trkpt><trkpt lat="41.8475282" lon="13.5065507"><ele>414.0</ele><time>2026-04-03T17:27:35.683Z</time></trkpt><trkpt lat="41.8474273" lon="13.5067589"><ele>414.0</ele><time>2026-04-03T17:27:36.683Z</time></trkpt><trkpt lat="41.8472939" lon="13.5069777"><ele>414.0</ele><time>2026-04-03T17:27:37.683Z</time></trkpt><trkpt lat="41.8471348" lon="13.5072142"><ele>419.5</ele><time>2026-04-03T17:27:38.682Z</time></trkpt><trkpt lat="41.8469779" lon="13.5074408"><ele>425.0</ele><time>2026-04-03T17:27:39.682Z</time></trkpt><trkpt lat="41.8468271" lon="13.5076561"><ele>422.0</ele><time>2026-04-03T17:27:40.683Z</time></trkpt><trkpt lat="41.8466889" lon="13.5078635"><ele>419.0</ele><time>2026-04-03T17:27:41.683Z</time></trkpt><trkpt lat="41.8465653" lon="13.5080522"><ele>416.0</ele><time>2026-04-03T17:27:42.683Z</time></trkpt><trkpt lat="41.8464607" lon="13.5082268"><ele>416.0</ele><time>2026-04-03T17:27:43.683Z</time></trkpt><trkpt lat="41.8463793" lon="13.5084017"><ele>416.0</ele><time>2026-04-03T17:27:44.682Z</time></trkpt><trkpt lat="41.8463372" lon="13.5086373"><ele>416.0</ele><time>2026-04-03T17:27:45.682Z</time></trkpt><trkpt lat="41.8463169" lon="13.5088672"><ele>419.0</ele><time>2026-04-03T17:27:46.682Z</time></trkpt><trkpt lat="41.8463127" lon="13.5091149"><ele>422.0</ele><time>2026-04-03T17:27:47.683Z</time></trkpt><trkpt lat="41.8463022" lon="13.5093416"><ele>425.0</ele><time>2026-04-03T17:27:48.683Z</time></trkpt><trkpt lat="41.8462716" lon="13.5095403"><ele>428.0</ele><time>2026-04-03T17:27:49.683Z</time></trkpt><trkpt lat="41.8462073" lon="13.509701"><ele>431.0</ele><time>2026-04-03T17:27:50.682Z</time></trkpt><trkpt lat="41.8461257" lon="13.5098392"><ele>434.0</ele><time>2026-04-03T17:27:51.683Z</time></trkpt><trkpt lat="41.8460325" lon="13.5099495"><ele>437.0</ele><time>2026-04-03T17:27:52.683Z</time></trkpt><trkpt lat="41.8459238" lon="13.5100323"><ele>430.5</ele><time>2026-04-03T17:27:53.683Z</time></trkpt><trkpt lat="41.8458141" lon="13.510103"><ele>424.0</ele><time>2026-04-03T17:27:54.682Z</time></trkpt><trkpt lat="41.845711" lon="13.5101695"><ele>417.5</ele><time>2026-04-03T17:27:55.683Z</time></trkpt><trkpt lat="41.8456168" lon="13.5102477"><ele>411.0</ele><time>2026-04-03T17:27:56.682Z</time></trkpt><trkpt lat="41.8455354" lon="13.5103617"><ele>416.0</ele><time>2026-04-03T17:27:57.683Z</time></trkpt><trkpt lat="41.8454576" lon="13.5105218"><ele>421.0</ele><time>2026-04-03T17:27:58.682Z</time></trkpt><trkpt lat="41.8453777" lon="13.5107414"><ele>426.0</ele><time>2026-04-03T17:27:59.683Z</time></trkpt><trkpt lat="41.8452908" lon="13.5109806"><ele>426.0</ele><time>2026-04-03T17:28:00.683Z</time></trkpt><trkpt lat="41.8452011" lon="13.5111988"><ele>426.0</ele><time>2026-04-03T17:28:01.682Z</time></trkpt><trkpt lat="41.8450993" lon="13.5114052"><ele>426.0</ele><time>2026-04-03T17:28:02.683Z</time></trkpt><trkpt lat="41.8449855" lon="13.511607"><ele>426.0</ele><time>2026-04-03T17:28:03.683Z</time></trkpt><trkpt lat="41.8448826" lon="13.5117924"><ele>426.0</ele><time>2026-04-03T17:28:04.683Z</time></trkpt><trkpt lat="41.8448177" lon="13.5119795"><ele>426.0</ele><time>2026-04-03T17:28:05.683Z</time></trkpt><trkpt lat="41.8447672" lon="13.5121562"><ele>426.0</ele><time>2026-04-03T17:28:06.682Z</time></trkpt><trkpt lat="41.8447327" lon="13.5123187"><ele>426.0</ele><time>2026-04-03T17:28:07.683Z</time></trkpt><trkpt lat="41.844696" lon="13.5124676"><ele>426.0</ele><time>2026-04-03T17:28:08.683Z</time></trkpt><trkpt lat="41.8446437" lon="13.5126221"><ele>426.0</ele><time>2026-04-03T17:28:09.683Z</time></trkpt><trkpt lat="41.8445864" lon="13.5127639"><ele>426.0</ele><time>2026-04-03T17:28:10.683Z</time></trkpt><trkpt lat="41.8445126" lon="13.5128907"><ele>426.0</ele><time>2026-04-03T17:28:11.683Z</time></trkpt><trkpt lat="41.8444311" lon="13.513017"><ele>426.0</ele><time>2026-04-03T17:28:12.683Z</time></trkpt><trkpt lat="41.8443337" lon="13.513116"><ele>426.0</ele><time>2026-04-03T17:28:13.683Z</time></trkpt><trkpt lat="41.8442308" lon="13.5131947"><ele>422.5</ele><time>2026-04-03T17:28:14.683Z</time></trkpt><trkpt lat="41.8441314" lon="13.5132796"><ele>419.0</ele><time>2026-04-03T17:28:15.682Z</time></trkpt><trkpt lat="41.8440393" lon="13.5133803"><ele>415.5</ele><time>2026-04-03T17:28:16.683Z</time></trkpt><trkpt lat="41.8439595" lon="13.5135097"><ele>412.0</ele><time>2026-04-03T17:28:17.683Z</time></trkpt><trkpt lat="41.8438923" lon="13.5136621"><ele>414.6</ele><time>2026-04-03T17:28:18.683Z</time></trkpt><trkpt lat="41.8438347" lon="13.513809"><ele>417.20000000000005</ele><time>2026-04-03T17:28:19.683Z</time></trkpt><trkpt lat="41.8437778" lon="13.5139417"><ele>419.8</ele><time>2026-04-03T17:28:20.682Z</time></trkpt><trkpt lat="41.8437351" lon="13.5140735"><ele>422.4</ele><time>2026-04-03T17:28:21.682Z</time></trkpt><trkpt lat="41.8437054" lon="13.5141917"><ele>425.0</ele><time>2026-04-03T17:28:22.683Z</time></trkpt><trkpt lat="41.8436917" lon="13.5143057"><ele>424.99999999999994</ele><time>2026-04-03T17:28:23.683Z</time></trkpt><trkpt lat="41.8437126" lon="13.51441"><ele>425.0</ele><time>2026-04-03T17:28:24.682Z</time></trkpt><trkpt lat="41.8437576" lon="13.5145062"><ele>425.0</ele><time>2026-04-03T17:28:25.683Z</time></trkpt><trkpt lat="41.8438131" lon="13.5145889"><ele>425.0</ele><time>2026-04-03T17:28:26.683Z</time></trkpt><trkpt lat="41.8438546" lon="13.5146717"><ele>424.99999999999994</ele><time>2026-04-03T17:28:27.683Z</time></trkpt><trkpt lat="41.8438659" lon="13.5147753"><ele>425.0</ele><time>2026-04-03T17:28:28.683Z</time></trkpt><trkpt lat="41.8438432" lon="13.5148662"><ele>424.8</ele><time>2026-04-03T17:28:29.682Z</time></trkpt><trkpt lat="41.8437905" lon="13.5149388"><ele>424.6</ele><time>2026-04-03T17:28:30.683Z</time></trkpt><trkpt lat="41.8437185" lon="13.5149762"><ele>424.4</ele><time>2026-04-03T17:28:31.683Z</time></trkpt><trkpt lat="41.8436343" lon="13.5150108"><ele>424.2</ele><time>2026-04-03T17:28:32.682Z</time></trkpt><trkpt lat="41.8435333" lon="13.5150435"><ele>424.0</ele><time>2026-04-03T17:28:33.682Z</time></trkpt><trkpt lat="41.8434301" lon="13.515083"><ele>426.0</ele><time>2026-04-03T17:28:34.682Z</time></trkpt><trkpt lat="41.8433115" lon="13.5151564"><ele>428.0</ele><time>2026-04-03T17:28:35.683Z</time></trkpt><trkpt lat="41.8431687" lon="13.5152724"><ele>430.0</ele><time>2026-04-03T17:28:36.683Z</time></trkpt><trkpt lat="41.843001" lon="13.5154221"><ele>430.0</ele><time>2026-04-03T17:28:37.683Z</time></trkpt><trkpt lat="41.8428184" lon="13.5155845"><ele>430.0</ele><time>2026-04-03T17:28:38.683Z</time></trkpt><trkpt lat="41.8426506" lon="13.5157768"><ele>430.0</ele><time>2026-04-03T17:28:39.682Z</time></trkpt><trkpt lat="41.8425007" lon="13.5159863"><ele>425.6666666666667</ele><time>2026-04-03T17:28:40.683Z</time></trkpt><trkpt lat="41.8423855" lon="13.5161816"><ele>421.33333333333337</ele><time>2026-04-03T17:28:41.682Z</time></trkpt><trkpt lat="41.8423166" lon="13.5163836"><ele>417.0</ele><time>2026-04-03T17:28:42.683Z</time></trkpt><trkpt lat="41.8422818" lon="13.5165812"><ele>417.0</ele><time>2026-04-03T17:28:43.683Z</time></trkpt><trkpt lat="41.8422761" lon="13.5167686"><ele>417.0</ele><time>2026-04-03T17:28:44.683Z</time></trkpt><trkpt lat="41.8422658" lon="13.5169308"><ele>417.0</ele><time>2026-04-03T17:28:45.683Z</time></trkpt><trkpt lat="41.8422165" lon="13.5170488"><ele>417.0</ele><time>2026-04-03T17:28:46.682Z</time></trkpt><trkpt lat="41.8421175" lon="13.5171132"><ele>420.66666666666663</ele><time>2026-04-03T17:28:47.683Z</time></trkpt><trkpt lat="41.8419899" lon="13.5171638"><ele>424.3333333333333</ele><time>2026-04-03T17:28:48.683Z</time></trkpt><trkpt lat="41.8418486" lon="13.5172565"><ele>428.0</ele><time>2026-04-03T17:28:49.683Z</time></trkpt><trkpt lat="41.8417024" lon="13.5174202"><ele>425.0</ele><time>2026-04-03T17:28:50.682Z</time></trkpt><trkpt lat="41.8415949" lon="13.5175993"><ele>422.0</ele><time>2026-04-03T17:28:51.683Z</time></trkpt><trkpt lat="41.8415113" lon="13.5178038"><ele>419.0</ele><time>2026-04-03T17:28:52.683Z</time></trkpt><trkpt lat="41.8414511" lon="13.5180443"><ele>419.0</ele><time>2026-04-03T17:28:53.682Z</time></trkpt><trkpt lat="41.8413918" lon="13.5183116"><ele>419.0</ele><time>2026-04-03T17:28:54.683Z</time></trkpt><trkpt lat="41.8412948" lon="13.5185918"><ele>419.0</ele><time>2026-04-03T17:28:55.683Z</time></trkpt><trkpt lat="41.8411732" lon="13.5188785"><ele>424.5</ele><time>2026-04-03T17:28:56.682Z</time></trkpt><trkpt lat="41.8410669" lon="13.5191477"><ele>430.0</ele><time>2026-04-03T17:28:57.682Z</time></trkpt><trkpt lat="41.8409739" lon="13.5194201"><ele>421.33333333333337</ele><time>2026-04-03T17:28:58.683Z</time></trkpt><trkpt lat="41.8408921" lon="13.5196859"><ele>412.66666666666663</ele><time>2026-04-03T17:28:59.682Z</time></trkpt><trkpt lat="41.8408349" lon="13.5199309"><ele>404.0</ele><time>2026-04-03T17:29:00.683Z</time></trkpt><trkpt lat="41.8408138" lon="13.5201464"><ele>404.0</ele><time>2026-04-03T17:29:01.683Z</time></trkpt><trkpt lat="41.8408263" lon="13.5203354"><ele>404.0</ele><time>2026-04-03T17:29:02.682Z</time></trkpt><trkpt lat="41.8408773" lon="13.5204935"><ele>404.0</ele><time>2026-04-03T17:29:03.683Z</time></trkpt><trkpt lat="41.8409774" lon="13.5206291"><ele>404.0</ele><time>2026-04-03T17:29:04.683Z</time></trkpt><trkpt lat="41.8411244" lon="13.5207553"><ele>413.5</ele><time>2026-04-03T17:29:05.683Z</time></trkpt><trkpt lat="41.8413068" lon="13.5209175"><ele>423.0</ele><time>2026-04-03T17:29:06.683Z</time></trkpt><trkpt lat="41.8415188" lon="13.5211098"><ele>417.5</ele><time>2026-04-03T17:29:07.682Z</time></trkpt><trkpt lat="41.8417285" lon="13.5213015"><ele>412.0</ele><time>2026-04-03T17:29:08.682Z</time></trkpt><trkpt lat="41.8419018" lon="13.5214548"><ele>412.0</ele><time>2026-04-03T17:29:09.682Z</time></trkpt><trkpt lat="41.8420327" lon="13.5215842"><ele>412.0</ele><time>2026-04-03T17:29:10.683Z</time></trkpt><trkpt lat="41.8421256" lon="13.5216938"><ele>412.0</ele><time>2026-04-03T17:29:11.682Z</time></trkpt><trkpt lat="41.8421776" lon="13.5218219"><ele>412.0</ele><time>2026-04-03T17:29:12.682Z</time></trkpt><trkpt lat="41.8422034" lon="13.5219533"><ele>411.25</ele><time>2026-04-03T17:29:13.683Z</time></trkpt><trkpt lat="41.8421825" lon="13.5220905"><ele>410.5</ele><time>2026-04-03T17:29:14.683Z</time></trkpt><trkpt lat="41.842111" lon="13.5222014"><ele>409.75</ele><time>2026-04-03T17:29:15.683Z</time></trkpt><trkpt lat="41.8420018" lon="13.5222732"><ele>409.0</ele><time>2026-04-03T17:29:16.683Z</time></trkpt><trkpt lat="41.8418614" lon="13.5222927"><ele>408.33333333333337</ele><time>2026-04-03T17:29:17.683Z</time></trkpt><trkpt lat="41.8416947" lon="13.5222507"><ele>407.66666666666663</ele><time>2026-04-03T17:29:18.683Z</time></trkpt><trkpt lat="41.8415127" lon="13.5221512"><ele>407.0</ele><time>2026-04-03T17:29:19.683Z</time></trkpt><trkpt lat="41.8413275" lon="13.5220149"><ele>407.0</ele><time>2026-04-03T17:29:20.683Z</time></trkpt><trkpt lat="41.8411555" lon="13.5218761"><ele>407.0</ele><time>2026-04-03T17:29:21.682Z</time></trkpt><trkpt lat="41.8409868" lon="13.5217806"><ele>407.0</ele><time>2026-04-03T17:29:22.683Z</time></trkpt><trkpt lat="41.8408162" lon="13.5217196"><ele>406.5</ele><time>2026-04-03T17:29:23.683Z</time></trkpt><trkpt lat="41.8406555" lon="13.5216811"><ele>406.0</ele><time>2026-04-03T17:29:24.682Z</time></trkpt><trkpt lat="41.8405155" lon="13.5216781"><ele>405.5</ele><time>2026-04-03T17:29:25.683Z</time></trkpt><trkpt lat="41.8403826" lon="13.5217144"><ele>405.0</ele><time>2026-04-03T17:29:26.682Z</time></trkpt><trkpt lat="41.8402598" lon="13.521788"><ele>405.0</ele><time>2026-04-03T17:29:27.682Z</time></trkpt><trkpt lat="41.8401765" lon="13.5219441"><ele>405.0</ele><time>2026-04-03T17:29:28.682Z</time></trkpt><trkpt lat="41.8400935" lon="13.5221669"><ele>405.0</ele><time>2026-04-03T17:29:29.683Z</time></trkpt><trkpt lat="41.840003" lon="13.5223653"><ele>405.75</ele><time>2026-04-03T17:29:30.682Z</time></trkpt><trkpt lat="41.8398915" lon="13.5225287"><ele>406.5</ele><time>2026-04-03T17:29:31.683Z</time></trkpt><trkpt lat="41.8397816" lon="13.5226621"><ele>407.25</ele><time>2026-04-03T17:29:32.682Z</time></trkpt><trkpt lat="41.8397133" lon="13.5228095"><ele>408.0</ele><time>2026-04-03T17:29:33.683Z</time></trkpt><trkpt lat="41.8396913" lon="13.5229531"><ele>410.25</ele><time>2026-04-03T17:29:34.683Z</time></trkpt><trkpt lat="41.8397107" lon="13.5231188"><ele>412.5</ele><time>2026-04-03T17:29:35.683Z</time></trkpt><trkpt lat="41.8397726" lon="13.523311"><ele>414.75</ele><time>2026-04-03T17:29:36.683Z</time></trkpt><trkpt lat="41.8398387" lon="13.5235157"><ele>417.0</ele><time>2026-04-03T17:29:37.683Z</time></trkpt><trkpt lat="41.8398534" lon="13.523731"><ele>417.33333333333337</ele><time>2026-04-03T17:29:38.683Z</time></trkpt><trkpt lat="41.8398301" lon="13.5239621"><ele>417.6666666666667</ele><time>2026-04-03T17:29:39.682Z</time></trkpt><trkpt lat="41.8398173" lon="13.5242339"><ele>418.0</ele><time>2026-04-03T17:29:40.683Z</time></trkpt><trkpt lat="41.8398218" lon="13.5244857"><ele>418.0</ele><time>2026-04-03T17:29:41.683Z</time></trkpt><trkpt lat="41.8398298" lon="13.5246856"><ele>418.0</ele><time>2026-04-03T17:29:42.682Z</time></trkpt><trkpt lat="41.8398083" lon="13.5248508"><ele>418.0</ele><time>2026-04-03T17:29:43.683Z</time></trkpt><trkpt lat="41.8397635" lon="13.5249923"><ele>418.0</ele><time>2026-04-03T17:29:44.683Z</time></trkpt><trkpt lat="41.8396866" lon="13.5250759"><ele>418.0</ele><time>2026-04-03T17:29:45.683Z</time></trkpt><trkpt lat="41.8395892" lon="13.5250696"><ele>418.0</ele><time>2026-04-03T17:29:46.682Z</time></trkpt><trkpt lat="41.8395096" lon="13.5250018"><ele>418.0</ele><time>2026-04-03T17:29:47.682Z</time></trkpt><trkpt lat="41.8394647" lon="13.524872"><ele>418.0</ele><time>2026-04-03T17:29:48.683Z</time></trkpt><trkpt lat="41.8394226" lon="13.5246743"><ele>418.0</ele><time>2026-04-03T17:29:49.683Z</time></trkpt><trkpt lat="41.8393867" lon="13.5244488"><ele>418.0</ele><time>2026-04-03T17:29:50.682Z</time></trkpt><trkpt lat="41.8393434" lon="13.5242506"><ele>418.0</ele><time>2026-04-03T17:29:51.682Z</time></trkpt><trkpt lat="41.8392818" lon="13.5241003"><ele>414.5</ele><time>2026-04-03T17:29:52.683Z</time></trkpt><trkpt lat="41.8391947" lon="13.5239985"><ele>411.0</ele><time>2026-04-03T17:29:53.682Z</time></trkpt><trkpt lat="41.839086" lon="13.5239458"><ele>407.5</ele><time>2026-04-03T17:29:54.683Z</time></trkpt><trkpt lat="41.8389381" lon="13.5239102"><ele>404.0</ele><time>2026-04-03T17:29:55.683Z</time></trkpt><trkpt lat="41.8387609" lon="13.5239112"><ele>404.0</ele><time>2026-04-03T17:29:56.683Z</time></trkpt><trkpt lat="41.8385861" lon="13.5239666"><ele>404.0</ele><time>2026-04-03T17:29:57.682Z</time></trkpt><trkpt lat="41.8383991" lon="13.5240898"><ele>404.0</ele><time>2026-04-03T17:29:58.683Z</time></trkpt><trkpt lat="41.8381925" lon="13.5242615"><ele>403.0</ele><time>2026-04-03T17:29:59.683Z</time></trkpt><trkpt lat="41.8379612" lon="13.5244492"><ele>402.0</ele><time>2026-04-03T17:30:00.682Z</time></trkpt><trkpt lat="41.837737" lon="13.524618"><ele>404.33333333333337</ele><time>2026-04-03T17:30:01.683Z</time></trkpt><trkpt lat="41.8375381" lon="13.5247515"><ele>406.6666666666667</ele><time>2026-04-03T17:30:02.682Z</time></trkpt><trkpt lat="41.8373621" lon="13.5248592"><ele>409.0</ele><time>2026-04-03T17:30:03.682Z</time></trkpt><trkpt lat="41.8372127" lon="13.5249599"><ele>409.0</ele><time>2026-04-03T17:30:04.682Z</time></trkpt><trkpt lat="41.8370978" lon="13.5250773"><ele>409.0</ele><time>2026-04-03T17:30:05.682Z</time></trkpt><trkpt lat="41.8370104" lon="13.5252688"><ele>409.0</ele><time>2026-04-03T17:30:06.682Z</time></trkpt><trkpt lat="41.8369163" lon="13.5255092"><ele>408.0</ele><time>2026-04-03T17:30:07.683Z</time></trkpt><trkpt lat="41.8368032" lon="13.5257175"><ele>407.0</ele><time>2026-04-03T17:30:08.683Z</time></trkpt><trkpt lat="41.836663" lon="13.5258733"><ele>406.0</ele><time>2026-04-03T17:30:09.682Z</time></trkpt><trkpt lat="41.8365147" lon="13.5259845"><ele>406.0</ele><time>2026-04-03T17:30:10.683Z</time></trkpt><trkpt lat="41.8363461" lon="13.5260522"><ele>406.0</ele><time>2026-04-03T17:30:11.683Z</time></trkpt><trkpt lat="41.8361828" lon="13.5261284"><ele>406.0</ele><time>2026-04-03T17:30:12.683Z</time></trkpt><trkpt lat="41.8360333" lon="13.5262452"><ele>404.33333333333337</ele><time>2026-04-03T17:30:13.683Z</time></trkpt><trkpt lat="41.8359003" lon="13.5264101"><ele>402.66666666666663</ele><time>2026-04-03T17:30:14.683Z</time></trkpt><trkpt lat="41.835798" lon="13.5265945"><ele>401.0</ele><time>2026-04-03T17:30:15.683Z</time></trkpt><trkpt lat="41.8357294" lon="13.526773"><ele>401.0</ele><time>2026-04-03T17:30:16.683Z</time></trkpt><trkpt lat="41.8357039" lon="13.5269834"><ele>401.0</ele><time>2026-04-03T17:30:17.682Z</time></trkpt><trkpt lat="41.8357032" lon="13.5272185"><ele>401.0</ele><time>2026-04-03T17:30:18.683Z</time></trkpt><trkpt lat="41.8357091" lon="13.5274718"><ele>402.75</ele><time>2026-04-03T17:30:19.683Z</time></trkpt><trkpt lat="41.8357034" lon="13.5277017"><ele>404.5</ele><time>2026-04-03T17:30:20.683Z</time></trkpt><trkpt lat="41.8356718" lon="13.5278835"><ele>406.25</ele><time>2026-04-03T17:30:21.683Z</time></trkpt><trkpt lat="41.8356187" lon="13.5280169"><ele>408.0</ele><time>2026-04-03T17:30:22.682Z</time></trkpt><trkpt lat="41.8355321" lon="13.5281101"><ele>409.5</ele><time>2026-04-03T17:30:23.682Z</time></trkpt><trkpt lat="41.8354242" lon="13.5281657"><ele>411.0</ele><time>2026-04-03T17:30:24.682Z</time></trkpt><trkpt lat="41.8352786" lon="13.5281453"><ele>412.5</ele><time>2026-04-03T17:30:25.683Z</time></trkpt><trkpt lat="41.8351501" lon="13.5280857"><ele>414.0</ele><time>2026-04-03T17:30:26.683Z</time></trkpt><trkpt lat="41.8350437" lon="13.5279903"><ele>409.75</ele><time>2026-04-03T17:30:27.682Z</time></trkpt><trkpt lat="41.8349667" lon="13.5278428"><ele>405.5</ele><time>2026-04-03T17:30:28.683Z</time></trkpt><trkpt lat="41.8348933" lon="13.5277067"><ele>401.25</ele><time>2026-04-03T17:30:29.683Z</time></trkpt><trkpt lat="41.8347927" lon="13.5276274"><ele>397.0</ele><time>2026-04-03T17:30:30.683Z</time></trkpt><trkpt lat="41.8346705" lon="13.5275899"><ele>397.0</ele><time>2026-04-03T17:30:31.683Z</time></trkpt><trkpt lat="41.8345526" lon="13.5276045"><ele>397.0</ele><time>2026-04-03T17:30:32.683Z</time></trkpt><trkpt lat="41.8344593" lon="13.5276731"><ele>397.0</ele><time>2026-04-03T17:30:33.682Z</time></trkpt><trkpt lat="41.8343766" lon="13.5278081"><ele>397.0</ele><time>2026-04-03T17:30:34.682Z</time></trkpt><trkpt lat="41.8342846" lon="13.5279996"><ele>398.33333333333337</ele><time>2026-04-03T17:30:35.683Z</time></trkpt><trkpt lat="41.8341653" lon="13.5282027"><ele>399.66666666666663</ele><time>2026-04-03T17:30:36.682Z</time></trkpt><trkpt lat="41.8340101" lon="13.5284131"><ele>401.0</ele><time>2026-04-03T17:30:37.683Z</time></trkpt><trkpt lat="41.8338433" lon="13.5286266"><ele>398.66666666666663</ele><time>2026-04-03T17:30:38.683Z</time></trkpt><trkpt lat="41.8336756" lon="13.5288362"><ele>396.33333333333337</ele><time>2026-04-03T17:30:39.683Z</time></trkpt><trkpt lat="41.8335441" lon="13.5290351"><ele>394.0</ele><time>2026-04-03T17:30:40.683Z</time></trkpt><trkpt lat="41.8334272" lon="13.5292015"><ele>394.0</ele><time>2026-04-03T17:30:41.682Z</time></trkpt><trkpt lat="41.8333024" lon="13.5293283"><ele>394.0</ele><time>2026-04-03T17:30:42.682Z</time></trkpt><trkpt lat="41.8331391" lon="13.5294268"><ele>394.0</ele><time>2026-04-03T17:30:43.683Z</time></trkpt><trkpt lat="41.8329405" lon="13.529489"><ele>401.0</ele><time>2026-04-03T17:30:44.682Z</time></trkpt><trkpt lat="41.8327277" lon="13.5295726"><ele>408.0</ele><time>2026-04-03T17:30:45.683Z</time></trkpt><trkpt lat="41.8325072" lon="13.529667"><ele>408.0</ele><time>2026-04-03T17:30:46.683Z</time></trkpt><trkpt lat="41.8322962" lon="13.5297462"><ele>408.0</ele><time>2026-04-03T17:30:47.683Z</time></trkpt><trkpt lat="41.832071" lon="13.5297801"><ele>408.0</ele><time>2026-04-03T17:30:48.683Z</time></trkpt><trkpt lat="41.8318448" lon="13.5297951"><ele>403.0</ele><time>2026-04-03T17:30:49.683Z</time></trkpt><trkpt lat="41.8316235" lon="13.5298009"><ele>398.0</ele><time>2026-04-03T17:30:50.683Z</time></trkpt><trkpt lat="41.8314243" lon="13.5298185"><ele>393.0</ele><time>2026-04-03T17:30:51.683Z</time></trkpt><trkpt lat="41.8312518" lon="13.5298418"><ele>393.0</ele><time>2026-04-03T17:30:52.683Z</time></trkpt><trkpt lat="41.8310976" lon="13.5299015"><ele>393.0</ele><time>2026-04-03T17:30:53.682Z</time></trkpt><trkpt lat="41.8309452" lon="13.5300182"><ele>393.0</ele><time>2026-04-03T17:30:54.683Z</time></trkpt><trkpt lat="41.8308046" lon="13.5301668"><ele>389.75</ele><time>2026-04-03T17:30:55.683Z</time></trkpt><trkpt lat="41.8306838" lon="13.5302644"><ele>386.5</ele><time>2026-04-03T17:30:56.683Z</time></trkpt><trkpt lat="41.8305492" lon="13.5302958"><ele>383.25</ele><time>2026-04-03T17:30:57.682Z</time></trkpt><trkpt lat="41.8304012" lon="13.5302915"><ele>380.0</ele><time>2026-04-03T17:30:58.683Z</time></trkpt><trkpt lat="41.8302408" lon="13.5302823"><ele>379.0</ele><time>2026-04-03T17:30:59.683Z</time></trkpt><trkpt lat="41.8300643" lon="13.5303476"><ele>378.0</ele><time>2026-04-03T17:31:00.682Z</time></trkpt><trkpt lat="41.8298786" lon="13.5304674"><ele>377.0</ele><time>2026-04-03T17:31:01.682Z</time></trkpt><trkpt lat="41.8296851" lon="13.5306252"><ele>375.6666666666667</ele><time>2026-04-03T17:31:02.683Z</time></trkpt><trkpt lat="41.8295242" lon="13.5307959"><ele>374.3333333333333</ele><time>2026-04-03T17:31:03.683Z</time></trkpt><trkpt lat="41.8294009" lon="13.5309645"><ele>373.0</ele><time>2026-04-03T17:31:04.682Z</time></trkpt><trkpt lat="41.8292961" lon="13.5311409"><ele>373.75</ele><time>2026-04-03T17:31:05.683Z</time></trkpt><trkpt lat="41.8292168" lon="13.5313213"><ele>374.5</ele><time>2026-04-03T17:31:06.683Z</time></trkpt><trkpt lat="41.8291758" lon="13.531502"><ele>375.25</ele><time>2026-04-03T17:31:07.683Z</time></trkpt><trkpt lat="41.8291642" lon="13.5316655"><ele>376.0</ele><time>2026-04-03T17:31:08.683Z</time></trkpt><trkpt lat="41.8292149" lon="13.5318477"><ele>374.0</ele><time>2026-04-03T17:31:09.683Z</time></trkpt><trkpt lat="41.8292969" lon="13.5320683"><ele>372.0</ele><time>2026-04-03T17:31:10.683Z</time></trkpt><trkpt lat="41.8293779" lon="13.5322964"><ele>370.0</ele><time>2026-04-03T17:31:11.683Z</time></trkpt><trkpt lat="41.8294284" lon="13.5325059"><ele>372.66666666666663</ele><time>2026-04-03T17:31:12.683Z</time></trkpt><trkpt lat="41.8294879" lon="13.5326835"><ele>375.3333333333333</ele><time>2026-04-03T17:31:13.683Z</time></trkpt><trkpt lat="41.8295976" lon="13.5328535"><ele>378.0</ele><time>2026-04-03T17:31:14.683Z</time></trkpt><trkpt lat="41.829753" lon="13.5330127"><ele>378.0</ele><time>2026-04-03T17:31:15.683Z</time></trkpt><trkpt lat="41.8299571" lon="13.5331492"><ele>378.0</ele><time>2026-04-03T17:31:16.683Z</time></trkpt><trkpt lat="41.8301923" lon="13.5332837"><ele>387.5</ele><time>2026-04-03T17:31:17.682Z</time></trkpt><trkpt lat="41.8304352" lon="13.5334301"><ele>397.0</ele><time>2026-04-03T17:31:18.682Z</time></trkpt><trkpt lat="41.8306549" lon="13.5335833"><ele>397.0</ele><time>2026-04-03T17:31:19.683Z</time></trkpt><trkpt lat="41.8308395" lon="13.5337028"><ele>397.0</ele><time>2026-04-03T17:31:20.682Z</time></trkpt><trkpt lat="41.8310027" lon="13.533805"><ele>397.0</ele><time>2026-04-03T17:31:21.683Z</time></trkpt><trkpt lat="41.8311508" lon="13.5338864"><ele>394.25</ele><time>2026-04-03T17:31:22.683Z</time></trkpt><trkpt lat="41.8312899" lon="13.5339678"><ele>391.5</ele><time>2026-04-03T17:31:23.683Z</time></trkpt><trkpt lat="41.8314013" lon="13.534059"><ele>388.75</ele><time>2026-04-03T17:31:24.682Z</time></trkpt><trkpt lat="41.8314671" lon="13.5341706"><ele>386.0</ele><time>2026-04-03T17:31:25.683Z</time></trkpt><trkpt lat="41.8314975" lon="13.5342877"><ele>386.0</ele><time>2026-04-03T17:31:26.682Z</time></trkpt><trkpt lat="41.8314925" lon="13.5344193"><ele>386.0</ele><time>2026-04-03T17:31:27.682Z</time></trkpt><trkpt lat="41.8314186" lon="13.5345404"><ele>386.0</ele><time>2026-04-03T17:31:28.682Z</time></trkpt><trkpt lat="41.831299" lon="13.5346509"><ele>386.0</ele><time>2026-04-03T17:31:29.683Z</time></trkpt><trkpt lat="41.8311484" lon="13.5347419"><ele>386.25</ele><time>2026-04-03T17:31:30.683Z</time></trkpt><trkpt lat="41.8309972" lon="13.5347746"><ele>386.5</ele><time>2026-04-03T17:31:31.683Z</time></trkpt><trkpt lat="41.8308571" lon="13.5347786"><ele>386.75</ele><time>2026-04-03T17:31:32.682Z</time></trkpt><trkpt lat="41.8307153" lon="13.534791"><ele>387.0</ele><time>2026-04-03T17:31:33.683Z</time></trkpt><trkpt lat="41.8305777" lon="13.5348514"><ele>383.6666666666667</ele><time>2026-04-03T17:31:34.683Z</time></trkpt><trkpt lat="41.8304777" lon="13.5349597"><ele>380.33333333333337</ele><time>2026-04-03T17:31:35.683Z</time></trkpt><trkpt lat="41.8303919" lon="13.5351314"><ele>377.0</ele><time>2026-04-03T17:31:36.682Z</time></trkpt><trkpt lat="41.8303384" lon="13.5353479"><ele>382.0</ele><time>2026-04-03T17:31:37.682Z</time></trkpt><trkpt lat="41.8303057" lon="13.5355935"><ele>387.0</ele><time>2026-04-03T17:31:38.682Z</time></trkpt><trkpt lat="41.8303023" lon="13.5358565"><ele>392.0</ele><time>2026-04-03T17:31:39.683Z</time></trkpt><trkpt lat="41.8302964" lon="13.536083"><ele>395.3333333333333</ele><time>2026-04-03T17:31:40.683Z</time></trkpt><trkpt lat="41.8302729" lon="13.536272"><ele>398.66666666666663</ele><time>2026-04-03T17:31:41.683Z</time></trkpt><trkpt lat="41.8302134" lon="13.5364449"><ele>402.0</ele><time>2026-04-03T17:31:42.682Z</time></trkpt><trkpt lat="41.8301158" lon="13.5366233"><ele>398.33333333333337</ele><time>2026-04-03T17:31:43.682Z</time></trkpt><trkpt lat="41.8299754" lon="13.5368201"><ele>394.6666666666667</ele><time>2026-04-03T17:31:44.683Z</time></trkpt><trkpt lat="41.8298309" lon="13.5370139"><ele>391.0</ele><time>2026-04-03T17:31:45.683Z</time></trkpt><trkpt lat="41.829694" lon="13.5371676"><ele>391.0</ele><time>2026-04-03T17:31:46.683Z</time></trkpt><trkpt lat="41.8295588" lon="13.5372985"><ele>391.0</ele><time>2026-04-03T17:31:47.682Z</time></trkpt><trkpt lat="41.8294087" lon="13.5373964"><ele>391.0</ele><time>2026-04-03T17:31:48.683Z</time></trkpt><trkpt lat="41.8292587" lon="13.5374589"><ele>388.0</ele><time>2026-04-03T17:31:49.682Z</time></trkpt><trkpt lat="41.8291121" lon="13.5374877"><ele>385.0</ele><time>2026-04-03T17:31:50.682Z</time></trkpt><trkpt lat="41.8289651" lon="13.5374934"><ele>382.0</ele><time>2026-04-03T17:31:51.683Z</time></trkpt><trkpt lat="41.8288394" lon="13.5374909"><ele>379.0</ele><time>2026-04-03T17:31:52.682Z</time></trkpt><trkpt lat="41.8287189" lon="13.5374891"><ele>379.0</ele><time>2026-04-03T17:31:53.682Z</time></trkpt><trkpt lat="41.8285999" lon="13.537504"><ele>379.0</ele><time>2026-04-03T17:31:54.683Z</time></trkpt><trkpt lat="41.8284822" lon="13.5375401"><ele>379.0</ele><time>2026-04-03T17:31:55.682Z</time></trkpt><trkpt lat="41.828377" lon="13.5376185"><ele>379.0</ele><time>2026-04-03T17:31:56.682Z</time></trkpt><trkpt lat="41.8282819" lon="13.5377427"><ele>379.0</ele><time>2026-04-03T17:31:57.682Z</time></trkpt><trkpt lat="41.8282015" lon="13.5379271"><ele>379.0</ele><time>2026-04-03T17:31:58.682Z</time></trkpt><trkpt lat="41.8281115" lon="13.5381421"><ele>379.0</ele><time>2026-04-03T17:31:59.683Z</time></trkpt><trkpt lat="41.8280171" lon="13.5383498"><ele>379.0</ele><time>2026-04-03T17:32:00.683Z</time></trkpt><trkpt lat="41.8279177" lon="13.5385507"><ele>379.0</ele><time>2026-04-03T17:32:01.682Z</time></trkpt><trkpt lat="41.8278201" lon="13.5387528"><ele>379.0</ele><time>2026-04-03T17:32:02.683Z</time></trkpt><trkpt lat="41.8277202" lon="13.5389534"><ele>374.66666666666663</ele><time>2026-04-03T17:32:03.683Z</time></trkpt><trkpt lat="41.8276219" lon="13.539145"><ele>370.3333333333333</ele><time>2026-04-03T17:32:04.683Z</time></trkpt><trkpt lat="41.8275157" lon="13.5393341"><ele>366.0</ele><time>2026-04-03T17:32:05.683Z</time></trkpt><trkpt lat="41.8273964" lon="13.5395332"><ele>369.0</ele><time>2026-04-03T17:32:06.682Z</time></trkpt><trkpt lat="41.8272492" lon="13.5397526"><ele>372.0</ele><time>2026-04-03T17:32:07.682Z</time></trkpt><trkpt lat="41.8270601" lon="13.5399807"><ele>372.0</ele><time>2026-04-03T17:32:08.682Z</time></trkpt><trkpt lat="41.8268516" lon="13.5401963"><ele>372.0</ele><time>2026-04-03T17:32:09.683Z</time></trkpt><trkpt lat="41.826633" lon="13.5404106"><ele>369.0</ele><time>2026-04-03T17:32:10.682Z</time></trkpt><trkpt lat="41.8264066" lon="13.5406449"><ele>366.0</ele><time>2026-04-03T17:32:11.682Z</time></trkpt><trkpt lat="41.8261907" lon="13.540874"><ele>366.0</ele><time>2026-04-03T17:32:12.683Z</time></trkpt><trkpt lat="41.8259799" lon="13.5411055"><ele>366.0</ele><time>2026-04-03T17:32:13.683Z</time></trkpt><trkpt lat="41.8257715" lon="13.5413308"><ele>366.0</ele><time>2026-04-03T17:32:14.683Z</time></trkpt><trkpt lat="41.8255685" lon="13.5415525"><ele>366.0</ele><time>2026-04-03T17:32:15.683Z</time></trkpt><trkpt lat="41.8253717" lon="13.5417542"><ele>366.0</ele><time>2026-04-03T17:32:16.682Z</time></trkpt><trkpt lat="41.8251996" lon="13.5419186"><ele>366.0</ele><time>2026-04-03T17:32:17.683Z</time></trkpt><trkpt lat="41.8250219" lon="13.5420629"><ele>366.0</ele><time>2026-04-03T17:32:18.683Z</time></trkpt><trkpt lat="41.8248454" lon="13.5421845"><ele>365.3333333333333</ele><time>2026-04-03T17:32:19.683Z</time></trkpt><trkpt lat="41.8246744" lon="13.542273"><ele>364.66666666666663</ele><time>2026-04-03T17:32:20.683Z</time></trkpt><trkpt lat="41.8244969" lon="13.5423419"><ele>364.0</ele><time>2026-04-03T17:32:21.683Z</time></trkpt><trkpt lat="41.8242987" lon="13.5423893"><ele>363.5</ele><time>2026-04-03T17:32:22.683Z</time></trkpt><trkpt lat="41.8240837" lon="13.5424148"><ele>363.0</ele><time>2026-04-03T17:32:23.682Z</time></trkpt><trkpt lat="41.8238463" lon="13.542409"><ele>363.0</ele><time>2026-04-03T17:32:24.683Z</time></trkpt><trkpt lat="41.8235828" lon="13.5423947"><ele>363.0</ele><time>2026-04-03T17:32:25.683Z</time></trkpt><trkpt lat="41.8233001" lon="13.5423875"><ele>362.0</ele><time>2026-04-03T17:32:26.682Z</time></trkpt><trkpt lat="41.8230345" lon="13.5423896"><ele>361.0</ele><time>2026-04-03T17:32:27.683Z</time></trkpt><trkpt lat="41.8227827" lon="13.5424002"><ele>360.5</ele><time>2026-04-03T17:32:28.683Z</time></trkpt><trkpt lat="41.8225446" lon="13.5424292"><ele>360.0</ele><time>2026-04-03T17:32:29.682Z</time></trkpt><trkpt lat="41.8223032" lon="13.5424892"><ele>360.0</ele><time>2026-04-03T17:32:30.683Z</time></trkpt><trkpt lat="41.8220493" lon="13.5425612"><ele>360.0</ele><time>2026-04-03T17:32:31.683Z</time></trkpt><trkpt lat="41.8217896" lon="13.5426545"><ele>359.0</ele><time>2026-04-03T17:32:32.683Z</time></trkpt><trkpt lat="41.8215222" lon="13.5427687"><ele>358.0</ele><time>2026-04-03T17:32:33.683Z</time></trkpt><trkpt lat="41.821255" lon="13.5429048"><ele>358.0</ele><time>2026-04-03T17:32:34.683Z</time></trkpt><trkpt lat="41.8209885" lon="13.5430654"><ele>358.0</ele><time>2026-04-03T17:32:35.682Z</time></trkpt><trkpt lat="41.8207463" lon="13.5432339"><ele>358.0</ele><time>2026-04-03T17:32:36.682Z</time></trkpt><trkpt lat="41.8205473" lon="13.543418"><ele>358.0</ele><time>2026-04-03T17:32:37.683Z</time></trkpt><trkpt lat="41.8203823" lon="13.5436189"><ele>357.0</ele><time>2026-04-03T17:32:38.683Z</time></trkpt><trkpt lat="41.820246" lon="13.5438417"><ele>356.0</ele><time>2026-04-03T17:32:39.683Z</time></trkpt><trkpt lat="41.8201139" lon="13.5441013"><ele>355.0</ele><time>2026-04-03T17:32:40.683Z</time></trkpt><trkpt lat="41.8200085" lon="13.5443935"><ele>356.5</ele><time>2026-04-03T17:32:41.682Z</time></trkpt><trkpt lat="41.8199318" lon="13.5447086"><ele>358.0</ele><time>2026-04-03T17:32:42.683Z</time></trkpt><trkpt lat="41.819887" lon="13.5450573"><ele>358.0</ele><time>2026-04-03T17:32:43.682Z</time></trkpt><trkpt lat="41.8198592" lon="13.5454408"><ele>358.0</ele><time>2026-04-03T17:32:44.683Z</time></trkpt><trkpt lat="41.8198235" lon="13.5458377"><ele>356.5</ele><time>2026-04-03T17:32:45.683Z</time></trkpt><trkpt lat="41.8197865" lon="13.5462467"><ele>355.0</ele><time>2026-04-03T17:32:46.683Z</time></trkpt><trkpt lat="41.8197507" lon="13.5466488"><ele>355.0</ele><time>2026-04-03T17:32:47.683Z</time></trkpt><trkpt lat="41.8197147" lon="13.5470267"><ele>355.0</ele><time>2026-04-03T17:32:48.682Z</time></trkpt><trkpt lat="41.8196782" lon="13.547387"><ele>354.5</ele><time>2026-04-03T17:32:49.683Z</time></trkpt><trkpt lat="41.8196461" lon="13.5477396"><ele>354.0</ele><time>2026-04-03T17:32:50.683Z</time></trkpt><trkpt lat="41.8196124" lon="13.5481067"><ele>356.0</ele><time>2026-04-03T17:32:51.682Z</time></trkpt><trkpt lat="41.8195848" lon="13.5484789"><ele>358.0</ele><time>2026-04-03T17:32:52.682Z</time></trkpt><trkpt lat="41.8195544" lon="13.5488623"><ele>363.0</ele><time>2026-04-03T17:32:53.683Z</time></trkpt><trkpt lat="41.8195179" lon="13.5492695"><ele>368.0</ele><time>2026-04-03T17:32:54.682Z</time></trkpt><trkpt lat="41.8194749" lon="13.549699"><ele>371.0</ele><time>2026-04-03T17:32:55.683Z</time></trkpt><trkpt lat="41.8194254" lon="13.5501484"><ele>374.0</ele><time>2026-04-03T17:32:56.683Z</time></trkpt><trkpt lat="41.819371" lon="13.5506111"><ele>374.0</ele><time>2026-04-03T17:32:57.683Z</time></trkpt><trkpt lat="41.8193231" lon="13.5510602"><ele>374.0</ele><time>2026-04-03T17:32:58.683Z</time></trkpt><trkpt lat="41.8192799" lon="13.5514793"><ele>363.5</ele><time>2026-04-03T17:32:59.683Z</time></trkpt><trkpt lat="41.8192423" lon="13.5518796"><ele>353.0</ele><time>2026-04-03T17:33:00.682Z</time></trkpt><trkpt lat="41.819206" lon="13.5522546"><ele>353.0</ele><time>2026-04-03T17:33:01.683Z</time></trkpt><trkpt lat="41.8191718" lon="13.5525889"><ele>353.0</ele><time>2026-04-03T17:33:02.683Z</time></trkpt><trkpt lat="41.8191306" lon="13.5528931"><ele>356.0</ele><time>2026-04-03T17:33:03.682Z</time></trkpt><trkpt lat="41.8190783" lon="13.5531699"><ele>359.0</ele><time>2026-04-03T17:33:04.683Z</time></trkpt><trkpt lat="41.8190086" lon="13.5534311"><ele>362.0</ele><time>2026-04-03T17:33:05.682Z</time></trkpt><trkpt lat="41.818913" lon="13.5536804"><ele>367.33333333333337</ele><time>2026-04-03T17:33:06.683Z</time></trkpt><trkpt lat="41.8188003" lon="13.5539353"><ele>372.6666666666667</ele><time>2026-04-03T17:33:07.683Z</time></trkpt><trkpt lat="41.8186842" lon="13.5541665"><ele>378.0</ele><time>2026-04-03T17:33:08.683Z</time></trkpt><trkpt lat="41.8185649" lon="13.5543557"><ele>375.0</ele><time>2026-04-03T17:33:09.683Z</time></trkpt><trkpt lat="41.8184284" lon="13.5545113"><ele>372.0</ele><time>2026-04-03T17:33:10.683Z</time></trkpt><trkpt lat="41.8182714" lon="13.5546354"><ele>369.0</ele><time>2026-04-03T17:33:11.683Z</time></trkpt><trkpt lat="41.8181049" lon="13.5547287"><ele>369.0</ele><time>2026-04-03T17:33:12.682Z</time></trkpt><trkpt lat="41.8179258" lon="13.554774"><ele>369.0</ele><time>2026-04-03T17:33:13.683Z</time></trkpt><trkpt lat="41.8177297" lon="13.5547723"><ele>369.0</ele><time>2026-04-03T17:33:14.682Z</time></trkpt><trkpt lat="41.8175271" lon="13.5547154"><ele>368.6666666666667</ele><time>2026-04-03T17:33:15.682Z</time></trkpt><trkpt lat="41.8173278" lon="13.5546184"><ele>368.33333333333337</ele><time>2026-04-03T17:33:16.683Z</time></trkpt><trkpt lat="41.8171333" lon="13.5544811"><ele>368.0</ele><time>2026-04-03T17:33:17.682Z</time></trkpt><trkpt lat="41.8169385" lon="13.5542982"><ele>362.0</ele><time>2026-04-03T17:33:18.682Z</time></trkpt><trkpt lat="41.8167494" lon="13.554088"><ele>356.0</ele><time>2026-04-03T17:33:19.683Z</time></trkpt><trkpt lat="41.8165506" lon="13.5538641"><ele>348.5</ele><time>2026-04-03T17:33:20.683Z</time></trkpt><trkpt lat="41.816353" lon="13.5536404"><ele>341.0</ele><time>2026-04-03T17:33:21.683Z</time></trkpt><trkpt lat="41.816171" lon="13.5534399"><ele>341.0</ele><time>2026-04-03T17:33:22.683Z</time></trkpt><trkpt lat="41.8160078" lon="13.5532603"><ele>341.0</ele><time>2026-04-03T17:33:23.682Z</time></trkpt><trkpt lat="41.8158501" lon="13.553082"><ele>341.0</ele><time>2026-04-03T17:33:24.683Z</time></trkpt><trkpt lat="41.8156956" lon="13.5529138"><ele>340.6666666666667</ele><time>2026-04-03T17:33:25.683Z</time></trkpt><trkpt lat="41.8155485" lon="13.5527523"><ele>340.3333333333333</ele><time>2026-04-03T17:33:26.682Z</time></trkpt><trkpt lat="41.8154133" lon="13.5526087"><ele>340.0</ele><time>2026-04-03T17:33:27.683Z</time></trkpt><trkpt lat="41.8152909" lon="13.552495"><ele>340.0</ele><time>2026-04-03T17:33:28.683Z</time></trkpt><trkpt lat="41.815177" lon="13.5524087"><ele>340.0</ele><time>2026-04-03T17:33:29.683Z</time></trkpt><trkpt lat="41.8150838" lon="13.5523496"><ele>340.0</ele><time>2026-04-03T17:33:30.682Z</time></trkpt><trkpt lat="41.8150197" lon="13.552293"><ele>340.0</ele><time>2026-04-03T17:33:31.682Z</time></trkpt><trkpt lat="41.814937" lon="13.5522019"><ele>340.0</ele><time>2026-04-03T17:33:33.683Z</time></trkpt><trkpt lat="41.8148629" lon="13.5520675"><ele>340.66666666666663</ele><time>2026-04-03T17:33:35.683Z</time></trkpt><trkpt lat="41.8148307" lon="13.5519859"><ele>341.3333333333333</ele><time>2026-04-03T17:33:36.682Z</time></trkpt><trkpt lat="41.8148002" lon="13.5518992"><ele>342.0</ele><time>2026-04-03T17:33:37.683Z</time></trkpt><trkpt lat="41.8147636" lon="13.5517992"><ele>342.6666666666667</ele><time>2026-04-03T17:33:38.683Z</time></trkpt><trkpt lat="41.8147277" lon="13.5517087"><ele>343.33333333333337</ele><time>2026-04-03T17:33:39.682Z</time></trkpt><trkpt lat="41.8146559" lon="13.5516954"><ele>344.0</ele><time>2026-04-03T17:33:42.683Z</time></trkpt><trkpt lat="41.8145799" lon="13.5518507"><ele>344.0</ele><time>2026-04-03T17:33:44.683Z</time></trkpt><trkpt lat="41.8145084" lon="13.5519881"><ele>344.0</ele><time>2026-04-03T17:33:45.683Z</time></trkpt><trkpt lat="41.8144232" lon="13.5521558"><ele>344.0</ele><time>2026-04-03T17:33:46.682Z</time></trkpt><trkpt lat="41.8143136" lon="13.5523414"><ele>344.33333333333337</ele><time>2026-04-03T17:33:47.683Z</time></trkpt><trkpt lat="41.8142245" lon="13.5525303"><ele>344.6666666666667</ele><time>2026-04-03T17:33:48.683Z</time></trkpt><trkpt lat="41.8141436" lon="13.552711"><ele>345.0</ele><time>2026-04-03T17:33:49.682Z</time></trkpt><trkpt lat="41.8140688" lon="13.5528794"><ele>347.0</ele><time>2026-04-03T17:33:50.683Z</time></trkpt><trkpt lat="41.8139991" lon="13.553056"><ele>349.0</ele><time>2026-04-03T17:33:51.682Z</time></trkpt><trkpt lat="41.8139204" lon="13.5532505"><ele>351.0</ele><time>2026-04-03T17:33:52.683Z</time></trkpt><trkpt lat="41.8138174" lon="13.5534731"><ele>352.6666666666667</ele><time>2026-04-03T17:33:53.682Z</time></trkpt><trkpt lat="41.8137028" lon="13.5537198"><ele>354.33333333333337</ele><time>2026-04-03T17:33:54.683Z</time></trkpt><trkpt lat="41.8135828" lon="13.5539845"><ele>356.0</ele><time>2026-04-03T17:33:55.682Z</time></trkpt><trkpt lat="41.8134551" lon="13.5542556"><ele>353.0</ele><time>2026-04-03T17:33:56.682Z</time></trkpt><trkpt lat="41.8133319" lon="13.5545351"><ele>350.0</ele><time>2026-04-03T17:33:57.683Z</time></trkpt><trkpt lat="41.8132158" lon="13.5547997"><ele>350.0</ele><time>2026-04-03T17:33:58.683Z</time></trkpt><trkpt lat="41.8131047" lon="13.5550428"><ele>350.0</ele><time>2026-04-03T17:33:59.683Z</time></trkpt><trkpt lat="41.8129979" lon="13.5552637"><ele>350.0</ele><time>2026-04-03T17:34:00.683Z</time></trkpt><trkpt lat="41.812895" lon="13.5554681"><ele>349.33333333333337</ele><time>2026-04-03T17:34:01.683Z</time></trkpt><trkpt lat="41.812778" lon="13.5556389"><ele>348.6666666666667</ele><time>2026-04-03T17:34:02.682Z</time></trkpt><trkpt lat="41.8126338" lon="13.555771"><ele>348.0</ele><time>2026-04-03T17:34:03.683Z</time></trkpt><trkpt lat="41.812463" lon="13.5558637"><ele>348.0</ele><time>2026-04-03T17:34:04.683Z</time></trkpt><trkpt lat="41.8122766" lon="13.5559142"><ele>348.0</ele><time>2026-04-03T17:34:05.683Z</time></trkpt><trkpt lat="41.8120586" lon="13.5559492"><ele>348.0</ele><time>2026-04-03T17:34:06.683Z</time></trkpt><trkpt lat="41.8118353" lon="13.5559915"><ele>347.0</ele><time>2026-04-03T17:34:07.683Z</time></trkpt><trkpt lat="41.8116185" lon="13.5560472"><ele>346.0</ele><time>2026-04-03T17:34:08.683Z</time></trkpt><trkpt lat="41.8114132" lon="13.5561148"><ele>345.0</ele><time>2026-04-03T17:34:09.683Z</time></trkpt><trkpt lat="41.8112168" lon="13.5562074"><ele>346.6666666666667</ele><time>2026-04-03T17:34:10.682Z</time></trkpt><trkpt lat="41.8110168" lon="13.5563316"><ele>348.33333333333337</ele><time>2026-04-03T17:34:11.682Z</time></trkpt><trkpt lat="41.8108315" lon="13.5564944"><ele>350.0</ele><time>2026-04-03T17:34:12.682Z</time></trkpt><trkpt lat="41.8106462" lon="13.5566727"><ele>350.0</ele><time>2026-04-03T17:34:13.682Z</time></trkpt><trkpt lat="41.8104623" lon="13.5568536"><ele>350.0</ele><time>2026-04-03T17:34:14.682Z</time></trkpt><trkpt lat="41.8102842" lon="13.5570441"><ele>349.6666666666667</ele><time>2026-04-03T17:34:15.683Z</time></trkpt><trkpt lat="41.8101152" lon="13.5572355"><ele>349.3333333333333</ele><time>2026-04-03T17:34:16.683Z</time></trkpt><trkpt lat="41.8099486" lon="13.5574413"><ele>349.0</ele><time>2026-04-03T17:34:17.683Z</time></trkpt><trkpt lat="41.8097899" lon="13.5576302"><ele>349.0</ele><time>2026-04-03T17:34:18.683Z</time></trkpt><trkpt lat="41.8096428" lon="13.5578105"><ele>349.0</ele><time>2026-04-03T17:34:19.682Z</time></trkpt><trkpt lat="41.809498" lon="13.5579751"><ele>349.0</ele><time>2026-04-03T17:34:20.682Z</time></trkpt><trkpt lat="41.8093605" lon="13.5581358"><ele>349.3333333333333</ele><time>2026-04-03T17:34:21.683Z</time></trkpt><trkpt lat="41.8092297" lon="13.558295"><ele>349.6666666666667</ele><time>2026-04-03T17:34:22.682Z</time></trkpt><trkpt lat="41.8090989" lon="13.5584631"><ele>350.0</ele><time>2026-04-03T17:34:23.683Z</time></trkpt><trkpt lat="41.8089584" lon="13.558631"><ele>350.6666666666667</ele><time>2026-04-03T17:34:24.682Z</time></trkpt><trkpt lat="41.8088153" lon="13.5588085"><ele>351.3333333333333</ele><time>2026-04-03T17:34:25.683Z</time></trkpt><trkpt lat="41.8086744" lon="13.558993"><ele>352.0</ele><time>2026-04-03T17:34:26.682Z</time></trkpt><trkpt lat="41.8085295" lon="13.5591885"><ele>351.0</ele><time>2026-04-03T17:34:27.683Z</time></trkpt><trkpt lat="41.8083675" lon="13.5593939"><ele>350.0</ele><time>2026-04-03T17:34:28.683Z</time></trkpt><trkpt lat="41.8081921" lon="13.5596132"><ele>350.0</ele><time>2026-04-03T17:34:29.682Z</time></trkpt><trkpt lat="41.808008" lon="13.5598277"><ele>350.0</ele><time>2026-04-03T17:34:30.683Z</time></trkpt><trkpt lat="41.8078303" lon="13.5600354"><ele>349.5</ele><time>2026-04-03T17:34:31.683Z</time></trkpt><trkpt lat="41.8076501" lon="13.5602322"><ele>349.0</ele><time>2026-04-03T17:34:32.682Z</time></trkpt><trkpt lat="41.8074514" lon="13.5604032"><ele>349.0</ele><time>2026-04-03T17:34:33.683Z</time></trkpt><trkpt lat="41.8072388" lon="13.5605426"><ele>349.0</ele><time>2026-04-03T17:34:34.683Z</time></trkpt><trkpt lat="41.8070148" lon="13.5606787"><ele>349.0</ele><time>2026-04-03T17:34:35.682Z</time></trkpt><trkpt lat="41.806784" lon="13.5608151"><ele>349.0</ele><time>2026-04-03T17:34:36.682Z</time></trkpt><trkpt lat="41.8065575" lon="13.5609517"><ele>349.0</ele><time>2026-04-03T17:34:37.683Z</time></trkpt><trkpt lat="41.8063374" lon="13.5610934"><ele>349.0</ele><time>2026-04-03T17:34:38.683Z</time></trkpt><trkpt lat="41.806126" lon="13.5612468"><ele>349.5</ele><time>2026-04-03T17:34:39.683Z</time></trkpt><trkpt lat="41.8059199" lon="13.5614288"><ele>350.0</ele><time>2026-04-03T17:34:40.683Z</time></trkpt><trkpt lat="41.805717" lon="13.5616061"><ele>350.0</ele><time>2026-04-03T17:34:41.683Z</time></trkpt><trkpt lat="41.8055166" lon="13.5617951"><ele>350.0</ele><time>2026-04-03T17:34:42.682Z</time></trkpt><trkpt lat="41.8053206" lon="13.5619917"><ele>348.0</ele><time>2026-04-03T17:34:43.683Z</time></trkpt><trkpt lat="41.8051126" lon="13.5621689"><ele>346.0</ele><time>2026-04-03T17:34:44.683Z</time></trkpt><trkpt lat="41.8049059" lon="13.5623389"><ele>346.0</ele><time>2026-04-03T17:34:45.682Z</time></trkpt><trkpt lat="41.8046832" lon="13.5624823"><ele>346.0</ele><time>2026-04-03T17:34:46.683Z</time></trkpt><trkpt lat="41.8044562" lon="13.5626014"><ele>345.3333333333333</ele><time>2026-04-03T17:34:47.683Z</time></trkpt><trkpt lat="41.8042271" lon="13.5626879"><ele>344.6666666666667</ele><time>2026-04-03T17:34:48.682Z</time></trkpt><trkpt lat="41.8040252" lon="13.5627587"><ele>344.0</ele><time>2026-04-03T17:34:49.683Z</time></trkpt><trkpt lat="41.8038345" lon="13.5628226"><ele>345.33333333333337</ele><time>2026-04-03T17:34:50.683Z</time></trkpt><trkpt lat="41.8036502" lon="13.5629123"><ele>346.6666666666667</ele><time>2026-04-03T17:34:51.683Z</time></trkpt><trkpt lat="41.803478" lon="13.5630461"><ele>348.0</ele><time>2026-04-03T17:34:52.683Z</time></trkpt><trkpt lat="41.8033298" lon="13.5632339"><ele>348.0</ele><time>2026-04-03T17:34:53.683Z</time></trkpt><trkpt lat="41.8031791" lon="13.5634863"><ele>348.0</ele><time>2026-04-03T17:34:54.682Z</time></trkpt><trkpt lat="41.8030353" lon="13.5637526"><ele>350.6666666666667</ele><time>2026-04-03T17:34:55.683Z</time></trkpt><trkpt lat="41.8029082" lon="13.5640148"><ele>353.33333333333337</ele><time>2026-04-03T17:34:56.682Z</time></trkpt><trkpt lat="41.8028079" lon="13.5642532"><ele>356.0</ele><time>2026-04-03T17:34:57.682Z</time></trkpt><trkpt lat="41.80273" lon="13.5644775"><ele>357.33333333333337</ele><time>2026-04-03T17:34:58.683Z</time></trkpt><trkpt lat="41.8026798" lon="13.5646922"><ele>358.6666666666667</ele><time>2026-04-03T17:34:59.683Z</time></trkpt><trkpt lat="41.8026787" lon="13.5649014"><ele>360.0</ele><time>2026-04-03T17:35:00.683Z</time></trkpt><trkpt lat="41.802723" lon="13.5651385"><ele>360.6666666666667</ele><time>2026-04-03T17:35:01.683Z</time></trkpt><trkpt lat="41.8027733" lon="13.5654022"><ele>361.33333333333337</ele><time>2026-04-03T17:35:02.683Z</time></trkpt><trkpt lat="41.8028169" lon="13.5656732"><ele>362.0</ele><time>2026-04-03T17:35:03.683Z</time></trkpt><trkpt lat="41.8028369" lon="13.5659448"><ele>361.0</ele><time>2026-04-03T17:35:04.682Z</time></trkpt><trkpt lat="41.802884" lon="13.5662215"><ele>360.0</ele><time>2026-04-03T17:35:05.682Z</time></trkpt><trkpt lat="41.8029651" lon="13.5665072"><ele>359.0</ele><time>2026-04-03T17:35:06.682Z</time></trkpt><trkpt lat="41.8030674" lon="13.5668305"><ele>356.5</ele><time>2026-04-03T17:35:07.683Z</time></trkpt><trkpt lat="41.803169" lon="13.5671704"><ele>354.0</ele><time>2026-04-03T17:35:08.682Z</time></trkpt><trkpt lat="41.8032569" lon="13.5674713"><ele>354.0</ele><time>2026-04-03T17:35:09.683Z</time></trkpt><trkpt lat="41.8033237" lon="13.5677173"><ele>354.0</ele><time>2026-04-03T17:35:10.683Z</time></trkpt><trkpt lat="41.8033669" lon="13.5679549"><ele>354.0</ele><time>2026-04-03T17:35:11.683Z</time></trkpt><trkpt lat="41.8033812" lon="13.5681898"><ele>351.6666666666667</ele><time>2026-04-03T17:35:12.683Z</time></trkpt><trkpt lat="41.8033554" lon="13.5684182"><ele>349.33333333333337</ele><time>2026-04-03T17:35:13.682Z</time></trkpt><trkpt lat="41.8032933" lon="13.5686383"><ele>347.0</ele><time>2026-04-03T17:35:14.683Z</time></trkpt><trkpt lat="41.803217" lon="13.5688303"><ele>347.0</ele><time>2026-04-03T17:35:15.682Z</time></trkpt><trkpt lat="41.8031469" lon="13.5689505"><ele>347.0</ele><time>2026-04-03T17:35:16.682Z</time></trkpt><trkpt lat="41.8030747" lon="13.5690171"><ele>347.0</ele><time>2026-04-03T17:35:17.682Z</time></trkpt><trkpt lat="41.8029923" lon="13.5690325"><ele>347.0</ele><time>2026-04-03T17:35:18.683Z</time></trkpt><trkpt lat="41.8029062" lon="13.5690044"><ele>347.0</ele><time>2026-04-03T17:35:19.683Z</time></trkpt><trkpt lat="41.802839" lon="13.5689098"><ele>347.0</ele><time>2026-04-03T17:35:20.683Z</time></trkpt><trkpt lat="41.8027648" lon="13.5687235"><ele>347.0</ele><time>2026-04-03T17:35:21.683Z</time></trkpt><trkpt lat="41.8026614" lon="13.5685301"><ele>347.0</ele><time>2026-04-03T17:35:22.683Z</time></trkpt><trkpt lat="41.8025509" lon="13.5683802"><ele>346.0</ele><time>2026-04-03T17:35:23.683Z</time></trkpt><trkpt lat="41.8024338" lon="13.568285"><ele>345.0</ele><time>2026-04-03T17:35:24.683Z</time></trkpt><trkpt lat="41.8023058" lon="13.5682287"><ele>344.0</ele><time>2026-04-03T17:35:25.683Z</time></trkpt><trkpt lat="41.8021662" lon="13.5682296"><ele>343.0</ele><time>2026-04-03T17:35:26.683Z</time></trkpt><trkpt lat="41.802005" lon="13.568261"><ele>343.0</ele><time>2026-04-03T17:35:27.683Z</time></trkpt><trkpt lat="41.8017952" lon="13.5683389"><ele>343.0</ele><time>2026-04-03T17:35:28.683Z</time></trkpt><trkpt lat="41.8015719" lon="13.5684533"><ele>343.0</ele><time>2026-04-03T17:35:29.683Z</time></trkpt><trkpt lat="41.8013729" lon="13.5685477"><ele>343.0</ele><time>2026-04-03T17:35:30.683Z</time></trkpt><trkpt lat="41.8012047" lon="13.568626"><ele>343.0</ele><time>2026-04-03T17:35:31.682Z</time></trkpt><trkpt lat="41.8010549" lon="13.5687187"><ele>342.66666666666663</ele><time>2026-04-03T17:35:32.683Z</time></trkpt><trkpt lat="41.8009335" lon="13.5688531"><ele>342.3333333333333</ele><time>2026-04-03T17:35:33.682Z</time></trkpt><trkpt lat="41.8008113" lon="13.5690448"><ele>342.0</ele><time>2026-04-03T17:35:34.682Z</time></trkpt><trkpt lat="41.8006856" lon="13.5692989"><ele>345.0</ele><time>2026-04-03T17:35:35.683Z</time></trkpt><trkpt lat="41.8005634" lon="13.5695697"><ele>348.0</ele><time>2026-04-03T17:35:36.683Z</time></trkpt><trkpt lat="41.8004586" lon="13.5697999"><ele>351.0</ele><time>2026-04-03T17:35:37.682Z</time></trkpt><trkpt lat="41.8003404" lon="13.5699826"><ele>351.0</ele><time>2026-04-03T17:35:38.683Z</time></trkpt><trkpt lat="41.8001909" lon="13.5701271"><ele>351.0</ele><time>2026-04-03T17:35:39.683Z</time></trkpt><trkpt lat="41.80001" lon="13.5702648"><ele>351.0</ele><time>2026-04-03T17:35:40.683Z</time></trkpt><trkpt lat="41.7998322" lon="13.5704229"><ele>351.6666666666667</ele><time>2026-04-03T17:35:41.683Z</time></trkpt><trkpt lat="41.7996864" lon="13.5705796"><ele>352.33333333333337</ele><time>2026-04-03T17:35:42.682Z</time></trkpt><trkpt lat="41.7995564" lon="13.5706968"><ele>353.0</ele><time>2026-04-03T17:35:43.682Z</time></trkpt><trkpt lat="41.7994147" lon="13.5707599"><ele>349.33333333333337</ele><time>2026-04-03T17:35:44.682Z</time></trkpt><trkpt lat="41.7992492" lon="13.5707591"><ele>345.6666666666667</ele><time>2026-04-03T17:35:45.683Z</time></trkpt><trkpt lat="41.7990593" lon="13.5707187"><ele>342.0</ele><time>2026-04-03T17:35:46.683Z</time></trkpt><trkpt lat="41.798877" lon="13.5706684"><ele>342.0</ele><time>2026-04-03T17:35:47.683Z</time></trkpt><trkpt lat="41.7987221" lon="13.5706429"><ele>342.0</ele><time>2026-04-03T17:35:48.682Z</time></trkpt><trkpt lat="41.7985745" lon="13.5706537"><ele>342.0</ele><time>2026-04-03T17:35:49.682Z</time></trkpt><trkpt lat="41.7984341" lon="13.570729"><ele>340.3333333333333</ele><time>2026-04-03T17:35:50.683Z</time></trkpt><trkpt lat="41.7983005" lon="13.570823"><ele>338.66666666666663</ele><time>2026-04-03T17:35:51.683Z</time></trkpt><trkpt lat="41.7981592" lon="13.5708878"><ele>337.0</ele><time>2026-04-03T17:35:52.683Z</time></trkpt><trkpt lat="41.7979995" lon="13.5709066"><ele>337.0</ele><time>2026-04-03T17:35:53.683Z</time></trkpt><trkpt lat="41.7978347" lon="13.5708785"><ele>337.0</ele><time>2026-04-03T17:35:54.682Z</time></trkpt><trkpt lat="41.7976877" lon="13.5708499"><ele>337.0</ele><time>2026-04-03T17:35:55.682Z</time></trkpt><trkpt lat="41.7975679" lon="13.5708391"><ele>337.0</ele><time>2026-04-03T17:35:56.683Z</time></trkpt><trkpt lat="41.7974452" lon="13.5708736"><ele>335.75</ele><time>2026-04-03T17:35:57.682Z</time></trkpt><trkpt lat="41.7973188" lon="13.5709752"><ele>334.5</ele><time>2026-04-03T17:35:58.683Z</time></trkpt><trkpt lat="41.7972084" lon="13.5711115"><ele>333.25</ele><time>2026-04-03T17:35:59.682Z</time></trkpt><trkpt lat="41.7970973" lon="13.5712088"><ele>332.0</ele><time>2026-04-03T17:36:00.683Z</time></trkpt><trkpt lat="41.7969667" lon="13.5712441"><ele>330.33333333333337</ele><time>2026-04-03T17:36:01.683Z</time></trkpt><trkpt lat="41.7968264" lon="13.5712147"><ele>328.6666666666667</ele><time>2026-04-03T17:36:02.683Z</time></trkpt><trkpt lat="41.7966743" lon="13.5711507"><ele>327.0</ele><time>2026-04-03T17:36:03.683Z</time></trkpt><trkpt lat="41.7965216" lon="13.5711011"><ele>327.0</ele><time>2026-04-03T17:36:04.683Z</time></trkpt><trkpt lat="41.7963617" lon="13.5710651"><ele>327.0</ele><time>2026-04-03T17:36:05.683Z</time></trkpt><trkpt lat="41.796195" lon="13.5710933"><ele>327.0</ele><time>2026-04-03T17:36:06.682Z</time></trkpt><trkpt lat="41.7960106" lon="13.5711729"><ele>331.5</ele><time>2026-04-03T17:36:07.683Z</time></trkpt><trkpt lat="41.7957775" lon="13.5713205"><ele>336.0</ele><time>2026-04-03T17:36:08.682Z</time></trkpt><trkpt lat="41.7955218" lon="13.5714825"><ele>336.0</ele><time>2026-04-03T17:36:09.682Z</time></trkpt><trkpt lat="41.79529" lon="13.5716846"><ele>336.0</ele><time>2026-04-03T17:36:10.683Z</time></trkpt><trkpt lat="41.7950797" lon="13.5718523"><ele>336.3333333333333</ele><time>2026-04-03T17:36:11.682Z</time></trkpt><trkpt lat="41.7948959" lon="13.5719911"><ele>336.66666666666663</ele><time>2026-04-03T17:36:12.683Z</time></trkpt><trkpt lat="41.7947394" lon="13.5721177"><ele>337.0</ele><time>2026-04-03T17:36:13.682Z</time></trkpt><trkpt lat="41.7946048" lon="13.5722272"><ele>337.0</ele><time>2026-04-03T17:36:14.682Z</time></trkpt><trkpt lat="41.7944983" lon="13.5723602"><ele>337.0</ele><time>2026-04-03T17:36:15.683Z</time></trkpt><trkpt lat="41.7944215" lon="13.5725391"><ele>337.0</ele><time>2026-04-03T17:36:16.682Z</time></trkpt><trkpt lat="41.7943856" lon="13.5727787"><ele>333.0</ele><time>2026-04-03T17:36:17.683Z</time></trkpt><trkpt lat="41.79437" lon="13.5730409"><ele>329.0</ele><time>2026-04-03T17:36:18.682Z</time></trkpt><trkpt lat="41.7943346" lon="13.5732964"><ele>325.0</ele><time>2026-04-03T17:36:19.683Z</time></trkpt><trkpt lat="41.794291" lon="13.5734874"><ele>325.0</ele><time>2026-04-03T17:36:20.683Z</time></trkpt><trkpt lat="41.7942295" lon="13.573635"><ele>325.0</ele><time>2026-04-03T17:36:21.683Z</time></trkpt><trkpt lat="41.7941228" lon="13.5737638"><ele>325.0</ele><time>2026-04-03T17:36:22.682Z</time></trkpt><trkpt lat="41.7939574" lon="13.573867"><ele>323.0</ele><time>2026-04-03T17:36:23.683Z</time></trkpt><trkpt lat="41.7937682" lon="13.5739706"><ele>321.0</ele><time>2026-04-03T17:36:24.683Z</time></trkpt><trkpt lat="41.793552" lon="13.57408"><ele>319.0</ele><time>2026-04-03T17:36:25.683Z</time></trkpt><trkpt lat="41.7933185" lon="13.574197"><ele>319.0</ele><time>2026-04-03T17:36:26.682Z</time></trkpt><trkpt lat="41.7930986" lon="13.5743164"><ele>319.0</ele><time>2026-04-03T17:36:27.683Z</time></trkpt><trkpt lat="41.7929019" lon="13.5744408"><ele>319.66666666666663</ele><time>2026-04-03T17:36:28.683Z</time></trkpt><trkpt lat="41.7927135" lon="13.5745981"><ele>320.3333333333333</ele><time>2026-04-03T17:36:29.682Z</time></trkpt><trkpt lat="41.7925399" lon="13.5747828"><ele>321.0</ele><time>2026-04-03T17:36:30.682Z</time></trkpt><trkpt lat="41.7923732" lon="13.574994"><ele>321.0</ele><time>2026-04-03T17:36:31.682Z</time></trkpt><trkpt lat="41.7922204" lon="13.5752259"><ele>321.0</ele><time>2026-04-03T17:36:32.683Z</time></trkpt><trkpt lat="41.792078" lon="13.5754911"><ele>319.0</ele><time>2026-04-03T17:36:33.683Z</time></trkpt><trkpt lat="41.7919465" lon="13.5757516"><ele>317.0</ele><time>2026-04-03T17:36:34.683Z</time></trkpt><trkpt lat="41.7918266" lon="13.5759967"><ele>319.6666666666667</ele><time>2026-04-03T17:36:35.683Z</time></trkpt><trkpt lat="41.7916923" lon="13.5762195"><ele>322.3333333333333</ele><time>2026-04-03T17:36:36.682Z</time></trkpt><trkpt lat="41.791535" lon="13.5764194"><ele>325.0</ele><time>2026-04-03T17:36:37.683Z</time></trkpt><trkpt lat="41.7913612" lon="13.5766085"><ele>325.0</ele><time>2026-04-03T17:36:38.682Z</time></trkpt><trkpt lat="41.79117" lon="13.5767784"><ele>325.0</ele><time>2026-04-03T17:36:39.683Z</time></trkpt><trkpt lat="41.7909634" lon="13.5769528"><ele>325.5</ele><time>2026-04-03T17:36:40.683Z</time></trkpt><trkpt lat="41.7907541" lon="13.577127"><ele>326.0</ele><time>2026-04-03T17:36:41.683Z</time></trkpt><trkpt lat="41.7905405" lon="13.5773036"><ele>326.0</ele><time>2026-04-03T17:36:42.682Z</time></trkpt><trkpt lat="41.7903409" lon="13.5774621"><ele>326.0</ele><time>2026-04-03T17:36:43.682Z</time></trkpt><trkpt lat="41.7901674" lon="13.577582"><ele>326.0</ele><time>2026-04-03T17:36:44.683Z</time></trkpt><trkpt lat="41.7900007" lon="13.5776828"><ele>327.0</ele><time>2026-04-03T17:36:45.683Z</time></trkpt><trkpt lat="41.7898602" lon="13.5777647"><ele>328.0</ele><time>2026-04-03T17:36:46.683Z</time></trkpt><trkpt lat="41.7897529" lon="13.5778696"><ele>329.0</ele><time>2026-04-03T17:36:47.683Z</time></trkpt><trkpt lat="41.7896797" lon="13.577992"><ele>330.0</ele><time>2026-04-03T17:36:48.683Z</time></trkpt><trkpt lat="41.7896171" lon="13.5781376"><ele>330.0</ele><time>2026-04-03T17:36:49.682Z</time></trkpt><trkpt lat="41.7895465" lon="13.5782936"><ele>330.0</ele><time>2026-04-03T17:36:50.683Z</time></trkpt><trkpt lat="41.7894506" lon="13.5784253"><ele>330.0</ele><time>2026-04-03T17:36:51.683Z</time></trkpt><trkpt lat="41.7893012" lon="13.5785452"><ele>330.0</ele><time>2026-04-03T17:36:52.682Z</time></trkpt><trkpt lat="41.7891561" lon="13.5786618"><ele>328.6666666666667</ele><time>2026-04-03T17:36:53.683Z</time></trkpt><trkpt lat="41.7890154" lon="13.5788235"><ele>327.33333333333337</ele><time>2026-04-03T17:36:54.682Z</time></trkpt><trkpt lat="41.7888615" lon="13.5790633"><ele>326.0</ele><time>2026-04-03T17:36:55.682Z</time></trkpt><trkpt lat="41.7886973" lon="13.5793287"><ele>323.0</ele><time>2026-04-03T17:36:56.683Z</time></trkpt><trkpt lat="41.7885075" lon="13.5795797"><ele>320.0</ele><time>2026-04-03T17:36:57.683Z</time></trkpt><trkpt lat="41.788302" lon="13.579834"><ele>320.0</ele><time>2026-04-03T17:36:58.683Z</time></trkpt><trkpt lat="41.7881153" lon="13.5800625"><ele>320.0</ele><time>2026-04-03T17:36:59.683Z</time></trkpt><trkpt lat="41.7879697" lon="13.5802424"><ele>318.33333333333337</ele><time>2026-04-03T17:37:00.683Z</time></trkpt><trkpt lat="41.7878452" lon="13.5804033"><ele>316.6666666666667</ele><time>2026-04-03T17:37:01.682Z</time></trkpt><trkpt lat="41.7877373" lon="13.5806157"><ele>315.0</ele><time>2026-04-03T17:37:02.683Z</time></trkpt><trkpt lat="41.7876401" lon="13.5808922"><ele>315.0</ele><time>2026-04-03T17:37:03.683Z</time></trkpt><trkpt lat="41.7875179" lon="13.5811811"><ele>315.0</ele><time>2026-04-03T17:37:04.683Z</time></trkpt><trkpt lat="41.7873867" lon="13.5814537"><ele>318.5</ele><time>2026-04-03T17:37:05.682Z</time></trkpt><trkpt lat="41.7872428" lon="13.5816855"><ele>322.0</ele><time>2026-04-03T17:37:06.683Z</time></trkpt><trkpt lat="41.7870858" lon="13.5819054"><ele>320.0</ele><time>2026-04-03T17:37:07.682Z</time></trkpt><trkpt lat="41.7869063" lon="13.5821337"><ele>318.0</ele><time>2026-04-03T17:37:08.683Z</time></trkpt><trkpt lat="41.7867074" lon="13.582353"><ele>318.0</ele><time>2026-04-03T17:37:09.682Z</time></trkpt><trkpt lat="41.7865068" lon="13.5825554"><ele>318.0</ele><time>2026-04-03T17:37:10.682Z</time></trkpt><trkpt lat="41.7863346" lon="13.5827017"><ele>318.0</ele><time>2026-04-03T17:37:11.683Z</time></trkpt><trkpt lat="41.7862096" lon="13.5828314"><ele>318.0</ele><time>2026-04-03T17:37:12.683Z</time></trkpt><trkpt lat="41.7860947" lon="13.5829763"><ele>318.0</ele><time>2026-04-03T17:37:13.683Z</time></trkpt><trkpt lat="41.7860119" lon="13.5831552"><ele>318.3333333333333</ele><time>2026-04-03T17:37:14.683Z</time></trkpt><trkpt lat="41.785968" lon="13.5833917"><ele>318.66666666666663</ele><time>2026-04-03T17:37:15.683Z</time></trkpt><trkpt lat="41.7859443" lon="13.5836698"><ele>319.0</ele><time>2026-04-03T17:37:16.683Z</time></trkpt><trkpt lat="41.7859107" lon="13.5839402"><ele>319.0</ele><time>2026-04-03T17:37:17.682Z</time></trkpt><trkpt lat="41.7858545" lon="13.5841923"><ele>319.0</ele><time>2026-04-03T17:37:18.683Z</time></trkpt><trkpt lat="41.7857493" lon="13.5844583"><ele>319.0</ele><time>2026-04-03T17:37:19.683Z</time></trkpt><trkpt lat="41.7856287" lon="13.584745"><ele>322.5</ele><time>2026-04-03T17:37:20.683Z</time></trkpt><trkpt lat="41.7854983" lon="13.5850518"><ele>326.0</ele><time>2026-04-03T17:37:21.683Z</time></trkpt><trkpt lat="41.785373" lon="13.5853791"><ele>323.5</ele><time>2026-04-03T17:37:22.682Z</time></trkpt><trkpt lat="41.7852492" lon="13.5857218"><ele>321.0</ele><time>2026-04-03T17:37:23.683Z</time></trkpt><trkpt lat="41.7851274" lon="13.5860646"><ele>325.5</ele><time>2026-04-03T17:37:24.683Z</time></trkpt><trkpt lat="41.7850172" lon="13.5863871"><ele>330.0</ele><time>2026-04-03T17:37:25.683Z</time></trkpt><trkpt lat="41.7849285" lon="13.5867034"><ele>334.0</ele><time>2026-04-03T17:37:26.683Z</time></trkpt><trkpt lat="41.7848506" lon="13.5870338"><ele>338.0</ele><time>2026-04-03T17:37:27.682Z</time></trkpt><trkpt lat="41.7847751" lon="13.5873755"><ele>338.0</ele><time>2026-04-03T17:37:28.683Z</time></trkpt><trkpt lat="41.7847129" lon="13.5876811"><ele>338.0</ele><time>2026-04-03T17:37:29.683Z</time></trkpt><trkpt lat="41.7846644" lon="13.5879504"><ele>338.0</ele><time>2026-04-03T17:37:30.683Z</time></trkpt><trkpt lat="41.7846262" lon="13.5881932"><ele>338.0</ele><time>2026-04-03T17:37:31.683Z</time></trkpt><trkpt lat="41.7846071" lon="13.5884218"><ele>338.0</ele><time>2026-04-03T17:37:32.683Z</time></trkpt><trkpt lat="41.7846304" lon="13.5886457"><ele>338.0</ele><time>2026-04-03T17:37:33.682Z</time></trkpt><trkpt lat="41.7846758" lon="13.5888563"><ele>338.0</ele><time>2026-04-03T17:37:34.682Z</time></trkpt><trkpt lat="41.7847218" lon="13.5890407"><ele>338.0</ele><time>2026-04-03T17:37:35.682Z</time></trkpt><trkpt lat="41.7847519" lon="13.5891971"><ele>338.0</ele><time>2026-04-03T17:37:36.683Z</time></trkpt><trkpt lat="41.7847596" lon="13.5893363"><ele>338.0</ele><time>2026-04-03T17:37:37.682Z</time></trkpt><trkpt lat="41.7847291" lon="13.5894617"><ele>338.0</ele><time>2026-04-03T17:37:38.683Z</time></trkpt><trkpt lat="41.7846653" lon="13.5895925"><ele>338.0</ele><time>2026-04-03T17:37:39.683Z</time></trkpt><trkpt lat="41.7845925" lon="13.5897108"><ele>338.0</ele><time>2026-04-03T17:37:40.683Z</time></trkpt><trkpt lat="41.7845188" lon="13.5897946"><ele>338.0</ele><time>2026-04-03T17:37:41.682Z</time></trkpt><trkpt lat="41.7844286" lon="13.5898436"><ele>338.0</ele><time>2026-04-03T17:37:42.683Z</time></trkpt><trkpt lat="41.7843229" lon="13.5898315"><ele>339.6666666666667</ele><time>2026-04-03T17:37:43.683Z</time></trkpt><trkpt lat="41.7841951" lon="13.5897662"><ele>341.3333333333333</ele><time>2026-04-03T17:37:44.683Z</time></trkpt><trkpt lat="41.7840614" lon="13.5896428"><ele>343.0</ele><time>2026-04-03T17:37:45.683Z</time></trkpt><trkpt lat="41.7839114" lon="13.589473"><ele>339.0</ele><time>2026-04-03T17:37:46.683Z</time></trkpt><trkpt lat="41.7837475" lon="13.5892785"><ele>335.0</ele><time>2026-04-03T17:37:47.683Z</time></trkpt><trkpt lat="41.7835937" lon="13.5890833"><ele>331.0</ele><time>2026-04-03T17:37:48.683Z</time></trkpt><trkpt lat="41.7834636" lon="13.5889176"><ele>331.0</ele><time>2026-04-03T17:37:49.682Z</time></trkpt><trkpt lat="41.7833503" lon="13.5887946"><ele>331.0</ele><time>2026-04-03T17:37:50.682Z</time></trkpt><trkpt lat="41.7832549" lon="13.5887198"><ele>331.0</ele><time>2026-04-03T17:37:51.683Z</time></trkpt><trkpt lat="41.7831637" lon="13.5886941"><ele>331.0</ele><time>2026-04-03T17:37:52.683Z</time></trkpt><trkpt lat="41.7830454" lon="13.5887232"><ele>331.0</ele><time>2026-04-03T17:37:53.682Z</time></trkpt><trkpt lat="41.7829139" lon="13.5888294"><ele>331.0</ele><time>2026-04-03T17:37:54.683Z</time></trkpt><trkpt lat="41.7827807" lon="13.5889788"><ele>331.0</ele><time>2026-04-03T17:37:55.682Z</time></trkpt><trkpt lat="41.7826677" lon="13.5891699"><ele>329.0</ele><time>2026-04-03T17:37:56.683Z</time></trkpt><trkpt lat="41.7825803" lon="13.5893844"><ele>327.0</ele><time>2026-04-03T17:37:57.683Z</time></trkpt><trkpt lat="41.782525" lon="13.5895896"><ele>325.0</ele><time>2026-04-03T17:37:58.682Z</time></trkpt><trkpt lat="41.7824874" lon="13.5897679"><ele>325.0</ele><time>2026-04-03T17:37:59.683Z</time></trkpt><trkpt lat="41.7824677" lon="13.589936"><ele>325.0</ele><time>2026-04-03T17:38:00.683Z</time></trkpt><trkpt lat="41.7825055" lon="13.5901094"><ele>325.0</ele><time>2026-04-03T17:38:01.682Z</time></trkpt><trkpt lat="41.7825479" lon="13.5902624"><ele>325.0</ele><time>2026-04-03T17:38:02.683Z</time></trkpt><trkpt lat="41.7825923" lon="13.5904021"><ele>325.4</ele><time>2026-04-03T17:38:03.683Z</time></trkpt><trkpt lat="41.7826097" lon="13.5905275"><ele>325.8</ele><time>2026-04-03T17:38:04.683Z</time></trkpt><trkpt lat="41.7825851" lon="13.5906242"><ele>326.20000000000005</ele><time>2026-04-03T17:38:05.682Z</time></trkpt><trkpt lat="41.7825234" lon="13.5907084"><ele>326.6</ele><time>2026-04-03T17:38:06.683Z</time></trkpt><trkpt lat="41.7824022" lon="13.590782"><ele>327.0</ele><time>2026-04-03T17:38:07.683Z</time></trkpt><trkpt lat="41.7822334" lon="13.590862"><ele>327.0</ele><time>2026-04-03T17:38:08.682Z</time></trkpt><trkpt lat="41.7820497" lon="13.5909452"><ele>327.0</ele><time>2026-04-03T17:38:09.682Z</time></trkpt><trkpt lat="41.7818814" lon="13.5910038"><ele>327.0</ele><time>2026-04-03T17:38:10.683Z</time></trkpt><trkpt lat="41.7817107" lon="13.5910159"><ele>324.75</ele><time>2026-04-03T17:38:11.682Z</time></trkpt><trkpt lat="41.7815463" lon="13.5909796"><ele>322.5</ele><time>2026-04-03T17:38:12.682Z</time></trkpt><trkpt lat="41.7814017" lon="13.590952"><ele>320.25</ele><time>2026-04-03T17:38:13.683Z</time></trkpt><trkpt lat="41.7812735" lon="13.5909677"><ele>318.0</ele><time>2026-04-03T17:38:14.682Z</time></trkpt><trkpt lat="41.7811458" lon="13.5910447"><ele>317.0</ele><time>2026-04-03T17:38:15.682Z</time></trkpt><trkpt lat="41.7810213" lon="13.5911763"><ele>316.0</ele><time>2026-04-03T17:38:16.683Z</time></trkpt><trkpt lat="41.7809138" lon="13.5913376"><ele>315.0</ele><time>2026-04-03T17:38:17.683Z</time></trkpt><trkpt lat="41.7808338" lon="13.591537"><ele>315.0</ele><time>2026-04-03T17:38:18.683Z</time></trkpt><trkpt lat="41.7807933" lon="13.5917685"><ele>315.0</ele><time>2026-04-03T17:38:19.682Z</time></trkpt><trkpt lat="41.7807809" lon="13.5920669"><ele>315.0</ele><time>2026-04-03T17:38:20.683Z</time></trkpt><trkpt lat="41.7807792" lon="13.5923668"><ele>315.3333333333333</ele><time>2026-04-03T17:38:21.682Z</time></trkpt><trkpt lat="41.7807559" lon="13.5926269"><ele>315.66666666666663</ele><time>2026-04-03T17:38:22.682Z</time></trkpt><trkpt lat="41.7807083" lon="13.5928449"><ele>316.0</ele><time>2026-04-03T17:38:23.682Z</time></trkpt><trkpt lat="41.7806286" lon="13.5930486"><ele>317.0</ele><time>2026-04-03T17:38:24.683Z</time></trkpt><trkpt lat="41.7804935" lon="13.5932303"><ele>318.0</ele><time>2026-04-03T17:38:25.682Z</time></trkpt><trkpt lat="41.780321" lon="13.5934323"><ele>319.0</ele><time>2026-04-03T17:38:26.683Z</time></trkpt><trkpt lat="41.780138" lon="13.5936556"><ele>317.5</ele><time>2026-04-03T17:38:27.682Z</time></trkpt><trkpt lat="41.7799483" lon="13.5938659"><ele>316.0</ele><time>2026-04-03T17:38:28.682Z</time></trkpt><trkpt lat="41.779756" lon="13.5940778"><ele>316.0</ele><time>2026-04-03T17:38:29.683Z</time></trkpt><trkpt lat="41.7795567" lon="13.5942749"><ele>316.0</ele><time>2026-04-03T17:38:30.682Z</time></trkpt><trkpt lat="41.7793465" lon="13.5944425"><ele>316.3333333333333</ele><time>2026-04-03T17:38:31.682Z</time></trkpt><trkpt lat="41.7791444" lon="13.5945767"><ele>316.6666666666667</ele><time>2026-04-03T17:38:32.683Z</time></trkpt><trkpt lat="41.7789614" lon="13.5946887"><ele>317.0</ele><time>2026-04-03T17:38:33.682Z</time></trkpt><trkpt lat="41.7787954" lon="13.5948217"><ele>317.0</ele><time>2026-04-03T17:38:34.683Z</time></trkpt><trkpt lat="41.778625" lon="13.5950278"><ele>317.0</ele><time>2026-04-03T17:38:35.683Z</time></trkpt><trkpt lat="41.7784648" lon="13.5952827"><ele>314.5</ele><time>2026-04-03T17:38:36.682Z</time></trkpt><trkpt lat="41.7782957" lon="13.5955636"><ele>312.0</ele><time>2026-04-03T17:38:37.683Z</time></trkpt><trkpt lat="41.7781228" lon="13.5958374"><ele>312.0</ele><time>2026-04-03T17:38:38.683Z</time></trkpt><trkpt lat="41.7779566" lon="13.5960875"><ele>312.0</ele><time>2026-04-03T17:38:39.682Z</time></trkpt><trkpt lat="41.7778055" lon="13.5963136"><ele>311.0</ele><time>2026-04-03T17:38:40.682Z</time></trkpt><trkpt lat="41.7776722" lon="13.5964972"><ele>310.0</ele><time>2026-04-03T17:38:41.682Z</time></trkpt><trkpt lat="41.7775434" lon="13.5966411"><ele>309.0</ele><time>2026-04-03T17:38:42.682Z</time></trkpt><trkpt lat="41.7774077" lon="13.5967318"><ele>309.0</ele><time>2026-04-03T17:38:43.683Z</time></trkpt><trkpt lat="41.7772632" lon="13.5967658"><ele>309.0</ele><time>2026-04-03T17:38:44.682Z</time></trkpt><trkpt lat="41.7771036" lon="13.596738"><ele>309.0</ele><time>2026-04-03T17:38:45.683Z</time></trkpt><trkpt lat="41.7769417" lon="13.596677"><ele>309.0</ele><time>2026-04-03T17:38:46.683Z</time></trkpt><trkpt lat="41.7767807" lon="13.5966459"><ele>309.0</ele><time>2026-04-03T17:38:47.683Z</time></trkpt><trkpt lat="41.7765934" lon="13.596677"><ele>309.0</ele><time>2026-04-03T17:38:48.682Z</time></trkpt><trkpt lat="41.7763949" lon="13.5967533"><ele>309.0</ele><time>2026-04-03T17:38:49.683Z</time></trkpt><trkpt lat="41.7762073" lon="13.5968507"><ele>309.0</ele><time>2026-04-03T17:38:50.683Z</time></trkpt><trkpt lat="41.7760359" lon="13.596975"><ele>309.0</ele><time>2026-04-03T17:38:51.683Z</time></trkpt><trkpt lat="41.7758657" lon="13.5971511"><ele>310.5</ele><time>2026-04-03T17:38:52.682Z</time></trkpt><trkpt lat="41.7757029" lon="13.5973791"><ele>312.0</ele><time>2026-04-03T17:38:53.683Z</time></trkpt><trkpt lat="41.7755466" lon="13.5976403"><ele>317.0</ele><time>2026-04-03T17:38:54.683Z</time></trkpt><trkpt lat="41.7753994" lon="13.5979438"><ele>322.0</ele><time>2026-04-03T17:38:55.683Z</time></trkpt><trkpt lat="41.7752622" lon="13.5982876"><ele>316.5</ele><time>2026-04-03T17:38:56.682Z</time></trkpt><trkpt lat="41.7751351" lon="13.5986541"><ele>311.0</ele><time>2026-04-03T17:38:57.683Z</time></trkpt><trkpt lat="41.7750017" lon="13.5990235"><ele>311.0</ele><time>2026-04-03T17:38:58.682Z</time></trkpt><trkpt lat="41.7748647" lon="13.5993758"><ele>311.0</ele><time>2026-04-03T17:38:59.682Z</time></trkpt><trkpt lat="41.7747181" lon="13.5997057"><ele>315.0</ele><time>2026-04-03T17:39:00.682Z</time></trkpt><trkpt lat="41.774558" lon="13.6000188"><ele>319.0</ele><time>2026-04-03T17:39:01.682Z</time></trkpt><trkpt lat="41.774397" lon="13.600289"><ele>318.0</ele><time>2026-04-03T17:39:02.682Z</time></trkpt><trkpt lat="41.7742444" lon="13.6005071"><ele>317.0</ele><time>2026-04-03T17:39:03.683Z</time></trkpt><trkpt lat="41.7740942" lon="13.6006899"><ele>316.0</ele><time>2026-04-03T17:39:04.683Z</time></trkpt><trkpt lat="41.7739447" lon="13.6008308"><ele>316.0</ele><time>2026-04-03T17:39:05.683Z</time></trkpt><trkpt lat="41.7738032" lon="13.6009363"><ele>316.0</ele><time>2026-04-03T17:39:06.683Z</time></trkpt><trkpt lat="41.7736935" lon="13.6010479"><ele>316.0</ele><time>2026-04-03T17:39:07.682Z</time></trkpt><trkpt lat="41.7736235" lon="13.601185"><ele>316.0</ele><time>2026-04-03T17:39:08.683Z</time></trkpt><trkpt lat="41.7735994" lon="13.6013347"><ele>319.66666666666663</ele><time>2026-04-03T17:39:09.683Z</time></trkpt><trkpt lat="41.7736219" lon="13.6015139"><ele>323.3333333333333</ele><time>2026-04-03T17:39:10.682Z</time></trkpt><trkpt lat="41.7736831" lon="13.6017212"><ele>327.0</ele><time>2026-04-03T17:39:11.682Z</time></trkpt><trkpt lat="41.7737412" lon="13.6019442"><ele>329.0</ele><time>2026-04-03T17:39:12.683Z</time></trkpt><trkpt lat="41.7737384" lon="13.6021493"><ele>331.0</ele><time>2026-04-03T17:39:13.683Z</time></trkpt><trkpt lat="41.7736755" lon="13.6023314"><ele>333.0</ele><time>2026-04-03T17:39:14.682Z</time></trkpt><trkpt lat="41.7735645" lon="13.6025043"><ele>331.6666666666667</ele><time>2026-04-03T17:39:15.682Z</time></trkpt><trkpt lat="41.7734302" lon="13.6026921"><ele>330.33333333333337</ele><time>2026-04-03T17:39:16.682Z</time></trkpt><trkpt lat="41.7732934" lon="13.602893"><ele>329.0</ele><time>2026-04-03T17:39:17.682Z</time></trkpt><trkpt lat="41.7731766" lon="13.6031031"><ele>329.0</ele><time>2026-04-03T17:39:18.683Z</time></trkpt><trkpt lat="41.7730825" lon="13.6033224"><ele>329.0</ele><time>2026-04-03T17:39:19.682Z</time></trkpt><trkpt lat="41.7729831" lon="13.6035185"><ele>329.0</ele><time>2026-04-03T17:39:20.682Z</time></trkpt><trkpt lat="41.7728396" lon="13.6036873"><ele>327.6666666666667</ele><time>2026-04-03T17:39:21.682Z</time></trkpt><trkpt lat="41.7726683" lon="13.6038476"><ele>326.3333333333333</ele><time>2026-04-03T17:39:22.682Z</time></trkpt><trkpt lat="41.7724932" lon="13.6040067"><ele>325.0</ele><time>2026-04-03T17:39:23.682Z</time></trkpt><trkpt lat="41.7723401" lon="13.6041422"><ele>325.0</ele><time>2026-04-03T17:39:24.682Z</time></trkpt><trkpt lat="41.7722093" lon="13.6042524"><ele>325.0</ele><time>2026-04-03T17:39:25.683Z</time></trkpt><trkpt lat="41.7720884" lon="13.6043123"><ele>325.0</ele><time>2026-04-03T17:39:26.683Z</time></trkpt><trkpt lat="41.7719738" lon="13.6042993"><ele>325.0</ele><time>2026-04-03T17:39:27.683Z</time></trkpt><trkpt lat="41.7718759" lon="13.6042158"><ele>325.25</ele><time>2026-04-03T17:39:28.683Z</time></trkpt><trkpt lat="41.7717928" lon="13.6040634"><ele>325.5</ele><time>2026-04-03T17:39:29.683Z</time></trkpt><trkpt lat="41.7717142" lon="13.6039149"><ele>325.75</ele><time>2026-04-03T17:39:30.682Z</time></trkpt><trkpt lat="41.7716142" lon="13.6038444"><ele>326.0</ele><time>2026-04-03T17:39:31.683Z</time></trkpt><trkpt lat="41.7714916" lon="13.6038344"><ele>326.0</ele><time>2026-04-03T17:39:32.683Z</time></trkpt><trkpt lat="41.7713636" lon="13.6038797"><ele>326.0</ele><time>2026-04-03T17:39:33.682Z</time></trkpt><trkpt lat="41.7712593" lon="13.6039873"><ele>326.0</ele><time>2026-04-03T17:39:34.683Z</time></trkpt><trkpt lat="41.7711636" lon="13.6041527"><ele>326.0</ele><time>2026-04-03T17:39:35.683Z</time></trkpt><trkpt lat="41.7710515" lon="13.6043403"><ele>325.6666666666667</ele><time>2026-04-03T17:39:36.682Z</time></trkpt><trkpt lat="41.7709118" lon="13.6044979"><ele>325.3333333333333</ele><time>2026-04-03T17:39:37.683Z</time></trkpt><trkpt lat="41.7707775" lon="13.6046156"><ele>325.0</ele><time>2026-04-03T17:39:38.683Z</time></trkpt><trkpt lat="41.770653" lon="13.6046856"><ele>325.0</ele><time>2026-04-03T17:39:39.682Z</time></trkpt><trkpt lat="41.7705299" lon="13.6047198"><ele>325.0</ele><time>2026-04-03T17:39:40.683Z</time></trkpt><trkpt lat="41.7704074" lon="13.6046967"><ele>325.0</ele><time>2026-04-03T17:39:41.683Z</time></trkpt><trkpt lat="41.7702825" lon="13.604616"><ele>325.0</ele><time>2026-04-03T17:39:42.682Z</time></trkpt><trkpt lat="41.7701528" lon="13.6044704"><ele>324.0</ele><time>2026-04-03T17:39:43.683Z</time></trkpt><trkpt lat="41.7700015" lon="13.6042907"><ele>323.0</ele><time>2026-04-03T17:39:44.682Z</time></trkpt><trkpt lat="41.7698267" lon="13.6040955"><ele>322.0</ele><time>2026-04-03T17:39:45.683Z</time></trkpt><trkpt lat="41.7696272" lon="13.6039031"><ele>322.0</ele><time>2026-04-03T17:39:46.683Z</time></trkpt><trkpt lat="41.7694184" lon="13.6037332"><ele>322.0</ele><time>2026-04-03T17:39:47.683Z</time></trkpt><trkpt lat="41.7692178" lon="13.6035891"><ele>317.0</ele><time>2026-04-03T17:39:48.682Z</time></trkpt><trkpt lat="41.7690059" lon="13.6034824"><ele>312.0</ele><time>2026-04-03T17:39:49.683Z</time></trkpt><trkpt lat="41.7687801" lon="13.6034021"><ele>312.0</ele><time>2026-04-03T17:39:50.682Z</time></trkpt><trkpt lat="41.768555" lon="13.6033328"><ele>312.0</ele><time>2026-04-03T17:39:51.682Z</time></trkpt><trkpt lat="41.7683402" lon="13.6032853"><ele>312.0</ele><time>2026-04-03T17:39:52.683Z</time></trkpt><trkpt lat="41.7681338" lon="13.6032677"><ele>311.6666666666667</ele><time>2026-04-03T17:39:53.683Z</time></trkpt><trkpt lat="41.7679392" lon="13.6032922"><ele>311.33333333333337</ele><time>2026-04-03T17:39:54.682Z</time></trkpt><trkpt lat="41.7677784" lon="13.6033479"><ele>311.0</ele><time>2026-04-03T17:39:55.682Z</time></trkpt><trkpt lat="41.7676464" lon="13.6034385"><ele>311.0</ele><time>2026-04-03T17:39:56.683Z</time></trkpt><trkpt lat="41.7675485" lon="13.6035785"><ele>311.0</ele><time>2026-04-03T17:39:57.683Z</time></trkpt><trkpt lat="41.767477" lon="13.6037565"><ele>311.0</ele><time>2026-04-03T17:39:58.682Z</time></trkpt><trkpt lat="41.7674293" lon="13.603989"><ele>311.0</ele><time>2026-04-03T17:39:59.682Z</time></trkpt><trkpt lat="41.7673645" lon="13.6042429"><ele>311.0</ele><time>2026-04-03T17:40:00.683Z</time></trkpt><trkpt lat="41.7672861" lon="13.6044772"><ele>311.0</ele><time>2026-04-03T17:40:01.683Z</time></trkpt><trkpt lat="41.767199" lon="13.6046383"><ele>310.75</ele><time>2026-04-03T17:40:02.683Z</time></trkpt><trkpt lat="41.767088" lon="13.6047328"><ele>310.5</ele><time>2026-04-03T17:40:03.683Z</time></trkpt><trkpt lat="41.7669587" lon="13.6047693"><ele>310.25</ele><time>2026-04-03T17:40:04.682Z</time></trkpt><trkpt lat="41.7668035" lon="13.6047448"><ele>310.0</ele><time>2026-04-03T17:40:05.682Z</time></trkpt><trkpt lat="41.7666328" lon="13.604678"><ele>309.66666666666663</ele><time>2026-04-03T17:40:06.682Z</time></trkpt><trkpt lat="41.7664636" lon="13.6046099"><ele>309.3333333333333</ele><time>2026-04-03T17:40:07.682Z</time></trkpt><trkpt lat="41.7663157" lon="13.6045855"><ele>309.0</ele><time>2026-04-03T17:40:08.683Z</time></trkpt><trkpt lat="41.766183" lon="13.6046147"><ele>309.0</ele><time>2026-04-03T17:40:09.683Z</time></trkpt><trkpt lat="41.7660622" lon="13.6047074"><ele>309.0</ele><time>2026-04-03T17:40:10.683Z</time></trkpt><trkpt lat="41.7659515" lon="13.6048767"><ele>309.0</ele><time>2026-04-03T17:40:11.682Z</time></trkpt><trkpt lat="41.7658358" lon="13.6051062"><ele>306.5</ele><time>2026-04-03T17:40:12.682Z</time></trkpt><trkpt lat="41.7657184" lon="13.6053675"><ele>304.0</ele><time>2026-04-03T17:40:13.682Z</time></trkpt><trkpt lat="41.7655811" lon="13.6056521"><ele>304.0</ele><time>2026-04-03T17:40:14.682Z</time></trkpt><trkpt lat="41.765418" lon="13.6059598"><ele>304.0</ele><time>2026-04-03T17:40:15.682Z</time></trkpt><trkpt lat="41.7652308" lon="13.6062885"><ele>303.0</ele><time>2026-04-03T17:40:16.682Z</time></trkpt><trkpt lat="41.7650265" lon="13.606618"><ele>302.0</ele><time>2026-04-03T17:40:17.682Z</time></trkpt><trkpt lat="41.7648126" lon="13.6069411"><ele>306.5</ele><time>2026-04-03T17:40:18.681Z</time></trkpt><trkpt lat="41.7646031" lon="13.6072373"><ele>311.0</ele><time>2026-04-03T17:40:19.682Z</time></trkpt><trkpt lat="41.764396" lon="13.6075052"><ele>309.0</ele><time>2026-04-03T17:40:20.681Z</time></trkpt><trkpt lat="41.7641755" lon="13.6077615"><ele>307.0</ele><time>2026-04-03T17:40:21.682Z</time></trkpt><trkpt lat="41.763942" lon="13.6080151"><ele>307.0</ele><time>2026-04-03T17:40:22.682Z</time></trkpt><trkpt lat="41.7636872" lon="13.6082617"><ele>307.0</ele><time>2026-04-03T17:40:23.682Z</time></trkpt><trkpt lat="41.7634101" lon="13.6084934"><ele>306.5</ele><time>2026-04-03T17:40:24.682Z</time></trkpt><trkpt lat="41.7631147" lon="13.6087011"><ele>306.0</ele><time>2026-04-03T17:40:25.682Z</time></trkpt><trkpt lat="41.7628076" lon="13.6088804"><ele>303.5</ele><time>2026-04-03T17:40:26.681Z</time></trkpt><trkpt lat="41.7625037" lon="13.6090379"><ele>301.0</ele><time>2026-04-03T17:40:27.681Z</time></trkpt><trkpt lat="41.762211" lon="13.6091748"><ele>301.0</ele><time>2026-04-03T17:40:28.682Z</time></trkpt><trkpt lat="41.7619265" lon="13.6092855"><ele>301.0</ele><time>2026-04-03T17:40:29.682Z</time></trkpt><trkpt lat="41.7616555" lon="13.6093829"><ele>301.3333333333333</ele><time>2026-04-03T17:40:30.682Z</time></trkpt><trkpt lat="41.7614196" lon="13.609455"><ele>301.6666666666667</ele><time>2026-04-03T17:40:31.682Z</time></trkpt><trkpt lat="41.7612164" lon="13.6095109"><ele>302.0</ele><time>2026-04-03T17:40:32.681Z</time></trkpt><trkpt lat="41.761032" lon="13.6095767"><ele>304.33333333333337</ele><time>2026-04-03T17:40:33.682Z</time></trkpt><trkpt lat="41.7608727" lon="13.6096692"><ele>306.6666666666667</ele><time>2026-04-03T17:40:34.681Z</time></trkpt><trkpt lat="41.7607424" lon="13.6097916"><ele>309.0</ele><time>2026-04-03T17:40:35.681Z</time></trkpt><trkpt lat="41.7606407" lon="13.6099425"><ele>309.0</ele><time>2026-04-03T17:40:36.682Z</time></trkpt><trkpt lat="41.7605666" lon="13.6101302"><ele>309.0</ele><time>2026-04-03T17:40:37.682Z</time></trkpt><trkpt lat="41.7605283" lon="13.6103688"><ele>309.0</ele><time>2026-04-03T17:40:38.682Z</time></trkpt><trkpt lat="41.7604812" lon="13.6106237"><ele>309.6666666666667</ele><time>2026-04-03T17:40:39.681Z</time></trkpt><trkpt lat="41.7604008" lon="13.6108505"><ele>310.33333333333337</ele><time>2026-04-03T17:40:40.682Z</time></trkpt><trkpt lat="41.7602733" lon="13.6110252"><ele>311.0</ele><time>2026-04-03T17:40:41.681Z</time></trkpt><trkpt lat="41.7600983" lon="13.6111762"><ele>311.0</ele><time>2026-04-03T17:40:42.682Z</time></trkpt><trkpt lat="41.7598914" lon="13.6113275"><ele>311.0</ele><time>2026-04-03T17:40:43.681Z</time></trkpt><trkpt lat="41.7596695" lon="13.6115002"><ele>311.0</ele><time>2026-04-03T17:40:44.681Z</time></trkpt><trkpt lat="41.7594314" lon="13.611692"><ele>311.0</ele><time>2026-04-03T17:40:45.682Z</time></trkpt><trkpt lat="41.7591809" lon="13.6118871"><ele>312.0</ele><time>2026-04-03T17:40:46.682Z</time></trkpt><trkpt lat="41.7589344" lon="13.612059"><ele>313.0</ele><time>2026-04-03T17:40:47.681Z</time></trkpt><trkpt lat="41.7587122" lon="13.612191"><ele>307.5</ele><time>2026-04-03T17:40:48.682Z</time></trkpt><trkpt lat="41.7584972" lon="13.6122912"><ele>302.0</ele><time>2026-04-03T17:40:49.681Z</time></trkpt><trkpt lat="41.7582662" lon="13.6123653"><ele>302.0</ele><time>2026-04-03T17:40:50.682Z</time></trkpt><trkpt lat="41.7580128" lon="13.6124055"><ele>302.0</ele><time>2026-04-03T17:40:51.682Z</time></trkpt><trkpt lat="41.7577388" lon="13.6124318"><ele>301.0</ele><time>2026-04-03T17:40:52.681Z</time></trkpt><trkpt lat="41.7574605" lon="13.6124735"><ele>300.0</ele><time>2026-04-03T17:40:53.681Z</time></trkpt><trkpt lat="41.7571969" lon="13.6125329"><ele>300.0</ele><time>2026-04-03T17:40:54.682Z</time></trkpt><trkpt lat="41.7569468" lon="13.6126095"><ele>300.0</ele><time>2026-04-03T17:40:55.681Z</time></trkpt><trkpt lat="41.7566946" lon="13.612713"><ele>303.0</ele><time>2026-04-03T17:40:56.682Z</time></trkpt><trkpt lat="41.7564467" lon="13.612844"><ele>306.0</ele><time>2026-04-03T17:40:57.682Z</time></trkpt><trkpt lat="41.7562085" lon="13.6130085"><ele>303.0</ele><time>2026-04-03T17:40:58.682Z</time></trkpt><trkpt lat="41.7559794" lon="13.6131964"><ele>300.0</ele><time>2026-04-03T17:40:59.682Z</time></trkpt><trkpt lat="41.7557872" lon="13.6133679"><ele>300.0</ele><time>2026-04-03T17:41:00.682Z</time></trkpt><trkpt lat="41.7556294" lon="13.6135296"><ele>300.0</ele><time>2026-04-03T17:41:01.681Z</time></trkpt><trkpt lat="41.7554874" lon="13.613711"><ele>300.0</ele><time>2026-04-03T17:41:02.681Z</time></trkpt><trkpt lat="41.7553433" lon="13.6139318"><ele>300.0</ele><time>2026-04-03T17:41:03.682Z</time></trkpt><trkpt lat="41.7551988" lon="13.6141654"><ele>300.0</ele><time>2026-04-03T17:41:04.682Z</time></trkpt><trkpt lat="41.7550665" lon="13.6143781"><ele>300.0</ele><time>2026-04-03T17:41:05.682Z</time></trkpt><trkpt lat="41.7549382" lon="13.6145765"><ele>300.3333333333333</ele><time>2026-04-03T17:41:06.682Z</time></trkpt><trkpt lat="41.7548167" lon="13.6147712"><ele>300.66666666666663</ele><time>2026-04-03T17:41:07.682Z</time></trkpt><trkpt lat="41.7546964" lon="13.6149664"><ele>301.0</ele><time>2026-04-03T17:41:08.681Z</time></trkpt><trkpt lat="41.7545758" lon="13.6151706"><ele>300.66666666666663</ele><time>2026-04-03T17:41:09.682Z</time></trkpt><trkpt lat="41.7544606" lon="13.6153927"><ele>300.3333333333333</ele><time>2026-04-03T17:41:10.681Z</time></trkpt><trkpt lat="41.7543511" lon="13.6156534"><ele>300.0</ele><time>2026-04-03T17:41:11.682Z</time></trkpt><trkpt lat="41.7542557" lon="13.6159489"><ele>301.5</ele><time>2026-04-03T17:41:12.681Z</time></trkpt><trkpt lat="41.754172" lon="13.6162748"><ele>303.0</ele><time>2026-04-03T17:41:13.682Z</time></trkpt><trkpt lat="41.7540893" lon="13.6166236"><ele>303.0</ele><time>2026-04-03T17:41:14.681Z</time></trkpt><trkpt lat="41.7540032" lon="13.6169694"><ele>303.0</ele><time>2026-04-03T17:41:15.682Z</time></trkpt><trkpt lat="41.7539193" lon="13.6172884"><ele>304.3333333333333</ele><time>2026-04-03T17:41:16.682Z</time></trkpt><trkpt lat="41.7538288" lon="13.6175752"><ele>305.66666666666663</ele><time>2026-04-03T17:41:17.682Z</time></trkpt><trkpt lat="41.7537257" lon="13.6178308"><ele>307.0</ele><time>2026-04-03T17:41:18.681Z</time></trkpt><trkpt lat="41.7535926" lon="13.618059"><ele>303.5</ele><time>2026-04-03T17:41:19.682Z</time></trkpt><trkpt lat="41.7534128" lon="13.6182669"><ele>300.0</ele><time>2026-04-03T17:41:20.682Z</time></trkpt><trkpt lat="41.7532039" lon="13.6184667"><ele>306.0</ele><time>2026-04-03T17:41:21.682Z</time></trkpt><trkpt lat="41.7529859" lon="13.6186732"><ele>312.0</ele><time>2026-04-03T17:41:22.682Z</time></trkpt><trkpt lat="41.7527648" lon="13.6188885"><ele>306.5</ele><time>2026-04-03T17:41:23.681Z</time></trkpt><trkpt lat="41.752548" lon="13.6191046"><ele>301.0</ele><time>2026-04-03T17:41:24.681Z</time></trkpt><trkpt lat="41.7523335" lon="13.6193263"><ele>306.5</ele><time>2026-04-03T17:41:25.682Z</time></trkpt><trkpt lat="41.7521303" lon="13.6195417"><ele>312.0</ele><time>2026-04-03T17:41:26.681Z</time></trkpt><trkpt lat="41.7519313" lon="13.6197466"><ele>305.5</ele><time>2026-04-03T17:41:27.682Z</time></trkpt><trkpt lat="41.7517312" lon="13.6199485"><ele>299.0</ele><time>2026-04-03T17:41:28.681Z</time></trkpt><trkpt lat="41.7515367" lon="13.620132"><ele>299.0</ele><time>2026-04-03T17:41:29.682Z</time></trkpt><trkpt lat="41.7513322" lon="13.6202734"><ele>299.0</ele><time>2026-04-03T17:41:30.681Z</time></trkpt><trkpt lat="41.7511006" lon="13.6204038"><ele>301.5</ele><time>2026-04-03T17:41:31.682Z</time></trkpt><trkpt lat="41.7508335" lon="13.6205436"><ele>304.0</ele><time>2026-04-03T17:41:32.682Z</time></trkpt><trkpt lat="41.7505514" lon="13.6206862"><ele>304.0</ele><time>2026-04-03T17:41:33.682Z</time></trkpt><trkpt lat="41.7502798" lon="13.620814"><ele>304.0</ele><time>2026-04-03T17:41:34.681Z</time></trkpt><trkpt lat="41.750042" lon="13.620916"><ele>301.3333333333333</ele><time>2026-04-03T17:41:35.681Z</time></trkpt><trkpt lat="41.7498389" lon="13.6210023"><ele>298.6666666666667</ele><time>2026-04-03T17:41:36.682Z</time></trkpt><trkpt lat="41.7496668" lon="13.621063"><ele>296.0</ele><time>2026-04-03T17:41:37.682Z</time></trkpt><trkpt lat="41.7495136" lon="13.6210922"><ele>295.6666666666667</ele><time>2026-04-03T17:41:38.681Z</time></trkpt><trkpt lat="41.7493681" lon="13.6210809"><ele>295.3333333333333</ele><time>2026-04-03T17:41:39.682Z</time></trkpt><trkpt lat="41.7492062" lon="13.6210277"><ele>295.0</ele><time>2026-04-03T17:41:40.681Z</time></trkpt><trkpt lat="41.7490269" lon="13.6209056"><ele>295.0</ele><time>2026-04-03T17:41:41.682Z</time></trkpt><trkpt lat="41.7488273" lon="13.620744"><ele>295.0</ele><time>2026-04-03T17:41:42.682Z</time></trkpt><trkpt lat="41.7486134" lon="13.6205686"><ele>296.0</ele><time>2026-04-03T17:41:43.682Z</time></trkpt><trkpt lat="41.7483922" lon="13.6203891"><ele>297.0</ele><time>2026-04-03T17:41:44.681Z</time></trkpt><trkpt lat="41.7481914" lon="13.6202234"><ele>297.0</ele><time>2026-04-03T17:41:45.682Z</time></trkpt><trkpt lat="41.7480123" lon="13.6200579"><ele>297.0</ele><time>2026-04-03T17:41:46.681Z</time></trkpt><trkpt lat="41.7478452" lon="13.6198588"><ele>297.0</ele><time>2026-04-03T17:41:47.682Z</time></trkpt><trkpt lat="41.7476839" lon="13.6196287"><ele>298.0</ele><time>2026-04-03T17:41:48.681Z</time></trkpt><trkpt lat="41.7475288" lon="13.619373"><ele>299.0</ele><time>2026-04-03T17:41:49.681Z</time></trkpt><trkpt lat="41.747397" lon="13.6190996"><ele>299.0</ele><time>2026-04-03T17:41:50.681Z</time></trkpt><trkpt lat="41.7472798" lon="13.6188469"><ele>299.0</ele><time>2026-04-03T17:41:51.682Z</time></trkpt><trkpt lat="41.7471764" lon="13.6186322"><ele>299.0</ele><time>2026-04-03T17:41:52.682Z</time></trkpt><trkpt lat="41.7470752" lon="13.6184496"><ele>299.25</ele><time>2026-04-03T17:41:53.682Z</time></trkpt><trkpt lat="41.7469712" lon="13.6183056"><ele>299.5</ele><time>2026-04-03T17:41:54.681Z</time></trkpt><trkpt lat="41.7468579" lon="13.6182135"><ele>299.75</ele><time>2026-04-03T17:41:55.681Z</time></trkpt><trkpt lat="41.7467316" lon="13.6181481"><ele>300.0</ele><time>2026-04-03T17:41:56.681Z</time></trkpt><trkpt lat="41.7465969" lon="13.6181186"><ele>300.0</ele><time>2026-04-03T17:41:57.682Z</time></trkpt><trkpt lat="41.7464557" lon="13.618142"><ele>300.0</ele><time>2026-04-03T17:41:58.682Z</time></trkpt><trkpt lat="41.7463064" lon="13.6182252"><ele>300.0</ele><time>2026-04-03T17:41:59.682Z</time></trkpt><trkpt lat="41.7461456" lon="13.6183739"><ele>298.0</ele><time>2026-04-03T17:42:00.682Z</time></trkpt><trkpt lat="41.7459626" lon="13.6185427"><ele>296.0</ele><time>2026-04-03T17:42:01.681Z</time></trkpt><trkpt lat="41.7457486" lon="13.6187141"><ele>302.0</ele><time>2026-04-03T17:42:02.681Z</time></trkpt><trkpt lat="41.7454922" lon="13.6188775"><ele>308.0</ele><time>2026-04-03T17:42:03.681Z</time></trkpt><trkpt lat="41.7452375" lon="13.6190205"><ele>305.6666666666667</ele><time>2026-04-03T17:42:04.682Z</time></trkpt><trkpt lat="41.7450216" lon="13.6191272"><ele>303.3333333333333</ele><time>2026-04-03T17:42:05.682Z</time></trkpt><trkpt lat="41.744841" lon="13.6192074"><ele>301.0</ele><time>2026-04-03T17:42:06.682Z</time></trkpt><trkpt lat="41.7446914" lon="13.6192714"><ele>301.0</ele><time>2026-04-03T17:42:07.681Z</time></trkpt><trkpt lat="41.7445638" lon="13.6193171"><ele>301.0</ele><time>2026-04-03T17:42:08.681Z</time></trkpt><trkpt lat="41.7444398" lon="13.6193356"><ele>301.0</ele><time>2026-04-03T17:42:09.681Z</time></trkpt><trkpt lat="41.7443257" lon="13.61932"><ele>301.0</ele><time>2026-04-03T17:42:10.682Z</time></trkpt><trkpt lat="41.7442099" lon="13.6192685"><ele>300.75</ele><time>2026-04-03T17:42:11.682Z</time></trkpt><trkpt lat="41.744101" lon="13.6191736"><ele>300.5</ele><time>2026-04-03T17:42:12.681Z</time></trkpt><trkpt lat="41.7439952" lon="13.6190586"><ele>300.25</ele><time>2026-04-03T17:42:13.682Z</time></trkpt><trkpt lat="41.743864" lon="13.6189303"><ele>300.0</ele><time>2026-04-03T17:42:14.682Z</time></trkpt><trkpt lat="41.743723" lon="13.6188328"><ele>300.0</ele><time>2026-04-03T17:42:15.681Z</time></trkpt><trkpt lat="41.7435846" lon="13.6187971"><ele>300.0</ele><time>2026-04-03T17:42:16.681Z</time></trkpt><trkpt lat="41.7434266" lon="13.6188193"><ele>300.0</ele><time>2026-04-03T17:42:17.682Z</time></trkpt><trkpt lat="41.7432408" lon="13.6189161"><ele>302.0</ele><time>2026-04-03T17:42:18.682Z</time></trkpt><trkpt lat="41.7430447" lon="13.6190624"><ele>304.0</ele><time>2026-04-03T17:42:19.682Z</time></trkpt><trkpt lat="41.7428289" lon="13.6192263"><ele>299.5</ele><time>2026-04-03T17:42:20.682Z</time></trkpt><trkpt lat="41.7426065" lon="13.6193729"><ele>295.0</ele><time>2026-04-03T17:42:21.682Z</time></trkpt><trkpt lat="41.7424002" lon="13.619472"><ele>299.3333333333333</ele><time>2026-04-03T17:42:22.682Z</time></trkpt><trkpt lat="41.7421995" lon="13.6195262"><ele>303.6666666666667</ele><time>2026-04-03T17:42:23.681Z</time></trkpt><trkpt lat="41.7419859" lon="13.619533"><ele>308.0</ele><time>2026-04-03T17:42:24.682Z</time></trkpt><trkpt lat="41.741759" lon="13.6195087"><ele>308.0</ele><time>2026-04-03T17:42:25.681Z</time></trkpt><trkpt lat="41.741534" lon="13.6194879"><ele>308.0</ele><time>2026-04-03T17:42:26.681Z</time></trkpt><trkpt lat="41.7413177" lon="13.6194949"><ele>308.0</ele><time>2026-04-03T17:42:27.682Z</time></trkpt><trkpt lat="41.7411015" lon="13.6195258"><ele>307.0</ele><time>2026-04-03T17:42:28.682Z</time></trkpt><trkpt lat="41.7408758" lon="13.6195968"><ele>306.0</ele><time>2026-04-03T17:42:29.682Z</time></trkpt><trkpt lat="41.7406524" lon="13.6196851"><ele>306.0</ele><time>2026-04-03T17:42:30.682Z</time></trkpt><trkpt lat="41.7404373" lon="13.6197617"><ele>306.0</ele><time>2026-04-03T17:42:31.682Z</time></trkpt><trkpt lat="41.7402231" lon="13.6198147"><ele>306.0</ele><time>2026-04-03T17:42:32.682Z</time></trkpt><trkpt lat="41.7400175" lon="13.6198421"><ele>306.0</ele><time>2026-04-03T17:42:33.682Z</time></trkpt><trkpt lat="41.7398405" lon="13.6198342"><ele>306.0</ele><time>2026-04-03T17:42:34.682Z</time></trkpt><trkpt lat="41.7396861" lon="13.6198031"><ele>306.0</ele><time>2026-04-03T17:42:35.681Z</time></trkpt><trkpt lat="41.7395529" lon="13.6197563"><ele>306.0</ele><time>2026-04-03T17:42:36.682Z</time></trkpt><trkpt lat="41.7394563" lon="13.6196983"><ele>306.0</ele><time>2026-04-03T17:42:37.682Z</time></trkpt><trkpt lat="41.7393846" lon="13.6196443"><ele>306.0</ele><time>2026-04-03T17:42:38.682Z</time></trkpt><trkpt lat="41.7393055" lon="13.619593"><ele>306.0</ele><time>2026-04-03T17:42:39.681Z</time></trkpt><trkpt lat="41.7392033" lon="13.6195331"><ele>306.0</ele><time>2026-04-03T17:42:40.682Z</time></trkpt><trkpt lat="41.7390662" lon="13.619466"><ele>302.0</ele><time>2026-04-03T17:42:41.681Z</time></trkpt><trkpt lat="41.7388753" lon="13.6194032"><ele>298.0</ele><time>2026-04-03T17:42:42.682Z</time></trkpt><trkpt lat="41.7386493" lon="13.6193628"><ele>294.0</ele><time>2026-04-03T17:42:43.682Z</time></trkpt><trkpt lat="41.7383899" lon="13.6193607"><ele>294.0</ele><time>2026-04-03T17:42:44.682Z</time></trkpt><trkpt lat="41.7381056" lon="13.6194038"><ele>294.0</ele><time>2026-04-03T17:42:45.682Z</time></trkpt><trkpt lat="41.7378294" lon="13.6194565"><ele>294.0</ele><time>2026-04-03T17:42:46.682Z</time></trkpt><trkpt lat="41.7375843" lon="13.6194744"><ele>294.0</ele><time>2026-04-03T17:42:47.682Z</time></trkpt><trkpt lat="41.737358" lon="13.619447"><ele>294.0</ele><time>2026-04-03T17:42:48.682Z</time></trkpt><trkpt lat="41.7371355" lon="13.6193798"><ele>294.0</ele><time>2026-04-03T17:42:49.682Z</time></trkpt><trkpt lat="41.736928" lon="13.6192796"><ele>294.0</ele><time>2026-04-03T17:42:50.682Z</time></trkpt><trkpt lat="41.7367437" lon="13.6191824"><ele>294.0</ele><time>2026-04-03T17:42:51.682Z</time></trkpt><trkpt lat="41.7365704" lon="13.6191318"><ele>294.0</ele><time>2026-04-03T17:42:52.682Z</time></trkpt><trkpt lat="41.7363944" lon="13.6191464"><ele>294.0</ele><time>2026-04-03T17:42:53.682Z</time></trkpt><trkpt lat="41.7362006" lon="13.6192193"><ele>293.0</ele><time>2026-04-03T17:42:54.682Z</time></trkpt><trkpt lat="41.7359905" lon="13.6193522"><ele>292.0</ele><time>2026-04-03T17:42:55.681Z</time></trkpt><trkpt lat="41.7357889" lon="13.6195136"><ele>295.0</ele><time>2026-04-03T17:42:56.682Z</time></trkpt><trkpt lat="41.735611" lon="13.6196697"><ele>298.0</ele><time>2026-04-03T17:42:57.682Z</time></trkpt><trkpt lat="41.7354587" lon="13.6198477"><ele>301.0</ele><time>2026-04-03T17:42:58.681Z</time></trkpt><trkpt lat="41.7353221" lon="13.6200657"><ele>297.5</ele><time>2026-04-03T17:42:59.682Z</time></trkpt><trkpt lat="41.7351804" lon="13.6203346"><ele>294.0</ele><time>2026-04-03T17:43:00.681Z</time></trkpt><trkpt lat="41.7350276" lon="13.6206288"><ele>294.0</ele><time>2026-04-03T17:43:01.682Z</time></trkpt><trkpt lat="41.734864" lon="13.6209185"><ele>294.0</ele><time>2026-04-03T17:43:02.681Z</time></trkpt><trkpt lat="41.7346997" lon="13.6211812"><ele>293.5</ele><time>2026-04-03T17:43:03.681Z</time></trkpt><trkpt lat="41.7345336" lon="13.6214217"><ele>293.0</ele><time>2026-04-03T17:43:04.682Z</time></trkpt><trkpt lat="41.7343531" lon="13.6216566"><ele>293.0</ele><time>2026-04-03T17:43:05.682Z</time></trkpt><trkpt lat="41.7341723" lon="13.6218769"><ele>293.0</ele><time>2026-04-03T17:43:06.682Z</time></trkpt><trkpt lat="41.7340042" lon="13.6220745"><ele>296.33333333333337</ele><time>2026-04-03T17:43:07.681Z</time></trkpt><trkpt lat="41.7338517" lon="13.6222896"><ele>299.6666666666667</ele><time>2026-04-03T17:43:08.682Z</time></trkpt><trkpt lat="41.7337186" lon="13.6225278"><ele>303.0</ele><time>2026-04-03T17:43:09.682Z</time></trkpt><trkpt lat="41.7335807" lon="13.6227555"><ele>299.0</ele><time>2026-04-03T17:43:10.682Z</time></trkpt><trkpt lat="41.7334143" lon="13.6229587"><ele>295.0</ele><time>2026-04-03T17:43:11.682Z</time></trkpt><trkpt lat="41.7332211" lon="13.6231393"><ele>295.0</ele><time>2026-04-03T17:43:12.681Z</time></trkpt><trkpt lat="41.7330109" lon="13.623311"><ele>295.0</ele><time>2026-04-03T17:43:13.682Z</time></trkpt><trkpt lat="41.7327795" lon="13.6234712"><ele>294.0</ele><time>2026-04-03T17:43:14.681Z</time></trkpt><trkpt lat="41.7325425" lon="13.6236129"><ele>293.0</ele><time>2026-04-03T17:43:15.682Z</time></trkpt><trkpt lat="41.7323102" lon="13.6237238"><ele>293.0</ele><time>2026-04-03T17:43:16.682Z</time></trkpt><trkpt lat="41.7320768" lon="13.6238219"><ele>293.0</ele><time>2026-04-03T17:43:17.681Z</time></trkpt><trkpt lat="41.7318525" lon="13.6239115"><ele>292.6666666666667</ele><time>2026-04-03T17:43:18.681Z</time></trkpt><trkpt lat="41.7316453" lon="13.6239908"><ele>292.3333333333333</ele><time>2026-04-03T17:43:19.682Z</time></trkpt><trkpt lat="41.7314441" lon="13.6240557"><ele>292.0</ele><time>2026-04-03T17:43:20.681Z</time></trkpt><trkpt lat="41.7312414" lon="13.6241087"><ele>290.66666666666663</ele><time>2026-04-03T17:43:21.681Z</time></trkpt><trkpt lat="41.7310452" lon="13.624149"><ele>289.3333333333333</ele><time>2026-04-03T17:43:22.682Z</time></trkpt><trkpt lat="41.7308593" lon="13.6241768"><ele>288.0</ele><time>2026-04-03T17:43:23.681Z</time></trkpt><trkpt lat="41.7306768" lon="13.6242"><ele>288.0</ele><time>2026-04-03T17:43:24.682Z</time></trkpt><trkpt lat="41.7304986" lon="13.6242201"><ele>288.0</ele><time>2026-04-03T17:43:25.681Z</time></trkpt><trkpt lat="41.7303259" lon="13.624235"><ele>288.0</ele><time>2026-04-03T17:43:26.681Z</time></trkpt><trkpt lat="41.7301796" lon="13.6242419"><ele>288.3333333333333</ele><time>2026-04-03T17:43:27.682Z</time></trkpt><trkpt lat="41.7300622" lon="13.6242451"><ele>288.6666666666667</ele><time>2026-04-03T17:43:28.682Z</time></trkpt><trkpt lat="41.7299626" lon="13.6242473"><ele>289.0</ele><time>2026-04-03T17:43:29.681Z</time></trkpt><trkpt lat="41.7298728" lon="13.6242442"><ele>289.33333333333337</ele><time>2026-04-03T17:43:30.681Z</time></trkpt><trkpt lat="41.7297981" lon="13.6242453"><ele>289.6666666666667</ele><time>2026-04-03T17:43:31.682Z</time></trkpt><trkpt lat="41.7297321" lon="13.624249"><ele>290.0</ele><time>2026-04-03T17:43:32.682Z</time></trkpt><trkpt lat="41.7296582" lon="13.6242501"><ele>290.0</ele><time>2026-04-03T17:43:33.682Z</time></trkpt><trkpt lat="41.7295684" lon="13.6242454"><ele>290.0</ele><time>2026-04-03T17:43:34.681Z</time></trkpt><trkpt lat="41.7294672" lon="13.6242389"><ele>290.0</ele><time>2026-04-03T17:43:35.681Z</time></trkpt><trkpt lat="41.7293571" lon="13.6242341"><ele>290.0</ele><time>2026-04-03T17:43:36.681Z</time></trkpt><trkpt lat="41.7292444" lon="13.6242303"><ele>290.0</ele><time>2026-04-03T17:43:37.682Z</time></trkpt><trkpt lat="41.7291165" lon="13.6242233"><ele>290.0</ele><time>2026-04-03T17:43:38.681Z</time></trkpt><trkpt lat="41.7289761" lon="13.6242159"><ele>290.0</ele><time>2026-04-03T17:43:39.682Z</time></trkpt><trkpt lat="41.7288232" lon="13.6242061"><ele>290.0</ele><time>2026-04-03T17:43:40.682Z</time></trkpt><trkpt lat="41.7286643" lon="13.6241925"><ele>289.6666666666667</ele><time>2026-04-03T17:43:41.682Z</time></trkpt><trkpt lat="41.7285064" lon="13.6241722"><ele>289.3333333333333</ele><time>2026-04-03T17:43:42.681Z</time></trkpt><trkpt lat="41.7283443" lon="13.6241456"><ele>289.0</ele><time>2026-04-03T17:43:43.681Z</time></trkpt><trkpt lat="41.72818" lon="13.6241134"><ele>289.0</ele><time>2026-04-03T17:43:44.682Z</time></trkpt><trkpt lat="41.7280187" lon="13.6240796"><ele>289.0</ele><time>2026-04-03T17:43:45.682Z</time></trkpt><trkpt lat="41.7278672" lon="13.6240521"><ele>289.0</ele><time>2026-04-03T17:43:46.681Z</time></trkpt><trkpt lat="41.7277286" lon="13.6240214"><ele>288.8</ele><time>2026-04-03T17:43:47.682Z</time></trkpt><trkpt lat="41.7276045" lon="13.6239885"><ele>288.59999999999997</ele><time>2026-04-03T17:43:48.682Z</time></trkpt><trkpt lat="41.7274898" lon="13.623954"><ele>288.4</ele><time>2026-04-03T17:43:49.681Z</time></trkpt><trkpt lat="41.7273873" lon="13.6239234"><ele>288.2</ele><time>2026-04-03T17:43:50.682Z</time></trkpt><trkpt lat="41.7272935" lon="13.6238939"><ele>288.0</ele><time>2026-04-03T17:43:51.682Z</time></trkpt><trkpt lat="41.7272038" lon="13.6238658"><ele>288.0</ele><time>2026-04-03T17:43:52.681Z</time></trkpt><trkpt lat="41.7271131" lon="13.6238381"><ele>288.0</ele><time>2026-04-03T17:43:53.681Z</time></trkpt><trkpt lat="41.7270221" lon="13.6238061"><ele>288.0</ele><time>2026-04-03T17:43:54.682Z</time></trkpt><trkpt lat="41.7269351" lon="13.6237758"><ele>288.0</ele><time>2026-04-03T17:43:55.681Z</time></trkpt><trkpt lat="41.7268544" lon="13.6237478"><ele>288.0</ele><time>2026-04-03T17:43:56.682Z</time></trkpt><trkpt lat="41.7267799" lon="13.6237226"><ele>288.0</ele><time>2026-04-03T17:43:57.682Z</time></trkpt><trkpt lat="41.7267063" lon="13.6236957"><ele>288.0</ele><time>2026-04-03T17:43:58.682Z</time></trkpt><trkpt lat="41.7266275" lon="13.6236648"><ele>288.0</ele><time>2026-04-03T17:43:59.681Z</time></trkpt><trkpt lat="41.7265435" lon="13.6236315"><ele>288.0</ele><time>2026-04-03T17:44:00.682Z</time></trkpt><trkpt lat="41.7264634" lon="13.6236002"><ele>288.0</ele><time>2026-04-03T17:44:01.681Z</time></trkpt><trkpt lat="41.726384" lon="13.6235735"><ele>288.0</ele><time>2026-04-03T17:44:02.682Z</time></trkpt><trkpt lat="41.726307" lon="13.6235474"><ele>288.0</ele><time>2026-04-03T17:44:03.681Z</time></trkpt><trkpt lat="41.7262344" lon="13.6235205"><ele>288.00000000000006</ele><time>2026-04-03T17:44:04.681Z</time></trkpt><trkpt lat="41.7261664" lon="13.6234943"><ele>288.0</ele><time>2026-04-03T17:44:05.682Z</time></trkpt><trkpt lat="41.7260989" lon="13.6234618"><ele>288.0</ele><time>2026-04-03T17:44:06.682Z</time></trkpt><trkpt lat="41.7260289" lon="13.6234283"><ele>288.0</ele><time>2026-04-03T17:44:07.681Z</time></trkpt><trkpt lat="41.7259551" lon="13.6233909"><ele>288.0</ele><time>2026-04-03T17:44:08.682Z</time></trkpt><trkpt lat="41.725881" lon="13.6233551"><ele>288.00000000000006</ele><time>2026-04-03T17:44:09.682Z</time></trkpt><trkpt lat="41.7258106" lon="13.6233224"><ele>288.0</ele><time>2026-04-03T17:44:10.682Z</time></trkpt><trkpt lat="41.7257428" lon="13.6232927"><ele>288.0</ele><time>2026-04-03T17:44:11.682Z</time></trkpt><trkpt lat="41.7256765" lon="13.6232652"><ele>288.0</ele><time>2026-04-03T17:44:12.682Z</time></trkpt><trkpt lat="41.7256083" lon="13.6232413"><ele>288.0</ele><time>2026-04-03T17:44:13.681Z</time></trkpt><trkpt lat="41.7255386" lon="13.6232156"><ele>288.0</ele><time>2026-04-03T17:44:14.682Z</time></trkpt><trkpt lat="41.725479" lon="13.6231868"><ele>288.0</ele><time>2026-04-03T17:44:15.682Z</time></trkpt><trkpt lat="41.7253698" lon="13.6231153"><ele>288.0</ele><time>2026-04-03T17:44:17.681Z</time></trkpt><trkpt lat="41.7252831" lon="13.6230673"><ele>288.0</ele><time>2026-04-03T17:44:19.681Z</time></trkpt><trkpt lat="41.7252334" lon="13.6230039"><ele>288.0</ele><time>2026-04-03T17:44:21.681Z</time></trkpt><trkpt lat="41.7252087" lon="13.6228856"><ele>288.0</ele><time>2026-04-03T17:44:24.682Z</time></trkpt><trkpt lat="41.7252426" lon="13.6228054"><ele>288.0</ele><time>2026-04-03T17:44:35.682Z</time></trkpt><trkpt lat="41.7252262" lon="13.6229221"><ele>288.0</ele><time>2026-04-03T17:46:09.682Z</time></trkpt><trkpt lat="41.7251638" lon="13.6229754"><ele>288.0</ele><time>2026-04-03T17:46:11.681Z</time></trkpt><trkpt lat="41.7250714" lon="13.6229718"><ele>288.0</ele><time>2026-04-03T17:46:13.681Z</time></trkpt><trkpt lat="41.7249849" lon="13.6229415"><ele>288.0</ele><time>2026-04-03T17:46:14.681Z</time></trkpt><trkpt lat="41.7248783" lon="13.6228968"><ele>288.0</ele><time>2026-04-03T17:46:15.682Z</time></trkpt><trkpt lat="41.724758" lon="13.6228342"><ele>288.0</ele><time>2026-04-03T17:46:16.682Z</time></trkpt><trkpt lat="41.7246272" lon="13.622775"><ele>288.0</ele><time>2026-04-03T17:46:17.681Z</time></trkpt><trkpt lat="41.7244882" lon="13.6227118"><ele>288.0</ele><time>2026-04-03T17:46:18.681Z</time></trkpt><trkpt lat="41.7243414" lon="13.6226359"><ele>288.0</ele><time>2026-04-03T17:46:19.682Z</time></trkpt><trkpt lat="41.7241867" lon="13.6225555"><ele>288.0</ele><time>2026-04-03T17:46:20.681Z</time></trkpt><trkpt lat="41.7240327" lon="13.6224758"><ele>288.0</ele><time>2026-04-03T17:46:21.682Z</time></trkpt><trkpt lat="41.7238933" lon="13.6224094"><ele>288.0</ele><time>2026-04-03T17:46:22.682Z</time></trkpt><trkpt lat="41.7237809" lon="13.6223552"><ele>288.0</ele><time>2026-04-03T17:46:23.682Z</time></trkpt><trkpt lat="41.7237197" lon="13.6223282"><ele>288.0</ele><time>2026-04-03T17:46:24.681Z</time></trkpt><trkpt lat="41.7236211" lon="13.6222898"><ele>288.0</ele><time>2026-04-03T17:46:28.681Z</time></trkpt><trkpt lat="41.7235085" lon="13.6222324"><ele>288.0</ele><time>2026-04-03T17:46:30.681Z</time></trkpt><trkpt lat="41.7233866" lon="13.6221664"><ele>288.0</ele><time>2026-04-03T17:46:32.681Z</time></trkpt><trkpt lat="41.7233062" lon="13.6221253"><ele>288.0</ele><time>2026-04-03T17:46:33.682Z</time></trkpt><trkpt lat="41.7232132" lon="13.6220794"><ele>287.8</ele><time>2026-04-03T17:46:34.682Z</time></trkpt><trkpt lat="41.7231172" lon="13.6220299"><ele>287.6</ele><time>2026-04-03T17:46:35.681Z</time></trkpt><trkpt lat="41.7230266" lon="13.6219857"><ele>287.4</ele><time>2026-04-03T17:46:36.682Z</time></trkpt><trkpt lat="41.7229225" lon="13.6219391"><ele>287.2</ele><time>2026-04-03T17:46:37.682Z</time></trkpt><trkpt lat="41.7228005" lon="13.6218865"><ele>287.0</ele><time>2026-04-03T17:46:38.682Z</time></trkpt><trkpt lat="41.7226556" lon="13.6218229"><ele>286.6666666666667</ele><time>2026-04-03T17:46:39.681Z</time></trkpt><trkpt lat="41.722482" lon="13.6217339"><ele>286.3333333333333</ele><time>2026-04-03T17:46:40.682Z</time></trkpt><trkpt lat="41.7222918" lon="13.6216186"><ele>286.0</ele><time>2026-04-03T17:46:41.682Z</time></trkpt><trkpt lat="41.7220923" lon="13.6214963"><ele>286.0</ele><time>2026-04-03T17:46:42.682Z</time></trkpt><trkpt lat="41.7218845" lon="13.6213715"><ele>286.0</ele><time>2026-04-03T17:46:43.682Z</time></trkpt><trkpt lat="41.7216849" lon="13.6212418"><ele>286.3333333333333</ele><time>2026-04-03T17:46:44.682Z</time></trkpt><trkpt lat="41.7214898" lon="13.6211022"><ele>286.6666666666667</ele><time>2026-04-03T17:46:45.682Z</time></trkpt><trkpt lat="41.7212909" lon="13.6209534"><ele>287.0</ele><time>2026-04-03T17:46:46.682Z</time></trkpt><trkpt lat="41.721101" lon="13.6208092"><ele>286.6666666666667</ele><time>2026-04-03T17:46:47.682Z</time></trkpt><trkpt lat="41.7209284" lon="13.6206646"><ele>286.3333333333333</ele><time>2026-04-03T17:46:48.682Z</time></trkpt><trkpt lat="41.7207694" lon="13.6205227"><ele>286.0</ele><time>2026-04-03T17:46:49.681Z</time></trkpt><trkpt lat="41.7206173" lon="13.6203835"><ele>286.3333333333333</ele><time>2026-04-03T17:46:50.682Z</time></trkpt><trkpt lat="41.720482" lon="13.6202316"><ele>286.6666666666667</ele><time>2026-04-03T17:46:51.681Z</time></trkpt><trkpt lat="41.7203533" lon="13.6200661"><ele>287.0</ele><time>2026-04-03T17:46:52.682Z</time></trkpt><trkpt lat="41.7202416" lon="13.6198947"><ele>287.0</ele><time>2026-04-03T17:46:53.681Z</time></trkpt><trkpt lat="41.7201377" lon="13.619703"><ele>287.0</ele><time>2026-04-03T17:46:54.682Z</time></trkpt><trkpt lat="41.7200431" lon="13.6194997"><ele>287.0</ele><time>2026-04-03T17:46:55.682Z</time></trkpt><trkpt lat="41.7199561" lon="13.6192991"><ele>287.0</ele><time>2026-04-03T17:46:56.682Z</time></trkpt><trkpt lat="41.7198832" lon="13.6191112"><ele>287.0</ele><time>2026-04-03T17:46:57.682Z</time></trkpt><trkpt lat="41.7198352" lon="13.6189282"><ele>287.0</ele><time>2026-04-03T17:46:58.682Z</time></trkpt><trkpt lat="41.7198122" lon="13.6187476"><ele>287.0</ele><time>2026-04-03T17:46:59.681Z</time></trkpt><trkpt lat="41.7198157" lon="13.6185843"><ele>287.0</ele><time>2026-04-03T17:47:00.681Z</time></trkpt><trkpt lat="41.7198364" lon="13.6184335"><ele>287.0</ele><time>2026-04-03T17:47:01.682Z</time></trkpt><trkpt lat="41.7198611" lon="13.6183189"><ele>287.0</ele><time>2026-04-03T17:47:02.682Z</time></trkpt><trkpt lat="41.7198818" lon="13.6182253"><ele>287.0</ele><time>2026-04-03T17:47:03.682Z</time></trkpt><trkpt lat="41.7199183" lon="13.6180998"><ele>287.0</ele><time>2026-04-03T17:47:05.682Z</time></trkpt><trkpt lat="41.7199815" lon="13.6180031"><ele>287.0</ele><time>2026-04-03T17:47:08.682Z</time></trkpt><trkpt lat="41.7200633" lon="13.6178637"><ele>287.0</ele><time>2026-04-03T17:47:10.681Z</time></trkpt><trkpt lat="41.7201321" lon="13.6177358"><ele>287.0</ele><time>2026-04-03T17:47:11.682Z</time></trkpt><trkpt lat="41.7202199" lon="13.6176036"><ele>287.0</ele><time>2026-04-03T17:47:12.682Z</time></trkpt><trkpt lat="41.7203225" lon="13.6174784"><ele>287.0</ele><time>2026-04-03T17:47:13.681Z</time></trkpt><trkpt lat="41.7204232" lon="13.6173639"><ele>287.0</ele><time>2026-04-03T17:47:14.681Z</time></trkpt><trkpt lat="41.7205187" lon="13.6172784"><ele>287.0</ele><time>2026-04-03T17:47:15.682Z</time></trkpt><trkpt lat="41.7206053" lon="13.6172004"><ele>287.0</ele><time>2026-04-03T17:47:16.682Z</time></trkpt><trkpt lat="41.7206802" lon="13.617111"><ele>287.0</ele><time>2026-04-03T17:47:17.681Z</time></trkpt><trkpt lat="41.7207263" lon="13.61702"><ele>287.0</ele><time>2026-04-03T17:47:18.682Z</time></trkpt><trkpt lat="41.7207165" lon="13.616866"><ele>287.0</ele><time>2026-04-03T17:47:20.682Z</time></trkpt><trkpt lat="41.720671" lon="13.6167968"><ele>287.0</ele><time>2026-04-03T17:47:22.681Z</time></trkpt><trkpt lat="41.7206068" lon="13.6166684"><ele>287.0</ele><time>2026-04-03T17:47:26.682Z</time></trkpt><trkpt lat="41.7205399" lon="13.6165673"><ele>287.0</ele><time>2026-04-03T17:47:27.682Z</time></trkpt><trkpt lat="41.7204627" lon="13.6164511"><ele>287.0</ele><time>2026-04-03T17:47:28.682Z</time></trkpt><trkpt lat="41.7203685" lon="13.6163071"><ele>287.0</ele><time>2026-04-03T17:47:29.682Z</time></trkpt><trkpt lat="41.7202566" lon="13.6161388"><ele>287.0</ele><time>2026-04-03T17:47:30.682Z</time></trkpt><trkpt lat="41.7201243" lon="13.6159639"><ele>286.6666666666667</ele><time>2026-04-03T17:47:31.682Z</time></trkpt><trkpt lat="41.7199714" lon="13.6157752"><ele>286.3333333333333</ele><time>2026-04-03T17:47:32.682Z</time></trkpt><trkpt lat="41.7198292" lon="13.6155919"><ele>286.0</ele><time>2026-04-03T17:47:33.682Z</time></trkpt><trkpt lat="41.7196947" lon="13.6154329"><ele>286.0</ele><time>2026-04-03T17:47:34.681Z</time></trkpt><trkpt lat="41.7195715" lon="13.6152793"><ele>286.0</ele><time>2026-04-03T17:47:35.682Z</time></trkpt><trkpt lat="41.7194536" lon="13.6151399"><ele>286.0</ele><time>2026-04-03T17:47:36.682Z</time></trkpt><trkpt lat="41.7193583" lon="13.615025"><ele>285.66666666666663</ele><time>2026-04-03T17:47:37.681Z</time></trkpt><trkpt lat="41.7192784" lon="13.6149282"><ele>285.3333333333333</ele><time>2026-04-03T17:47:38.681Z</time></trkpt><trkpt lat="41.7192096" lon="13.6148514"><ele>285.0</ele><time>2026-04-03T17:47:39.682Z</time></trkpt><trkpt lat="41.7191548" lon="13.6147866"><ele>284.6666666666667</ele><time>2026-04-03T17:47:40.682Z</time></trkpt><trkpt lat="41.7191032" lon="13.6147287"><ele>284.33333333333337</ele><time>2026-04-03T17:47:41.682Z</time></trkpt><trkpt lat="41.7190551" lon="13.6146668"><ele>284.0</ele><time>2026-04-03T17:47:42.681Z</time></trkpt><trkpt lat="41.7190067" lon="13.6145997"><ele>284.0</ele><time>2026-04-03T17:47:43.681Z</time></trkpt><trkpt lat="41.7189455" lon="13.6145328"><ele>284.0</ele><time>2026-04-03T17:47:44.681Z</time></trkpt><trkpt lat="41.7188655" lon="13.6144393"><ele>284.0</ele><time>2026-04-03T17:47:45.681Z</time></trkpt><trkpt lat="41.7187844" lon="13.6143387"><ele>284.0</ele><time>2026-04-03T17:47:46.681Z</time></trkpt><trkpt lat="41.7187033" lon="13.6142289"><ele>284.0</ele><time>2026-04-03T17:47:47.682Z</time></trkpt><trkpt lat="41.7186276" lon="13.6141281"><ele>283.83333333333337</ele><time>2026-04-03T17:47:48.682Z</time></trkpt><trkpt lat="41.7185727" lon="13.6140443"><ele>283.6666666666667</ele><time>2026-04-03T17:47:49.681Z</time></trkpt><trkpt lat="41.7185247" lon="13.613968"><ele>283.5</ele><time>2026-04-03T17:47:50.682Z</time></trkpt><trkpt lat="41.7184754" lon="13.6138816"><ele>283.3333333333333</ele><time>2026-04-03T17:47:51.682Z</time></trkpt><trkpt lat="41.7184243" lon="13.613793"><ele>283.16666666666663</ele><time>2026-04-03T17:47:52.682Z</time></trkpt><trkpt lat="41.7183538" lon="13.6136612"><ele>283.0</ele><time>2026-04-03T17:47:54.682Z</time></trkpt><trkpt lat="41.7183288" lon="13.6135768"><ele>283.0</ele><time>2026-04-03T17:47:55.681Z</time></trkpt><trkpt lat="41.7183027" lon="13.6134924"><ele>283.0</ele><time>2026-04-03T17:47:56.682Z</time></trkpt><trkpt lat="41.7182867" lon="13.6133932"><ele>283.0</ele><time>2026-04-03T17:47:57.682Z</time></trkpt><trkpt lat="41.7182839" lon="13.6132925"><ele>283.0</ele><time>2026-04-03T17:47:58.682Z</time></trkpt><trkpt lat="41.7183031" lon="13.6131277"><ele>283.0</ele><time>2026-04-03T17:48:09.682Z</time></trkpt><trkpt lat="41.7183169" lon="13.6130355"><ele>283.0</ele><time>2026-04-03T17:48:11.681Z</time></trkpt><trkpt lat="41.7183334" lon="13.6129479"><ele>283.0</ele><time>2026-04-03T17:48:13.682Z</time></trkpt><trkpt lat="41.7183523" lon="13.6128602"><ele>283.0</ele><time>2026-04-03T17:48:15.681Z</time></trkpt><trkpt lat="41.7183735" lon="13.6127751"><ele>283.0</ele><time>2026-04-03T17:48:17.681Z</time></trkpt><trkpt lat="41.7183909" lon="13.6126728"><ele>283.0</ele><time>2026-04-03T17:48:20.682Z</time></trkpt><trkpt lat="41.7184256" lon="13.6125788"><ele>283.0</ele><time>2026-04-03T17:48:24.681Z</time></trkpt><trkpt lat="41.7184473" lon="13.6124908"><ele>283.0</ele><time>2026-04-03T17:48:28.681Z</time></trkpt><trkpt lat="41.7184981" lon="13.612379"><ele>282.8</ele><time>2026-04-03T17:48:34.681Z</time></trkpt><trkpt lat="41.7185657" lon="13.612263"><ele>282.6</ele><time>2026-04-03T17:48:36.682Z</time></trkpt><trkpt lat="41.7186246" lon="13.6121509"><ele>282.4</ele><time>2026-04-03T17:48:38.682Z</time></trkpt><trkpt lat="41.7186822" lon="13.6120344"><ele>282.2</ele><time>2026-04-03T17:48:40.682Z</time></trkpt><trkpt lat="41.7187426" lon="13.6119186"><ele>282.0</ele><time>2026-04-03T17:48:42.681Z</time></trkpt><trkpt lat="41.7188066" lon="13.6117764"><ele>282.6666666666667</ele><time>2026-04-03T17:48:44.682Z</time></trkpt><trkpt lat="41.7188479" lon="13.6116834"><ele>283.3333333333333</ele><time>2026-04-03T17:48:45.682Z</time></trkpt><trkpt lat="41.7189016" lon="13.6115781"><ele>284.0</ele><time>2026-04-03T17:48:46.682Z</time></trkpt><trkpt lat="41.7189574" lon="13.6114706"><ele>284.66666666666663</ele><time>2026-04-03T17:48:47.682Z</time></trkpt><trkpt lat="41.7190013" lon="13.6113944"><ele>285.3333333333333</ele><time>2026-04-03T17:48:48.681Z</time></trkpt><trkpt lat="41.7190406" lon="13.6113256"><ele>286.0</ele><time>2026-04-03T17:48:49.682Z</time></trkpt><trkpt lat="41.7191151" lon="13.6111952"><ele>286.16666666666663</ele><time>2026-04-03T17:48:51.681Z</time></trkpt><trkpt lat="41.7191558" lon="13.6111172"><ele>286.3333333333333</ele><time>2026-04-03T17:48:52.682Z</time></trkpt><trkpt lat="41.7192063" lon="13.6110304"><ele>286.5</ele><time>2026-04-03T17:48:53.681Z</time></trkpt><trkpt lat="41.7192594" lon="13.6109385"><ele>286.6666666666667</ele><time>2026-04-03T17:48:54.682Z</time></trkpt><trkpt lat="41.7193134" lon="13.6108564"><ele>286.83333333333337</ele><time>2026-04-03T17:48:55.681Z</time></trkpt><trkpt lat="41.7193671" lon="13.6107896"><ele>287.0</ele><time>2026-04-03T17:48:56.681Z</time></trkpt><trkpt lat="41.719438" lon="13.6106738"><ele>287.0</ele><time>2026-04-03T17:48:58.682Z</time></trkpt><trkpt lat="41.7194821" lon="13.6105626"><ele>287.0</ele><time>2026-04-03T17:49:00.681Z</time></trkpt><trkpt lat="41.719532" lon="13.6104446"><ele>287.0</ele><time>2026-04-03T17:49:02.682Z</time></trkpt><trkpt lat="41.7195702" lon="13.6103677"><ele>287.0</ele><time>2026-04-03T17:49:03.681Z</time></trkpt><trkpt lat="41.719604" lon="13.610287"><ele>287.0</ele><time>2026-04-03T17:49:04.681Z</time></trkpt><trkpt lat="41.7196498" lon="13.6102102"><ele>287.0</ele><time>2026-04-03T17:49:05.682Z</time></trkpt><trkpt lat="41.7196929" lon="13.6101392"><ele>286.6</ele><time>2026-04-03T17:49:06.682Z</time></trkpt><trkpt lat="41.7197508" lon="13.6100298"><ele>286.2</ele><time>2026-04-03T17:49:08.681Z</time></trkpt><trkpt lat="41.7197883" lon="13.6099323"><ele>285.8</ele><time>2026-04-03T17:49:14.682Z</time></trkpt><trkpt lat="41.7198602" lon="13.6098127"><ele>285.4</ele><time>2026-04-03T17:49:16.682Z</time></trkpt><trkpt lat="41.7199392" lon="13.6097148"><ele>285.0</ele><time>2026-04-03T17:49:17.682Z</time></trkpt><trkpt lat="41.7200414" lon="13.6095705"><ele>285.3333333333333</ele><time>2026-04-03T17:49:18.682Z</time></trkpt><trkpt lat="41.720162" lon="13.6093852"><ele>285.66666666666663</ele><time>2026-04-03T17:49:19.682Z</time></trkpt><trkpt lat="41.720277" lon="13.6091828"><ele>286.0</ele><time>2026-04-03T17:49:20.681Z</time></trkpt><trkpt lat="41.7203983" lon="13.6090129"><ele>285.3333333333333</ele><time>2026-04-03T17:49:21.681Z</time></trkpt><trkpt lat="41.7205132" lon="13.6088467"><ele>284.6666666666667</ele><time>2026-04-03T17:49:22.681Z</time></trkpt><trkpt lat="41.7206063" lon="13.6086775"><ele>284.0</ele><time>2026-04-03T17:49:23.682Z</time></trkpt><trkpt lat="41.7206985" lon="13.6085227"><ele>284.0</ele><time>2026-04-03T17:49:24.682Z</time></trkpt><trkpt lat="41.7207966" lon="13.6083704"><ele>284.0</ele><time>2026-04-03T17:49:25.681Z</time></trkpt><trkpt lat="41.7209004" lon="13.6082143"><ele>284.0</ele><time>2026-04-03T17:49:26.681Z</time></trkpt><trkpt lat="41.7209925" lon="13.6080718"><ele>284.0</ele><time>2026-04-03T17:49:27.681Z</time></trkpt><trkpt lat="41.7210814" lon="13.60795"><ele>283.4</ele><time>2026-04-03T17:49:28.682Z</time></trkpt><trkpt lat="41.7211688" lon="13.6078491"><ele>282.79999999999995</ele><time>2026-04-03T17:49:29.682Z</time></trkpt><trkpt lat="41.7212426" lon="13.6077683"><ele>282.20000000000005</ele><time>2026-04-03T17:49:30.682Z</time></trkpt><trkpt lat="41.721312" lon="13.607706"><ele>281.6</ele><time>2026-04-03T17:49:31.682Z</time></trkpt><trkpt lat="41.7213835" lon="13.6076384"><ele>281.0</ele><time>2026-04-03T17:49:32.682Z</time></trkpt><trkpt lat="41.7214652" lon="13.6075648"><ele>281.0</ele><time>2026-04-03T17:49:33.681Z</time></trkpt><trkpt lat="41.7215488" lon="13.6074941"><ele>281.0</ele><time>2026-04-03T17:49:34.682Z</time></trkpt><trkpt lat="41.7216193" lon="13.6074174"><ele>281.0</ele><time>2026-04-03T17:49:35.682Z</time></trkpt><trkpt lat="41.7216821" lon="13.6073466"><ele>281.0</ele><time>2026-04-03T17:49:36.682Z</time></trkpt><trkpt lat="41.7217507" lon="13.6072745"><ele>281.0</ele><time>2026-04-03T17:49:37.682Z</time></trkpt><trkpt lat="41.7218262" lon="13.6071952"><ele>281.0</ele><time>2026-04-03T17:49:38.681Z</time></trkpt><trkpt lat="41.7218996" lon="13.607115"><ele>281.0</ele><time>2026-04-03T17:49:39.681Z</time></trkpt><trkpt lat="41.7219665" lon="13.6070351"><ele>281.0</ele><time>2026-04-03T17:49:40.682Z</time></trkpt><trkpt lat="41.722033" lon="13.6069592"><ele>281.0</ele><time>2026-04-03T17:49:41.682Z</time></trkpt><trkpt lat="41.7220957" lon="13.6068809"><ele>281.0</ele><time>2026-04-03T17:49:42.682Z</time></trkpt><trkpt lat="41.7221553" lon="13.6068034"><ele>281.0</ele><time>2026-04-03T17:49:43.682Z</time></trkpt><trkpt lat="41.7222109" lon="13.6067235"><ele>281.0</ele><time>2026-04-03T17:49:44.682Z</time></trkpt><trkpt lat="41.7222572" lon="13.6066426"><ele>281.0</ele><time>2026-04-03T17:49:45.682Z</time></trkpt><trkpt lat="41.7223084" lon="13.6065613"><ele>281.0</ele><time>2026-04-03T17:49:46.682Z</time></trkpt><trkpt lat="41.7223607" lon="13.606473"><ele>281.0</ele><time>2026-04-03T17:49:47.682Z</time></trkpt><trkpt lat="41.7224194" lon="13.6063823"><ele>281.0</ele><time>2026-04-03T17:49:48.681Z</time></trkpt><trkpt lat="41.7224812" lon="13.606278"><ele>281.0</ele><time>2026-04-03T17:49:49.682Z</time></trkpt><trkpt lat="41.7225465" lon="13.6061676"><ele>281.0</ele><time>2026-04-03T17:49:50.681Z</time></trkpt><trkpt lat="41.7226055" lon="13.6060665"><ele>281.0</ele><time>2026-04-03T17:49:51.681Z</time></trkpt><trkpt lat="41.7226554" lon="13.6059786"><ele>281.0</ele><time>2026-04-03T17:49:52.682Z</time></trkpt><trkpt lat="41.7227091" lon="13.605892"><ele>281.0</ele><time>2026-04-03T17:49:53.681Z</time></trkpt><trkpt lat="41.7227721" lon="13.6057879"><ele>281.0</ele><time>2026-04-03T17:49:54.681Z</time></trkpt><trkpt lat="41.7228543" lon="13.6056533"><ele>281.0</ele><time>2026-04-03T17:49:55.682Z</time></trkpt><trkpt lat="41.7229378" lon="13.605515"><ele>281.0</ele><time>2026-04-03T17:49:56.682Z</time></trkpt><trkpt lat="41.723012" lon="13.6053731"><ele>281.0</ele><time>2026-04-03T17:49:57.681Z</time></trkpt><trkpt lat="41.723072" lon="13.6052319"><ele>281.0</ele><time>2026-04-03T17:49:58.682Z</time></trkpt><trkpt lat="41.7231169" lon="13.6051109"><ele>280.6666666666667</ele><time>2026-04-03T17:49:59.682Z</time></trkpt><trkpt lat="41.7231457" lon="13.605025"><ele>280.33333333333337</ele><time>2026-04-03T17:50:00.682Z</time></trkpt><trkpt lat="41.7231786" lon="13.6049363"><ele>280.0</ele><time>2026-04-03T17:50:01.681Z</time></trkpt><trkpt lat="41.72322" lon="13.6048395"><ele>279.6666666666667</ele><time>2026-04-03T17:50:02.682Z</time></trkpt><trkpt lat="41.7232734" lon="13.6047306"><ele>279.3333333333333</ele><time>2026-04-03T17:50:03.682Z</time></trkpt><trkpt lat="41.7233378" lon="13.6046214"><ele>279.0</ele><time>2026-04-03T17:50:04.682Z</time></trkpt><trkpt lat="41.7234055" lon="13.6045146"><ele>279.0</ele><time>2026-04-03T17:50:05.682Z</time></trkpt><trkpt lat="41.723465" lon="13.6044257"><ele>279.0</ele><time>2026-04-03T17:50:06.681Z</time></trkpt><trkpt lat="41.7235217" lon="13.6043495"><ele>279.0</ele><time>2026-04-03T17:50:07.682Z</time></trkpt><trkpt lat="41.723578" lon="13.6042766"><ele>279.0</ele><time>2026-04-03T17:50:08.682Z</time></trkpt><trkpt lat="41.7236275" lon="13.6042121"><ele>279.0</ele><time>2026-04-03T17:50:09.682Z</time></trkpt><trkpt lat="41.7237116" lon="13.6041055"><ele>279.0</ele><time>2026-04-03T17:50:11.682Z</time></trkpt><trkpt lat="41.7237784" lon="13.6040412"><ele>279.2</ele><time>2026-04-03T17:50:13.682Z</time></trkpt><trkpt lat="41.7238323" lon="13.6039524"><ele>279.4</ele><time>2026-04-03T17:50:21.681Z</time></trkpt><trkpt lat="41.7238453" lon="13.603826"><ele>279.6</ele><time>2026-04-03T17:50:23.681Z</time></trkpt><trkpt lat="41.7238198" lon="13.6037178"><ele>279.8</ele><time>2026-04-03T17:50:24.681Z</time></trkpt><trkpt lat="41.7237749" lon="13.6035849"><ele>280.0</ele><time>2026-04-03T17:50:25.682Z</time></trkpt><trkpt lat="41.7237209" lon="13.6034402"><ele>280.0</ele><time>2026-04-03T17:50:26.681Z</time></trkpt><trkpt lat="41.7236749" lon="13.6032868"><ele>280.0</ele><time>2026-04-03T17:50:27.682Z</time></trkpt><trkpt lat="41.7236267" lon="13.6031374"><ele>280.0</ele><time>2026-04-03T17:50:28.682Z</time></trkpt><trkpt lat="41.7235857" lon="13.6029922"><ele>280.0</ele><time>2026-04-03T17:50:29.682Z</time></trkpt><trkpt lat="41.7235475" lon="13.6028493"><ele>280.2</ele><time>2026-04-03T17:50:30.681Z</time></trkpt><trkpt lat="41.7235134" lon="13.6027161"><ele>280.4</ele><time>2026-04-03T17:50:31.681Z</time></trkpt><trkpt lat="41.7234761" lon="13.6025768"><ele>280.6</ele><time>2026-04-03T17:50:32.682Z</time></trkpt><trkpt lat="41.7234376" lon="13.6024444"><ele>280.8</ele><time>2026-04-03T17:50:33.682Z</time></trkpt><trkpt lat="41.7234017" lon="13.6023126"><ele>281.0</ele><time>2026-04-03T17:50:34.682Z</time></trkpt><trkpt lat="41.7233644" lon="13.6021813"><ele>281.0</ele><time>2026-04-03T17:50:35.681Z</time></trkpt><trkpt lat="41.7233279" lon="13.602051"><ele>281.0</ele><time>2026-04-03T17:50:36.681Z</time></trkpt><trkpt lat="41.7232899" lon="13.6019269"><ele>281.0</ele><time>2026-04-03T17:50:37.682Z</time></trkpt><trkpt lat="41.7232514" lon="13.6018008"><ele>281.0</ele><time>2026-04-03T17:50:38.681Z</time></trkpt><trkpt lat="41.7232169" lon="13.6016853"><ele>281.0</ele><time>2026-04-03T17:50:39.681Z</time></trkpt><trkpt lat="41.7231843" lon="13.6015793"><ele>280.83333333333337</ele><time>2026-04-03T17:50:40.681Z</time></trkpt><trkpt lat="41.7231594" lon="13.601472"><ele>280.6666666666667</ele><time>2026-04-03T17:50:41.682Z</time></trkpt><trkpt lat="41.7231332" lon="13.6013763"><ele>280.5</ele><time>2026-04-03T17:50:42.681Z</time></trkpt><trkpt lat="41.7231097" lon="13.6012841"><ele>280.3333333333333</ele><time>2026-04-03T17:50:43.681Z</time></trkpt><trkpt lat="41.7230785" lon="13.6011891"><ele>280.16666666666663</ele><time>2026-04-03T17:50:44.682Z</time></trkpt><trkpt lat="41.7230495" lon="13.6010785"><ele>280.0</ele><time>2026-04-03T17:50:45.682Z</time></trkpt><trkpt lat="41.7230144" lon="13.6009722"><ele>280.0</ele><time>2026-04-03T17:50:46.681Z</time></trkpt><trkpt lat="41.7229803" lon="13.60086"><ele>280.0</ele><time>2026-04-03T17:50:47.681Z</time></trkpt><trkpt lat="41.7229485" lon="13.6007515"><ele>280.0</ele><time>2026-04-03T17:50:48.681Z</time></trkpt><trkpt lat="41.7229151" lon="13.6006431"><ele>280.0</ele><time>2026-04-03T17:50:49.682Z</time></trkpt><trkpt lat="41.7228822" lon="13.6005338"><ele>280.0</ele><time>2026-04-03T17:50:50.681Z</time></trkpt><trkpt lat="41.7228494" lon="13.6004333"><ele>280.0</ele><time>2026-04-03T17:50:51.682Z</time></trkpt><trkpt lat="41.7228199" lon="13.6003137"><ele>279.8</ele><time>2026-04-03T17:50:52.681Z</time></trkpt><trkpt lat="41.7227861" lon="13.6002018"><ele>279.6</ele><time>2026-04-03T17:50:53.682Z</time></trkpt><trkpt lat="41.7227542" lon="13.6000888"><ele>279.4</ele><time>2026-04-03T17:50:54.682Z</time></trkpt><trkpt lat="41.7227215" lon="13.5999721"><ele>279.2</ele><time>2026-04-03T17:50:55.682Z</time></trkpt><trkpt lat="41.7226897" lon="13.5998575"><ele>279.0</ele><time>2026-04-03T17:50:56.682Z</time></trkpt><trkpt lat="41.7226612" lon="13.5997367"><ele>279.5</ele><time>2026-04-03T17:50:57.682Z</time></trkpt><trkpt lat="41.7226239" lon="13.5996123"><ele>280.0</ele><time>2026-04-03T17:50:58.682Z</time></trkpt><trkpt lat="41.7225737" lon="13.5994527"><ele>280.5</ele><time>2026-04-03T17:50:59.681Z</time></trkpt><trkpt lat="41.7225211" lon="13.5992685"><ele>281.0</ele><time>2026-04-03T17:51:00.682Z</time></trkpt><trkpt lat="41.722473" lon="13.5990443"><ele>281.0</ele><time>2026-04-03T17:51:01.682Z</time></trkpt><trkpt lat="41.7224186" lon="13.5987919"><ele>281.0</ele><time>2026-04-03T17:51:02.681Z</time></trkpt><trkpt lat="41.7223437" lon="13.5985104"><ele>281.0</ele><time>2026-04-03T17:51:03.681Z</time></trkpt><trkpt lat="41.7222598" lon="13.5982121"><ele>281.5</ele><time>2026-04-03T17:51:04.682Z</time></trkpt><trkpt lat="41.7221703" lon="13.5978953"><ele>282.0</ele><time>2026-04-03T17:51:05.681Z</time></trkpt><trkpt lat="41.7220793" lon="13.5975651"><ele>281.0</ele><time>2026-04-03T17:51:06.681Z</time></trkpt><trkpt lat="41.721981" lon="13.597218"><ele>280.0</ele><time>2026-04-03T17:51:07.681Z</time></trkpt><trkpt lat="41.7218852" lon="13.5968683"><ele>279.5</ele><time>2026-04-03T17:51:08.682Z</time></trkpt><trkpt lat="41.7217899" lon="13.5965251"><ele>279.0</ele><time>2026-04-03T17:51:09.682Z</time></trkpt><trkpt lat="41.7217001" lon="13.5961981"><ele>280.0</ele><time>2026-04-03T17:51:10.682Z</time></trkpt><trkpt lat="41.7216119" lon="13.5958878"><ele>281.0</ele><time>2026-04-03T17:51:11.682Z</time></trkpt><trkpt lat="41.7215295" lon="13.5955777"><ele>281.0</ele><time>2026-04-03T17:51:12.681Z</time></trkpt><trkpt lat="41.7214539" lon="13.5952732"><ele>281.0</ele><time>2026-04-03T17:51:13.681Z</time></trkpt><trkpt lat="41.7213812" lon="13.5949866"><ele>281.0</ele><time>2026-04-03T17:51:14.681Z</time></trkpt><trkpt lat="41.7213218" lon="13.5947567"><ele>281.0</ele><time>2026-04-03T17:51:15.681Z</time></trkpt><trkpt lat="41.7212724" lon="13.5945788"><ele>281.0</ele><time>2026-04-03T17:51:16.682Z</time></trkpt><trkpt lat="41.7212495" lon="13.5944465"><ele>281.0</ele><time>2026-04-03T17:51:17.682Z</time></trkpt><trkpt lat="41.7212299" lon="13.5943373"><ele>280.6</ele><time>2026-04-03T17:51:18.681Z</time></trkpt><trkpt lat="41.721242" lon="13.5942434"><ele>280.20000000000005</ele><time>2026-04-03T17:51:19.682Z</time></trkpt><trkpt lat="41.7212876" lon="13.5941501"><ele>279.79999999999995</ele><time>2026-04-03T17:51:20.681Z</time></trkpt><trkpt lat="41.7213747" lon="13.5940453"><ele>279.4</ele><time>2026-04-03T17:51:21.682Z</time></trkpt><trkpt lat="41.7214985" lon="13.5939575"><ele>279.0</ele><time>2026-04-03T17:51:22.682Z</time></trkpt><trkpt lat="41.7216371" lon="13.5938704"><ele>279.0</ele><time>2026-04-03T17:51:23.682Z</time></trkpt><trkpt lat="41.7217717" lon="13.5937669"><ele>279.0</ele><time>2026-04-03T17:51:24.682Z</time></trkpt><trkpt lat="41.7219067" lon="13.5936357"><ele>279.0</ele><time>2026-04-03T17:51:25.681Z</time></trkpt><trkpt lat="41.722025" lon="13.5934718"><ele>279.0</ele><time>2026-04-03T17:51:26.681Z</time></trkpt><trkpt lat="41.7221351" lon="13.5933029"><ele>279.0</ele><time>2026-04-03T17:51:27.682Z</time></trkpt><trkpt lat="41.7222313" lon="13.593125"><ele>279.0</ele><time>2026-04-03T17:51:28.681Z</time></trkpt><trkpt lat="41.7223143" lon="13.5929214"><ele>278.3333333333333</ele><time>2026-04-03T17:51:29.682Z</time></trkpt><trkpt lat="41.72237" lon="13.592674"><ele>277.66666666666663</ele><time>2026-04-03T17:51:30.682Z</time></trkpt><trkpt lat="41.7224213" lon="13.5923895"><ele>277.0</ele><time>2026-04-03T17:51:31.681Z</time></trkpt><trkpt lat="41.7224653" lon="13.5920796"><ele>277.5</ele><time>2026-04-03T17:51:32.682Z</time></trkpt><trkpt lat="41.7225246" lon="13.5917245"><ele>278.0</ele><time>2026-04-03T17:51:33.681Z</time></trkpt><trkpt lat="41.7225844" lon="13.5913636"><ele>276.5</ele><time>2026-04-03T17:51:34.681Z</time></trkpt><trkpt lat="41.7226389" lon="13.59099"><ele>275.0</ele><time>2026-04-03T17:51:35.682Z</time></trkpt><trkpt lat="41.7226915" lon="13.590617"><ele>276.5</ele><time>2026-04-03T17:51:36.682Z</time></trkpt><trkpt lat="41.7227456" lon="13.5902388"><ele>278.0</ele><time>2026-04-03T17:51:37.682Z</time></trkpt><trkpt lat="41.7228019" lon="13.5898511"><ele>277.5</ele><time>2026-04-03T17:51:38.682Z</time></trkpt><trkpt lat="41.7228597" lon="13.5894608"><ele>277.0</ele><time>2026-04-03T17:51:39.682Z</time></trkpt><trkpt lat="41.7229156" lon="13.589068"><ele>278.0</ele><time>2026-04-03T17:51:40.682Z</time></trkpt><trkpt lat="41.7229713" lon="13.5886683"><ele>279.0</ele><time>2026-04-03T17:51:41.681Z</time></trkpt><trkpt lat="41.723019" lon="13.5882747"><ele>279.0</ele><time>2026-04-03T17:51:42.682Z</time></trkpt><trkpt lat="41.7230652" lon="13.5878772"><ele>279.0</ele><time>2026-04-03T17:51:43.681Z</time></trkpt><trkpt lat="41.72311" lon="13.5874841"><ele>278.0</ele><time>2026-04-03T17:51:44.681Z</time></trkpt><trkpt lat="41.723153" lon="13.5870894"><ele>277.0</ele><time>2026-04-03T17:51:45.681Z</time></trkpt><trkpt lat="41.7231988" lon="13.5867124"><ele>276.5</ele><time>2026-04-03T17:51:46.682Z</time></trkpt><trkpt lat="41.7232361" lon="13.5863676"><ele>276.0</ele><time>2026-04-03T17:51:47.681Z</time></trkpt><trkpt lat="41.7232766" lon="13.5860424"><ele>275.5</ele><time>2026-04-03T17:51:48.682Z</time></trkpt><trkpt lat="41.7232988" lon="13.5857399"><ele>275.0</ele><time>2026-04-03T17:51:49.682Z</time></trkpt><trkpt lat="41.7233025" lon="13.5854396"><ele>274.5</ele><time>2026-04-03T17:51:50.682Z</time></trkpt><trkpt lat="41.7232792" lon="13.5851327"><ele>274.0</ele><time>2026-04-03T17:51:51.681Z</time></trkpt><trkpt lat="41.7232382" lon="13.584817"><ele>274.5</ele><time>2026-04-03T17:51:52.682Z</time></trkpt><trkpt lat="41.7231841" lon="13.5844951"><ele>275.0</ele><time>2026-04-03T17:51:53.681Z</time></trkpt><trkpt lat="41.7231196" lon="13.5841636"><ele>275.0</ele><time>2026-04-03T17:51:54.681Z</time></trkpt><trkpt lat="41.7230545" lon="13.5838316"><ele>275.0</ele><time>2026-04-03T17:51:55.681Z</time></trkpt><trkpt lat="41.722996" lon="13.5834912"><ele>275.33333333333337</ele><time>2026-04-03T17:51:56.682Z</time></trkpt><trkpt lat="41.722954" lon="13.5831793"><ele>275.6666666666667</ele><time>2026-04-03T17:51:57.682Z</time></trkpt><trkpt lat="41.7229104" lon="13.5829011"><ele>276.0</ele><time>2026-04-03T17:51:58.682Z</time></trkpt><trkpt lat="41.7228625" lon="13.5826618"><ele>276.25</ele><time>2026-04-03T17:51:59.682Z</time></trkpt><trkpt lat="41.7228235" lon="13.5824688"><ele>276.5</ele><time>2026-04-03T17:52:00.681Z</time></trkpt><trkpt lat="41.7228165" lon="13.5823062"><ele>276.75</ele><time>2026-04-03T17:52:01.681Z</time></trkpt><trkpt lat="41.7228445" lon="13.5821631"><ele>277.0</ele><time>2026-04-03T17:52:02.681Z</time></trkpt><trkpt lat="41.7228941" lon="13.5820109"><ele>277.0</ele><time>2026-04-03T17:52:03.681Z</time></trkpt><trkpt lat="41.7229745" lon="13.5818544"><ele>277.0</ele><time>2026-04-03T17:52:04.681Z</time></trkpt><trkpt lat="41.72308" lon="13.5816892"><ele>277.0</ele><time>2026-04-03T17:52:05.682Z</time></trkpt><trkpt lat="41.7232159" lon="13.5815155"><ele>277.0</ele><time>2026-04-03T17:52:06.681Z</time></trkpt><trkpt lat="41.7233825" lon="13.5813388"><ele>277.0</ele><time>2026-04-03T17:52:07.682Z</time></trkpt><trkpt lat="41.7235479" lon="13.5811875"><ele>277.0</ele><time>2026-04-03T17:52:08.681Z</time></trkpt><trkpt lat="41.7237071" lon="13.5810704"><ele>278.75</ele><time>2026-04-03T17:52:09.682Z</time></trkpt><trkpt lat="41.7238557" lon="13.5809904"><ele>280.5</ele><time>2026-04-03T17:52:10.682Z</time></trkpt><trkpt lat="41.7239875" lon="13.5809415"><ele>282.25</ele><time>2026-04-03T17:52:11.682Z</time></trkpt><trkpt lat="41.7240899" lon="13.5809098"><ele>284.0</ele><time>2026-04-03T17:52:12.681Z</time></trkpt><trkpt lat="41.7241575" lon="13.5808655"><ele>284.0</ele><time>2026-04-03T17:52:13.682Z</time></trkpt><trkpt lat="41.7241998" lon="13.5807499"><ele>284.0</ele><time>2026-04-03T17:52:15.682Z</time></trkpt><trkpt lat="41.7241428" lon="13.5805418"><ele>284.0</ele><time>2026-04-03T17:52:17.682Z</time></trkpt><trkpt lat="41.7240922" lon="13.5803547"><ele>284.0</ele><time>2026-04-03T17:52:18.682Z</time></trkpt><trkpt lat="41.7240194" lon="13.5801112"><ele>284.33333333333337</ele><time>2026-04-03T17:52:19.682Z</time></trkpt><trkpt lat="41.7239438" lon="13.5798863"><ele>284.6666666666667</ele><time>2026-04-03T17:52:20.682Z</time></trkpt><trkpt lat="41.7238975" lon="13.5796997"><ele>285.0</ele><time>2026-04-03T17:52:21.681Z</time></trkpt><trkpt lat="41.7238536" lon="13.5795469"><ele>284.6666666666667</ele><time>2026-04-03T17:52:22.682Z</time></trkpt><trkpt lat="41.7238224" lon="13.5794263"><ele>284.3333333333333</ele><time>2026-04-03T17:52:23.682Z</time></trkpt><trkpt lat="41.7237889" lon="13.579353"><ele>284.0</ele><time>2026-04-03T17:52:24.682Z</time></trkpt><trkpt lat="41.7237228" lon="13.5793228"><ele>283.66666666666663</ele><time>2026-04-03T17:52:26.682Z</time></trkpt><trkpt lat="41.7236246" lon="13.5793699"><ele>283.3333333333333</ele><time>2026-04-03T17:52:28.682Z</time></trkpt><trkpt lat="41.7235559" lon="13.5794034"><ele>283.0</ele><time>2026-04-03T17:52:29.681Z</time></trkpt><trkpt lat="41.7234864" lon="13.5794362"><ele>282.0</ele><time>2026-04-03T17:52:30.681Z</time></trkpt><trkpt lat="41.7233863" lon="13.5794788"><ele>281.0</ele><time>2026-04-03T17:52:32.682Z</time></trkpt><trkpt lat="41.723315" lon="13.5794641"><ele>280.0</ele><time>2026-04-03T17:53:57.681Z</time></trkpt><trkpt lat="41.7233132" lon="13.5796864"><ele>279.0</ele><time>2026-04-03T17:54:54.682Z</time></trkpt><trkpt lat="41.7233079" lon="13.5795867"><ele>278.0</ele><time>2026-04-03T17:55:24.681Z</time></trkpt><trkpt lat="41.7232332" lon="13.5795233"><ele>277.0</ele><time>2026-04-03T17:55:30.681Z</time></trkpt><trkpt lat="41.7232825" lon="13.5794639"><ele>278.0</ele><time>2026-04-03T17:55:46.682Z</time></trkpt><trkpt lat="41.7233" lon="13.5795588"><ele>277.0</ele><time>2026-04-03T17:56:03.681Z</time></trkpt></trkseg></trk></gpx>